<?xml version='1.0' encoding='UTF-8'?><gpx version="1.1" creator="JPX - https://github.com/jenetics/jpx" xmlns="http://www.topografix.com/GPX/1/1"><trk><trkseg><trkpt lat="40.45821" lon="15.01294"><ele>25.0</ele><time>2026-03-28T06:22:44.478Z</time></trkpt><trkpt lat="40.4583133" lon="15.0129383"><ele>25.0</ele><time>2026-03-28T06:22:46.478Z</time></trkpt><trkpt lat="40.4583583" lon="15.012845"><ele>25.0</ele><time>2026-03-28T06:22:48.478Z</time></trkpt><trkpt lat="40.458395" lon="15.0127083"><ele>25.0</ele><time>2026-03-28T06:22:50.479Z</time></trkpt><trkpt lat="40.4584267" lon="15.0126117"><ele>25.0</ele><time>2026-03-28T06:22:52.478Z</time></trkpt><trkpt lat="40.458435" lon="15.012475"><ele>24.666666666666668</ele><time>2026-03-28T06:23:31.479Z</time></trkpt><trkpt lat="40.4584167" lon="15.01236"><ele>24.333333333333336</ele><time>2026-03-28T06:23:34.479Z</time></trkpt><trkpt lat="40.4584633" lon="15.01229"><ele>24.0</ele><time>2026-03-28T06:23:36.478Z</time></trkpt><trkpt lat="40.4585267" lon="15.0122817"><ele>23.666666666666668</ele><time>2026-03-28T06:23:37.479Z</time></trkpt><trkpt lat="40.4585983" lon="15.012275"><ele>23.333333333333336</ele><time>2026-03-28T06:23:38.478Z</time></trkpt><trkpt lat="40.4586767" lon="15.0122717"><ele>23.0</ele><time>2026-03-28T06:23:39.479Z</time></trkpt><trkpt lat="40.4587717" lon="15.01228"><ele>22.5</ele><time>2026-03-28T06:23:40.479Z</time></trkpt><trkpt lat="40.4588817" lon="15.0123"><ele>22.0</ele><time>2026-03-28T06:23:41.479Z</time></trkpt><trkpt lat="40.4589967" lon="15.0123183"><ele>21.5</ele><time>2026-03-28T06:23:42.479Z</time></trkpt><trkpt lat="40.459115" lon="15.0123317"><ele>21.0</ele><time>2026-03-28T06:23:43.479Z</time></trkpt><trkpt lat="40.45924" lon="15.0123433"><ele>21.0</ele><time>2026-03-28T06:23:44.479Z</time></trkpt><trkpt lat="40.4593817" lon="15.012365"><ele>21.0</ele><time>2026-03-28T06:23:45.478Z</time></trkpt><trkpt lat="40.4595383" lon="15.01238"><ele>21.0</ele><time>2026-03-28T06:23:46.479Z</time></trkpt><trkpt lat="40.4596933" lon="15.0124"><ele>20.666666666666668</ele><time>2026-03-28T06:23:47.478Z</time></trkpt><trkpt lat="40.4598483" lon="15.01242"><ele>20.333333333333336</ele><time>2026-03-28T06:23:48.479Z</time></trkpt><trkpt lat="40.4600067" lon="15.012435"><ele>20.0</ele><time>2026-03-28T06:23:49.479Z</time></trkpt><trkpt lat="40.4601667" lon="15.0124517"><ele>20.0</ele><time>2026-03-28T06:23:50.479Z</time></trkpt><trkpt lat="40.4603267" lon="15.0124717"><ele>20.0</ele><time>2026-03-28T06:23:51.479Z</time></trkpt><trkpt lat="40.4604967" lon="15.0124883"><ele>20.0</ele><time>2026-03-28T06:23:52.479Z</time></trkpt><trkpt lat="40.4606667" lon="15.012515"><ele>20.666666666666668</ele><time>2026-03-28T06:23:53.479Z</time></trkpt><trkpt lat="40.4608333" lon="15.012535"><ele>21.333333333333332</ele><time>2026-03-28T06:23:54.479Z</time></trkpt><trkpt lat="40.460995" lon="15.012565"><ele>22.0</ele><time>2026-03-28T06:23:55.479Z</time></trkpt><trkpt lat="40.4611567" lon="15.012585"><ele>22.333333333333332</ele><time>2026-03-28T06:23:56.479Z</time></trkpt><trkpt lat="40.4613117" lon="15.0126033"><ele>22.666666666666668</ele><time>2026-03-28T06:23:57.479Z</time></trkpt><trkpt lat="40.4614667" lon="15.012625"><ele>23.0</ele><time>2026-03-28T06:23:58.479Z</time></trkpt><trkpt lat="40.4616167" lon="15.012645"><ele>23.0</ele><time>2026-03-28T06:23:59.479Z</time></trkpt><trkpt lat="40.46177" lon="15.0126583"><ele>23.0</ele><time>2026-03-28T06:24:00.479Z</time></trkpt><trkpt lat="40.4619233" lon="15.0126733"><ele>23.0</ele><time>2026-03-28T06:24:01.478Z</time></trkpt><trkpt lat="40.4620883" lon="15.0126867"><ele>22.666666666666668</ele><time>2026-03-28T06:24:02.478Z</time></trkpt><trkpt lat="40.4622483" lon="15.0127083"><ele>22.333333333333332</ele><time>2026-03-28T06:24:03.478Z</time></trkpt><trkpt lat="40.4624183" lon="15.01273"><ele>22.0</ele><time>2026-03-28T06:24:04.479Z</time></trkpt><trkpt lat="40.4625833" lon="15.01274"><ele>22.0</ele><time>2026-03-28T06:24:05.479Z</time></trkpt><trkpt lat="40.4627383" lon="15.012725"><ele>22.0</ele><time>2026-03-28T06:24:06.479Z</time></trkpt><trkpt lat="40.4628817" lon="15.0126767"><ele>22.0</ele><time>2026-03-28T06:24:07.478Z</time></trkpt><trkpt lat="40.4630233" lon="15.0125867"><ele>22.0</ele><time>2026-03-28T06:24:08.478Z</time></trkpt><trkpt lat="40.4631667" lon="15.01248"><ele>22.0</ele><time>2026-03-28T06:24:09.479Z</time></trkpt><trkpt lat="40.46332" lon="15.01236"><ele>22.0</ele><time>2026-03-28T06:24:10.479Z</time></trkpt><trkpt lat="40.4634733" lon="15.0122333"><ele>22.0</ele><time>2026-03-28T06:24:11.479Z</time></trkpt><trkpt lat="40.46362" lon="15.01211"><ele>22.0</ele><time>2026-03-28T06:24:12.478Z</time></trkpt><trkpt lat="40.4637667" lon="15.012"><ele>22.0</ele><time>2026-03-28T06:24:13.478Z</time></trkpt><trkpt lat="40.463915" lon="15.01193"><ele>22.333333333333332</ele><time>2026-03-28T06:24:14.478Z</time></trkpt><trkpt lat="40.4640667" lon="15.0118767"><ele>22.666666666666668</ele><time>2026-03-28T06:24:15.478Z</time></trkpt><trkpt lat="40.4642183" lon="15.01187"><ele>23.0</ele><time>2026-03-28T06:24:16.479Z</time></trkpt><trkpt lat="40.4643617" lon="15.0118883"><ele>23.0</ele><time>2026-03-28T06:24:17.479Z</time></trkpt><trkpt lat="40.4644933" lon="15.01194"><ele>23.0</ele><time>2026-03-28T06:24:18.478Z</time></trkpt><trkpt lat="40.46462" lon="15.0120117"><ele>23.0</ele><time>2026-03-28T06:24:19.479Z</time></trkpt><trkpt lat="40.4647383" lon="15.01211"><ele>23.0</ele><time>2026-03-28T06:24:20.479Z</time></trkpt><trkpt lat="40.4648383" lon="15.012225"><ele>23.0</ele><time>2026-03-28T06:24:21.479Z</time></trkpt><trkpt lat="40.4649233" lon="15.0123567"><ele>23.0</ele><time>2026-03-28T06:24:22.478Z</time></trkpt><trkpt lat="40.4649983" lon="15.0125067"><ele>23.0</ele><time>2026-03-28T06:24:23.479Z</time></trkpt><trkpt lat="40.4650583" lon="15.012675"><ele>23.0</ele><time>2026-03-28T06:24:24.478Z</time></trkpt><trkpt lat="40.4651167" lon="15.0128617"><ele>23.5</ele><time>2026-03-28T06:24:25.479Z</time></trkpt><trkpt lat="40.465175" lon="15.01305"><ele>24.0</ele><time>2026-03-28T06:24:26.478Z</time></trkpt><trkpt lat="40.4652283" lon="15.013235"><ele>24.5</ele><time>2026-03-28T06:24:27.478Z</time></trkpt><trkpt lat="40.4652833" lon="15.0134083"><ele>25.0</ele><time>2026-03-28T06:24:28.479Z</time></trkpt><trkpt lat="40.4653367" lon="15.0135683"><ele>25.0</ele><time>2026-03-28T06:24:29.478Z</time></trkpt><trkpt lat="40.465405" lon="15.0137083"><ele>25.0</ele><time>2026-03-28T06:24:30.478Z</time></trkpt><trkpt lat="40.4654867" lon="15.0138333"><ele>25.0</ele><time>2026-03-28T06:24:31.479Z</time></trkpt><trkpt lat="40.46558" lon="15.01394"><ele>25.0</ele><time>2026-03-28T06:24:32.48Z</time></trkpt><trkpt lat="40.4656867" lon="15.01402"><ele>25.0</ele><time>2026-03-28T06:24:33.48Z</time></trkpt><trkpt lat="40.4658033" lon="15.0140817"><ele>25.0</ele><time>2026-03-28T06:24:34.48Z</time></trkpt><trkpt lat="40.4659317" lon="15.0141183"><ele>25.0</ele><time>2026-03-28T06:24:35.48Z</time></trkpt><trkpt lat="40.4660633" lon="15.0141183"><ele>25.0</ele><time>2026-03-28T06:24:36.48Z</time></trkpt><trkpt lat="40.466195" lon="15.0140817"><ele>25.0</ele><time>2026-03-28T06:24:37.48Z</time></trkpt><trkpt lat="40.4663233" lon="15.01402"><ele>25.0</ele><time>2026-03-28T06:24:38.479Z</time></trkpt><trkpt lat="40.46645" lon="15.013935"><ele>25.0</ele><time>2026-03-28T06:24:39.479Z</time></trkpt><trkpt lat="40.466575" lon="15.0138217"><ele>25.0</ele><time>2026-03-28T06:24:40.48Z</time></trkpt><trkpt lat="40.46671" lon="15.0137067"><ele>25.0</ele><time>2026-03-28T06:24:41.48Z</time></trkpt><trkpt lat="40.46685" lon="15.0135917"><ele>25.0</ele><time>2026-03-28T06:24:42.48Z</time></trkpt><trkpt lat="40.4669917" lon="15.0134967"><ele>25.0</ele><time>2026-03-28T06:24:43.479Z</time></trkpt><trkpt lat="40.467145" lon="15.01342"><ele>25.333333333333336</ele><time>2026-03-28T06:24:44.479Z</time></trkpt><trkpt lat="40.4672883" lon="15.013365"><ele>25.666666666666664</ele><time>2026-03-28T06:24:45.479Z</time></trkpt><trkpt lat="40.4674383" lon="15.0133417"><ele>26.0</ele><time>2026-03-28T06:24:46.48Z</time></trkpt><trkpt lat="40.4675967" lon="15.0133383"><ele>26.0</ele><time>2026-03-28T06:24:47.48Z</time></trkpt><trkpt lat="40.4677567" lon="15.0133483"><ele>26.0</ele><time>2026-03-28T06:24:48.479Z</time></trkpt><trkpt lat="40.4679167" lon="15.0133533"><ele>26.0</ele><time>2026-03-28T06:24:49.48Z</time></trkpt><trkpt lat="40.46809" lon="15.013385"><ele>25.333333333333332</ele><time>2026-03-28T06:24:50.479Z</time></trkpt><trkpt lat="40.4682817" lon="15.013405"><ele>24.666666666666664</ele><time>2026-03-28T06:24:51.479Z</time></trkpt><trkpt lat="40.4684717" lon="15.0134267"><ele>24.0</ele><time>2026-03-28T06:24:52.48Z</time></trkpt><trkpt lat="40.4686583" lon="15.013445"><ele>24.0</ele><time>2026-03-28T06:24:53.479Z</time></trkpt><trkpt lat="40.4688383" lon="15.013465"><ele>24.0</ele><time>2026-03-28T06:24:54.479Z</time></trkpt><trkpt lat="40.46901" lon="15.0134833"><ele>24.0</ele><time>2026-03-28T06:24:55.48Z</time></trkpt><trkpt lat="40.4691733" lon="15.0135033"><ele>24.0</ele><time>2026-03-28T06:24:56.479Z</time></trkpt><trkpt lat="40.4693233" lon="15.0135233"><ele>24.0</ele><time>2026-03-28T06:24:57.48Z</time></trkpt><trkpt lat="40.4694533" lon="15.013545"><ele>24.0</ele><time>2026-03-28T06:24:58.479Z</time></trkpt><trkpt lat="40.4695733" lon="15.0135617"><ele>24.0</ele><time>2026-03-28T06:24:59.48Z</time></trkpt><trkpt lat="40.4696783" lon="15.0135817"><ele>24.333333333333332</ele><time>2026-03-28T06:25:00.48Z</time></trkpt><trkpt lat="40.46977" lon="15.01361"><ele>24.666666666666664</ele><time>2026-03-28T06:25:01.479Z</time></trkpt><trkpt lat="40.4698433" lon="15.013655"><ele>25.0</ele><time>2026-03-28T06:25:02.48Z</time></trkpt><trkpt lat="40.4699" lon="15.0137283"><ele>25.333333333333332</ele><time>2026-03-28T06:25:03.479Z</time></trkpt><trkpt lat="40.469935" lon="15.0138217"><ele>25.666666666666664</ele><time>2026-03-28T06:25:04.48Z</time></trkpt><trkpt lat="40.469975" lon="15.013925"><ele>26.0</ele><time>2026-03-28T06:25:05.48Z</time></trkpt><trkpt lat="40.4700267" lon="15.0140067"><ele>25.999999999999996</ele><time>2026-03-28T06:25:06.48Z</time></trkpt><trkpt lat="40.4700933" lon="15.0140567"><ele>26.0</ele><time>2026-03-28T06:25:07.48Z</time></trkpt><trkpt lat="40.4701683" lon="15.0140633"><ele>26.0</ele><time>2026-03-28T06:25:08.479Z</time></trkpt><trkpt lat="40.4702517" lon="15.01402"><ele>26.0</ele><time>2026-03-28T06:25:09.479Z</time></trkpt><trkpt lat="40.4703317" lon="15.0139483"><ele>25.999999999999996</ele><time>2026-03-28T06:25:10.479Z</time></trkpt><trkpt lat="40.4704167" lon="15.0138783"><ele>26.0</ele><time>2026-03-28T06:25:11.479Z</time></trkpt><trkpt lat="40.4705217" lon="15.0138383"><ele>25.5</ele><time>2026-03-28T06:25:12.479Z</time></trkpt><trkpt lat="40.4706467" lon="15.0138167"><ele>25.0</ele><time>2026-03-28T06:25:13.48Z</time></trkpt><trkpt lat="40.4707983" lon="15.01381"><ele>24.5</ele><time>2026-03-28T06:25:14.48Z</time></trkpt><trkpt lat="40.4709533" lon="15.01381"><ele>24.0</ele><time>2026-03-28T06:25:15.479Z</time></trkpt><trkpt lat="40.4711167" lon="15.013815"><ele>24.333333333333336</ele><time>2026-03-28T06:25:16.48Z</time></trkpt><trkpt lat="40.471285" lon="15.0138217"><ele>24.666666666666668</ele><time>2026-03-28T06:25:17.479Z</time></trkpt><trkpt lat="40.4714567" lon="15.0138317"><ele>25.0</ele><time>2026-03-28T06:25:18.479Z</time></trkpt><trkpt lat="40.4716317" lon="15.01385"><ele>25.0</ele><time>2026-03-28T06:25:19.479Z</time></trkpt><trkpt lat="40.471815" lon="15.0138683"><ele>25.0</ele><time>2026-03-28T06:25:20.479Z</time></trkpt><trkpt lat="40.4719967" lon="15.01389"><ele>25.0</ele><time>2026-03-28T06:25:21.479Z</time></trkpt><trkpt lat="40.4721883" lon="15.01391"><ele>24.666666666666668</ele><time>2026-03-28T06:25:22.479Z</time></trkpt><trkpt lat="40.472375" lon="15.0139317"><ele>24.333333333333336</ele><time>2026-03-28T06:25:23.479Z</time></trkpt><trkpt lat="40.4725633" lon="15.0139533"><ele>24.0</ele><time>2026-03-28T06:25:24.479Z</time></trkpt><trkpt lat="40.472755" lon="15.013975"><ele>23.666666666666668</ele><time>2026-03-28T06:25:25.48Z</time></trkpt><trkpt lat="40.47296" lon="15.0139983"><ele>23.333333333333336</ele><time>2026-03-28T06:25:26.479Z</time></trkpt><trkpt lat="40.4731633" lon="15.0140267"><ele>23.0</ele><time>2026-03-28T06:25:27.48Z</time></trkpt><trkpt lat="40.4733683" lon="15.0140517"><ele>23.0</ele><time>2026-03-28T06:25:28.48Z</time></trkpt><trkpt lat="40.4735733" lon="15.014075"><ele>23.0</ele><time>2026-03-28T06:25:29.48Z</time></trkpt><trkpt lat="40.4737783" lon="15.0141017"><ele>23.0</ele><time>2026-03-28T06:25:30.48Z</time></trkpt><trkpt lat="40.4739867" lon="15.0141283"><ele>23.0</ele><time>2026-03-28T06:25:31.479Z</time></trkpt><trkpt lat="40.4741867" lon="15.014145"><ele>23.0</ele><time>2026-03-28T06:25:32.48Z</time></trkpt><trkpt lat="40.47438" lon="15.0141633"><ele>23.0</ele><time>2026-03-28T06:25:33.479Z</time></trkpt><trkpt lat="40.474575" lon="15.0141867"><ele>22.0</ele><time>2026-03-28T06:25:34.48Z</time></trkpt><trkpt lat="40.474765" lon="15.0142067"><ele>21.0</ele><time>2026-03-28T06:25:35.48Z</time></trkpt><trkpt lat="40.474955" lon="15.01423"><ele>20.0</ele><time>2026-03-28T06:25:36.479Z</time></trkpt><trkpt lat="40.4751383" lon="15.0142583"><ele>20.0</ele><time>2026-03-28T06:25:37.479Z</time></trkpt><trkpt lat="40.4753133" lon="15.0142783"><ele>20.0</ele><time>2026-03-28T06:25:38.48Z</time></trkpt><trkpt lat="40.4754917" lon="15.0142983"><ele>20.0</ele><time>2026-03-28T06:25:39.48Z</time></trkpt><trkpt lat="40.4756617" lon="15.014315"><ele>20.5</ele><time>2026-03-28T06:25:40.48Z</time></trkpt><trkpt lat="40.4758183" lon="15.0143367"><ele>21.0</ele><time>2026-03-28T06:25:41.48Z</time></trkpt><trkpt lat="40.4759667" lon="15.0143517"><ele>21.5</ele><time>2026-03-28T06:25:42.479Z</time></trkpt><trkpt lat="40.4761067" lon="15.014365"><ele>22.0</ele><time>2026-03-28T06:25:43.479Z</time></trkpt><trkpt lat="40.476235" lon="15.0143783"><ele>21.5</ele><time>2026-03-28T06:25:44.479Z</time></trkpt><trkpt lat="40.47636" lon="15.0143967"><ele>21.0</ele><time>2026-03-28T06:25:45.48Z</time></trkpt><trkpt lat="40.4764867" lon="15.014415"><ele>20.5</ele><time>2026-03-28T06:25:46.48Z</time></trkpt><trkpt lat="40.4766167" lon="15.0144317"><ele>20.0</ele><time>2026-03-28T06:25:47.479Z</time></trkpt><trkpt lat="40.4767433" lon="15.0144433"><ele>20.0</ele><time>2026-03-28T06:25:48.479Z</time></trkpt><trkpt lat="40.47687" lon="15.0144533"><ele>20.0</ele><time>2026-03-28T06:25:49.479Z</time></trkpt><trkpt lat="40.476995" lon="15.0144683"><ele>20.0</ele><time>2026-03-28T06:25:50.48Z</time></trkpt><trkpt lat="40.47712" lon="15.014485"><ele>20.0</ele><time>2026-03-28T06:25:51.479Z</time></trkpt><trkpt lat="40.47724" lon="15.014495"><ele>19.75</ele><time>2026-03-28T06:25:52.48Z</time></trkpt><trkpt lat="40.4773617" lon="15.0145067"><ele>19.5</ele><time>2026-03-28T06:25:53.479Z</time></trkpt><trkpt lat="40.4774833" lon="15.0145267"><ele>19.25</ele><time>2026-03-28T06:25:54.48Z</time></trkpt><trkpt lat="40.4775967" lon="15.01454"><ele>19.0</ele><time>2026-03-28T06:25:55.48Z</time></trkpt><trkpt lat="40.4777133" lon="15.014555"><ele>19.0</ele><time>2026-03-28T06:25:56.479Z</time></trkpt><trkpt lat="40.4778283" lon="15.0145733"><ele>19.0</ele><time>2026-03-28T06:25:57.48Z</time></trkpt><trkpt lat="40.47794" lon="15.014585"><ele>19.0</ele><time>2026-03-28T06:25:58.48Z</time></trkpt><trkpt lat="40.4780567" lon="15.0145967"><ele>19.0</ele><time>2026-03-28T06:25:59.479Z</time></trkpt><trkpt lat="40.4781767" lon="15.0146117"><ele>19.0</ele><time>2026-03-28T06:26:00.48Z</time></trkpt><trkpt lat="40.4782933" lon="15.0146283"><ele>19.0</ele><time>2026-03-28T06:26:01.48Z</time></trkpt><trkpt lat="40.4784133" lon="15.0146433"><ele>19.0</ele><time>2026-03-28T06:26:02.48Z</time></trkpt><trkpt lat="40.4785267" lon="15.0146567"><ele>19.0</ele><time>2026-03-28T06:26:03.48Z</time></trkpt><trkpt lat="40.4786467" lon="15.0146717"><ele>19.0</ele><time>2026-03-28T06:26:04.48Z</time></trkpt><trkpt lat="40.478765" lon="15.0146833"><ele>19.0</ele><time>2026-03-28T06:26:05.479Z</time></trkpt><trkpt lat="40.4788867" lon="15.0147"><ele>19.0</ele><time>2026-03-28T06:26:06.479Z</time></trkpt><trkpt lat="40.47901" lon="15.0147133"><ele>19.0</ele><time>2026-03-28T06:26:07.479Z</time></trkpt><trkpt lat="40.4791417" lon="15.0147233"><ele>18.666666666666664</ele><time>2026-03-28T06:26:08.479Z</time></trkpt><trkpt lat="40.4792883" lon="15.0147333"><ele>18.333333333333332</ele><time>2026-03-28T06:26:09.48Z</time></trkpt><trkpt lat="40.479455" lon="15.0147517"><ele>18.0</ele><time>2026-03-28T06:26:10.479Z</time></trkpt><trkpt lat="40.4796317" lon="15.0147783"><ele>17.666666666666668</ele><time>2026-03-28T06:26:11.48Z</time></trkpt><trkpt lat="40.4798133" lon="15.01481"><ele>17.333333333333336</ele><time>2026-03-28T06:26:12.48Z</time></trkpt><trkpt lat="40.48" lon="15.0148467"><ele>17.0</ele><time>2026-03-28T06:26:13.48Z</time></trkpt><trkpt lat="40.4801983" lon="15.0148833"><ele>17.0</ele><time>2026-03-28T06:26:14.479Z</time></trkpt><trkpt lat="40.4803983" lon="15.0149133"><ele>17.0</ele><time>2026-03-28T06:26:15.48Z</time></trkpt><trkpt lat="40.4806" lon="15.0149333"><ele>17.0</ele><time>2026-03-28T06:26:16.48Z</time></trkpt><trkpt lat="40.4808117" lon="15.014955"><ele>16.666666666666668</ele><time>2026-03-28T06:26:17.479Z</time></trkpt><trkpt lat="40.4810283" lon="15.0149833"><ele>16.333333333333332</ele><time>2026-03-28T06:26:18.48Z</time></trkpt><trkpt lat="40.4812483" lon="15.0150133"><ele>16.0</ele><time>2026-03-28T06:26:19.48Z</time></trkpt><trkpt lat="40.4814717" lon="15.0150433"><ele>15.0</ele><time>2026-03-28T06:26:20.479Z</time></trkpt><trkpt lat="40.4816933" lon="15.0150717"><ele>14.0</ele><time>2026-03-28T06:26:21.48Z</time></trkpt><trkpt lat="40.481915" lon="15.015095"><ele>13.0</ele><time>2026-03-28T06:26:22.479Z</time></trkpt><trkpt lat="40.48214" lon="15.0151183"><ele>12.666666666666666</ele><time>2026-03-28T06:26:23.479Z</time></trkpt><trkpt lat="40.4823633" lon="15.0151483"><ele>12.333333333333332</ele><time>2026-03-28T06:26:24.48Z</time></trkpt><trkpt lat="40.4825867" lon="15.0151767"><ele>12.0</ele><time>2026-03-28T06:26:25.48Z</time></trkpt><trkpt lat="40.4828133" lon="15.015205"><ele>11.5</ele><time>2026-03-28T06:26:26.479Z</time></trkpt><trkpt lat="40.4830467" lon="15.0152317"><ele>11.0</ele><time>2026-03-28T06:26:27.48Z</time></trkpt><trkpt lat="40.4832817" lon="15.015255"><ele>11.0</ele><time>2026-03-28T06:26:28.479Z</time></trkpt><trkpt lat="40.4835133" lon="15.015285"><ele>11.0</ele><time>2026-03-28T06:26:29.48Z</time></trkpt><trkpt lat="40.48374" lon="15.015305"><ele>12.0</ele><time>2026-03-28T06:26:30.48Z</time></trkpt><trkpt lat="40.48397" lon="15.0153367"><ele>13.0</ele><time>2026-03-28T06:26:31.48Z</time></trkpt><trkpt lat="40.4841967" lon="15.0153583"><ele>13.0</ele><time>2026-03-28T06:26:32.48Z</time></trkpt><trkpt lat="40.4844167" lon="15.0153833"><ele>13.0</ele><time>2026-03-28T06:26:33.479Z</time></trkpt><trkpt lat="40.484625" lon="15.0154117"><ele>13.0</ele><time>2026-03-28T06:26:34.48Z</time></trkpt><trkpt lat="40.4848167" lon="15.0154283"><ele>12.666666666666666</ele><time>2026-03-28T06:26:35.479Z</time></trkpt><trkpt lat="40.484995" lon="15.0154517"><ele>12.333333333333332</ele><time>2026-03-28T06:26:36.479Z</time></trkpt><trkpt lat="40.485165" lon="15.01547"><ele>12.0</ele><time>2026-03-28T06:26:37.48Z</time></trkpt><trkpt lat="40.4853383" lon="15.0154933"><ele>11.666666666666666</ele><time>2026-03-28T06:26:38.48Z</time></trkpt><trkpt lat="40.485515" lon="15.0155167"><ele>11.333333333333332</ele><time>2026-03-28T06:26:39.479Z</time></trkpt><trkpt lat="40.4857067" lon="15.01554"><ele>11.0</ele><time>2026-03-28T06:26:40.48Z</time></trkpt><trkpt lat="40.4859" lon="15.015565"><ele>11.0</ele><time>2026-03-28T06:26:41.48Z</time></trkpt><trkpt lat="40.4860883" lon="15.0155833"><ele>11.0</ele><time>2026-03-28T06:26:42.48Z</time></trkpt><trkpt lat="40.4862917" lon="15.0156067"><ele>11.0</ele><time>2026-03-28T06:26:43.479Z</time></trkpt><trkpt lat="40.4865" lon="15.0156333"><ele>11.0</ele><time>2026-03-28T06:26:44.48Z</time></trkpt><trkpt lat="40.48671" lon="15.0156567"><ele>11.0</ele><time>2026-03-28T06:26:45.48Z</time></trkpt><trkpt lat="40.486925" lon="15.0156833"><ele>11.0</ele><time>2026-03-28T06:26:46.479Z</time></trkpt><trkpt lat="40.4871417" lon="15.0157083"><ele>11.0</ele><time>2026-03-28T06:26:47.48Z</time></trkpt><trkpt lat="40.4873683" lon="15.0157317"><ele>11.0</ele><time>2026-03-28T06:26:48.479Z</time></trkpt><trkpt lat="40.4876017" lon="15.0157517"><ele>11.0</ele><time>2026-03-28T06:26:49.479Z</time></trkpt><trkpt lat="40.4878367" lon="15.0157783"><ele>11.0</ele><time>2026-03-28T06:26:50.479Z</time></trkpt><trkpt lat="40.4880717" lon="15.0158033"><ele>12.5</ele><time>2026-03-28T06:26:51.48Z</time></trkpt><trkpt lat="40.4882983" lon="15.0158333"><ele>14.0</ele><time>2026-03-28T06:26:52.48Z</time></trkpt><trkpt lat="40.4885217" lon="15.0158633"><ele>14.0</ele><time>2026-03-28T06:26:53.479Z</time></trkpt><trkpt lat="40.4887533" lon="15.0158917"><ele>14.0</ele><time>2026-03-28T06:26:54.48Z</time></trkpt><trkpt lat="40.4889817" lon="15.01592"><ele>16.0</ele><time>2026-03-28T06:26:55.48Z</time></trkpt><trkpt lat="40.4892167" lon="15.0159517"><ele>18.0</ele><time>2026-03-28T06:26:56.479Z</time></trkpt><trkpt lat="40.4894617" lon="15.015985"><ele>17.0</ele><time>2026-03-28T06:26:57.48Z</time></trkpt><trkpt lat="40.4897067" lon="15.0160133"><ele>16.0</ele><time>2026-03-28T06:26:58.48Z</time></trkpt><trkpt lat="40.4899517" lon="15.0160467"><ele>16.0</ele><time>2026-03-28T06:26:59.48Z</time></trkpt><trkpt lat="40.4901767" lon="15.016065"><ele>16.0</ele><time>2026-03-28T06:27:00.479Z</time></trkpt><trkpt lat="40.4903983" lon="15.016095"><ele>16.0</ele><time>2026-03-28T06:27:01.479Z</time></trkpt><trkpt lat="40.4906133" lon="15.0161167"><ele>16.5</ele><time>2026-03-28T06:27:02.48Z</time></trkpt><trkpt lat="40.49084" lon="15.0161467"><ele>17.0</ele><time>2026-03-28T06:27:03.479Z</time></trkpt><trkpt lat="40.4910667" lon="15.016175"><ele>17.333333333333336</ele><time>2026-03-28T06:27:04.48Z</time></trkpt><trkpt lat="40.4912867" lon="15.0162"><ele>17.666666666666668</ele><time>2026-03-28T06:27:05.479Z</time></trkpt><trkpt lat="40.4915083" lon="15.0162133"><ele>18.0</ele><time>2026-03-28T06:27:06.48Z</time></trkpt><trkpt lat="40.4917317" lon="15.0162383"><ele>18.0</ele><time>2026-03-28T06:27:07.48Z</time></trkpt><trkpt lat="40.49194" lon="15.0162617"><ele>18.0</ele><time>2026-03-28T06:27:08.479Z</time></trkpt><trkpt lat="40.4921367" lon="15.016285"><ele>18.0</ele><time>2026-03-28T06:27:09.479Z</time></trkpt><trkpt lat="40.492335" lon="15.016315"><ele>17.666666666666668</ele><time>2026-03-28T06:27:10.479Z</time></trkpt><trkpt lat="40.4925383" lon="15.0163383"><ele>17.333333333333336</ele><time>2026-03-28T06:27:11.48Z</time></trkpt><trkpt lat="40.4927483" lon="15.0163633"><ele>17.0</ele><time>2026-03-28T06:27:12.48Z</time></trkpt><trkpt lat="40.4929617" lon="15.01636"><ele>16.666666666666668</ele><time>2026-03-28T06:27:13.479Z</time></trkpt><trkpt lat="40.4931733" lon="15.0163333"><ele>16.333333333333332</ele><time>2026-03-28T06:27:14.479Z</time></trkpt><trkpt lat="40.4933583" lon="15.0162867"><ele>16.0</ele><time>2026-03-28T06:27:15.48Z</time></trkpt><trkpt lat="40.4935333" lon="15.01623"><ele>16.0</ele><time>2026-03-28T06:27:16.479Z</time></trkpt><trkpt lat="40.4937033" lon="15.0161633"><ele>16.0</ele><time>2026-03-28T06:27:17.48Z</time></trkpt><trkpt lat="40.4938617" lon="15.0160983"><ele>16.0</ele><time>2026-03-28T06:27:18.48Z</time></trkpt><trkpt lat="40.4939967" lon="15.0160433"><ele>16.2</ele><time>2026-03-28T06:27:19.48Z</time></trkpt><trkpt lat="40.4941217" lon="15.0159983"><ele>16.400000000000002</ele><time>2026-03-28T06:27:20.48Z</time></trkpt><trkpt lat="40.4942383" lon="15.0159717"><ele>16.6</ele><time>2026-03-28T06:27:21.479Z</time></trkpt><trkpt lat="40.4943383" lon="15.0159583"><ele>16.8</ele><time>2026-03-28T06:27:22.48Z</time></trkpt><trkpt lat="40.494435" lon="15.0159633"><ele>17.0</ele><time>2026-03-28T06:27:23.48Z</time></trkpt><trkpt lat="40.4945267" lon="15.01597"><ele>16.666666666666668</ele><time>2026-03-28T06:27:24.48Z</time></trkpt><trkpt lat="40.4946067" lon="15.0159483"><ele>16.333333333333336</ele><time>2026-03-28T06:27:25.48Z</time></trkpt><trkpt lat="40.4946783" lon="15.0158883"><ele>16.0</ele><time>2026-03-28T06:27:26.479Z</time></trkpt><trkpt lat="40.4947267" lon="15.0158"><ele>15.666666666666668</ele><time>2026-03-28T06:27:27.48Z</time></trkpt><trkpt lat="40.4947467" lon="15.0156783"><ele>15.333333333333334</ele><time>2026-03-28T06:27:28.48Z</time></trkpt><trkpt lat="40.4947767" lon="15.0155683"><ele>15.0</ele><time>2026-03-28T06:27:29.479Z</time></trkpt><trkpt lat="40.4948267" lon="15.0154783"><ele>15.0</ele><time>2026-03-28T06:27:30.479Z</time></trkpt><trkpt lat="40.4949067" lon="15.0154083"><ele>15.0</ele><time>2026-03-28T06:27:31.479Z</time></trkpt><trkpt lat="40.49503" lon="15.0153433"><ele>15.0</ele><time>2026-03-28T06:27:32.479Z</time></trkpt><trkpt lat="40.4951767" lon="15.015275"><ele>15.0</ele><time>2026-03-28T06:27:33.479Z</time></trkpt><trkpt lat="40.4953333" lon="15.0151883"><ele>14.0</ele><time>2026-03-28T06:27:34.48Z</time></trkpt><trkpt lat="40.4954883" lon="15.0150967"><ele>13.0</ele><time>2026-03-28T06:27:35.48Z</time></trkpt><trkpt lat="40.4956617" lon="15.015"><ele>12.0</ele><time>2026-03-28T06:27:36.479Z</time></trkpt><trkpt lat="40.4958483" lon="15.0148917"><ele>11.333333333333334</ele><time>2026-03-28T06:27:37.48Z</time></trkpt><trkpt lat="40.4960433" lon="15.0147767"><ele>10.666666666666668</ele><time>2026-03-28T06:27:38.479Z</time></trkpt><trkpt lat="40.49624" lon="15.0146633"><ele>10.0</ele><time>2026-03-28T06:27:39.48Z</time></trkpt><trkpt lat="40.4964367" lon="15.0145533"><ele>8.666666666666668</ele><time>2026-03-28T06:27:40.479Z</time></trkpt><trkpt lat="40.4966333" lon="15.014435"><ele>7.333333333333334</ele><time>2026-03-28T06:27:41.479Z</time></trkpt><trkpt lat="40.4968283" lon="15.0143117"><ele>6.0</ele><time>2026-03-28T06:27:42.479Z</time></trkpt><trkpt lat="40.4970267" lon="15.0141983"><ele>6.333333333333334</ele><time>2026-03-28T06:27:43.479Z</time></trkpt><trkpt lat="40.49723" lon="15.0140867"><ele>6.666666666666667</ele><time>2026-03-28T06:27:44.479Z</time></trkpt><trkpt lat="40.497425" lon="15.0139717"><ele>7.0</ele><time>2026-03-28T06:27:45.479Z</time></trkpt><trkpt lat="40.4976283" lon="15.013855"><ele>7.0</ele><time>2026-03-28T06:27:46.48Z</time></trkpt><trkpt lat="40.497845" lon="15.01373"><ele>7.0</ele><time>2026-03-28T06:27:47.48Z</time></trkpt><trkpt lat="40.4980533" lon="15.0136083"><ele>7.5</ele><time>2026-03-28T06:27:48.479Z</time></trkpt><trkpt lat="40.498265" lon="15.0134867"><ele>8.0</ele><time>2026-03-28T06:27:49.48Z</time></trkpt><trkpt lat="40.4984783" lon="15.01337"><ele>6.5</ele><time>2026-03-28T06:27:50.48Z</time></trkpt><trkpt lat="40.4986983" lon="15.0132467"><ele>5.0</ele><time>2026-03-28T06:27:51.479Z</time></trkpt><trkpt lat="40.49892" lon="15.0131167"><ele>4.5</ele><time>2026-03-28T06:27:52.48Z</time></trkpt><trkpt lat="40.4991417" lon="15.01299"><ele>4.0</ele><time>2026-03-28T06:27:53.48Z</time></trkpt><trkpt lat="40.499355" lon="15.0128633"><ele>4.0</ele><time>2026-03-28T06:27:54.48Z</time></trkpt><trkpt lat="40.4995717" lon="15.012735"><ele>4.0</ele><time>2026-03-28T06:27:55.48Z</time></trkpt><trkpt lat="40.4997917" lon="15.0126117"><ele>4.5</ele><time>2026-03-28T06:27:56.48Z</time></trkpt><trkpt lat="40.5000083" lon="15.0124883"><ele>5.0</ele><time>2026-03-28T06:27:57.48Z</time></trkpt><trkpt lat="40.500225" lon="15.0123633"><ele>5.0</ele><time>2026-03-28T06:27:58.48Z</time></trkpt><trkpt lat="40.5004367" lon="15.01224"><ele>5.0</ele><time>2026-03-28T06:27:59.48Z</time></trkpt><trkpt lat="40.5006467" lon="15.0121183"><ele>5.0</ele><time>2026-03-28T06:28:00.48Z</time></trkpt><trkpt lat="40.5008567" lon="15.012"><ele>5.0</ele><time>2026-03-28T06:28:01.48Z</time></trkpt><trkpt lat="40.5010633" lon="15.011885"><ele>5.0</ele><time>2026-03-28T06:28:02.48Z</time></trkpt><trkpt lat="40.50127" lon="15.0117683"><ele>5.0</ele><time>2026-03-28T06:28:03.48Z</time></trkpt><trkpt lat="40.5014733" lon="15.01165"><ele>5.0</ele><time>2026-03-28T06:28:04.479Z</time></trkpt><trkpt lat="40.5016767" lon="15.0115317"><ele>5.333333333333334</ele><time>2026-03-28T06:28:05.48Z</time></trkpt><trkpt lat="40.5018767" lon="15.01143"><ele>5.666666666666667</ele><time>2026-03-28T06:28:06.479Z</time></trkpt><trkpt lat="40.502085" lon="15.0113483"><ele>6.0</ele><time>2026-03-28T06:28:07.48Z</time></trkpt><trkpt lat="40.502295" lon="15.011295"><ele>6.0</ele><time>2026-03-28T06:28:08.48Z</time></trkpt><trkpt lat="40.5025117" lon="15.0112583"><ele>6.0</ele><time>2026-03-28T06:28:09.48Z</time></trkpt><trkpt lat="40.502725" lon="15.0112467"><ele>6.0</ele><time>2026-03-28T06:28:10.479Z</time></trkpt><trkpt lat="40.5029433" lon="15.0112667"><ele>5.666666666666667</ele><time>2026-03-28T06:28:11.48Z</time></trkpt><trkpt lat="40.5031567" lon="15.0113117"><ele>5.333333333333334</ele><time>2026-03-28T06:28:12.48Z</time></trkpt><trkpt lat="40.5033783" lon="15.0113767"><ele>5.0</ele><time>2026-03-28T06:28:13.48Z</time></trkpt><trkpt lat="40.5036083" lon="15.0114433"><ele>5.5</ele><time>2026-03-28T06:28:14.479Z</time></trkpt><trkpt lat="40.503845" lon="15.0115117"><ele>6.0</ele><time>2026-03-28T06:28:15.48Z</time></trkpt><trkpt lat="40.5040833" lon="15.0115767"><ele>6.0</ele><time>2026-03-28T06:28:16.479Z</time></trkpt><trkpt lat="40.5043167" lon="15.01164"><ele>6.0</ele><time>2026-03-28T06:28:17.48Z</time></trkpt><trkpt lat="40.50455" lon="15.0117017"><ele>6.0</ele><time>2026-03-28T06:28:18.48Z</time></trkpt><trkpt lat="40.504785" lon="15.0117617"><ele>6.0</ele><time>2026-03-28T06:28:19.48Z</time></trkpt><trkpt lat="40.50501" lon="15.0118217"><ele>6.0</ele><time>2026-03-28T06:28:20.48Z</time></trkpt><trkpt lat="40.5052317" lon="15.0118767"><ele>6.0</ele><time>2026-03-28T06:28:21.48Z</time></trkpt><trkpt lat="40.5054467" lon="15.0119317"><ele>6.0</ele><time>2026-03-28T06:28:22.479Z</time></trkpt><trkpt lat="40.5056617" lon="15.0119883"><ele>6.333333333333334</ele><time>2026-03-28T06:28:23.48Z</time></trkpt><trkpt lat="40.5058783" lon="15.0120467"><ele>6.666666666666667</ele><time>2026-03-28T06:28:24.48Z</time></trkpt><trkpt lat="40.5060917" lon="15.0121033"><ele>7.0</ele><time>2026-03-28T06:28:25.48Z</time></trkpt><trkpt lat="40.5063083" lon="15.012155"><ele>7.0</ele><time>2026-03-28T06:28:26.48Z</time></trkpt><trkpt lat="40.5065167" lon="15.01219"><ele>7.0</ele><time>2026-03-28T06:28:27.48Z</time></trkpt><trkpt lat="40.5067283" lon="15.012205"><ele>7.0</ele><time>2026-03-28T06:28:28.479Z</time></trkpt><trkpt lat="40.5069433" lon="15.0121967"><ele>6.666666666666667</ele><time>2026-03-28T06:28:29.48Z</time></trkpt><trkpt lat="40.5071567" lon="15.01217"><ele>6.333333333333334</ele><time>2026-03-28T06:28:30.48Z</time></trkpt><trkpt lat="40.5073733" lon="15.0121217"><ele>6.0</ele><time>2026-03-28T06:28:31.48Z</time></trkpt><trkpt lat="40.5075933" lon="15.012045"><ele>6.0</ele><time>2026-03-28T06:28:32.48Z</time></trkpt><trkpt lat="40.50782" lon="15.0119617"><ele>6.0</ele><time>2026-03-28T06:28:33.48Z</time></trkpt><trkpt lat="40.5080567" lon="15.011865"><ele>6.5</ele><time>2026-03-28T06:28:34.48Z</time></trkpt><trkpt lat="40.508295" lon="15.01177"><ele>7.0</ele><time>2026-03-28T06:28:35.479Z</time></trkpt><trkpt lat="40.5085417" lon="15.0116783"><ele>6.0</ele><time>2026-03-28T06:28:36.48Z</time></trkpt><trkpt lat="40.50879" lon="15.0115933"><ele>5.0</ele><time>2026-03-28T06:28:37.479Z</time></trkpt><trkpt lat="40.5090367" lon="15.0115117"><ele>5.0</ele><time>2026-03-28T06:28:38.479Z</time></trkpt><trkpt lat="40.5092833" lon="15.0114267"><ele>5.0</ele><time>2026-03-28T06:28:39.48Z</time></trkpt><trkpt lat="40.5095217" lon="15.0113417"><ele>5.5</ele><time>2026-03-28T06:28:40.479Z</time></trkpt><trkpt lat="40.5097617" lon="15.011255"><ele>6.0</ele><time>2026-03-28T06:28:41.48Z</time></trkpt><trkpt lat="40.5099933" lon="15.0111683"><ele>6.0</ele><time>2026-03-28T06:28:42.479Z</time></trkpt><trkpt lat="40.510225" lon="15.0110817"><ele>6.0</ele><time>2026-03-28T06:28:43.48Z</time></trkpt><trkpt lat="40.510455" lon="15.0109917"><ele>6.0</ele><time>2026-03-28T06:28:44.48Z</time></trkpt><trkpt lat="40.5106867" lon="15.0109017"><ele>6.0</ele><time>2026-03-28T06:28:45.479Z</time></trkpt><trkpt lat="40.5109217" lon="15.0108167"><ele>6.0</ele><time>2026-03-28T06:28:46.48Z</time></trkpt><trkpt lat="40.51116" lon="15.0107267"><ele>6.0</ele><time>2026-03-28T06:28:47.479Z</time></trkpt><trkpt lat="40.5114067" lon="15.0106433"><ele>7.5</ele><time>2026-03-28T06:28:48.479Z</time></trkpt><trkpt lat="40.5116517" lon="15.0105633"><ele>9.0</ele><time>2026-03-28T06:28:49.479Z</time></trkpt><trkpt lat="40.5118983" lon="15.0104767"><ele>9.0</ele><time>2026-03-28T06:28:50.48Z</time></trkpt><trkpt lat="40.5121417" lon="15.0103867"><ele>9.0</ele><time>2026-03-28T06:28:51.48Z</time></trkpt><trkpt lat="40.51239" lon="15.0102983"><ele>9.0</ele><time>2026-03-28T06:28:52.48Z</time></trkpt><trkpt lat="40.5126333" lon="15.0102117"><ele>9.0</ele><time>2026-03-28T06:28:53.48Z</time></trkpt><trkpt lat="40.51288" lon="15.0101233"><ele>8.5</ele><time>2026-03-28T06:28:54.48Z</time></trkpt><trkpt lat="40.5131317" lon="15.0100333"><ele>8.0</ele><time>2026-03-28T06:28:55.48Z</time></trkpt><trkpt lat="40.5133783" lon="15.00994"><ele>8.0</ele><time>2026-03-28T06:28:56.48Z</time></trkpt><trkpt lat="40.513625" lon="15.00985"><ele>8.0</ele><time>2026-03-28T06:28:57.48Z</time></trkpt><trkpt lat="40.5138683" lon="15.0097617"><ele>7.5</ele><time>2026-03-28T06:28:58.479Z</time></trkpt><trkpt lat="40.5141133" lon="15.0096683"><ele>7.0</ele><time>2026-03-28T06:28:59.48Z</time></trkpt><trkpt lat="40.5143633" lon="15.009575"><ele>7.0</ele><time>2026-03-28T06:29:00.479Z</time></trkpt><trkpt lat="40.5146133" lon="15.0094817"><ele>7.0</ele><time>2026-03-28T06:29:01.48Z</time></trkpt><trkpt lat="40.514865" lon="15.0093933"><ele>7.0</ele><time>2026-03-28T06:29:02.48Z</time></trkpt><trkpt lat="40.51511" lon="15.0093033"><ele>7.0</ele><time>2026-03-28T06:29:03.479Z</time></trkpt><trkpt lat="40.51536" lon="15.0092217"><ele>7.5</ele><time>2026-03-28T06:29:04.48Z</time></trkpt><trkpt lat="40.5156033" lon="15.0091417"><ele>8.0</ele><time>2026-03-28T06:29:05.48Z</time></trkpt><trkpt lat="40.5158467" lon="15.0090533"><ele>8.0</ele><time>2026-03-28T06:29:06.479Z</time></trkpt><trkpt lat="40.5160867" lon="15.0089633"><ele>8.0</ele><time>2026-03-28T06:29:07.48Z</time></trkpt><trkpt lat="40.5163167" lon="15.0088817"><ele>8.333333333333332</ele><time>2026-03-28T06:29:08.48Z</time></trkpt><trkpt lat="40.5165333" lon="15.0088033"><ele>8.666666666666666</ele><time>2026-03-28T06:29:09.48Z</time></trkpt><trkpt lat="40.5167483" lon="15.0087233"><ele>9.0</ele><time>2026-03-28T06:29:10.479Z</time></trkpt><trkpt lat="40.5169633" lon="15.0086383"><ele>9.333333333333334</ele><time>2026-03-28T06:29:11.479Z</time></trkpt><trkpt lat="40.5171733" lon="15.0085433"><ele>9.666666666666668</ele><time>2026-03-28T06:29:12.479Z</time></trkpt><trkpt lat="40.5173783" lon="15.0084383"><ele>10.0</ele><time>2026-03-28T06:29:13.48Z</time></trkpt><trkpt lat="40.51758" lon="15.0083183"><ele>10.0</ele><time>2026-03-28T06:29:14.48Z</time></trkpt><trkpt lat="40.51777" lon="15.0081833"><ele>10.0</ele><time>2026-03-28T06:29:15.48Z</time></trkpt><trkpt lat="40.5179517" lon="15.008045"><ele>10.0</ele><time>2026-03-28T06:29:16.479Z</time></trkpt><trkpt lat="40.518125" lon="15.007905"><ele>11.0</ele><time>2026-03-28T06:29:17.479Z</time></trkpt><trkpt lat="40.5182917" lon="15.0077583"><ele>12.0</ele><time>2026-03-28T06:29:18.48Z</time></trkpt><trkpt lat="40.5184433" lon="15.0076067"><ele>13.0</ele><time>2026-03-28T06:29:19.48Z</time></trkpt><trkpt lat="40.5185833" lon="15.0074517"><ele>13.0</ele><time>2026-03-28T06:29:20.48Z</time></trkpt><trkpt lat="40.5187117" lon="15.0072967"><ele>13.0</ele><time>2026-03-28T06:29:21.479Z</time></trkpt><trkpt lat="40.5188317" lon="15.007145"><ele>13.0</ele><time>2026-03-28T06:29:22.479Z</time></trkpt><trkpt lat="40.5189433" lon="15.006995"><ele>13.0</ele><time>2026-03-28T06:29:23.48Z</time></trkpt><trkpt lat="40.5190433" lon="15.0068467"><ele>13.0</ele><time>2026-03-28T06:29:24.48Z</time></trkpt><trkpt lat="40.5191467" lon="15.0066917"><ele>13.0</ele><time>2026-03-28T06:29:25.479Z</time></trkpt><trkpt lat="40.5192467" lon="15.0065267"><ele>13.0</ele><time>2026-03-28T06:29:26.48Z</time></trkpt><trkpt lat="40.5193467" lon="15.0063583"><ele>13.0</ele><time>2026-03-28T06:29:27.48Z</time></trkpt><trkpt lat="40.519435" lon="15.006185"><ele>13.0</ele><time>2026-03-28T06:29:28.48Z</time></trkpt><trkpt lat="40.5195267" lon="15.0060233"><ele>13.0</ele><time>2026-03-28T06:29:29.48Z</time></trkpt><trkpt lat="40.5196183" lon="15.0058617"><ele>13.0</ele><time>2026-03-28T06:29:30.479Z</time></trkpt><trkpt lat="40.5197117" lon="15.0057067"><ele>13.0</ele><time>2026-03-28T06:29:31.479Z</time></trkpt><trkpt lat="40.51982" lon="15.0055583"><ele>13.333333333333332</ele><time>2026-03-28T06:29:32.479Z</time></trkpt><trkpt lat="40.51994" lon="15.0054117"><ele>13.666666666666668</ele><time>2026-03-28T06:29:33.479Z</time></trkpt><trkpt lat="40.5200717" lon="15.0052683"><ele>14.0</ele><time>2026-03-28T06:29:34.479Z</time></trkpt><trkpt lat="40.5202033" lon="15.0051317"><ele>14.0</ele><time>2026-03-28T06:29:35.479Z</time></trkpt><trkpt lat="40.52034" lon="15.0049983"><ele>14.0</ele><time>2026-03-28T06:29:36.479Z</time></trkpt><trkpt lat="40.5204883" lon="15.004865"><ele>14.0</ele><time>2026-03-28T06:29:37.48Z</time></trkpt><trkpt lat="40.520635" lon="15.0047383"><ele>15.333333333333334</ele><time>2026-03-28T06:29:38.479Z</time></trkpt><trkpt lat="40.520785" lon="15.0046"><ele>16.666666666666668</ele><time>2026-03-28T06:29:39.479Z</time></trkpt><trkpt lat="40.520945" lon="15.0044583"><ele>18.0</ele><time>2026-03-28T06:29:40.48Z</time></trkpt><trkpt lat="40.521105" lon="15.00432"><ele>17.666666666666668</ele><time>2026-03-28T06:29:41.48Z</time></trkpt><trkpt lat="40.5212633" lon="15.0041833"><ele>17.333333333333336</ele><time>2026-03-28T06:29:42.48Z</time></trkpt><trkpt lat="40.5214133" lon="15.004055"><ele>17.0</ele><time>2026-03-28T06:29:43.48Z</time></trkpt><trkpt lat="40.5215583" lon="15.0039317"><ele>17.0</ele><time>2026-03-28T06:29:44.479Z</time></trkpt><trkpt lat="40.5216933" lon="15.0038183"><ele>17.0</ele><time>2026-03-28T06:29:45.479Z</time></trkpt><trkpt lat="40.5218217" lon="15.0037083"><ele>17.0</ele><time>2026-03-28T06:29:46.48Z</time></trkpt><trkpt lat="40.5219383" lon="15.003605"><ele>17.0</ele><time>2026-03-28T06:29:47.479Z</time></trkpt><trkpt lat="40.5220517" lon="15.0035083"><ele>17.0</ele><time>2026-03-28T06:29:48.479Z</time></trkpt><trkpt lat="40.5221583" lon="15.0034183"><ele>17.0</ele><time>2026-03-28T06:29:49.479Z</time></trkpt><trkpt lat="40.522255" lon="15.003335"><ele>17.0</ele><time>2026-03-28T06:29:50.479Z</time></trkpt><trkpt lat="40.5223483" lon="15.003255"><ele>17.0</ele><time>2026-03-28T06:29:51.48Z</time></trkpt><trkpt lat="40.522445" lon="15.00317"><ele>17.0</ele><time>2026-03-28T06:29:52.48Z</time></trkpt><trkpt lat="40.5225433" lon="15.0030817"><ele>17.0</ele><time>2026-03-28T06:29:53.479Z</time></trkpt><trkpt lat="40.52265" lon="15.002985"><ele>17.0</ele><time>2026-03-28T06:29:54.48Z</time></trkpt><trkpt lat="40.5227667" lon="15.0028867"><ele>17.0</ele><time>2026-03-28T06:29:55.48Z</time></trkpt><trkpt lat="40.522875" lon="15.002795"><ele>17.0</ele><time>2026-03-28T06:29:56.479Z</time></trkpt><trkpt lat="40.52298" lon="15.002715"><ele>17.0</ele><time>2026-03-28T06:29:57.48Z</time></trkpt><trkpt lat="40.523075" lon="15.0026317"><ele>17.0</ele><time>2026-03-28T06:29:58.479Z</time></trkpt><trkpt lat="40.5231617" lon="15.0025467"><ele>17.0</ele><time>2026-03-28T06:29:59.479Z</time></trkpt><trkpt lat="40.523245" lon="15.00247"><ele>17.0</ele><time>2026-03-28T06:30:00.479Z</time></trkpt><trkpt lat="40.523325" lon="15.0024017"><ele>17.0</ele><time>2026-03-28T06:30:01.48Z</time></trkpt><trkpt lat="40.5233983" lon="15.0023383"><ele>17.0</ele><time>2026-03-28T06:30:02.479Z</time></trkpt><trkpt lat="40.5234617" lon="15.002265"><ele>17.0</ele><time>2026-03-28T06:30:03.48Z</time></trkpt><trkpt lat="40.5235267" lon="15.002205"><ele>17.0</ele><time>2026-03-28T06:30:04.48Z</time></trkpt><trkpt lat="40.523595" lon="15.0021533"><ele>17.0</ele><time>2026-03-28T06:30:05.48Z</time></trkpt><trkpt lat="40.523665" lon="15.0021133"><ele>17.0</ele><time>2026-03-28T06:30:06.48Z</time></trkpt><trkpt lat="40.5237383" lon="15.002085"><ele>17.0</ele><time>2026-03-28T06:30:07.48Z</time></trkpt><trkpt lat="40.5238117" lon="15.0020567"><ele>17.0</ele><time>2026-03-28T06:30:08.479Z</time></trkpt><trkpt lat="40.5238917" lon="15.0020267"><ele>17.0</ele><time>2026-03-28T06:30:09.48Z</time></trkpt><trkpt lat="40.5239617" lon="15.0019867"><ele>17.0</ele><time>2026-03-28T06:30:10.479Z</time></trkpt><trkpt lat="40.524025" lon="15.0019217"><ele>17.0</ele><time>2026-03-28T06:30:11.479Z</time></trkpt><trkpt lat="40.5240767" lon="15.0018383"><ele>17.0</ele><time>2026-03-28T06:30:12.479Z</time></trkpt><trkpt lat="40.5241333" lon="15.0017483"><ele>17.0</ele><time>2026-03-28T06:30:13.479Z</time></trkpt><trkpt lat="40.5242033" lon="15.00165"><ele>17.0</ele><time>2026-03-28T06:30:14.479Z</time></trkpt><trkpt lat="40.5242883" lon="15.0015567"><ele>17.0</ele><time>2026-03-28T06:30:15.48Z</time></trkpt><trkpt lat="40.5243867" lon="15.0014567"><ele>17.333333333333336</ele><time>2026-03-28T06:30:16.479Z</time></trkpt><trkpt lat="40.5245" lon="15.0013483"><ele>17.666666666666668</ele><time>2026-03-28T06:30:17.479Z</time></trkpt><trkpt lat="40.5246317" lon="15.0012233"><ele>18.0</ele><time>2026-03-28T06:30:18.48Z</time></trkpt><trkpt lat="40.5247633" lon="15.001085"><ele>16.666666666666668</ele><time>2026-03-28T06:30:19.479Z</time></trkpt><trkpt lat="40.5249" lon="15.0009433"><ele>15.333333333333334</ele><time>2026-03-28T06:30:20.479Z</time></trkpt><trkpt lat="40.5250667" lon="15.0008167"><ele>14.0</ele><time>2026-03-28T06:30:21.48Z</time></trkpt><trkpt lat="40.5252367" lon="15.000685"><ele>13.0</ele><time>2026-03-28T06:30:22.479Z</time></trkpt><trkpt lat="40.52541" lon="15.0005467"><ele>12.0</ele><time>2026-03-28T06:30:23.48Z</time></trkpt><trkpt lat="40.5255717" lon="15.0004167"><ele>11.0</ele><time>2026-03-28T06:30:24.479Z</time></trkpt><trkpt lat="40.5257367" lon="15.0002767"><ele>11.0</ele><time>2026-03-28T06:30:25.48Z</time></trkpt><trkpt lat="40.52589" lon="15.000135"><ele>11.0</ele><time>2026-03-28T06:30:26.479Z</time></trkpt><trkpt lat="40.5260567" lon="14.99999"><ele>11.0</ele><time>2026-03-28T06:30:27.48Z</time></trkpt><trkpt lat="40.5262317" lon="14.9998367"><ele>10.0</ele><time>2026-03-28T06:30:28.479Z</time></trkpt><trkpt lat="40.526415" lon="14.9996767"><ele>9.0</ele><time>2026-03-28T06:30:29.48Z</time></trkpt><trkpt lat="40.5265983" lon="14.9995133"><ele>8.0</ele><time>2026-03-28T06:30:30.479Z</time></trkpt><trkpt lat="40.5267883" lon="14.99935"><ele>8.0</ele><time>2026-03-28T06:30:31.48Z</time></trkpt><trkpt lat="40.5269917" lon="14.9991783"><ele>8.0</ele><time>2026-03-28T06:30:32.48Z</time></trkpt><trkpt lat="40.5271983" lon="14.9989983"><ele>10.0</ele><time>2026-03-28T06:30:33.48Z</time></trkpt><trkpt lat="40.5274" lon="14.998825"><ele>12.0</ele><time>2026-03-28T06:30:34.48Z</time></trkpt><trkpt lat="40.5275933" lon="14.9986617"><ele>12.0</ele><time>2026-03-28T06:30:35.479Z</time></trkpt><trkpt lat="40.5277783" lon="14.998505"><ele>12.0</ele><time>2026-03-28T06:30:36.48Z</time></trkpt><trkpt lat="40.52796" lon="14.9983483"><ele>12.0</ele><time>2026-03-28T06:30:37.48Z</time></trkpt><trkpt lat="40.52814" lon="14.9981933"><ele>12.666666666666668</ele><time>2026-03-28T06:30:38.479Z</time></trkpt><trkpt lat="40.5283067" lon="14.998045"><ele>13.333333333333334</ele><time>2026-03-28T06:30:39.48Z</time></trkpt><trkpt lat="40.5284633" lon="14.9978983"><ele>14.0</ele><time>2026-03-28T06:30:40.479Z</time></trkpt><trkpt lat="40.52863" lon="14.99775"><ele>14.0</ele><time>2026-03-28T06:30:41.479Z</time></trkpt><trkpt lat="40.5288067" lon="14.9975967"><ele>14.0</ele><time>2026-03-28T06:30:42.48Z</time></trkpt><trkpt lat="40.5289883" lon="14.9974383"><ele>14.0</ele><time>2026-03-28T06:30:43.48Z</time></trkpt><trkpt lat="40.5291817" lon="14.997275"><ele>14.5</ele><time>2026-03-28T06:30:44.479Z</time></trkpt><trkpt lat="40.5293767" lon="14.9971067"><ele>15.0</ele><time>2026-03-28T06:30:45.479Z</time></trkpt><trkpt lat="40.5295783" lon="14.9969333"><ele>15.5</ele><time>2026-03-28T06:30:46.48Z</time></trkpt><trkpt lat="40.5297767" lon="14.9967683"><ele>16.0</ele><time>2026-03-28T06:30:47.48Z</time></trkpt><trkpt lat="40.5299783" lon="14.9966017"><ele>17.0</ele><time>2026-03-28T06:30:48.479Z</time></trkpt><trkpt lat="40.5301767" lon="14.9964367"><ele>18.0</ele><time>2026-03-28T06:30:49.48Z</time></trkpt><trkpt lat="40.53038" lon="14.9962667"><ele>19.0</ele><time>2026-03-28T06:30:50.48Z</time></trkpt><trkpt lat="40.530585" lon="14.9960967"><ele>20.0</ele><time>2026-03-28T06:30:51.48Z</time></trkpt><trkpt lat="40.5307917" lon="14.9959167"><ele>21.0</ele><time>2026-03-28T06:30:52.479Z</time></trkpt><trkpt lat="40.530995" lon="14.9957333"><ele>22.0</ele><time>2026-03-28T06:30:53.48Z</time></trkpt><trkpt lat="40.53121" lon="14.9955467"><ele>20.5</ele><time>2026-03-28T06:30:54.479Z</time></trkpt><trkpt lat="40.5314233" lon="14.9953533"><ele>19.0</ele><time>2026-03-28T06:30:55.48Z</time></trkpt><trkpt lat="40.531625" lon="14.9951733"><ele>20.0</ele><time>2026-03-28T06:30:56.48Z</time></trkpt><trkpt lat="40.53183" lon="14.9949967"><ele>21.0</ele><time>2026-03-28T06:30:57.48Z</time></trkpt><trkpt lat="40.53204" lon="14.9948117"><ele>21.0</ele><time>2026-03-28T06:30:58.479Z</time></trkpt><trkpt lat="40.532255" lon="14.9946217"><ele>21.0</ele><time>2026-03-28T06:30:59.48Z</time></trkpt><trkpt lat="40.53247" lon="14.9944317"><ele>21.0</ele><time>2026-03-28T06:31:00.479Z</time></trkpt><trkpt lat="40.5326867" lon="14.9942383"><ele>21.0</ele><time>2026-03-28T06:31:01.48Z</time></trkpt><trkpt lat="40.5329117" lon="14.9940483"><ele>20.5</ele><time>2026-03-28T06:31:02.479Z</time></trkpt><trkpt lat="40.5331333" lon="14.9938567"><ele>20.0</ele><time>2026-03-28T06:31:03.479Z</time></trkpt><trkpt lat="40.5333533" lon="14.9936633"><ele>20.0</ele><time>2026-03-28T06:31:04.48Z</time></trkpt><trkpt lat="40.5335667" lon="14.993475"><ele>20.0</ele><time>2026-03-28T06:31:05.479Z</time></trkpt><trkpt lat="40.5337717" lon="14.993295"><ele>20.5</ele><time>2026-03-28T06:31:06.48Z</time></trkpt><trkpt lat="40.5339733" lon="14.993115"><ele>21.0</ele><time>2026-03-28T06:31:07.48Z</time></trkpt><trkpt lat="40.5341767" lon="14.992935"><ele>21.0</ele><time>2026-03-28T06:31:08.479Z</time></trkpt><trkpt lat="40.5343717" lon="14.9927583"><ele>21.0</ele><time>2026-03-28T06:31:09.48Z</time></trkpt><trkpt lat="40.5345717" lon="14.992585"><ele>22.5</ele><time>2026-03-28T06:31:10.48Z</time></trkpt><trkpt lat="40.5347717" lon="14.9924167"><ele>24.0</ele><time>2026-03-28T06:31:11.479Z</time></trkpt><trkpt lat="40.5349683" lon="14.99224"><ele>24.0</ele><time>2026-03-28T06:31:12.48Z</time></trkpt><trkpt lat="40.53517" lon="14.992065"><ele>24.0</ele><time>2026-03-28T06:31:13.48Z</time></trkpt><trkpt lat="40.5353733" lon="14.99189"><ele>23.5</ele><time>2026-03-28T06:31:14.48Z</time></trkpt><trkpt lat="40.5355817" lon="14.9917283"><ele>23.0</ele><time>2026-03-28T06:31:15.48Z</time></trkpt><trkpt lat="40.535795" lon="14.9915783"><ele>23.0</ele><time>2026-03-28T06:31:16.48Z</time></trkpt><trkpt lat="40.536015" lon="14.9914433"><ele>23.0</ele><time>2026-03-28T06:31:17.48Z</time></trkpt><trkpt lat="40.53624" lon="14.9913167"><ele>23.0</ele><time>2026-03-28T06:31:18.48Z</time></trkpt><trkpt lat="40.5364667" lon="14.9912067"><ele>23.0</ele><time>2026-03-28T06:31:19.479Z</time></trkpt><trkpt lat="40.5366917" lon="14.991105"><ele>23.0</ele><time>2026-03-28T06:31:20.48Z</time></trkpt><trkpt lat="40.5369133" lon="14.9910133"><ele>23.0</ele><time>2026-03-28T06:31:21.479Z</time></trkpt><trkpt lat="40.537145" lon="14.9909367"><ele>23.5</ele><time>2026-03-28T06:31:22.479Z</time></trkpt><trkpt lat="40.5373767" lon="14.9908667"><ele>24.0</ele><time>2026-03-28T06:31:23.48Z</time></trkpt><trkpt lat="40.537605" lon="14.990805"><ele>24.0</ele><time>2026-03-28T06:31:24.479Z</time></trkpt><trkpt lat="40.53784" lon="14.9907567"><ele>24.0</ele><time>2026-03-28T06:31:25.48Z</time></trkpt><trkpt lat="40.5380783" lon="14.99072"><ele>24.5</ele><time>2026-03-28T06:31:26.479Z</time></trkpt><trkpt lat="40.5383167" lon="14.9906933"><ele>25.0</ele><time>2026-03-28T06:31:27.48Z</time></trkpt><trkpt lat="40.5385567" lon="14.9906633"><ele>24.5</ele><time>2026-03-28T06:31:28.48Z</time></trkpt><trkpt lat="40.5387983" lon="14.9906367"><ele>24.0</ele><time>2026-03-28T06:31:29.48Z</time></trkpt><trkpt lat="40.5390433" lon="14.990605"><ele>24.0</ele><time>2026-03-28T06:31:30.48Z</time></trkpt><trkpt lat="40.5392883" lon="14.9905717"><ele>24.0</ele><time>2026-03-28T06:31:31.48Z</time></trkpt><trkpt lat="40.5395333" lon="14.990535"><ele>23.0</ele><time>2026-03-28T06:31:32.48Z</time></trkpt><trkpt lat="40.5397833" lon="14.9905"><ele>22.0</ele><time>2026-03-28T06:31:33.479Z</time></trkpt><trkpt lat="40.5400233" lon="14.9904717"><ele>22.0</ele><time>2026-03-28T06:31:34.48Z</time></trkpt><trkpt lat="40.5402633" lon="14.9904367"><ele>22.0</ele><time>2026-03-28T06:31:35.479Z</time></trkpt><trkpt lat="40.5405017" lon="14.9904017"><ele>23.5</ele><time>2026-03-28T06:31:36.479Z</time></trkpt><trkpt lat="40.540735" lon="14.9903733"><ele>25.0</ele><time>2026-03-28T06:31:37.479Z</time></trkpt><trkpt lat="40.54097" lon="14.9903417"><ele>25.0</ele><time>2026-03-28T06:31:38.48Z</time></trkpt><trkpt lat="40.54121" lon="14.9903117"><ele>25.0</ele><time>2026-03-28T06:31:39.479Z</time></trkpt><trkpt lat="40.5414467" lon="14.9902767"><ele>25.0</ele><time>2026-03-28T06:31:40.48Z</time></trkpt><trkpt lat="40.541685" lon="14.990245"><ele>25.0</ele><time>2026-03-28T06:31:41.479Z</time></trkpt><trkpt lat="40.5419133" lon="14.99021"><ele>26.0</ele><time>2026-03-28T06:31:42.48Z</time></trkpt><trkpt lat="40.5421433" lon="14.9901717"><ele>27.0</ele><time>2026-03-28T06:31:43.479Z</time></trkpt><trkpt lat="40.54237" lon="14.9901333"><ele>27.0</ele><time>2026-03-28T06:31:44.48Z</time></trkpt><trkpt lat="40.5425983" lon="14.9901033"><ele>27.0</ele><time>2026-03-28T06:31:45.479Z</time></trkpt><trkpt lat="40.54283" lon="14.99007"><ele>27.0</ele><time>2026-03-28T06:31:46.48Z</time></trkpt><trkpt lat="40.5430567" lon="14.990035"><ele>27.0</ele><time>2026-03-28T06:31:47.48Z</time></trkpt><trkpt lat="40.5432883" lon="14.990005"><ele>27.0</ele><time>2026-03-28T06:31:48.48Z</time></trkpt><trkpt lat="40.5435183" lon="14.9899767"><ele>27.0</ele><time>2026-03-28T06:31:49.48Z</time></trkpt><trkpt lat="40.54375" lon="14.9899483"><ele>27.5</ele><time>2026-03-28T06:31:50.48Z</time></trkpt><trkpt lat="40.543985" lon="14.9899183"><ele>28.0</ele><time>2026-03-28T06:31:51.479Z</time></trkpt><trkpt lat="40.544215" lon="14.9898883"><ele>28.0</ele><time>2026-03-28T06:31:52.479Z</time></trkpt><trkpt lat="40.5444417" lon="14.9898533"><ele>28.0</ele><time>2026-03-28T06:31:53.48Z</time></trkpt><trkpt lat="40.5446683" lon="14.98982"><ele>28.0</ele><time>2026-03-28T06:31:54.479Z</time></trkpt><trkpt lat="40.5448917" lon="14.98979"><ele>28.0</ele><time>2026-03-28T06:31:55.479Z</time></trkpt><trkpt lat="40.5451283" lon="14.9897583"><ele>28.0</ele><time>2026-03-28T06:31:56.48Z</time></trkpt><trkpt lat="40.545355" lon="14.9897283"><ele>28.0</ele><time>2026-03-28T06:31:57.48Z</time></trkpt><trkpt lat="40.5455833" lon="14.9897"><ele>28.0</ele><time>2026-03-28T06:31:58.48Z</time></trkpt><trkpt lat="40.5458" lon="14.989675"><ele>28.0</ele><time>2026-03-28T06:31:59.479Z</time></trkpt><trkpt lat="40.5460167" lon="14.9896467"><ele>28.0</ele><time>2026-03-28T06:32:00.48Z</time></trkpt><trkpt lat="40.54623" lon="14.989615"><ele>28.333333333333336</ele><time>2026-03-28T06:32:01.48Z</time></trkpt><trkpt lat="40.546445" lon="14.9895833"><ele>28.666666666666664</ele><time>2026-03-28T06:32:02.48Z</time></trkpt><trkpt lat="40.5466567" lon="14.989555"><ele>29.0</ele><time>2026-03-28T06:32:03.48Z</time></trkpt><trkpt lat="40.5468683" lon="14.9895333"><ele>28.666666666666664</ele><time>2026-03-28T06:32:04.48Z</time></trkpt><trkpt lat="40.547065" lon="14.9895067"><ele>28.333333333333336</ele><time>2026-03-28T06:32:05.479Z</time></trkpt><trkpt lat="40.54725" lon="14.9894833"><ele>28.0</ele><time>2026-03-28T06:32:06.48Z</time></trkpt><trkpt lat="40.5474233" lon="14.9894583"><ele>28.0</ele><time>2026-03-28T06:32:07.48Z</time></trkpt><trkpt lat="40.5475767" lon="14.98944"><ele>28.0</ele><time>2026-03-28T06:32:08.479Z</time></trkpt><trkpt lat="40.5477233" lon="14.9894183"><ele>28.0</ele><time>2026-03-28T06:32:09.48Z</time></trkpt><trkpt lat="40.54786" lon="14.9893983"><ele>28.0</ele><time>2026-03-28T06:32:10.479Z</time></trkpt><trkpt lat="40.5479867" lon="14.9893817"><ele>28.0</ele><time>2026-03-28T06:32:11.479Z</time></trkpt><trkpt lat="40.5481067" lon="14.9893567"><ele>27.999999999999996</ele><time>2026-03-28T06:32:12.48Z</time></trkpt><trkpt lat="40.5482117" lon="14.9893117"><ele>27.999999999999996</ele><time>2026-03-28T06:32:13.479Z</time></trkpt><trkpt lat="40.5483017" lon="14.9892533"><ele>28.0</ele><time>2026-03-28T06:32:14.48Z</time></trkpt><trkpt lat="40.5483867" lon="14.9891767"><ele>28.0</ele><time>2026-03-28T06:32:15.481Z</time></trkpt><trkpt lat="40.54846" lon="14.989115"><ele>28.0</ele><time>2026-03-28T06:32:16.48Z</time></trkpt><trkpt lat="40.54855" lon="14.9890817"><ele>27.999999999999996</ele><time>2026-03-28T06:32:17.481Z</time></trkpt><trkpt lat="40.548655" lon="14.9890617"><ele>27.999999999999996</ele><time>2026-03-28T06:32:18.481Z</time></trkpt><trkpt lat="40.5487683" lon="14.989045"><ele>28.0</ele><time>2026-03-28T06:32:19.481Z</time></trkpt><trkpt lat="40.54888" lon="14.98904"><ele>28.0</ele><time>2026-03-28T06:32:20.48Z</time></trkpt><trkpt lat="40.5489783" lon="14.9890667"><ele>28.5</ele><time>2026-03-28T06:32:21.481Z</time></trkpt><trkpt lat="40.5490767" lon="14.98912"><ele>29.0</ele><time>2026-03-28T06:32:22.481Z</time></trkpt><trkpt lat="40.5491883" lon="14.9891733"><ele>29.5</ele><time>2026-03-28T06:32:23.48Z</time></trkpt><trkpt lat="40.5493067" lon="14.989205"><ele>30.0</ele><time>2026-03-28T06:32:24.481Z</time></trkpt><trkpt lat="40.5494367" lon="14.9892083"><ele>29.75</ele><time>2026-03-28T06:32:25.481Z</time></trkpt><trkpt lat="40.54957" lon="14.9891933"><ele>29.5</ele><time>2026-03-28T06:32:26.481Z</time></trkpt><trkpt lat="40.5497133" lon="14.989165"><ele>29.25</ele><time>2026-03-28T06:32:27.48Z</time></trkpt><trkpt lat="40.549855" lon="14.98914"><ele>29.0</ele><time>2026-03-28T06:32:28.481Z</time></trkpt><trkpt lat="40.5500083" lon="14.9891133"><ele>29.0</ele><time>2026-03-28T06:32:29.481Z</time></trkpt><trkpt lat="40.5501733" lon="14.9890783"><ele>29.0</ele><time>2026-03-28T06:32:30.48Z</time></trkpt><trkpt lat="40.550355" lon="14.989055"><ele>29.0</ele><time>2026-03-28T06:32:31.481Z</time></trkpt><trkpt lat="40.5505467" lon="14.98903"><ele>28.333333333333332</ele><time>2026-03-28T06:32:32.48Z</time></trkpt><trkpt lat="40.5507417" lon="14.9890017"><ele>27.666666666666664</ele><time>2026-03-28T06:32:33.481Z</time></trkpt><trkpt lat="40.5509317" lon="14.988975"><ele>27.0</ele><time>2026-03-28T06:32:34.481Z</time></trkpt><trkpt lat="40.5511317" lon="14.98895"><ele>26.333333333333336</ele><time>2026-03-28T06:32:35.481Z</time></trkpt><trkpt lat="40.5513317" lon="14.9889233"><ele>25.666666666666668</ele><time>2026-03-28T06:32:36.481Z</time></trkpt><trkpt lat="40.5515417" lon="14.9888967"><ele>25.0</ele><time>2026-03-28T06:32:37.481Z</time></trkpt><trkpt lat="40.5517583" lon="14.9888683"><ele>25.0</ele><time>2026-03-28T06:32:38.481Z</time></trkpt><trkpt lat="40.5519717" lon="14.98884"><ele>25.0</ele><time>2026-03-28T06:32:39.48Z</time></trkpt><trkpt lat="40.5521833" lon="14.988805"><ele>25.0</ele><time>2026-03-28T06:32:40.48Z</time></trkpt><trkpt lat="40.5523917" lon="14.9887717"><ele>24.333333333333336</ele><time>2026-03-28T06:32:41.481Z</time></trkpt><trkpt lat="40.5526017" lon="14.9887383"><ele>23.666666666666668</ele><time>2026-03-28T06:32:42.481Z</time></trkpt><trkpt lat="40.5528133" lon="14.9887117"><ele>23.0</ele><time>2026-03-28T06:32:43.481Z</time></trkpt><trkpt lat="40.553025" lon="14.988685"><ele>23.0</ele><time>2026-03-28T06:32:44.481Z</time></trkpt><trkpt lat="40.5532367" lon="14.9886567"><ele>23.0</ele><time>2026-03-28T06:32:45.481Z</time></trkpt><trkpt lat="40.5534433" lon="14.9886267"><ele>23.0</ele><time>2026-03-28T06:32:46.48Z</time></trkpt><trkpt lat="40.553655" lon="14.9886"><ele>23.333333333333336</ele><time>2026-03-28T06:32:47.48Z</time></trkpt><trkpt lat="40.5538667" lon="14.9885733"><ele>23.666666666666668</ele><time>2026-03-28T06:32:48.481Z</time></trkpt><trkpt lat="40.5540733" lon="14.9885433"><ele>24.0</ele><time>2026-03-28T06:32:49.481Z</time></trkpt><trkpt lat="40.55428" lon="14.9885117"><ele>24.0</ele><time>2026-03-28T06:32:50.481Z</time></trkpt><trkpt lat="40.5544883" lon="14.9884833"><ele>24.0</ele><time>2026-03-28T06:32:51.48Z</time></trkpt><trkpt lat="40.5547" lon="14.9884533"><ele>24.0</ele><time>2026-03-28T06:32:52.481Z</time></trkpt><trkpt lat="40.5549167" lon="14.9884217"><ele>23.5</ele><time>2026-03-28T06:32:53.481Z</time></trkpt><trkpt lat="40.555135" lon="14.9883883"><ele>23.0</ele><time>2026-03-28T06:32:54.481Z</time></trkpt><trkpt lat="40.555365" lon="14.9883567"><ele>21.5</ele><time>2026-03-28T06:32:55.481Z</time></trkpt><trkpt lat="40.555595" lon="14.9883217"><ele>20.0</ele><time>2026-03-28T06:32:56.481Z</time></trkpt><trkpt lat="40.555825" lon="14.9882917"><ele>20.0</ele><time>2026-03-28T06:32:57.48Z</time></trkpt><trkpt lat="40.5560533" lon="14.9882517"><ele>20.0</ele><time>2026-03-28T06:32:58.481Z</time></trkpt><trkpt lat="40.5562833" lon="14.98822"><ele>19.5</ele><time>2026-03-28T06:32:59.481Z</time></trkpt><trkpt lat="40.5565067" lon="14.988195"><ele>19.0</ele><time>2026-03-28T06:33:00.481Z</time></trkpt><trkpt lat="40.5567367" lon="14.98817"><ele>19.0</ele><time>2026-03-28T06:33:01.481Z</time></trkpt><trkpt lat="40.55697" lon="14.9881433"><ele>19.0</ele><time>2026-03-28T06:33:02.481Z</time></trkpt><trkpt lat="40.5572117" lon="14.9881133"><ele>19.5</ele><time>2026-03-28T06:33:03.481Z</time></trkpt><trkpt lat="40.5574517" lon="14.9880783"><ele>20.0</ele><time>2026-03-28T06:33:04.481Z</time></trkpt><trkpt lat="40.55769" lon="14.9880433"><ele>21.0</ele><time>2026-03-28T06:33:05.481Z</time></trkpt><trkpt lat="40.55792" lon="14.9880067"><ele>22.0</ele><time>2026-03-28T06:33:06.481Z</time></trkpt><trkpt lat="40.5581583" lon="14.9879717"><ele>22.0</ele><time>2026-03-28T06:33:07.481Z</time></trkpt><trkpt lat="40.5583817" lon="14.9879417"><ele>22.0</ele><time>2026-03-28T06:33:08.48Z</time></trkpt><trkpt lat="40.5586133" lon="14.98791"><ele>23.5</ele><time>2026-03-28T06:33:09.481Z</time></trkpt><trkpt lat="40.55884" lon="14.9878767"><ele>25.0</ele><time>2026-03-28T06:33:10.48Z</time></trkpt><trkpt lat="40.5590617" lon="14.9878417"><ele>25.0</ele><time>2026-03-28T06:33:11.48Z</time></trkpt><trkpt lat="40.5592833" lon="14.98781"><ele>25.0</ele><time>2026-03-28T06:33:12.481Z</time></trkpt><trkpt lat="40.559505" lon="14.9877817"><ele>25.0</ele><time>2026-03-28T06:33:13.48Z</time></trkpt><trkpt lat="40.5597267" lon="14.98775"><ele>25.0</ele><time>2026-03-28T06:33:14.48Z</time></trkpt><trkpt lat="40.5599517" lon="14.9877217"><ele>25.0</ele><time>2026-03-28T06:33:15.481Z</time></trkpt><trkpt lat="40.5601667" lon="14.9876933"><ele>25.0</ele><time>2026-03-28T06:33:16.481Z</time></trkpt><trkpt lat="40.560365" lon="14.9876633"><ele>25.0</ele><time>2026-03-28T06:33:17.48Z</time></trkpt><trkpt lat="40.5605483" lon="14.9876383"><ele>25.0</ele><time>2026-03-28T06:33:18.48Z</time></trkpt><trkpt lat="40.5607217" lon="14.9876117"><ele>25.0</ele><time>2026-03-28T06:33:19.48Z</time></trkpt><trkpt lat="40.5608817" lon="14.9875883"><ele>25.0</ele><time>2026-03-28T06:33:20.481Z</time></trkpt><trkpt lat="40.5610267" lon="14.9875667"><ele>25.0</ele><time>2026-03-28T06:33:21.481Z</time></trkpt><trkpt lat="40.5611583" lon="14.9875533"><ele>25.0</ele><time>2026-03-28T06:33:22.48Z</time></trkpt><trkpt lat="40.561275" lon="14.9875433"><ele>25.0</ele><time>2026-03-28T06:33:23.48Z</time></trkpt><trkpt lat="40.56138" lon="14.9875417"><ele>25.0</ele><time>2026-03-28T06:33:24.481Z</time></trkpt><trkpt lat="40.5614767" lon="14.987555"><ele>25.0</ele><time>2026-03-28T06:33:25.48Z</time></trkpt><trkpt lat="40.5615767" lon="14.9875867"><ele>25.0</ele><time>2026-03-28T06:33:26.481Z</time></trkpt><trkpt lat="40.561675" lon="14.98761"><ele>25.0</ele><time>2026-03-28T06:33:27.481Z</time></trkpt><trkpt lat="40.5617667" lon="14.9876033"><ele>25.0</ele><time>2026-03-28T06:33:28.481Z</time></trkpt><trkpt lat="40.5618567" lon="14.9875567"><ele>25.0</ele><time>2026-03-28T06:33:29.481Z</time></trkpt><trkpt lat="40.5619483" lon="14.9874917"><ele>25.0</ele><time>2026-03-28T06:33:30.481Z</time></trkpt><trkpt lat="40.5620633" lon="14.9874417"><ele>25.0</ele><time>2026-03-28T06:33:31.481Z</time></trkpt><trkpt lat="40.5621967" lon="14.9874067"><ele>25.0</ele><time>2026-03-28T06:33:32.481Z</time></trkpt><trkpt lat="40.5623417" lon="14.98738"><ele>25.5</ele><time>2026-03-28T06:33:33.481Z</time></trkpt><trkpt lat="40.5624817" lon="14.9873583"><ele>26.0</ele><time>2026-03-28T06:33:34.481Z</time></trkpt><trkpt lat="40.5626067" lon="14.9873467"><ele>26.5</ele><time>2026-03-28T06:33:35.48Z</time></trkpt><trkpt lat="40.56272" lon="14.987345"><ele>27.0</ele><time>2026-03-28T06:33:36.48Z</time></trkpt><trkpt lat="40.56282" lon="14.9873567"><ele>27.200000000000003</ele><time>2026-03-28T06:33:37.48Z</time></trkpt><trkpt lat="40.56292" lon="14.9873733"><ele>27.400000000000002</ele><time>2026-03-28T06:33:38.48Z</time></trkpt><trkpt lat="40.5630317" lon="14.9873783"><ele>27.599999999999998</ele><time>2026-03-28T06:33:39.481Z</time></trkpt><trkpt lat="40.5631417" lon="14.9873533"><ele>27.799999999999997</ele><time>2026-03-28T06:33:40.48Z</time></trkpt><trkpt lat="40.56326" lon="14.9873083"><ele>28.0</ele><time>2026-03-28T06:33:41.48Z</time></trkpt><trkpt lat="40.5633867" lon="14.9872617"><ele>28.0</ele><time>2026-03-28T06:33:42.48Z</time></trkpt><trkpt lat="40.563535" lon="14.98722"><ele>28.0</ele><time>2026-03-28T06:33:43.481Z</time></trkpt><trkpt lat="40.5637033" lon="14.9872"><ele>28.0</ele><time>2026-03-28T06:33:44.481Z</time></trkpt><trkpt lat="40.5638717" lon="14.987175"><ele>28.0</ele><time>2026-03-28T06:33:45.481Z</time></trkpt><trkpt lat="40.5640533" lon="14.9871533"><ele>28.0</ele><time>2026-03-28T06:33:46.481Z</time></trkpt><trkpt lat="40.5642583" lon="14.9871267"><ele>28.0</ele><time>2026-03-28T06:33:47.48Z</time></trkpt><trkpt lat="40.5644833" lon="14.9870933"><ele>28.5</ele><time>2026-03-28T06:33:48.481Z</time></trkpt><trkpt lat="40.56472" lon="14.98706"><ele>29.0</ele><time>2026-03-28T06:33:49.481Z</time></trkpt><trkpt lat="40.564955" lon="14.9870317"><ele>29.0</ele><time>2026-03-28T06:33:50.48Z</time></trkpt><trkpt lat="40.5651933" lon="14.9870033"><ele>29.0</ele><time>2026-03-28T06:33:51.481Z</time></trkpt><trkpt lat="40.56542" lon="14.9869817"><ele>29.333333333333332</ele><time>2026-03-28T06:33:52.481Z</time></trkpt><trkpt lat="40.56564" lon="14.9869567"><ele>29.666666666666664</ele><time>2026-03-28T06:33:53.481Z</time></trkpt><trkpt lat="40.5658617" lon="14.9869317"><ele>30.0</ele><time>2026-03-28T06:33:54.481Z</time></trkpt><trkpt lat="40.5660733" lon="14.986905"><ele>29.666666666666664</ele><time>2026-03-28T06:33:55.481Z</time></trkpt><trkpt lat="40.5662783" lon="14.9868783"><ele>29.333333333333332</ele><time>2026-03-28T06:33:56.481Z</time></trkpt><trkpt lat="40.56647" lon="14.9868533"><ele>29.0</ele><time>2026-03-28T06:33:57.48Z</time></trkpt><trkpt lat="40.5666533" lon="14.9868267"><ele>29.0</ele><time>2026-03-28T06:33:58.481Z</time></trkpt><trkpt lat="40.566825" lon="14.986805"><ele>29.0</ele><time>2026-03-28T06:33:59.481Z</time></trkpt><trkpt lat="40.5669833" lon="14.986785"><ele>29.0</ele><time>2026-03-28T06:34:00.481Z</time></trkpt><trkpt lat="40.56713" lon="14.9867633"><ele>29.5</ele><time>2026-03-28T06:34:01.481Z</time></trkpt><trkpt lat="40.5672667" lon="14.986745"><ele>30.0</ele><time>2026-03-28T06:34:02.48Z</time></trkpt><trkpt lat="40.56739" lon="14.9867283"><ele>30.5</ele><time>2026-03-28T06:34:03.481Z</time></trkpt><trkpt lat="40.567505" lon="14.9867167"><ele>31.0</ele><time>2026-03-28T06:34:04.481Z</time></trkpt><trkpt lat="40.5676133" lon="14.986725"><ele>31.000000000000004</ele><time>2026-03-28T06:34:05.481Z</time></trkpt><trkpt lat="40.5677117" lon="14.98675"><ele>31.0</ele><time>2026-03-28T06:34:06.481Z</time></trkpt><trkpt lat="40.5677933" lon="14.9868"><ele>31.0</ele><time>2026-03-28T06:34:07.481Z</time></trkpt><trkpt lat="40.567865" lon="14.986865"><ele>31.0</ele><time>2026-03-28T06:34:08.481Z</time></trkpt><trkpt lat="40.5679367" lon="14.98691"><ele>31.000000000000004</ele><time>2026-03-28T06:34:09.48Z</time></trkpt><trkpt lat="40.568005" lon="14.98692"><ele>31.0</ele><time>2026-03-28T06:34:10.48Z</time></trkpt><trkpt lat="40.568075" lon="14.9869017"><ele>31.0</ele><time>2026-03-28T06:34:11.481Z</time></trkpt><trkpt lat="40.5681367" lon="14.9868433"><ele>31.0</ele><time>2026-03-28T06:34:12.481Z</time></trkpt><trkpt lat="40.568205" lon="14.98676"><ele>31.0</ele><time>2026-03-28T06:34:13.481Z</time></trkpt><trkpt lat="40.568285" lon="14.986675"><ele>31.0</ele><time>2026-03-28T06:34:14.48Z</time></trkpt><trkpt lat="40.5683683" lon="14.9866067"><ele>31.0</ele><time>2026-03-28T06:34:15.481Z</time></trkpt><trkpt lat="40.5684683" lon="14.9865617"><ele>30.75</ele><time>2026-03-28T06:34:16.481Z</time></trkpt><trkpt lat="40.56859" lon="14.9865233"><ele>30.5</ele><time>2026-03-28T06:34:17.481Z</time></trkpt><trkpt lat="40.568725" lon="14.9865017"><ele>30.25</ele><time>2026-03-28T06:34:18.48Z</time></trkpt><trkpt lat="40.5688617" lon="14.98648"><ele>30.0</ele><time>2026-03-28T06:34:19.48Z</time></trkpt><trkpt lat="40.569" lon="14.9864617"><ele>31.0</ele><time>2026-03-28T06:34:20.481Z</time></trkpt><trkpt lat="40.5691433" lon="14.9864433"><ele>32.0</ele><time>2026-03-28T06:34:21.48Z</time></trkpt><trkpt lat="40.5693067" lon="14.9864167"><ele>33.0</ele><time>2026-03-28T06:34:22.48Z</time></trkpt><trkpt lat="40.5694833" lon="14.98639"><ele>33.333333333333336</ele><time>2026-03-28T06:34:23.481Z</time></trkpt><trkpt lat="40.5696583" lon="14.98637"><ele>33.66666666666667</ele><time>2026-03-28T06:34:24.48Z</time></trkpt><trkpt lat="40.5698233" lon="14.9863533"><ele>34.0</ele><time>2026-03-28T06:34:25.48Z</time></trkpt><trkpt lat="40.569985" lon="14.986335"><ele>34.0</ele><time>2026-03-28T06:34:26.481Z</time></trkpt><trkpt lat="40.5701383" lon="14.9863067"><ele>34.0</ele><time>2026-03-28T06:34:27.48Z</time></trkpt><trkpt lat="40.570295" lon="14.986285"><ele>34.0</ele><time>2026-03-28T06:34:28.481Z</time></trkpt><trkpt lat="40.5704517" lon="14.9862617"><ele>34.0</ele><time>2026-03-28T06:34:29.481Z</time></trkpt><trkpt lat="40.5706083" lon="14.9862433"><ele>34.0</ele><time>2026-03-28T06:34:30.48Z</time></trkpt><trkpt lat="40.570765" lon="14.98622"><ele>34.0</ele><time>2026-03-28T06:34:31.481Z</time></trkpt><trkpt lat="40.5709317" lon="14.9861933"><ele>34.0</ele><time>2026-03-28T06:34:32.481Z</time></trkpt><trkpt lat="40.5711133" lon="14.9861617"><ele>34.0</ele><time>2026-03-28T06:34:33.48Z</time></trkpt><trkpt lat="40.5713017" lon="14.9861383"><ele>34.0</ele><time>2026-03-28T06:34:34.481Z</time></trkpt><trkpt lat="40.5715" lon="14.9861117"><ele>34.0</ele><time>2026-03-28T06:34:35.481Z</time></trkpt><trkpt lat="40.571705" lon="14.9860917"><ele>34.0</ele><time>2026-03-28T06:34:36.48Z</time></trkpt><trkpt lat="40.5718933" lon="14.9860633"><ele>34.0</ele><time>2026-03-28T06:34:37.481Z</time></trkpt><trkpt lat="40.5720717" lon="14.9860267"><ele>34.333333333333336</ele><time>2026-03-28T06:34:38.48Z</time></trkpt><trkpt lat="40.57225" lon="14.9860083"><ele>34.666666666666664</ele><time>2026-03-28T06:34:39.481Z</time></trkpt><trkpt lat="40.57242" lon="14.98599"><ele>35.0</ele><time>2026-03-28T06:34:40.48Z</time></trkpt><trkpt lat="40.5725883" lon="14.98597"><ele>35.0</ele><time>2026-03-28T06:34:41.481Z</time></trkpt><trkpt lat="40.5727533" lon="14.9859483"><ele>35.0</ele><time>2026-03-28T06:34:42.48Z</time></trkpt><trkpt lat="40.57292" lon="14.9859233"><ele>35.0</ele><time>2026-03-28T06:34:43.481Z</time></trkpt><trkpt lat="40.5730933" lon="14.98589"><ele>35.33333333333333</ele><time>2026-03-28T06:34:44.481Z</time></trkpt><trkpt lat="40.5732733" lon="14.9858767"><ele>35.666666666666664</ele><time>2026-03-28T06:34:45.481Z</time></trkpt><trkpt lat="40.5734483" lon="14.985865"><ele>36.0</ele><time>2026-03-28T06:34:46.481Z</time></trkpt><trkpt lat="40.5736217" lon="14.9858517"><ele>35.666666666666664</ele><time>2026-03-28T06:34:47.48Z</time></trkpt><trkpt lat="40.5737933" lon="14.9858367"><ele>35.33333333333333</ele><time>2026-03-28T06:34:48.481Z</time></trkpt><trkpt lat="40.5739533" lon="14.98582"><ele>35.0</ele><time>2026-03-28T06:34:49.481Z</time></trkpt><trkpt lat="40.57411" lon="14.9858033"><ele>35.0</ele><time>2026-03-28T06:34:50.481Z</time></trkpt><trkpt lat="40.5742667" lon="14.9857733"><ele>35.0</ele><time>2026-03-28T06:34:51.481Z</time></trkpt><trkpt lat="40.574425" lon="14.9857383"><ele>35.0</ele><time>2026-03-28T06:34:52.48Z</time></trkpt><trkpt lat="40.5745783" lon="14.9857133"><ele>35.33333333333333</ele><time>2026-03-28T06:34:53.481Z</time></trkpt><trkpt lat="40.574735" lon="14.9856917"><ele>35.666666666666664</ele><time>2026-03-28T06:34:54.48Z</time></trkpt><trkpt lat="40.5748967" lon="14.98568"><ele>36.0</ele><time>2026-03-28T06:34:55.48Z</time></trkpt><trkpt lat="40.5750583" lon="14.98566"><ele>36.0</ele><time>2026-03-28T06:34:56.481Z</time></trkpt><trkpt lat="40.5752217" lon="14.9856383"><ele>36.0</ele><time>2026-03-28T06:34:57.48Z</time></trkpt><trkpt lat="40.57538" lon="14.985615"><ele>36.0</ele><time>2026-03-28T06:34:58.481Z</time></trkpt><trkpt lat="40.5755317" lon="14.98559"><ele>36.5</ele><time>2026-03-28T06:34:59.481Z</time></trkpt><trkpt lat="40.5756767" lon="14.98557"><ele>37.0</ele><time>2026-03-28T06:35:00.48Z</time></trkpt><trkpt lat="40.57581" lon="14.9855517"><ele>37.5</ele><time>2026-03-28T06:35:01.481Z</time></trkpt><trkpt lat="40.575945" lon="14.9855383"><ele>38.0</ele><time>2026-03-28T06:35:02.481Z</time></trkpt><trkpt lat="40.57608" lon="14.9855167"><ele>38.25</ele><time>2026-03-28T06:35:03.48Z</time></trkpt><trkpt lat="40.5762133" lon="14.9854917"><ele>38.5</ele><time>2026-03-28T06:35:04.48Z</time></trkpt><trkpt lat="40.5763517" lon="14.9854783"><ele>38.75</ele><time>2026-03-28T06:35:05.48Z</time></trkpt><trkpt lat="40.5764867" lon="14.9854567"><ele>39.0</ele><time>2026-03-28T06:35:06.48Z</time></trkpt><trkpt lat="40.576635" lon="14.985435"><ele>39.0</ele><time>2026-03-28T06:35:07.481Z</time></trkpt><trkpt lat="40.5767917" lon="14.9854167"><ele>39.0</ele><time>2026-03-28T06:35:08.48Z</time></trkpt><trkpt lat="40.576955" lon="14.98541"><ele>39.0</ele><time>2026-03-28T06:35:09.481Z</time></trkpt><trkpt lat="40.5771333" lon="14.985395"><ele>39.333333333333336</ele><time>2026-03-28T06:35:10.481Z</time></trkpt><trkpt lat="40.577315" lon="14.98537"><ele>39.66666666666667</ele><time>2026-03-28T06:35:11.481Z</time></trkpt><trkpt lat="40.5774933" lon="14.9853433"><ele>40.0</ele><time>2026-03-28T06:35:12.481Z</time></trkpt><trkpt lat="40.5776717" lon="14.9853133"><ele>40.0</ele><time>2026-03-28T06:35:13.48Z</time></trkpt><trkpt lat="40.5778583" lon="14.9852767"><ele>40.0</ele><time>2026-03-28T06:35:14.481Z</time></trkpt><trkpt lat="40.578045" lon="14.9852417"><ele>40.0</ele><time>2026-03-28T06:35:15.481Z</time></trkpt><trkpt lat="40.5782467" lon="14.9852133"><ele>40.0</ele><time>2026-03-28T06:35:16.481Z</time></trkpt><trkpt lat="40.5784417" lon="14.985185"><ele>40.0</ele><time>2026-03-28T06:35:17.48Z</time></trkpt><trkpt lat="40.5786233" lon="14.9851567"><ele>40.0</ele><time>2026-03-28T06:35:18.481Z</time></trkpt><trkpt lat="40.5787983" lon="14.9851317"><ele>40.333333333333336</ele><time>2026-03-28T06:35:19.481Z</time></trkpt><trkpt lat="40.5789767" lon="14.98511"><ele>40.666666666666664</ele><time>2026-03-28T06:35:20.481Z</time></trkpt><trkpt lat="40.5791583" lon="14.98508"><ele>41.0</ele><time>2026-03-28T06:35:21.48Z</time></trkpt><trkpt lat="40.57935" lon="14.9850517"><ele>41.33333333333333</ele><time>2026-03-28T06:35:22.481Z</time></trkpt><trkpt lat="40.57955" lon="14.98502"><ele>41.666666666666664</ele><time>2026-03-28T06:35:23.48Z</time></trkpt><trkpt lat="40.5797633" lon="14.98498"><ele>42.0</ele><time>2026-03-28T06:35:24.48Z</time></trkpt><trkpt lat="40.57999" lon="14.9849383"><ele>42.0</ele><time>2026-03-28T06:35:25.481Z</time></trkpt><trkpt lat="40.580225" lon="14.984905"><ele>42.0</ele><time>2026-03-28T06:35:26.48Z</time></trkpt><trkpt lat="40.5804633" lon="14.9848733"><ele>42.0</ele><time>2026-03-28T06:35:27.481Z</time></trkpt><trkpt lat="40.580705" lon="14.98484"><ele>42.0</ele><time>2026-03-28T06:35:28.48Z</time></trkpt><trkpt lat="40.5809483" lon="14.9848167"><ele>42.5</ele><time>2026-03-28T06:35:29.481Z</time></trkpt><trkpt lat="40.5811833" lon="14.9847933"><ele>43.0</ele><time>2026-03-28T06:35:30.481Z</time></trkpt><trkpt lat="40.5814083" lon="14.98477"><ele>43.0</ele><time>2026-03-28T06:35:31.481Z</time></trkpt><trkpt lat="40.58163" lon="14.9847333"><ele>43.0</ele><time>2026-03-28T06:35:32.481Z</time></trkpt><trkpt lat="40.58184" lon="14.9847017"><ele>43.0</ele><time>2026-03-28T06:35:33.481Z</time></trkpt><trkpt lat="40.5820417" lon="14.9846783"><ele>43.0</ele><time>2026-03-28T06:35:34.48Z</time></trkpt><trkpt lat="40.58224" lon="14.9846533"><ele>43.0</ele><time>2026-03-28T06:35:35.481Z</time></trkpt><trkpt lat="40.5824367" lon="14.9846233"><ele>43.0</ele><time>2026-03-28T06:35:36.481Z</time></trkpt><trkpt lat="40.582635" lon="14.984595"><ele>43.0</ele><time>2026-03-28T06:35:37.481Z</time></trkpt><trkpt lat="40.5828317" lon="14.984575"><ele>43.0</ele><time>2026-03-28T06:35:38.48Z</time></trkpt><trkpt lat="40.5830267" lon="14.9845433"><ele>43.0</ele><time>2026-03-28T06:35:39.481Z</time></trkpt><trkpt lat="40.5832267" lon="14.9845033"><ele>43.0</ele><time>2026-03-28T06:35:40.48Z</time></trkpt><trkpt lat="40.5834317" lon="14.9844767"><ele>43.0</ele><time>2026-03-28T06:35:41.481Z</time></trkpt><trkpt lat="40.583645" lon="14.9844517"><ele>43.0</ele><time>2026-03-28T06:35:42.48Z</time></trkpt><trkpt lat="40.5838483" lon="14.9844267"><ele>43.66666666666667</ele><time>2026-03-28T06:35:43.481Z</time></trkpt><trkpt lat="40.5840383" lon="14.9844033"><ele>44.333333333333336</ele><time>2026-03-28T06:35:44.481Z</time></trkpt><trkpt lat="40.58422" lon="14.9843817"><ele>45.0</ele><time>2026-03-28T06:35:45.481Z</time></trkpt><trkpt lat="40.5843867" lon="14.9843567"><ele>45.0</ele><time>2026-03-28T06:35:46.481Z</time></trkpt><trkpt lat="40.5845383" lon="14.9843333"><ele>45.0</ele><time>2026-03-28T06:35:47.481Z</time></trkpt><trkpt lat="40.5846667" lon="14.9843167"><ele>45.0</ele><time>2026-03-28T06:35:48.481Z</time></trkpt><trkpt lat="40.5847883" lon="14.9843083"><ele>45.0</ele><time>2026-03-28T06:35:49.481Z</time></trkpt><trkpt lat="40.5849017" lon="14.9843017"><ele>45.0</ele><time>2026-03-28T06:35:50.48Z</time></trkpt><trkpt lat="40.5849983" lon="14.9843067"><ele>45.0</ele><time>2026-03-28T06:35:51.481Z</time></trkpt><trkpt lat="40.58508" lon="14.984315"><ele>45.0</ele><time>2026-03-28T06:35:52.481Z</time></trkpt><trkpt lat="40.5851433" lon="14.9843233"><ele>45.0</ele><time>2026-03-28T06:35:53.481Z</time></trkpt><trkpt lat="40.585225" lon="14.9843417"><ele>45.0</ele><time>2026-03-28T06:35:55.481Z</time></trkpt><trkpt lat="40.5853083" lon="14.98438"><ele>45.0</ele><time>2026-03-28T06:35:57.481Z</time></trkpt><trkpt lat="40.58542" lon="14.9844483"><ele>45.333333333333336</ele><time>2026-03-28T06:35:59.481Z</time></trkpt><trkpt lat="40.5854933" lon="14.9844617"><ele>45.666666666666664</ele><time>2026-03-28T06:36:00.481Z</time></trkpt><trkpt lat="40.5855683" lon="14.984455"><ele>46.0</ele><time>2026-03-28T06:36:01.481Z</time></trkpt><trkpt lat="40.5856367" lon="14.9844233"><ele>46.33333333333333</ele><time>2026-03-28T06:36:02.481Z</time></trkpt><trkpt lat="40.5857017" lon="14.9843567"><ele>46.666666666666664</ele><time>2026-03-28T06:36:03.48Z</time></trkpt><trkpt lat="40.5857633" lon="14.984285"><ele>47.0</ele><time>2026-03-28T06:36:04.481Z</time></trkpt><trkpt lat="40.5858333" lon="14.9842283"><ele>46.75</ele><time>2026-03-28T06:36:05.481Z</time></trkpt><trkpt lat="40.5859183" lon="14.9841767"><ele>46.5</ele><time>2026-03-28T06:36:06.48Z</time></trkpt><trkpt lat="40.586035" lon="14.9841383"><ele>46.25</ele><time>2026-03-28T06:36:07.48Z</time></trkpt><trkpt lat="40.5861767" lon="14.98411"><ele>46.0</ele><time>2026-03-28T06:36:08.48Z</time></trkpt><trkpt lat="40.58633" lon="14.984085"><ele>45.66666666666667</ele><time>2026-03-28T06:36:09.481Z</time></trkpt><trkpt lat="40.586505" lon="14.9840617"><ele>45.333333333333336</ele><time>2026-03-28T06:36:10.48Z</time></trkpt><trkpt lat="40.58669" lon="14.984045"><ele>45.0</ele><time>2026-03-28T06:36:11.48Z</time></trkpt><trkpt lat="40.58688" lon="14.9840367"><ele>46.0</ele><time>2026-03-28T06:36:12.481Z</time></trkpt><trkpt lat="40.5870783" lon="14.984015"><ele>47.0</ele><time>2026-03-28T06:36:13.481Z</time></trkpt><trkpt lat="40.5872883" lon="14.9839917"><ele>48.0</ele><time>2026-03-28T06:36:14.481Z</time></trkpt><trkpt lat="40.5874883" lon="14.9839667"><ele>48.0</ele><time>2026-03-28T06:36:15.48Z</time></trkpt><trkpt lat="40.5876783" lon="14.9839433"><ele>48.0</ele><time>2026-03-28T06:36:16.481Z</time></trkpt><trkpt lat="40.5878583" lon="14.98392"><ele>48.0</ele><time>2026-03-28T06:36:17.481Z</time></trkpt><trkpt lat="40.5880283" lon="14.9838967"><ele>48.66666666666667</ele><time>2026-03-28T06:36:18.481Z</time></trkpt><trkpt lat="40.58819" lon="14.98387"><ele>49.333333333333336</ele><time>2026-03-28T06:36:19.48Z</time></trkpt><trkpt lat="40.588355" lon="14.9838467"><ele>50.0</ele><time>2026-03-28T06:36:20.48Z</time></trkpt><trkpt lat="40.5885117" lon="14.9838333"><ele>50.0</ele><time>2026-03-28T06:36:21.48Z</time></trkpt><trkpt lat="40.5886617" lon="14.9838033"><ele>50.0</ele><time>2026-03-28T06:36:22.481Z</time></trkpt><trkpt lat="40.58881" lon="14.98378"><ele>50.0</ele><time>2026-03-28T06:36:23.481Z</time></trkpt><trkpt lat="40.58896" lon="14.983755"><ele>50.5</ele><time>2026-03-28T06:36:24.481Z</time></trkpt><trkpt lat="40.5891033" lon="14.9837333"><ele>51.0</ele><time>2026-03-28T06:36:25.48Z</time></trkpt><trkpt lat="40.58924" lon="14.983715"><ele>51.5</ele><time>2026-03-28T06:36:26.48Z</time></trkpt><trkpt lat="40.5893783" lon="14.9836933"><ele>52.0</ele><time>2026-03-28T06:36:27.481Z</time></trkpt><trkpt lat="40.589515" lon="14.9836767"><ele>53.0</ele><time>2026-03-28T06:36:28.481Z</time></trkpt><trkpt lat="40.5896633" lon="14.983655"><ele>54.0</ele><time>2026-03-28T06:36:29.481Z</time></trkpt><trkpt lat="40.5898233" lon="14.983615"><ele>55.0</ele><time>2026-03-28T06:36:30.48Z</time></trkpt><trkpt lat="40.5900067" lon="14.9835817"><ele>55.0</ele><time>2026-03-28T06:36:31.48Z</time></trkpt><trkpt lat="40.5902033" lon="14.9835483"><ele>55.0</ele><time>2026-03-28T06:36:32.481Z</time></trkpt><trkpt lat="40.5904067" lon="14.9835267"><ele>55.0</ele><time>2026-03-28T06:36:33.481Z</time></trkpt><trkpt lat="40.5906" lon="14.9834983"><ele>55.0</ele><time>2026-03-28T06:36:34.48Z</time></trkpt><trkpt lat="40.590815" lon="14.98348"><ele>55.0</ele><time>2026-03-28T06:36:35.481Z</time></trkpt><trkpt lat="40.59103" lon="14.98346"><ele>55.0</ele><time>2026-03-28T06:36:36.481Z</time></trkpt><trkpt lat="40.5912317" lon="14.9834367"><ele>55.0</ele><time>2026-03-28T06:36:37.48Z</time></trkpt><trkpt lat="40.5914267" lon="14.9834117"><ele>55.0</ele><time>2026-03-28T06:36:38.48Z</time></trkpt><trkpt lat="40.591625" lon="14.983395"><ele>55.0</ele><time>2026-03-28T06:36:39.481Z</time></trkpt><trkpt lat="40.5918233" lon="14.9833817"><ele>55.0</ele><time>2026-03-28T06:36:40.48Z</time></trkpt><trkpt lat="40.592005" lon="14.983345"><ele>55.0</ele><time>2026-03-28T06:36:41.48Z</time></trkpt><trkpt lat="40.5921883" lon="14.983335"><ele>55.0</ele><time>2026-03-28T06:36:42.481Z</time></trkpt><trkpt lat="40.59236" lon="14.9832983"><ele>55.0</ele><time>2026-03-28T06:36:43.481Z</time></trkpt><trkpt lat="40.5925317" lon="14.983265"><ele>55.0</ele><time>2026-03-28T06:36:44.481Z</time></trkpt><trkpt lat="40.5926917" lon="14.9832433"><ele>55.0</ele><time>2026-03-28T06:36:45.48Z</time></trkpt><trkpt lat="40.59284" lon="14.983215"><ele>55.0</ele><time>2026-03-28T06:36:46.48Z</time></trkpt><trkpt lat="40.5929767" lon="14.9831917"><ele>55.0</ele><time>2026-03-28T06:36:47.481Z</time></trkpt><trkpt lat="40.5931117" lon="14.98317"><ele>55.0</ele><time>2026-03-28T06:36:48.48Z</time></trkpt><trkpt lat="40.59324" lon="14.9831483"><ele>55.0</ele><time>2026-03-28T06:36:49.48Z</time></trkpt><trkpt lat="40.593365" lon="14.9831183"><ele>55.0</ele><time>2026-03-28T06:36:50.481Z</time></trkpt><trkpt lat="40.593495" lon="14.9830767"><ele>55.0</ele><time>2026-03-28T06:36:51.481Z</time></trkpt><trkpt lat="40.5936317" lon="14.9830383"><ele>55.0</ele><time>2026-03-28T06:36:52.48Z</time></trkpt><trkpt lat="40.5937733" lon="14.9829667"><ele>55.0</ele><time>2026-03-28T06:36:53.481Z</time></trkpt><trkpt lat="40.5939183" lon="14.9828767"><ele>55.666666666666664</ele><time>2026-03-28T06:36:54.481Z</time></trkpt><trkpt lat="40.5940633" lon="14.98278"><ele>56.33333333333333</ele><time>2026-03-28T06:36:55.481Z</time></trkpt><trkpt lat="40.594205" lon="14.982665"><ele>57.0</ele><time>2026-03-28T06:36:56.481Z</time></trkpt><trkpt lat="40.59435" lon="14.9825317"><ele>57.33333333333333</ele><time>2026-03-28T06:36:57.48Z</time></trkpt><trkpt lat="40.5944983" lon="14.9823767"><ele>57.666666666666664</ele><time>2026-03-28T06:36:58.481Z</time></trkpt><trkpt lat="40.5946467" lon="14.98223"><ele>58.0</ele><time>2026-03-28T06:36:59.481Z</time></trkpt><trkpt lat="40.5947883" lon="14.9820917"><ele>58.0</ele><time>2026-03-28T06:37:00.48Z</time></trkpt><trkpt lat="40.59491" lon="14.981965"><ele>58.0</ele><time>2026-03-28T06:37:01.48Z</time></trkpt><trkpt lat="40.5950217" lon="14.9818517"><ele>58.0</ele><time>2026-03-28T06:37:02.481Z</time></trkpt><trkpt lat="40.595135" lon="14.9817367"><ele>58.0</ele><time>2026-03-28T06:37:03.481Z</time></trkpt><trkpt lat="40.5952617" lon="14.9816283"><ele>58.666666666666664</ele><time>2026-03-28T06:37:04.481Z</time></trkpt><trkpt lat="40.5954017" lon="14.9815067"><ele>59.33333333333333</ele><time>2026-03-28T06:37:05.48Z</time></trkpt><trkpt lat="40.59555" lon="14.9813683"><ele>60.0</ele><time>2026-03-28T06:37:06.48Z</time></trkpt><trkpt lat="40.5957133" lon="14.9812167"><ele>60.0</ele><time>2026-03-28T06:37:07.481Z</time></trkpt><trkpt lat="40.595875" lon="14.98105"><ele>60.0</ele><time>2026-03-28T06:37:08.481Z</time></trkpt><trkpt lat="40.596035" lon="14.9808917"><ele>60.0</ele><time>2026-03-28T06:37:09.481Z</time></trkpt><trkpt lat="40.5961983" lon="14.9807267"><ele>58.66666666666667</ele><time>2026-03-28T06:37:10.481Z</time></trkpt><trkpt lat="40.5963667" lon="14.980555"><ele>57.333333333333336</ele><time>2026-03-28T06:37:11.481Z</time></trkpt><trkpt lat="40.5965433" lon="14.9803783"><ele>56.0</ele><time>2026-03-28T06:37:12.48Z</time></trkpt><trkpt lat="40.5967217" lon="14.9802017"><ele>56.0</ele><time>2026-03-28T06:37:13.481Z</time></trkpt><trkpt lat="40.5969033" lon="14.9800217"><ele>56.0</ele><time>2026-03-28T06:37:14.481Z</time></trkpt><trkpt lat="40.597085" lon="14.97984"><ele>56.333333333333336</ele><time>2026-03-28T06:37:15.481Z</time></trkpt><trkpt lat="40.5972633" lon="14.9796633"><ele>56.66666666666667</ele><time>2026-03-28T06:37:16.481Z</time></trkpt><trkpt lat="40.5974333" lon="14.9794983"><ele>57.0</ele><time>2026-03-28T06:37:17.481Z</time></trkpt><trkpt lat="40.5975933" lon="14.9793383"><ele>57.0</ele><time>2026-03-28T06:37:18.481Z</time></trkpt><trkpt lat="40.597745" lon="14.9791867"><ele>57.0</ele><time>2026-03-28T06:37:19.481Z</time></trkpt><trkpt lat="40.5979" lon="14.979045"><ele>57.0</ele><time>2026-03-28T06:37:20.48Z</time></trkpt><trkpt lat="40.598055" lon="14.978895"><ele>57.0</ele><time>2026-03-28T06:37:21.481Z</time></trkpt><trkpt lat="40.59821" lon="14.978735"><ele>57.0</ele><time>2026-03-28T06:37:22.48Z</time></trkpt><trkpt lat="40.59837" lon="14.97857"><ele>57.0</ele><time>2026-03-28T06:37:23.48Z</time></trkpt><trkpt lat="40.598535" lon="14.9784083"><ele>57.66666666666667</ele><time>2026-03-28T06:37:24.48Z</time></trkpt><trkpt lat="40.5987083" lon="14.9782417"><ele>58.333333333333336</ele><time>2026-03-28T06:37:25.481Z</time></trkpt><trkpt lat="40.5988883" lon="14.9780767"><ele>59.0</ele><time>2026-03-28T06:37:26.481Z</time></trkpt><trkpt lat="40.5990633" lon="14.9779183"><ele>59.0</ele><time>2026-03-28T06:37:27.481Z</time></trkpt><trkpt lat="40.59924" lon="14.9777567"><ele>59.0</ele><time>2026-03-28T06:37:28.48Z</time></trkpt><trkpt lat="40.5994067" lon="14.977595"><ele>59.0</ele><time>2026-03-28T06:37:29.481Z</time></trkpt><trkpt lat="40.5995617" lon="14.97744"><ele>59.333333333333336</ele><time>2026-03-28T06:37:30.48Z</time></trkpt><trkpt lat="40.59971" lon="14.977295"><ele>59.66666666666667</ele><time>2026-03-28T06:37:31.48Z</time></trkpt><trkpt lat="40.5998633" lon="14.9771483"><ele>60.0</ele><time>2026-03-28T06:37:32.48Z</time></trkpt><trkpt lat="40.6000067" lon="14.9770083"><ele>60.0</ele><time>2026-03-28T06:37:33.481Z</time></trkpt><trkpt lat="40.6001433" lon="14.9768733"><ele>60.0</ele><time>2026-03-28T06:37:34.481Z</time></trkpt><trkpt lat="40.6002717" lon="14.97675"><ele>60.0</ele><time>2026-03-28T06:37:35.48Z</time></trkpt><trkpt lat="40.6003967" lon="14.9766383"><ele>60.25</ele><time>2026-03-28T06:37:36.481Z</time></trkpt><trkpt lat="40.600525" lon="14.9765467"><ele>60.5</ele><time>2026-03-28T06:37:37.48Z</time></trkpt><trkpt lat="40.6006333" lon="14.9764667"><ele>60.75</ele><time>2026-03-28T06:37:38.481Z</time></trkpt><trkpt lat="40.6007333" lon="14.9764017"><ele>61.0</ele><time>2026-03-28T06:37:39.481Z</time></trkpt><trkpt lat="40.6008283" lon="14.9763683"><ele>60.99999999999999</ele><time>2026-03-28T06:37:40.481Z</time></trkpt><trkpt lat="40.6009167" lon="14.9763683"><ele>61.0</ele><time>2026-03-28T06:37:41.48Z</time></trkpt><trkpt lat="40.6010017" lon="14.9763917"><ele>61.0</ele><time>2026-03-28T06:37:42.481Z</time></trkpt><trkpt lat="40.6010817" lon="14.976435"><ele>61.0</ele><time>2026-03-28T06:37:43.48Z</time></trkpt><trkpt lat="40.601165" lon="14.97646"><ele>60.99999999999999</ele><time>2026-03-28T06:37:44.48Z</time></trkpt><trkpt lat="40.601235" lon="14.9764433"><ele>61.0</ele><time>2026-03-28T06:37:45.48Z</time></trkpt><trkpt lat="40.6012933" lon="14.9763933"><ele>61.49999999999999</ele><time>2026-03-28T06:37:46.481Z</time></trkpt><trkpt lat="40.60134" lon="14.97632"><ele>62.0</ele><time>2026-03-28T06:37:47.481Z</time></trkpt><trkpt lat="40.6013617" lon="14.9762217"><ele>62.5</ele><time>2026-03-28T06:37:48.481Z</time></trkpt><trkpt lat="40.6013733" lon="14.9761033"><ele>63.0</ele><time>2026-03-28T06:37:49.481Z</time></trkpt><trkpt lat="40.6013833" lon="14.9759883"><ele>63.49999999999999</ele><time>2026-03-28T06:37:50.48Z</time></trkpt><trkpt lat="40.601415" lon="14.9758733"><ele>64.0</ele><time>2026-03-28T06:37:51.481Z</time></trkpt><trkpt lat="40.601455" lon="14.9757617"><ele>63.99999999999999</ele><time>2026-03-28T06:37:52.48Z</time></trkpt><trkpt lat="40.6014967" lon="14.975665"><ele>64.0</ele><time>2026-03-28T06:37:53.481Z</time></trkpt><trkpt lat="40.6015517" lon="14.9755783"><ele>64.0</ele><time>2026-03-28T06:37:54.48Z</time></trkpt><trkpt lat="40.6016167" lon="14.9755017"><ele>64.0</ele><time>2026-03-28T06:37:55.481Z</time></trkpt><trkpt lat="40.6016867" lon="14.9754217"><ele>63.99999999999999</ele><time>2026-03-28T06:37:56.48Z</time></trkpt><trkpt lat="40.6017533" lon="14.9753417"><ele>64.0</ele><time>2026-03-28T06:37:57.481Z</time></trkpt><trkpt lat="40.60182" lon="14.9752633"><ele>64.0</ele><time>2026-03-28T06:37:58.481Z</time></trkpt><trkpt lat="40.6018867" lon="14.97518"><ele>64.0</ele><time>2026-03-28T06:37:59.481Z</time></trkpt><trkpt lat="40.6019683" lon="14.9750883"><ele>64.0</ele><time>2026-03-28T06:38:00.48Z</time></trkpt><trkpt lat="40.6020583" lon="14.9749967"><ele>64.0</ele><time>2026-03-28T06:38:01.48Z</time></trkpt><trkpt lat="40.6021367" lon="14.9749117"><ele>64.0</ele><time>2026-03-28T06:38:02.48Z</time></trkpt><trkpt lat="40.60221" lon="14.9748417"><ele>64.16666666666666</ele><time>2026-03-28T06:38:03.481Z</time></trkpt><trkpt lat="40.60228" lon="14.97478"><ele>64.33333333333333</ele><time>2026-03-28T06:38:04.48Z</time></trkpt><trkpt lat="40.6023467" lon="14.9747183"><ele>64.5</ele><time>2026-03-28T06:38:05.48Z</time></trkpt><trkpt lat="40.60241" lon="14.9746617"><ele>64.66666666666667</ele><time>2026-03-28T06:38:06.48Z</time></trkpt><trkpt lat="40.6024717" lon="14.9746067"><ele>64.83333333333334</ele><time>2026-03-28T06:38:07.48Z</time></trkpt><trkpt lat="40.602535" lon="14.9745567"><ele>65.0</ele><time>2026-03-28T06:38:08.48Z</time></trkpt><trkpt lat="40.6025883" lon="14.9745083"><ele>65.0</ele><time>2026-03-28T06:38:09.48Z</time></trkpt><trkpt lat="40.602675" lon="14.9744417"><ele>65.0</ele><time>2026-03-28T06:38:11.48Z</time></trkpt><trkpt lat="40.602765" lon="14.9743833"><ele>65.0</ele><time>2026-03-28T06:38:13.48Z</time></trkpt><trkpt lat="40.602875" lon="14.9742633"><ele>65.0</ele><time>2026-03-28T06:38:15.48Z</time></trkpt><trkpt lat="40.6029633" lon="14.9741733"><ele>64.5</ele><time>2026-03-28T06:38:16.48Z</time></trkpt><trkpt lat="40.603065" lon="14.97407"><ele>64.0</ele><time>2026-03-28T06:38:17.48Z</time></trkpt><trkpt lat="40.6031733" lon="14.9739733"><ele>63.5</ele><time>2026-03-28T06:38:18.481Z</time></trkpt><trkpt lat="40.60328" lon="14.9738817"><ele>63.0</ele><time>2026-03-28T06:38:19.481Z</time></trkpt><trkpt lat="40.6034133" lon="14.973805"><ele>63.0</ele><time>2026-03-28T06:38:20.482Z</time></trkpt><trkpt lat="40.603555" lon="14.9737333"><ele>63.0</ele><time>2026-03-28T06:38:21.482Z</time></trkpt><trkpt lat="40.6036967" lon="14.973665"><ele>63.0</ele><time>2026-03-28T06:38:22.482Z</time></trkpt><trkpt lat="40.6038417" lon="14.9736067"><ele>62.66666666666667</ele><time>2026-03-28T06:38:23.482Z</time></trkpt><trkpt lat="40.6039933" lon="14.973555"><ele>62.333333333333336</ele><time>2026-03-28T06:38:24.482Z</time></trkpt><trkpt lat="40.6041533" lon="14.9735117"><ele>62.0</ele><time>2026-03-28T06:38:25.482Z</time></trkpt><trkpt lat="40.6043133" lon="14.9734767"><ele>62.0</ele><time>2026-03-28T06:38:26.482Z</time></trkpt><trkpt lat="40.604475" lon="14.9734533"><ele>62.0</ele><time>2026-03-28T06:38:27.482Z</time></trkpt><trkpt lat="40.6046383" lon="14.9734317"><ele>62.0</ele><time>2026-03-28T06:38:28.482Z</time></trkpt><trkpt lat="40.6048017" lon="14.9734267"><ele>64.33333333333334</ele><time>2026-03-28T06:38:29.482Z</time></trkpt><trkpt lat="40.6049617" lon="14.97342"><ele>66.66666666666667</ele><time>2026-03-28T06:38:30.481Z</time></trkpt><trkpt lat="40.6051117" lon="14.9734167"><ele>69.0</ele><time>2026-03-28T06:38:31.481Z</time></trkpt><trkpt lat="40.6052517" lon="14.9734133"><ele>68.8</ele><time>2026-03-28T06:38:32.481Z</time></trkpt><trkpt lat="40.6053783" lon="14.9734117"><ele>68.60000000000001</ele><time>2026-03-28T06:38:33.482Z</time></trkpt><trkpt lat="40.6054967" lon="14.973415"><ele>68.4</ele><time>2026-03-28T06:38:34.482Z</time></trkpt><trkpt lat="40.6056017" lon="14.9734117"><ele>68.2</ele><time>2026-03-28T06:38:35.482Z</time></trkpt><trkpt lat="40.605695" lon="14.9734017"><ele>68.0</ele><time>2026-03-28T06:38:36.481Z</time></trkpt><trkpt lat="40.605785" lon="14.9733883"><ele>68.0</ele><time>2026-03-28T06:38:37.482Z</time></trkpt><trkpt lat="40.6058733" lon="14.9733867"><ele>68.0</ele><time>2026-03-28T06:38:38.482Z</time></trkpt><trkpt lat="40.60595" lon="14.9734033"><ele>68.0</ele><time>2026-03-28T06:38:39.482Z</time></trkpt><trkpt lat="40.6060217" lon="14.9734333"><ele>68.0</ele><time>2026-03-28T06:38:40.482Z</time></trkpt><trkpt lat="40.606085" lon="14.973475"><ele>68.0</ele><time>2026-03-28T06:38:41.481Z</time></trkpt><trkpt lat="40.6061817" lon="14.9735067"><ele>68.0</ele><time>2026-03-28T06:38:43.482Z</time></trkpt><trkpt lat="40.606275" lon="14.9734417"><ele>67.8</ele><time>2026-03-28T06:38:45.482Z</time></trkpt><trkpt lat="40.6063733" lon="14.973355"><ele>67.6</ele><time>2026-03-28T06:38:47.481Z</time></trkpt><trkpt lat="40.6064483" lon="14.9733267"><ele>67.4</ele><time>2026-03-28T06:38:48.482Z</time></trkpt><trkpt lat="40.6065267" lon="14.973305"><ele>67.2</ele><time>2026-03-28T06:38:49.481Z</time></trkpt><trkpt lat="40.6066133" lon="14.973295"><ele>67.0</ele><time>2026-03-28T06:38:50.481Z</time></trkpt><trkpt lat="40.6067" lon="14.9732867"><ele>67.0</ele><time>2026-03-28T06:38:51.481Z</time></trkpt><trkpt lat="40.6067867" lon="14.9732783"><ele>67.0</ele><time>2026-03-28T06:38:52.482Z</time></trkpt><trkpt lat="40.606875" lon="14.9732683"><ele>67.0</ele><time>2026-03-28T06:38:53.481Z</time></trkpt><trkpt lat="40.60696" lon="14.9732583"><ele>67.0</ele><time>2026-03-28T06:38:54.481Z</time></trkpt><trkpt lat="40.6070567" lon="14.9732383"><ele>67.0</ele><time>2026-03-28T06:38:55.482Z</time></trkpt><trkpt lat="40.6071567" lon="14.9732183"><ele>67.5</ele><time>2026-03-28T06:38:56.482Z</time></trkpt><trkpt lat="40.60727" lon="14.97319"><ele>68.0</ele><time>2026-03-28T06:38:57.482Z</time></trkpt><trkpt lat="40.6074067" lon="14.9731617"><ele>68.5</ele><time>2026-03-28T06:38:58.481Z</time></trkpt><trkpt lat="40.60756" lon="14.9731433"><ele>69.0</ele><time>2026-03-28T06:38:59.482Z</time></trkpt><trkpt lat="40.607725" lon="14.9731233"><ele>67.66666666666667</ele><time>2026-03-28T06:39:00.481Z</time></trkpt><trkpt lat="40.6078817" lon="14.973105"><ele>66.33333333333334</ele><time>2026-03-28T06:39:01.481Z</time></trkpt><trkpt lat="40.6080517" lon="14.9730933"><ele>65.0</ele><time>2026-03-28T06:39:02.482Z</time></trkpt><trkpt lat="40.6082233" lon="14.9730833"><ele>65.0</ele><time>2026-03-28T06:39:03.482Z</time></trkpt><trkpt lat="40.6084033" lon="14.9730683"><ele>65.0</ele><time>2026-03-28T06:39:04.482Z</time></trkpt><trkpt lat="40.60858" lon="14.973045"><ele>65.0</ele><time>2026-03-28T06:39:05.482Z</time></trkpt><trkpt lat="40.6087583" lon="14.9730167"><ele>65.0</ele><time>2026-03-28T06:39:06.482Z</time></trkpt><trkpt lat="40.6089517" lon="14.972995"><ele>65.0</ele><time>2026-03-28T06:39:07.481Z</time></trkpt><trkpt lat="40.6091517" lon="14.972985"><ele>65.0</ele><time>2026-03-28T06:39:08.482Z</time></trkpt><trkpt lat="40.6093483" lon="14.9729733"><ele>64.66666666666667</ele><time>2026-03-28T06:39:09.482Z</time></trkpt><trkpt lat="40.60954" lon="14.972965"><ele>64.33333333333333</ele><time>2026-03-28T06:39:10.482Z</time></trkpt><trkpt lat="40.60973" lon="14.9729467"><ele>64.0</ele><time>2026-03-28T06:39:11.481Z</time></trkpt><trkpt lat="40.60992" lon="14.972925"><ele>64.0</ele><time>2026-03-28T06:39:12.482Z</time></trkpt><trkpt lat="40.61012" lon="14.9729067"><ele>64.0</ele><time>2026-03-28T06:39:13.482Z</time></trkpt><trkpt lat="40.6103167" lon="14.97289"><ele>64.0</ele><time>2026-03-28T06:39:14.481Z</time></trkpt><trkpt lat="40.61052" lon="14.9728667"><ele>63.0</ele><time>2026-03-28T06:39:15.481Z</time></trkpt><trkpt lat="40.6107267" lon="14.9728533"><ele>62.0</ele><time>2026-03-28T06:39:16.482Z</time></trkpt><trkpt lat="40.61093" lon="14.97283"><ele>61.0</ele><time>2026-03-28T06:39:17.482Z</time></trkpt><trkpt lat="40.6111417" lon="14.972805"><ele>61.666666666666664</ele><time>2026-03-28T06:39:18.481Z</time></trkpt><trkpt lat="40.6113467" lon="14.972785"><ele>62.33333333333333</ele><time>2026-03-28T06:39:19.482Z</time></trkpt><trkpt lat="40.6115583" lon="14.9727717"><ele>63.0</ele><time>2026-03-28T06:39:20.481Z</time></trkpt><trkpt lat="40.611765" lon="14.9727617"><ele>63.0</ele><time>2026-03-28T06:39:21.481Z</time></trkpt><trkpt lat="40.6119567" lon="14.9727433"><ele>63.0</ele><time>2026-03-28T06:39:22.482Z</time></trkpt><trkpt lat="40.6121467" lon="14.9727217"><ele>63.0</ele><time>2026-03-28T06:39:23.481Z</time></trkpt><trkpt lat="40.61233" lon="14.9726833"><ele>63.0</ele><time>2026-03-28T06:39:24.482Z</time></trkpt><trkpt lat="40.6125133" lon="14.9726217"><ele>63.0</ele><time>2026-03-28T06:39:25.481Z</time></trkpt><trkpt lat="40.6126867" lon="14.9725483"><ele>63.0</ele><time>2026-03-28T06:39:26.482Z</time></trkpt><trkpt lat="40.6128633" lon="14.9724633"><ele>63.0</ele><time>2026-03-28T06:39:27.481Z</time></trkpt><trkpt lat="40.61304" lon="14.972355"><ele>63.0</ele><time>2026-03-28T06:39:28.482Z</time></trkpt><trkpt lat="40.613205" lon="14.9722317"><ele>63.0</ele><time>2026-03-28T06:39:29.481Z</time></trkpt><trkpt lat="40.6133683" lon="14.9720917"><ele>63.0</ele><time>2026-03-28T06:39:30.482Z</time></trkpt><trkpt lat="40.61353" lon="14.9719317"><ele>63.0</ele><time>2026-03-28T06:39:31.482Z</time></trkpt><trkpt lat="40.613695" lon="14.9717667"><ele>63.0</ele><time>2026-03-28T06:39:32.482Z</time></trkpt><trkpt lat="40.613865" lon="14.9716067"><ele>63.0</ele><time>2026-03-28T06:39:33.481Z</time></trkpt><trkpt lat="40.6140317" lon="14.9714533"><ele>63.0</ele><time>2026-03-28T06:39:34.482Z</time></trkpt><trkpt lat="40.61421" lon="14.971315"><ele>63.0</ele><time>2026-03-28T06:39:35.481Z</time></trkpt><trkpt lat="40.6143867" lon="14.9712017"><ele>63.33333333333333</ele><time>2026-03-28T06:39:36.481Z</time></trkpt><trkpt lat="40.6145717" lon="14.9711033"><ele>63.666666666666664</ele><time>2026-03-28T06:39:37.481Z</time></trkpt><trkpt lat="40.6147617" lon="14.9710217"><ele>64.0</ele><time>2026-03-28T06:39:38.481Z</time></trkpt><trkpt lat="40.614955" lon="14.970965"><ele>64.0</ele><time>2026-03-28T06:39:39.482Z</time></trkpt><trkpt lat="40.6151483" lon="14.9709283"><ele>64.0</ele><time>2026-03-28T06:39:40.481Z</time></trkpt><trkpt lat="40.61534" lon="14.9709133"><ele>64.0</ele><time>2026-03-28T06:39:41.482Z</time></trkpt><trkpt lat="40.6155417" lon="14.9709283"><ele>64.0</ele><time>2026-03-28T06:39:42.481Z</time></trkpt><trkpt lat="40.6157467" lon="14.97096"><ele>64.0</ele><time>2026-03-28T06:39:43.482Z</time></trkpt><trkpt lat="40.6159533" lon="14.97103"><ele>64.0</ele><time>2026-03-28T06:39:44.481Z</time></trkpt><trkpt lat="40.6161633" lon="14.97112"><ele>63.0</ele><time>2026-03-28T06:39:45.482Z</time></trkpt><trkpt lat="40.616375" lon="14.9712267"><ele>62.0</ele><time>2026-03-28T06:39:46.482Z</time></trkpt><trkpt lat="40.6165833" lon="14.9713583"><ele>62.0</ele><time>2026-03-28T06:39:47.481Z</time></trkpt><trkpt lat="40.6167983" lon="14.9714933"><ele>62.0</ele><time>2026-03-28T06:39:48.481Z</time></trkpt><trkpt lat="40.6170217" lon="14.971625"><ele>62.5</ele><time>2026-03-28T06:39:49.482Z</time></trkpt><trkpt lat="40.61724" lon="14.9717467"><ele>63.0</ele><time>2026-03-28T06:39:50.482Z</time></trkpt><trkpt lat="40.6174417" lon="14.9718567"><ele>63.0</ele><time>2026-03-28T06:39:51.481Z</time></trkpt><trkpt lat="40.6176333" lon="14.9719633"><ele>63.0</ele><time>2026-03-28T06:39:52.482Z</time></trkpt><trkpt lat="40.6178117" lon="14.9720633"><ele>63.0</ele><time>2026-03-28T06:39:53.481Z</time></trkpt><trkpt lat="40.6179867" lon="14.97216"><ele>63.66666666666667</ele><time>2026-03-28T06:39:54.482Z</time></trkpt><trkpt lat="40.6181583" lon="14.9722517"><ele>64.33333333333334</ele><time>2026-03-28T06:39:55.482Z</time></trkpt><trkpt lat="40.6183267" lon="14.97235"><ele>65.0</ele><time>2026-03-28T06:39:56.482Z</time></trkpt><trkpt lat="40.61849" lon="14.9724417"><ele>66.0</ele><time>2026-03-28T06:39:57.482Z</time></trkpt><trkpt lat="40.61866" lon="14.9725367"><ele>67.0</ele><time>2026-03-28T06:39:58.482Z</time></trkpt><trkpt lat="40.6188417" lon="14.972635"><ele>68.0</ele><time>2026-03-28T06:39:59.482Z</time></trkpt><trkpt lat="40.6190367" lon="14.972745"><ele>68.0</ele><time>2026-03-28T06:40:00.481Z</time></trkpt><trkpt lat="40.619215" lon="14.9728517"><ele>68.0</ele><time>2026-03-28T06:40:01.482Z</time></trkpt><trkpt lat="40.6193783" lon="14.97295"><ele>68.0</ele><time>2026-03-28T06:40:02.482Z</time></trkpt><trkpt lat="40.6195283" lon="14.97304"><ele>68.66666666666667</ele><time>2026-03-28T06:40:03.481Z</time></trkpt><trkpt lat="40.6196817" lon="14.9731167"><ele>69.33333333333333</ele><time>2026-03-28T06:40:04.482Z</time></trkpt><trkpt lat="40.6198317" lon="14.97318"><ele>70.0</ele><time>2026-03-28T06:40:05.482Z</time></trkpt><trkpt lat="40.61999" lon="14.9732233"><ele>70.0</ele><time>2026-03-28T06:40:06.482Z</time></trkpt><trkpt lat="40.6201417" lon="14.9732583"><ele>70.0</ele><time>2026-03-28T06:40:07.481Z</time></trkpt><trkpt lat="40.6202967" lon="14.9732817"><ele>70.0</ele><time>2026-03-28T06:40:08.481Z</time></trkpt><trkpt lat="40.6204483" lon="14.9733067"><ele>69.75</ele><time>2026-03-28T06:40:09.482Z</time></trkpt><trkpt lat="40.6205883" lon="14.9733333"><ele>69.5</ele><time>2026-03-28T06:40:10.482Z</time></trkpt><trkpt lat="40.6207183" lon="14.9733567"><ele>69.25</ele><time>2026-03-28T06:40:11.481Z</time></trkpt><trkpt lat="40.620845" lon="14.9733767"><ele>69.0</ele><time>2026-03-28T06:40:12.481Z</time></trkpt><trkpt lat="40.6209733" lon="14.9733967"><ele>69.0</ele><time>2026-03-28T06:40:13.481Z</time></trkpt><trkpt lat="40.621095" lon="14.9734117"><ele>69.0</ele><time>2026-03-28T06:40:14.482Z</time></trkpt><trkpt lat="40.6212183" lon="14.973415"><ele>69.0</ele><time>2026-03-28T06:40:15.481Z</time></trkpt><trkpt lat="40.6213383" lon="14.973395"><ele>69.0</ele><time>2026-03-28T06:40:16.482Z</time></trkpt><trkpt lat="40.6214517" lon="14.9733567"><ele>69.25</ele><time>2026-03-28T06:40:17.481Z</time></trkpt><trkpt lat="40.621555" lon="14.973285"><ele>69.5</ele><time>2026-03-28T06:40:18.481Z</time></trkpt><trkpt lat="40.6216417" lon="14.9731917"><ele>69.75</ele><time>2026-03-28T06:40:19.481Z</time></trkpt><trkpt lat="40.6217117" lon="14.9730733"><ele>70.0</ele><time>2026-03-28T06:40:20.482Z</time></trkpt><trkpt lat="40.621765" lon="14.972935"><ele>70.0</ele><time>2026-03-28T06:40:21.482Z</time></trkpt><trkpt lat="40.6217983" lon="14.97279"><ele>70.0</ele><time>2026-03-28T06:40:22.482Z</time></trkpt><trkpt lat="40.6218117" lon="14.9726333"><ele>70.0</ele><time>2026-03-28T06:40:23.482Z</time></trkpt><trkpt lat="40.6218017" lon="14.9724767"><ele>70.0</ele><time>2026-03-28T06:40:24.482Z</time></trkpt><trkpt lat="40.6217633" lon="14.9723233"><ele>69.75</ele><time>2026-03-28T06:40:25.482Z</time></trkpt><trkpt lat="40.6217033" lon="14.97218"><ele>69.5</ele><time>2026-03-28T06:40:26.481Z</time></trkpt><trkpt lat="40.6216117" lon="14.9720583"><ele>69.25</ele><time>2026-03-28T06:40:27.482Z</time></trkpt><trkpt lat="40.621505" lon="14.9719517"><ele>69.0</ele><time>2026-03-28T06:40:28.481Z</time></trkpt><trkpt lat="40.6213783" lon="14.9718567"><ele>69.0</ele><time>2026-03-28T06:40:29.481Z</time></trkpt><trkpt lat="40.6212467" lon="14.9717583"><ele>69.0</ele><time>2026-03-28T06:40:30.481Z</time></trkpt><trkpt lat="40.6211083" lon="14.9716567"><ele>69.0</ele><time>2026-03-28T06:40:31.481Z</time></trkpt><trkpt lat="40.6209967" lon="14.971535"><ele>67.75</ele><time>2026-03-28T06:40:32.482Z</time></trkpt><trkpt lat="40.6209" lon="14.9713967"><ele>66.5</ele><time>2026-03-28T06:40:33.482Z</time></trkpt><trkpt lat="40.620825" lon="14.9712317"><ele>65.25</ele><time>2026-03-28T06:40:34.482Z</time></trkpt><trkpt lat="40.6207733" lon="14.971055"><ele>64.0</ele><time>2026-03-28T06:40:35.482Z</time></trkpt><trkpt lat="40.620745" lon="14.9708683"><ele>65.33333333333333</ele><time>2026-03-28T06:40:36.481Z</time></trkpt><trkpt lat="40.6207317" lon="14.9706683"><ele>66.66666666666667</ele><time>2026-03-28T06:40:37.481Z</time></trkpt><trkpt lat="40.6207217" lon="14.9704483"><ele>68.0</ele><time>2026-03-28T06:40:38.482Z</time></trkpt><trkpt lat="40.6207167" lon="14.970205"><ele>67.66666666666667</ele><time>2026-03-28T06:40:39.481Z</time></trkpt><trkpt lat="40.620715" lon="14.969935"><ele>67.33333333333333</ele><time>2026-03-28T06:40:40.481Z</time></trkpt><trkpt lat="40.6207033" lon="14.9696367"><ele>67.0</ele><time>2026-03-28T06:40:41.481Z</time></trkpt><trkpt lat="40.6206933" lon="14.9693217"><ele>65.5</ele><time>2026-03-28T06:40:42.482Z</time></trkpt><trkpt lat="40.6206917" lon="14.9689917"><ele>64.0</ele><time>2026-03-28T06:40:43.482Z</time></trkpt><trkpt lat="40.6206917" lon="14.9686533"><ele>65.0</ele><time>2026-03-28T06:40:44.482Z</time></trkpt><trkpt lat="40.6207033" lon="14.9682983"><ele>66.0</ele><time>2026-03-28T06:40:45.482Z</time></trkpt><trkpt lat="40.6207233" lon="14.96794"><ele>66.0</ele><time>2026-03-28T06:40:46.482Z</time></trkpt><trkpt lat="40.6207467" lon="14.9675867"><ele>66.0</ele><time>2026-03-28T06:40:47.482Z</time></trkpt><trkpt lat="40.6207767" lon="14.9672317"><ele>65.0</ele><time>2026-03-28T06:40:48.482Z</time></trkpt><trkpt lat="40.6208117" lon="14.9668833"><ele>64.0</ele><time>2026-03-28T06:40:49.481Z</time></trkpt><trkpt lat="40.620845" lon="14.9665317"><ele>63.5</ele><time>2026-03-28T06:40:50.481Z</time></trkpt><trkpt lat="40.620885" lon="14.9661833"><ele>63.0</ele><time>2026-03-28T06:40:51.481Z</time></trkpt><trkpt lat="40.6209267" lon="14.9658417"><ele>62.0</ele><time>2026-03-28T06:40:52.482Z</time></trkpt><trkpt lat="40.620975" lon="14.9654933"><ele>61.0</ele><time>2026-03-28T06:40:53.482Z</time></trkpt><trkpt lat="40.6210283" lon="14.9651517"><ele>60.0</ele><time>2026-03-28T06:40:54.482Z</time></trkpt><trkpt lat="40.6210833" lon="14.964815"><ele>59.0</ele><time>2026-03-28T06:40:55.482Z</time></trkpt><trkpt lat="40.6211517" lon="14.96448"><ele>60.0</ele><time>2026-03-28T06:40:56.481Z</time></trkpt><trkpt lat="40.621225" lon="14.9641483"><ele>61.0</ele><time>2026-03-28T06:40:57.482Z</time></trkpt><trkpt lat="40.6213017" lon="14.96382"><ele>61.0</ele><time>2026-03-28T06:40:58.481Z</time></trkpt><trkpt lat="40.62138" lon="14.9634983"><ele>61.0</ele><time>2026-03-28T06:40:59.481Z</time></trkpt><trkpt lat="40.6214583" lon="14.9631717"><ele>60.0</ele><time>2026-03-28T06:41:00.481Z</time></trkpt><trkpt lat="40.6215383" lon="14.9628583"><ele>59.0</ele><time>2026-03-28T06:41:01.481Z</time></trkpt><trkpt lat="40.6216167" lon="14.96254"><ele>58.0</ele><time>2026-03-28T06:41:02.481Z</time></trkpt><trkpt lat="40.621695" lon="14.96223"><ele>57.0</ele><time>2026-03-28T06:41:03.482Z</time></trkpt><trkpt lat="40.621775" lon="14.96191"><ele>57.5</ele><time>2026-03-28T06:41:04.482Z</time></trkpt><trkpt lat="40.62186" lon="14.9615867"><ele>58.0</ele><time>2026-03-28T06:41:05.481Z</time></trkpt><trkpt lat="40.6219417" lon="14.9612633"><ele>58.5</ele><time>2026-03-28T06:41:06.482Z</time></trkpt><trkpt lat="40.62203" lon="14.9609433"><ele>59.0</ele><time>2026-03-28T06:41:07.482Z</time></trkpt><trkpt lat="40.62212" lon="14.9606183"><ele>59.5</ele><time>2026-03-28T06:41:08.482Z</time></trkpt><trkpt lat="40.6221967" lon="14.9603033"><ele>60.0</ele><time>2026-03-28T06:41:09.482Z</time></trkpt><trkpt lat="40.62228" lon="14.9599833"><ele>60.5</ele><time>2026-03-28T06:41:10.482Z</time></trkpt><trkpt lat="40.622365" lon="14.9596667"><ele>61.0</ele><time>2026-03-28T06:41:11.481Z</time></trkpt><trkpt lat="40.6224533" lon="14.9593383"><ele>61.0</ele><time>2026-03-28T06:41:12.481Z</time></trkpt><trkpt lat="40.6225417" lon="14.9590133"><ele>61.0</ele><time>2026-03-28T06:41:13.482Z</time></trkpt><trkpt lat="40.6226333" lon="14.9586883"><ele>61.5</ele><time>2026-03-28T06:41:14.482Z</time></trkpt><trkpt lat="40.6227283" lon="14.9583583"><ele>62.0</ele><time>2026-03-28T06:41:15.481Z</time></trkpt><trkpt lat="40.6228217" lon="14.9580283"><ele>62.5</ele><time>2026-03-28T06:41:16.481Z</time></trkpt><trkpt lat="40.622915" lon="14.9577"><ele>63.0</ele><time>2026-03-28T06:41:17.481Z</time></trkpt><trkpt lat="40.6230133" lon="14.95737"><ele>64.0</ele><time>2026-03-28T06:41:18.482Z</time></trkpt><trkpt lat="40.6231117" lon="14.957045"><ele>65.0</ele><time>2026-03-28T06:41:19.482Z</time></trkpt><trkpt lat="40.6232117" lon="14.9567167"><ele>65.5</ele><time>2026-03-28T06:41:20.482Z</time></trkpt><trkpt lat="40.6233133" lon="14.9563817"><ele>66.0</ele><time>2026-03-28T06:41:21.482Z</time></trkpt><trkpt lat="40.6234167" lon="14.9560467"><ele>65.5</ele><time>2026-03-28T06:41:22.482Z</time></trkpt><trkpt lat="40.62352" lon="14.955705"><ele>65.0</ele><time>2026-03-28T06:41:23.482Z</time></trkpt><trkpt lat="40.6236317" lon="14.9553733"><ele>66.5</ele><time>2026-03-28T06:41:24.482Z</time></trkpt><trkpt lat="40.6237383" lon="14.95504"><ele>68.0</ele><time>2026-03-28T06:41:25.482Z</time></trkpt><trkpt lat="40.6238567" lon="14.9547033"><ele>68.5</ele><time>2026-03-28T06:41:26.481Z</time></trkpt><trkpt lat="40.6239883" lon="14.95437"><ele>69.0</ele><time>2026-03-28T06:41:27.481Z</time></trkpt><trkpt lat="40.624115" lon="14.9540317"><ele>67.5</ele><time>2026-03-28T06:41:28.482Z</time></trkpt><trkpt lat="40.62424" lon="14.9536983"><ele>66.0</ele><time>2026-03-28T06:41:29.481Z</time></trkpt><trkpt lat="40.6243733" lon="14.9533683"><ele>67.0</ele><time>2026-03-28T06:41:30.482Z</time></trkpt><trkpt lat="40.6245067" lon="14.9530367"><ele>68.0</ele><time>2026-03-28T06:41:31.481Z</time></trkpt><trkpt lat="40.6246367" lon="14.9526983"><ele>67.0</ele><time>2026-03-28T06:41:32.482Z</time></trkpt><trkpt lat="40.62478" lon="14.952365"><ele>66.0</ele><time>2026-03-28T06:41:33.482Z</time></trkpt><trkpt lat="40.6249133" lon="14.9520333"><ele>64.0</ele><time>2026-03-28T06:41:34.482Z</time></trkpt><trkpt lat="40.6250417" lon="14.9517033"><ele>62.0</ele><time>2026-03-28T06:41:35.482Z</time></trkpt><trkpt lat="40.6251733" lon="14.9513733"><ele>62.0</ele><time>2026-03-28T06:41:36.482Z</time></trkpt><trkpt lat="40.625305" lon="14.9510433"><ele>62.0</ele><time>2026-03-28T06:41:37.481Z</time></trkpt><trkpt lat="40.62544" lon="14.950715"><ele>61.0</ele><time>2026-03-28T06:41:38.482Z</time></trkpt><trkpt lat="40.62557" lon="14.950385"><ele>60.0</ele><time>2026-03-28T06:41:39.482Z</time></trkpt><trkpt lat="40.6256967" lon="14.9500583"><ele>60.0</ele><time>2026-03-28T06:41:40.481Z</time></trkpt><trkpt lat="40.625825" lon="14.94973"><ele>60.0</ele><time>2026-03-28T06:41:41.482Z</time></trkpt><trkpt lat="40.6259533" lon="14.9494"><ele>60.0</ele><time>2026-03-28T06:41:42.482Z</time></trkpt><trkpt lat="40.6260833" lon="14.9490717"><ele>60.0</ele><time>2026-03-28T06:41:43.482Z</time></trkpt><trkpt lat="40.6262067" lon="14.9487467"><ele>60.5</ele><time>2026-03-28T06:41:44.482Z</time></trkpt><trkpt lat="40.6263317" lon="14.9484183"><ele>61.0</ele><time>2026-03-28T06:41:45.482Z</time></trkpt><trkpt lat="40.62646" lon="14.9480867"><ele>61.0</ele><time>2026-03-28T06:41:46.481Z</time></trkpt><trkpt lat="40.6265833" lon="14.9477617"><ele>61.0</ele><time>2026-03-28T06:41:47.481Z</time></trkpt><trkpt lat="40.6267083" lon="14.9474367"><ele>61.0</ele><time>2026-03-28T06:41:48.482Z</time></trkpt><trkpt lat="40.62683" lon="14.947115"><ele>61.0</ele><time>2026-03-28T06:41:49.482Z</time></trkpt><trkpt lat="40.6269517" lon="14.94679"><ele>62.0</ele><time>2026-03-28T06:41:50.481Z</time></trkpt><trkpt lat="40.6270783" lon="14.9464633"><ele>63.0</ele><time>2026-03-28T06:41:51.482Z</time></trkpt><trkpt lat="40.6271933" lon="14.946145"><ele>62.5</ele><time>2026-03-28T06:41:52.481Z</time></trkpt><trkpt lat="40.6273033" lon="14.9458233"><ele>62.0</ele><time>2026-03-28T06:41:53.482Z</time></trkpt><trkpt lat="40.6274083" lon="14.945495"><ele>62.0</ele><time>2026-03-28T06:41:54.482Z</time></trkpt><trkpt lat="40.6275083" lon="14.9451667"><ele>62.0</ele><time>2026-03-28T06:41:55.481Z</time></trkpt><trkpt lat="40.6276" lon="14.9448333"><ele>62.5</ele><time>2026-03-28T06:41:56.482Z</time></trkpt><trkpt lat="40.62769" lon="14.9445"><ele>63.0</ele><time>2026-03-28T06:41:57.481Z</time></trkpt><trkpt lat="40.6277733" lon="14.944165"><ele>65.0</ele><time>2026-03-28T06:41:58.482Z</time></trkpt><trkpt lat="40.6278483" lon="14.9438267"><ele>67.0</ele><time>2026-03-28T06:41:59.481Z</time></trkpt><trkpt lat="40.6279167" lon="14.9434833"><ele>66.0</ele><time>2026-03-28T06:42:00.482Z</time></trkpt><trkpt lat="40.6279783" lon="14.9431333"><ele>65.0</ele><time>2026-03-28T06:42:01.482Z</time></trkpt><trkpt lat="40.6280383" lon="14.9427767"><ele>65.0</ele><time>2026-03-28T06:42:02.482Z</time></trkpt><trkpt lat="40.62809" lon="14.9424267"><ele>65.0</ele><time>2026-03-28T06:42:03.481Z</time></trkpt><trkpt lat="40.6281417" lon="14.9420733"><ele>65.0</ele><time>2026-03-28T06:42:04.482Z</time></trkpt><trkpt lat="40.6281833" lon="14.941715"><ele>65.0</ele><time>2026-03-28T06:42:05.482Z</time></trkpt><trkpt lat="40.6282217" lon="14.9413533"><ele>65.0</ele><time>2026-03-28T06:42:06.481Z</time></trkpt><trkpt lat="40.628255" lon="14.940995"><ele>65.0</ele><time>2026-03-28T06:42:07.482Z</time></trkpt><trkpt lat="40.628285" lon="14.9406317"><ele>64.5</ele><time>2026-03-28T06:42:08.481Z</time></trkpt><trkpt lat="40.6283033" lon="14.94027"><ele>64.0</ele><time>2026-03-28T06:42:09.482Z</time></trkpt><trkpt lat="40.62832" lon="14.9399033"><ele>64.0</ele><time>2026-03-28T06:42:10.482Z</time></trkpt><trkpt lat="40.6283367" lon="14.9395367"><ele>64.0</ele><time>2026-03-28T06:42:11.482Z</time></trkpt><trkpt lat="40.6283533" lon="14.9391683"><ele>64.0</ele><time>2026-03-28T06:42:12.482Z</time></trkpt><trkpt lat="40.6283683" lon="14.938805"><ele>64.0</ele><time>2026-03-28T06:42:13.481Z</time></trkpt><trkpt lat="40.6283833" lon="14.93844"><ele>63.5</ele><time>2026-03-28T06:42:14.482Z</time></trkpt><trkpt lat="40.6284017" lon="14.9380633"><ele>63.0</ele><time>2026-03-28T06:42:15.482Z</time></trkpt><trkpt lat="40.6284183" lon="14.9376983"><ele>61.5</ele><time>2026-03-28T06:42:16.481Z</time></trkpt><trkpt lat="40.628435" lon="14.937335"><ele>60.0</ele><time>2026-03-28T06:42:17.482Z</time></trkpt><trkpt lat="40.6284517" lon="14.9369717"><ele>60.0</ele><time>2026-03-28T06:42:18.481Z</time></trkpt><trkpt lat="40.628475" lon="14.936605"><ele>60.0</ele><time>2026-03-28T06:42:19.481Z</time></trkpt><trkpt lat="40.6285083" lon="14.9362333"><ele>59.0</ele><time>2026-03-28T06:42:20.481Z</time></trkpt><trkpt lat="40.62854" lon="14.9358667"><ele>58.0</ele><time>2026-03-28T06:42:21.482Z</time></trkpt><trkpt lat="40.6285833" lon="14.9355017"><ele>58.0</ele><time>2026-03-28T06:42:22.481Z</time></trkpt><trkpt lat="40.6286283" lon="14.9351367"><ele>58.0</ele><time>2026-03-28T06:42:23.481Z</time></trkpt><trkpt lat="40.6286833" lon="14.934775"><ele>58.0</ele><time>2026-03-28T06:42:24.481Z</time></trkpt><trkpt lat="40.62874" lon="14.9344167"><ele>58.0</ele><time>2026-03-28T06:42:25.481Z</time></trkpt><trkpt lat="40.6288017" lon="14.93406"><ele>58.0</ele><time>2026-03-28T06:42:26.482Z</time></trkpt><trkpt lat="40.6288667" lon="14.933705"><ele>58.0</ele><time>2026-03-28T06:42:27.481Z</time></trkpt><trkpt lat="40.6289417" lon="14.9333517"><ele>58.0</ele><time>2026-03-28T06:42:28.482Z</time></trkpt><trkpt lat="40.6290233" lon="14.9330083"><ele>58.0</ele><time>2026-03-28T06:42:29.482Z</time></trkpt><trkpt lat="40.6291067" lon="14.9326683"><ele>58.5</ele><time>2026-03-28T06:42:30.482Z</time></trkpt><trkpt lat="40.6291933" lon="14.9323283"><ele>59.0</ele><time>2026-03-28T06:42:31.482Z</time></trkpt><trkpt lat="40.6292883" lon="14.9319983"><ele>59.0</ele><time>2026-03-28T06:42:32.482Z</time></trkpt><trkpt lat="40.6293867" lon="14.9316717"><ele>59.0</ele><time>2026-03-28T06:42:33.482Z</time></trkpt><trkpt lat="40.6294833" lon="14.9313417"><ele>59.0</ele><time>2026-03-28T06:42:34.481Z</time></trkpt><trkpt lat="40.62959" lon="14.9310067"><ele>59.0</ele><time>2026-03-28T06:42:35.481Z</time></trkpt><trkpt lat="40.6296983" lon="14.9306717"><ele>59.0</ele><time>2026-03-28T06:42:36.481Z</time></trkpt><trkpt lat="40.6298017" lon="14.93034"><ele>59.0</ele><time>2026-03-28T06:42:37.482Z</time></trkpt><trkpt lat="40.6299033" lon="14.9300017"><ele>59.0</ele><time>2026-03-28T06:42:38.482Z</time></trkpt><trkpt lat="40.6300067" lon="14.9296683"><ele>59.0</ele><time>2026-03-28T06:42:39.482Z</time></trkpt><trkpt lat="40.6301167" lon="14.9293283"><ele>59.5</ele><time>2026-03-28T06:42:40.481Z</time></trkpt><trkpt lat="40.6302217" lon="14.92898"><ele>60.0</ele><time>2026-03-28T06:42:41.481Z</time></trkpt><trkpt lat="40.630335" lon="14.9286317"><ele>58.0</ele><time>2026-03-28T06:42:42.482Z</time></trkpt><trkpt lat="40.63045" lon="14.928285"><ele>56.0</ele><time>2026-03-28T06:42:43.482Z</time></trkpt><trkpt lat="40.6305667" lon="14.9279317"><ele>56.0</ele><time>2026-03-28T06:42:44.482Z</time></trkpt><trkpt lat="40.6306833" lon="14.9275767"><ele>56.0</ele><time>2026-03-28T06:42:45.481Z</time></trkpt><trkpt lat="40.630795" lon="14.92722"><ele>55.5</ele><time>2026-03-28T06:42:46.481Z</time></trkpt><trkpt lat="40.63091" lon="14.9268683"><ele>55.0</ele><time>2026-03-28T06:42:47.481Z</time></trkpt><trkpt lat="40.6310283" lon="14.9265167"><ele>55.0</ele><time>2026-03-28T06:42:48.482Z</time></trkpt><trkpt lat="40.63115" lon="14.92616"><ele>55.0</ele><time>2026-03-28T06:42:49.482Z</time></trkpt><trkpt lat="40.6312717" lon="14.925795"><ele>54.0</ele><time>2026-03-28T06:42:50.482Z</time></trkpt><trkpt lat="40.6313983" lon="14.9254167"><ele>53.0</ele><time>2026-03-28T06:42:51.482Z</time></trkpt><trkpt lat="40.6315267" lon="14.9250333"><ele>52.0</ele><time>2026-03-28T06:42:52.481Z</time></trkpt><trkpt lat="40.6316517" lon="14.9246433"><ele>51.0</ele><time>2026-03-28T06:42:53.482Z</time></trkpt><trkpt lat="40.6317767" lon="14.9242533"><ele>50.5</ele><time>2026-03-28T06:42:54.482Z</time></trkpt><trkpt lat="40.6319133" lon="14.9238717"><ele>50.0</ele><time>2026-03-28T06:42:55.482Z</time></trkpt><trkpt lat="40.6320417" lon="14.9234933"><ele>51.0</ele><time>2026-03-28T06:42:56.482Z</time></trkpt><trkpt lat="40.6321767" lon="14.923125"><ele>52.0</ele><time>2026-03-28T06:42:57.482Z</time></trkpt><trkpt lat="40.6323033" lon="14.9227567"><ele>51.0</ele><time>2026-03-28T06:42:58.481Z</time></trkpt><trkpt lat="40.6324333" lon="14.9223917"><ele>50.0</ele><time>2026-03-28T06:42:59.481Z</time></trkpt><trkpt lat="40.6325533" lon="14.9220317"><ele>49.0</ele><time>2026-03-28T06:43:00.481Z</time></trkpt><trkpt lat="40.6326733" lon="14.9216683"><ele>48.0</ele><time>2026-03-28T06:43:01.482Z</time></trkpt><trkpt lat="40.632795" lon="14.9213117"><ele>48.5</ele><time>2026-03-28T06:43:02.481Z</time></trkpt><trkpt lat="40.6329183" lon="14.9209567"><ele>49.0</ele><time>2026-03-28T06:43:03.482Z</time></trkpt><trkpt lat="40.6330383" lon="14.920605"><ele>49.0</ele><time>2026-03-28T06:43:04.481Z</time></trkpt><trkpt lat="40.63315" lon="14.9202567"><ele>49.0</ele><time>2026-03-28T06:43:05.482Z</time></trkpt><trkpt lat="40.63327" lon="14.9199067"><ele>48.5</ele><time>2026-03-28T06:43:06.481Z</time></trkpt><trkpt lat="40.6333883" lon="14.9195617"><ele>48.0</ele><time>2026-03-28T06:43:07.481Z</time></trkpt><trkpt lat="40.633495" lon="14.91922"><ele>48.0</ele><time>2026-03-28T06:43:08.481Z</time></trkpt><trkpt lat="40.6336067" lon="14.9188733"><ele>48.0</ele><time>2026-03-28T06:43:09.482Z</time></trkpt><trkpt lat="40.6337233" lon="14.91853"><ele>46.5</ele><time>2026-03-28T06:43:10.482Z</time></trkpt><trkpt lat="40.63384" lon="14.918185"><ele>45.0</ele><time>2026-03-28T06:43:11.482Z</time></trkpt><trkpt lat="40.63396" lon="14.917845"><ele>44.5</ele><time>2026-03-28T06:43:12.482Z</time></trkpt><trkpt lat="40.6340733" lon="14.9175"><ele>44.0</ele><time>2026-03-28T06:43:13.482Z</time></trkpt><trkpt lat="40.6341883" lon="14.9171567"><ele>44.0</ele><time>2026-03-28T06:43:14.481Z</time></trkpt><trkpt lat="40.6343" lon="14.91681"><ele>44.0</ele><time>2026-03-28T06:43:15.481Z</time></trkpt><trkpt lat="40.6344117" lon="14.91647"><ele>43.0</ele><time>2026-03-28T06:43:16.481Z</time></trkpt><trkpt lat="40.6345283" lon="14.91613"><ele>42.0</ele><time>2026-03-28T06:43:17.482Z</time></trkpt><trkpt lat="40.634645" lon="14.9157867"><ele>42.0</ele><time>2026-03-28T06:43:18.482Z</time></trkpt><trkpt lat="40.63476" lon="14.91544"><ele>42.0</ele><time>2026-03-28T06:43:19.481Z</time></trkpt><trkpt lat="40.6348733" lon="14.9150967"><ele>42.0</ele><time>2026-03-28T06:43:20.482Z</time></trkpt><trkpt lat="40.6349967" lon="14.9147483"><ele>42.0</ele><time>2026-03-28T06:43:21.482Z</time></trkpt><trkpt lat="40.635115" lon="14.9144033"><ele>41.0</ele><time>2026-03-28T06:43:22.481Z</time></trkpt><trkpt lat="40.6352283" lon="14.9140483"><ele>40.0</ele><time>2026-03-28T06:43:23.481Z</time></trkpt><trkpt lat="40.6353417" lon="14.9136983"><ele>39.0</ele><time>2026-03-28T06:43:24.482Z</time></trkpt><trkpt lat="40.6354583" lon="14.9133517"><ele>38.0</ele><time>2026-03-28T06:43:25.482Z</time></trkpt><trkpt lat="40.6355783" lon="14.913"><ele>38.0</ele><time>2026-03-28T06:43:26.482Z</time></trkpt><trkpt lat="40.6356917" lon="14.91265"><ele>38.0</ele><time>2026-03-28T06:43:27.481Z</time></trkpt><trkpt lat="40.6358033" lon="14.9123067"><ele>38.5</ele><time>2026-03-28T06:43:28.482Z</time></trkpt><trkpt lat="40.6359167" lon="14.9119633"><ele>39.0</ele><time>2026-03-28T06:43:29.481Z</time></trkpt><trkpt lat="40.63603" lon="14.9116183"><ele>39.0</ele><time>2026-03-28T06:43:30.482Z</time></trkpt><trkpt lat="40.6361367" lon="14.91127"><ele>39.0</ele><time>2026-03-28T06:43:31.481Z</time></trkpt><trkpt lat="40.636245" lon="14.9109283"><ele>38.0</ele><time>2026-03-28T06:43:32.482Z</time></trkpt><trkpt lat="40.6363583" lon="14.9105867"><ele>37.0</ele><time>2026-03-28T06:43:33.482Z</time></trkpt><trkpt lat="40.6364717" lon="14.9102433"><ele>36.5</ele><time>2026-03-28T06:43:34.481Z</time></trkpt><trkpt lat="40.636585" lon="14.9098967"><ele>36.0</ele><time>2026-03-28T06:43:35.482Z</time></trkpt><trkpt lat="40.6367013" lon="14.9095464"><ele>37.0</ele><time>2026-03-28T06:43:36.482Z</time></trkpt><trkpt lat="40.6368174" lon="14.9091906"><ele>38.0</ele><time>2026-03-28T06:43:37.481Z</time></trkpt><trkpt lat="40.6369428" lon="14.9088295"><ele>38.5</ele><time>2026-03-28T06:43:38.482Z</time></trkpt><trkpt lat="40.6370725" lon="14.908464"><ele>39.0</ele><time>2026-03-28T06:43:39.481Z</time></trkpt><trkpt lat="40.6372071" lon="14.9080881"><ele>39.5</ele><time>2026-03-28T06:43:40.481Z</time></trkpt><trkpt lat="40.6373493" lon="14.9077229"><ele>40.0</ele><time>2026-03-28T06:43:41.481Z</time></trkpt><trkpt lat="40.6374882" lon="14.9073754"><ele>40.0</ele><time>2026-03-28T06:43:42.482Z</time></trkpt><trkpt lat="40.6376399" lon="14.9070365"><ele>40.0</ele><time>2026-03-28T06:43:43.482Z</time></trkpt><trkpt lat="40.6377893" lon="14.9067006"><ele>40.0</ele><time>2026-03-28T06:43:44.481Z</time></trkpt><trkpt lat="40.6379401" lon="14.906368"><ele>40.0</ele><time>2026-03-28T06:43:45.482Z</time></trkpt><trkpt lat="40.6380911" lon="14.9060403"><ele>39.5</ele><time>2026-03-28T06:43:46.481Z</time></trkpt><trkpt lat="40.6382392" lon="14.9057135"><ele>39.0</ele><time>2026-03-28T06:43:47.482Z</time></trkpt><trkpt lat="40.6383871" lon="14.9053885"><ele>39.5</ele><time>2026-03-28T06:43:48.482Z</time></trkpt><trkpt lat="40.6385342" lon="14.9050612"><ele>40.0</ele><time>2026-03-28T06:43:49.482Z</time></trkpt><trkpt lat="40.6386831" lon="14.9047347"><ele>40.0</ele><time>2026-03-28T06:43:50.482Z</time></trkpt><trkpt lat="40.6388328" lon="14.9044062"><ele>40.0</ele><time>2026-03-28T06:43:51.482Z</time></trkpt><trkpt lat="40.6389827" lon="14.904082"><ele>39.5</ele><time>2026-03-28T06:43:52.482Z</time></trkpt><trkpt lat="40.6391294" lon="14.9037572"><ele>39.0</ele><time>2026-03-28T06:43:53.482Z</time></trkpt><trkpt lat="40.6392785" lon="14.9034287"><ele>39.5</ele><time>2026-03-28T06:43:54.482Z</time></trkpt><trkpt lat="40.6394281" lon="14.9031038"><ele>40.0</ele><time>2026-03-28T06:43:55.481Z</time></trkpt><trkpt lat="40.6395776" lon="14.9027802"><ele>40.0</ele><time>2026-03-28T06:43:56.481Z</time></trkpt><trkpt lat="40.6397251" lon="14.9024568"><ele>40.0</ele><time>2026-03-28T06:43:57.482Z</time></trkpt><trkpt lat="40.639874" lon="14.9021371"><ele>40.0</ele><time>2026-03-28T06:43:58.481Z</time></trkpt><trkpt lat="40.6400249" lon="14.9018168"><ele>40.0</ele><time>2026-03-28T06:43:59.481Z</time></trkpt><trkpt lat="40.6401732" lon="14.9014915"><ele>40.0</ele><time>2026-03-28T06:44:00.481Z</time></trkpt><trkpt lat="40.6403215" lon="14.9011652"><ele>40.0</ele><time>2026-03-28T06:44:01.482Z</time></trkpt><trkpt lat="40.6404666" lon="14.9008372"><ele>40.0</ele><time>2026-03-28T06:44:02.481Z</time></trkpt><trkpt lat="40.6406116" lon="14.9005077"><ele>40.0</ele><time>2026-03-28T06:44:03.482Z</time></trkpt><trkpt lat="40.6407613" lon="14.9001789"><ele>39.5</ele><time>2026-03-28T06:44:04.482Z</time></trkpt><trkpt lat="40.6409105" lon="14.8998471"><ele>39.0</ele><time>2026-03-28T06:44:05.482Z</time></trkpt><trkpt lat="40.6410579" lon="14.899517"><ele>38.5</ele><time>2026-03-28T06:44:06.482Z</time></trkpt><trkpt lat="40.6412082" lon="14.8991877"><ele>38.0</ele><time>2026-03-28T06:44:07.481Z</time></trkpt><trkpt lat="40.6413628" lon="14.8988618"><ele>38.0</ele><time>2026-03-28T06:44:08.482Z</time></trkpt><trkpt lat="40.6415107" lon="14.8985331"><ele>38.0</ele><time>2026-03-28T06:44:09.482Z</time></trkpt><trkpt lat="40.6416647" lon="14.8982035"><ele>37.5</ele><time>2026-03-28T06:44:10.482Z</time></trkpt><trkpt lat="40.6418172" lon="14.8978791"><ele>37.0</ele><time>2026-03-28T06:44:11.482Z</time></trkpt><trkpt lat="40.641967" lon="14.8975519"><ele>38.0</ele><time>2026-03-28T06:44:12.483Z</time></trkpt><trkpt lat="40.6421204" lon="14.897224"><ele>39.0</ele><time>2026-03-28T06:44:13.483Z</time></trkpt><trkpt lat="40.6422715" lon="14.8968992"><ele>39.0</ele><time>2026-03-28T06:44:14.483Z</time></trkpt><trkpt lat="40.6424194" lon="14.8965722"><ele>39.0</ele><time>2026-03-28T06:44:15.482Z</time></trkpt><trkpt lat="40.6425744" lon="14.8962479"><ele>39.0</ele><time>2026-03-28T06:44:16.483Z</time></trkpt><trkpt lat="40.6427315" lon="14.8959214"><ele>39.0</ele><time>2026-03-28T06:44:17.483Z</time></trkpt><trkpt lat="40.6428845" lon="14.8955986"><ele>40.0</ele><time>2026-03-28T06:44:18.483Z</time></trkpt><trkpt lat="40.6430347" lon="14.8952719"><ele>41.0</ele><time>2026-03-28T06:44:19.482Z</time></trkpt><trkpt lat="40.6431846" lon="14.8949463"><ele>41.0</ele><time>2026-03-28T06:44:20.482Z</time></trkpt><trkpt lat="40.6433298" lon="14.8946185"><ele>41.0</ele><time>2026-03-28T06:44:21.482Z</time></trkpt><trkpt lat="40.6434795" lon="14.8942919"><ele>41.0</ele><time>2026-03-28T06:44:22.482Z</time></trkpt><trkpt lat="40.6436293" lon="14.8939676"><ele>41.0</ele><time>2026-03-28T06:44:23.483Z</time></trkpt><trkpt lat="40.6437818" lon="14.8936463"><ele>42.0</ele><time>2026-03-28T06:44:24.482Z</time></trkpt><trkpt lat="40.6439264" lon="14.8933198"><ele>43.0</ele><time>2026-03-28T06:44:25.483Z</time></trkpt><trkpt lat="40.6440704" lon="14.8929939"><ele>43.0</ele><time>2026-03-28T06:44:26.482Z</time></trkpt><trkpt lat="40.6442161" lon="14.8926663"><ele>43.0</ele><time>2026-03-28T06:44:27.483Z</time></trkpt><trkpt lat="40.6443634" lon="14.8923368"><ele>44.5</ele><time>2026-03-28T06:44:28.483Z</time></trkpt><trkpt lat="40.6445094" lon="14.8920066"><ele>46.0</ele><time>2026-03-28T06:44:29.483Z</time></trkpt><trkpt lat="40.6446534" lon="14.8916815"><ele>46.0</ele><time>2026-03-28T06:44:30.483Z</time></trkpt><trkpt lat="40.6447953" lon="14.8913608"><ele>46.0</ele><time>2026-03-28T06:44:31.483Z</time></trkpt><trkpt lat="40.6449334" lon="14.8910387"><ele>45.0</ele><time>2026-03-28T06:44:32.483Z</time></trkpt><trkpt lat="40.6450738" lon="14.8907162"><ele>44.0</ele><time>2026-03-28T06:44:33.482Z</time></trkpt><trkpt lat="40.6452171" lon="14.8904013"><ele>45.5</ele><time>2026-03-28T06:44:34.483Z</time></trkpt><trkpt lat="40.6453529" lon="14.8900871"><ele>47.0</ele><time>2026-03-28T06:44:35.483Z</time></trkpt><trkpt lat="40.6454918" lon="14.8897687"><ele>47.0</ele><time>2026-03-28T06:44:36.483Z</time></trkpt><trkpt lat="40.6456316" lon="14.8894512"><ele>47.0</ele><time>2026-03-28T06:44:37.483Z</time></trkpt><trkpt lat="40.6457739" lon="14.8891325"><ele>46.5</ele><time>2026-03-28T06:44:38.483Z</time></trkpt><trkpt lat="40.6459117" lon="14.8888098"><ele>46.0</ele><time>2026-03-28T06:44:39.482Z</time></trkpt><trkpt lat="40.6460531" lon="14.8884876"><ele>45.5</ele><time>2026-03-28T06:44:40.483Z</time></trkpt><trkpt lat="40.6461987" lon="14.8881643"><ele>45.0</ele><time>2026-03-28T06:44:41.483Z</time></trkpt><trkpt lat="40.6463465" lon="14.887843"><ele>44.0</ele><time>2026-03-28T06:44:42.483Z</time></trkpt><trkpt lat="40.6464913" lon="14.8875162"><ele>43.0</ele><time>2026-03-28T06:44:43.483Z</time></trkpt><trkpt lat="40.6466401" lon="14.8871852"><ele>43.0</ele><time>2026-03-28T06:44:44.483Z</time></trkpt><trkpt lat="40.6467864" lon="14.8868545"><ele>43.0</ele><time>2026-03-28T06:44:45.483Z</time></trkpt><trkpt lat="40.6469306" lon="14.8865205"><ele>43.5</ele><time>2026-03-28T06:44:46.482Z</time></trkpt><trkpt lat="40.6470791" lon="14.8861868"><ele>44.0</ele><time>2026-03-28T06:44:47.483Z</time></trkpt><trkpt lat="40.6472262" lon="14.885856"><ele>44.0</ele><time>2026-03-28T06:44:48.483Z</time></trkpt><trkpt lat="40.6473692" lon="14.8855261"><ele>44.0</ele><time>2026-03-28T06:44:49.483Z</time></trkpt><trkpt lat="40.6475148" lon="14.8851986"><ele>43.5</ele><time>2026-03-28T06:44:50.482Z</time></trkpt><trkpt lat="40.6476611" lon="14.8848744"><ele>43.0</ele><time>2026-03-28T06:44:51.483Z</time></trkpt><trkpt lat="40.647806" lon="14.8845505"><ele>42.5</ele><time>2026-03-28T06:44:52.483Z</time></trkpt><trkpt lat="40.6479495" lon="14.8842289"><ele>42.0</ele><time>2026-03-28T06:44:53.483Z</time></trkpt><trkpt lat="40.6480937" lon="14.883914"><ele>42.0</ele><time>2026-03-28T06:44:54.482Z</time></trkpt><trkpt lat="40.6482317" lon="14.8835917"><ele>42.0</ele><time>2026-03-28T06:44:55.483Z</time></trkpt><trkpt lat="40.6483733" lon="14.88327"><ele>41.5</ele><time>2026-03-28T06:44:56.482Z</time></trkpt><trkpt lat="40.6485167" lon="14.8829483"><ele>41.0</ele><time>2026-03-28T06:44:57.483Z</time></trkpt><trkpt lat="40.64866" lon="14.8826183"><ele>41.0</ele><time>2026-03-28T06:44:58.482Z</time></trkpt><trkpt lat="40.6488" lon="14.8822883"><ele>41.0</ele><time>2026-03-28T06:44:59.483Z</time></trkpt><trkpt lat="40.6489467" lon="14.881955"><ele>40.5</ele><time>2026-03-28T06:45:00.482Z</time></trkpt><trkpt lat="40.6490917" lon="14.88161"><ele>40.0</ele><time>2026-03-28T06:45:01.483Z</time></trkpt><trkpt lat="40.6492433" lon="14.8812633"><ele>40.0</ele><time>2026-03-28T06:45:02.483Z</time></trkpt><trkpt lat="40.6493933" lon="14.88092"><ele>40.0</ele><time>2026-03-28T06:45:03.482Z</time></trkpt><trkpt lat="40.6495433" lon="14.8805767"><ele>40.0</ele><time>2026-03-28T06:45:04.483Z</time></trkpt><trkpt lat="40.6496967" lon="14.88023"><ele>40.0</ele><time>2026-03-28T06:45:05.482Z</time></trkpt><trkpt lat="40.649845" lon="14.8798867"><ele>39.0</ele><time>2026-03-28T06:45:06.482Z</time></trkpt><trkpt lat="40.64999" lon="14.8795467"><ele>38.0</ele><time>2026-03-28T06:45:07.483Z</time></trkpt><trkpt lat="40.6501433" lon="14.8792083"><ele>38.5</ele><time>2026-03-28T06:45:08.483Z</time></trkpt><trkpt lat="40.650295" lon="14.878875"><ele>39.0</ele><time>2026-03-28T06:45:09.483Z</time></trkpt><trkpt lat="40.65045" lon="14.878545"><ele>37.5</ele><time>2026-03-28T06:45:10.482Z</time></trkpt><trkpt lat="40.650605" lon="14.87821"><ele>36.0</ele><time>2026-03-28T06:45:11.483Z</time></trkpt><trkpt lat="40.650755" lon="14.8778733"><ele>35.5</ele><time>2026-03-28T06:45:12.482Z</time></trkpt><trkpt lat="40.6509017" lon="14.87754"><ele>35.0</ele><time>2026-03-28T06:45:13.482Z</time></trkpt><trkpt lat="40.6510533" lon="14.8772083"><ele>35.5</ele><time>2026-03-28T06:45:14.483Z</time></trkpt><trkpt lat="40.6512" lon="14.8768667"><ele>36.0</ele><time>2026-03-28T06:45:15.483Z</time></trkpt><trkpt lat="40.6513433" lon="14.8765383"><ele>36.0</ele><time>2026-03-28T06:45:16.482Z</time></trkpt><trkpt lat="40.65149" lon="14.8762067"><ele>36.0</ele><time>2026-03-28T06:45:17.483Z</time></trkpt><trkpt lat="40.6516417" lon="14.8758717"><ele>36.0</ele><time>2026-03-28T06:45:18.483Z</time></trkpt><trkpt lat="40.6518" lon="14.87553"><ele>36.0</ele><time>2026-03-28T06:45:19.482Z</time></trkpt><trkpt lat="40.65195" lon="14.875185"><ele>35.0</ele><time>2026-03-28T06:45:20.482Z</time></trkpt><trkpt lat="40.6520983" lon="14.8748433"><ele>34.0</ele><time>2026-03-28T06:45:21.483Z</time></trkpt><trkpt lat="40.6522467" lon="14.8745033"><ele>32.5</ele><time>2026-03-28T06:45:22.483Z</time></trkpt><trkpt lat="40.6523983" lon="14.8741617"><ele>31.0</ele><time>2026-03-28T06:45:23.483Z</time></trkpt><trkpt lat="40.6525517" lon="14.8738167"><ele>31.0</ele><time>2026-03-28T06:45:24.482Z</time></trkpt><trkpt lat="40.6527017" lon="14.87347"><ele>31.0</ele><time>2026-03-28T06:45:25.483Z</time></trkpt><trkpt lat="40.6528467" lon="14.8731233"><ele>31.0</ele><time>2026-03-28T06:45:26.483Z</time></trkpt><trkpt lat="40.6529883" lon="14.8727833"><ele>31.0</ele><time>2026-03-28T06:45:27.483Z</time></trkpt><trkpt lat="40.6531333" lon="14.8724383"><ele>31.0</ele><time>2026-03-28T06:45:28.482Z</time></trkpt><trkpt lat="40.6532767" lon="14.8720867"><ele>31.0</ele><time>2026-03-28T06:45:29.482Z</time></trkpt><trkpt lat="40.6534183" lon="14.8717367"><ele>31.5</ele><time>2026-03-28T06:45:30.482Z</time></trkpt><trkpt lat="40.6535617" lon="14.8714017"><ele>32.0</ele><time>2026-03-28T06:45:31.482Z</time></trkpt><trkpt lat="40.6536967" lon="14.8710683"><ele>34.5</ele><time>2026-03-28T06:45:32.483Z</time></trkpt><trkpt lat="40.6538333" lon="14.8707367"><ele>37.0</ele><time>2026-03-28T06:45:33.482Z</time></trkpt><trkpt lat="40.6539717" lon="14.8704033"><ele>38.5</ele><time>2026-03-28T06:45:34.482Z</time></trkpt><trkpt lat="40.65411" lon="14.87007"><ele>40.0</ele><time>2026-03-28T06:45:35.483Z</time></trkpt><trkpt lat="40.654245" lon="14.8697333"><ele>40.0</ele><time>2026-03-28T06:45:36.483Z</time></trkpt><trkpt lat="40.6543833" lon="14.8693983"><ele>40.0</ele><time>2026-03-28T06:45:37.483Z</time></trkpt><trkpt lat="40.65452" lon="14.8690683"><ele>41.5</ele><time>2026-03-28T06:45:38.482Z</time></trkpt><trkpt lat="40.654655" lon="14.8687367"><ele>43.0</ele><time>2026-03-28T06:45:39.483Z</time></trkpt><trkpt lat="40.65479" lon="14.868405"><ele>43.0</ele><time>2026-03-28T06:45:40.482Z</time></trkpt><trkpt lat="40.6549233" lon="14.8680733"><ele>43.0</ele><time>2026-03-28T06:45:41.482Z</time></trkpt><trkpt lat="40.6550583" lon="14.8677417"><ele>43.0</ele><time>2026-03-28T06:45:42.482Z</time></trkpt><trkpt lat="40.6551883" lon="14.86741"><ele>43.0</ele><time>2026-03-28T06:45:43.482Z</time></trkpt><trkpt lat="40.6553267" lon="14.8670783"><ele>45.5</ele><time>2026-03-28T06:45:44.482Z</time></trkpt><trkpt lat="40.6554633" lon="14.866745"><ele>48.0</ele><time>2026-03-28T06:45:45.483Z</time></trkpt><trkpt lat="40.655605" lon="14.86641"><ele>48.0</ele><time>2026-03-28T06:45:46.483Z</time></trkpt><trkpt lat="40.6557533" lon="14.86608"><ele>48.0</ele><time>2026-03-28T06:45:47.483Z</time></trkpt><trkpt lat="40.6559033" lon="14.86575"><ele>47.0</ele><time>2026-03-28T06:45:48.482Z</time></trkpt><trkpt lat="40.6560567" lon="14.865435"><ele>46.0</ele><time>2026-03-28T06:45:49.483Z</time></trkpt><trkpt lat="40.6562233" lon="14.8651317"><ele>46.5</ele><time>2026-03-28T06:45:50.483Z</time></trkpt><trkpt lat="40.6563917" lon="14.86483"><ele>47.0</ele><time>2026-03-28T06:45:51.483Z</time></trkpt><trkpt lat="40.656565" lon="14.86454"><ele>47.5</ele><time>2026-03-28T06:45:52.482Z</time></trkpt><trkpt lat="40.6567433" lon="14.8642583"><ele>48.0</ele><time>2026-03-28T06:45:53.482Z</time></trkpt><trkpt lat="40.65693" lon="14.8639883"><ele>47.0</ele><time>2026-03-28T06:45:54.482Z</time></trkpt><trkpt lat="40.6571133" lon="14.8637267"><ele>46.0</ele><time>2026-03-28T06:45:55.482Z</time></trkpt><trkpt lat="40.6573033" lon="14.863475"><ele>47.5</ele><time>2026-03-28T06:45:56.483Z</time></trkpt><trkpt lat="40.6574983" lon="14.8632317"><ele>49.0</ele><time>2026-03-28T06:45:57.483Z</time></trkpt><trkpt lat="40.6577017" lon="14.8630017"><ele>48.5</ele><time>2026-03-28T06:45:58.482Z</time></trkpt><trkpt lat="40.6579083" lon="14.8627783"><ele>48.0</ele><time>2026-03-28T06:45:59.482Z</time></trkpt><trkpt lat="40.6581217" lon="14.8625667"><ele>50.0</ele><time>2026-03-28T06:46:00.483Z</time></trkpt><trkpt lat="40.6583383" lon="14.8623667"><ele>52.0</ele><time>2026-03-28T06:46:01.483Z</time></trkpt><trkpt lat="40.65856" lon="14.862175"><ele>54.5</ele><time>2026-03-28T06:46:02.482Z</time></trkpt><trkpt lat="40.65878" lon="14.86199"><ele>57.0</ele><time>2026-03-28T06:46:03.482Z</time></trkpt><trkpt lat="40.6590067" lon="14.861805"><ele>57.0</ele><time>2026-03-28T06:46:04.483Z</time></trkpt><trkpt lat="40.659235" lon="14.8616233"><ele>57.0</ele><time>2026-03-28T06:46:05.482Z</time></trkpt><trkpt lat="40.6594667" lon="14.8614433"><ele>62.5</ele><time>2026-03-28T06:46:06.483Z</time></trkpt><trkpt lat="40.6596983" lon="14.8612683"><ele>68.0</ele><time>2026-03-28T06:46:07.482Z</time></trkpt><trkpt lat="40.6599333" lon="14.86109"><ele>69.0</ele><time>2026-03-28T06:46:08.483Z</time></trkpt><trkpt lat="40.66016" lon="14.860915"><ele>70.0</ele><time>2026-03-28T06:46:09.482Z</time></trkpt><trkpt lat="40.6603933" lon="14.8607417"><ele>70.0</ele><time>2026-03-28T06:46:10.483Z</time></trkpt><trkpt lat="40.6606283" lon="14.860565"><ele>70.0</ele><time>2026-03-28T06:46:11.483Z</time></trkpt><trkpt lat="40.660865" lon="14.860405"><ele>70.0</ele><time>2026-03-28T06:46:12.483Z</time></trkpt><trkpt lat="40.6611067" lon="14.8602467"><ele>70.0</ele><time>2026-03-28T06:46:13.483Z</time></trkpt><trkpt lat="40.6613433" lon="14.860095"><ele>70.0</ele><time>2026-03-28T06:46:14.482Z</time></trkpt><trkpt lat="40.661585" lon="14.8599533"><ele>70.0</ele><time>2026-03-28T06:46:15.483Z</time></trkpt><trkpt lat="40.6618267" lon="14.85982"><ele>74.5</ele><time>2026-03-28T06:46:16.483Z</time></trkpt><trkpt lat="40.6620683" lon="14.8596917"><ele>79.0</ele><time>2026-03-28T06:46:17.482Z</time></trkpt><trkpt lat="40.662305" lon="14.859575"><ele>79.0</ele><time>2026-03-28T06:46:18.482Z</time></trkpt><trkpt lat="40.6625383" lon="14.8594717"><ele>79.0</ele><time>2026-03-28T06:46:19.482Z</time></trkpt><trkpt lat="40.6627767" lon="14.85938"><ele>86.0</ele><time>2026-03-28T06:46:20.483Z</time></trkpt><trkpt lat="40.663025" lon="14.859295"><ele>93.0</ele><time>2026-03-28T06:46:21.482Z</time></trkpt><trkpt lat="40.6632717" lon="14.8592033"><ele>93.0</ele><time>2026-03-28T06:46:22.483Z</time></trkpt><trkpt lat="40.66352" lon="14.859115"><ele>93.0</ele><time>2026-03-28T06:46:23.482Z</time></trkpt><trkpt lat="40.6637733" lon="14.8590433"><ele>112.0</ele><time>2026-03-28T06:46:24.483Z</time></trkpt><trkpt lat="40.6640283" lon="14.8589717"><ele>131.0</ele><time>2026-03-28T06:46:25.482Z</time></trkpt><trkpt lat="40.6702983" lon="14.85848"><ele>135.5</ele><time>2026-03-28T06:46:46.481Z</time></trkpt><trkpt lat="40.670575" lon="14.8584383"><ele>140.0</ele><time>2026-03-28T06:46:47.481Z</time></trkpt><trkpt lat="40.67084" lon="14.858405"><ele>121.0</ele><time>2026-03-28T06:46:48.48Z</time></trkpt><trkpt lat="40.6780567" lon="14.8576317"><ele>119.0</ele><time>2026-03-28T06:47:14.48Z</time></trkpt><trkpt lat="40.67833" lon="14.8576117"><ele>117.0</ele><time>2026-03-28T06:47:15.48Z</time></trkpt><trkpt lat="40.6785967" lon="14.85757"><ele>115.5</ele><time>2026-03-28T06:47:16.48Z</time></trkpt><trkpt lat="40.6788683" lon="14.85753"><ele>114.0</ele><time>2026-03-28T06:47:17.481Z</time></trkpt><trkpt lat="40.6791317" lon="14.8574783"><ele>114.0</ele><time>2026-03-28T06:47:18.481Z</time></trkpt><trkpt lat="40.6793917" lon="14.8574267"><ele>114.0</ele><time>2026-03-28T06:47:19.481Z</time></trkpt><trkpt lat="40.6796533" lon="14.8573667"><ele>114.0</ele><time>2026-03-28T06:47:20.48Z</time></trkpt><trkpt lat="40.6799117" lon="14.8573067"><ele>114.0</ele><time>2026-03-28T06:47:21.48Z</time></trkpt><trkpt lat="40.6801717" lon="14.8572383"><ele>114.0</ele><time>2026-03-28T06:47:22.48Z</time></trkpt><trkpt lat="40.680435" lon="14.8571567"><ele>114.0</ele><time>2026-03-28T06:47:23.481Z</time></trkpt><trkpt lat="40.6806933" lon="14.8570567"><ele>114.0</ele><time>2026-03-28T06:47:24.48Z</time></trkpt><trkpt lat="40.680955" lon="14.8569433"><ele>114.0</ele><time>2026-03-28T06:47:25.481Z</time></trkpt><trkpt lat="40.6812117" lon="14.85682"><ele>114.5</ele><time>2026-03-28T06:47:26.48Z</time></trkpt><trkpt lat="40.6814683" lon="14.8566933"><ele>115.0</ele><time>2026-03-28T06:47:27.481Z</time></trkpt><trkpt lat="40.6817183" lon="14.8565533"><ele>115.5</ele><time>2026-03-28T06:47:28.481Z</time></trkpt><trkpt lat="40.6819667" lon="14.8564017"><ele>116.0</ele><time>2026-03-28T06:47:29.48Z</time></trkpt><trkpt lat="40.682215" lon="14.8562417"><ele>116.0</ele><time>2026-03-28T06:47:30.481Z</time></trkpt><trkpt lat="40.6824583" lon="14.8560683"><ele>116.0</ele><time>2026-03-28T06:47:31.481Z</time></trkpt><trkpt lat="40.6826967" lon="14.8558883"><ele>114.5</ele><time>2026-03-28T06:47:32.481Z</time></trkpt><trkpt lat="40.6829233" lon="14.8557"><ele>113.0</ele><time>2026-03-28T06:47:33.48Z</time></trkpt><trkpt lat="40.6831383" lon="14.8555083"><ele>113.0</ele><time>2026-03-28T06:47:34.481Z</time></trkpt><trkpt lat="40.6833483" lon="14.85531"><ele>113.0</ele><time>2026-03-28T06:47:35.481Z</time></trkpt><trkpt lat="40.6835517" lon="14.8550967"><ele>113.0</ele><time>2026-03-28T06:47:36.481Z</time></trkpt><trkpt lat="40.6837567" lon="14.8548733"><ele>113.0</ele><time>2026-03-28T06:47:37.481Z</time></trkpt><trkpt lat="40.68395" lon="14.85464"><ele>113.0</ele><time>2026-03-28T06:47:38.48Z</time></trkpt><trkpt lat="40.6841417" lon="14.854395"><ele>113.0</ele><time>2026-03-28T06:47:39.481Z</time></trkpt><trkpt lat="40.6843283" lon="14.8541417"><ele>114.5</ele><time>2026-03-28T06:47:40.48Z</time></trkpt><trkpt lat="40.684505" lon="14.853875"><ele>116.0</ele><time>2026-03-28T06:47:41.481Z</time></trkpt><trkpt lat="40.6846767" lon="14.8535983"><ele>115.5</ele><time>2026-03-28T06:47:42.481Z</time></trkpt><trkpt lat="40.6848417" lon="14.8533217"><ele>115.0</ele><time>2026-03-28T06:47:43.481Z</time></trkpt><trkpt lat="40.6850017" lon="14.8530333"><ele>115.0</ele><time>2026-03-28T06:47:44.48Z</time></trkpt><trkpt lat="40.6851517" lon="14.852745"><ele>115.0</ele><time>2026-03-28T06:47:45.48Z</time></trkpt><trkpt lat="40.6852867" lon="14.8524583"><ele>115.5</ele><time>2026-03-28T06:47:46.481Z</time></trkpt><trkpt lat="40.685415" lon="14.8521633"><ele>116.0</ele><time>2026-03-28T06:47:47.48Z</time></trkpt><trkpt lat="40.68553" lon="14.85186"><ele>114.0</ele><time>2026-03-28T06:47:48.481Z</time></trkpt><trkpt lat="40.6856433" lon="14.851545"><ele>112.0</ele><time>2026-03-28T06:47:49.48Z</time></trkpt><trkpt lat="40.68575" lon="14.85123"><ele>110.5</ele><time>2026-03-28T06:47:50.481Z</time></trkpt><trkpt lat="40.68586" lon="14.8509083"><ele>109.0</ele><time>2026-03-28T06:47:51.48Z</time></trkpt><trkpt lat="40.6859683" lon="14.8505717"><ele>109.0</ele><time>2026-03-28T06:47:52.481Z</time></trkpt><trkpt lat="40.6860683" lon="14.8502317"><ele>109.0</ele><time>2026-03-28T06:47:53.48Z</time></trkpt><trkpt lat="40.6861633" lon="14.8498867"><ele>110.0</ele><time>2026-03-28T06:47:54.48Z</time></trkpt><trkpt lat="40.68625" lon="14.8495467"><ele>111.0</ele><time>2026-03-28T06:47:55.48Z</time></trkpt><trkpt lat="40.6863417" lon="14.8492017"><ele>111.0</ele><time>2026-03-28T06:47:56.48Z</time></trkpt><trkpt lat="40.68643" lon="14.8488517"><ele>111.0</ele><time>2026-03-28T06:47:57.481Z</time></trkpt><trkpt lat="40.68652" lon="14.8485117"><ele>111.5</ele><time>2026-03-28T06:47:58.48Z</time></trkpt><trkpt lat="40.6866017" lon="14.84817"><ele>112.0</ele><time>2026-03-28T06:47:59.48Z</time></trkpt><trkpt lat="40.6866917" lon="14.847835"><ele>115.5</ele><time>2026-03-28T06:48:00.48Z</time></trkpt><trkpt lat="40.686775" lon="14.847505"><ele>119.0</ele><time>2026-03-28T06:48:01.481Z</time></trkpt><trkpt lat="40.6868567" lon="14.8471833"><ele>120.5</ele><time>2026-03-28T06:48:02.481Z</time></trkpt><trkpt lat="40.686945" lon="14.8468567"><ele>122.0</ele><time>2026-03-28T06:48:03.481Z</time></trkpt><trkpt lat="40.6870283" lon="14.8465317"><ele>122.0</ele><time>2026-03-28T06:48:04.481Z</time></trkpt><trkpt lat="40.6871117" lon="14.8462033"><ele>122.0</ele><time>2026-03-28T06:48:05.481Z</time></trkpt><trkpt lat="40.6872017" lon="14.8458867"><ele>123.0</ele><time>2026-03-28T06:48:06.481Z</time></trkpt><trkpt lat="40.68729" lon="14.8455683"><ele>124.0</ele><time>2026-03-28T06:48:07.48Z</time></trkpt><trkpt lat="40.6873783" lon="14.84525"><ele>125.0</ele><time>2026-03-28T06:48:08.48Z</time></trkpt><trkpt lat="40.6874667" lon="14.8449333"><ele>126.0</ele><time>2026-03-28T06:48:09.481Z</time></trkpt><trkpt lat="40.687555" lon="14.844615"><ele>126.0</ele><time>2026-03-28T06:48:10.481Z</time></trkpt><trkpt lat="40.6876467" lon="14.8442983"><ele>126.0</ele><time>2026-03-28T06:48:11.481Z</time></trkpt><trkpt lat="40.6877333" lon="14.8439817"><ele>127.0</ele><time>2026-03-28T06:48:12.481Z</time></trkpt><trkpt lat="40.68783" lon="14.8436683"><ele>128.0</ele><time>2026-03-28T06:48:13.481Z</time></trkpt><trkpt lat="40.6879233" lon="14.8433567"><ele>128.5</ele><time>2026-03-28T06:48:14.481Z</time></trkpt><trkpt lat="40.68802" lon="14.8430467"><ele>129.0</ele><time>2026-03-28T06:48:15.481Z</time></trkpt><trkpt lat="40.688125" lon="14.8427417"><ele>129.5</ele><time>2026-03-28T06:48:16.481Z</time></trkpt><trkpt lat="40.6882283" lon="14.8424383"><ele>130.0</ele><time>2026-03-28T06:48:17.481Z</time></trkpt><trkpt lat="40.68834" lon="14.8421333"><ele>130.0</ele><time>2026-03-28T06:48:18.481Z</time></trkpt><trkpt lat="40.6884633" lon="14.8418267"><ele>130.0</ele><time>2026-03-28T06:48:19.481Z</time></trkpt><trkpt lat="40.6885767" lon="14.841525"><ele>133.0</ele><time>2026-03-28T06:48:20.481Z</time></trkpt><trkpt lat="40.6886917" lon="14.8412217"><ele>136.0</ele><time>2026-03-28T06:48:21.481Z</time></trkpt><trkpt lat="40.688815" lon="14.8409217"><ele>136.5</ele><time>2026-03-28T06:48:22.48Z</time></trkpt><trkpt lat="40.6889433" lon="14.84063"><ele>137.0</ele><time>2026-03-28T06:48:23.48Z</time></trkpt><trkpt lat="40.689075" lon="14.8403417"><ele>137.5</ele><time>2026-03-28T06:48:24.481Z</time></trkpt><trkpt lat="40.689215" lon="14.840055"><ele>138.0</ele><time>2026-03-28T06:48:25.48Z</time></trkpt><trkpt lat="40.68935" lon="14.8397683"><ele>139.5</ele><time>2026-03-28T06:48:26.481Z</time></trkpt><trkpt lat="40.6894917" lon="14.8394933"><ele>141.0</ele><time>2026-03-28T06:48:27.481Z</time></trkpt><trkpt lat="40.6896333" lon="14.8392217"><ele>141.5</ele><time>2026-03-28T06:48:28.48Z</time></trkpt><trkpt lat="40.689785" lon="14.838955"><ele>142.0</ele><time>2026-03-28T06:48:29.481Z</time></trkpt><trkpt lat="40.6899383" lon="14.8386917"><ele>142.5</ele><time>2026-03-28T06:48:30.48Z</time></trkpt><trkpt lat="40.69009" lon="14.8384283"><ele>143.0</ele><time>2026-03-28T06:48:31.48Z</time></trkpt><trkpt lat="40.69025" lon="14.8381667"><ele>145.0</ele><time>2026-03-28T06:48:32.481Z</time></trkpt><trkpt lat="40.6904083" lon="14.83791"><ele>147.0</ele><time>2026-03-28T06:48:33.48Z</time></trkpt><trkpt lat="40.69057" lon="14.83766"><ele>148.5</ele><time>2026-03-28T06:48:34.481Z</time></trkpt><trkpt lat="40.6907383" lon="14.83741"><ele>150.0</ele><time>2026-03-28T06:48:35.481Z</time></trkpt><trkpt lat="40.6909083" lon="14.8371617"><ele>150.0</ele><time>2026-03-28T06:48:36.48Z</time></trkpt><trkpt lat="40.6910767" lon="14.8369133"><ele>150.0</ele><time>2026-03-28T06:48:37.481Z</time></trkpt><trkpt lat="40.69125" lon="14.8366617"><ele>150.5</ele><time>2026-03-28T06:48:38.48Z</time></trkpt><trkpt lat="40.691425" lon="14.83641"><ele>151.0</ele><time>2026-03-28T06:48:39.48Z</time></trkpt><trkpt lat="40.6916033" lon="14.83616"><ele>151.5</ele><time>2026-03-28T06:48:40.481Z</time></trkpt><trkpt lat="40.6917767" lon="14.835905"><ele>152.0</ele><time>2026-03-28T06:48:41.48Z</time></trkpt><trkpt lat="40.6919533" lon="14.8356533"><ele>153.5</ele><time>2026-03-28T06:48:42.481Z</time></trkpt><trkpt lat="40.6921333" lon="14.8354067"><ele>155.0</ele><time>2026-03-28T06:48:43.481Z</time></trkpt><trkpt lat="40.6923217" lon="14.8351567"><ele>155.5</ele><time>2026-03-28T06:48:44.48Z</time></trkpt><trkpt lat="40.6925117" lon="14.8349083"><ele>156.0</ele><time>2026-03-28T06:48:45.48Z</time></trkpt><trkpt lat="40.6926983" lon="14.8346667"><ele>157.0</ele><time>2026-03-28T06:48:46.48Z</time></trkpt><trkpt lat="40.6928817" lon="14.8344167"><ele>158.0</ele><time>2026-03-28T06:48:47.481Z</time></trkpt><trkpt lat="40.6930633" lon="14.8341767"><ele>158.0</ele><time>2026-03-28T06:48:48.48Z</time></trkpt><trkpt lat="40.6932517" lon="14.8339333"><ele>158.0</ele><time>2026-03-28T06:48:49.481Z</time></trkpt><trkpt lat="40.69344" lon="14.83369"><ele>161.0</ele><time>2026-03-28T06:48:50.48Z</time></trkpt><trkpt lat="40.6936333" lon="14.8334433"><ele>164.0</ele><time>2026-03-28T06:48:51.481Z</time></trkpt><trkpt lat="40.6938283" lon="14.8331933"><ele>164.0</ele><time>2026-03-28T06:48:52.481Z</time></trkpt><trkpt lat="40.6940167" lon="14.8329433"><ele>164.0</ele><time>2026-03-28T06:48:53.48Z</time></trkpt><trkpt lat="40.6942017" lon="14.832695"><ele>165.0</ele><time>2026-03-28T06:48:54.481Z</time></trkpt><trkpt lat="40.694385" lon="14.83244"><ele>166.0</ele><time>2026-03-28T06:48:55.48Z</time></trkpt><trkpt lat="40.6945717" lon="14.8321883"><ele>166.0</ele><time>2026-03-28T06:48:56.48Z</time></trkpt><trkpt lat="40.6947533" lon="14.831925"><ele>166.0</ele><time>2026-03-28T06:48:57.481Z</time></trkpt><trkpt lat="40.6949333" lon="14.8316633"><ele>166.0</ele><time>2026-03-28T06:48:58.481Z</time></trkpt><trkpt lat="40.69511" lon="14.831395"><ele>166.0</ele><time>2026-03-28T06:48:59.48Z</time></trkpt><trkpt lat="40.6952883" lon="14.8311267"><ele>170.0</ele><time>2026-03-28T06:49:00.481Z</time></trkpt><trkpt lat="40.6954617" lon="14.8308583"><ele>174.0</ele><time>2026-03-28T06:49:01.481Z</time></trkpt><trkpt lat="40.6956283" lon="14.830585"><ele>174.0</ele><time>2026-03-28T06:49:02.481Z</time></trkpt><trkpt lat="40.6957917" lon="14.8303117"><ele>174.0</ele><time>2026-03-28T06:49:03.481Z</time></trkpt><trkpt lat="40.6959483" lon="14.830035"><ele>175.5</ele><time>2026-03-28T06:49:04.48Z</time></trkpt><trkpt lat="40.6961067" lon="14.8297533"><ele>177.0</ele><time>2026-03-28T06:49:05.48Z</time></trkpt><trkpt lat="40.6962583" lon="14.82947"><ele>178.0</ele><time>2026-03-28T06:49:06.48Z</time></trkpt><trkpt lat="40.6964083" lon="14.829185"><ele>179.0</ele><time>2026-03-28T06:49:07.48Z</time></trkpt><trkpt lat="40.69655" lon="14.8288967"><ele>179.0</ele><time>2026-03-28T06:49:08.481Z</time></trkpt><trkpt lat="40.6966833" lon="14.8285983"><ele>179.0</ele><time>2026-03-28T06:49:09.481Z</time></trkpt><trkpt lat="40.6968167" lon="14.8283"><ele>180.0</ele><time>2026-03-28T06:49:10.48Z</time></trkpt><trkpt lat="40.696945" lon="14.827995"><ele>181.0</ele><time>2026-03-28T06:49:11.481Z</time></trkpt><trkpt lat="40.6970717" lon="14.8276883"><ele>180.0</ele><time>2026-03-28T06:49:12.481Z</time></trkpt><trkpt lat="40.6971933" lon="14.8273817"><ele>179.0</ele><time>2026-03-28T06:49:13.481Z</time></trkpt><trkpt lat="40.6973117" lon="14.82706"><ele>177.5</ele><time>2026-03-28T06:49:14.48Z</time></trkpt><trkpt lat="40.6974267" lon="14.8267333"><ele>176.0</ele><time>2026-03-28T06:49:15.48Z</time></trkpt><trkpt lat="40.6975367" lon="14.8264083"><ele>176.0</ele><time>2026-03-28T06:49:16.481Z</time></trkpt><trkpt lat="40.6976417" lon="14.8260817"><ele>176.0</ele><time>2026-03-28T06:49:17.48Z</time></trkpt><trkpt lat="40.6977467" lon="14.8257483"><ele>175.5</ele><time>2026-03-28T06:49:18.48Z</time></trkpt><trkpt lat="40.6978483" lon="14.8254167"><ele>175.0</ele><time>2026-03-28T06:49:19.481Z</time></trkpt><trkpt lat="40.6979417" lon="14.8250867"><ele>175.0</ele><time>2026-03-28T06:49:20.481Z</time></trkpt><trkpt lat="40.6980283" lon="14.824745"><ele>175.0</ele><time>2026-03-28T06:49:21.481Z</time></trkpt><trkpt lat="40.6981083" lon="14.8244033"><ele>175.0</ele><time>2026-03-28T06:49:22.481Z</time></trkpt><trkpt lat="40.6981817" lon="14.8240667"><ele>175.0</ele><time>2026-03-28T06:49:23.48Z</time></trkpt><trkpt lat="40.6982517" lon="14.82372"><ele>175.5</ele><time>2026-03-28T06:49:24.481Z</time></trkpt><trkpt lat="40.69832" lon="14.8233767"><ele>176.0</ele><time>2026-03-28T06:49:25.48Z</time></trkpt><trkpt lat="40.6983817" lon="14.8230283"><ele>176.0</ele><time>2026-03-28T06:49:26.48Z</time></trkpt><trkpt lat="40.698445" lon="14.8226867"><ele>176.0</ele><time>2026-03-28T06:49:27.481Z</time></trkpt><trkpt lat="40.6985017" lon="14.82234"><ele>176.5</ele><time>2026-03-28T06:49:28.481Z</time></trkpt><trkpt lat="40.6985583" lon="14.822"><ele>177.0</ele><time>2026-03-28T06:49:29.481Z</time></trkpt><trkpt lat="40.6986083" lon="14.8216467"><ele>177.5</ele><time>2026-03-28T06:49:30.48Z</time></trkpt><trkpt lat="40.6986583" lon="14.8212967"><ele>178.0</ele><time>2026-03-28T06:49:31.48Z</time></trkpt><trkpt lat="40.6987017" lon="14.8209417"><ele>179.0</ele><time>2026-03-28T06:49:32.481Z</time></trkpt><trkpt lat="40.6987417" lon="14.8205867"><ele>180.0</ele><time>2026-03-28T06:49:33.481Z</time></trkpt><trkpt lat="40.69878" lon="14.820225"><ele>180.5</ele><time>2026-03-28T06:49:34.481Z</time></trkpt><trkpt lat="40.6988167" lon="14.819855"><ele>181.0</ele><time>2026-03-28T06:49:35.481Z</time></trkpt><trkpt lat="40.6988467" lon="14.8194933"><ele>182.0</ele><time>2026-03-28T06:49:36.481Z</time></trkpt><trkpt lat="40.6988767" lon="14.8191367"><ele>183.0</ele><time>2026-03-28T06:49:37.48Z</time></trkpt><trkpt lat="40.6989033" lon="14.8187883"><ele>184.5</ele><time>2026-03-28T06:49:38.481Z</time></trkpt><trkpt lat="40.698945" lon="14.8184267"><ele>186.0</ele><time>2026-03-28T06:49:39.48Z</time></trkpt><trkpt lat="40.6989917" lon="14.8180533"><ele>186.0</ele><time>2026-03-28T06:49:40.48Z</time></trkpt><trkpt lat="40.6990317" lon="14.8176917"><ele>186.0</ele><time>2026-03-28T06:49:41.481Z</time></trkpt><trkpt lat="40.6990717" lon="14.81733"><ele>187.0</ele><time>2026-03-28T06:49:42.48Z</time></trkpt><trkpt lat="40.6991133" lon="14.8169683"><ele>188.0</ele><time>2026-03-28T06:49:43.48Z</time></trkpt><trkpt lat="40.699155" lon="14.8166033"><ele>173.0</ele><time>2026-03-28T06:49:44.481Z</time></trkpt><trkpt lat="40.6994333" lon="14.811635"><ele>173.0</ele><time>2026-03-28T06:49:57.481Z</time></trkpt><trkpt lat="40.6995067" lon="14.81137"><ele>173.0</ele><time>2026-03-28T06:49:58.481Z</time></trkpt><trkpt lat="40.6995183" lon="14.8109967"><ele>174.5</ele><time>2026-03-28T06:49:59.481Z</time></trkpt><trkpt lat="40.699515" lon="14.81062"><ele>176.0</ele><time>2026-03-28T06:50:00.48Z</time></trkpt><trkpt lat="40.699505" lon="14.81025"><ele>177.0</ele><time>2026-03-28T06:50:01.481Z</time></trkpt><trkpt lat="40.6995" lon="14.8098817"><ele>178.0</ele><time>2026-03-28T06:50:02.481Z</time></trkpt><trkpt lat="40.69948" lon="14.8095067"><ele>177.0</ele><time>2026-03-28T06:50:03.481Z</time></trkpt><trkpt lat="40.6994517" lon="14.809135"><ele>176.0</ele><time>2026-03-28T06:50:04.481Z</time></trkpt><trkpt lat="40.69941" lon="14.8087717"><ele>168.0</ele><time>2026-03-28T06:50:05.48Z</time></trkpt><trkpt lat="40.6993583" lon="14.8084167"><ele>160.0</ele><time>2026-03-28T06:50:06.481Z</time></trkpt><trkpt lat="40.6993117" lon="14.808065"><ele>160.0</ele><time>2026-03-28T06:50:07.481Z</time></trkpt><trkpt lat="40.6992617" lon="14.8077117"><ele>160.0</ele><time>2026-03-28T06:50:08.481Z</time></trkpt><trkpt lat="40.6992033" lon="14.80736"><ele>157.5</ele><time>2026-03-28T06:50:09.481Z</time></trkpt><trkpt lat="40.69914" lon="14.8070183"><ele>155.0</ele><time>2026-03-28T06:50:10.481Z</time></trkpt><trkpt lat="40.6990717" lon="14.806675"><ele>155.0</ele><time>2026-03-28T06:50:11.48Z</time></trkpt><trkpt lat="40.6989983" lon="14.8063383"><ele>155.0</ele><time>2026-03-28T06:50:12.481Z</time></trkpt><trkpt lat="40.6989183" lon="14.8059967"><ele>156.0</ele><time>2026-03-28T06:50:13.481Z</time></trkpt><trkpt lat="40.6988367" lon="14.8056583"><ele>157.0</ele><time>2026-03-28T06:50:14.481Z</time></trkpt><trkpt lat="40.698755" lon="14.805315"><ele>153.5</ele><time>2026-03-28T06:50:15.48Z</time></trkpt><trkpt lat="40.698675" lon="14.804975"><ele>150.0</ele><time>2026-03-28T06:50:16.481Z</time></trkpt><trkpt lat="40.698595" lon="14.8046333"><ele>144.0</ele><time>2026-03-28T06:50:17.481Z</time></trkpt><trkpt lat="40.6985167" lon="14.8042917"><ele>138.0</ele><time>2026-03-28T06:50:18.48Z</time></trkpt><trkpt lat="40.6984317" lon="14.8039517"><ele>138.0</ele><time>2026-03-28T06:50:19.48Z</time></trkpt><trkpt lat="40.6983483" lon="14.8036033"><ele>138.0</ele><time>2026-03-28T06:50:20.48Z</time></trkpt><trkpt lat="40.6982717" lon="14.8032517"><ele>139.5</ele><time>2026-03-28T06:50:21.481Z</time></trkpt><trkpt lat="40.6981933" lon="14.8029017"><ele>141.0</ele><time>2026-03-28T06:50:22.48Z</time></trkpt><trkpt lat="40.698115" lon="14.80255"><ele>142.5</ele><time>2026-03-28T06:50:23.48Z</time></trkpt><trkpt lat="40.6980383" lon="14.8022033"><ele>144.0</ele><time>2026-03-28T06:50:24.481Z</time></trkpt><trkpt lat="40.6979667" lon="14.80186"><ele>143.5</ele><time>2026-03-28T06:50:25.481Z</time></trkpt><trkpt lat="40.6978883" lon="14.8015133"><ele>143.0</ele><time>2026-03-28T06:50:26.481Z</time></trkpt><trkpt lat="40.69781" lon="14.8011667"><ele>134.0</ele><time>2026-03-28T06:50:27.481Z</time></trkpt><trkpt lat="40.6977333" lon="14.8008133"><ele>125.0</ele><time>2026-03-28T06:50:28.48Z</time></trkpt><trkpt lat="40.6976617" lon="14.800455"><ele>125.0</ele><time>2026-03-28T06:50:29.481Z</time></trkpt><trkpt lat="40.6975917" lon="14.8000983"><ele>125.0</ele><time>2026-03-28T06:50:30.481Z</time></trkpt><trkpt lat="40.6975217" lon="14.799745"><ele>125.0</ele><time>2026-03-28T06:50:31.48Z</time></trkpt><trkpt lat="40.6974633" lon="14.79939"><ele>125.0</ele><time>2026-03-28T06:50:32.48Z</time></trkpt><trkpt lat="40.697415" lon="14.7990267"><ele>125.0</ele><time>2026-03-28T06:50:33.481Z</time></trkpt><trkpt lat="40.6973667" lon="14.7986667"><ele>125.0</ele><time>2026-03-28T06:50:34.481Z</time></trkpt><trkpt lat="40.697325" lon="14.7983"><ele>122.5</ele><time>2026-03-28T06:50:35.48Z</time></trkpt><trkpt lat="40.6972833" lon="14.79793"><ele>120.0</ele><time>2026-03-28T06:50:36.48Z</time></trkpt><trkpt lat="40.6972517" lon="14.7975617"><ele>118.0</ele><time>2026-03-28T06:50:37.48Z</time></trkpt><trkpt lat="40.6972167" lon="14.797195"><ele>116.0</ele><time>2026-03-28T06:50:38.48Z</time></trkpt><trkpt lat="40.6971867" lon="14.7968317"><ele>114.0</ele><time>2026-03-28T06:50:39.48Z</time></trkpt><trkpt lat="40.6971733" lon="14.7964683"><ele>112.0</ele><time>2026-03-28T06:50:40.48Z</time></trkpt><trkpt lat="40.69716" lon="14.796105"><ele>111.0</ele><time>2026-03-28T06:50:41.481Z</time></trkpt><trkpt lat="40.6971533" lon="14.79574"><ele>110.0</ele><time>2026-03-28T06:50:42.48Z</time></trkpt><trkpt lat="40.6971533" lon="14.795375"><ele>111.5</ele><time>2026-03-28T06:50:43.481Z</time></trkpt><trkpt lat="40.6971633" lon="14.7950133"><ele>113.0</ele><time>2026-03-28T06:50:44.481Z</time></trkpt><trkpt lat="40.69717" lon="14.79465"><ele>114.0</ele><time>2026-03-28T06:50:45.48Z</time></trkpt><trkpt lat="40.6971883" lon="14.7942817"><ele>115.0</ele><time>2026-03-28T06:50:46.481Z</time></trkpt><trkpt lat="40.697205" lon="14.793915"><ele>115.0</ele><time>2026-03-28T06:50:47.481Z</time></trkpt><trkpt lat="40.6972317" lon="14.7935533"><ele>115.0</ele><time>2026-03-28T06:50:48.48Z</time></trkpt><trkpt lat="40.6972633" lon="14.79319"><ele>115.0</ele><time>2026-03-28T06:50:49.481Z</time></trkpt><trkpt lat="40.697295" lon="14.7928383"><ele>115.0</ele><time>2026-03-28T06:50:50.48Z</time></trkpt><trkpt lat="40.6973267" lon="14.7924883"><ele>112.5</ele><time>2026-03-28T06:50:51.48Z</time></trkpt><trkpt lat="40.6973467" lon="14.7921467"><ele>110.0</ele><time>2026-03-28T06:50:52.481Z</time></trkpt><trkpt lat="40.697375" lon="14.7917967"><ele>107.5</ele><time>2026-03-28T06:50:53.481Z</time></trkpt><trkpt lat="40.6974033" lon="14.7914467"><ele>105.0</ele><time>2026-03-28T06:50:54.481Z</time></trkpt><trkpt lat="40.6974317" lon="14.7910933"><ele>103.0</ele><time>2026-03-28T06:50:55.48Z</time></trkpt><trkpt lat="40.6974533" lon="14.790735"><ele>101.0</ele><time>2026-03-28T06:50:56.481Z</time></trkpt><trkpt lat="40.6974667" lon="14.790375"><ele>99.0</ele><time>2026-03-28T06:50:57.481Z</time></trkpt><trkpt lat="40.697475" lon="14.7900217"><ele>97.0</ele><time>2026-03-28T06:50:58.481Z</time></trkpt><trkpt lat="40.6974667" lon="14.7896717"><ele>96.5</ele><time>2026-03-28T06:50:59.48Z</time></trkpt><trkpt lat="40.6974567" lon="14.7893167"><ele>96.0</ele><time>2026-03-28T06:51:00.48Z</time></trkpt><trkpt lat="40.6974417" lon="14.7889633"><ele>96.0</ele><time>2026-03-28T06:51:01.48Z</time></trkpt><trkpt lat="40.6974183" lon="14.78863"><ele>96.0</ele><time>2026-03-28T06:51:02.481Z</time></trkpt><trkpt lat="40.69738" lon="14.788305"><ele>93.0</ele><time>2026-03-28T06:51:03.481Z</time></trkpt><trkpt lat="40.6973367" lon="14.7879883"><ele>90.0</ele><time>2026-03-28T06:51:04.48Z</time></trkpt><trkpt lat="40.69729" lon="14.7876817"><ele>87.5</ele><time>2026-03-28T06:51:05.481Z</time></trkpt><trkpt lat="40.697235" lon="14.7873767"><ele>85.0</ele><time>2026-03-28T06:51:06.481Z</time></trkpt><trkpt lat="40.6971783" lon="14.787075"><ele>85.0</ele><time>2026-03-28T06:51:07.48Z</time></trkpt><trkpt lat="40.6971267" lon="14.7867717"><ele>85.0</ele><time>2026-03-28T06:51:08.481Z</time></trkpt><trkpt lat="40.69707" lon="14.7864717"><ele>85.0</ele><time>2026-03-28T06:51:09.481Z</time></trkpt><trkpt lat="40.69702" lon="14.78617"><ele>85.0</ele><time>2026-03-28T06:51:10.481Z</time></trkpt><trkpt lat="40.6969633" lon="14.7858733"><ele>79.0</ele><time>2026-03-28T06:51:11.48Z</time></trkpt><trkpt lat="40.6969083" lon="14.785575"><ele>73.0</ele><time>2026-03-28T06:51:12.48Z</time></trkpt><trkpt lat="40.6968483" lon="14.7852783"><ele>72.0</ele><time>2026-03-28T06:51:13.48Z</time></trkpt><trkpt lat="40.6967883" lon="14.7849833"><ele>71.0</ele><time>2026-03-28T06:51:14.481Z</time></trkpt><trkpt lat="40.6967383" lon="14.7846967"><ele>71.0</ele><time>2026-03-28T06:51:15.48Z</time></trkpt><trkpt lat="40.6966883" lon="14.7844233"><ele>71.0</ele><time>2026-03-28T06:51:16.48Z</time></trkpt><trkpt lat="40.6966433" lon="14.7841517"><ele>71.0</ele><time>2026-03-28T06:51:17.481Z</time></trkpt><trkpt lat="40.6965983" lon="14.7838917"><ele>71.0</ele><time>2026-03-28T06:51:18.48Z</time></trkpt><trkpt lat="40.6965583" lon="14.7836417"><ele>71.0</ele><time>2026-03-28T06:51:19.48Z</time></trkpt><trkpt lat="40.6965267" lon="14.7834"><ele>71.0</ele><time>2026-03-28T06:51:20.48Z</time></trkpt><trkpt lat="40.696495" lon="14.7831617"><ele>71.0</ele><time>2026-03-28T06:51:21.481Z</time></trkpt><trkpt lat="40.696475" lon="14.7829267"><ele>71.0</ele><time>2026-03-28T06:51:22.481Z</time></trkpt><trkpt lat="40.696465" lon="14.7826967"><ele>71.0</ele><time>2026-03-28T06:51:23.481Z</time></trkpt><trkpt lat="40.6964683" lon="14.7824667"><ele>71.0</ele><time>2026-03-28T06:51:24.481Z</time></trkpt><trkpt lat="40.69648" lon="14.782235"><ele>71.0</ele><time>2026-03-28T06:51:25.481Z</time></trkpt><trkpt lat="40.69652" lon="14.7820033"><ele>71.0</ele><time>2026-03-28T06:51:26.481Z</time></trkpt><trkpt lat="40.696575" lon="14.78177"><ele>70.33333333333334</ele><time>2026-03-28T06:51:27.48Z</time></trkpt><trkpt lat="40.6966417" lon="14.7815417"><ele>69.66666666666667</ele><time>2026-03-28T06:51:28.481Z</time></trkpt><trkpt lat="40.6967217" lon="14.7813267"><ele>69.0</ele><time>2026-03-28T06:51:29.481Z</time></trkpt><trkpt lat="40.696815" lon="14.7811217"><ele>69.33333333333333</ele><time>2026-03-28T06:51:30.481Z</time></trkpt><trkpt lat="40.696915" lon="14.780925"><ele>69.66666666666666</ele><time>2026-03-28T06:51:31.48Z</time></trkpt><trkpt lat="40.6970383" lon="14.7807433"><ele>70.0</ele><time>2026-03-28T06:51:32.481Z</time></trkpt><trkpt lat="40.6971767" lon="14.78057"><ele>72.33333333333333</ele><time>2026-03-28T06:51:33.48Z</time></trkpt><trkpt lat="40.6973217" lon="14.780405"><ele>74.66666666666667</ele><time>2026-03-28T06:51:34.48Z</time></trkpt><trkpt lat="40.69748" lon="14.7802433"><ele>77.0</ele><time>2026-03-28T06:51:35.481Z</time></trkpt><trkpt lat="40.6976483" lon="14.780085"><ele>79.0</ele><time>2026-03-28T06:51:36.481Z</time></trkpt><trkpt lat="40.6978133" lon="14.7799383"><ele>81.0</ele><time>2026-03-28T06:51:37.481Z</time></trkpt><trkpt lat="40.6979867" lon="14.779785"><ele>83.0</ele><time>2026-03-28T06:51:38.481Z</time></trkpt><trkpt lat="40.6981717" lon="14.779635"><ele>83.0</ele><time>2026-03-28T06:51:39.481Z</time></trkpt><trkpt lat="40.69836" lon="14.7795167"><ele>83.0</ele><time>2026-03-28T06:51:40.48Z</time></trkpt><trkpt lat="40.6985467" lon="14.77941"><ele>83.0</ele><time>2026-03-28T06:51:41.481Z</time></trkpt><trkpt lat="40.6987367" lon="14.7793183"><ele>78.33333333333334</ele><time>2026-03-28T06:51:42.48Z</time></trkpt><trkpt lat="40.6989317" lon="14.7792433"><ele>73.66666666666667</ele><time>2026-03-28T06:51:43.481Z</time></trkpt><trkpt lat="40.6991283" lon="14.779175"><ele>69.0</ele><time>2026-03-28T06:51:44.481Z</time></trkpt><trkpt lat="40.6993233" lon="14.7791217"><ele>68.66666666666667</ele><time>2026-03-28T06:51:45.48Z</time></trkpt><trkpt lat="40.6995283" lon="14.7790833"><ele>68.33333333333334</ele><time>2026-03-28T06:51:46.48Z</time></trkpt><trkpt lat="40.6997317" lon="14.7790483"><ele>68.0</ele><time>2026-03-28T06:51:47.48Z</time></trkpt><trkpt lat="40.6999333" lon="14.7790067"><ele>68.0</ele><time>2026-03-28T06:51:48.48Z</time></trkpt><trkpt lat="40.700135" lon="14.7789683"><ele>68.0</ele><time>2026-03-28T06:51:49.481Z</time></trkpt><trkpt lat="40.700335" lon="14.7789317"><ele>68.0</ele><time>2026-03-28T06:51:50.48Z</time></trkpt><trkpt lat="40.7005333" lon="14.7789"><ele>69.66666666666667</ele><time>2026-03-28T06:51:51.481Z</time></trkpt><trkpt lat="40.7007317" lon="14.7788733"><ele>71.33333333333333</ele><time>2026-03-28T06:51:52.481Z</time></trkpt><trkpt lat="40.70093" lon="14.7788517"><ele>73.0</ele><time>2026-03-28T06:51:53.481Z</time></trkpt><trkpt lat="40.7011283" lon="14.7788267"><ele>75.0</ele><time>2026-03-28T06:51:54.48Z</time></trkpt><trkpt lat="40.7013267" lon="14.7788033"><ele>77.0</ele><time>2026-03-28T06:51:55.481Z</time></trkpt><trkpt lat="40.701525" lon="14.7787767"><ele>79.0</ele><time>2026-03-28T06:51:56.481Z</time></trkpt><trkpt lat="40.7017183" lon="14.7787533"><ele>80.66666666666666</ele><time>2026-03-28T06:51:57.481Z</time></trkpt><trkpt lat="40.7019167" lon="14.7787283"><ele>82.33333333333333</ele><time>2026-03-28T06:51:58.48Z</time></trkpt><trkpt lat="40.7021167" lon="14.77871"><ele>84.0</ele><time>2026-03-28T06:51:59.481Z</time></trkpt><trkpt lat="40.7023167" lon="14.7786933"><ele>84.0</ele><time>2026-03-28T06:52:00.48Z</time></trkpt><trkpt lat="40.7025217" lon="14.7786717"><ele>84.0</ele><time>2026-03-28T06:52:01.48Z</time></trkpt><trkpt lat="40.70274" lon="14.7786517"><ele>84.0</ele><time>2026-03-28T06:52:02.48Z</time></trkpt><trkpt lat="40.702965" lon="14.778625"><ele>86.0</ele><time>2026-03-28T06:52:03.48Z</time></trkpt><trkpt lat="40.7031983" lon="14.7786067"><ele>88.0</ele><time>2026-03-28T06:52:04.48Z</time></trkpt><trkpt lat="40.7034367" lon="14.7785917"><ele>88.0</ele><time>2026-03-28T06:52:05.481Z</time></trkpt><trkpt lat="40.7036717" lon="14.77857"><ele>88.0</ele><time>2026-03-28T06:52:06.481Z</time></trkpt><trkpt lat="40.7039017" lon="14.7785467"><ele>88.0</ele><time>2026-03-28T06:52:07.481Z</time></trkpt><trkpt lat="40.7041383" lon="14.77852"><ele>88.0</ele><time>2026-03-28T06:52:08.48Z</time></trkpt><trkpt lat="40.704375" lon="14.7785017"><ele>86.5</ele><time>2026-03-28T06:52:09.48Z</time></trkpt><trkpt lat="40.704605" lon="14.7784967"><ele>85.0</ele><time>2026-03-28T06:52:10.48Z</time></trkpt><trkpt lat="40.7048367" lon="14.7785083"><ele>87.0</ele><time>2026-03-28T06:52:11.481Z</time></trkpt><trkpt lat="40.7050683" lon="14.7785333"><ele>89.0</ele><time>2026-03-28T06:52:12.48Z</time></trkpt><trkpt lat="40.7052983" lon="14.7785733"><ele>89.5</ele><time>2026-03-28T06:52:13.481Z</time></trkpt><trkpt lat="40.705525" lon="14.7786317"><ele>90.0</ele><time>2026-03-28T06:52:14.48Z</time></trkpt><trkpt lat="40.70575" lon="14.7787167"><ele>90.0</ele><time>2026-03-28T06:52:15.48Z</time></trkpt><trkpt lat="40.70597" lon="14.7788183"><ele>90.0</ele><time>2026-03-28T06:52:16.48Z</time></trkpt><trkpt lat="40.706195" lon="14.7789283"><ele>91.0</ele><time>2026-03-28T06:52:17.481Z</time></trkpt><trkpt lat="40.7064133" lon="14.7790483"><ele>92.0</ele><time>2026-03-28T06:52:18.48Z</time></trkpt><trkpt lat="40.706625" lon="14.7791817"><ele>92.0</ele><time>2026-03-28T06:52:19.481Z</time></trkpt><trkpt lat="40.7068433" lon="14.77931"><ele>92.0</ele><time>2026-03-28T06:52:20.481Z</time></trkpt><trkpt lat="40.7070683" lon="14.77943"><ele>98.0</ele><time>2026-03-28T06:52:21.481Z</time></trkpt><trkpt lat="40.7072933" lon="14.7795583"><ele>104.0</ele><time>2026-03-28T06:52:22.481Z</time></trkpt><trkpt lat="40.7075167" lon="14.7796933"><ele>104.0</ele><time>2026-03-28T06:52:23.481Z</time></trkpt><trkpt lat="40.7077367" lon="14.7798183"><ele>104.0</ele><time>2026-03-28T06:52:24.48Z</time></trkpt><trkpt lat="40.7079567" lon="14.7799367"><ele>104.0</ele><time>2026-03-28T06:52:25.481Z</time></trkpt><trkpt lat="40.70818" lon="14.7800483"><ele>104.0</ele><time>2026-03-28T06:52:26.48Z</time></trkpt><trkpt lat="40.7084133" lon="14.78014"><ele>112.5</ele><time>2026-03-28T06:52:27.481Z</time></trkpt><trkpt lat="40.7086533" lon="14.7802183"><ele>121.0</ele><time>2026-03-28T06:52:28.481Z</time></trkpt><trkpt lat="40.7088967" lon="14.7802767"><ele>121.0</ele><time>2026-03-28T06:52:29.48Z</time></trkpt><trkpt lat="40.7091333" lon="14.7803217"><ele>121.0</ele><time>2026-03-28T06:52:30.48Z</time></trkpt><trkpt lat="40.7093767" lon="14.7803533"><ele>122.0</ele><time>2026-03-28T06:52:31.481Z</time></trkpt><trkpt lat="40.7096167" lon="14.7803583"><ele>123.0</ele><time>2026-03-28T06:52:32.48Z</time></trkpt><trkpt lat="40.709855" lon="14.780355"><ele>123.0</ele><time>2026-03-28T06:52:33.481Z</time></trkpt><trkpt lat="40.7101" lon="14.7803333"><ele>123.0</ele><time>2026-03-28T06:52:34.48Z</time></trkpt><trkpt lat="40.71034" lon="14.7802983"><ele>126.0</ele><time>2026-03-28T06:52:35.481Z</time></trkpt><trkpt lat="40.7105783" lon="14.780245"><ele>129.0</ele><time>2026-03-28T06:52:36.481Z</time></trkpt><trkpt lat="40.710815" lon="14.7801733"><ele>121.5</ele><time>2026-03-28T06:52:37.481Z</time></trkpt><trkpt lat="40.7110533" lon="14.780075"><ele>114.0</ele><time>2026-03-28T06:52:38.481Z</time></trkpt><trkpt lat="40.7112883" lon="14.77997"><ele>114.0</ele><time>2026-03-28T06:52:39.481Z</time></trkpt><trkpt lat="40.7115183" lon="14.7798567"><ele>114.0</ele><time>2026-03-28T06:52:40.48Z</time></trkpt><trkpt lat="40.711755" lon="14.77975"><ele>118.0</ele><time>2026-03-28T06:52:41.48Z</time></trkpt><trkpt lat="40.7119867" lon="14.77964"><ele>122.0</ele><time>2026-03-28T06:52:42.481Z</time></trkpt><trkpt lat="40.7122167" lon="14.7795367"><ele>122.0</ele><time>2026-03-28T06:52:43.481Z</time></trkpt><trkpt lat="40.71245" lon="14.779445"><ele>122.0</ele><time>2026-03-28T06:52:44.481Z</time></trkpt><trkpt lat="40.7126867" lon="14.7793633"><ele>120.5</ele><time>2026-03-28T06:52:45.481Z</time></trkpt><trkpt lat="40.71293" lon="14.7792967"><ele>119.0</ele><time>2026-03-28T06:52:46.481Z</time></trkpt><trkpt lat="40.713175" lon="14.7792417"><ele>119.0</ele><time>2026-03-28T06:52:47.481Z</time></trkpt><trkpt lat="40.7134183" lon="14.7791933"><ele>119.0</ele><time>2026-03-28T06:52:48.48Z</time></trkpt><trkpt lat="40.713665" lon="14.7791517"><ele>118.0</ele><time>2026-03-28T06:52:49.481Z</time></trkpt><trkpt lat="40.7139067" lon="14.77911"><ele>117.0</ele><time>2026-03-28T06:52:50.481Z</time></trkpt><trkpt lat="40.7141433" lon="14.7790683"><ele>117.0</ele><time>2026-03-28T06:52:51.481Z</time></trkpt><trkpt lat="40.714385" lon="14.7790233"><ele>117.0</ele><time>2026-03-28T06:52:52.48Z</time></trkpt><trkpt lat="40.7146317" lon="14.7789833"><ele>123.0</ele><time>2026-03-28T06:52:53.481Z</time></trkpt><trkpt lat="40.7148783" lon="14.7789417"><ele>129.0</ele><time>2026-03-28T06:52:54.481Z</time></trkpt><trkpt lat="40.7151267" lon="14.7788967"><ele>134.5</ele><time>2026-03-28T06:52:55.48Z</time></trkpt><trkpt lat="40.7153717" lon="14.7788533"><ele>140.0</ele><time>2026-03-28T06:52:56.481Z</time></trkpt><trkpt lat="40.7156167" lon="14.7788067"><ele>140.0</ele><time>2026-03-28T06:52:57.48Z</time></trkpt><trkpt lat="40.7158533" lon="14.77876"><ele>140.0</ele><time>2026-03-28T06:52:58.481Z</time></trkpt><trkpt lat="40.7160867" lon="14.778715"><ele>148.5</ele><time>2026-03-28T06:52:59.48Z</time></trkpt><trkpt lat="40.7163183" lon="14.7786733"><ele>157.0</ele><time>2026-03-28T06:53:00.481Z</time></trkpt><trkpt lat="40.71655" lon="14.778635"><ele>157.0</ele><time>2026-03-28T06:53:01.48Z</time></trkpt><trkpt lat="40.7167783" lon="14.7786017"><ele>157.0</ele><time>2026-03-28T06:53:02.481Z</time></trkpt><trkpt lat="40.7169933" lon="14.77857"><ele>157.0</ele><time>2026-03-28T06:53:03.481Z</time></trkpt><trkpt lat="40.7172067" lon="14.778545"><ele>160.66666666666669</ele><time>2026-03-28T06:53:04.481Z</time></trkpt><trkpt lat="40.717415" lon="14.7785183"><ele>164.33333333333334</ele><time>2026-03-28T06:53:05.481Z</time></trkpt><trkpt lat="40.717615" lon="14.77849"><ele>168.0</ele><time>2026-03-28T06:53:06.48Z</time></trkpt><trkpt lat="40.717805" lon="14.7784567"><ele>158.33333333333334</ele><time>2026-03-28T06:53:07.481Z</time></trkpt><trkpt lat="40.7179967" lon="14.7784167"><ele>148.66666666666669</ele><time>2026-03-28T06:53:08.481Z</time></trkpt><trkpt lat="40.7182017" lon="14.77837"><ele>139.0</ele><time>2026-03-28T06:53:09.48Z</time></trkpt><trkpt lat="40.7184233" lon="14.778325"><ele>138.0</ele><time>2026-03-28T06:53:10.481Z</time></trkpt><trkpt lat="40.7186567" lon="14.778275"><ele>137.0</ele><time>2026-03-28T06:53:11.481Z</time></trkpt><trkpt lat="40.7189" lon="14.7782267"><ele>137.0</ele><time>2026-03-28T06:53:12.481Z</time></trkpt><trkpt lat="40.71915" lon="14.7781767"><ele>137.0</ele><time>2026-03-28T06:53:13.481Z</time></trkpt><trkpt lat="40.7194083" lon="14.7781283"><ele>139.0</ele><time>2026-03-28T06:53:14.481Z</time></trkpt><trkpt lat="40.719665" lon="14.77808"><ele>141.0</ele><time>2026-03-28T06:53:15.48Z</time></trkpt><trkpt lat="40.7199183" lon="14.7780333"><ele>141.0</ele><time>2026-03-28T06:53:16.481Z</time></trkpt><trkpt lat="40.7201633" lon="14.77798"><ele>141.0</ele><time>2026-03-28T06:53:17.48Z</time></trkpt><trkpt lat="40.7204" lon="14.7779183"><ele>142.0</ele><time>2026-03-28T06:53:18.48Z</time></trkpt><trkpt lat="40.72064" lon="14.7778517"><ele>143.0</ele><time>2026-03-28T06:53:19.481Z</time></trkpt><trkpt lat="40.7208683" lon="14.7777633"><ele>145.0</ele><time>2026-03-28T06:53:20.481Z</time></trkpt><trkpt lat="40.7211" lon="14.77766"><ele>147.0</ele><time>2026-03-28T06:53:21.481Z</time></trkpt><trkpt lat="40.7213317" lon="14.7775533"><ele>147.0</ele><time>2026-03-28T06:53:22.481Z</time></trkpt><trkpt lat="40.721565" lon="14.7774283"><ele>147.0</ele><time>2026-03-28T06:53:23.48Z</time></trkpt><trkpt lat="40.7218033" lon="14.77729"><ele>161.0</ele><time>2026-03-28T06:53:24.48Z</time></trkpt><trkpt lat="40.72203" lon="14.7771583"><ele>175.0</ele><time>2026-03-28T06:53:25.481Z</time></trkpt><trkpt lat="40.7222667" lon="14.77703"><ele>175.0</ele><time>2026-03-28T06:53:26.48Z</time></trkpt><trkpt lat="40.7225" lon="14.7769017"><ele>175.0</ele><time>2026-03-28T06:53:27.481Z</time></trkpt><trkpt lat="40.7227367" lon="14.7767733"><ele>168.5</ele><time>2026-03-28T06:53:28.48Z</time></trkpt><trkpt lat="40.7229833" lon="14.7766467"><ele>162.0</ele><time>2026-03-28T06:53:29.481Z</time></trkpt><trkpt lat="40.723355" lon="14.776415"><ele>162.0</ele><time>2026-03-28T06:53:31.481Z</time></trkpt><trkpt lat="40.7235283" lon="14.7762367"><ele>162.0</ele><time>2026-03-28T06:53:32.481Z</time></trkpt><trkpt lat="40.7237483" lon="14.7761183"><ele>158.0</ele><time>2026-03-28T06:53:33.48Z</time></trkpt><trkpt lat="40.7239817" lon="14.7760217"><ele>154.0</ele><time>2026-03-28T06:53:34.481Z</time></trkpt><trkpt lat="40.7242217" lon="14.77594"><ele>151.5</ele><time>2026-03-28T06:53:35.481Z</time></trkpt><trkpt lat="40.7244733" lon="14.77588"><ele>149.0</ele><time>2026-03-28T06:53:36.481Z</time></trkpt><trkpt lat="40.7247267" lon="14.77583"><ele>149.0</ele><time>2026-03-28T06:53:37.48Z</time></trkpt><trkpt lat="40.7249867" lon="14.77581"><ele>149.0</ele><time>2026-03-28T06:53:38.481Z</time></trkpt><trkpt lat="40.7252367" lon="14.7757867"><ele>152.0</ele><time>2026-03-28T06:53:39.481Z</time></trkpt><trkpt lat="40.7255033" lon="14.7757683"><ele>155.0</ele><time>2026-03-28T06:53:40.481Z</time></trkpt><trkpt lat="40.7257667" lon="14.77575"><ele>155.0</ele><time>2026-03-28T06:53:41.48Z</time></trkpt><trkpt lat="40.72604" lon="14.7757367"><ele>155.0</ele><time>2026-03-28T06:53:42.481Z</time></trkpt><trkpt lat="40.726315" lon="14.77572"><ele>156.0</ele><time>2026-03-28T06:53:43.481Z</time></trkpt><trkpt lat="40.7265833" lon="14.7757"><ele>157.0</ele><time>2026-03-28T06:53:44.481Z</time></trkpt><trkpt lat="40.7268667" lon="14.77568"><ele>159.0</ele><time>2026-03-28T06:53:45.481Z</time></trkpt><trkpt lat="40.7271533" lon="14.7756567"><ele>161.0</ele><time>2026-03-28T06:53:46.48Z</time></trkpt><trkpt lat="40.7274417" lon="14.7756333"><ele>162.0</ele><time>2026-03-28T06:53:47.481Z</time></trkpt><trkpt lat="40.72773" lon="14.7756133"><ele>163.0</ele><time>2026-03-28T06:53:48.48Z</time></trkpt><trkpt lat="40.72802" lon="14.77559"><ele>163.0</ele><time>2026-03-28T06:53:49.481Z</time></trkpt><trkpt lat="40.7283" lon="14.775575"><ele>163.0</ele><time>2026-03-28T06:53:50.481Z</time></trkpt><trkpt lat="40.728575" lon="14.7755533"><ele>167.0</ele><time>2026-03-28T06:53:51.48Z</time></trkpt><trkpt lat="40.7291183" lon="14.7755267"><ele>167.0</ele><time>2026-03-28T06:53:53.481Z</time></trkpt><trkpt lat="40.72938" lon="14.7755133"><ele>167.0</ele><time>2026-03-28T06:53:54.48Z</time></trkpt><trkpt lat="40.7296433" lon="14.7755"><ele>169.5</ele><time>2026-03-28T06:53:55.481Z</time></trkpt><trkpt lat="40.7299033" lon="14.77549"><ele>172.0</ele><time>2026-03-28T06:53:56.48Z</time></trkpt><trkpt lat="40.7301617" lon="14.7754783"><ele>172.5</ele><time>2026-03-28T06:53:57.481Z</time></trkpt><trkpt lat="40.7304217" lon="14.7754633"><ele>173.0</ele><time>2026-03-28T06:53:58.481Z</time></trkpt><trkpt lat="40.7306783" lon="14.7754483"><ele>173.0</ele><time>2026-03-28T06:53:59.48Z</time></trkpt><trkpt lat="40.7309383" lon="14.7754367"><ele>173.0</ele><time>2026-03-28T06:54:00.481Z</time></trkpt><trkpt lat="40.731195" lon="14.7754283"><ele>171.0</ele><time>2026-03-28T06:54:01.48Z</time></trkpt><trkpt lat="40.7314517" lon="14.7754217"><ele>169.0</ele><time>2026-03-28T06:54:02.481Z</time></trkpt><trkpt lat="40.7317033" lon="14.7754267"><ele>168.5</ele><time>2026-03-28T06:54:03.481Z</time></trkpt><trkpt lat="40.7319617" lon="14.7754433"><ele>168.0</ele><time>2026-03-28T06:54:04.48Z</time></trkpt><trkpt lat="40.7322167" lon="14.775465"><ele>168.0</ele><time>2026-03-28T06:54:05.481Z</time></trkpt><trkpt lat="40.7324717" lon="14.7754883"><ele>168.0</ele><time>2026-03-28T06:54:06.481Z</time></trkpt><trkpt lat="40.7327267" lon="14.7755317"><ele>170.0</ele><time>2026-03-28T06:54:07.481Z</time></trkpt><trkpt lat="40.7329833" lon="14.7755817"><ele>172.0</ele><time>2026-03-28T06:54:08.481Z</time></trkpt><trkpt lat="40.7332433" lon="14.7756383"><ele>172.0</ele><time>2026-03-28T06:54:09.48Z</time></trkpt><trkpt lat="40.7335017" lon="14.7757083"><ele>172.0</ele><time>2026-03-28T06:54:10.48Z</time></trkpt><trkpt lat="40.7337567" lon="14.775795"><ele>171.5</ele><time>2026-03-28T06:54:11.48Z</time></trkpt><trkpt lat="40.7340133" lon="14.7758833"><ele>171.0</ele><time>2026-03-28T06:54:12.48Z</time></trkpt><trkpt lat="40.7342683" lon="14.7759967"><ele>173.5</ele><time>2026-03-28T06:54:13.481Z</time></trkpt><trkpt lat="40.734525" lon="14.77611"><ele>176.0</ele><time>2026-03-28T06:54:14.481Z</time></trkpt><trkpt lat="40.7347717" lon="14.7762317"><ele>176.0</ele><time>2026-03-28T06:54:15.48Z</time></trkpt><trkpt lat="40.7350183" lon="14.776365"><ele>176.0</ele><time>2026-03-28T06:54:16.48Z</time></trkpt><trkpt lat="40.735255" lon="14.7765"><ele>175.5</ele><time>2026-03-28T06:54:17.481Z</time></trkpt><trkpt lat="40.7354933" lon="14.7766517"><ele>175.0</ele><time>2026-03-28T06:54:18.481Z</time></trkpt><trkpt lat="40.7357267" lon="14.7768117"><ele>177.5</ele><time>2026-03-28T06:54:19.481Z</time></trkpt><trkpt lat="40.7359517" lon="14.7769733"><ele>180.0</ele><time>2026-03-28T06:54:20.48Z</time></trkpt><trkpt lat="40.73617" lon="14.77715"><ele>180.5</ele><time>2026-03-28T06:54:21.48Z</time></trkpt><trkpt lat="40.7363883" lon="14.7773333"><ele>181.0</ele><time>2026-03-28T06:54:22.481Z</time></trkpt><trkpt lat="40.7366017" lon="14.7775183"><ele>183.0</ele><time>2026-03-28T06:54:23.48Z</time></trkpt><trkpt lat="40.73681" lon="14.777715"><ele>185.0</ele><time>2026-03-28T06:54:24.48Z</time></trkpt><trkpt lat="40.7370083" lon="14.7779133"><ele>186.0</ele><time>2026-03-28T06:54:25.481Z</time></trkpt><trkpt lat="40.737205" lon="14.7781133"><ele>187.0</ele><time>2026-03-28T06:54:26.481Z</time></trkpt><trkpt lat="40.737395" lon="14.778315"><ele>188.5</ele><time>2026-03-28T06:54:27.481Z</time></trkpt><trkpt lat="40.7375817" lon="14.7785183"><ele>190.0</ele><time>2026-03-28T06:54:28.481Z</time></trkpt><trkpt lat="40.7377733" lon="14.77872"><ele>191.0</ele><time>2026-03-28T06:54:29.481Z</time></trkpt><trkpt lat="40.7379683" lon="14.7789283"><ele>192.0</ele><time>2026-03-28T06:54:30.481Z</time></trkpt><trkpt lat="40.738165" lon="14.7791417"><ele>194.0</ele><time>2026-03-28T06:54:31.48Z</time></trkpt><trkpt lat="40.7383633" lon="14.7793583"><ele>196.0</ele><time>2026-03-28T06:54:32.481Z</time></trkpt><trkpt lat="40.7385617" lon="14.779575"><ele>197.0</ele><time>2026-03-28T06:54:33.481Z</time></trkpt><trkpt lat="40.7387617" lon="14.7797983"><ele>198.0</ele><time>2026-03-28T06:54:34.481Z</time></trkpt><trkpt lat="40.7389633" lon="14.780025"><ele>201.0</ele><time>2026-03-28T06:54:35.481Z</time></trkpt><trkpt lat="40.7391583" lon="14.7802517"><ele>204.0</ele><time>2026-03-28T06:54:36.481Z</time></trkpt><trkpt lat="40.7393483" lon="14.7804817"><ele>206.0</ele><time>2026-03-28T06:54:37.481Z</time></trkpt><trkpt lat="40.73954" lon="14.7807117"><ele>208.0</ele><time>2026-03-28T06:54:38.48Z</time></trkpt><trkpt lat="40.73973" lon="14.78094"><ele>210.0</ele><time>2026-03-28T06:54:39.481Z</time></trkpt><trkpt lat="40.739915" lon="14.7811667"><ele>212.0</ele><time>2026-03-28T06:54:40.48Z</time></trkpt><trkpt lat="40.740105" lon="14.78138"><ele>211.0</ele><time>2026-03-28T06:54:41.48Z</time></trkpt><trkpt lat="40.740295" lon="14.781595"><ele>210.0</ele><time>2026-03-28T06:54:42.481Z</time></trkpt><trkpt lat="40.74049" lon="14.7818133"><ele>213.0</ele><time>2026-03-28T06:54:43.48Z</time></trkpt><trkpt lat="40.740685" lon="14.782025"><ele>216.0</ele><time>2026-03-28T06:54:44.481Z</time></trkpt><trkpt lat="40.7408833" lon="14.782225"><ele>214.0</ele><time>2026-03-28T06:54:45.481Z</time></trkpt><trkpt lat="40.74108" lon="14.7824267"><ele>212.0</ele><time>2026-03-28T06:54:46.481Z</time></trkpt><trkpt lat="40.7412783" lon="14.7826133"><ele>216.5</ele><time>2026-03-28T06:54:47.48Z</time></trkpt><trkpt lat="40.7414833" lon="14.7827967"><ele>221.0</ele><time>2026-03-28T06:54:48.481Z</time></trkpt><trkpt lat="40.7416833" lon="14.7829783"><ele>221.5</ele><time>2026-03-28T06:54:49.481Z</time></trkpt><trkpt lat="40.7418967" lon="14.7831583"><ele>222.0</ele><time>2026-03-28T06:54:50.48Z</time></trkpt><trkpt lat="40.74211" lon="14.7833283"><ele>222.0</ele><time>2026-03-28T06:54:51.481Z</time></trkpt><trkpt lat="40.742325" lon="14.7835"><ele>222.0</ele><time>2026-03-28T06:54:52.48Z</time></trkpt><trkpt lat="40.74254" lon="14.78366"><ele>220.5</ele><time>2026-03-28T06:54:53.481Z</time></trkpt><trkpt lat="40.7427617" lon="14.783815"><ele>219.0</ele><time>2026-03-28T06:54:54.481Z</time></trkpt><trkpt lat="40.7429783" lon="14.7839683"><ele>219.0</ele><time>2026-03-28T06:54:55.48Z</time></trkpt><trkpt lat="40.7431967" lon="14.7841167"><ele>219.0</ele><time>2026-03-28T06:54:56.48Z</time></trkpt><trkpt lat="40.7434117" lon="14.7842667"><ele>221.0</ele><time>2026-03-28T06:54:57.481Z</time></trkpt><trkpt lat="40.7436317" lon="14.7844067"><ele>223.0</ele><time>2026-03-28T06:54:58.481Z</time></trkpt><trkpt lat="40.7438583" lon="14.7845367"><ele>223.0</ele><time>2026-03-28T06:54:59.481Z</time></trkpt><trkpt lat="40.7440867" lon="14.78466"><ele>223.0</ele><time>2026-03-28T06:55:00.48Z</time></trkpt><trkpt lat="40.7443217" lon="14.7847867"><ele>221.5</ele><time>2026-03-28T06:55:01.481Z</time></trkpt><trkpt lat="40.7445533" lon="14.7849067"><ele>220.0</ele><time>2026-03-28T06:55:02.481Z</time></trkpt><trkpt lat="40.7447933" lon="14.7850183"><ele>220.0</ele><time>2026-03-28T06:55:03.481Z</time></trkpt><trkpt lat="40.7450317" lon="14.7851283"><ele>220.0</ele><time>2026-03-28T06:55:04.48Z</time></trkpt><trkpt lat="40.7452783" lon="14.7852283"><ele>223.5</ele><time>2026-03-28T06:55:05.48Z</time></trkpt><trkpt lat="40.74553" lon="14.7853183"><ele>227.0</ele><time>2026-03-28T06:55:06.481Z</time></trkpt><trkpt lat="40.74578" lon="14.7854033"><ele>227.0</ele><time>2026-03-28T06:55:07.48Z</time></trkpt><trkpt lat="40.7460383" lon="14.78548"><ele>227.0</ele><time>2026-03-28T06:55:08.48Z</time></trkpt><trkpt lat="40.7463" lon="14.7855633"><ele>230.0</ele><time>2026-03-28T06:55:09.481Z</time></trkpt><trkpt lat="40.7465633" lon="14.78564"><ele>233.0</ele><time>2026-03-28T06:55:10.48Z</time></trkpt><trkpt lat="40.7468217" lon="14.7857083"><ele>229.5</ele><time>2026-03-28T06:55:11.481Z</time></trkpt><trkpt lat="40.7470883" lon="14.785785"><ele>226.0</ele><time>2026-03-28T06:55:12.48Z</time></trkpt><trkpt lat="40.7473483" lon="14.7858383"><ele>226.0</ele><time>2026-03-28T06:55:13.48Z</time></trkpt><trkpt lat="40.7476067" lon="14.7859017"><ele>226.0</ele><time>2026-03-28T06:55:14.481Z</time></trkpt><trkpt lat="40.7478683" lon="14.78595"><ele>226.5</ele><time>2026-03-28T06:55:15.481Z</time></trkpt><trkpt lat="40.74813" lon="14.7860067"><ele>227.0</ele><time>2026-03-28T06:55:16.48Z</time></trkpt><trkpt lat="40.7483967" lon="14.7860583"><ele>225.5</ele><time>2026-03-28T06:55:17.481Z</time></trkpt><trkpt lat="40.74867" lon="14.786115"><ele>224.0</ele><time>2026-03-28T06:55:18.481Z</time></trkpt><trkpt lat="40.74894" lon="14.786165"><ele>224.0</ele><time>2026-03-28T06:55:19.48Z</time></trkpt><trkpt lat="40.7492167" lon="14.7862133"><ele>224.0</ele><time>2026-03-28T06:55:20.481Z</time></trkpt><trkpt lat="40.7495" lon="14.786265"><ele>223.5</ele><time>2026-03-28T06:55:21.48Z</time></trkpt><trkpt lat="40.74979" lon="14.7863233"><ele>223.0</ele><time>2026-03-28T06:55:22.48Z</time></trkpt><trkpt lat="40.7500783" lon="14.7863833"><ele>223.5</ele><time>2026-03-28T06:55:23.481Z</time></trkpt><trkpt lat="40.75037" lon="14.78645"><ele>224.0</ele><time>2026-03-28T06:55:24.481Z</time></trkpt><trkpt lat="40.7506583" lon="14.7865133"><ele>224.0</ele><time>2026-03-28T06:55:25.48Z</time></trkpt><trkpt lat="40.7509467" lon="14.7865783"><ele>224.0</ele><time>2026-03-28T06:55:26.481Z</time></trkpt><trkpt lat="40.7512317" lon="14.7866317"><ele>223.5</ele><time>2026-03-28T06:55:27.482Z</time></trkpt><trkpt lat="40.7515217" lon="14.7867033"><ele>223.0</ele><time>2026-03-28T06:55:28.482Z</time></trkpt><trkpt lat="40.751805" lon="14.7867583"><ele>222.5</ele><time>2026-03-28T06:55:29.482Z</time></trkpt><trkpt lat="40.7520933" lon="14.7868167"><ele>222.0</ele><time>2026-03-28T06:55:30.481Z</time></trkpt><trkpt lat="40.75239" lon="14.786875"><ele>223.5</ele><time>2026-03-28T06:55:31.482Z</time></trkpt><trkpt lat="40.7526917" lon="14.7869267"><ele>225.0</ele><time>2026-03-28T06:55:32.481Z</time></trkpt><trkpt lat="40.7529967" lon="14.7869817"><ele>225.0</ele><time>2026-03-28T06:55:33.481Z</time></trkpt><trkpt lat="40.7533033" lon="14.78704"><ele>225.0</ele><time>2026-03-28T06:55:34.482Z</time></trkpt><trkpt lat="40.7536133" lon="14.7870933"><ele>226.0</ele><time>2026-03-28T06:55:35.482Z</time></trkpt><trkpt lat="40.753925" lon="14.7871467"><ele>227.0</ele><time>2026-03-28T06:55:36.481Z</time></trkpt><trkpt lat="40.7542383" lon="14.787205"><ele>229.0</ele><time>2026-03-28T06:55:37.481Z</time></trkpt><trkpt lat="40.754545" lon="14.7872683"><ele>231.0</ele><time>2026-03-28T06:55:38.481Z</time></trkpt><trkpt lat="40.75485" lon="14.7873233"><ele>231.0</ele><time>2026-03-28T06:55:39.482Z</time></trkpt><trkpt lat="40.75515" lon="14.78738"><ele>231.0</ele><time>2026-03-28T06:55:40.482Z</time></trkpt><trkpt lat="40.75545" lon="14.787445"><ele>233.0</ele><time>2026-03-28T06:55:41.481Z</time></trkpt><trkpt lat="40.7557483" lon="14.787505"><ele>235.0</ele><time>2026-03-28T06:55:42.482Z</time></trkpt><trkpt lat="40.7560517" lon="14.7875583"><ele>235.5</ele><time>2026-03-28T06:55:43.482Z</time></trkpt><trkpt lat="40.7563533" lon="14.7876167"><ele>236.0</ele><time>2026-03-28T06:55:44.482Z</time></trkpt><trkpt lat="40.7566517" lon="14.7876833"><ele>238.0</ele><time>2026-03-28T06:55:45.482Z</time></trkpt><trkpt lat="40.7569567" lon="14.78775"><ele>240.0</ele><time>2026-03-28T06:55:46.482Z</time></trkpt><trkpt lat="40.7572633" lon="14.787815"><ele>240.0</ele><time>2026-03-28T06:55:47.482Z</time></trkpt><trkpt lat="40.7575717" lon="14.7878733"><ele>240.0</ele><time>2026-03-28T06:55:48.482Z</time></trkpt><trkpt lat="40.757875" lon="14.7879317"><ele>241.5</ele><time>2026-03-28T06:55:49.481Z</time></trkpt><trkpt lat="40.7581783" lon="14.7879867"><ele>243.0</ele><time>2026-03-28T06:55:50.482Z</time></trkpt><trkpt lat="40.7584817" lon="14.7880433"><ele>242.5</ele><time>2026-03-28T06:55:51.481Z</time></trkpt><trkpt lat="40.7587867" lon="14.7881017"><ele>242.0</ele><time>2026-03-28T06:55:52.482Z</time></trkpt><trkpt lat="40.7590917" lon="14.7881617"><ele>240.5</ele><time>2026-03-28T06:55:53.481Z</time></trkpt><trkpt lat="40.7594017" lon="14.788235"><ele>239.0</ele><time>2026-03-28T06:55:54.482Z</time></trkpt><trkpt lat="40.7597067" lon="14.7882967"><ele>239.0</ele><time>2026-03-28T06:55:55.481Z</time></trkpt><trkpt lat="40.760015" lon="14.7883583"><ele>239.0</ele><time>2026-03-28T06:55:56.481Z</time></trkpt><trkpt lat="40.76032" lon="14.7884233"><ele>238.5</ele><time>2026-03-28T06:55:57.482Z</time></trkpt><trkpt lat="40.760625" lon="14.78849"><ele>238.0</ele><time>2026-03-28T06:55:58.481Z</time></trkpt><trkpt lat="40.7609317" lon="14.78856"><ele>239.0</ele><time>2026-03-28T06:55:59.482Z</time></trkpt><trkpt lat="40.7612333" lon="14.7886217"><ele>240.0</ele><time>2026-03-28T06:56:00.482Z</time></trkpt><trkpt lat="40.761535" lon="14.78868"><ele>240.0</ele><time>2026-03-28T06:56:01.482Z</time></trkpt><trkpt lat="40.76184" lon="14.7887367"><ele>240.0</ele><time>2026-03-28T06:56:02.481Z</time></trkpt><trkpt lat="40.76214" lon="14.78879"><ele>239.0</ele><time>2026-03-28T06:56:03.482Z</time></trkpt><trkpt lat="40.7624283" lon="14.7888367"><ele>238.0</ele><time>2026-03-28T06:56:04.481Z</time></trkpt><trkpt lat="40.76272" lon="14.7888717"><ele>237.5</ele><time>2026-03-28T06:56:05.482Z</time></trkpt><trkpt lat="40.76301" lon="14.78891"><ele>237.0</ele><time>2026-03-28T06:56:06.482Z</time></trkpt><trkpt lat="40.7632917" lon="14.7889367"><ele>235.0</ele><time>2026-03-28T06:56:07.481Z</time></trkpt><trkpt lat="40.7635733" lon="14.7889467"><ele>233.0</ele><time>2026-03-28T06:56:08.481Z</time></trkpt><trkpt lat="40.7638517" lon="14.7889483"><ele>233.0</ele><time>2026-03-28T06:56:09.481Z</time></trkpt><trkpt lat="40.7641367" lon="14.7889417"><ele>233.0</ele><time>2026-03-28T06:56:10.482Z</time></trkpt><trkpt lat="40.7644083" lon="14.7889333"><ele>232.5</ele><time>2026-03-28T06:56:11.482Z</time></trkpt><trkpt lat="40.7646817" lon="14.7889117"><ele>232.0</ele><time>2026-03-28T06:56:12.481Z</time></trkpt><trkpt lat="40.76495" lon="14.78889"><ele>233.5</ele><time>2026-03-28T06:56:13.482Z</time></trkpt><trkpt lat="40.7652083" lon="14.7888617"><ele>235.0</ele><time>2026-03-28T06:56:14.481Z</time></trkpt><trkpt lat="40.76547" lon="14.788835"><ele>235.0</ele><time>2026-03-28T06:56:15.482Z</time></trkpt><trkpt lat="40.7657283" lon="14.7888"><ele>235.0</ele><time>2026-03-28T06:56:16.482Z</time></trkpt><trkpt lat="40.765985" lon="14.7887517"><ele>235.0</ele><time>2026-03-28T06:56:17.482Z</time></trkpt><trkpt lat="40.766235" lon="14.7887033"><ele>235.0</ele><time>2026-03-28T06:56:18.481Z</time></trkpt><trkpt lat="40.766485" lon="14.788645"><ele>235.0</ele><time>2026-03-28T06:56:19.482Z</time></trkpt><trkpt lat="40.76672" lon="14.788585"><ele>235.0</ele><time>2026-03-28T06:56:20.482Z</time></trkpt><trkpt lat="40.7669517" lon="14.78853"><ele>235.0</ele><time>2026-03-28T06:56:21.482Z</time></trkpt><trkpt lat="40.7671733" lon="14.7884683"><ele>235.0</ele><time>2026-03-28T06:56:22.482Z</time></trkpt><trkpt lat="40.7673833" lon="14.7884017"><ele>235.0</ele><time>2026-03-28T06:56:23.482Z</time></trkpt><trkpt lat="40.767595" lon="14.788325"><ele>235.5</ele><time>2026-03-28T06:56:24.481Z</time></trkpt><trkpt lat="40.7678133" lon="14.78824"><ele>236.0</ele><time>2026-03-28T06:56:25.481Z</time></trkpt><trkpt lat="40.7680317" lon="14.7881533"><ele>236.0</ele><time>2026-03-28T06:56:26.482Z</time></trkpt><trkpt lat="40.76826" lon="14.7880483"><ele>236.0</ele><time>2026-03-28T06:56:27.482Z</time></trkpt><trkpt lat="40.76849" lon="14.7879317"><ele>237.0</ele><time>2026-03-28T06:56:28.482Z</time></trkpt><trkpt lat="40.76873" lon="14.7878067"><ele>238.0</ele><time>2026-03-28T06:56:29.482Z</time></trkpt><trkpt lat="40.76897" lon="14.7876783"><ele>238.0</ele><time>2026-03-28T06:56:30.482Z</time></trkpt><trkpt lat="40.7692217" lon="14.7875517"><ele>238.0</ele><time>2026-03-28T06:56:31.482Z</time></trkpt><trkpt lat="40.7694733" lon="14.7874283"><ele>238.0</ele><time>2026-03-28T06:56:32.482Z</time></trkpt><trkpt lat="40.7697217" lon="14.7873067"><ele>238.0</ele><time>2026-03-28T06:56:33.482Z</time></trkpt><trkpt lat="40.7699683" lon="14.7871933"><ele>240.0</ele><time>2026-03-28T06:56:34.482Z</time></trkpt><trkpt lat="40.7702117" lon="14.78708"><ele>242.0</ele><time>2026-03-28T06:56:35.482Z</time></trkpt><trkpt lat="40.77045" lon="14.7869617"><ele>240.5</ele><time>2026-03-28T06:56:36.481Z</time></trkpt><trkpt lat="40.7706967" lon="14.7868417"><ele>239.0</ele><time>2026-03-28T06:56:37.482Z</time></trkpt><trkpt lat="40.7709517" lon="14.7867233"><ele>240.5</ele><time>2026-03-28T06:56:38.481Z</time></trkpt><trkpt lat="40.7712133" lon="14.7865983"><ele>242.0</ele><time>2026-03-28T06:56:39.482Z</time></trkpt><trkpt lat="40.7714733" lon="14.786475"><ele>242.0</ele><time>2026-03-28T06:56:40.482Z</time></trkpt><trkpt lat="40.771735" lon="14.7863433"><ele>242.0</ele><time>2026-03-28T06:56:41.481Z</time></trkpt><trkpt lat="40.7719933" lon="14.7862083"><ele>242.5</ele><time>2026-03-28T06:56:42.481Z</time></trkpt><trkpt lat="40.7722533" lon="14.7860783"><ele>243.0</ele><time>2026-03-28T06:56:43.482Z</time></trkpt><trkpt lat="40.7725133" lon="14.78595"><ele>243.5</ele><time>2026-03-28T06:56:44.481Z</time></trkpt><trkpt lat="40.7727683" lon="14.7858233"><ele>244.0</ele><time>2026-03-28T06:56:45.481Z</time></trkpt><trkpt lat="40.77302" lon="14.7857033"><ele>244.0</ele><time>2026-03-28T06:56:46.482Z</time></trkpt><trkpt lat="40.77327" lon="14.7855867"><ele>244.0</ele><time>2026-03-28T06:56:47.482Z</time></trkpt><trkpt lat="40.7735133" lon="14.7854717"><ele>243.5</ele><time>2026-03-28T06:56:48.482Z</time></trkpt><trkpt lat="40.7737533" lon="14.7853567"><ele>243.0</ele><time>2026-03-28T06:56:49.482Z</time></trkpt><trkpt lat="40.773995" lon="14.785245"><ele>241.0</ele><time>2026-03-28T06:56:50.482Z</time></trkpt><trkpt lat="40.7742383" lon="14.7851383"><ele>239.0</ele><time>2026-03-28T06:56:51.482Z</time></trkpt><trkpt lat="40.77448" lon="14.7850333"><ele>239.0</ele><time>2026-03-28T06:56:52.482Z</time></trkpt><trkpt lat="40.77472" lon="14.78493"><ele>239.0</ele><time>2026-03-28T06:56:53.482Z</time></trkpt><trkpt lat="40.7749617" lon="14.7848167"><ele>239.0</ele><time>2026-03-28T06:56:54.482Z</time></trkpt><trkpt lat="40.7752017" lon="14.784705"><ele>239.0</ele><time>2026-03-28T06:56:55.482Z</time></trkpt><trkpt lat="40.775445" lon="14.7845883"><ele>239.0</ele><time>2026-03-28T06:56:56.482Z</time></trkpt><trkpt lat="40.7756933" lon="14.7844683"><ele>239.0</ele><time>2026-03-28T06:56:57.481Z</time></trkpt><trkpt lat="40.77594" lon="14.78435"><ele>238.0</ele><time>2026-03-28T06:56:58.481Z</time></trkpt><trkpt lat="40.7761883" lon="14.7842317"><ele>237.0</ele><time>2026-03-28T06:56:59.482Z</time></trkpt><trkpt lat="40.7764383" lon="14.7841167"><ele>237.0</ele><time>2026-03-28T06:57:00.481Z</time></trkpt><trkpt lat="40.77669" lon="14.7840017"><ele>237.0</ele><time>2026-03-28T06:57:01.482Z</time></trkpt><trkpt lat="40.7769433" lon="14.7838833"><ele>237.5</ele><time>2026-03-28T06:57:02.482Z</time></trkpt><trkpt lat="40.7771917" lon="14.7837633"><ele>238.0</ele><time>2026-03-28T06:57:03.481Z</time></trkpt><trkpt lat="40.7774433" lon="14.7836417"><ele>237.0</ele><time>2026-03-28T06:57:04.481Z</time></trkpt><trkpt lat="40.7776967" lon="14.7835233"><ele>236.0</ele><time>2026-03-28T06:57:05.482Z</time></trkpt><trkpt lat="40.7779517" lon="14.7834067"><ele>235.0</ele><time>2026-03-28T06:57:06.482Z</time></trkpt><trkpt lat="40.7782067" lon="14.7832917"><ele>234.0</ele><time>2026-03-28T06:57:07.482Z</time></trkpt><trkpt lat="40.77846" lon="14.7831717"><ele>234.0</ele><time>2026-03-28T06:57:08.481Z</time></trkpt><trkpt lat="40.7787067" lon="14.783055"><ele>234.0</ele><time>2026-03-28T06:57:09.482Z</time></trkpt><trkpt lat="40.77895" lon="14.7829383"><ele>234.0</ele><time>2026-03-28T06:57:10.481Z</time></trkpt><trkpt lat="40.77919" lon="14.7828183"><ele>234.0</ele><time>2026-03-28T06:57:11.482Z</time></trkpt><trkpt lat="40.7794317" lon="14.7826983"><ele>230.5</ele><time>2026-03-28T06:57:12.482Z</time></trkpt><trkpt lat="40.7796683" lon="14.7825767"><ele>227.0</ele><time>2026-03-28T06:57:13.481Z</time></trkpt><trkpt lat="40.7799117" lon="14.7824567"><ele>227.0</ele><time>2026-03-28T06:57:14.482Z</time></trkpt><trkpt lat="40.7801533" lon="14.7823383"><ele>227.0</ele><time>2026-03-28T06:57:15.482Z</time></trkpt><trkpt lat="40.780395" lon="14.782225"><ele>226.0</ele><time>2026-03-28T06:57:16.482Z</time></trkpt><trkpt lat="40.7806367" lon="14.7821167"><ele>225.0</ele><time>2026-03-28T06:57:17.482Z</time></trkpt><trkpt lat="40.7808817" lon="14.7820067"><ele>224.5</ele><time>2026-03-28T06:57:18.481Z</time></trkpt><trkpt lat="40.7811283" lon="14.7819"><ele>224.0</ele><time>2026-03-28T06:57:19.481Z</time></trkpt><trkpt lat="40.78137" lon="14.7817967"><ele>223.0</ele><time>2026-03-28T06:57:20.482Z</time></trkpt><trkpt lat="40.781605" lon="14.7816833"><ele>222.0</ele><time>2026-03-28T06:57:21.482Z</time></trkpt><trkpt lat="40.7818383" lon="14.78157"><ele>220.5</ele><time>2026-03-28T06:57:22.481Z</time></trkpt><trkpt lat="40.782075" lon="14.78146"><ele>219.0</ele><time>2026-03-28T06:57:23.481Z</time></trkpt><trkpt lat="40.782305" lon="14.7813433"><ele>219.0</ele><time>2026-03-28T06:57:24.481Z</time></trkpt><trkpt lat="40.7825383" lon="14.7812217"><ele>219.0</ele><time>2026-03-28T06:57:25.482Z</time></trkpt><trkpt lat="40.782765" lon="14.78109"><ele>218.0</ele><time>2026-03-28T06:57:26.481Z</time></trkpt><trkpt lat="40.78299" lon="14.7809467"><ele>217.0</ele><time>2026-03-28T06:57:27.482Z</time></trkpt><trkpt lat="40.78321" lon="14.78081"><ele>217.0</ele><time>2026-03-28T06:57:28.481Z</time></trkpt><trkpt lat="40.783425" lon="14.7806583"><ele>217.0</ele><time>2026-03-28T06:57:29.482Z</time></trkpt><trkpt lat="40.7836367" lon="14.7804967"><ele>217.5</ele><time>2026-03-28T06:57:30.481Z</time></trkpt><trkpt lat="40.7838517" lon="14.7803217"><ele>218.0</ele><time>2026-03-28T06:57:31.482Z</time></trkpt><trkpt lat="40.7840633" lon="14.7801367"><ele>215.5</ele><time>2026-03-28T06:57:32.482Z</time></trkpt><trkpt lat="40.784275" lon="14.779935"><ele>213.0</ele><time>2026-03-28T06:57:33.482Z</time></trkpt><trkpt lat="40.784485" lon="14.779725"><ele>212.0</ele><time>2026-03-28T06:57:34.482Z</time></trkpt><trkpt lat="40.7846933" lon="14.7795117"><ele>211.0</ele><time>2026-03-28T06:57:35.482Z</time></trkpt><trkpt lat="40.7848983" lon="14.779295"><ele>208.5</ele><time>2026-03-28T06:57:36.481Z</time></trkpt><trkpt lat="40.7851067" lon="14.7790783"><ele>206.0</ele><time>2026-03-28T06:57:37.481Z</time></trkpt><trkpt lat="40.7853217" lon="14.7788617"><ele>205.5</ele><time>2026-03-28T06:57:38.482Z</time></trkpt><trkpt lat="40.7855417" lon="14.7786433"><ele>205.0</ele><time>2026-03-28T06:57:39.482Z</time></trkpt><trkpt lat="40.7857617" lon="14.7784183"><ele>204.0</ele><time>2026-03-28T06:57:40.482Z</time></trkpt><trkpt lat="40.7859817" lon="14.7781917"><ele>203.0</ele><time>2026-03-28T06:57:41.481Z</time></trkpt><trkpt lat="40.7861967" lon="14.7779667"><ele>202.0</ele><time>2026-03-28T06:57:42.482Z</time></trkpt><trkpt lat="40.7864133" lon="14.7777433"><ele>201.0</ele><time>2026-03-28T06:57:43.481Z</time></trkpt><trkpt lat="40.78663" lon="14.77752"><ele>200.0</ele><time>2026-03-28T06:57:44.482Z</time></trkpt><trkpt lat="40.78684" lon="14.7773033"><ele>199.0</ele><time>2026-03-28T06:57:45.482Z</time></trkpt><trkpt lat="40.7870567" lon="14.77709"><ele>198.0</ele><time>2026-03-28T06:57:46.482Z</time></trkpt><trkpt lat="40.78727" lon="14.7768817"><ele>197.0</ele><time>2026-03-28T06:57:47.482Z</time></trkpt><trkpt lat="40.7874783" lon="14.77668"><ele>196.0</ele><time>2026-03-28T06:57:48.481Z</time></trkpt><trkpt lat="40.787685" lon="14.776475"><ele>195.0</ele><time>2026-03-28T06:57:49.482Z</time></trkpt><trkpt lat="40.7878867" lon="14.7762717"><ele>195.0</ele><time>2026-03-28T06:57:50.482Z</time></trkpt><trkpt lat="40.788085" lon="14.7760683"><ele>195.0</ele><time>2026-03-28T06:57:51.481Z</time></trkpt><trkpt lat="40.7882833" lon="14.7758617"><ele>191.5</ele><time>2026-03-28T06:57:52.481Z</time></trkpt><trkpt lat="40.7884767" lon="14.775665"><ele>188.0</ele><time>2026-03-28T06:57:53.481Z</time></trkpt><trkpt lat="40.7886683" lon="14.7754667"><ele>187.5</ele><time>2026-03-28T06:57:54.481Z</time></trkpt><trkpt lat="40.7888567" lon="14.775275"><ele>187.0</ele><time>2026-03-28T06:57:55.482Z</time></trkpt><trkpt lat="40.7890383" lon="14.7750883"><ele>184.5</ele><time>2026-03-28T06:57:56.481Z</time></trkpt><trkpt lat="40.78922" lon="14.7749067"><ele>182.0</ele><time>2026-03-28T06:57:57.481Z</time></trkpt><trkpt lat="40.7894017" lon="14.77473"><ele>181.0</ele><time>2026-03-28T06:57:58.481Z</time></trkpt><trkpt lat="40.7895833" lon="14.77456"><ele>180.0</ele><time>2026-03-28T06:57:59.482Z</time></trkpt><trkpt lat="40.7897767" lon="14.774395"><ele>178.5</ele><time>2026-03-28T06:58:00.481Z</time></trkpt><trkpt lat="40.78998" lon="14.774235"><ele>177.0</ele><time>2026-03-28T06:58:01.482Z</time></trkpt><trkpt lat="40.7901817" lon="14.7740867"><ele>177.0</ele><time>2026-03-28T06:58:02.482Z</time></trkpt><trkpt lat="40.7903933" lon="14.7739383"><ele>177.0</ele><time>2026-03-28T06:58:03.481Z</time></trkpt><trkpt lat="40.79061" lon="14.773795"><ele>177.0</ele><time>2026-03-28T06:58:04.482Z</time></trkpt><trkpt lat="40.79083" lon="14.77366"><ele>177.0</ele><time>2026-03-28T06:58:05.482Z</time></trkpt><trkpt lat="40.7910483" lon="14.77353"><ele>174.5</ele><time>2026-03-28T06:58:06.481Z</time></trkpt><trkpt lat="40.7912717" lon="14.7734083"><ele>172.0</ele><time>2026-03-28T06:58:07.481Z</time></trkpt><trkpt lat="40.7915" lon="14.7732983"><ele>172.0</ele><time>2026-03-28T06:58:08.481Z</time></trkpt><trkpt lat="40.79173" lon="14.7731917"><ele>172.0</ele><time>2026-03-28T06:58:09.481Z</time></trkpt><trkpt lat="40.7919567" lon="14.7730933"><ele>172.0</ele><time>2026-03-28T06:58:10.482Z</time></trkpt><trkpt lat="40.7921883" lon="14.773005"><ele>172.0</ele><time>2026-03-28T06:58:11.482Z</time></trkpt><trkpt lat="40.7924183" lon="14.772925"><ele>172.0</ele><time>2026-03-28T06:58:12.482Z</time></trkpt><trkpt lat="40.792655" lon="14.7728467"><ele>172.0</ele><time>2026-03-28T06:58:13.482Z</time></trkpt><trkpt lat="40.79289" lon="14.7727767"><ele>172.0</ele><time>2026-03-28T06:58:14.482Z</time></trkpt><trkpt lat="40.793135" lon="14.7727217"><ele>172.0</ele><time>2026-03-28T06:58:15.481Z</time></trkpt><trkpt lat="40.793385" lon="14.77267"><ele>171.0</ele><time>2026-03-28T06:58:16.482Z</time></trkpt><trkpt lat="40.7936317" lon="14.7726217"><ele>170.0</ele><time>2026-03-28T06:58:17.482Z</time></trkpt><trkpt lat="40.7938867" lon="14.7725717"><ele>170.0</ele><time>2026-03-28T06:58:18.481Z</time></trkpt><trkpt lat="40.794135" lon="14.7725167"><ele>170.0</ele><time>2026-03-28T06:58:19.482Z</time></trkpt><trkpt lat="40.7943867" lon="14.7724633"><ele>171.5</ele><time>2026-03-28T06:58:20.482Z</time></trkpt><trkpt lat="40.7946367" lon="14.7724083"><ele>173.0</ele><time>2026-03-28T06:58:21.482Z</time></trkpt><trkpt lat="40.79489" lon="14.77236"><ele>173.0</ele><time>2026-03-28T06:58:22.482Z</time></trkpt><trkpt lat="40.795145" lon="14.7723067"><ele>173.0</ele><time>2026-03-28T06:58:23.482Z</time></trkpt><trkpt lat="40.7953983" lon="14.7722467"><ele>172.5</ele><time>2026-03-28T06:58:24.482Z</time></trkpt><trkpt lat="40.7956567" lon="14.7721867"><ele>172.0</ele><time>2026-03-28T06:58:25.482Z</time></trkpt><trkpt lat="40.7959167" lon="14.7721183"><ele>172.0</ele><time>2026-03-28T06:58:26.482Z</time></trkpt><trkpt lat="40.7961717" lon="14.7720517"><ele>172.0</ele><time>2026-03-28T06:58:27.482Z</time></trkpt><trkpt lat="40.7964383" lon="14.771995"><ele>172.0</ele><time>2026-03-28T06:58:28.482Z</time></trkpt><trkpt lat="40.796705" lon="14.771945"><ele>172.0</ele><time>2026-03-28T06:58:29.482Z</time></trkpt><trkpt lat="40.7969683" lon="14.7718917"><ele>168.0</ele><time>2026-03-28T06:58:30.481Z</time></trkpt><trkpt lat="40.7972317" lon="14.771855"><ele>164.0</ele><time>2026-03-28T06:58:31.481Z</time></trkpt><trkpt lat="40.79749" lon="14.7718083"><ele>164.0</ele><time>2026-03-28T06:58:32.481Z</time></trkpt><trkpt lat="40.79774" lon="14.77176"><ele>164.0</ele><time>2026-03-28T06:58:33.482Z</time></trkpt><trkpt lat="40.7979867" lon="14.7717083"><ele>164.0</ele><time>2026-03-28T06:58:34.482Z</time></trkpt><trkpt lat="40.7982333" lon="14.7716567"><ele>164.0</ele><time>2026-03-28T06:58:35.482Z</time></trkpt><trkpt lat="40.798475" lon="14.7716017"><ele>164.0</ele><time>2026-03-28T06:58:36.482Z</time></trkpt><trkpt lat="40.798715" lon="14.7715483"><ele>164.0</ele><time>2026-03-28T06:58:37.482Z</time></trkpt><trkpt lat="40.79896" lon="14.7715"><ele>164.0</ele><time>2026-03-28T06:58:38.482Z</time></trkpt><trkpt lat="40.7992" lon="14.7714517"><ele>164.0</ele><time>2026-03-28T06:58:39.481Z</time></trkpt><trkpt lat="40.79944" lon="14.771405"><ele>164.5</ele><time>2026-03-28T06:58:40.481Z</time></trkpt><trkpt lat="40.7996767" lon="14.771355"><ele>165.0</ele><time>2026-03-28T06:58:41.482Z</time></trkpt><trkpt lat="40.7999133" lon="14.7713067"><ele>165.0</ele><time>2026-03-28T06:58:42.482Z</time></trkpt><trkpt lat="40.800145" lon="14.77126"><ele>165.0</ele><time>2026-03-28T06:58:43.481Z</time></trkpt><trkpt lat="40.800375" lon="14.7712083"><ele>165.5</ele><time>2026-03-28T06:58:44.481Z</time></trkpt><trkpt lat="40.800605" lon="14.7711583"><ele>166.0</ele><time>2026-03-28T06:58:45.482Z</time></trkpt><trkpt lat="40.8008383" lon="14.7711067"><ele>166.0</ele><time>2026-03-28T06:58:46.482Z</time></trkpt><trkpt lat="40.8010667" lon="14.7710533"><ele>166.0</ele><time>2026-03-28T06:58:47.481Z</time></trkpt><trkpt lat="40.801295" lon="14.7709967"><ele>165.5</ele><time>2026-03-28T06:58:48.482Z</time></trkpt><trkpt lat="40.801525" lon="14.7709417"><ele>165.0</ele><time>2026-03-28T06:58:49.482Z</time></trkpt><trkpt lat="40.8017533" lon="14.7708833"><ele>166.0</ele><time>2026-03-28T06:58:50.481Z</time></trkpt><trkpt lat="40.8019867" lon="14.77083"><ele>167.0</ele><time>2026-03-28T06:58:51.481Z</time></trkpt><trkpt lat="40.8022233" lon="14.7707883"><ele>167.0</ele><time>2026-03-28T06:58:52.481Z</time></trkpt><trkpt lat="40.802465" lon="14.770755"><ele>167.0</ele><time>2026-03-28T06:58:53.481Z</time></trkpt><trkpt lat="40.8027083" lon="14.7707367"><ele>167.0</ele><time>2026-03-28T06:58:54.482Z</time></trkpt><trkpt lat="40.802955" lon="14.770725"><ele>167.0</ele><time>2026-03-28T06:58:55.481Z</time></trkpt><trkpt lat="40.8032017" lon="14.770725"><ele>167.0</ele><time>2026-03-28T06:58:56.481Z</time></trkpt><trkpt lat="40.8034533" lon="14.770735"><ele>167.0</ele><time>2026-03-28T06:58:57.482Z</time></trkpt><trkpt lat="40.8037067" lon="14.7707533"><ele>167.0</ele><time>2026-03-28T06:58:58.481Z</time></trkpt><trkpt lat="40.8039567" lon="14.7707767"><ele>167.0</ele><time>2026-03-28T06:58:59.481Z</time></trkpt><trkpt lat="40.8042117" lon="14.7708083"><ele>168.5</ele><time>2026-03-28T06:59:00.481Z</time></trkpt><trkpt lat="40.80446" lon="14.77085"><ele>170.0</ele><time>2026-03-28T06:59:01.481Z</time></trkpt><trkpt lat="40.8047133" lon="14.7708983"><ele>170.0</ele><time>2026-03-28T06:59:02.481Z</time></trkpt><trkpt lat="40.80496" lon="14.7709483"><ele>170.0</ele><time>2026-03-28T06:59:03.482Z</time></trkpt><trkpt lat="40.8052183" lon="14.7710033"><ele>172.0</ele><time>2026-03-28T06:59:04.481Z</time></trkpt><trkpt lat="40.8054733" lon="14.7710533"><ele>174.0</ele><time>2026-03-28T06:59:05.481Z</time></trkpt><trkpt lat="40.8057233" lon="14.7711117"><ele>174.0</ele><time>2026-03-28T06:59:06.482Z</time></trkpt><trkpt lat="40.8059683" lon="14.771165"><ele>174.0</ele><time>2026-03-28T06:59:07.481Z</time></trkpt><trkpt lat="40.8062183" lon="14.7712217"><ele>174.5</ele><time>2026-03-28T06:59:08.481Z</time></trkpt><trkpt lat="40.8064617" lon="14.771275"><ele>175.0</ele><time>2026-03-28T06:59:09.482Z</time></trkpt><trkpt lat="40.8067117" lon="14.7713333"><ele>175.0</ele><time>2026-03-28T06:59:10.482Z</time></trkpt><trkpt lat="40.8069583" lon="14.77138"><ele>175.0</ele><time>2026-03-28T06:59:11.481Z</time></trkpt><trkpt lat="40.8072083" lon="14.771435"><ele>175.0</ele><time>2026-03-28T06:59:12.482Z</time></trkpt><trkpt lat="40.8074633" lon="14.7715017"><ele>175.0</ele><time>2026-03-28T06:59:13.481Z</time></trkpt><trkpt lat="40.8077017" lon="14.7715517"><ele>175.0</ele><time>2026-03-28T06:59:14.482Z</time></trkpt><trkpt lat="40.8079417" lon="14.7716017"><ele>175.0</ele><time>2026-03-28T06:59:15.481Z</time></trkpt><trkpt lat="40.80819" lon="14.7716617"><ele>175.0</ele><time>2026-03-28T06:59:16.482Z</time></trkpt><trkpt lat="40.8084333" lon="14.7717117"><ele>175.0</ele><time>2026-03-28T06:59:17.482Z</time></trkpt><trkpt lat="40.80868" lon="14.7717717"><ele>175.5</ele><time>2026-03-28T06:59:18.482Z</time></trkpt><trkpt lat="40.80892" lon="14.771825"><ele>176.0</ele><time>2026-03-28T06:59:19.482Z</time></trkpt><trkpt lat="40.8091617" lon="14.7718783"><ele>178.0</ele><time>2026-03-28T06:59:20.482Z</time></trkpt><trkpt lat="40.8094017" lon="14.7719333"><ele>180.0</ele><time>2026-03-28T06:59:21.481Z</time></trkpt><trkpt lat="40.80964" lon="14.7719917"><ele>180.0</ele><time>2026-03-28T06:59:22.481Z</time></trkpt><trkpt lat="40.8098767" lon="14.7720633"><ele>180.0</ele><time>2026-03-28T06:59:23.482Z</time></trkpt><trkpt lat="40.8101083" lon="14.7721433"><ele>181.0</ele><time>2026-03-28T06:59:24.481Z</time></trkpt><trkpt lat="40.810335" lon="14.7722333"><ele>182.0</ele><time>2026-03-28T06:59:25.482Z</time></trkpt><trkpt lat="40.8105567" lon="14.77233"><ele>182.0</ele><time>2026-03-28T06:59:26.481Z</time></trkpt><trkpt lat="40.810775" lon="14.7724417"><ele>182.0</ele><time>2026-03-28T06:59:27.481Z</time></trkpt><trkpt lat="40.8109917" lon="14.77256"><ele>182.5</ele><time>2026-03-28T06:59:28.482Z</time></trkpt><trkpt lat="40.811205" lon="14.7726817"><ele>183.0</ele><time>2026-03-28T06:59:29.482Z</time></trkpt><trkpt lat="40.8114183" lon="14.77281"><ele>184.5</ele><time>2026-03-28T06:59:30.481Z</time></trkpt><trkpt lat="40.8116267" lon="14.7729433"><ele>186.0</ele><time>2026-03-28T06:59:31.482Z</time></trkpt><trkpt lat="40.8118317" lon="14.7730867"><ele>186.0</ele><time>2026-03-28T06:59:32.482Z</time></trkpt><trkpt lat="40.8120333" lon="14.7732367"><ele>186.0</ele><time>2026-03-28T06:59:33.481Z</time></trkpt><trkpt lat="40.812235" lon="14.7733933"><ele>187.5</ele><time>2026-03-28T06:59:34.481Z</time></trkpt><trkpt lat="40.8124317" lon="14.77355"><ele>189.0</ele><time>2026-03-28T06:59:35.482Z</time></trkpt><trkpt lat="40.8126283" lon="14.773715"><ele>189.0</ele><time>2026-03-28T06:59:36.482Z</time></trkpt><trkpt lat="40.812825" lon="14.773885"><ele>189.0</ele><time>2026-03-28T06:59:37.482Z</time></trkpt><trkpt lat="40.813015" lon="14.7740667"><ele>189.0</ele><time>2026-03-28T06:59:38.482Z</time></trkpt><trkpt lat="40.8132083" lon="14.774255"><ele>189.0</ele><time>2026-03-28T06:59:39.482Z</time></trkpt><trkpt lat="40.8133983" lon="14.7744483"><ele>189.5</ele><time>2026-03-28T06:59:40.482Z</time></trkpt><trkpt lat="40.8135833" lon="14.7746483"><ele>190.0</ele><time>2026-03-28T06:59:41.481Z</time></trkpt><trkpt lat="40.8137733" lon="14.7748567"><ele>190.0</ele><time>2026-03-28T06:59:42.481Z</time></trkpt><trkpt lat="40.813955" lon="14.77507"><ele>190.0</ele><time>2026-03-28T06:59:43.481Z</time></trkpt><trkpt lat="40.814135" lon="14.77529"><ele>190.0</ele><time>2026-03-28T06:59:44.481Z</time></trkpt><trkpt lat="40.814305" lon="14.7755067"><ele>190.0</ele><time>2026-03-28T06:59:45.481Z</time></trkpt><trkpt lat="40.8144733" lon="14.7757367"><ele>190.0</ele><time>2026-03-28T06:59:46.481Z</time></trkpt><trkpt lat="40.81463" lon="14.7759733"><ele>190.0</ele><time>2026-03-28T06:59:47.482Z</time></trkpt><trkpt lat="40.81478" lon="14.7762183"><ele>191.5</ele><time>2026-03-28T06:59:48.482Z</time></trkpt><trkpt lat="40.814935" lon="14.7764617"><ele>193.0</ele><time>2026-03-28T06:59:49.482Z</time></trkpt><trkpt lat="40.8150817" lon="14.7767167"><ele>193.5</ele><time>2026-03-28T06:59:50.482Z</time></trkpt><trkpt lat="40.8152167" lon="14.7769717"><ele>194.0</ele><time>2026-03-28T06:59:51.481Z</time></trkpt><trkpt lat="40.81535" lon="14.7772333"><ele>194.0</ele><time>2026-03-28T06:59:52.482Z</time></trkpt><trkpt lat="40.815475" lon="14.777485"><ele>194.0</ele><time>2026-03-28T06:59:53.482Z</time></trkpt><trkpt lat="40.8155933" lon="14.7777383"><ele>196.0</ele><time>2026-03-28T06:59:54.482Z</time></trkpt><trkpt lat="40.8157067" lon="14.778"><ele>198.0</ele><time>2026-03-28T06:59:55.482Z</time></trkpt><trkpt lat="40.8158117" lon="14.7782667"><ele>198.0</ele><time>2026-03-28T06:59:56.482Z</time></trkpt><trkpt lat="40.81591" lon="14.7785383"><ele>198.0</ele><time>2026-03-28T06:59:57.481Z</time></trkpt><trkpt lat="40.815995" lon="14.7788233"><ele>198.0</ele><time>2026-03-28T06:59:58.481Z</time></trkpt><trkpt lat="40.81607" lon="14.7791083"><ele>198.0</ele><time>2026-03-28T06:59:59.481Z</time></trkpt><trkpt lat="40.8161417" lon="14.779405"><ele>199.0</ele><time>2026-03-28T07:00:00.481Z</time></trkpt><trkpt lat="40.8162083" lon="14.779705"><ele>200.0</ele><time>2026-03-28T07:00:01.482Z</time></trkpt><trkpt lat="40.8162767" lon="14.7800133"><ele>202.5</ele><time>2026-03-28T07:00:02.481Z</time></trkpt><trkpt lat="40.816335" lon="14.7803233"><ele>205.0</ele><time>2026-03-28T07:00:03.481Z</time></trkpt><trkpt lat="40.8163867" lon="14.7806467"><ele>205.0</ele><time>2026-03-28T07:00:04.481Z</time></trkpt><trkpt lat="40.81644" lon="14.7809483"><ele>205.0</ele><time>2026-03-28T07:00:05.481Z</time></trkpt><trkpt lat="40.816485" lon="14.78126"><ele>207.0</ele><time>2026-03-28T07:00:06.481Z</time></trkpt><trkpt lat="40.816525" lon="14.7815783"><ele>209.0</ele><time>2026-03-28T07:00:07.482Z</time></trkpt><trkpt lat="40.8165683" lon="14.7818967"><ele>210.5</ele><time>2026-03-28T07:00:08.481Z</time></trkpt><trkpt lat="40.8166033" lon="14.7822183"><ele>212.0</ele><time>2026-03-28T07:00:09.482Z</time></trkpt><trkpt lat="40.8166417" lon="14.7825433"><ele>213.0</ele><time>2026-03-28T07:00:10.481Z</time></trkpt><trkpt lat="40.8166783" lon="14.7828667"><ele>214.0</ele><time>2026-03-28T07:00:11.482Z</time></trkpt><trkpt lat="40.8167133" lon="14.7831867"><ele>214.0</ele><time>2026-03-28T07:00:12.482Z</time></trkpt><trkpt lat="40.8167433" lon="14.7835133"><ele>214.0</ele><time>2026-03-28T07:00:13.482Z</time></trkpt><trkpt lat="40.8167717" lon="14.7838383"><ele>214.5</ele><time>2026-03-28T07:00:14.482Z</time></trkpt><trkpt lat="40.8168083" lon="14.7841567"><ele>215.0</ele><time>2026-03-28T07:00:15.481Z</time></trkpt><trkpt lat="40.81684" lon="14.7844717"><ele>215.0</ele><time>2026-03-28T07:00:16.482Z</time></trkpt><trkpt lat="40.8168733" lon="14.7847833"><ele>215.0</ele><time>2026-03-28T07:00:17.482Z</time></trkpt><trkpt lat="40.816905" lon="14.7850883"><ele>215.0</ele><time>2026-03-28T07:00:18.482Z</time></trkpt><trkpt lat="40.8169267" lon="14.7853883"><ele>215.0</ele><time>2026-03-28T07:00:19.482Z</time></trkpt><trkpt lat="40.8169567" lon="14.78569"><ele>215.0</ele><time>2026-03-28T07:00:20.482Z</time></trkpt><trkpt lat="40.8169867" lon="14.7859933"><ele>215.0</ele><time>2026-03-28T07:00:21.481Z</time></trkpt><trkpt lat="40.81701" lon="14.7863"><ele>216.0</ele><time>2026-03-28T07:00:22.482Z</time></trkpt><trkpt lat="40.8170333" lon="14.78661"><ele>217.0</ele><time>2026-03-28T07:00:23.482Z</time></trkpt><trkpt lat="40.817065" lon="14.786925"><ele>218.5</ele><time>2026-03-28T07:00:24.481Z</time></trkpt><trkpt lat="40.81711" lon="14.78725"><ele>220.0</ele><time>2026-03-28T07:00:25.481Z</time></trkpt><trkpt lat="40.8171467" lon="14.7875617"><ele>220.0</ele><time>2026-03-28T07:00:26.482Z</time></trkpt><trkpt lat="40.8171767" lon="14.7878733"><ele>220.0</ele><time>2026-03-28T07:00:27.482Z</time></trkpt><trkpt lat="40.8172067" lon="14.7881967"><ele>219.5</ele><time>2026-03-28T07:00:28.481Z</time></trkpt><trkpt lat="40.81723" lon="14.7885167"><ele>219.0</ele><time>2026-03-28T07:00:29.482Z</time></trkpt><trkpt lat="40.81727" lon="14.7888317"><ele>219.0</ele><time>2026-03-28T07:00:30.482Z</time></trkpt><trkpt lat="40.817295" lon="14.789145"><ele>219.0</ele><time>2026-03-28T07:00:31.482Z</time></trkpt><trkpt lat="40.8173233" lon="14.7894583"><ele>221.5</ele><time>2026-03-28T07:00:32.482Z</time></trkpt><trkpt lat="40.8173533" lon="14.78977"><ele>224.0</ele><time>2026-03-28T07:00:33.482Z</time></trkpt><trkpt lat="40.817385" lon="14.7900817"><ele>225.0</ele><time>2026-03-28T07:00:34.481Z</time></trkpt><trkpt lat="40.8174117" lon="14.790395"><ele>226.0</ele><time>2026-03-28T07:00:35.481Z</time></trkpt><trkpt lat="40.8174433" lon="14.7907067"><ele>226.5</ele><time>2026-03-28T07:00:36.481Z</time></trkpt><trkpt lat="40.8174717" lon="14.7910183"><ele>227.0</ele><time>2026-03-28T07:00:37.481Z</time></trkpt><trkpt lat="40.8175033" lon="14.791335"><ele>227.0</ele><time>2026-03-28T07:00:38.481Z</time></trkpt><trkpt lat="40.817535" lon="14.7916517"><ele>227.0</ele><time>2026-03-28T07:00:39.482Z</time></trkpt><trkpt lat="40.8175633" lon="14.7919583"><ele>227.5</ele><time>2026-03-28T07:00:40.481Z</time></trkpt><trkpt lat="40.8175967" lon="14.7922683"><ele>228.0</ele><time>2026-03-28T07:00:41.482Z</time></trkpt><trkpt lat="40.8176383" lon="14.7925733"><ele>228.5</ele><time>2026-03-28T07:00:42.482Z</time></trkpt><trkpt lat="40.81768" lon="14.7928833"><ele>229.0</ele><time>2026-03-28T07:00:43.482Z</time></trkpt><trkpt lat="40.8177333" lon="14.7931917"><ele>229.0</ele><time>2026-03-28T07:00:44.482Z</time></trkpt><trkpt lat="40.8177917" lon="14.7934983"><ele>229.0</ele><time>2026-03-28T07:00:45.482Z</time></trkpt><trkpt lat="40.8178467" lon="14.7938033"><ele>228.5</ele><time>2026-03-28T07:00:46.482Z</time></trkpt><trkpt lat="40.8179183" lon="14.7941083"><ele>228.0</ele><time>2026-03-28T07:00:47.482Z</time></trkpt><trkpt lat="40.81799" lon="14.7944217"><ele>230.0</ele><time>2026-03-28T07:00:48.482Z</time></trkpt><trkpt lat="40.8180783" lon="14.7947267"><ele>232.0</ele><time>2026-03-28T07:00:49.483Z</time></trkpt><trkpt lat="40.81816" lon="14.7950367"><ele>235.5</ele><time>2026-03-28T07:00:50.483Z</time></trkpt><trkpt lat="40.81826" lon="14.7953433"><ele>239.0</ele><time>2026-03-28T07:00:51.483Z</time></trkpt><trkpt lat="40.81836" lon="14.79565"><ele>239.0</ele><time>2026-03-28T07:00:52.482Z</time></trkpt><trkpt lat="40.81846" lon="14.795945"><ele>239.0</ele><time>2026-03-28T07:00:53.483Z</time></trkpt><trkpt lat="40.8185533" lon="14.796235"><ele>238.0</ele><time>2026-03-28T07:00:54.483Z</time></trkpt><trkpt lat="40.8186467" lon="14.79653"><ele>237.0</ele><time>2026-03-28T07:00:55.483Z</time></trkpt><trkpt lat="40.8187383" lon="14.7968217"><ele>240.5</ele><time>2026-03-28T07:00:56.482Z</time></trkpt><trkpt lat="40.8188333" lon="14.7971167"><ele>244.0</ele><time>2026-03-28T07:00:57.483Z</time></trkpt><trkpt lat="40.8189317" lon="14.7974067"><ele>245.0</ele><time>2026-03-28T07:00:58.483Z</time></trkpt><trkpt lat="40.8190333" lon="14.7976983"><ele>246.0</ele><time>2026-03-28T07:00:59.483Z</time></trkpt><trkpt lat="40.8191283" lon="14.79799"><ele>246.0</ele><time>2026-03-28T07:01:00.483Z</time></trkpt><trkpt lat="40.819225" lon="14.79828"><ele>246.0</ele><time>2026-03-28T07:01:01.483Z</time></trkpt><trkpt lat="40.8193233" lon="14.7985717"><ele>245.5</ele><time>2026-03-28T07:01:02.483Z</time></trkpt><trkpt lat="40.819415" lon="14.7988617"><ele>245.0</ele><time>2026-03-28T07:01:03.483Z</time></trkpt><trkpt lat="40.8195133" lon="14.7991583"><ele>246.0</ele><time>2026-03-28T07:01:04.483Z</time></trkpt><trkpt lat="40.819615" lon="14.7994533"><ele>247.0</ele><time>2026-03-28T07:01:05.483Z</time></trkpt><trkpt lat="40.8197117" lon="14.7997483"><ele>247.0</ele><time>2026-03-28T07:01:06.483Z</time></trkpt><trkpt lat="40.8198083" lon="14.8000417"><ele>247.0</ele><time>2026-03-28T07:01:07.483Z</time></trkpt><trkpt lat="40.8199067" lon="14.8003317"><ele>247.5</ele><time>2026-03-28T07:01:08.483Z</time></trkpt><trkpt lat="40.8200017" lon="14.8006317"><ele>248.0</ele><time>2026-03-28T07:01:09.483Z</time></trkpt><trkpt lat="40.8201" lon="14.8009333"><ele>249.0</ele><time>2026-03-28T07:01:10.483Z</time></trkpt><trkpt lat="40.8201983" lon="14.8012317"><ele>250.0</ele><time>2026-03-28T07:01:11.482Z</time></trkpt><trkpt lat="40.8203" lon="14.80154"><ele>251.0</ele><time>2026-03-28T07:01:12.483Z</time></trkpt><trkpt lat="40.820405" lon="14.8018567"><ele>252.0</ele><time>2026-03-28T07:01:13.482Z</time></trkpt><trkpt lat="40.8205067" lon="14.8021717"><ele>252.0</ele><time>2026-03-28T07:01:14.483Z</time></trkpt><trkpt lat="40.820615" lon="14.8024817"><ele>252.0</ele><time>2026-03-28T07:01:15.482Z</time></trkpt><trkpt lat="40.820715" lon="14.80278"><ele>254.5</ele><time>2026-03-28T07:01:16.482Z</time></trkpt><trkpt lat="40.8208117" lon="14.8030617"><ele>257.0</ele><time>2026-03-28T07:01:17.483Z</time></trkpt><trkpt lat="40.82091" lon="14.8033383"><ele>257.5</ele><time>2026-03-28T07:01:18.483Z</time></trkpt><trkpt lat="40.821015" lon="14.8036183"><ele>258.0</ele><time>2026-03-28T07:01:19.483Z</time></trkpt><trkpt lat="40.8211217" lon="14.8039133"><ele>258.0</ele><time>2026-03-28T07:01:20.482Z</time></trkpt><trkpt lat="40.8212183" lon="14.804205"><ele>258.0</ele><time>2026-03-28T07:01:21.482Z</time></trkpt><trkpt lat="40.8213217" lon="14.8044917"><ele>261.0</ele><time>2026-03-28T07:01:22.483Z</time></trkpt><trkpt lat="40.8214217" lon="14.8047733"><ele>264.0</ele><time>2026-03-28T07:01:23.482Z</time></trkpt><trkpt lat="40.82153" lon="14.8050583"><ele>265.5</ele><time>2026-03-28T07:01:24.482Z</time></trkpt><trkpt lat="40.8216383" lon="14.80534"><ele>267.0</ele><time>2026-03-28T07:01:25.483Z</time></trkpt><trkpt lat="40.8217483" lon="14.80562"><ele>266.0</ele><time>2026-03-28T07:01:26.482Z</time></trkpt><trkpt lat="40.8218717" lon="14.8058933"><ele>265.0</ele><time>2026-03-28T07:01:27.483Z</time></trkpt><trkpt lat="40.8219983" lon="14.8061617"><ele>265.0</ele><time>2026-03-28T07:01:28.482Z</time></trkpt><trkpt lat="40.8221283" lon="14.8064317"><ele>265.0</ele><time>2026-03-28T07:01:29.483Z</time></trkpt><trkpt lat="40.8222583" lon="14.806695"><ele>268.0</ele><time>2026-03-28T07:01:30.483Z</time></trkpt><trkpt lat="40.8223967" lon="14.8069583"><ele>271.0</ele><time>2026-03-28T07:01:31.483Z</time></trkpt><trkpt lat="40.8225333" lon="14.8072033"><ele>271.0</ele><time>2026-03-28T07:01:32.482Z</time></trkpt><trkpt lat="40.8226683" lon="14.8074367"><ele>271.0</ele><time>2026-03-28T07:01:33.483Z</time></trkpt><trkpt lat="40.8228" lon="14.80767"><ele>271.0</ele><time>2026-03-28T07:01:34.483Z</time></trkpt><trkpt lat="40.8229367" lon="14.807905"><ele>271.0</ele><time>2026-03-28T07:01:35.482Z</time></trkpt><trkpt lat="40.8230817" lon="14.8081267"><ele>271.0</ele><time>2026-03-28T07:01:36.483Z</time></trkpt><trkpt lat="40.82323" lon="14.8083467"><ele>271.0</ele><time>2026-03-28T07:01:37.482Z</time></trkpt><trkpt lat="40.823385" lon="14.80856"><ele>272.66666666666663</ele><time>2026-03-28T07:01:38.482Z</time></trkpt><trkpt lat="40.8235383" lon="14.808765"><ele>274.3333333333333</ele><time>2026-03-28T07:01:39.482Z</time></trkpt><trkpt lat="40.8236967" lon="14.8089783"><ele>276.0</ele><time>2026-03-28T07:01:40.483Z</time></trkpt><trkpt lat="40.8238567" lon="14.80919"><ele>278.0</ele><time>2026-03-28T07:01:41.482Z</time></trkpt><trkpt lat="40.8240133" lon="14.8094017"><ele>280.0</ele><time>2026-03-28T07:01:42.483Z</time></trkpt><trkpt lat="40.8241717" lon="14.8096167"><ele>277.5</ele><time>2026-03-28T07:01:43.482Z</time></trkpt><trkpt lat="40.824325" lon="14.8098367"><ele>275.0</ele><time>2026-03-28T07:01:44.483Z</time></trkpt><trkpt lat="40.8244833" lon="14.8100567"><ele>276.0</ele><time>2026-03-28T07:01:45.483Z</time></trkpt><trkpt lat="40.8246433" lon="14.810275"><ele>277.0</ele><time>2026-03-28T07:01:46.483Z</time></trkpt><trkpt lat="40.8248083" lon="14.8105017"><ele>277.0</ele><time>2026-03-28T07:01:47.483Z</time></trkpt><trkpt lat="40.8249683" lon="14.8107233"><ele>277.0</ele><time>2026-03-28T07:01:48.483Z</time></trkpt><trkpt lat="40.8251283" lon="14.8109483"><ele>276.0</ele><time>2026-03-28T07:01:49.482Z</time></trkpt><trkpt lat="40.8252883" lon="14.8111617"><ele>275.0</ele><time>2026-03-28T07:01:50.482Z</time></trkpt><trkpt lat="40.8254433" lon="14.8113683"><ele>274.0</ele><time>2026-03-28T07:01:51.483Z</time></trkpt><trkpt lat="40.8255967" lon="14.8115733"><ele>274.0</ele><time>2026-03-28T07:01:52.482Z</time></trkpt><trkpt lat="40.82575" lon="14.8117817"><ele>274.0</ele><time>2026-03-28T07:01:53.483Z</time></trkpt><trkpt lat="40.8259" lon="14.8119917"><ele>274.0</ele><time>2026-03-28T07:01:54.482Z</time></trkpt><trkpt lat="40.826055" lon="14.8121983"><ele>274.0</ele><time>2026-03-28T07:01:55.482Z</time></trkpt><trkpt lat="40.826205" lon="14.8123967"><ele>274.0</ele><time>2026-03-28T07:01:56.482Z</time></trkpt><trkpt lat="40.8263483" lon="14.812595"><ele>274.0</ele><time>2026-03-28T07:01:57.482Z</time></trkpt><trkpt lat="40.8264883" lon="14.812795"><ele>274.3333333333333</ele><time>2026-03-28T07:01:58.483Z</time></trkpt><trkpt lat="40.82663" lon="14.8129883"><ele>274.6666666666667</ele><time>2026-03-28T07:01:59.483Z</time></trkpt><trkpt lat="40.8267767" lon="14.8131883"><ele>275.0</ele><time>2026-03-28T07:02:00.482Z</time></trkpt><trkpt lat="40.8269283" lon="14.8133933"><ele>275.6666666666667</ele><time>2026-03-28T07:02:01.482Z</time></trkpt><trkpt lat="40.8270767" lon="14.8136017"><ele>276.3333333333333</ele><time>2026-03-28T07:02:02.483Z</time></trkpt><trkpt lat="40.8272283" lon="14.813805"><ele>277.0</ele><time>2026-03-28T07:02:03.483Z</time></trkpt><trkpt lat="40.8273717" lon="14.814015"><ele>277.0</ele><time>2026-03-28T07:02:04.482Z</time></trkpt><trkpt lat="40.8275217" lon="14.81422"><ele>277.0</ele><time>2026-03-28T07:02:05.482Z</time></trkpt><trkpt lat="40.8276633" lon="14.8144183"><ele>277.0</ele><time>2026-03-28T07:02:06.483Z</time></trkpt><trkpt lat="40.8277983" lon="14.8146067"><ele>278.3333333333333</ele><time>2026-03-28T07:02:07.482Z</time></trkpt><trkpt lat="40.827935" lon="14.81479"><ele>279.6666666666667</ele><time>2026-03-28T07:02:08.482Z</time></trkpt><trkpt lat="40.8280667" lon="14.8149667"><ele>281.0</ele><time>2026-03-28T07:02:09.482Z</time></trkpt><trkpt lat="40.82819" lon="14.815135"><ele>282.0</ele><time>2026-03-28T07:02:10.483Z</time></trkpt><trkpt lat="40.828315" lon="14.8153067"><ele>283.0</ele><time>2026-03-28T07:02:11.483Z</time></trkpt><trkpt lat="40.828435" lon="14.8154767"><ele>284.0</ele><time>2026-03-28T07:02:12.482Z</time></trkpt><trkpt lat="40.8285617" lon="14.8156517"><ele>284.0</ele><time>2026-03-28T07:02:13.482Z</time></trkpt><trkpt lat="40.828685" lon="14.8158233"><ele>284.0</ele><time>2026-03-28T07:02:14.483Z</time></trkpt><trkpt lat="40.828805" lon="14.815985"><ele>284.0</ele><time>2026-03-28T07:02:15.482Z</time></trkpt><trkpt lat="40.8289217" lon="14.81614"><ele>284.33333333333337</ele><time>2026-03-28T07:02:16.483Z</time></trkpt><trkpt lat="40.8290383" lon="14.8162933"><ele>284.6666666666667</ele><time>2026-03-28T07:02:17.483Z</time></trkpt><trkpt lat="40.82915" lon="14.81645"><ele>285.0</ele><time>2026-03-28T07:02:18.483Z</time></trkpt><trkpt lat="40.8292683" lon="14.8166167"><ele>285.3333333333333</ele><time>2026-03-28T07:02:19.483Z</time></trkpt><trkpt lat="40.8293967" lon="14.81679"><ele>285.66666666666663</ele><time>2026-03-28T07:02:20.483Z</time></trkpt><trkpt lat="40.8295333" lon="14.8169683"><ele>286.0</ele><time>2026-03-28T07:02:21.483Z</time></trkpt><trkpt lat="40.82968" lon="14.8171567"><ele>286.0</ele><time>2026-03-28T07:02:22.483Z</time></trkpt><trkpt lat="40.8298367" lon="14.817345"><ele>286.0</ele><time>2026-03-28T07:02:23.483Z</time></trkpt><trkpt lat="40.82999" lon="14.8175467"><ele>286.0</ele><time>2026-03-28T07:02:24.483Z</time></trkpt><trkpt lat="40.830145" lon="14.817755"><ele>286.5</ele><time>2026-03-28T07:02:25.483Z</time></trkpt><trkpt lat="40.8303067" lon="14.81797"><ele>287.0</ele><time>2026-03-28T07:02:26.482Z</time></trkpt><trkpt lat="40.830475" lon="14.8181933"><ele>287.0</ele><time>2026-03-28T07:02:27.483Z</time></trkpt><trkpt lat="40.8306467" lon="14.818435"><ele>287.0</ele><time>2026-03-28T07:02:28.483Z</time></trkpt><trkpt lat="40.8308117" lon="14.8186567"><ele>288.5</ele><time>2026-03-28T07:02:29.483Z</time></trkpt><trkpt lat="40.8309733" lon="14.8188783"><ele>290.0</ele><time>2026-03-28T07:02:30.482Z</time></trkpt><trkpt lat="40.8311317" lon="14.8191017"><ele>292.0</ele><time>2026-03-28T07:02:31.483Z</time></trkpt><trkpt lat="40.8312917" lon="14.8193217"><ele>294.0</ele><time>2026-03-28T07:02:32.482Z</time></trkpt><trkpt lat="40.831445" lon="14.8195433"><ele>294.0</ele><time>2026-03-28T07:02:33.483Z</time></trkpt><trkpt lat="40.8316033" lon="14.8197633"><ele>294.0</ele><time>2026-03-28T07:02:34.482Z</time></trkpt><trkpt lat="40.83176" lon="14.8199833"><ele>295.0</ele><time>2026-03-28T07:02:35.482Z</time></trkpt><trkpt lat="40.8319133" lon="14.8202167"><ele>296.0</ele><time>2026-03-28T07:02:36.482Z</time></trkpt><trkpt lat="40.832055" lon="14.8204583"><ele>296.0</ele><time>2026-03-28T07:02:37.483Z</time></trkpt><trkpt lat="40.8321967" lon="14.8207083"><ele>296.0</ele><time>2026-03-28T07:02:38.483Z</time></trkpt><trkpt lat="40.83233" lon="14.8209667"><ele>296.5</ele><time>2026-03-28T07:02:39.483Z</time></trkpt><trkpt lat="40.8324633" lon="14.8212333"><ele>297.0</ele><time>2026-03-28T07:02:40.482Z</time></trkpt><trkpt lat="40.8325917" lon="14.8215017"><ele>298.0</ele><time>2026-03-28T07:02:41.483Z</time></trkpt><trkpt lat="40.8327167" lon="14.8217717"><ele>299.0</ele><time>2026-03-28T07:02:42.483Z</time></trkpt><trkpt lat="40.832835" lon="14.8220417"><ele>300.5</ele><time>2026-03-28T07:02:43.483Z</time></trkpt><trkpt lat="40.83294" lon="14.8223117"><ele>302.0</ele><time>2026-03-28T07:02:44.482Z</time></trkpt><trkpt lat="40.8330433" lon="14.8225933"><ele>303.5</ele><time>2026-03-28T07:02:45.483Z</time></trkpt><trkpt lat="40.8331383" lon="14.8228733"><ele>305.0</ele><time>2026-03-28T07:02:46.482Z</time></trkpt><trkpt lat="40.8332317" lon="14.82316"><ele>305.0</ele><time>2026-03-28T07:02:47.483Z</time></trkpt><trkpt lat="40.83332" lon="14.8234533"><ele>305.0</ele><time>2026-03-28T07:02:48.483Z</time></trkpt><trkpt lat="40.8334083" lon="14.8237467"><ele>307.5</ele><time>2026-03-28T07:02:49.483Z</time></trkpt><trkpt lat="40.83349" lon="14.8240433"><ele>310.0</ele><time>2026-03-28T07:02:50.482Z</time></trkpt><trkpt lat="40.833565" lon="14.8243483"><ele>310.5</ele><time>2026-03-28T07:02:51.482Z</time></trkpt><trkpt lat="40.8336317" lon="14.8246633"><ele>311.0</ele><time>2026-03-28T07:02:52.483Z</time></trkpt><trkpt lat="40.83369" lon="14.8249783"><ele>311.0</ele><time>2026-03-28T07:02:53.483Z</time></trkpt><trkpt lat="40.8337417" lon="14.8252933"><ele>311.0</ele><time>2026-03-28T07:02:54.483Z</time></trkpt><trkpt lat="40.8337867" lon="14.825605"><ele>311.0</ele><time>2026-03-28T07:02:55.483Z</time></trkpt><trkpt lat="40.833825" lon="14.8259133"><ele>311.0</ele><time>2026-03-28T07:02:56.483Z</time></trkpt><trkpt lat="40.833855" lon="14.8262167"><ele>313.0</ele><time>2026-03-28T07:02:57.483Z</time></trkpt><trkpt lat="40.833885" lon="14.8265167"><ele>315.0</ele><time>2026-03-28T07:02:58.482Z</time></trkpt><trkpt lat="40.8339033" lon="14.8268233"><ele>315.5</ele><time>2026-03-28T07:02:59.482Z</time></trkpt><trkpt lat="40.833915" lon="14.8271367"><ele>316.0</ele><time>2026-03-28T07:03:00.483Z</time></trkpt><trkpt lat="40.8339217" lon="14.827455"><ele>317.5</ele><time>2026-03-28T07:03:01.483Z</time></trkpt><trkpt lat="40.8339217" lon="14.82777"><ele>319.0</ele><time>2026-03-28T07:03:02.482Z</time></trkpt><trkpt lat="40.83392" lon="14.8280783"><ele>319.0</ele><time>2026-03-28T07:03:03.483Z</time></trkpt><trkpt lat="40.83391" lon="14.82839"><ele>319.0</ele><time>2026-03-28T07:03:04.483Z</time></trkpt><trkpt lat="40.833895" lon="14.8287"><ele>320.0</ele><time>2026-03-28T07:03:05.483Z</time></trkpt><trkpt lat="40.8338767" lon="14.8290183"><ele>321.0</ele><time>2026-03-28T07:03:06.483Z</time></trkpt><trkpt lat="40.8338583" lon="14.8293367"><ele>321.5</ele><time>2026-03-28T07:03:07.482Z</time></trkpt><trkpt lat="40.8338383" lon="14.8296433"><ele>322.0</ele><time>2026-03-28T07:03:08.482Z</time></trkpt><trkpt lat="40.8338117" lon="14.8299317"><ele>322.66666666666663</ele><time>2026-03-28T07:03:09.483Z</time></trkpt><trkpt lat="40.8337933" lon="14.8302"><ele>323.3333333333333</ele><time>2026-03-28T07:03:10.482Z</time></trkpt><trkpt lat="40.8337767" lon="14.8304583"><ele>324.0</ele><time>2026-03-28T07:03:11.482Z</time></trkpt><trkpt lat="40.8337567" lon="14.8307183"><ele>325.3333333333333</ele><time>2026-03-28T07:03:12.483Z</time></trkpt><trkpt lat="40.8337383" lon="14.8309817"><ele>326.66666666666663</ele><time>2026-03-28T07:03:13.482Z</time></trkpt><trkpt lat="40.833715" lon="14.8312517"><ele>328.0</ele><time>2026-03-28T07:03:14.483Z</time></trkpt><trkpt lat="40.8336917" lon="14.831525"><ele>328.0</ele><time>2026-03-28T07:03:15.483Z</time></trkpt><trkpt lat="40.8336733" lon="14.8318033"><ele>328.0</ele><time>2026-03-28T07:03:16.483Z</time></trkpt><trkpt lat="40.8336533" lon="14.8320817"><ele>328.0</ele><time>2026-03-28T07:03:17.483Z</time></trkpt><trkpt lat="40.8336367" lon="14.8323567"><ele>328.66666666666663</ele><time>2026-03-28T07:03:18.482Z</time></trkpt><trkpt lat="40.833615" lon="14.8326367"><ele>329.3333333333333</ele><time>2026-03-28T07:03:19.483Z</time></trkpt><trkpt lat="40.8336017" lon="14.83291"><ele>330.0</ele><time>2026-03-28T07:03:20.483Z</time></trkpt><trkpt lat="40.8335933" lon="14.83318"><ele>331.0</ele><time>2026-03-28T07:03:21.482Z</time></trkpt><trkpt lat="40.8335917" lon="14.8334467"><ele>332.0</ele><time>2026-03-28T07:03:22.482Z</time></trkpt><trkpt lat="40.833585" lon="14.8337133"><ele>333.0</ele><time>2026-03-28T07:03:23.483Z</time></trkpt><trkpt lat="40.83358" lon="14.8339883"><ele>335.3333333333333</ele><time>2026-03-28T07:03:24.482Z</time></trkpt><trkpt lat="40.8335917" lon="14.8342583"><ele>337.66666666666663</ele><time>2026-03-28T07:03:25.483Z</time></trkpt><trkpt lat="40.8336017" lon="14.83453"><ele>340.0</ele><time>2026-03-28T07:03:26.482Z</time></trkpt><trkpt lat="40.8336267" lon="14.834795"><ele>343.0</ele><time>2026-03-28T07:03:27.482Z</time></trkpt><trkpt lat="40.8336583" lon="14.8350633"><ele>346.0</ele><time>2026-03-28T07:03:28.483Z</time></trkpt><trkpt lat="40.833695" lon="14.8353183"><ele>349.0</ele><time>2026-03-28T07:03:29.483Z</time></trkpt><trkpt lat="40.8337367" lon="14.83557"><ele>349.0</ele><time>2026-03-28T07:03:30.483Z</time></trkpt><trkpt lat="40.8337883" lon="14.8358233"><ele>349.0</ele><time>2026-03-28T07:03:31.483Z</time></trkpt><trkpt lat="40.83384" lon="14.8360717"><ele>349.0</ele><time>2026-03-28T07:03:32.483Z</time></trkpt><trkpt lat="40.8338883" lon="14.8363133"><ele>348.3333333333333</ele><time>2026-03-28T07:03:33.483Z</time></trkpt><trkpt lat="40.8339517" lon="14.8365533"><ele>347.6666666666667</ele><time>2026-03-28T07:03:34.483Z</time></trkpt><trkpt lat="40.8340217" lon="14.8367933"><ele>347.0</ele><time>2026-03-28T07:03:35.482Z</time></trkpt><trkpt lat="40.8340983" lon="14.8370317"><ele>348.33333333333337</ele><time>2026-03-28T07:03:36.483Z</time></trkpt><trkpt lat="40.8341867" lon="14.8372617"><ele>349.6666666666667</ele><time>2026-03-28T07:03:37.482Z</time></trkpt><trkpt lat="40.83428" lon="14.8374983"><ele>351.0</ele><time>2026-03-28T07:03:38.483Z</time></trkpt><trkpt lat="40.83438" lon="14.83773"><ele>351.6666666666667</ele><time>2026-03-28T07:03:39.483Z</time></trkpt><trkpt lat="40.83448" lon="14.8379617"><ele>352.33333333333337</ele><time>2026-03-28T07:03:40.483Z</time></trkpt><trkpt lat="40.83459" lon="14.8381867"><ele>353.0</ele><time>2026-03-28T07:03:41.482Z</time></trkpt><trkpt lat="40.834705" lon="14.8384067"><ele>354.33333333333337</ele><time>2026-03-28T07:03:42.482Z</time></trkpt><trkpt lat="40.8348267" lon="14.8386233"><ele>355.6666666666667</ele><time>2026-03-28T07:03:43.483Z</time></trkpt><trkpt lat="40.834955" lon="14.8388333"><ele>357.0</ele><time>2026-03-28T07:03:44.482Z</time></trkpt><trkpt lat="40.8350883" lon="14.8390433"><ele>358.0</ele><time>2026-03-28T07:03:45.482Z</time></trkpt><trkpt lat="40.8352267" lon="14.8392417"><ele>359.0</ele><time>2026-03-28T07:03:46.482Z</time></trkpt><trkpt lat="40.8353717" lon="14.8394333"><ele>360.0</ele><time>2026-03-28T07:03:47.483Z</time></trkpt><trkpt lat="40.835515" lon="14.83963"><ele>360.0</ele><time>2026-03-28T07:03:48.483Z</time></trkpt><trkpt lat="40.8356617" lon="14.8398267"><ele>360.0</ele><time>2026-03-28T07:03:49.482Z</time></trkpt><trkpt lat="40.8358133" lon="14.840025"><ele>360.0</ele><time>2026-03-28T07:03:50.482Z</time></trkpt><trkpt lat="40.83596" lon="14.8402083"><ele>361.0</ele><time>2026-03-28T07:03:51.482Z</time></trkpt><trkpt lat="40.8360967" lon="14.840385"><ele>362.0</ele><time>2026-03-28T07:03:52.482Z</time></trkpt><trkpt lat="40.83624" lon="14.8405567"><ele>363.0</ele><time>2026-03-28T07:03:53.483Z</time></trkpt><trkpt lat="40.8363883" lon="14.8407233"><ele>363.0</ele><time>2026-03-28T07:03:54.482Z</time></trkpt><trkpt lat="40.8365383" lon="14.8408783"><ele>363.0</ele><time>2026-03-28T07:03:55.483Z</time></trkpt><trkpt lat="40.8366867" lon="14.84103"><ele>363.0</ele><time>2026-03-28T07:03:56.482Z</time></trkpt><trkpt lat="40.83684" lon="14.8411783"><ele>370.0</ele><time>2026-03-28T07:03:57.482Z</time></trkpt><trkpt lat="40.8369933" lon="14.8413317"><ele>377.0</ele><time>2026-03-28T07:03:58.483Z</time></trkpt><trkpt lat="40.8371517" lon="14.84147"><ele>384.0</ele><time>2026-03-28T07:03:59.482Z</time></trkpt><trkpt lat="40.8373117" lon="14.8416267"><ele>384.0</ele><time>2026-03-28T07:04:00.482Z</time></trkpt><trkpt lat="40.8374683" lon="14.8417767"><ele>384.0</ele><time>2026-03-28T07:04:01.482Z</time></trkpt><trkpt lat="40.8376267" lon="14.841925"><ele>384.0</ele><time>2026-03-28T07:04:02.483Z</time></trkpt><trkpt lat="40.8377833" lon="14.8420767"><ele>406.0</ele><time>2026-03-28T07:04:03.483Z</time></trkpt><trkpt lat="40.85424" lon="14.8567733"><ele>404.0</ele><time>2026-03-28T07:06:29.481Z</time></trkpt><trkpt lat="40.85439" lon="14.856835"><ele>402.0</ele><time>2026-03-28T07:06:30.481Z</time></trkpt><trkpt lat="40.8545133" lon="14.8569033"><ele>400.0</ele><time>2026-03-28T07:06:31.481Z</time></trkpt><trkpt lat="40.854635" lon="14.8570017"><ele>398.0</ele><time>2026-03-28T07:06:32.482Z</time></trkpt><trkpt lat="40.8547683" lon="14.857085"><ele>398.0</ele><time>2026-03-28T07:06:33.482Z</time></trkpt><trkpt lat="40.8548917" lon="14.8571567"><ele>398.0</ele><time>2026-03-28T07:06:34.482Z</time></trkpt><trkpt lat="40.8550183" lon="14.8572217"><ele>398.0</ele><time>2026-03-28T07:06:35.482Z</time></trkpt><trkpt lat="40.85515" lon="14.8573"><ele>398.0</ele><time>2026-03-28T07:06:36.481Z</time></trkpt><trkpt lat="40.855285" lon="14.85737"><ele>397.25</ele><time>2026-03-28T07:06:37.482Z</time></trkpt><trkpt lat="40.855425" lon="14.85744"><ele>396.5</ele><time>2026-03-28T07:06:38.482Z</time></trkpt><trkpt lat="40.8555633" lon="14.857505"><ele>395.75</ele><time>2026-03-28T07:06:39.481Z</time></trkpt><trkpt lat="40.8557033" lon="14.857565"><ele>395.0</ele><time>2026-03-28T07:06:40.482Z</time></trkpt><trkpt lat="40.855835" lon="14.8576233"><ele>393.25</ele><time>2026-03-28T07:06:41.482Z</time></trkpt><trkpt lat="40.8559783" lon="14.85768"><ele>391.5</ele><time>2026-03-28T07:06:42.481Z</time></trkpt><trkpt lat="40.85612" lon="14.857735"><ele>389.75</ele><time>2026-03-28T07:06:43.481Z</time></trkpt><trkpt lat="40.8562467" lon="14.8577867"><ele>388.0</ele><time>2026-03-28T07:06:44.482Z</time></trkpt><trkpt lat="40.85636" lon="14.8578283"><ele>388.0</ele><time>2026-03-28T07:06:45.481Z</time></trkpt><trkpt lat="40.8564667" lon="14.8578733"><ele>388.0</ele><time>2026-03-28T07:06:46.482Z</time></trkpt><trkpt lat="40.8565683" lon="14.8579133"><ele>388.0</ele><time>2026-03-28T07:06:47.482Z</time></trkpt><trkpt lat="40.8566667" lon="14.857955"><ele>388.0</ele><time>2026-03-28T07:06:48.482Z</time></trkpt><trkpt lat="40.8567733" lon="14.857995"><ele>388.0</ele><time>2026-03-28T07:06:49.481Z</time></trkpt><trkpt lat="40.8568867" lon="14.8580417"><ele>387.25</ele><time>2026-03-28T07:06:50.482Z</time></trkpt><trkpt lat="40.8570117" lon="14.8580883"><ele>386.5</ele><time>2026-03-28T07:06:51.482Z</time></trkpt><trkpt lat="40.8571417" lon="14.8581433"><ele>385.75</ele><time>2026-03-28T07:06:52.482Z</time></trkpt><trkpt lat="40.857275" lon="14.8582"><ele>385.0</ele><time>2026-03-28T07:06:53.482Z</time></trkpt><trkpt lat="40.8574217" lon="14.8582583"><ele>385.0</ele><time>2026-03-28T07:06:54.481Z</time></trkpt><trkpt lat="40.85757" lon="14.8583217"><ele>385.0</ele><time>2026-03-28T07:06:55.482Z</time></trkpt><trkpt lat="40.8577217" lon="14.8583883"><ele>385.0</ele><time>2026-03-28T07:06:56.481Z</time></trkpt><trkpt lat="40.857885" lon="14.8584567"><ele>386.0</ele><time>2026-03-28T07:06:57.482Z</time></trkpt><trkpt lat="40.85804" lon="14.8585167"><ele>387.0</ele><time>2026-03-28T07:06:58.482Z</time></trkpt><trkpt lat="40.8581933" lon="14.85858"><ele>388.0</ele><time>2026-03-28T07:06:59.482Z</time></trkpt><trkpt lat="40.8583483" lon="14.8586367"><ele>385.6666666666667</ele><time>2026-03-28T07:07:00.482Z</time></trkpt><trkpt lat="40.858505" lon="14.858705"><ele>383.33333333333337</ele><time>2026-03-28T07:07:01.482Z</time></trkpt><trkpt lat="40.8586583" lon="14.8587683"><ele>381.0</ele><time>2026-03-28T07:07:02.482Z</time></trkpt><trkpt lat="40.8588083" lon="14.8588233"><ele>381.0</ele><time>2026-03-28T07:07:03.481Z</time></trkpt><trkpt lat="40.85894" lon="14.8588767"><ele>381.0</ele><time>2026-03-28T07:07:04.482Z</time></trkpt><trkpt lat="40.85908" lon="14.858935"><ele>381.0</ele><time>2026-03-28T07:07:05.482Z</time></trkpt><trkpt lat="40.8592183" lon="14.85899"><ele>381.0</ele><time>2026-03-28T07:07:06.481Z</time></trkpt><trkpt lat="40.85936" lon="14.859045"><ele>379.6666666666667</ele><time>2026-03-28T07:07:07.482Z</time></trkpt><trkpt lat="40.8595083" lon="14.8591067"><ele>378.33333333333337</ele><time>2026-03-28T07:07:08.482Z</time></trkpt><trkpt lat="40.85966" lon="14.8591683"><ele>377.0</ele><time>2026-03-28T07:07:09.482Z</time></trkpt><trkpt lat="40.8598167" lon="14.8592267"><ele>376.6666666666667</ele><time>2026-03-28T07:07:10.482Z</time></trkpt><trkpt lat="40.85997" lon="14.8592883"><ele>376.3333333333333</ele><time>2026-03-28T07:07:11.482Z</time></trkpt><trkpt lat="40.8601267" lon="14.859345"><ele>376.0</ele><time>2026-03-28T07:07:12.481Z</time></trkpt><trkpt lat="40.86029" lon="14.8594033"><ele>376.0</ele><time>2026-03-28T07:07:13.482Z</time></trkpt><trkpt lat="40.8604483" lon="14.8594483"><ele>376.0</ele><time>2026-03-28T07:07:14.481Z</time></trkpt><trkpt lat="40.8606033" lon="14.8594883"><ele>376.0</ele><time>2026-03-28T07:07:15.482Z</time></trkpt><trkpt lat="40.860765" lon="14.8595217"><ele>376.0</ele><time>2026-03-28T07:07:16.481Z</time></trkpt><trkpt lat="40.8609267" lon="14.8595583"><ele>376.0</ele><time>2026-03-28T07:07:17.481Z</time></trkpt><trkpt lat="40.8610967" lon="14.8595833"><ele>376.0</ele><time>2026-03-28T07:07:18.481Z</time></trkpt><trkpt lat="40.861275" lon="14.8596117"><ele>375.0</ele><time>2026-03-28T07:07:19.482Z</time></trkpt><trkpt lat="40.86145" lon="14.8596283"><ele>374.0</ele><time>2026-03-28T07:07:20.482Z</time></trkpt><trkpt lat="40.8616183" lon="14.8596317"><ele>373.0</ele><time>2026-03-28T07:07:21.481Z</time></trkpt><trkpt lat="40.8618033" lon="14.8596283"><ele>373.0</ele><time>2026-03-28T07:07:22.482Z</time></trkpt><trkpt lat="40.8619867" lon="14.85962"><ele>373.0</ele><time>2026-03-28T07:07:23.482Z</time></trkpt><trkpt lat="40.8621717" lon="14.85961"><ele>373.0</ele><time>2026-03-28T07:07:24.482Z</time></trkpt><trkpt lat="40.8623633" lon="14.85959"><ele>373.0</ele><time>2026-03-28T07:07:25.481Z</time></trkpt><trkpt lat="40.862555" lon="14.8595583"><ele>373.0</ele><time>2026-03-28T07:07:26.482Z</time></trkpt><trkpt lat="40.8627467" lon="14.8595233"><ele>373.0</ele><time>2026-03-28T07:07:27.482Z</time></trkpt><trkpt lat="40.86294" lon="14.8594717"><ele>373.66666666666663</ele><time>2026-03-28T07:07:28.482Z</time></trkpt><trkpt lat="40.8631283" lon="14.85941"><ele>374.3333333333333</ele><time>2026-03-28T07:07:29.481Z</time></trkpt><trkpt lat="40.8633183" lon="14.859335"><ele>375.0</ele><time>2026-03-28T07:07:30.481Z</time></trkpt><trkpt lat="40.8635" lon="14.859255"><ele>375.0</ele><time>2026-03-28T07:07:31.482Z</time></trkpt><trkpt lat="40.8636783" lon="14.8591783"><ele>375.0</ele><time>2026-03-28T07:07:32.482Z</time></trkpt><trkpt lat="40.8638567" lon="14.8591"><ele>375.0</ele><time>2026-03-28T07:07:33.481Z</time></trkpt><trkpt lat="40.8640317" lon="14.85901"><ele>375.0</ele><time>2026-03-28T07:07:34.482Z</time></trkpt><trkpt lat="40.8642" lon="14.8588983"><ele>375.0</ele><time>2026-03-28T07:07:35.482Z</time></trkpt><trkpt lat="40.8643667" lon="14.85879"><ele>375.0</ele><time>2026-03-28T07:07:36.481Z</time></trkpt><trkpt lat="40.8645333" lon="14.85867"><ele>375.0</ele><time>2026-03-28T07:07:37.482Z</time></trkpt><trkpt lat="40.86469" lon="14.8585583"><ele>375.0</ele><time>2026-03-28T07:07:38.482Z</time></trkpt><trkpt lat="40.86484" lon="14.8584533"><ele>375.0</ele><time>2026-03-28T07:07:39.482Z</time></trkpt><trkpt lat="40.8649883" lon="14.8583483"><ele>373.0</ele><time>2026-03-28T07:07:40.482Z</time></trkpt><trkpt lat="40.8651383" lon="14.8582517"><ele>371.0</ele><time>2026-03-28T07:07:41.481Z</time></trkpt><trkpt lat="40.8652883" lon="14.85815"><ele>369.0</ele><time>2026-03-28T07:07:42.482Z</time></trkpt><trkpt lat="40.86545" lon="14.858055"><ele>369.0</ele><time>2026-03-28T07:07:43.482Z</time></trkpt><trkpt lat="40.865605" lon="14.8579567"><ele>369.0</ele><time>2026-03-28T07:07:44.481Z</time></trkpt><trkpt lat="40.865765" lon="14.857855"><ele>369.0</ele><time>2026-03-28T07:07:45.482Z</time></trkpt><trkpt lat="40.8659283" lon="14.85775"><ele>368.6666666666667</ele><time>2026-03-28T07:07:46.482Z</time></trkpt><trkpt lat="40.866075" lon="14.857625"><ele>368.33333333333337</ele><time>2026-03-28T07:07:47.482Z</time></trkpt><trkpt lat="40.8662267" lon="14.8575033"><ele>368.0</ele><time>2026-03-28T07:07:48.481Z</time></trkpt><trkpt lat="40.866385" lon="14.8573967"><ele>366.33333333333337</ele><time>2026-03-28T07:07:49.482Z</time></trkpt><trkpt lat="40.8665483" lon="14.8572833"><ele>364.6666666666667</ele><time>2026-03-28T07:07:50.482Z</time></trkpt><trkpt lat="40.866715" lon="14.8571733"><ele>363.0</ele><time>2026-03-28T07:07:51.482Z</time></trkpt><trkpt lat="40.8668733" lon="14.8570633"><ele>363.0</ele><time>2026-03-28T07:07:52.481Z</time></trkpt><trkpt lat="40.867035" lon="14.8569383"><ele>363.0</ele><time>2026-03-28T07:07:53.481Z</time></trkpt><trkpt lat="40.8671867" lon="14.85683"><ele>363.0</ele><time>2026-03-28T07:07:54.482Z</time></trkpt><trkpt lat="40.8673367" lon="14.8567267"><ele>363.0</ele><time>2026-03-28T07:07:55.481Z</time></trkpt><trkpt lat="40.8674983" lon="14.856625"><ele>363.0</ele><time>2026-03-28T07:07:56.482Z</time></trkpt><trkpt lat="40.8676533" lon="14.856525"><ele>363.0</ele><time>2026-03-28T07:07:57.482Z</time></trkpt><trkpt lat="40.8677983" lon="14.8564217"><ele>362.0</ele><time>2026-03-28T07:07:58.481Z</time></trkpt><trkpt lat="40.8679633" lon="14.8563167"><ele>361.0</ele><time>2026-03-28T07:07:59.482Z</time></trkpt><trkpt lat="40.8681367" lon="14.8561967"><ele>360.0</ele><time>2026-03-28T07:08:00.482Z</time></trkpt><trkpt lat="40.8683117" lon="14.856075"><ele>359.3333333333333</ele><time>2026-03-28T07:08:01.482Z</time></trkpt><trkpt lat="40.8684817" lon="14.8559533"><ele>358.66666666666663</ele><time>2026-03-28T07:08:02.481Z</time></trkpt><trkpt lat="40.8686433" lon="14.85584"><ele>358.0</ele><time>2026-03-28T07:08:03.481Z</time></trkpt><trkpt lat="40.8688033" lon="14.855725"><ele>358.0</ele><time>2026-03-28T07:08:04.482Z</time></trkpt><trkpt lat="40.8689633" lon="14.8556083"><ele>358.0</ele><time>2026-03-28T07:08:05.481Z</time></trkpt><trkpt lat="40.8691233" lon="14.8555"><ele>358.0</ele><time>2026-03-28T07:08:06.482Z</time></trkpt><trkpt lat="40.8692817" lon="14.8553917"><ele>358.3333333333333</ele><time>2026-03-28T07:08:07.482Z</time></trkpt><trkpt lat="40.8694417" lon="14.8552883"><ele>358.6666666666667</ele><time>2026-03-28T07:08:08.481Z</time></trkpt><trkpt lat="40.8695983" lon="14.8551817"><ele>359.0</ele><time>2026-03-28T07:08:09.481Z</time></trkpt><trkpt lat="40.869755" lon="14.8550733"><ele>359.0</ele><time>2026-03-28T07:08:10.482Z</time></trkpt><trkpt lat="40.8699183" lon="14.8549617"><ele>359.0</ele><time>2026-03-28T07:08:11.482Z</time></trkpt><trkpt lat="40.8700733" lon="14.854845"><ele>359.0</ele><time>2026-03-28T07:08:12.482Z</time></trkpt><trkpt lat="40.8702467" lon="14.8547233"><ele>359.0</ele><time>2026-03-28T07:08:13.482Z</time></trkpt><trkpt lat="40.8704317" lon="14.8546"><ele>359.0</ele><time>2026-03-28T07:08:14.482Z</time></trkpt><trkpt lat="40.8706083" lon="14.854475"><ele>359.0</ele><time>2026-03-28T07:08:15.482Z</time></trkpt><trkpt lat="40.870785" lon="14.85435"><ele>358.6666666666667</ele><time>2026-03-28T07:08:16.482Z</time></trkpt><trkpt lat="40.87096" lon="14.854235"><ele>358.3333333333333</ele><time>2026-03-28T07:08:17.481Z</time></trkpt><trkpt lat="40.8711333" lon="14.8541183"><ele>358.0</ele><time>2026-03-28T07:08:18.481Z</time></trkpt><trkpt lat="40.8713067" lon="14.854"><ele>358.0</ele><time>2026-03-28T07:08:19.482Z</time></trkpt><trkpt lat="40.8714817" lon="14.853885"><ele>358.0</ele><time>2026-03-28T07:08:20.482Z</time></trkpt><trkpt lat="40.871655" lon="14.8537633"><ele>358.0</ele><time>2026-03-28T07:08:21.482Z</time></trkpt><trkpt lat="40.8718267" lon="14.8536383"><ele>358.0</ele><time>2026-03-28T07:08:22.482Z</time></trkpt><trkpt lat="40.8719917" lon="14.85352"><ele>358.0</ele><time>2026-03-28T07:08:23.481Z</time></trkpt><trkpt lat="40.8721533" lon="14.8534117"><ele>358.0</ele><time>2026-03-28T07:08:24.482Z</time></trkpt><trkpt lat="40.872305" lon="14.853305"><ele>358.0</ele><time>2026-03-28T07:08:25.481Z</time></trkpt><trkpt lat="40.87246" lon="14.8532033"><ele>358.0</ele><time>2026-03-28T07:08:26.482Z</time></trkpt><trkpt lat="40.8726183" lon="14.853095"><ele>358.0</ele><time>2026-03-28T07:08:27.482Z</time></trkpt><trkpt lat="40.87277" lon="14.852985"><ele>358.0</ele><time>2026-03-28T07:08:28.481Z</time></trkpt><trkpt lat="40.8729217" lon="14.8528783"><ele>358.0</ele><time>2026-03-28T07:08:29.482Z</time></trkpt><trkpt lat="40.8730733" lon="14.8527717"><ele>358.0</ele><time>2026-03-28T07:08:30.482Z</time></trkpt><trkpt lat="40.8732367" lon="14.8526633"><ele>356.66666666666663</ele><time>2026-03-28T07:08:31.481Z</time></trkpt><trkpt lat="40.8734033" lon="14.8525517"><ele>355.3333333333333</ele><time>2026-03-28T07:08:32.481Z</time></trkpt><trkpt lat="40.8735767" lon="14.8524383"><ele>354.0</ele><time>2026-03-28T07:08:33.482Z</time></trkpt><trkpt lat="40.8737467" lon="14.85232"><ele>354.0</ele><time>2026-03-28T07:08:34.482Z</time></trkpt><trkpt lat="40.87392" lon="14.8521967"><ele>354.0</ele><time>2026-03-28T07:08:35.482Z</time></trkpt><trkpt lat="40.87409" lon="14.8520817"><ele>354.0</ele><time>2026-03-28T07:08:36.482Z</time></trkpt><trkpt lat="40.8742633" lon="14.8519617"><ele>353.6666666666667</ele><time>2026-03-28T07:08:37.481Z</time></trkpt><trkpt lat="40.87444" lon="14.851845"><ele>353.33333333333337</ele><time>2026-03-28T07:08:38.482Z</time></trkpt><trkpt lat="40.87462" lon="14.8517217"><ele>353.0</ele><time>2026-03-28T07:08:39.482Z</time></trkpt><trkpt lat="40.8747983" lon="14.8516067"><ele>353.0</ele><time>2026-03-28T07:08:40.481Z</time></trkpt><trkpt lat="40.8749767" lon="14.8514983"><ele>353.0</ele><time>2026-03-28T07:08:41.482Z</time></trkpt><trkpt lat="40.875155" lon="14.8514"><ele>353.0</ele><time>2026-03-28T07:08:42.481Z</time></trkpt><trkpt lat="40.8753283" lon="14.8513133"><ele>353.0</ele><time>2026-03-28T07:08:43.481Z</time></trkpt><trkpt lat="40.8755033" lon="14.8512367"><ele>353.0</ele><time>2026-03-28T07:08:44.482Z</time></trkpt><trkpt lat="40.8756833" lon="14.8511633"><ele>353.0</ele><time>2026-03-28T07:08:45.481Z</time></trkpt><trkpt lat="40.8758717" lon="14.8510983"><ele>352.6666666666667</ele><time>2026-03-28T07:08:46.481Z</time></trkpt><trkpt lat="40.876065" lon="14.85104"><ele>352.3333333333333</ele><time>2026-03-28T07:08:47.481Z</time></trkpt><trkpt lat="40.8762567" lon="14.85098"><ele>352.0</ele><time>2026-03-28T07:08:48.481Z</time></trkpt><trkpt lat="40.8764517" lon="14.85093"><ele>351.3333333333333</ele><time>2026-03-28T07:08:49.482Z</time></trkpt><trkpt lat="40.8766567" lon="14.8508867"><ele>350.6666666666667</ele><time>2026-03-28T07:08:50.481Z</time></trkpt><trkpt lat="40.8768667" lon="14.8508467"><ele>350.0</ele><time>2026-03-28T07:08:51.482Z</time></trkpt><trkpt lat="40.8770783" lon="14.8508033"><ele>350.0</ele><time>2026-03-28T07:08:52.482Z</time></trkpt><trkpt lat="40.8772883" lon="14.8507633"><ele>350.0</ele><time>2026-03-28T07:08:53.481Z</time></trkpt><trkpt lat="40.877495" lon="14.8507233"><ele>350.0</ele><time>2026-03-28T07:08:54.482Z</time></trkpt><trkpt lat="40.8777083" lon="14.8506783"><ele>349.0</ele><time>2026-03-28T07:08:55.482Z</time></trkpt><trkpt lat="40.8779117" lon="14.8506383"><ele>348.0</ele><time>2026-03-28T07:08:56.482Z</time></trkpt><trkpt lat="40.8780983" lon="14.8505883"><ele>347.0</ele><time>2026-03-28T07:08:57.482Z</time></trkpt><trkpt lat="40.8782783" lon="14.85053"><ele>346.6666666666667</ele><time>2026-03-28T07:08:58.482Z</time></trkpt><trkpt lat="40.878455" lon="14.850465"><ele>346.3333333333333</ele><time>2026-03-28T07:08:59.482Z</time></trkpt><trkpt lat="40.87864" lon="14.8503933"><ele>346.0</ele><time>2026-03-28T07:09:00.482Z</time></trkpt><trkpt lat="40.87882" lon="14.8503167"><ele>346.0</ele><time>2026-03-28T07:09:01.482Z</time></trkpt><trkpt lat="40.879" lon="14.8502283"><ele>346.0</ele><time>2026-03-28T07:09:02.482Z</time></trkpt><trkpt lat="40.8791767" lon="14.8501317"><ele>346.0</ele><time>2026-03-28T07:09:03.481Z</time></trkpt><trkpt lat="40.8793583" lon="14.85003"><ele>345.3333333333333</ele><time>2026-03-28T07:09:04.482Z</time></trkpt><trkpt lat="40.8795383" lon="14.8499217"><ele>344.6666666666667</ele><time>2026-03-28T07:09:05.481Z</time></trkpt><trkpt lat="40.87971" lon="14.8498067"><ele>344.0</ele><time>2026-03-28T07:09:06.481Z</time></trkpt><trkpt lat="40.87988" lon="14.8496783"><ele>344.0</ele><time>2026-03-28T07:09:07.481Z</time></trkpt><trkpt lat="40.8800483" lon="14.84954"><ele>344.0</ele><time>2026-03-28T07:09:08.481Z</time></trkpt><trkpt lat="40.8802167" lon="14.8493867"><ele>344.0</ele><time>2026-03-28T07:09:09.481Z</time></trkpt><trkpt lat="40.88039" lon="14.8492267"><ele>344.0</ele><time>2026-03-28T07:09:10.481Z</time></trkpt><trkpt lat="40.8805717" lon="14.8490567"><ele>344.0</ele><time>2026-03-28T07:09:11.482Z</time></trkpt><trkpt lat="40.88076" lon="14.84888"><ele>344.5</ele><time>2026-03-28T07:09:12.481Z</time></trkpt><trkpt lat="40.8809483" lon="14.8487067"><ele>345.0</ele><time>2026-03-28T07:09:13.481Z</time></trkpt><trkpt lat="40.8811367" lon="14.8485317"><ele>344.0</ele><time>2026-03-28T07:09:14.482Z</time></trkpt><trkpt lat="40.8813317" lon="14.8483533"><ele>343.0</ele><time>2026-03-28T07:09:15.482Z</time></trkpt><trkpt lat="40.8815333" lon="14.8481633"><ele>343.0</ele><time>2026-03-28T07:09:16.481Z</time></trkpt><trkpt lat="40.8817383" lon="14.847965"><ele>343.0</ele><time>2026-03-28T07:09:17.481Z</time></trkpt><trkpt lat="40.881955" lon="14.8477533"><ele>342.0</ele><time>2026-03-28T07:09:18.482Z</time></trkpt><trkpt lat="40.8821633" lon="14.8475533"><ele>341.0</ele><time>2026-03-28T07:09:19.481Z</time></trkpt><trkpt lat="40.88237" lon="14.8473533"><ele>341.0</ele><time>2026-03-28T07:09:20.482Z</time></trkpt><trkpt lat="40.8825767" lon="14.8471583"><ele>341.0</ele><time>2026-03-28T07:09:21.482Z</time></trkpt><trkpt lat="40.8827867" lon="14.8469583"><ele>339.0</ele><time>2026-03-28T07:09:22.482Z</time></trkpt><trkpt lat="40.882995" lon="14.8467633"><ele>337.0</ele><time>2026-03-28T07:09:23.481Z</time></trkpt><trkpt lat="40.8832067" lon="14.8465667"><ele>337.0</ele><time>2026-03-28T07:09:24.481Z</time></trkpt><trkpt lat="40.8834133" lon="14.84638"><ele>337.0</ele><time>2026-03-28T07:09:25.482Z</time></trkpt><trkpt lat="40.8836217" lon="14.84619"><ele>337.0</ele><time>2026-03-28T07:09:26.481Z</time></trkpt><trkpt lat="40.88383" lon="14.8460067"><ele>337.0</ele><time>2026-03-28T07:09:27.481Z</time></trkpt><trkpt lat="40.8840383" lon="14.845835"><ele>337.0</ele><time>2026-03-28T07:09:28.481Z</time></trkpt><trkpt lat="40.8842467" lon="14.845675"><ele>337.0</ele><time>2026-03-28T07:09:29.482Z</time></trkpt><trkpt lat="40.8844567" lon="14.8455267"><ele>336.0</ele><time>2026-03-28T07:09:30.481Z</time></trkpt><trkpt lat="40.8846767" lon="14.8453767"><ele>335.0</ele><time>2026-03-28T07:09:31.482Z</time></trkpt><trkpt lat="40.8849017" lon="14.8452367"><ele>335.5</ele><time>2026-03-28T07:09:32.482Z</time></trkpt><trkpt lat="40.88513" lon="14.84511"><ele>336.0</ele><time>2026-03-28T07:09:33.482Z</time></trkpt><trkpt lat="40.88535" lon="14.84498"><ele>336.0</ele><time>2026-03-28T07:09:34.482Z</time></trkpt><trkpt lat="40.8855783" lon="14.8448633"><ele>336.0</ele><time>2026-03-28T07:09:35.482Z</time></trkpt><trkpt lat="40.88581" lon="14.8447517"><ele>335.5</ele><time>2026-03-28T07:09:36.482Z</time></trkpt><trkpt lat="40.8860383" lon="14.8446417"><ele>335.0</ele><time>2026-03-28T07:09:37.482Z</time></trkpt><trkpt lat="40.8862733" lon="14.8445367"><ele>335.0</ele><time>2026-03-28T07:09:38.481Z</time></trkpt><trkpt lat="40.8865083" lon="14.8444517"><ele>335.0</ele><time>2026-03-28T07:09:39.482Z</time></trkpt><trkpt lat="40.886745" lon="14.8443783"><ele>334.0</ele><time>2026-03-28T07:09:40.481Z</time></trkpt><trkpt lat="40.88697" lon="14.84431"><ele>333.0</ele><time>2026-03-28T07:09:41.481Z</time></trkpt><trkpt lat="40.8872" lon="14.844255"><ele>332.5</ele><time>2026-03-28T07:09:42.481Z</time></trkpt><trkpt lat="40.8874283" lon="14.8442167"><ele>332.0</ele><time>2026-03-28T07:09:43.482Z</time></trkpt><trkpt lat="40.88765" lon="14.8441683"><ele>331.33333333333337</ele><time>2026-03-28T07:09:44.481Z</time></trkpt><trkpt lat="40.887865" lon="14.844125"><ele>330.6666666666667</ele><time>2026-03-28T07:09:45.482Z</time></trkpt><trkpt lat="40.8880717" lon="14.84408"><ele>330.0</ele><time>2026-03-28T07:09:46.481Z</time></trkpt><trkpt lat="40.8882783" lon="14.8440367"><ele>329.3333333333333</ele><time>2026-03-28T07:09:47.481Z</time></trkpt><trkpt lat="40.8884833" lon="14.8439933"><ele>328.66666666666663</ele><time>2026-03-28T07:09:48.482Z</time></trkpt><trkpt lat="40.8886833" lon="14.8439533"><ele>328.0</ele><time>2026-03-28T07:09:49.482Z</time></trkpt><trkpt lat="40.8888867" lon="14.84391"><ele>328.0</ele><time>2026-03-28T07:09:50.482Z</time></trkpt><trkpt lat="40.8890883" lon="14.8438667"><ele>328.0</ele><time>2026-03-28T07:09:51.482Z</time></trkpt><trkpt lat="40.8892833" lon="14.843825"><ele>328.0</ele><time>2026-03-28T07:09:52.482Z</time></trkpt><trkpt lat="40.8894733" lon="14.8437817"><ele>329.3333333333333</ele><time>2026-03-28T07:09:53.481Z</time></trkpt><trkpt lat="40.8896567" lon="14.8437433"><ele>330.6666666666667</ele><time>2026-03-28T07:09:54.482Z</time></trkpt><trkpt lat="40.8898333" lon="14.8437017"><ele>332.0</ele><time>2026-03-28T07:09:55.482Z</time></trkpt><trkpt lat="40.8900033" lon="14.84366"><ele>331.6666666666667</ele><time>2026-03-28T07:09:56.481Z</time></trkpt><trkpt lat="40.89017" lon="14.8436283"><ele>331.3333333333333</ele><time>2026-03-28T07:09:57.481Z</time></trkpt><trkpt lat="40.8903433" lon="14.8435933"><ele>331.0</ele><time>2026-03-28T07:09:58.482Z</time></trkpt><trkpt lat="40.89051" lon="14.8435567"><ele>331.0</ele><time>2026-03-28T07:09:59.482Z</time></trkpt><trkpt lat="40.890675" lon="14.84352"><ele>331.0</ele><time>2026-03-28T07:10:00.482Z</time></trkpt><trkpt lat="40.8908433" lon="14.8434883"><ele>331.0</ele><time>2026-03-28T07:10:01.482Z</time></trkpt><trkpt lat="40.8910133" lon="14.8434517"><ele>330.3333333333333</ele><time>2026-03-28T07:10:02.482Z</time></trkpt><trkpt lat="40.891185" lon="14.84342"><ele>329.6666666666667</ele><time>2026-03-28T07:10:03.482Z</time></trkpt><trkpt lat="40.8913517" lon="14.84338"><ele>329.0</ele><time>2026-03-28T07:10:04.481Z</time></trkpt><trkpt lat="40.891525" lon="14.843345"><ele>329.0</ele><time>2026-03-28T07:10:05.482Z</time></trkpt><trkpt lat="40.8916967" lon="14.84331"><ele>329.0</ele><time>2026-03-28T07:10:06.482Z</time></trkpt><trkpt lat="40.8918717" lon="14.8432717"><ele>329.0</ele><time>2026-03-28T07:10:07.482Z</time></trkpt><trkpt lat="40.8920417" lon="14.8432383"><ele>328.33333333333337</ele><time>2026-03-28T07:10:08.482Z</time></trkpt><trkpt lat="40.8922133" lon="14.8432067"><ele>327.6666666666667</ele><time>2026-03-28T07:10:09.482Z</time></trkpt><trkpt lat="40.8923783" lon="14.8431667"><ele>327.0</ele><time>2026-03-28T07:10:10.482Z</time></trkpt><trkpt lat="40.89255" lon="14.8431317"><ele>326.6666666666667</ele><time>2026-03-28T07:10:11.481Z</time></trkpt><trkpt lat="40.892725" lon="14.8430967"><ele>326.33333333333337</ele><time>2026-03-28T07:10:12.482Z</time></trkpt><trkpt lat="40.8929033" lon="14.8430617"><ele>326.0</ele><time>2026-03-28T07:10:13.481Z</time></trkpt><trkpt lat="40.8930933" lon="14.8430283"><ele>326.0</ele><time>2026-03-28T07:10:14.482Z</time></trkpt><trkpt lat="40.8932833" lon="14.8429917"><ele>326.0</ele><time>2026-03-28T07:10:15.482Z</time></trkpt><trkpt lat="40.89348" lon="14.8429667"><ele>326.0</ele><time>2026-03-28T07:10:16.482Z</time></trkpt><trkpt lat="40.8936833" lon="14.8429567"><ele>325.6666666666667</ele><time>2026-03-28T07:10:17.482Z</time></trkpt><trkpt lat="40.8938883" lon="14.842945"><ele>325.3333333333333</ele><time>2026-03-28T07:10:18.481Z</time></trkpt><trkpt lat="40.894095" lon="14.8429467"><ele>325.0</ele><time>2026-03-28T07:10:19.482Z</time></trkpt><trkpt lat="40.8943117" lon="14.8429483"><ele>324.66666666666663</ele><time>2026-03-28T07:10:20.482Z</time></trkpt><trkpt lat="40.8945217" lon="14.842955"><ele>324.3333333333333</ele><time>2026-03-28T07:10:21.482Z</time></trkpt><trkpt lat="40.8947367" lon="14.8429683"><ele>324.0</ele><time>2026-03-28T07:10:22.481Z</time></trkpt><trkpt lat="40.89495" lon="14.8429883"><ele>323.6666666666667</ele><time>2026-03-28T07:10:23.481Z</time></trkpt><trkpt lat="40.89517" lon="14.8430083"><ele>323.33333333333337</ele><time>2026-03-28T07:10:24.481Z</time></trkpt><trkpt lat="40.8953833" lon="14.843035"><ele>323.0</ele><time>2026-03-28T07:10:25.482Z</time></trkpt><trkpt lat="40.8955883" lon="14.84306"><ele>323.0</ele><time>2026-03-28T07:10:26.481Z</time></trkpt><trkpt lat="40.8958067" lon="14.8430833"><ele>323.0</ele><time>2026-03-28T07:10:27.481Z</time></trkpt><trkpt lat="40.8960317" lon="14.8431017"><ele>323.0</ele><time>2026-03-28T07:10:28.481Z</time></trkpt><trkpt lat="40.8962417" lon="14.8431117"><ele>323.0</ele><time>2026-03-28T07:10:29.482Z</time></trkpt><trkpt lat="40.8964533" lon="14.8431117"><ele>323.0</ele><time>2026-03-28T07:10:30.482Z</time></trkpt><trkpt lat="40.8966617" lon="14.8430983"><ele>323.0</ele><time>2026-03-28T07:10:31.482Z</time></trkpt><trkpt lat="40.8968733" lon="14.8430717"><ele>324.0</ele><time>2026-03-28T07:10:32.482Z</time></trkpt><trkpt lat="40.8970883" lon="14.8430317"><ele>325.0</ele><time>2026-03-28T07:10:33.481Z</time></trkpt><trkpt lat="40.8973017" lon="14.84299"><ele>326.0</ele><time>2026-03-28T07:10:34.482Z</time></trkpt><trkpt lat="40.8975133" lon="14.8429333"><ele>327.0</ele><time>2026-03-28T07:10:35.482Z</time></trkpt><trkpt lat="40.8977267" lon="14.84287"><ele>328.0</ele><time>2026-03-28T07:10:36.482Z</time></trkpt><trkpt lat="40.89794" lon="14.8427867"><ele>329.0</ele><time>2026-03-28T07:10:37.481Z</time></trkpt><trkpt lat="40.8981533" lon="14.8426817"><ele>330.0</ele><time>2026-03-28T07:10:38.481Z</time></trkpt><trkpt lat="40.898355" lon="14.8425667"><ele>331.0</ele><time>2026-03-28T07:10:39.481Z</time></trkpt><trkpt lat="40.8985533" lon="14.8424333"><ele>332.0</ele><time>2026-03-28T07:10:40.481Z</time></trkpt><trkpt lat="40.8987433" lon="14.8422917"><ele>332.0</ele><time>2026-03-28T07:10:41.482Z</time></trkpt><trkpt lat="40.8989233" lon="14.8421383"><ele>332.0</ele><time>2026-03-28T07:10:42.481Z</time></trkpt><trkpt lat="40.899105" lon="14.84198"><ele>332.0</ele><time>2026-03-28T07:10:43.482Z</time></trkpt><trkpt lat="40.89928" lon="14.8418033"><ele>331.33333333333337</ele><time>2026-03-28T07:10:44.482Z</time></trkpt><trkpt lat="40.8994483" lon="14.8416217"><ele>330.6666666666667</ele><time>2026-03-28T07:10:45.482Z</time></trkpt><trkpt lat="40.8996133" lon="14.8414383"><ele>330.0</ele><time>2026-03-28T07:10:46.482Z</time></trkpt><trkpt lat="40.8997783" lon="14.8412533"><ele>330.0</ele><time>2026-03-28T07:10:47.482Z</time></trkpt><trkpt lat="40.8999383" lon="14.8410617"><ele>330.0</ele><time>2026-03-28T07:10:48.481Z</time></trkpt><trkpt lat="40.9000983" lon="14.8408733"><ele>330.0</ele><time>2026-03-28T07:10:49.482Z</time></trkpt><trkpt lat="40.9002617" lon="14.8406883"><ele>328.0</ele><time>2026-03-28T07:10:50.482Z</time></trkpt><trkpt lat="40.9004233" lon="14.8405017"><ele>326.0</ele><time>2026-03-28T07:10:51.482Z</time></trkpt><trkpt lat="40.9005967" lon="14.840315"><ele>324.0</ele><time>2026-03-28T07:10:52.482Z</time></trkpt><trkpt lat="40.9007667" lon="14.8401317"><ele>322.6666666666667</ele><time>2026-03-28T07:10:53.481Z</time></trkpt><trkpt lat="40.9009417" lon="14.8399583"><ele>321.33333333333337</ele><time>2026-03-28T07:10:54.482Z</time></trkpt><trkpt lat="40.90111" lon="14.83978"><ele>320.0</ele><time>2026-03-28T07:10:55.481Z</time></trkpt><trkpt lat="40.901285" lon="14.8395967"><ele>320.0</ele><time>2026-03-28T07:10:56.481Z</time></trkpt><trkpt lat="40.90146" lon="14.8394133"><ele>320.0</ele><time>2026-03-28T07:10:57.482Z</time></trkpt><trkpt lat="40.9016367" lon="14.8392383"><ele>320.0</ele><time>2026-03-28T07:10:58.482Z</time></trkpt><trkpt lat="40.901815" lon="14.83907"><ele>322.0</ele><time>2026-03-28T07:10:59.482Z</time></trkpt><trkpt lat="40.9019917" lon="14.8389067"><ele>324.0</ele><time>2026-03-28T07:11:00.481Z</time></trkpt><trkpt lat="40.90217" lon="14.8387533"><ele>326.0</ele><time>2026-03-28T07:11:01.481Z</time></trkpt><trkpt lat="40.9023517" lon="14.8386083"><ele>328.0</ele><time>2026-03-28T07:11:02.482Z</time></trkpt><trkpt lat="40.9025383" lon="14.8384583"><ele>330.0</ele><time>2026-03-28T07:11:03.481Z</time></trkpt><trkpt lat="40.902725" lon="14.8383167"><ele>332.0</ele><time>2026-03-28T07:11:04.482Z</time></trkpt><trkpt lat="40.9029167" lon="14.8381817"><ele>332.0</ele><time>2026-03-28T07:11:05.481Z</time></trkpt><trkpt lat="40.903105" lon="14.83805"><ele>332.0</ele><time>2026-03-28T07:11:06.481Z</time></trkpt><trkpt lat="40.9032967" lon="14.8379133"><ele>332.0</ele><time>2026-03-28T07:11:07.482Z</time></trkpt><trkpt lat="40.90349" lon="14.8377867"><ele>333.0</ele><time>2026-03-28T07:11:08.482Z</time></trkpt><trkpt lat="40.903685" lon="14.8376517"><ele>334.0</ele><time>2026-03-28T07:11:09.482Z</time></trkpt><trkpt lat="40.9038867" lon="14.8375067"><ele>329.66666666666663</ele><time>2026-03-28T07:11:10.482Z</time></trkpt><trkpt lat="40.90408" lon="14.8373733"><ele>325.3333333333333</ele><time>2026-03-28T07:11:11.483Z</time></trkpt><trkpt lat="40.9042767" lon="14.837235"><ele>321.0</ele><time>2026-03-28T07:11:12.483Z</time></trkpt><trkpt lat="40.9044767" lon="14.8370967"><ele>321.0</ele><time>2026-03-28T07:11:13.483Z</time></trkpt><trkpt lat="40.90468" lon="14.8369633"><ele>321.0</ele><time>2026-03-28T07:11:14.483Z</time></trkpt><trkpt lat="40.904875" lon="14.83682"><ele>319.0</ele><time>2026-03-28T07:11:15.483Z</time></trkpt><trkpt lat="40.9050717" lon="14.8366733"><ele>317.0</ele><time>2026-03-28T07:11:16.482Z</time></trkpt><trkpt lat="40.9052667" lon="14.8365333"><ele>315.0</ele><time>2026-03-28T07:11:17.483Z</time></trkpt><trkpt lat="40.9054517" lon="14.8363783"><ele>315.0</ele><time>2026-03-28T07:11:18.482Z</time></trkpt><trkpt lat="40.9056433" lon="14.836215"><ele>315.0</ele><time>2026-03-28T07:11:19.483Z</time></trkpt><trkpt lat="40.9058317" lon="14.8360533"><ele>315.0</ele><time>2026-03-28T07:11:20.483Z</time></trkpt><trkpt lat="40.9060183" lon="14.8358833"><ele>315.0</ele><time>2026-03-28T07:11:21.483Z</time></trkpt><trkpt lat="40.9061983" lon="14.8357017"><ele>315.0</ele><time>2026-03-28T07:11:22.483Z</time></trkpt><trkpt lat="40.9063767" lon="14.835515"><ele>315.0</ele><time>2026-03-28T07:11:23.483Z</time></trkpt><trkpt lat="40.9065617" lon="14.83531"><ele>318.0</ele><time>2026-03-28T07:11:24.482Z</time></trkpt><trkpt lat="40.906745" lon="14.8351083"><ele>321.0</ele><time>2026-03-28T07:11:25.483Z</time></trkpt><trkpt lat="40.906925" lon="14.834905"><ele>321.0</ele><time>2026-03-28T07:11:26.483Z</time></trkpt><trkpt lat="40.9071017" lon="14.8347"><ele>321.0</ele><time>2026-03-28T07:11:27.483Z</time></trkpt><trkpt lat="40.9072767" lon="14.8345017"><ele>318.5</ele><time>2026-03-28T07:11:28.483Z</time></trkpt><trkpt lat="40.9074467" lon="14.8343"><ele>316.0</ele><time>2026-03-28T07:11:29.482Z</time></trkpt><trkpt lat="40.90762" lon="14.8341117"><ele>316.0</ele><time>2026-03-28T07:11:30.483Z</time></trkpt><trkpt lat="40.90779" lon="14.8339217"><ele>316.0</ele><time>2026-03-28T07:11:31.482Z</time></trkpt><trkpt lat="40.9079517" lon="14.8337283"><ele>316.0</ele><time>2026-03-28T07:11:32.483Z</time></trkpt><trkpt lat="40.9081133" lon="14.8335417"><ele>316.3333333333333</ele><time>2026-03-28T07:11:33.483Z</time></trkpt><trkpt lat="40.90827" lon="14.8333533"><ele>316.6666666666667</ele><time>2026-03-28T07:11:34.483Z</time></trkpt><trkpt lat="40.9084267" lon="14.8331783"><ele>317.0</ele><time>2026-03-28T07:11:35.482Z</time></trkpt><trkpt lat="40.9085833" lon="14.832985"><ele>317.0</ele><time>2026-03-28T07:11:36.483Z</time></trkpt><trkpt lat="40.908735" lon="14.8327783"><ele>317.0</ele><time>2026-03-28T07:11:37.483Z</time></trkpt><trkpt lat="40.9088867" lon="14.8325767"><ele>317.0</ele><time>2026-03-28T07:11:38.482Z</time></trkpt><trkpt lat="40.9090233" lon="14.8323583"><ele>316.6666666666667</ele><time>2026-03-28T07:11:39.483Z</time></trkpt><trkpt lat="40.909155" lon="14.832135"><ele>316.3333333333333</ele><time>2026-03-28T07:11:40.482Z</time></trkpt><trkpt lat="40.9092783" lon="14.8319033"><ele>316.0</ele><time>2026-03-28T07:11:41.482Z</time></trkpt><trkpt lat="40.90939" lon="14.83166"><ele>313.3333333333333</ele><time>2026-03-28T07:11:42.482Z</time></trkpt><trkpt lat="40.9094967" lon="14.8314183"><ele>310.6666666666667</ele><time>2026-03-28T07:11:43.482Z</time></trkpt><trkpt lat="40.9096" lon="14.8311667"><ele>308.0</ele><time>2026-03-28T07:11:44.483Z</time></trkpt><trkpt lat="40.909695" lon="14.8309133"><ele>307.0</ele><time>2026-03-28T07:11:45.482Z</time></trkpt><trkpt lat="40.9097833" lon="14.8306533"><ele>306.0</ele><time>2026-03-28T07:11:46.483Z</time></trkpt><trkpt lat="40.9098583" lon="14.8303933"><ele>305.0</ele><time>2026-03-28T07:11:47.483Z</time></trkpt><trkpt lat="40.9099267" lon="14.8301367"><ele>305.0</ele><time>2026-03-28T07:11:48.482Z</time></trkpt><trkpt lat="40.9099883" lon="14.829885"><ele>305.0</ele><time>2026-03-28T07:11:49.483Z</time></trkpt><trkpt lat="40.9100583" lon="14.82964"><ele>305.0</ele><time>2026-03-28T07:11:50.482Z</time></trkpt><trkpt lat="40.9101267" lon="14.8293983"><ele>304.0</ele><time>2026-03-28T07:11:51.483Z</time></trkpt><trkpt lat="40.9101967" lon="14.8291467"><ele>303.0</ele><time>2026-03-28T07:11:52.483Z</time></trkpt><trkpt lat="40.9102617" lon="14.8289017"><ele>302.0</ele><time>2026-03-28T07:11:53.482Z</time></trkpt><trkpt lat="40.9103267" lon="14.8286617"><ele>303.0</ele><time>2026-03-28T07:11:54.483Z</time></trkpt><trkpt lat="40.91039" lon="14.8284233"><ele>304.0</ele><time>2026-03-28T07:11:55.483Z</time></trkpt><trkpt lat="40.91046" lon="14.8281867"><ele>305.0</ele><time>2026-03-28T07:11:56.483Z</time></trkpt><trkpt lat="40.9105467" lon="14.8279533"><ele>305.0</ele><time>2026-03-28T07:11:57.483Z</time></trkpt><trkpt lat="40.9106467" lon="14.8277283"><ele>305.0</ele><time>2026-03-28T07:11:58.483Z</time></trkpt><trkpt lat="40.910765" lon="14.8275133"><ele>305.0</ele><time>2026-03-28T07:11:59.483Z</time></trkpt><trkpt lat="40.9109" lon="14.8272917"><ele>305.33333333333337</ele><time>2026-03-28T07:12:00.483Z</time></trkpt><trkpt lat="40.9110317" lon="14.827075"><ele>305.6666666666667</ele><time>2026-03-28T07:12:01.483Z</time></trkpt><trkpt lat="40.9111667" lon="14.8268567"><ele>306.0</ele><time>2026-03-28T07:12:02.482Z</time></trkpt><trkpt lat="40.9112967" lon="14.8266433"><ele>309.3333333333333</ele><time>2026-03-28T07:12:03.483Z</time></trkpt><trkpt lat="40.9114333" lon="14.8264217"><ele>312.66666666666663</ele><time>2026-03-28T07:12:04.483Z</time></trkpt><trkpt lat="40.9115667" lon="14.8262033"><ele>316.0</ele><time>2026-03-28T07:12:05.483Z</time></trkpt><trkpt lat="40.9116983" lon="14.82599"><ele>316.3333333333333</ele><time>2026-03-28T07:12:06.483Z</time></trkpt><trkpt lat="40.9118267" lon="14.825775"><ele>316.6666666666667</ele><time>2026-03-28T07:12:07.482Z</time></trkpt><trkpt lat="40.911945" lon="14.8255783"><ele>317.0</ele><time>2026-03-28T07:12:08.482Z</time></trkpt><trkpt lat="40.9120517" lon="14.8253967"><ele>317.0</ele><time>2026-03-28T07:12:09.483Z</time></trkpt><trkpt lat="40.9121533" lon="14.8252217"><ele>317.0</ele><time>2026-03-28T07:12:10.483Z</time></trkpt><trkpt lat="40.9122583" lon="14.8250417"><ele>317.0</ele><time>2026-03-28T07:12:11.483Z</time></trkpt><trkpt lat="40.9123617" lon="14.8248633"><ele>317.33333333333337</ele><time>2026-03-28T07:12:12.482Z</time></trkpt><trkpt lat="40.9124667" lon="14.8246883"><ele>317.6666666666667</ele><time>2026-03-28T07:12:13.483Z</time></trkpt><trkpt lat="40.9125683" lon="14.8245167"><ele>318.0</ele><time>2026-03-28T07:12:14.483Z</time></trkpt><trkpt lat="40.9126717" lon="14.8243367"><ele>319.0</ele><time>2026-03-28T07:12:15.483Z</time></trkpt><trkpt lat="40.91278" lon="14.8241783"><ele>320.0</ele><time>2026-03-28T07:12:16.483Z</time></trkpt><trkpt lat="40.912885" lon="14.8240183"><ele>321.0</ele><time>2026-03-28T07:12:17.482Z</time></trkpt><trkpt lat="40.9129867" lon="14.8238567"><ele>321.0</ele><time>2026-03-28T07:12:18.482Z</time></trkpt><trkpt lat="40.91309" lon="14.8236983"><ele>321.0</ele><time>2026-03-28T07:12:19.482Z</time></trkpt><trkpt lat="40.9131883" lon="14.823555"><ele>321.0</ele><time>2026-03-28T07:12:20.483Z</time></trkpt><trkpt lat="40.9132767" lon="14.82343"><ele>321.0</ele><time>2026-03-28T07:12:21.483Z</time></trkpt><trkpt lat="40.9133517" lon="14.8233217"><ele>320.8</ele><time>2026-03-28T07:12:22.482Z</time></trkpt><trkpt lat="40.9134267" lon="14.8232183"><ele>320.6</ele><time>2026-03-28T07:12:23.483Z</time></trkpt><trkpt lat="40.9134983" lon="14.823145"><ele>320.4</ele><time>2026-03-28T07:12:24.482Z</time></trkpt><trkpt lat="40.9135633" lon="14.8230883"><ele>320.2</ele><time>2026-03-28T07:12:25.483Z</time></trkpt><trkpt lat="40.9136317" lon="14.82305"><ele>320.0</ele><time>2026-03-28T07:12:26.482Z</time></trkpt><trkpt lat="40.9137383" lon="14.823035"><ele>320.0</ele><time>2026-03-28T07:12:28.483Z</time></trkpt><trkpt lat="40.9138" lon="14.823065"><ele>320.0</ele><time>2026-03-28T07:12:29.482Z</time></trkpt><trkpt lat="40.9138617" lon="14.8231083"><ele>320.0</ele><time>2026-03-28T07:12:30.483Z</time></trkpt><trkpt lat="40.913935" lon="14.823175"><ele>320.0</ele><time>2026-03-28T07:12:31.482Z</time></trkpt><trkpt lat="40.9140233" lon="14.8232783"><ele>320.0</ele><time>2026-03-28T07:12:32.483Z</time></trkpt><trkpt lat="40.9141133" lon="14.8233833"><ele>320.0</ele><time>2026-03-28T07:12:33.483Z</time></trkpt><trkpt lat="40.9142033" lon="14.8235033"><ele>320.0</ele><time>2026-03-28T07:12:34.483Z</time></trkpt><trkpt lat="40.9143083" lon="14.8236267"><ele>320.0</ele><time>2026-03-28T07:12:35.482Z</time></trkpt><trkpt lat="40.9144233" lon="14.8237483"><ele>320.0</ele><time>2026-03-28T07:12:36.482Z</time></trkpt><trkpt lat="40.914545" lon="14.8238717"><ele>319.0</ele><time>2026-03-28T07:12:37.483Z</time></trkpt><trkpt lat="40.914665" lon="14.8240017"><ele>318.0</ele><time>2026-03-28T07:12:38.482Z</time></trkpt><trkpt lat="40.9147867" lon="14.8241383"><ele>317.0</ele><time>2026-03-28T07:12:39.483Z</time></trkpt><trkpt lat="40.9149117" lon="14.8242783"><ele>316.33333333333337</ele><time>2026-03-28T07:12:40.483Z</time></trkpt><trkpt lat="40.9150383" lon="14.8244217"><ele>315.6666666666667</ele><time>2026-03-28T07:12:41.483Z</time></trkpt><trkpt lat="40.9151717" lon="14.82456"><ele>315.0</ele><time>2026-03-28T07:12:42.482Z</time></trkpt><trkpt lat="40.9153067" lon="14.8246883"><ele>314.3333333333333</ele><time>2026-03-28T07:12:43.482Z</time></trkpt><trkpt lat="40.91545" lon="14.8248133"><ele>313.66666666666663</ele><time>2026-03-28T07:12:44.483Z</time></trkpt><trkpt lat="40.9155933" lon="14.8249367"><ele>313.0</ele><time>2026-03-28T07:12:45.483Z</time></trkpt><trkpt lat="40.9157467" lon="14.8250517"><ele>312.3333333333333</ele><time>2026-03-28T07:12:46.483Z</time></trkpt><trkpt lat="40.9158983" lon="14.825165"><ele>311.6666666666667</ele><time>2026-03-28T07:12:47.482Z</time></trkpt><trkpt lat="40.9160517" lon="14.8252667"><ele>311.0</ele><time>2026-03-28T07:12:48.482Z</time></trkpt><trkpt lat="40.9162067" lon="14.8253617"><ele>309.33333333333337</ele><time>2026-03-28T07:12:49.482Z</time></trkpt><trkpt lat="40.9163733" lon="14.8254583"><ele>307.6666666666667</ele><time>2026-03-28T07:12:50.483Z</time></trkpt><trkpt lat="40.9165533" lon="14.8255467"><ele>306.0</ele><time>2026-03-28T07:12:51.482Z</time></trkpt><trkpt lat="40.9167367" lon="14.8256333"><ele>305.3333333333333</ele><time>2026-03-28T07:12:52.483Z</time></trkpt><trkpt lat="40.916925" lon="14.8257133"><ele>304.66666666666663</ele><time>2026-03-28T07:12:53.483Z</time></trkpt><trkpt lat="40.91712" lon="14.82578"><ele>304.0</ele><time>2026-03-28T07:12:54.483Z</time></trkpt><trkpt lat="40.9173117" lon="14.8258567"><ele>304.0</ele><time>2026-03-28T07:12:55.483Z</time></trkpt><trkpt lat="40.9175017" lon="14.8259233"><ele>304.0</ele><time>2026-03-28T07:12:56.482Z</time></trkpt><trkpt lat="40.9176933" lon="14.825995"><ele>304.0</ele><time>2026-03-28T07:12:57.483Z</time></trkpt><trkpt lat="40.9178783" lon="14.8260667"><ele>304.0</ele><time>2026-03-28T07:12:58.483Z</time></trkpt><trkpt lat="40.918055" lon="14.8261367"><ele>304.0</ele><time>2026-03-28T07:12:59.483Z</time></trkpt><trkpt lat="40.9182383" lon="14.8262033"><ele>304.0</ele><time>2026-03-28T07:13:00.483Z</time></trkpt><trkpt lat="40.9184133" lon="14.826265"><ele>303.66666666666663</ele><time>2026-03-28T07:13:01.483Z</time></trkpt><trkpt lat="40.91859" lon="14.8263167"><ele>303.3333333333333</ele><time>2026-03-28T07:13:02.483Z</time></trkpt><trkpt lat="40.91877" lon="14.8263667"><ele>303.0</ele><time>2026-03-28T07:13:03.483Z</time></trkpt><trkpt lat="40.9189567" lon="14.8264067"><ele>303.0</ele><time>2026-03-28T07:13:04.483Z</time></trkpt><trkpt lat="40.91916" lon="14.8264367"><ele>303.0</ele><time>2026-03-28T07:13:05.482Z</time></trkpt><trkpt lat="40.91936" lon="14.8264633"><ele>303.0</ele><time>2026-03-28T07:13:06.483Z</time></trkpt><trkpt lat="40.919565" lon="14.82648"><ele>303.6666666666667</ele><time>2026-03-28T07:13:07.483Z</time></trkpt><trkpt lat="40.9197667" lon="14.82649"><ele>304.33333333333337</ele><time>2026-03-28T07:13:08.482Z</time></trkpt><trkpt lat="40.9199717" lon="14.8264917"><ele>305.0</ele><time>2026-03-28T07:13:09.482Z</time></trkpt><trkpt lat="40.92018" lon="14.8264767"><ele>306.33333333333337</ele><time>2026-03-28T07:13:10.482Z</time></trkpt><trkpt lat="40.920385" lon="14.8264417"><ele>307.6666666666667</ele><time>2026-03-28T07:13:11.482Z</time></trkpt><trkpt lat="40.9205867" lon="14.8264083"><ele>309.0</ele><time>2026-03-28T07:13:12.483Z</time></trkpt><trkpt lat="40.9207917" lon="14.82637"><ele>309.6666666666667</ele><time>2026-03-28T07:13:13.483Z</time></trkpt><trkpt lat="40.9209967" lon="14.82632"><ele>310.33333333333337</ele><time>2026-03-28T07:13:14.482Z</time></trkpt><trkpt lat="40.9212" lon="14.8262717"><ele>311.0</ele><time>2026-03-28T07:13:15.483Z</time></trkpt><trkpt lat="40.9214083" lon="14.8262217"><ele>311.0</ele><time>2026-03-28T07:13:16.482Z</time></trkpt><trkpt lat="40.9216067" lon="14.8261683"><ele>311.0</ele><time>2026-03-28T07:13:17.483Z</time></trkpt><trkpt lat="40.9218067" lon="14.82612"><ele>311.0</ele><time>2026-03-28T07:13:18.483Z</time></trkpt><trkpt lat="40.9220067" lon="14.82608"><ele>311.0</ele><time>2026-03-28T07:13:19.482Z</time></trkpt><trkpt lat="40.9222117" lon="14.8260583"><ele>311.0</ele><time>2026-03-28T07:13:20.483Z</time></trkpt><trkpt lat="40.9224083" lon="14.8260583"><ele>311.0</ele><time>2026-03-28T07:13:21.483Z</time></trkpt><trkpt lat="40.9226017" lon="14.826065"><ele>311.0</ele><time>2026-03-28T07:13:22.483Z</time></trkpt><trkpt lat="40.922795" lon="14.8260883"><ele>311.0</ele><time>2026-03-28T07:13:23.482Z</time></trkpt><trkpt lat="40.9229867" lon="14.8261283"><ele>311.0</ele><time>2026-03-28T07:13:24.483Z</time></trkpt><trkpt lat="40.92317" lon="14.8261833"><ele>311.0</ele><time>2026-03-28T07:13:25.483Z</time></trkpt><trkpt lat="40.9233383" lon="14.8262433"><ele>311.0</ele><time>2026-03-28T07:13:26.483Z</time></trkpt><trkpt lat="40.923505" lon="14.8263167"><ele>311.0</ele><time>2026-03-28T07:13:27.482Z</time></trkpt><trkpt lat="40.9236667" lon="14.8264"><ele>309.6666666666667</ele><time>2026-03-28T07:13:28.483Z</time></trkpt><trkpt lat="40.923825" lon="14.8264833"><ele>308.3333333333333</ele><time>2026-03-28T07:13:29.483Z</time></trkpt><trkpt lat="40.923975" lon="14.8265833"><ele>307.0</ele><time>2026-03-28T07:13:30.482Z</time></trkpt><trkpt lat="40.9241217" lon="14.82671"><ele>307.0</ele><time>2026-03-28T07:13:31.482Z</time></trkpt><trkpt lat="40.92427" lon="14.8268433"><ele>307.0</ele><time>2026-03-28T07:13:32.483Z</time></trkpt><trkpt lat="40.9244117" lon="14.8269833"><ele>307.0</ele><time>2026-03-28T07:13:33.483Z</time></trkpt><trkpt lat="40.9245533" lon="14.8271317"><ele>307.0</ele><time>2026-03-28T07:13:34.482Z</time></trkpt><trkpt lat="40.9246917" lon="14.8272817"><ele>307.0</ele><time>2026-03-28T07:13:35.483Z</time></trkpt><trkpt lat="40.924825" lon="14.8274233"><ele>307.0</ele><time>2026-03-28T07:13:36.483Z</time></trkpt><trkpt lat="40.9249567" lon="14.8275583"><ele>303.66666666666663</ele><time>2026-03-28T07:13:37.483Z</time></trkpt><trkpt lat="40.9250817" lon="14.8276983"><ele>300.3333333333333</ele><time>2026-03-28T07:13:38.482Z</time></trkpt><trkpt lat="40.92521" lon="14.8278383"><ele>297.0</ele><time>2026-03-28T07:13:39.482Z</time></trkpt><trkpt lat="40.9253467" lon="14.8279783"><ele>297.0</ele><time>2026-03-28T07:13:40.483Z</time></trkpt><trkpt lat="40.9254783" lon="14.828125"><ele>297.0</ele><time>2026-03-28T07:13:41.482Z</time></trkpt><trkpt lat="40.925615" lon="14.8282633"><ele>297.0</ele><time>2026-03-28T07:13:42.483Z</time></trkpt><trkpt lat="40.925745" lon="14.8283967"><ele>296.3333333333333</ele><time>2026-03-28T07:13:43.483Z</time></trkpt><trkpt lat="40.925875" lon="14.8285167"><ele>295.66666666666663</ele><time>2026-03-28T07:13:44.483Z</time></trkpt><trkpt lat="40.92601" lon="14.8286433"><ele>295.0</ele><time>2026-03-28T07:13:45.483Z</time></trkpt><trkpt lat="40.926145" lon="14.8287583"><ele>294.3333333333333</ele><time>2026-03-28T07:13:46.482Z</time></trkpt><trkpt lat="40.9262817" lon="14.828875"><ele>293.6666666666667</ele><time>2026-03-28T07:13:47.483Z</time></trkpt><trkpt lat="40.9264233" lon="14.8289933"><ele>293.0</ele><time>2026-03-28T07:13:48.482Z</time></trkpt><trkpt lat="40.9265667" lon="14.829105"><ele>293.0</ele><time>2026-03-28T07:13:49.483Z</time></trkpt><trkpt lat="40.9267167" lon="14.8292167"><ele>293.0</ele><time>2026-03-28T07:13:50.482Z</time></trkpt><trkpt lat="40.9268767" lon="14.8293283"><ele>293.0</ele><time>2026-03-28T07:13:51.483Z</time></trkpt><trkpt lat="40.92704" lon="14.829455"><ele>291.33333333333337</ele><time>2026-03-28T07:13:52.483Z</time></trkpt><trkpt lat="40.9272033" lon="14.829565"><ele>289.6666666666667</ele><time>2026-03-28T07:13:53.482Z</time></trkpt><trkpt lat="40.9273717" lon="14.82967"><ele>288.0</ele><time>2026-03-28T07:13:54.483Z</time></trkpt><trkpt lat="40.9275483" lon="14.8297683"><ele>287.6666666666667</ele><time>2026-03-28T07:13:55.482Z</time></trkpt><trkpt lat="40.9277267" lon="14.8298667"><ele>287.33333333333337</ele><time>2026-03-28T07:13:56.483Z</time></trkpt><trkpt lat="40.9279117" lon="14.8299533"><ele>287.0</ele><time>2026-03-28T07:13:57.483Z</time></trkpt><trkpt lat="40.9280933" lon="14.8300317"><ele>287.0</ele><time>2026-03-28T07:13:58.483Z</time></trkpt><trkpt lat="40.9282767" lon="14.8301083"><ele>287.0</ele><time>2026-03-28T07:13:59.483Z</time></trkpt><trkpt lat="40.9284583" lon="14.830185"><ele>287.0</ele><time>2026-03-28T07:14:00.482Z</time></trkpt><trkpt lat="40.928645" lon="14.8302483"><ele>287.0</ele><time>2026-03-28T07:14:01.483Z</time></trkpt><trkpt lat="40.9288267" lon="14.8303083"><ele>287.0</ele><time>2026-03-28T07:14:02.483Z</time></trkpt><trkpt lat="40.9290067" lon="14.830365"><ele>287.0</ele><time>2026-03-28T07:14:03.482Z</time></trkpt><trkpt lat="40.929185" lon="14.8304283"><ele>287.0</ele><time>2026-03-28T07:14:04.482Z</time></trkpt><trkpt lat="40.9293667" lon="14.8304833"><ele>287.0</ele><time>2026-03-28T07:14:05.482Z</time></trkpt><trkpt lat="40.9295467" lon="14.8305267"><ele>287.0</ele><time>2026-03-28T07:14:06.483Z</time></trkpt><trkpt lat="40.9297283" lon="14.8305683"><ele>287.0</ele><time>2026-03-28T07:14:07.482Z</time></trkpt><trkpt lat="40.9299133" lon="14.8306083"><ele>287.0</ele><time>2026-03-28T07:14:08.482Z</time></trkpt><trkpt lat="40.9300967" lon="14.8306417"><ele>287.0</ele><time>2026-03-28T07:14:09.483Z</time></trkpt><trkpt lat="40.9302867" lon="14.8306733"><ele>287.33333333333337</ele><time>2026-03-28T07:14:10.483Z</time></trkpt><trkpt lat="40.93048" lon="14.8307067"><ele>287.6666666666667</ele><time>2026-03-28T07:14:11.482Z</time></trkpt><trkpt lat="40.93067" lon="14.8307417"><ele>288.0</ele><time>2026-03-28T07:14:12.482Z</time></trkpt><trkpt lat="40.9308583" lon="14.8307767"><ele>288.6666666666667</ele><time>2026-03-28T07:14:13.483Z</time></trkpt><trkpt lat="40.9310517" lon="14.8308067"><ele>289.33333333333337</ele><time>2026-03-28T07:14:14.483Z</time></trkpt><trkpt lat="40.9312367" lon="14.8308367"><ele>290.0</ele><time>2026-03-28T07:14:15.483Z</time></trkpt><trkpt lat="40.93142" lon="14.8308633"><ele>290.0</ele><time>2026-03-28T07:14:16.483Z</time></trkpt><trkpt lat="40.93159" lon="14.8308983"><ele>290.0</ele><time>2026-03-28T07:14:17.483Z</time></trkpt><trkpt lat="40.931765" lon="14.8309267"><ele>290.0</ele><time>2026-03-28T07:14:18.482Z</time></trkpt><trkpt lat="40.93193" lon="14.83095"><ele>290.5</ele><time>2026-03-28T07:14:19.483Z</time></trkpt><trkpt lat="40.9320767" lon="14.8309733"><ele>291.0</ele><time>2026-03-28T07:14:20.483Z</time></trkpt><trkpt lat="40.932225" lon="14.831"><ele>291.5</ele><time>2026-03-28T07:14:21.482Z</time></trkpt><trkpt lat="40.9323717" lon="14.831035"><ele>292.0</ele><time>2026-03-28T07:14:22.482Z</time></trkpt><trkpt lat="40.932525" lon="14.831055"><ele>294.0</ele><time>2026-03-28T07:14:23.483Z</time></trkpt><trkpt lat="40.9326817" lon="14.831085"><ele>296.0</ele><time>2026-03-28T07:14:24.482Z</time></trkpt><trkpt lat="40.9328433" lon="14.8311317"><ele>298.0</ele><time>2026-03-28T07:14:25.482Z</time></trkpt><trkpt lat="40.9330017" lon="14.83118"><ele>298.0</ele><time>2026-03-28T07:14:26.482Z</time></trkpt><trkpt lat="40.9331533" lon="14.8312183"><ele>298.0</ele><time>2026-03-28T07:14:27.483Z</time></trkpt><trkpt lat="40.9333117" lon="14.831255"><ele>298.0</ele><time>2026-03-28T07:14:28.482Z</time></trkpt><trkpt lat="40.9334617" lon="14.8312967"><ele>297.25</ele><time>2026-03-28T07:14:29.482Z</time></trkpt><trkpt lat="40.9335933" lon="14.8313233"><ele>296.5</ele><time>2026-03-28T07:14:30.483Z</time></trkpt><trkpt lat="40.9337183" lon="14.8313467"><ele>295.75</ele><time>2026-03-28T07:14:31.482Z</time></trkpt><trkpt lat="40.9338367" lon="14.831375"><ele>295.0</ele><time>2026-03-28T07:14:32.483Z</time></trkpt><trkpt lat="40.9339467" lon="14.8314117"><ele>295.0</ele><time>2026-03-28T07:14:33.482Z</time></trkpt><trkpt lat="40.9340333" lon="14.8314633"><ele>295.0</ele><time>2026-03-28T07:14:34.483Z</time></trkpt><trkpt lat="40.9341067" lon="14.8315333"><ele>295.0</ele><time>2026-03-28T07:14:35.483Z</time></trkpt><trkpt lat="40.9341533" lon="14.831635"><ele>295.0</ele><time>2026-03-28T07:14:36.483Z</time></trkpt><trkpt lat="40.9341683" lon="14.8317583"><ele>295.0</ele><time>2026-03-28T07:14:37.483Z</time></trkpt><trkpt lat="40.9341583" lon="14.83188"><ele>296.66666666666663</ele><time>2026-03-28T07:14:38.482Z</time></trkpt><trkpt lat="40.9341217" lon="14.8319867"><ele>298.3333333333333</ele><time>2026-03-28T07:14:39.483Z</time></trkpt><trkpt lat="40.934065" lon="14.83207"><ele>300.0</ele><time>2026-03-28T07:14:40.482Z</time></trkpt><trkpt lat="40.9339867" lon="14.8321267"><ele>301.6666666666667</ele><time>2026-03-28T07:14:41.483Z</time></trkpt><trkpt lat="40.9339017" lon="14.8321567"><ele>303.33333333333337</ele><time>2026-03-28T07:14:42.483Z</time></trkpt><trkpt lat="40.933805" lon="14.8321583"><ele>305.0</ele><time>2026-03-28T07:14:43.483Z</time></trkpt><trkpt lat="40.933695" lon="14.83215"><ele>305.0</ele><time>2026-03-28T07:14:44.482Z</time></trkpt><trkpt lat="40.9335583" lon="14.832145"><ele>305.0</ele><time>2026-03-28T07:14:45.483Z</time></trkpt><trkpt lat="40.93342" lon="14.83214"><ele>305.0</ele><time>2026-03-28T07:14:46.483Z</time></trkpt><trkpt lat="40.9332733" lon="14.8321383"><ele>305.0</ele><time>2026-03-28T07:14:47.482Z</time></trkpt><trkpt lat="40.933125" lon="14.8321367"><ele>305.6666666666667</ele><time>2026-03-28T07:14:48.483Z</time></trkpt><trkpt lat="40.93297" lon="14.8321333"><ele>306.3333333333333</ele><time>2026-03-28T07:14:49.483Z</time></trkpt><trkpt lat="40.9328117" lon="14.8321467"><ele>307.0</ele><time>2026-03-28T07:14:50.483Z</time></trkpt><trkpt lat="40.9326517" lon="14.8321617"><ele>307.0</ele><time>2026-03-28T07:14:51.482Z</time></trkpt><trkpt lat="40.9324833" lon="14.832195"><ele>307.0</ele><time>2026-03-28T07:14:52.482Z</time></trkpt><trkpt lat="40.9323283" lon="14.832235"><ele>307.0</ele><time>2026-03-28T07:14:53.483Z</time></trkpt><trkpt lat="40.93218" lon="14.8322717"><ele>307.0</ele><time>2026-03-28T07:14:54.483Z</time></trkpt><trkpt lat="40.9320467" lon="14.8323233"><ele>307.0</ele><time>2026-03-28T07:14:55.482Z</time></trkpt><trkpt lat="40.9319183" lon="14.832375"><ele>307.0</ele><time>2026-03-28T07:14:56.483Z</time></trkpt><trkpt lat="40.9318017" lon="14.832415"><ele>307.0</ele><time>2026-03-28T07:14:57.483Z</time></trkpt><trkpt lat="40.9316967" lon="14.83246"><ele>307.0</ele><time>2026-03-28T07:14:58.482Z</time></trkpt><trkpt lat="40.9316017" lon="14.8325083"><ele>307.0</ele><time>2026-03-28T07:14:59.483Z</time></trkpt><trkpt lat="40.9315183" lon="14.8325567"><ele>307.0</ele><time>2026-03-28T07:15:00.482Z</time></trkpt><trkpt lat="40.9314333" lon="14.8326"><ele>307.0</ele><time>2026-03-28T07:15:01.483Z</time></trkpt><trkpt lat="40.9313567" lon="14.8326267"><ele>307.0</ele><time>2026-03-28T07:15:02.483Z</time></trkpt><trkpt lat="40.931275" lon="14.83265"><ele>307.0</ele><time>2026-03-28T07:15:03.483Z</time></trkpt><trkpt lat="40.9312" lon="14.8326617"><ele>308.5</ele><time>2026-03-28T07:15:04.482Z</time></trkpt><trkpt lat="40.9311283" lon="14.832665"><ele>310.0</ele><time>2026-03-28T07:15:05.482Z</time></trkpt><trkpt lat="40.9310133" lon="14.832675"><ele>311.5</ele><time>2026-03-28T07:15:07.483Z</time></trkpt><trkpt lat="40.93092" lon="14.832695"><ele>313.0</ele><time>2026-03-28T07:15:09.482Z</time></trkpt><trkpt lat="40.930845" lon="14.8327367"><ele>314.5</ele><time>2026-03-28T07:15:11.483Z</time></trkpt><trkpt lat="40.9307833" lon="14.8327633"><ele>316.0</ele><time>2026-03-28T07:15:13.482Z</time></trkpt><trkpt lat="40.9307233" lon="14.8326517"><ele>316.0</ele><time>2026-03-28T07:16:28.484Z</time></trkpt><trkpt lat="40.93064" lon="14.8326867"><ele>316.0</ele><time>2026-03-28T07:17:13.484Z</time></trkpt><trkpt lat="40.9305883" lon="14.8326167"><ele>316.0</ele><time>2026-03-28T07:17:50.483Z</time></trkpt><trkpt lat="40.9305983" lon="14.832715"><ele>316.0</ele><time>2026-03-28T07:19:45.484Z</time></trkpt><trkpt lat="40.9306933" lon="14.832745"><ele>316.0</ele><time>2026-03-28T07:19:57.483Z</time></trkpt><trkpt lat="40.9305967" lon="14.83276"><ele>316.0</ele><time>2026-03-28T07:20:12.484Z</time></trkpt><trkpt lat="40.9306967" lon="14.8328033"><ele>316.0</ele><time>2026-03-28T07:21:46.485Z</time></trkpt><trkpt lat="40.93067" lon="14.832905"><ele>316.0</ele><time>2026-03-28T07:32:25.486Z</time></trkpt><trkpt lat="40.9306183" lon="14.832975"><ele>316.0</ele><time>2026-03-28T07:32:26.486Z</time></trkpt><trkpt lat="40.9305533" lon="14.8330383"><ele>316.0</ele><time>2026-03-28T07:32:27.486Z</time></trkpt><trkpt lat="40.930475" lon="14.8331017"><ele>316.0</ele><time>2026-03-28T07:32:28.485Z</time></trkpt><trkpt lat="40.93038" lon="14.8331633"><ele>316.0</ele><time>2026-03-28T07:32:29.486Z</time></trkpt><trkpt lat="40.9302767" lon="14.8332283"><ele>316.0</ele><time>2026-03-28T07:32:30.485Z</time></trkpt><trkpt lat="40.9301733" lon="14.8332883"><ele>316.0</ele><time>2026-03-28T07:32:31.485Z</time></trkpt><trkpt lat="40.9300617" lon="14.8333483"><ele>316.0</ele><time>2026-03-28T07:32:32.486Z</time></trkpt><trkpt lat="40.9299517" lon="14.83341"><ele>316.0</ele><time>2026-03-28T07:32:33.485Z</time></trkpt><trkpt lat="40.9298433" lon="14.8334733"><ele>320.25</ele><time>2026-03-28T07:32:34.486Z</time></trkpt><trkpt lat="40.9297317" lon="14.8335317"><ele>324.5</ele><time>2026-03-28T07:32:35.486Z</time></trkpt><trkpt lat="40.9296217" lon="14.8335883"><ele>328.75</ele><time>2026-03-28T07:32:36.485Z</time></trkpt><trkpt lat="40.929525" lon="14.833645"><ele>333.0</ele><time>2026-03-28T07:32:37.486Z</time></trkpt><trkpt lat="40.929425" lon="14.8337017"><ele>333.0</ele><time>2026-03-28T07:32:38.486Z</time></trkpt><trkpt lat="40.9293233" lon="14.8337517"><ele>333.0</ele><time>2026-03-28T07:32:39.485Z</time></trkpt><trkpt lat="40.929215" lon="14.8338033"><ele>333.0</ele><time>2026-03-28T07:32:40.486Z</time></trkpt><trkpt lat="40.92911" lon="14.8338583"><ele>333.0</ele><time>2026-03-28T07:32:41.486Z</time></trkpt><trkpt lat="40.9290017" lon="14.8339283"><ele>332.0</ele><time>2026-03-28T07:32:42.486Z</time></trkpt><trkpt lat="40.9288833" lon="14.83399"><ele>331.0</ele><time>2026-03-28T07:32:43.486Z</time></trkpt><trkpt lat="40.928775" lon="14.8340583"><ele>330.0</ele><time>2026-03-28T07:32:44.485Z</time></trkpt><trkpt lat="40.928665" lon="14.8341283"><ele>329.0</ele><time>2026-03-28T07:32:45.485Z</time></trkpt><trkpt lat="40.9285467" lon="14.834205"><ele>330.0</ele><time>2026-03-28T07:32:46.486Z</time></trkpt><trkpt lat="40.9284183" lon="14.834305"><ele>331.0</ele><time>2026-03-28T07:32:47.485Z</time></trkpt><trkpt lat="40.9283033" lon="14.8344"><ele>332.0</ele><time>2026-03-28T07:32:48.485Z</time></trkpt><trkpt lat="40.92819" lon="14.834505"><ele>333.0</ele><time>2026-03-28T07:32:49.486Z</time></trkpt><trkpt lat="40.928075" lon="14.8346133"><ele>333.0</ele><time>2026-03-28T07:32:50.486Z</time></trkpt><trkpt lat="40.9279683" lon="14.8347383"><ele>333.0</ele><time>2026-03-28T07:32:51.486Z</time></trkpt><trkpt lat="40.9278567" lon="14.834865"><ele>333.0</ele><time>2026-03-28T07:32:52.485Z</time></trkpt><trkpt lat="40.9277467" lon="14.8350117"><ele>333.0</ele><time>2026-03-28T07:32:53.485Z</time></trkpt><trkpt lat="40.9276433" lon="14.8351567"><ele>333.25</ele><time>2026-03-28T07:32:54.486Z</time></trkpt><trkpt lat="40.92755" lon="14.835305"><ele>333.5</ele><time>2026-03-28T07:32:55.486Z</time></trkpt><trkpt lat="40.927465" lon="14.83545"><ele>333.75</ele><time>2026-03-28T07:32:56.486Z</time></trkpt><trkpt lat="40.9273867" lon="14.835605"><ele>334.0</ele><time>2026-03-28T07:32:57.486Z</time></trkpt><trkpt lat="40.927315" lon="14.8357617"><ele>334.0</ele><time>2026-03-28T07:32:58.486Z</time></trkpt><trkpt lat="40.9272433" lon="14.8359217"><ele>334.0</ele><time>2026-03-28T07:32:59.486Z</time></trkpt><trkpt lat="40.9271717" lon="14.8360783"><ele>334.0</ele><time>2026-03-28T07:33:00.486Z</time></trkpt><trkpt lat="40.92711" lon="14.8362483"><ele>334.0</ele><time>2026-03-28T07:33:01.486Z</time></trkpt><trkpt lat="40.9270533" lon="14.8364267"><ele>337.66666666666663</ele><time>2026-03-28T07:33:02.485Z</time></trkpt><trkpt lat="40.9269967" lon="14.8366117"><ele>341.3333333333333</ele><time>2026-03-28T07:33:03.485Z</time></trkpt><trkpt lat="40.926955" lon="14.8368083"><ele>345.0</ele><time>2026-03-28T07:33:04.486Z</time></trkpt><trkpt lat="40.9269217" lon="14.837"><ele>346.75</ele><time>2026-03-28T07:33:05.486Z</time></trkpt><trkpt lat="40.9269" lon="14.8371983"><ele>348.5</ele><time>2026-03-28T07:33:06.486Z</time></trkpt><trkpt lat="40.9268817" lon="14.83739"><ele>350.25</ele><time>2026-03-28T07:33:07.485Z</time></trkpt><trkpt lat="40.9268733" lon="14.8375867"><ele>352.0</ele><time>2026-03-28T07:33:08.485Z</time></trkpt><trkpt lat="40.9268733" lon="14.83779"><ele>356.0</ele><time>2026-03-28T07:33:09.485Z</time></trkpt><trkpt lat="40.9268833" lon="14.837995"><ele>360.0</ele><time>2026-03-28T07:33:10.485Z</time></trkpt><trkpt lat="40.9269067" lon="14.8381967"><ele>364.0</ele><time>2026-03-28T07:33:11.486Z</time></trkpt><trkpt lat="40.9269333" lon="14.8384133"><ele>363.3333333333333</ele><time>2026-03-28T07:33:12.486Z</time></trkpt><trkpt lat="40.9269583" lon="14.8386283"><ele>362.6666666666667</ele><time>2026-03-28T07:33:13.486Z</time></trkpt><trkpt lat="40.9269783" lon="14.8388367"><ele>362.0</ele><time>2026-03-28T07:33:14.485Z</time></trkpt><trkpt lat="40.9269967" lon="14.8390433"><ele>362.0</ele><time>2026-03-28T07:33:15.486Z</time></trkpt><trkpt lat="40.92701" lon="14.83924"><ele>362.0</ele><time>2026-03-28T07:33:16.485Z</time></trkpt><trkpt lat="40.9270417" lon="14.8394167"><ele>362.0</ele><time>2026-03-28T07:33:17.486Z</time></trkpt><trkpt lat="40.9271983" lon="14.8395683"><ele>359.33333333333337</ele><time>2026-03-28T07:33:18.486Z</time></trkpt><trkpt lat="40.9273833" lon="14.83972"><ele>356.6666666666667</ele><time>2026-03-28T07:33:19.485Z</time></trkpt><trkpt lat="40.9274483" lon="14.839915"><ele>354.0</ele><time>2026-03-28T07:33:20.485Z</time></trkpt><trkpt lat="40.9275267" lon="14.8401067"><ele>355.0</ele><time>2026-03-28T07:33:21.485Z</time></trkpt><trkpt lat="40.9276267" lon="14.8402967"><ele>356.0</ele><time>2026-03-28T07:33:22.486Z</time></trkpt><trkpt lat="40.9277217" lon="14.8404817"><ele>357.0</ele><time>2026-03-28T07:33:23.486Z</time></trkpt><trkpt lat="40.9278267" lon="14.840655"><ele>357.0</ele><time>2026-03-28T07:33:24.486Z</time></trkpt><trkpt lat="40.9279367" lon="14.84083"><ele>357.0</ele><time>2026-03-28T07:33:25.485Z</time></trkpt><trkpt lat="40.9280617" lon="14.841"><ele>357.0</ele><time>2026-03-28T07:33:26.486Z</time></trkpt><trkpt lat="40.9281867" lon="14.84116"><ele>354.6666666666667</ele><time>2026-03-28T07:33:27.486Z</time></trkpt><trkpt lat="40.9283233" lon="14.84131"><ele>352.33333333333337</ele><time>2026-03-28T07:33:28.486Z</time></trkpt><trkpt lat="40.9284717" lon="14.84145"><ele>350.0</ele><time>2026-03-28T07:33:29.485Z</time></trkpt><trkpt lat="40.9286317" lon="14.84158"><ele>350.0</ele><time>2026-03-28T07:33:30.485Z</time></trkpt><trkpt lat="40.9287917" lon="14.841705"><ele>350.0</ele><time>2026-03-28T07:33:31.486Z</time></trkpt><trkpt lat="40.9289517" lon="14.8418317"><ele>350.0</ele><time>2026-03-28T07:33:32.486Z</time></trkpt><trkpt lat="40.9291117" lon="14.8419633"><ele>348.0</ele><time>2026-03-28T07:33:33.486Z</time></trkpt><trkpt lat="40.9292683" lon="14.8420917"><ele>346.0</ele><time>2026-03-28T07:33:34.486Z</time></trkpt><trkpt lat="40.92943" lon="14.84222"><ele>344.0</ele><time>2026-03-28T07:33:35.485Z</time></trkpt><trkpt lat="40.92959" lon="14.8423483"><ele>344.0</ele><time>2026-03-28T07:33:36.485Z</time></trkpt><trkpt lat="40.9297467" lon="14.8424783"><ele>344.0</ele><time>2026-03-28T07:33:37.486Z</time></trkpt><trkpt lat="40.9299083" lon="14.84262"><ele>344.0</ele><time>2026-03-28T07:33:38.486Z</time></trkpt><trkpt lat="40.9300717" lon="14.842755"><ele>351.6666666666667</ele><time>2026-03-28T07:33:39.486Z</time></trkpt><trkpt lat="40.9302367" lon="14.842895"><ele>359.3333333333333</ele><time>2026-03-28T07:33:40.485Z</time></trkpt><trkpt lat="40.9304083" lon="14.84304"><ele>367.0</ele><time>2026-03-28T07:33:41.486Z</time></trkpt><trkpt lat="40.9305833" lon="14.8431933"><ele>367.0</ele><time>2026-03-28T07:33:42.486Z</time></trkpt><trkpt lat="40.9307517" lon="14.8433383"><ele>367.0</ele><time>2026-03-28T07:33:43.486Z</time></trkpt><trkpt lat="40.9309167" lon="14.8434833"><ele>367.0</ele><time>2026-03-28T07:33:44.486Z</time></trkpt><trkpt lat="40.9310767" lon="14.8436217"><ele>370.3333333333333</ele><time>2026-03-28T07:33:45.486Z</time></trkpt><trkpt lat="40.9312383" lon="14.8437583"><ele>373.6666666666667</ele><time>2026-03-28T07:33:46.485Z</time></trkpt><trkpt lat="40.93139" lon="14.8439017"><ele>377.0</ele><time>2026-03-28T07:33:47.485Z</time></trkpt><trkpt lat="40.93154" lon="14.8440417"><ele>377.0</ele><time>2026-03-28T07:33:48.486Z</time></trkpt><trkpt lat="40.931685" lon="14.8441933"><ele>377.0</ele><time>2026-03-28T07:33:49.486Z</time></trkpt><trkpt lat="40.9318283" lon="14.8443483"><ele>377.0</ele><time>2026-03-28T07:33:50.485Z</time></trkpt><trkpt lat="40.9319817" lon="14.8445"><ele>377.6666666666667</ele><time>2026-03-28T07:33:51.486Z</time></trkpt><trkpt lat="40.9321333" lon="14.8446533"><ele>378.3333333333333</ele><time>2026-03-28T07:33:52.486Z</time></trkpt><trkpt lat="40.932285" lon="14.844805"><ele>379.0</ele><time>2026-03-28T07:33:53.486Z</time></trkpt><trkpt lat="40.932435" lon="14.8449533"><ele>380.66666666666663</ele><time>2026-03-28T07:33:54.486Z</time></trkpt><trkpt lat="40.9325867" lon="14.8451067"><ele>382.3333333333333</ele><time>2026-03-28T07:33:55.485Z</time></trkpt><trkpt lat="40.93273" lon="14.8452617"><ele>384.0</ele><time>2026-03-28T07:33:56.485Z</time></trkpt><trkpt lat="40.932875" lon="14.8454217"><ele>384.0</ele><time>2026-03-28T07:33:57.485Z</time></trkpt><trkpt lat="40.9330083" lon="14.8455933"><ele>384.0</ele><time>2026-03-28T07:33:58.485Z</time></trkpt><trkpt lat="40.9331383" lon="14.8457733"><ele>384.0</ele><time>2026-03-28T07:33:59.485Z</time></trkpt><trkpt lat="40.9332633" lon="14.8459467"><ele>383.6666666666667</ele><time>2026-03-28T07:34:00.485Z</time></trkpt><trkpt lat="40.9333783" lon="14.8461333"><ele>383.33333333333337</ele><time>2026-03-28T07:34:01.485Z</time></trkpt><trkpt lat="40.9334883" lon="14.8463067"><ele>383.0</ele><time>2026-03-28T07:34:02.485Z</time></trkpt><trkpt lat="40.9335867" lon="14.8464933"><ele>387.0</ele><time>2026-03-28T07:34:03.485Z</time></trkpt><trkpt lat="40.9336783" lon="14.8466883"><ele>391.0</ele><time>2026-03-28T07:34:04.485Z</time></trkpt><trkpt lat="40.9337633" lon="14.8468917"><ele>395.0</ele><time>2026-03-28T07:34:05.485Z</time></trkpt><trkpt lat="40.93385" lon="14.8471017"><ele>397.0</ele><time>2026-03-28T07:34:06.486Z</time></trkpt><trkpt lat="40.933925" lon="14.84731"><ele>399.0</ele><time>2026-03-28T07:34:07.486Z</time></trkpt><trkpt lat="40.934005" lon="14.8475183"><ele>401.0</ele><time>2026-03-28T07:34:08.486Z</time></trkpt><trkpt lat="40.93408" lon="14.8477317"><ele>403.0</ele><time>2026-03-28T07:34:09.485Z</time></trkpt><trkpt lat="40.9341567" lon="14.8479267"><ele>405.0</ele><time>2026-03-28T07:34:10.486Z</time></trkpt><trkpt lat="40.9342267" lon="14.8481533"><ele>407.0</ele><time>2026-03-28T07:34:11.486Z</time></trkpt><trkpt lat="40.93429" lon="14.848375"><ele>408.3333333333333</ele><time>2026-03-28T07:34:12.485Z</time></trkpt><trkpt lat="40.9343483" lon="14.8485967"><ele>409.66666666666663</ele><time>2026-03-28T07:34:13.486Z</time></trkpt><trkpt lat="40.9344033" lon="14.8488217"><ele>411.0</ele><time>2026-03-28T07:34:14.486Z</time></trkpt><trkpt lat="40.934285" lon="14.84912"><ele>410.33333333333337</ele><time>2026-03-28T07:34:15.486Z</time></trkpt><trkpt lat="40.9343017" lon="14.849325"><ele>409.6666666666667</ele><time>2026-03-28T07:34:16.486Z</time></trkpt><trkpt lat="40.9343517" lon="14.8495583"><ele>409.0</ele><time>2026-03-28T07:34:17.486Z</time></trkpt><trkpt lat="40.9343733" lon="14.8497983"><ele>409.0</ele><time>2026-03-28T07:34:18.485Z</time></trkpt><trkpt lat="40.934375" lon="14.850035"><ele>409.0</ele><time>2026-03-28T07:34:19.486Z</time></trkpt><trkpt lat="40.93437" lon="14.850275"><ele>409.0</ele><time>2026-03-28T07:34:20.486Z</time></trkpt><trkpt lat="40.9343517" lon="14.8505133"><ele>410.0</ele><time>2026-03-28T07:34:21.486Z</time></trkpt><trkpt lat="40.9343317" lon="14.8507467"><ele>411.0</ele><time>2026-03-28T07:34:22.485Z</time></trkpt><trkpt lat="40.934305" lon="14.8509717"><ele>412.0</ele><time>2026-03-28T07:34:23.486Z</time></trkpt><trkpt lat="40.9342717" lon="14.8511983"><ele>411.33333333333337</ele><time>2026-03-28T07:34:24.485Z</time></trkpt><trkpt lat="40.9342317" lon="14.851435"><ele>410.66666666666663</ele><time>2026-03-28T07:34:25.485Z</time></trkpt><trkpt lat="40.9341867" lon="14.851675"><ele>410.0</ele><time>2026-03-28T07:34:26.485Z</time></trkpt><trkpt lat="40.9341367" lon="14.8519117"><ele>411.3333333333333</ele><time>2026-03-28T07:34:27.485Z</time></trkpt><trkpt lat="40.9340833" lon="14.8521483"><ele>412.66666666666663</ele><time>2026-03-28T07:34:28.485Z</time></trkpt><trkpt lat="40.9340183" lon="14.8523883"><ele>414.0</ele><time>2026-03-28T07:34:29.486Z</time></trkpt><trkpt lat="40.9339583" lon="14.85263"><ele>414.66666666666663</ele><time>2026-03-28T07:34:30.486Z</time></trkpt><trkpt lat="40.9338933" lon="14.85287"><ele>415.3333333333333</ele><time>2026-03-28T07:34:31.485Z</time></trkpt><trkpt lat="40.9338433" lon="14.8531067"><ele>416.0</ele><time>2026-03-28T07:34:32.485Z</time></trkpt><trkpt lat="40.9337833" lon="14.8533317"><ele>419.0</ele><time>2026-03-28T07:34:33.486Z</time></trkpt><trkpt lat="40.9337283" lon="14.8535633"><ele>422.0</ele><time>2026-03-28T07:34:34.486Z</time></trkpt><trkpt lat="40.933665" lon="14.8537967"><ele>425.0</ele><time>2026-03-28T07:34:35.485Z</time></trkpt><trkpt lat="40.9336067" lon="14.85403"><ele>425.0</ele><time>2026-03-28T07:34:36.486Z</time></trkpt><trkpt lat="40.9335467" lon="14.85427"><ele>425.0</ele><time>2026-03-28T07:34:37.486Z</time></trkpt><trkpt lat="40.933495" lon="14.854515"><ele>425.0</ele><time>2026-03-28T07:34:38.486Z</time></trkpt><trkpt lat="40.93344" lon="14.85476"><ele>426.66666666666663</ele><time>2026-03-28T07:34:39.486Z</time></trkpt><trkpt lat="40.9333833" lon="14.8549817"><ele>428.33333333333337</ele><time>2026-03-28T07:34:40.485Z</time></trkpt><trkpt lat="40.933335" lon="14.8552117"><ele>430.0</ele><time>2026-03-28T07:34:41.486Z</time></trkpt><trkpt lat="40.9332967" lon="14.8554467"><ele>431.6666666666667</ele><time>2026-03-28T07:34:42.485Z</time></trkpt><trkpt lat="40.9332283" lon="14.85569"><ele>433.33333333333337</ele><time>2026-03-28T07:34:43.486Z</time></trkpt><trkpt lat="40.933135" lon="14.8559367"><ele>435.0</ele><time>2026-03-28T07:34:44.486Z</time></trkpt><trkpt lat="40.93306" lon="14.8561833"><ele>435.0</ele><time>2026-03-28T07:34:45.486Z</time></trkpt><trkpt lat="40.9329617" lon="14.8564133"><ele>435.0</ele><time>2026-03-28T07:34:46.485Z</time></trkpt><trkpt lat="40.932865" lon="14.8566417"><ele>435.0</ele><time>2026-03-28T07:34:47.485Z</time></trkpt><trkpt lat="40.9327733" lon="14.8568483"><ele>436.66666666666663</ele><time>2026-03-28T07:34:48.486Z</time></trkpt><trkpt lat="40.9326783" lon="14.857055"><ele>438.3333333333333</ele><time>2026-03-28T07:34:49.485Z</time></trkpt><trkpt lat="40.9325767" lon="14.8572533"><ele>440.0</ele><time>2026-03-28T07:34:50.486Z</time></trkpt><trkpt lat="40.9324783" lon="14.85745"><ele>438.66666666666663</ele><time>2026-03-28T07:34:51.486Z</time></trkpt><trkpt lat="40.93238" lon="14.8576533"><ele>437.33333333333337</ele><time>2026-03-28T07:34:52.485Z</time></trkpt><trkpt lat="40.932275" lon="14.8578583"><ele>436.0</ele><time>2026-03-28T07:34:53.485Z</time></trkpt><trkpt lat="40.9321717" lon="14.8580583"><ele>436.0</ele><time>2026-03-28T07:34:54.485Z</time></trkpt><trkpt lat="40.9320633" lon="14.8582533"><ele>436.0</ele><time>2026-03-28T07:34:55.486Z</time></trkpt><trkpt lat="40.93195" lon="14.8584367"><ele>436.0</ele><time>2026-03-28T07:34:56.486Z</time></trkpt><trkpt lat="40.931825" lon="14.8586083"><ele>440.0</ele><time>2026-03-28T07:34:57.486Z</time></trkpt><trkpt lat="40.9316933" lon="14.858775"><ele>444.0</ele><time>2026-03-28T07:34:58.485Z</time></trkpt><trkpt lat="40.9315517" lon="14.85894"><ele>448.0</ele><time>2026-03-28T07:34:59.486Z</time></trkpt><trkpt lat="40.9314017" lon="14.85909"><ele>448.0</ele><time>2026-03-28T07:35:00.485Z</time></trkpt><trkpt lat="40.9312483" lon="14.8592333"><ele>448.0</ele><time>2026-03-28T07:35:01.485Z</time></trkpt><trkpt lat="40.9310967" lon="14.8593733"><ele>448.0</ele><time>2026-03-28T07:35:02.485Z</time></trkpt><trkpt lat="40.9309417" lon="14.85952"><ele>452.33333333333337</ele><time>2026-03-28T07:35:03.486Z</time></trkpt><trkpt lat="40.93081" lon="14.8596817"><ele>456.66666666666663</ele><time>2026-03-28T07:35:04.486Z</time></trkpt><trkpt lat="40.9306767" lon="14.8598467"><ele>461.0</ele><time>2026-03-28T07:35:05.486Z</time></trkpt><trkpt lat="40.9305483" lon="14.860005"><ele>462.0</ele><time>2026-03-28T07:35:06.485Z</time></trkpt><trkpt lat="40.930415" lon="14.86015"><ele>463.0</ele><time>2026-03-28T07:35:07.485Z</time></trkpt><trkpt lat="40.9302617" lon="14.8603017"><ele>464.0</ele><time>2026-03-28T07:35:08.485Z</time></trkpt><trkpt lat="40.9300383" lon="14.8603767"><ele>464.0</ele><time>2026-03-28T07:35:09.486Z</time></trkpt><trkpt lat="40.9298567" lon="14.86047"><ele>464.0</ele><time>2026-03-28T07:35:10.486Z</time></trkpt><trkpt lat="40.9297033" lon="14.8606167"><ele>464.0</ele><time>2026-03-28T07:35:11.486Z</time></trkpt><trkpt lat="40.92957" lon="14.860785"><ele>466.66666666666663</ele><time>2026-03-28T07:35:12.485Z</time></trkpt><trkpt lat="40.9294467" lon="14.86095"><ele>469.33333333333337</ele><time>2026-03-28T07:35:13.486Z</time></trkpt><trkpt lat="40.92935" lon="14.861145"><ele>472.0</ele><time>2026-03-28T07:35:14.486Z</time></trkpt><trkpt lat="40.929245" lon="14.8613533"><ele>471.0</ele><time>2026-03-28T07:35:15.486Z</time></trkpt><trkpt lat="40.92917" lon="14.86158"><ele>470.0</ele><time>2026-03-28T07:35:16.486Z</time></trkpt><trkpt lat="40.9290883" lon="14.86179"><ele>469.0</ele><time>2026-03-28T07:35:17.485Z</time></trkpt><trkpt lat="40.929035" lon="14.8620167"><ele>469.0</ele><time>2026-03-28T07:35:18.486Z</time></trkpt><trkpt lat="40.9289933" lon="14.86226"><ele>469.0</ele><time>2026-03-28T07:35:19.486Z</time></trkpt><trkpt lat="40.9289517" lon="14.8624983"><ele>469.0</ele><time>2026-03-28T07:35:20.486Z</time></trkpt><trkpt lat="40.928935" lon="14.8627417"><ele>470.0</ele><time>2026-03-28T07:35:21.486Z</time></trkpt><trkpt lat="40.9289317" lon="14.8629883"><ele>471.0</ele><time>2026-03-28T07:35:22.485Z</time></trkpt><trkpt lat="40.92894" lon="14.863235"><ele>472.0</ele><time>2026-03-28T07:35:23.486Z</time></trkpt><trkpt lat="40.928955" lon="14.86348"><ele>472.6666666666667</ele><time>2026-03-28T07:35:24.486Z</time></trkpt><trkpt lat="40.928985" lon="14.8637217"><ele>473.33333333333337</ele><time>2026-03-28T07:35:25.485Z</time></trkpt><trkpt lat="40.929035" lon="14.863965"><ele>474.0</ele><time>2026-03-28T07:35:26.486Z</time></trkpt><trkpt lat="40.9290883" lon="14.8642083"><ele>473.33333333333337</ele><time>2026-03-28T07:35:27.487Z</time></trkpt><trkpt lat="40.9291467" lon="14.86445"><ele>472.6666666666667</ele><time>2026-03-28T07:35:28.486Z</time></trkpt><trkpt lat="40.929215" lon="14.8646933"><ele>472.0</ele><time>2026-03-28T07:35:29.486Z</time></trkpt><trkpt lat="40.929275" lon="14.8649333"><ele>475.33333333333337</ele><time>2026-03-28T07:35:30.486Z</time></trkpt><trkpt lat="40.92934" lon="14.8651733"><ele>478.66666666666663</ele><time>2026-03-28T07:35:31.487Z</time></trkpt><trkpt lat="40.9294117" lon="14.8654083"><ele>482.0</ele><time>2026-03-28T07:35:32.486Z</time></trkpt><trkpt lat="40.9294717" lon="14.8656467"><ele>482.0</ele><time>2026-03-28T07:35:33.487Z</time></trkpt><trkpt lat="40.9295383" lon="14.86588"><ele>482.0</ele><time>2026-03-28T07:35:34.487Z</time></trkpt><trkpt lat="40.9296" lon="14.86611"><ele>482.0</ele><time>2026-03-28T07:35:35.486Z</time></trkpt><trkpt lat="40.9296533" lon="14.8663417"><ele>482.0</ele><time>2026-03-28T07:35:36.487Z</time></trkpt><trkpt lat="40.9297133" lon="14.8665717"><ele>482.0</ele><time>2026-03-28T07:35:37.487Z</time></trkpt><trkpt lat="40.9297867" lon="14.8667967"><ele>482.0</ele><time>2026-03-28T07:35:38.486Z</time></trkpt><trkpt lat="40.9298533" lon="14.8670233"><ele>483.0</ele><time>2026-03-28T07:35:39.487Z</time></trkpt><trkpt lat="40.9299167" lon="14.8672533"><ele>484.0</ele><time>2026-03-28T07:35:40.487Z</time></trkpt><trkpt lat="40.9299817" lon="14.8674833"><ele>485.0</ele><time>2026-03-28T07:35:41.486Z</time></trkpt><trkpt lat="40.9300467" lon="14.8677133"><ele>488.0</ele><time>2026-03-28T07:35:42.487Z</time></trkpt><trkpt lat="40.9301067" lon="14.867945"><ele>491.0</ele><time>2026-03-28T07:35:43.487Z</time></trkpt><trkpt lat="40.9301617" lon="14.8681783"><ele>494.0</ele><time>2026-03-28T07:35:44.487Z</time></trkpt><trkpt lat="40.9302267" lon="14.8684033"><ele>495.66666666666663</ele><time>2026-03-28T07:35:45.487Z</time></trkpt><trkpt lat="40.93029" lon="14.86863"><ele>497.33333333333337</ele><time>2026-03-28T07:35:46.486Z</time></trkpt><trkpt lat="40.9303483" lon="14.868855"><ele>499.0</ele><time>2026-03-28T07:35:47.487Z</time></trkpt><trkpt lat="40.9304083" lon="14.8690783"><ele>499.33333333333337</ele><time>2026-03-28T07:35:48.487Z</time></trkpt><trkpt lat="40.9304617" lon="14.8693033"><ele>499.66666666666663</ele><time>2026-03-28T07:35:49.487Z</time></trkpt><trkpt lat="40.9305283" lon="14.8695217"><ele>500.0</ele><time>2026-03-28T07:35:50.486Z</time></trkpt><trkpt lat="40.9305933" lon="14.86974"><ele>500.0</ele><time>2026-03-28T07:35:51.487Z</time></trkpt><trkpt lat="40.9306567" lon="14.8699617"><ele>500.0</ele><time>2026-03-28T07:35:52.487Z</time></trkpt><trkpt lat="40.930715" lon="14.8701883"><ele>500.0</ele><time>2026-03-28T07:35:53.486Z</time></trkpt><trkpt lat="40.930775" lon="14.8704083"><ele>500.3333333333333</ele><time>2026-03-28T07:35:54.487Z</time></trkpt><trkpt lat="40.930835" lon="14.8706383"><ele>500.66666666666663</ele><time>2026-03-28T07:35:55.486Z</time></trkpt><trkpt lat="40.9308967" lon="14.8708633"><ele>501.0</ele><time>2026-03-28T07:35:56.487Z</time></trkpt><trkpt lat="40.93096" lon="14.871085"><ele>501.0</ele><time>2026-03-28T07:35:57.486Z</time></trkpt><trkpt lat="40.931025" lon="14.8713"><ele>501.0</ele><time>2026-03-28T07:35:58.486Z</time></trkpt><trkpt lat="40.93109" lon="14.8715117"><ele>501.0</ele><time>2026-03-28T07:35:59.487Z</time></trkpt><trkpt lat="40.9311567" lon="14.8717317"><ele>502.0</ele><time>2026-03-28T07:36:00.486Z</time></trkpt><trkpt lat="40.9312233" lon="14.87195"><ele>503.0</ele><time>2026-03-28T07:36:01.486Z</time></trkpt><trkpt lat="40.9312967" lon="14.8721667"><ele>504.0</ele><time>2026-03-28T07:36:02.487Z</time></trkpt><trkpt lat="40.9313817" lon="14.8723783"><ele>504.0</ele><time>2026-03-28T07:36:03.487Z</time></trkpt><trkpt lat="40.931475" lon="14.8725933"><ele>504.0</ele><time>2026-03-28T07:36:04.487Z</time></trkpt><trkpt lat="40.93158" lon="14.87281"><ele>504.0</ele><time>2026-03-28T07:36:05.487Z</time></trkpt><trkpt lat="40.9317" lon="14.8730283"><ele>504.66666666666663</ele><time>2026-03-28T07:36:06.487Z</time></trkpt><trkpt lat="40.93182" lon="14.87324"><ele>505.3333333333333</ele><time>2026-03-28T07:36:07.487Z</time></trkpt><trkpt lat="40.9319383" lon="14.8734467"><ele>506.0</ele><time>2026-03-28T07:36:08.486Z</time></trkpt><trkpt lat="40.9320583" lon="14.8736683"><ele>509.66666666666663</ele><time>2026-03-28T07:36:09.487Z</time></trkpt><trkpt lat="40.93217" lon="14.8738867"><ele>513.3333333333334</ele><time>2026-03-28T07:36:10.487Z</time></trkpt><trkpt lat="40.9322767" lon="14.8741017"><ele>517.0</ele><time>2026-03-28T07:36:11.487Z</time></trkpt><trkpt lat="40.9323817" lon="14.8743133"><ele>517.6666666666667</ele><time>2026-03-28T07:36:12.487Z</time></trkpt><trkpt lat="40.9324833" lon="14.8745033"><ele>518.3333333333334</ele><time>2026-03-28T07:36:13.487Z</time></trkpt><trkpt lat="40.9325883" lon="14.8746933"><ele>519.0</ele><time>2026-03-28T07:36:14.486Z</time></trkpt><trkpt lat="40.9326983" lon="14.87489"><ele>519.0</ele><time>2026-03-28T07:36:15.486Z</time></trkpt><trkpt lat="40.9328017" lon="14.8750933"><ele>519.0</ele><time>2026-03-28T07:36:16.486Z</time></trkpt><trkpt lat="40.9329033" lon="14.87529"><ele>519.0</ele><time>2026-03-28T07:36:17.487Z</time></trkpt><trkpt lat="40.933005" lon="14.8754817"><ele>522.3333333333334</ele><time>2026-03-28T07:36:18.487Z</time></trkpt><trkpt lat="40.9331" lon="14.8756767"><ele>525.6666666666667</ele><time>2026-03-28T07:36:19.487Z</time></trkpt><trkpt lat="40.9331917" lon="14.87588"><ele>529.0</ele><time>2026-03-28T07:36:20.487Z</time></trkpt><trkpt lat="40.9332683" lon="14.876095"><ele>530.6666666666667</ele><time>2026-03-28T07:36:21.486Z</time></trkpt><trkpt lat="40.9333367" lon="14.8763217"><ele>532.3333333333334</ele><time>2026-03-28T07:36:22.487Z</time></trkpt><trkpt lat="40.9333983" lon="14.8765483"><ele>534.0</ele><time>2026-03-28T07:36:23.486Z</time></trkpt><trkpt lat="40.93345" lon="14.8767733"><ele>534.3333333333334</ele><time>2026-03-28T07:36:24.487Z</time></trkpt><trkpt lat="40.93348" lon="14.87701"><ele>534.6666666666667</ele><time>2026-03-28T07:36:25.487Z</time></trkpt><trkpt lat="40.9335183" lon="14.877245"><ele>535.0</ele><time>2026-03-28T07:36:26.487Z</time></trkpt><trkpt lat="40.9335617" lon="14.8774983"><ele>532.0</ele><time>2026-03-28T07:36:27.486Z</time></trkpt><trkpt lat="40.9335517" lon="14.8777417"><ele>529.0</ele><time>2026-03-28T07:36:28.487Z</time></trkpt><trkpt lat="40.9335217" lon="14.8779767"><ele>526.0</ele><time>2026-03-28T07:36:29.487Z</time></trkpt><trkpt lat="40.9334783" lon="14.8782033"><ele>526.0</ele><time>2026-03-28T07:36:30.487Z</time></trkpt><trkpt lat="40.93343" lon="14.8784217"><ele>526.0</ele><time>2026-03-28T07:36:31.487Z</time></trkpt><trkpt lat="40.9333733" lon="14.87864"><ele>526.0</ele><time>2026-03-28T07:36:32.487Z</time></trkpt><trkpt lat="40.933305" lon="14.878855"><ele>530.6666666666667</ele><time>2026-03-28T07:36:33.487Z</time></trkpt><trkpt lat="40.93324" lon="14.8790683"><ele>535.3333333333334</ele><time>2026-03-28T07:36:34.487Z</time></trkpt><trkpt lat="40.9331617" lon="14.879275"><ele>540.0</ele><time>2026-03-28T07:36:35.487Z</time></trkpt><trkpt lat="40.9330717" lon="14.8794733"><ele>540.3333333333334</ele><time>2026-03-28T07:36:36.487Z</time></trkpt><trkpt lat="40.93298" lon="14.8796567"><ele>540.6666666666667</ele><time>2026-03-28T07:36:37.486Z</time></trkpt><trkpt lat="40.9328833" lon="14.879835"><ele>541.0</ele><time>2026-03-28T07:36:38.487Z</time></trkpt><trkpt lat="40.932775" lon="14.8800067"><ele>541.6666666666667</ele><time>2026-03-28T07:36:39.486Z</time></trkpt><trkpt lat="40.932655" lon="14.8801717"><ele>542.3333333333334</ele><time>2026-03-28T07:36:40.487Z</time></trkpt><trkpt lat="40.9325317" lon="14.8803183"><ele>543.0</ele><time>2026-03-28T07:36:41.487Z</time></trkpt><trkpt lat="40.9324233" lon="14.88047"><ele>543.0</ele><time>2026-03-28T07:36:42.486Z</time></trkpt><trkpt lat="40.9323167" lon="14.8806333"><ele>543.0</ele><time>2026-03-28T07:36:43.486Z</time></trkpt><trkpt lat="40.9322217" lon="14.8808"><ele>543.0</ele><time>2026-03-28T07:36:44.487Z</time></trkpt><trkpt lat="40.9321317" lon="14.88097"><ele>539.6666666666666</ele><time>2026-03-28T07:36:45.487Z</time></trkpt><trkpt lat="40.9320517" lon="14.88115"><ele>536.3333333333333</ele><time>2026-03-28T07:36:46.486Z</time></trkpt><trkpt lat="40.9319817" lon="14.8813383"><ele>533.0</ele><time>2026-03-28T07:36:47.487Z</time></trkpt><trkpt lat="40.93192" lon="14.8815383"><ele>533.0</ele><time>2026-03-28T07:36:48.487Z</time></trkpt><trkpt lat="40.931865" lon="14.8817433"><ele>533.0</ele><time>2026-03-28T07:36:49.487Z</time></trkpt><trkpt lat="40.93182" lon="14.8819617"><ele>533.0</ele><time>2026-03-28T07:36:50.487Z</time></trkpt><trkpt lat="40.9317833" lon="14.882185"><ele>532.0</ele><time>2026-03-28T07:36:51.487Z</time></trkpt><trkpt lat="40.9317617" lon="14.882405"><ele>531.0</ele><time>2026-03-28T07:36:52.487Z</time></trkpt><trkpt lat="40.931745" lon="14.882635"><ele>530.0</ele><time>2026-03-28T07:36:53.487Z</time></trkpt><trkpt lat="40.9317433" lon="14.88287"><ele>530.0</ele><time>2026-03-28T07:36:54.487Z</time></trkpt><trkpt lat="40.9317567" lon="14.8831067"><ele>530.0</ele><time>2026-03-28T07:36:55.487Z</time></trkpt><trkpt lat="40.9317633" lon="14.883345"><ele>530.0</ele><time>2026-03-28T07:36:56.486Z</time></trkpt><trkpt lat="40.9317767" lon="14.8835867"><ele>532.3333333333333</ele><time>2026-03-28T07:36:57.487Z</time></trkpt><trkpt lat="40.9317817" lon="14.8838183"><ele>534.6666666666666</ele><time>2026-03-28T07:36:58.486Z</time></trkpt><trkpt lat="40.93178" lon="14.88405"><ele>537.0</ele><time>2026-03-28T07:36:59.486Z</time></trkpt><trkpt lat="40.93178" lon="14.8842833"><ele>538.6666666666666</ele><time>2026-03-28T07:37:00.486Z</time></trkpt><trkpt lat="40.9317617" lon="14.8845133"><ele>540.3333333333333</ele><time>2026-03-28T07:37:01.486Z</time></trkpt><trkpt lat="40.9317283" lon="14.8847483"><ele>542.0</ele><time>2026-03-28T07:37:02.487Z</time></trkpt><trkpt lat="40.9316867" lon="14.88499"><ele>545.0</ele><time>2026-03-28T07:37:03.487Z</time></trkpt><trkpt lat="40.931625" lon="14.8852233"><ele>548.0</ele><time>2026-03-28T07:37:04.487Z</time></trkpt><trkpt lat="40.9315517" lon="14.8854467"><ele>551.0</ele><time>2026-03-28T07:37:05.487Z</time></trkpt><trkpt lat="40.93147" lon="14.885675"><ele>551.0</ele><time>2026-03-28T07:37:06.487Z</time></trkpt><trkpt lat="40.9313817" lon="14.8858983"><ele>551.0</ele><time>2026-03-28T07:37:07.487Z</time></trkpt><trkpt lat="40.9313133" lon="14.88613"><ele>551.0</ele><time>2026-03-28T07:37:08.487Z</time></trkpt><trkpt lat="40.93126" lon="14.8863683"><ele>552.3333333333333</ele><time>2026-03-28T07:37:09.487Z</time></trkpt><trkpt lat="40.9312183" lon="14.8866083"><ele>553.6666666666666</ele><time>2026-03-28T07:37:10.487Z</time></trkpt><trkpt lat="40.9311817" lon="14.88685"><ele>555.0</ele><time>2026-03-28T07:37:11.486Z</time></trkpt><trkpt lat="40.931155" lon="14.887095"><ele>557.0</ele><time>2026-03-28T07:37:12.486Z</time></trkpt><trkpt lat="40.931145" lon="14.887345"><ele>559.0</ele><time>2026-03-28T07:37:13.486Z</time></trkpt><trkpt lat="40.9311483" lon="14.8876"><ele>561.0</ele><time>2026-03-28T07:37:14.487Z</time></trkpt><trkpt lat="40.9311633" lon="14.8878567"><ele>564.0</ele><time>2026-03-28T07:37:15.487Z</time></trkpt><trkpt lat="40.9311983" lon="14.88811"><ele>567.0</ele><time>2026-03-28T07:37:16.486Z</time></trkpt><trkpt lat="40.93124" lon="14.8883617"><ele>570.0</ele><time>2026-03-28T07:37:17.487Z</time></trkpt><trkpt lat="40.9312817" lon="14.8886033"><ele>572.0</ele><time>2026-03-28T07:37:18.487Z</time></trkpt><trkpt lat="40.9313417" lon="14.8888483"><ele>574.0</ele><time>2026-03-28T07:37:19.486Z</time></trkpt><trkpt lat="40.9314133" lon="14.8890933"><ele>576.0</ele><time>2026-03-28T07:37:20.487Z</time></trkpt><trkpt lat="40.9314817" lon="14.889335"><ele>579.3333333333334</ele><time>2026-03-28T07:37:21.486Z</time></trkpt><trkpt lat="40.9315517" lon="14.8895783"><ele>582.6666666666667</ele><time>2026-03-28T07:37:22.486Z</time></trkpt><trkpt lat="40.9316133" lon="14.8898183"><ele>586.0</ele><time>2026-03-28T07:37:23.486Z</time></trkpt><trkpt lat="40.9316683" lon="14.8900583"><ele>587.0</ele><time>2026-03-28T07:37:24.487Z</time></trkpt><trkpt lat="40.9317117" lon="14.890295"><ele>588.0</ele><time>2026-03-28T07:37:25.486Z</time></trkpt><trkpt lat="40.9317467" lon="14.8905333"><ele>589.0</ele><time>2026-03-28T07:37:26.486Z</time></trkpt><trkpt lat="40.9317633" lon="14.89077"><ele>589.3333333333334</ele><time>2026-03-28T07:37:27.487Z</time></trkpt><trkpt lat="40.9317633" lon="14.8909983"><ele>589.6666666666666</ele><time>2026-03-28T07:37:28.487Z</time></trkpt><trkpt lat="40.931745" lon="14.8912067"><ele>590.0</ele><time>2026-03-28T07:37:29.487Z</time></trkpt><trkpt lat="40.9317" lon="14.8914083"><ele>590.0</ele><time>2026-03-28T07:37:30.487Z</time></trkpt><trkpt lat="40.93164" lon="14.8916"><ele>590.0</ele><time>2026-03-28T07:37:31.487Z</time></trkpt><trkpt lat="40.9315633" lon="14.8917767"><ele>590.0</ele><time>2026-03-28T07:37:32.487Z</time></trkpt><trkpt lat="40.93147" lon="14.8919533"><ele>591.6666666666666</ele><time>2026-03-28T07:37:33.487Z</time></trkpt><trkpt lat="40.9313567" lon="14.89212"><ele>593.3333333333334</ele><time>2026-03-28T07:37:34.487Z</time></trkpt><trkpt lat="40.93122" lon="14.892285"><ele>595.0</ele><time>2026-03-28T07:37:35.487Z</time></trkpt><trkpt lat="40.931085" lon="14.8924417"><ele>595.6666666666667</ele><time>2026-03-28T07:37:36.487Z</time></trkpt><trkpt lat="40.9309417" lon="14.8925967"><ele>596.3333333333334</ele><time>2026-03-28T07:37:37.486Z</time></trkpt><trkpt lat="40.9307933" lon="14.892745"><ele>597.0</ele><time>2026-03-28T07:37:38.486Z</time></trkpt><trkpt lat="40.9306483" lon="14.89291"><ele>599.6666666666666</ele><time>2026-03-28T07:37:39.486Z</time></trkpt><trkpt lat="40.9305067" lon="14.8930733"><ele>602.3333333333333</ele><time>2026-03-28T07:37:40.487Z</time></trkpt><trkpt lat="40.9303583" lon="14.8932333"><ele>605.0</ele><time>2026-03-28T07:37:41.487Z</time></trkpt><trkpt lat="40.9302133" lon="14.89339"><ele>606.3333333333333</ele><time>2026-03-28T07:37:42.487Z</time></trkpt><trkpt lat="40.9300717" lon="14.8935483"><ele>607.6666666666666</ele><time>2026-03-28T07:37:43.486Z</time></trkpt><trkpt lat="40.9299233" lon="14.8937033"><ele>609.0</ele><time>2026-03-28T07:37:44.487Z</time></trkpt><trkpt lat="40.9297817" lon="14.8938517"><ele>611.6666666666666</ele><time>2026-03-28T07:37:45.487Z</time></trkpt><trkpt lat="40.929635" lon="14.8939933"><ele>614.3333333333333</ele><time>2026-03-28T07:37:46.487Z</time></trkpt><trkpt lat="40.9294883" lon="14.8941317"><ele>617.0</ele><time>2026-03-28T07:37:47.487Z</time></trkpt><trkpt lat="40.9293383" lon="14.8942633"><ele>619.0</ele><time>2026-03-28T07:37:48.486Z</time></trkpt><trkpt lat="40.9291917" lon="14.894395"><ele>621.0</ele><time>2026-03-28T07:37:49.486Z</time></trkpt><trkpt lat="40.9290333" lon="14.8945217"><ele>623.0</ele><time>2026-03-28T07:37:50.487Z</time></trkpt><trkpt lat="40.9288733" lon="14.8946433"><ele>623.0</ele><time>2026-03-28T07:37:51.487Z</time></trkpt><trkpt lat="40.92871" lon="14.8947567"><ele>623.0</ele><time>2026-03-28T07:37:52.486Z</time></trkpt><trkpt lat="40.9285433" lon="14.8948717"><ele>623.0</ele><time>2026-03-28T07:37:53.487Z</time></trkpt><trkpt lat="40.9283683" lon="14.8949833"><ele>624.6666666666666</ele><time>2026-03-28T07:37:54.487Z</time></trkpt><trkpt lat="40.9281883" lon="14.895095"><ele>626.3333333333334</ele><time>2026-03-28T07:37:55.487Z</time></trkpt><trkpt lat="40.9280083" lon="14.8952"><ele>628.0</ele><time>2026-03-28T07:37:56.487Z</time></trkpt><trkpt lat="40.9278233" lon="14.895295"><ele>628.0</ele><time>2026-03-28T07:37:57.487Z</time></trkpt><trkpt lat="40.9276383" lon="14.89538"><ele>628.0</ele><time>2026-03-28T07:37:58.487Z</time></trkpt><trkpt lat="40.9274517" lon="14.8954583"><ele>628.0</ele><time>2026-03-28T07:37:59.486Z</time></trkpt><trkpt lat="40.9272583" lon="14.89553"><ele>627.0</ele><time>2026-03-28T07:38:00.487Z</time></trkpt><trkpt lat="40.9270683" lon="14.8955967"><ele>626.0</ele><time>2026-03-28T07:38:01.487Z</time></trkpt><trkpt lat="40.9268683" lon="14.8956517"><ele>625.0</ele><time>2026-03-28T07:38:02.487Z</time></trkpt><trkpt lat="40.926665" lon="14.8957083"><ele>624.3333333333334</ele><time>2026-03-28T07:38:03.487Z</time></trkpt><trkpt lat="40.9264617" lon="14.8957583"><ele>623.6666666666666</ele><time>2026-03-28T07:38:04.487Z</time></trkpt><trkpt lat="40.9262583" lon="14.895805"><ele>623.0</ele><time>2026-03-28T07:38:05.487Z</time></trkpt><trkpt lat="40.92605" lon="14.895845"><ele>622.0</ele><time>2026-03-28T07:38:06.487Z</time></trkpt><trkpt lat="40.925845" lon="14.8958817"><ele>621.0</ele><time>2026-03-28T07:38:07.486Z</time></trkpt><trkpt lat="40.925645" lon="14.895915"><ele>620.0</ele><time>2026-03-28T07:38:08.487Z</time></trkpt><trkpt lat="40.9254383" lon="14.8959533"><ele>623.3333333333333</ele><time>2026-03-28T07:38:09.487Z</time></trkpt><trkpt lat="40.925235" lon="14.8959883"><ele>626.6666666666666</ele><time>2026-03-28T07:38:10.487Z</time></trkpt><trkpt lat="40.925035" lon="14.8960183"><ele>630.0</ele><time>2026-03-28T07:38:11.486Z</time></trkpt><trkpt lat="40.9248467" lon="14.8960483"><ele>640.0</ele><time>2026-03-28T07:38:12.487Z</time></trkpt><trkpt lat="40.9246483" lon="14.8960733"><ele>650.0</ele><time>2026-03-28T07:38:13.487Z</time></trkpt><trkpt lat="40.9244717" lon="14.89609"><ele>660.0</ele><time>2026-03-28T07:38:14.487Z</time></trkpt><trkpt lat="40.924275" lon="14.8961267"><ele>666.5</ele><time>2026-03-28T07:38:15.487Z</time></trkpt><trkpt lat="40.9240767" lon="14.8961667"><ele>673.0</ele><time>2026-03-28T07:38:16.487Z</time></trkpt><trkpt lat="40.9180667" lon="14.897125"><ele>673.0</ele><time>2026-03-28T07:38:45.481Z</time></trkpt><trkpt lat="40.9178617" lon="14.8971467"><ele>673.0</ele><time>2026-03-28T07:38:46.48Z</time></trkpt><trkpt lat="40.9176767" lon="14.89716"><ele>673.0</ele><time>2026-03-28T07:38:47.48Z</time></trkpt><trkpt lat="40.9174867" lon="14.897195"><ele>669.6666666666667</ele><time>2026-03-28T07:38:48.481Z</time></trkpt><trkpt lat="40.9172917" lon="14.8972283"><ele>666.3333333333334</ele><time>2026-03-28T07:38:49.481Z</time></trkpt><trkpt lat="40.9170933" lon="14.8972633"><ele>663.0</ele><time>2026-03-28T07:38:50.481Z</time></trkpt><trkpt lat="40.9168983" lon="14.8972883"><ele>664.6666666666666</ele><time>2026-03-28T07:38:51.481Z</time></trkpt><trkpt lat="40.916695" lon="14.8973183"><ele>666.3333333333333</ele><time>2026-03-28T07:38:52.481Z</time></trkpt><trkpt lat="40.9164967" lon="14.8973533"><ele>668.0</ele><time>2026-03-28T07:38:53.481Z</time></trkpt><trkpt lat="40.9163" lon="14.8973767"><ele>668.0</ele><time>2026-03-28T07:38:54.481Z</time></trkpt><trkpt lat="40.9160967" lon="14.8974117"><ele>668.0</ele><time>2026-03-28T07:38:55.481Z</time></trkpt><trkpt lat="40.915895" lon="14.8974483"><ele>668.0</ele><time>2026-03-28T07:38:56.48Z</time></trkpt><trkpt lat="40.9156967" lon="14.8974833"><ele>668.0</ele><time>2026-03-28T07:38:57.481Z</time></trkpt><trkpt lat="40.9155017" lon="14.897515"><ele>668.0</ele><time>2026-03-28T07:38:58.481Z</time></trkpt><trkpt lat="40.9153083" lon="14.8975483"><ele>668.0</ele><time>2026-03-28T07:38:59.48Z</time></trkpt><trkpt lat="40.91512" lon="14.8975717"><ele>677.6666666666666</ele><time>2026-03-28T07:39:00.481Z</time></trkpt><trkpt lat="40.9149433" lon="14.8976017"><ele>687.3333333333334</ele><time>2026-03-28T07:39:01.481Z</time></trkpt><trkpt lat="40.9147717" lon="14.897625"><ele>697.0</ele><time>2026-03-28T07:39:02.48Z</time></trkpt><trkpt lat="40.9145967" lon="14.8976567"><ele>697.0</ele><time>2026-03-28T07:39:03.481Z</time></trkpt><trkpt lat="40.914415" lon="14.8976867"><ele>697.0</ele><time>2026-03-28T07:39:04.481Z</time></trkpt><trkpt lat="40.9142417" lon="14.8977017"><ele>697.0</ele><time>2026-03-28T07:39:05.481Z</time></trkpt><trkpt lat="40.9140433" lon="14.8977433"><ele>693.6666666666667</ele><time>2026-03-28T07:39:06.481Z</time></trkpt><trkpt lat="40.9138517" lon="14.8977783"><ele>690.3333333333334</ele><time>2026-03-28T07:39:07.481Z</time></trkpt><trkpt lat="40.91366" lon="14.8978117"><ele>687.0</ele><time>2026-03-28T07:39:08.48Z</time></trkpt><trkpt lat="40.91347" lon="14.8978467"><ele>689.6666666666666</ele><time>2026-03-28T07:39:09.481Z</time></trkpt><trkpt lat="40.9132767" lon="14.8978867"><ele>692.3333333333333</ele><time>2026-03-28T07:39:10.481Z</time></trkpt><trkpt lat="40.9130833" lon="14.8979317"><ele>695.0</ele><time>2026-03-28T07:39:11.481Z</time></trkpt><trkpt lat="40.9128983" lon="14.897975"><ele>695.0</ele><time>2026-03-28T07:39:12.48Z</time></trkpt><trkpt lat="40.9127167" lon="14.8980267"><ele>695.0</ele><time>2026-03-28T07:39:13.481Z</time></trkpt><trkpt lat="40.912535" lon="14.8980817"><ele>695.0</ele><time>2026-03-28T07:39:14.48Z</time></trkpt><trkpt lat="40.91235" lon="14.898135"><ele>695.6666666666666</ele><time>2026-03-28T07:39:15.481Z</time></trkpt><trkpt lat="40.9121683" lon="14.8982017"><ele>696.3333333333334</ele><time>2026-03-28T07:39:16.481Z</time></trkpt><trkpt lat="40.911985" lon="14.8982667"><ele>697.0</ele><time>2026-03-28T07:39:17.481Z</time></trkpt><trkpt lat="40.9118" lon="14.8983433"><ele>705.3333333333334</ele><time>2026-03-28T07:39:18.481Z</time></trkpt><trkpt lat="40.9116117" lon="14.8984233"><ele>713.6666666666666</ele><time>2026-03-28T07:39:19.48Z</time></trkpt><trkpt lat="40.911425" lon="14.8985083"><ele>722.0</ele><time>2026-03-28T07:39:20.48Z</time></trkpt><trkpt lat="40.9112333" lon="14.8985983"><ele>722.0</ele><time>2026-03-28T07:39:21.48Z</time></trkpt><trkpt lat="40.9110533" lon="14.8986983"><ele>722.0</ele><time>2026-03-28T07:39:22.481Z</time></trkpt><trkpt lat="40.91087" lon="14.898795"><ele>722.0</ele><time>2026-03-28T07:39:23.481Z</time></trkpt><trkpt lat="40.9106867" lon="14.8988967"><ele>718.3333333333333</ele><time>2026-03-28T07:39:24.481Z</time></trkpt><trkpt lat="40.910505" lon="14.89901"><ele>714.6666666666666</ele><time>2026-03-28T07:39:25.481Z</time></trkpt><trkpt lat="40.9103217" lon="14.899125"><ele>711.0</ele><time>2026-03-28T07:39:26.48Z</time></trkpt><trkpt lat="40.9101417" lon="14.89924"><ele>712.0</ele><time>2026-03-28T07:39:27.481Z</time></trkpt><trkpt lat="40.9099583" lon="14.8993567"><ele>713.0</ele><time>2026-03-28T07:39:28.481Z</time></trkpt><trkpt lat="40.9097783" lon="14.8994767"><ele>714.0</ele><time>2026-03-28T07:39:29.48Z</time></trkpt><trkpt lat="40.9095967" lon="14.899605"><ele>714.0</ele><time>2026-03-28T07:39:30.481Z</time></trkpt><trkpt lat="40.909415" lon="14.89973"><ele>714.0</ele><time>2026-03-28T07:39:31.48Z</time></trkpt><trkpt lat="40.9092367" lon="14.8998533"><ele>714.0</ele><time>2026-03-28T07:39:32.48Z</time></trkpt><trkpt lat="40.909055" lon="14.8999767"><ele>712.6666666666666</ele><time>2026-03-28T07:39:33.48Z</time></trkpt><trkpt lat="40.90888" lon="14.9001"><ele>711.3333333333333</ele><time>2026-03-28T07:39:34.48Z</time></trkpt><trkpt lat="40.9087033" lon="14.9002183"><ele>710.0</ele><time>2026-03-28T07:39:35.481Z</time></trkpt><trkpt lat="40.9085317" lon="14.90034"><ele>709.6666666666666</ele><time>2026-03-28T07:39:36.48Z</time></trkpt><trkpt lat="40.9083667" lon="14.9004683"><ele>709.3333333333334</ele><time>2026-03-28T07:39:37.481Z</time></trkpt><trkpt lat="40.9081983" lon="14.9005867"><ele>709.0</ele><time>2026-03-28T07:39:38.48Z</time></trkpt><trkpt lat="40.9080367" lon="14.90071"><ele>709.0</ele><time>2026-03-28T07:39:39.481Z</time></trkpt><trkpt lat="40.9078717" lon="14.90083"><ele>709.0</ele><time>2026-03-28T07:39:40.481Z</time></trkpt><trkpt lat="40.907705" lon="14.90095"><ele>709.0</ele><time>2026-03-28T07:39:41.481Z</time></trkpt><trkpt lat="40.907535" lon="14.901065"><ele>711.0</ele><time>2026-03-28T07:39:42.48Z</time></trkpt><trkpt lat="40.907365" lon="14.901185"><ele>713.0</ele><time>2026-03-28T07:39:43.48Z</time></trkpt><trkpt lat="40.9072" lon="14.9012983"><ele>715.0</ele><time>2026-03-28T07:39:44.48Z</time></trkpt><trkpt lat="40.9070433" lon="14.9014067"><ele>715.0</ele><time>2026-03-28T07:39:45.481Z</time></trkpt><trkpt lat="40.9068867" lon="14.90151"><ele>715.0</ele><time>2026-03-28T07:39:46.481Z</time></trkpt><trkpt lat="40.90673" lon="14.901625"><ele>715.0</ele><time>2026-03-28T07:39:47.48Z</time></trkpt><trkpt lat="40.906575" lon="14.9017317"><ele>719.3333333333334</ele><time>2026-03-28T07:39:48.481Z</time></trkpt><trkpt lat="40.9064133" lon="14.901845"><ele>723.6666666666666</ele><time>2026-03-28T07:39:49.481Z</time></trkpt><trkpt lat="40.9062567" lon="14.90197"><ele>728.0</ele><time>2026-03-28T07:39:50.481Z</time></trkpt><trkpt lat="40.9061" lon="14.902105"><ele>728.0</ele><time>2026-03-28T07:39:51.481Z</time></trkpt><trkpt lat="40.9059467" lon="14.902255"><ele>728.0</ele><time>2026-03-28T07:39:52.481Z</time></trkpt><trkpt lat="40.9057867" lon="14.9024233"><ele>728.0</ele><time>2026-03-28T07:39:53.481Z</time></trkpt><trkpt lat="40.9056283" lon="14.902605"><ele>728.0</ele><time>2026-03-28T07:39:54.481Z</time></trkpt><trkpt lat="40.9054683" lon="14.902795"><ele>728.0</ele><time>2026-03-28T07:39:55.48Z</time></trkpt><trkpt lat="40.9053133" lon="14.9029917"><ele>728.0</ele><time>2026-03-28T07:39:56.481Z</time></trkpt><trkpt lat="40.9051567" lon="14.9031917"><ele>729.3333333333333</ele><time>2026-03-28T07:39:57.481Z</time></trkpt><trkpt lat="40.90501" lon="14.9033867"><ele>730.6666666666666</ele><time>2026-03-28T07:39:58.481Z</time></trkpt><trkpt lat="40.9048567" lon="14.9035717"><ele>732.0</ele><time>2026-03-28T07:39:59.481Z</time></trkpt><trkpt lat="40.9047133" lon="14.9037567"><ele>737.0</ele><time>2026-03-28T07:40:00.48Z</time></trkpt><trkpt lat="40.904575" lon="14.90394"><ele>742.0</ele><time>2026-03-28T07:40:01.48Z</time></trkpt><trkpt lat="40.9044383" lon="14.9041317"><ele>747.0</ele><time>2026-03-28T07:40:02.48Z</time></trkpt><trkpt lat="40.9042933" lon="14.9043317"><ele>756.6666666666667</ele><time>2026-03-28T07:40:03.481Z</time></trkpt><trkpt lat="40.9041417" lon="14.90453"><ele>766.3333333333334</ele><time>2026-03-28T07:40:04.481Z</time></trkpt><trkpt lat="40.9039917" lon="14.9047217"><ele>776.0</ele><time>2026-03-28T07:40:05.481Z</time></trkpt><trkpt lat="40.9038467" lon="14.9049133"><ele>780.6666666666667</ele><time>2026-03-28T07:40:06.48Z</time></trkpt><trkpt lat="40.9036983" lon="14.905105"><ele>785.3333333333333</ele><time>2026-03-28T07:40:07.481Z</time></trkpt><trkpt lat="40.9035533" lon="14.905295"><ele>790.0</ele><time>2026-03-28T07:40:08.481Z</time></trkpt><trkpt lat="40.8992917" lon="14.910485"><ele>775.0</ele><time>2026-03-28T07:40:37.481Z</time></trkpt><trkpt lat="40.8991733" lon="14.9106467"><ele>760.0</ele><time>2026-03-28T07:40:38.481Z</time></trkpt><trkpt lat="40.89905" lon="14.910825"><ele>745.0</ele><time>2026-03-28T07:40:39.48Z</time></trkpt><trkpt lat="40.8989133" lon="14.91101"><ele>742.6666666666667</ele><time>2026-03-28T07:40:40.48Z</time></trkpt><trkpt lat="40.8987767" lon="14.9111967"><ele>740.3333333333334</ele><time>2026-03-28T07:40:41.481Z</time></trkpt><trkpt lat="40.8986383" lon="14.9113867"><ele>738.0</ele><time>2026-03-28T07:40:42.481Z</time></trkpt><trkpt lat="40.898505" lon="14.9115767"><ele>737.3333333333334</ele><time>2026-03-28T07:40:43.48Z</time></trkpt><trkpt lat="40.898375" lon="14.9117717"><ele>736.6666666666667</ele><time>2026-03-28T07:40:44.48Z</time></trkpt><trkpt lat="40.8982483" lon="14.91196"><ele>736.0</ele><time>2026-03-28T07:40:45.481Z</time></trkpt><trkpt lat="40.8981233" lon="14.9121533"><ele>736.0</ele><time>2026-03-28T07:40:46.48Z</time></trkpt><trkpt lat="40.8979983" lon="14.912355"><ele>736.0</ele><time>2026-03-28T07:40:47.48Z</time></trkpt><trkpt lat="40.8978817" lon="14.9125567"><ele>736.0</ele><time>2026-03-28T07:40:48.481Z</time></trkpt><trkpt lat="40.8977617" lon="14.91277"><ele>736.3333333333334</ele><time>2026-03-28T07:40:49.48Z</time></trkpt><trkpt lat="40.8976483" lon="14.9129867"><ele>736.6666666666666</ele><time>2026-03-28T07:40:50.48Z</time></trkpt><trkpt lat="40.8975267" lon="14.9132017"><ele>737.0</ele><time>2026-03-28T07:40:51.481Z</time></trkpt><trkpt lat="40.897405" lon="14.91341"><ele>733.6666666666666</ele><time>2026-03-28T07:40:52.481Z</time></trkpt><trkpt lat="40.89729" lon="14.913635"><ele>730.3333333333334</ele><time>2026-03-28T07:40:53.48Z</time></trkpt><trkpt lat="40.897195" lon="14.9138583"><ele>727.0</ele><time>2026-03-28T07:40:54.481Z</time></trkpt><trkpt lat="40.897085" lon="14.9140867"><ele>725.0</ele><time>2026-03-28T07:40:55.481Z</time></trkpt><trkpt lat="40.89698" lon="14.91431"><ele>723.0</ele><time>2026-03-28T07:40:56.481Z</time></trkpt><trkpt lat="40.8968833" lon="14.91453"><ele>721.0</ele><time>2026-03-28T07:40:57.481Z</time></trkpt><trkpt lat="40.8967783" lon="14.91475"><ele>719.6666666666667</ele><time>2026-03-28T07:40:58.481Z</time></trkpt><trkpt lat="40.89667" lon="14.9149783"><ele>718.3333333333334</ele><time>2026-03-28T07:40:59.481Z</time></trkpt><trkpt lat="40.89657" lon="14.9152083"><ele>717.0</ele><time>2026-03-28T07:41:00.481Z</time></trkpt><trkpt lat="40.896475" lon="14.9154483"><ele>717.0</ele><time>2026-03-28T07:41:01.481Z</time></trkpt><trkpt lat="40.8963833" lon="14.9156867"><ele>717.0</ele><time>2026-03-28T07:41:02.48Z</time></trkpt><trkpt lat="40.8962983" lon="14.9159317"><ele>717.0</ele><time>2026-03-28T07:41:03.481Z</time></trkpt><trkpt lat="40.8962167" lon="14.9161783"><ele>716.0</ele><time>2026-03-28T07:41:04.48Z</time></trkpt><trkpt lat="40.8961367" lon="14.9164183"><ele>715.0</ele><time>2026-03-28T07:41:05.481Z</time></trkpt><trkpt lat="40.8960583" lon="14.9166583"><ele>714.0</ele><time>2026-03-28T07:41:06.481Z</time></trkpt><trkpt lat="40.8959767" lon="14.91689"><ele>714.6666666666666</ele><time>2026-03-28T07:41:07.481Z</time></trkpt><trkpt lat="40.8959033" lon="14.9171267"><ele>715.3333333333333</ele><time>2026-03-28T07:41:08.481Z</time></trkpt><trkpt lat="40.895825" lon="14.91737"><ele>716.0</ele><time>2026-03-28T07:41:09.48Z</time></trkpt><trkpt lat="40.8957583" lon="14.9176233"><ele>713.0</ele><time>2026-03-28T07:41:10.481Z</time></trkpt><trkpt lat="40.8956883" lon="14.9178733"><ele>710.0</ele><time>2026-03-28T07:41:11.481Z</time></trkpt><trkpt lat="40.8956217" lon="14.918125"><ele>707.0</ele><time>2026-03-28T07:41:12.481Z</time></trkpt><trkpt lat="40.8955583" lon="14.9183817"><ele>705.3333333333333</ele><time>2026-03-28T07:41:13.481Z</time></trkpt><trkpt lat="40.8955017" lon="14.91863"><ele>703.6666666666666</ele><time>2026-03-28T07:41:14.481Z</time></trkpt><trkpt lat="40.8954483" lon="14.91888"><ele>702.0</ele><time>2026-03-28T07:41:15.481Z</time></trkpt><trkpt lat="40.89539" lon="14.9191333"><ele>702.3333333333334</ele><time>2026-03-28T07:41:16.481Z</time></trkpt><trkpt lat="40.8953383" lon="14.9193867"><ele>702.6666666666667</ele><time>2026-03-28T07:41:17.48Z</time></trkpt><trkpt lat="40.8952833" lon="14.9196433"><ele>703.0</ele><time>2026-03-28T07:41:18.481Z</time></trkpt><trkpt lat="40.895235" lon="14.9199083"><ele>701.0</ele><time>2026-03-28T07:41:19.481Z</time></trkpt><trkpt lat="40.895195" lon="14.920175"><ele>699.0</ele><time>2026-03-28T07:41:20.481Z</time></trkpt><trkpt lat="40.8951483" lon="14.9204383"><ele>697.0</ele><time>2026-03-28T07:41:21.481Z</time></trkpt><trkpt lat="40.895105" lon="14.9207"><ele>697.0</ele><time>2026-03-28T07:41:22.48Z</time></trkpt><trkpt lat="40.89507" lon="14.9209683"><ele>697.0</ele><time>2026-03-28T07:41:23.481Z</time></trkpt><trkpt lat="40.8950283" lon="14.9212383"><ele>697.0</ele><time>2026-03-28T07:41:24.481Z</time></trkpt><trkpt lat="40.8949967" lon="14.9215"><ele>696.3333333333334</ele><time>2026-03-28T07:41:25.481Z</time></trkpt><trkpt lat="40.8949733" lon="14.9217533"><ele>695.6666666666666</ele><time>2026-03-28T07:41:26.481Z</time></trkpt><trkpt lat="40.8949383" lon="14.9220067"><ele>695.0</ele><time>2026-03-28T07:41:27.48Z</time></trkpt><trkpt lat="40.8949133" lon="14.922265"><ele>695.0</ele><time>2026-03-28T07:41:28.481Z</time></trkpt><trkpt lat="40.8948883" lon="14.9225283"><ele>695.0</ele><time>2026-03-28T07:41:29.481Z</time></trkpt><trkpt lat="40.8948633" lon="14.9227883"><ele>695.0</ele><time>2026-03-28T07:41:30.48Z</time></trkpt><trkpt lat="40.8948417" lon="14.9230567"><ele>694.0</ele><time>2026-03-28T07:41:31.481Z</time></trkpt><trkpt lat="40.8948217" lon="14.923325"><ele>693.0</ele><time>2026-03-28T07:41:32.481Z</time></trkpt><trkpt lat="40.8948067" lon="14.923595"><ele>692.0</ele><time>2026-03-28T07:41:33.481Z</time></trkpt><trkpt lat="40.8947917" lon="14.92386"><ele>692.0</ele><time>2026-03-28T07:41:34.48Z</time></trkpt><trkpt lat="40.8947883" lon="14.9241167"><ele>692.0</ele><time>2026-03-28T07:41:35.48Z</time></trkpt><trkpt lat="40.894785" lon="14.9243783"><ele>692.0</ele><time>2026-03-28T07:41:36.481Z</time></trkpt><trkpt lat="40.89479" lon="14.9246433"><ele>692.3333333333333</ele><time>2026-03-28T07:41:37.481Z</time></trkpt><trkpt lat="40.8948083" lon="14.9249033"><ele>692.6666666666666</ele><time>2026-03-28T07:41:38.481Z</time></trkpt><trkpt lat="40.89484" lon="14.925165"><ele>693.0</ele><time>2026-03-28T07:41:39.481Z</time></trkpt><trkpt lat="40.89488" lon="14.9254217"><ele>691.6666666666666</ele><time>2026-03-28T07:41:40.48Z</time></trkpt><trkpt lat="40.8949333" lon="14.92568"><ele>690.3333333333333</ele><time>2026-03-28T07:41:41.481Z</time></trkpt><trkpt lat="40.8949883" lon="14.9259417"><ele>689.0</ele><time>2026-03-28T07:41:42.481Z</time></trkpt><trkpt lat="40.89505" lon="14.9261983"><ele>688.6666666666666</ele><time>2026-03-28T07:41:43.48Z</time></trkpt><trkpt lat="40.89512" lon="14.9264517"><ele>688.3333333333334</ele><time>2026-03-28T07:41:44.48Z</time></trkpt><trkpt lat="40.8952033" lon="14.9267083"><ele>688.0</ele><time>2026-03-28T07:41:45.481Z</time></trkpt><trkpt lat="40.8952867" lon="14.9269617"><ele>688.0</ele><time>2026-03-28T07:41:46.481Z</time></trkpt><trkpt lat="40.8953833" lon="14.9272083"><ele>688.0</ele><time>2026-03-28T07:41:47.48Z</time></trkpt><trkpt lat="40.89549" lon="14.9274517"><ele>688.0</ele><time>2026-03-28T07:41:48.481Z</time></trkpt><trkpt lat="40.89561" lon="14.9276933"><ele>687.0</ele><time>2026-03-28T07:41:49.481Z</time></trkpt><trkpt lat="40.8957383" lon="14.9279267"><ele>686.0</ele><time>2026-03-28T07:41:50.48Z</time></trkpt><trkpt lat="40.8958683" lon="14.928155"><ele>685.0</ele><time>2026-03-28T07:41:51.481Z</time></trkpt><trkpt lat="40.8960017" lon="14.9283817"><ele>684.3333333333334</ele><time>2026-03-28T07:41:52.481Z</time></trkpt><trkpt lat="40.8961317" lon="14.9286033"><ele>683.6666666666666</ele><time>2026-03-28T07:41:53.481Z</time></trkpt><trkpt lat="40.89626" lon="14.9288183"><ele>683.0</ele><time>2026-03-28T07:41:54.48Z</time></trkpt><trkpt lat="40.8963833" lon="14.9290233"><ele>682.6666666666666</ele><time>2026-03-28T07:41:55.481Z</time></trkpt><trkpt lat="40.896505" lon="14.92923"><ele>682.3333333333334</ele><time>2026-03-28T07:41:56.481Z</time></trkpt><trkpt lat="40.8966267" lon="14.929435"><ele>682.0</ele><time>2026-03-28T07:41:57.481Z</time></trkpt><trkpt lat="40.8967517" lon="14.9296333"><ele>682.0</ele><time>2026-03-28T07:41:58.481Z</time></trkpt><trkpt lat="40.8968783" lon="14.929835"><ele>682.0</ele><time>2026-03-28T07:41:59.48Z</time></trkpt><trkpt lat="40.89701" lon="14.9300417"><ele>682.0</ele><time>2026-03-28T07:42:00.48Z</time></trkpt><trkpt lat="40.89714" lon="14.930245"><ele>682.0</ele><time>2026-03-28T07:42:01.481Z</time></trkpt><trkpt lat="40.8972633" lon="14.930455"><ele>682.0</ele><time>2026-03-28T07:42:02.48Z</time></trkpt><trkpt lat="40.8973883" lon="14.9306667"><ele>682.0</ele><time>2026-03-28T07:42:03.481Z</time></trkpt><trkpt lat="40.897515" lon="14.9308817"><ele>682.6666666666667</ele><time>2026-03-28T07:42:04.481Z</time></trkpt><trkpt lat="40.8976417" lon="14.9310933"><ele>683.3333333333334</ele><time>2026-03-28T07:42:05.482Z</time></trkpt><trkpt lat="40.89777" lon="14.9313117"><ele>684.0</ele><time>2026-03-28T07:42:06.481Z</time></trkpt><trkpt lat="40.8978983" lon="14.9315267"><ele>683.3333333333334</ele><time>2026-03-28T07:42:07.481Z</time></trkpt><trkpt lat="40.8980267" lon="14.9317383"><ele>682.6666666666667</ele><time>2026-03-28T07:42:08.482Z</time></trkpt><trkpt lat="40.8981467" lon="14.9319583"><ele>682.0</ele><time>2026-03-28T07:42:09.482Z</time></trkpt><trkpt lat="40.898265" lon="14.932175"><ele>682.0</ele><time>2026-03-28T07:42:10.482Z</time></trkpt><trkpt lat="40.89838" lon="14.9324033"><ele>682.0</ele><time>2026-03-28T07:42:11.482Z</time></trkpt><trkpt lat="40.898495" lon="14.9326283"><ele>682.0</ele><time>2026-03-28T07:42:12.482Z</time></trkpt><trkpt lat="40.89861" lon="14.9328517"><ele>683.0</ele><time>2026-03-28T07:42:13.481Z</time></trkpt><trkpt lat="40.8987217" lon="14.93308"><ele>684.0</ele><time>2026-03-28T07:42:14.482Z</time></trkpt><trkpt lat="40.8988283" lon="14.93331"><ele>685.0</ele><time>2026-03-28T07:42:15.482Z</time></trkpt><trkpt lat="40.8989317" lon="14.9335383"><ele>685.0</ele><time>2026-03-28T07:42:16.481Z</time></trkpt><trkpt lat="40.89903" lon="14.933765"><ele>685.0</ele><time>2026-03-28T07:42:17.482Z</time></trkpt><trkpt lat="40.8991217" lon="14.9339817"><ele>685.0</ele><time>2026-03-28T07:42:18.482Z</time></trkpt><trkpt lat="40.89921" lon="14.934205"><ele>686.6666666666667</ele><time>2026-03-28T07:42:19.482Z</time></trkpt><trkpt lat="40.8992983" lon="14.934435"><ele>688.3333333333334</ele><time>2026-03-28T07:42:20.482Z</time></trkpt><trkpt lat="40.8993817" lon="14.9346667"><ele>690.0</ele><time>2026-03-28T07:42:21.481Z</time></trkpt><trkpt lat="40.8994667" lon="14.9348983"><ele>689.6666666666666</ele><time>2026-03-28T07:42:22.482Z</time></trkpt><trkpt lat="40.8995483" lon="14.9351267"><ele>689.3333333333333</ele><time>2026-03-28T07:42:23.481Z</time></trkpt><trkpt lat="40.899625" lon="14.93536"><ele>689.0</ele><time>2026-03-28T07:42:24.482Z</time></trkpt><trkpt lat="40.8997" lon="14.93559"><ele>689.0</ele><time>2026-03-28T07:42:25.481Z</time></trkpt><trkpt lat="40.8997717" lon="14.93583"><ele>689.0</ele><time>2026-03-28T07:42:26.482Z</time></trkpt><trkpt lat="40.89984" lon="14.9360717"><ele>689.0</ele><time>2026-03-28T07:42:27.481Z</time></trkpt><trkpt lat="40.8999083" lon="14.9363167"><ele>688.0</ele><time>2026-03-28T07:42:28.482Z</time></trkpt><trkpt lat="40.8999733" lon="14.9365633"><ele>687.0</ele><time>2026-03-28T07:42:29.481Z</time></trkpt><trkpt lat="40.9000333" lon="14.936805"><ele>686.0</ele><time>2026-03-28T07:42:30.482Z</time></trkpt><trkpt lat="40.9000933" lon="14.9370467"><ele>688.3333333333333</ele><time>2026-03-28T07:42:31.481Z</time></trkpt><trkpt lat="40.9001517" lon="14.9372883"><ele>690.6666666666666</ele><time>2026-03-28T07:42:32.481Z</time></trkpt><trkpt lat="40.9002" lon="14.937535"><ele>693.0</ele><time>2026-03-28T07:42:33.481Z</time></trkpt><trkpt lat="40.9002483" lon="14.9377783"><ele>693.0</ele><time>2026-03-28T07:42:34.482Z</time></trkpt><trkpt lat="40.9002917" lon="14.938015"><ele>693.0</ele><time>2026-03-28T07:42:35.481Z</time></trkpt><trkpt lat="40.90034" lon="14.9382467"><ele>693.0</ele><time>2026-03-28T07:42:36.482Z</time></trkpt><trkpt lat="40.9003817" lon="14.93848"><ele>693.0</ele><time>2026-03-28T07:42:37.482Z</time></trkpt><trkpt lat="40.900415" lon="14.938715"><ele>693.0</ele><time>2026-03-28T07:42:38.482Z</time></trkpt><trkpt lat="40.9004517" lon="14.938955"><ele>693.0</ele><time>2026-03-28T07:42:39.482Z</time></trkpt><trkpt lat="40.9004817" lon="14.9392017"><ele>693.0</ele><time>2026-03-28T07:42:40.482Z</time></trkpt><trkpt lat="40.90051" lon="14.9394517"><ele>693.0</ele><time>2026-03-28T07:42:41.482Z</time></trkpt><trkpt lat="40.9005383" lon="14.93971"><ele>693.0</ele><time>2026-03-28T07:42:42.482Z</time></trkpt><trkpt lat="40.900565" lon="14.93997"><ele>692.3333333333334</ele><time>2026-03-28T07:42:43.482Z</time></trkpt><trkpt lat="40.900585" lon="14.9402267"><ele>691.6666666666667</ele><time>2026-03-28T07:42:44.482Z</time></trkpt><trkpt lat="40.9006033" lon="14.9404833"><ele>691.0</ele><time>2026-03-28T07:42:45.482Z</time></trkpt><trkpt lat="40.9006217" lon="14.9407417"><ele>692.0</ele><time>2026-03-28T07:42:46.482Z</time></trkpt><trkpt lat="40.9006333" lon="14.9409917"><ele>693.0</ele><time>2026-03-28T07:42:47.481Z</time></trkpt><trkpt lat="40.9006483" lon="14.9412417"><ele>694.0</ele><time>2026-03-28T07:42:48.481Z</time></trkpt><trkpt lat="40.90067" lon="14.9414983"><ele>695.0</ele><time>2026-03-28T07:42:49.482Z</time></trkpt><trkpt lat="40.9006817" lon="14.9417533"><ele>696.0</ele><time>2026-03-28T07:42:50.482Z</time></trkpt><trkpt lat="40.9006983" lon="14.9420083"><ele>697.0</ele><time>2026-03-28T07:42:51.481Z</time></trkpt><trkpt lat="40.900715" lon="14.942255"><ele>697.0</ele><time>2026-03-28T07:42:52.482Z</time></trkpt><trkpt lat="40.9007333" lon="14.9425033"><ele>697.0</ele><time>2026-03-28T07:42:53.482Z</time></trkpt><trkpt lat="40.9007467" lon="14.9427617"><ele>697.0</ele><time>2026-03-28T07:42:54.481Z</time></trkpt><trkpt lat="40.9007617" lon="14.9430217"><ele>697.0</ele><time>2026-03-28T07:42:55.482Z</time></trkpt><trkpt lat="40.9007733" lon="14.943295"><ele>697.0</ele><time>2026-03-28T07:42:56.481Z</time></trkpt><trkpt lat="40.9007917" lon="14.943575"><ele>697.0</ele><time>2026-03-28T07:42:57.482Z</time></trkpt><trkpt lat="40.9008083" lon="14.9438567"><ele>696.6666666666667</ele><time>2026-03-28T07:42:58.482Z</time></trkpt><trkpt lat="40.900825" lon="14.9441267"><ele>696.3333333333334</ele><time>2026-03-28T07:42:59.481Z</time></trkpt><trkpt lat="40.9008417" lon="14.9444"><ele>696.0</ele><time>2026-03-28T07:43:00.482Z</time></trkpt><trkpt lat="40.9008583" lon="14.9446683"><ele>696.0</ele><time>2026-03-28T07:43:01.481Z</time></trkpt><trkpt lat="40.9008767" lon="14.9449417"><ele>696.0</ele><time>2026-03-28T07:43:02.482Z</time></trkpt><trkpt lat="40.9008967" lon="14.9452133"><ele>696.0</ele><time>2026-03-28T07:43:03.482Z</time></trkpt><trkpt lat="40.9009183" lon="14.9454933"><ele>698.0</ele><time>2026-03-28T07:43:04.482Z</time></trkpt><trkpt lat="40.900935" lon="14.9457683"><ele>700.0</ele><time>2026-03-28T07:43:05.481Z</time></trkpt><trkpt lat="40.9009517" lon="14.94605"><ele>702.0</ele><time>2026-03-28T07:43:06.481Z</time></trkpt><trkpt lat="40.9009667" lon="14.94633"><ele>702.3333333333334</ele><time>2026-03-28T07:43:07.482Z</time></trkpt><trkpt lat="40.9009867" lon="14.9466133"><ele>702.6666666666667</ele><time>2026-03-28T07:43:08.481Z</time></trkpt><trkpt lat="40.9010033" lon="14.9469"><ele>703.0</ele><time>2026-03-28T07:43:09.481Z</time></trkpt><trkpt lat="40.90102" lon="14.9471817"><ele>702.6666666666667</ele><time>2026-03-28T07:43:10.482Z</time></trkpt><trkpt lat="40.9010367" lon="14.94746"><ele>702.3333333333334</ele><time>2026-03-28T07:43:11.482Z</time></trkpt><trkpt lat="40.901055" lon="14.9477433"><ele>702.0</ele><time>2026-03-28T07:43:12.482Z</time></trkpt><trkpt lat="40.901075" lon="14.9480183"><ele>702.0</ele><time>2026-03-28T07:43:13.482Z</time></trkpt><trkpt lat="40.9010867" lon="14.94829"><ele>702.0</ele><time>2026-03-28T07:43:14.482Z</time></trkpt><trkpt lat="40.9011" lon="14.9485517"><ele>702.0</ele><time>2026-03-28T07:43:15.481Z</time></trkpt><trkpt lat="40.9011083" lon="14.948815"><ele>702.6666666666666</ele><time>2026-03-28T07:43:16.481Z</time></trkpt><trkpt lat="40.9011267" lon="14.9490733"><ele>703.3333333333333</ele><time>2026-03-28T07:43:17.482Z</time></trkpt><trkpt lat="40.90114" lon="14.94934"><ele>704.0</ele><time>2026-03-28T07:43:18.482Z</time></trkpt><trkpt lat="40.9011567" lon="14.9495983"><ele>705.0</ele><time>2026-03-28T07:43:19.482Z</time></trkpt><trkpt lat="40.901175" lon="14.949855"><ele>706.0</ele><time>2026-03-28T07:43:20.482Z</time></trkpt><trkpt lat="40.9011917" lon="14.950115"><ele>707.0</ele><time>2026-03-28T07:43:21.482Z</time></trkpt><trkpt lat="40.9012067" lon="14.9503767"><ele>707.0</ele><time>2026-03-28T07:43:22.482Z</time></trkpt><trkpt lat="40.9012183" lon="14.95064"><ele>707.0</ele><time>2026-03-28T07:43:23.482Z</time></trkpt><trkpt lat="40.901225" lon="14.9509"><ele>707.0</ele><time>2026-03-28T07:43:24.482Z</time></trkpt><trkpt lat="40.9012317" lon="14.951165"><ele>706.0</ele><time>2026-03-28T07:43:25.482Z</time></trkpt><trkpt lat="40.9012317" lon="14.951435"><ele>705.0</ele><time>2026-03-28T07:43:26.481Z</time></trkpt><trkpt lat="40.901225" lon="14.9516883"><ele>704.0</ele><time>2026-03-28T07:43:27.482Z</time></trkpt><trkpt lat="40.9012167" lon="14.95194"><ele>704.0</ele><time>2026-03-28T07:43:28.482Z</time></trkpt><trkpt lat="40.9012117" lon="14.9521917"><ele>704.0</ele><time>2026-03-28T07:43:29.482Z</time></trkpt><trkpt lat="40.90119" lon="14.9524467"><ele>704.0</ele><time>2026-03-28T07:43:30.482Z</time></trkpt><trkpt lat="40.90117" lon="14.9527033"><ele>703.6666666666666</ele><time>2026-03-28T07:43:31.482Z</time></trkpt><trkpt lat="40.9011417" lon="14.9529617"><ele>703.3333333333334</ele><time>2026-03-28T07:43:32.481Z</time></trkpt><trkpt lat="40.901105" lon="14.9532217"><ele>703.0</ele><time>2026-03-28T07:43:33.482Z</time></trkpt><trkpt lat="40.9010717" lon="14.95348"><ele>703.0</ele><time>2026-03-28T07:43:34.481Z</time></trkpt><trkpt lat="40.9010333" lon="14.95373"><ele>703.0</ele><time>2026-03-28T07:43:35.482Z</time></trkpt><trkpt lat="40.90099" lon="14.9539817"><ele>703.0</ele><time>2026-03-28T07:43:36.481Z</time></trkpt><trkpt lat="40.9009383" lon="14.9542333"><ele>700.6666666666667</ele><time>2026-03-28T07:43:37.481Z</time></trkpt><trkpt lat="40.9008867" lon="14.9544983"><ele>698.3333333333334</ele><time>2026-03-28T07:43:38.482Z</time></trkpt><trkpt lat="40.9008283" lon="14.9547667"><ele>696.0</ele><time>2026-03-28T07:43:39.481Z</time></trkpt><trkpt lat="40.900765" lon="14.9550367"><ele>696.6666666666666</ele><time>2026-03-28T07:43:40.482Z</time></trkpt><trkpt lat="40.9007033" lon="14.9553117"><ele>697.3333333333333</ele><time>2026-03-28T07:43:41.481Z</time></trkpt><trkpt lat="40.9006467" lon="14.9555817"><ele>698.0</ele><time>2026-03-28T07:43:42.482Z</time></trkpt><trkpt lat="40.90058" lon="14.9558433"><ele>699.3333333333333</ele><time>2026-03-28T07:43:43.482Z</time></trkpt><trkpt lat="40.900515" lon="14.9561017"><ele>700.6666666666666</ele><time>2026-03-28T07:43:44.482Z</time></trkpt><trkpt lat="40.9004483" lon="14.9563517"><ele>702.0</ele><time>2026-03-28T07:43:45.481Z</time></trkpt><trkpt lat="40.900385" lon="14.9565983"><ele>702.3333333333334</ele><time>2026-03-28T07:43:46.481Z</time></trkpt><trkpt lat="40.90032" lon="14.95684"><ele>702.6666666666667</ele><time>2026-03-28T07:43:47.482Z</time></trkpt><trkpt lat="40.9002533" lon="14.957075"><ele>703.0</ele><time>2026-03-28T07:43:48.482Z</time></trkpt><trkpt lat="40.9001783" lon="14.957315"><ele>700.6666666666667</ele><time>2026-03-28T07:43:49.481Z</time></trkpt><trkpt lat="40.9000933" lon="14.95756"><ele>698.3333333333334</ele><time>2026-03-28T07:43:50.482Z</time></trkpt><trkpt lat="40.9000067" lon="14.9578017"><ele>696.0</ele><time>2026-03-28T07:43:51.482Z</time></trkpt><trkpt lat="40.899915" lon="14.9580417"><ele>694.6666666666666</ele><time>2026-03-28T07:43:52.481Z</time></trkpt><trkpt lat="40.8998167" lon="14.9582817"><ele>693.3333333333333</ele><time>2026-03-28T07:43:53.482Z</time></trkpt><trkpt lat="40.89971" lon="14.958515"><ele>692.0</ele><time>2026-03-28T07:43:54.481Z</time></trkpt><trkpt lat="40.8995983" lon="14.9587417"><ele>690.3333333333333</ele><time>2026-03-28T07:43:55.482Z</time></trkpt><trkpt lat="40.8994867" lon="14.9589617"><ele>688.6666666666666</ele><time>2026-03-28T07:43:56.481Z</time></trkpt><trkpt lat="40.899365" lon="14.95918"><ele>687.0</ele><time>2026-03-28T07:43:57.482Z</time></trkpt><trkpt lat="40.8992417" lon="14.9593967"><ele>686.6666666666666</ele><time>2026-03-28T07:43:58.482Z</time></trkpt><trkpt lat="40.8991083" lon="14.9596083"><ele>686.3333333333333</ele><time>2026-03-28T07:43:59.482Z</time></trkpt><trkpt lat="40.8989717" lon="14.959815"><ele>686.0</ele><time>2026-03-28T07:44:00.481Z</time></trkpt><trkpt lat="40.89884" lon="14.9600083"><ele>686.0</ele><time>2026-03-28T07:44:01.482Z</time></trkpt><trkpt lat="40.8986967" lon="14.9601967"><ele>686.0</ele><time>2026-03-28T07:44:02.482Z</time></trkpt><trkpt lat="40.89855" lon="14.96038"><ele>686.0</ele><time>2026-03-28T07:44:03.482Z</time></trkpt><trkpt lat="40.8984033" lon="14.9605517"><ele>686.3333333333333</ele><time>2026-03-28T07:44:04.482Z</time></trkpt><trkpt lat="40.8982583" lon="14.9607167"><ele>686.6666666666666</ele><time>2026-03-28T07:44:05.482Z</time></trkpt><trkpt lat="40.89811" lon="14.9608767"><ele>687.0</ele><time>2026-03-28T07:44:06.481Z</time></trkpt><trkpt lat="40.89795" lon="14.96103"><ele>686.0</ele><time>2026-03-28T07:44:07.481Z</time></trkpt><trkpt lat="40.89778" lon="14.9611833"><ele>685.0</ele><time>2026-03-28T07:44:08.481Z</time></trkpt><trkpt lat="40.897605" lon="14.9613333"><ele>684.0</ele><time>2026-03-28T07:44:09.482Z</time></trkpt><trkpt lat="40.8974267" lon="14.9614817"><ele>684.0</ele><time>2026-03-28T07:44:10.482Z</time></trkpt><trkpt lat="40.8972467" lon="14.96162"><ele>684.0</ele><time>2026-03-28T07:44:11.482Z</time></trkpt><trkpt lat="40.8970583" lon="14.96175"><ele>684.0</ele><time>2026-03-28T07:44:12.482Z</time></trkpt><trkpt lat="40.8968633" lon="14.9618717"><ele>683.0</ele><time>2026-03-28T07:44:13.482Z</time></trkpt><trkpt lat="40.8966683" lon="14.9619983"><ele>682.0</ele><time>2026-03-28T07:44:14.481Z</time></trkpt><trkpt lat="40.8964683" lon="14.9621217"><ele>681.0</ele><time>2026-03-28T07:44:15.482Z</time></trkpt><trkpt lat="40.89627" lon="14.962235"><ele>681.0</ele><time>2026-03-28T07:44:16.482Z</time></trkpt><trkpt lat="40.8960717" lon="14.9623483"><ele>681.0</ele><time>2026-03-28T07:44:17.482Z</time></trkpt><trkpt lat="40.895875" lon="14.9624617"><ele>681.0</ele><time>2026-03-28T07:44:18.481Z</time></trkpt><trkpt lat="40.8956867" lon="14.9625583"><ele>682.0</ele><time>2026-03-28T07:44:19.482Z</time></trkpt><trkpt lat="40.8954983" lon="14.9626667"><ele>683.0</ele><time>2026-03-28T07:44:20.481Z</time></trkpt><trkpt lat="40.8953083" lon="14.9627717"><ele>684.0</ele><time>2026-03-28T07:44:21.482Z</time></trkpt><trkpt lat="40.895125" lon="14.9628717"><ele>684.0</ele><time>2026-03-28T07:44:22.482Z</time></trkpt><trkpt lat="40.894935" lon="14.962965"><ele>684.0</ele><time>2026-03-28T07:44:23.481Z</time></trkpt><trkpt lat="40.8947417" lon="14.9630633"><ele>684.0</ele><time>2026-03-28T07:44:24.482Z</time></trkpt><trkpt lat="40.8945483" lon="14.9631517"><ele>684.0</ele><time>2026-03-28T07:44:25.481Z</time></trkpt><trkpt lat="40.8943517" lon="14.9632383"><ele>684.0</ele><time>2026-03-28T07:44:26.482Z</time></trkpt><trkpt lat="40.8941517" lon="14.9633167"><ele>684.0</ele><time>2026-03-28T07:44:27.482Z</time></trkpt><trkpt lat="40.8939517" lon="14.963395"><ele>685.0</ele><time>2026-03-28T07:44:28.481Z</time></trkpt><trkpt lat="40.8937467" lon="14.9634717"><ele>686.0</ele><time>2026-03-28T07:44:29.482Z</time></trkpt><trkpt lat="40.8935433" lon="14.96354"><ele>687.0</ele><time>2026-03-28T07:44:30.482Z</time></trkpt><trkpt lat="40.89334" lon="14.9635967"><ele>688.0</ele><time>2026-03-28T07:44:31.482Z</time></trkpt><trkpt lat="40.893135" lon="14.96365"><ele>689.0</ele><time>2026-03-28T07:44:32.482Z</time></trkpt><trkpt lat="40.8929317" lon="14.96369"><ele>690.0</ele><time>2026-03-28T07:44:33.481Z</time></trkpt><trkpt lat="40.89273" lon="14.9637283"><ele>690.6666666666666</ele><time>2026-03-28T07:44:34.482Z</time></trkpt><trkpt lat="40.8925283" lon="14.96376"><ele>691.3333333333333</ele><time>2026-03-28T07:44:35.482Z</time></trkpt><trkpt lat="40.8923233" lon="14.9637833"><ele>692.0</ele><time>2026-03-28T07:44:36.481Z</time></trkpt><trkpt lat="40.8921217" lon="14.9638017"><ele>692.0</ele><time>2026-03-28T07:44:37.481Z</time></trkpt><trkpt lat="40.8919317" lon="14.9638233"><ele>692.0</ele><time>2026-03-28T07:44:38.482Z</time></trkpt><trkpt lat="40.8917533" lon="14.963825"><ele>692.0</ele><time>2026-03-28T07:44:39.481Z</time></trkpt><trkpt lat="40.891565" lon="14.9638267"><ele>691.0</ele><time>2026-03-28T07:44:40.482Z</time></trkpt><trkpt lat="40.8913783" lon="14.9638217"><ele>690.0</ele><time>2026-03-28T07:44:41.481Z</time></trkpt><trkpt lat="40.8911967" lon="14.9638183"><ele>689.0</ele><time>2026-03-28T07:44:42.481Z</time></trkpt><trkpt lat="40.8910017" lon="14.9638067"><ele>689.3333333333333</ele><time>2026-03-28T07:44:43.481Z</time></trkpt><trkpt lat="40.8908033" lon="14.9637817"><ele>689.6666666666666</ele><time>2026-03-28T07:44:44.481Z</time></trkpt><trkpt lat="40.8906083" lon="14.9637533"><ele>690.0</ele><time>2026-03-28T07:44:45.481Z</time></trkpt><trkpt lat="40.8904133" lon="14.9637267"><ele>690.0</ele><time>2026-03-28T07:44:46.482Z</time></trkpt><trkpt lat="40.8902233" lon="14.9636983"><ele>690.0</ele><time>2026-03-28T07:44:47.482Z</time></trkpt><trkpt lat="40.8900267" lon="14.9636583"><ele>690.0</ele><time>2026-03-28T07:44:48.481Z</time></trkpt><trkpt lat="40.8898267" lon="14.96361"><ele>690.3333333333334</ele><time>2026-03-28T07:44:49.481Z</time></trkpt><trkpt lat="40.8896233" lon="14.9635683"><ele>690.6666666666667</ele><time>2026-03-28T07:44:50.482Z</time></trkpt><trkpt lat="40.889415" lon="14.9635183"><ele>691.0</ele><time>2026-03-28T07:44:51.482Z</time></trkpt><trkpt lat="40.8892117" lon="14.9634683"><ele>691.0</ele><time>2026-03-28T07:44:52.482Z</time></trkpt><trkpt lat="40.889005" lon="14.9634183"><ele>691.0</ele><time>2026-03-28T07:44:53.482Z</time></trkpt><trkpt lat="40.8887983" lon="14.9633667"><ele>691.0</ele><time>2026-03-28T07:44:54.482Z</time></trkpt><trkpt lat="40.8885933" lon="14.9633183"><ele>688.3333333333334</ele><time>2026-03-28T07:44:55.482Z</time></trkpt><trkpt lat="40.8883867" lon="14.96327"><ele>685.6666666666666</ele><time>2026-03-28T07:44:56.482Z</time></trkpt><trkpt lat="40.88818" lon="14.963215"><ele>683.0</ele><time>2026-03-28T07:44:57.482Z</time></trkpt><trkpt lat="40.887975" lon="14.9631617"><ele>683.0</ele><time>2026-03-28T07:44:58.481Z</time></trkpt><trkpt lat="40.8877733" lon="14.9631083"><ele>683.0</ele><time>2026-03-28T07:44:59.482Z</time></trkpt><trkpt lat="40.8875717" lon="14.9630567"><ele>683.0</ele><time>2026-03-28T07:45:00.482Z</time></trkpt><trkpt lat="40.88737" lon="14.9630083"><ele>684.6666666666666</ele><time>2026-03-28T07:45:01.482Z</time></trkpt><trkpt lat="40.8871717" lon="14.96296"><ele>686.3333333333334</ele><time>2026-03-28T07:45:02.481Z</time></trkpt><trkpt lat="40.8869683" lon="14.96291"><ele>688.0</ele><time>2026-03-28T07:45:03.481Z</time></trkpt><trkpt lat="40.886765" lon="14.962855"><ele>692.0</ele><time>2026-03-28T07:45:04.482Z</time></trkpt><trkpt lat="40.8865617" lon="14.962805"><ele>696.0</ele><time>2026-03-28T07:45:05.482Z</time></trkpt><trkpt lat="40.8863583" lon="14.96277"><ele>700.0</ele><time>2026-03-28T07:45:06.482Z</time></trkpt><trkpt lat="40.88616" lon="14.9627267"><ele>700.0</ele><time>2026-03-28T07:45:07.482Z</time></trkpt><trkpt lat="40.8859633" lon="14.9626967"><ele>700.0</ele><time>2026-03-28T07:45:08.482Z</time></trkpt><trkpt lat="40.8857683" lon="14.9626783"><ele>700.0</ele><time>2026-03-28T07:45:09.481Z</time></trkpt><trkpt lat="40.88557" lon="14.96266"><ele>701.3333333333334</ele><time>2026-03-28T07:45:10.482Z</time></trkpt><trkpt lat="40.8853733" lon="14.96266"><ele>702.6666666666666</ele><time>2026-03-28T07:45:11.481Z</time></trkpt><trkpt lat="40.885175" lon="14.96268"><ele>704.0</ele><time>2026-03-28T07:45:12.482Z</time></trkpt><trkpt lat="40.88498" lon="14.962715"><ele>704.3333333333333</ele><time>2026-03-28T07:45:13.481Z</time></trkpt><trkpt lat="40.884785" lon="14.962765"><ele>704.6666666666666</ele><time>2026-03-28T07:45:14.482Z</time></trkpt><trkpt lat="40.884595" lon="14.9628333"><ele>705.0</ele><time>2026-03-28T07:45:15.481Z</time></trkpt><trkpt lat="40.8844" lon="14.962915"><ele>702.3333333333334</ele><time>2026-03-28T07:45:16.482Z</time></trkpt><trkpt lat="40.8842083" lon="14.9630033"><ele>699.6666666666667</ele><time>2026-03-28T07:45:17.482Z</time></trkpt><trkpt lat="40.8840183" lon="14.9631067"><ele>697.0</ele><time>2026-03-28T07:45:18.482Z</time></trkpt><trkpt lat="40.883835" lon="14.9632233"><ele>697.0</ele><time>2026-03-28T07:45:19.482Z</time></trkpt><trkpt lat="40.88366" lon="14.9633517"><ele>697.0</ele><time>2026-03-28T07:45:20.481Z</time></trkpt><trkpt lat="40.8834867" lon="14.9634983"><ele>697.0</ele><time>2026-03-28T07:45:21.481Z</time></trkpt><trkpt lat="40.8833217" lon="14.9636517"><ele>699.0</ele><time>2026-03-28T07:45:22.482Z</time></trkpt><trkpt lat="40.8831617" lon="14.96382"><ele>701.0</ele><time>2026-03-28T07:45:23.481Z</time></trkpt><trkpt lat="40.8830067" lon="14.964005"><ele>703.0</ele><time>2026-03-28T07:45:24.481Z</time></trkpt><trkpt lat="40.882855" lon="14.9642033"><ele>705.3333333333334</ele><time>2026-03-28T07:45:25.481Z</time></trkpt><trkpt lat="40.882705" lon="14.96441"><ele>707.6666666666666</ele><time>2026-03-28T07:45:26.481Z</time></trkpt><trkpt lat="40.8825617" lon="14.9646317"><ele>710.0</ele><time>2026-03-28T07:45:27.481Z</time></trkpt><trkpt lat="40.8824233" lon="14.9648617"><ele>707.0</ele><time>2026-03-28T07:45:28.482Z</time></trkpt><trkpt lat="40.8822867" lon="14.96509"><ele>704.0</ele><time>2026-03-28T07:45:29.481Z</time></trkpt><trkpt lat="40.8821567" lon="14.9653183"><ele>701.0</ele><time>2026-03-28T07:45:30.482Z</time></trkpt><trkpt lat="40.8820267" lon="14.9655467"><ele>701.0</ele><time>2026-03-28T07:45:31.481Z</time></trkpt><trkpt lat="40.8818933" lon="14.96577"><ele>701.0</ele><time>2026-03-28T07:45:32.481Z</time></trkpt><trkpt lat="40.8817583" lon="14.9659983"><ele>701.0</ele><time>2026-03-28T07:45:33.482Z</time></trkpt><trkpt lat="40.8816233" lon="14.9662167"><ele>702.3333333333333</ele><time>2026-03-28T07:45:34.482Z</time></trkpt><trkpt lat="40.881485" lon="14.9664233"><ele>703.6666666666666</ele><time>2026-03-28T07:45:35.482Z</time></trkpt><trkpt lat="40.88134" lon="14.966625"><ele>705.0</ele><time>2026-03-28T07:45:36.482Z</time></trkpt><trkpt lat="40.8811883" lon="14.9668167"><ele>707.0</ele><time>2026-03-28T07:45:37.481Z</time></trkpt><trkpt lat="40.8810283" lon="14.9670033"><ele>709.0</ele><time>2026-03-28T07:45:38.482Z</time></trkpt><trkpt lat="40.88086" lon="14.9671817"><ele>711.0</ele><time>2026-03-28T07:45:39.482Z</time></trkpt><trkpt lat="40.8806867" lon="14.96735"><ele>711.0</ele><time>2026-03-28T07:45:40.482Z</time></trkpt><trkpt lat="40.880515" lon="14.9675183"><ele>711.0</ele><time>2026-03-28T07:45:41.482Z</time></trkpt><trkpt lat="40.88035" lon="14.9676883"><ele>711.0</ele><time>2026-03-28T07:45:42.482Z</time></trkpt><trkpt lat="40.8801833" lon="14.967855"><ele>712.3333333333334</ele><time>2026-03-28T07:45:43.482Z</time></trkpt><trkpt lat="40.8800083" lon="14.9680167"><ele>713.6666666666667</ele><time>2026-03-28T07:45:44.482Z</time></trkpt><trkpt lat="40.8798317" lon="14.9681783"><ele>715.0</ele><time>2026-03-28T07:45:45.482Z</time></trkpt><trkpt lat="40.879655" lon="14.9683367"><ele>719.3333333333334</ele><time>2026-03-28T07:45:46.482Z</time></trkpt><trkpt lat="40.8794867" lon="14.9684967"><ele>723.6666666666666</ele><time>2026-03-28T07:45:47.481Z</time></trkpt><trkpt lat="40.8793267" lon="14.9686567"><ele>728.0</ele><time>2026-03-28T07:45:48.482Z</time></trkpt><trkpt lat="40.8791767" lon="14.96881"><ele>728.0</ele><time>2026-03-28T07:45:49.482Z</time></trkpt><trkpt lat="40.879035" lon="14.9689667"><ele>728.0</ele><time>2026-03-28T07:45:50.482Z</time></trkpt><trkpt lat="40.8788883" lon="14.969125"><ele>728.0</ele><time>2026-03-28T07:45:51.482Z</time></trkpt><trkpt lat="40.8787517" lon="14.9692933"><ele>726.3333333333333</ele><time>2026-03-28T07:45:52.481Z</time></trkpt><trkpt lat="40.87862" lon="14.9694667"><ele>724.6666666666666</ele><time>2026-03-28T07:45:53.481Z</time></trkpt><trkpt lat="40.8785" lon="14.9696483"><ele>723.0</ele><time>2026-03-28T07:45:54.481Z</time></trkpt><trkpt lat="40.87839" lon="14.9698417"><ele>730.0</ele><time>2026-03-28T07:45:55.482Z</time></trkpt><trkpt lat="40.8782933" lon="14.9700367"><ele>737.0</ele><time>2026-03-28T07:45:56.482Z</time></trkpt><trkpt lat="40.8782083" lon="14.9702483"><ele>744.0</ele><time>2026-03-28T07:45:57.481Z</time></trkpt><trkpt lat="40.8781383" lon="14.9704667"><ele>744.0</ele><time>2026-03-28T07:45:58.481Z</time></trkpt><trkpt lat="40.8780733" lon="14.970695"><ele>744.0</ele><time>2026-03-28T07:45:59.481Z</time></trkpt><trkpt lat="40.8780183" lon="14.9709183"><ele>744.0</ele><time>2026-03-28T07:46:00.482Z</time></trkpt><trkpt lat="40.8779817" lon="14.9711383"><ele>746.3333333333334</ele><time>2026-03-28T07:46:01.482Z</time></trkpt><trkpt lat="40.8779483" lon="14.97137"><ele>748.6666666666667</ele><time>2026-03-28T07:46:02.481Z</time></trkpt><trkpt lat="40.87793" lon="14.9716083"><ele>751.0</ele><time>2026-03-28T07:46:03.482Z</time></trkpt><trkpt lat="40.87792" lon="14.97185"><ele>751.0</ele><time>2026-03-28T07:46:04.481Z</time></trkpt><trkpt lat="40.8779183" lon="14.9720967"><ele>751.0</ele><time>2026-03-28T07:46:05.481Z</time></trkpt><trkpt lat="40.87794" lon="14.972345"><ele>751.0</ele><time>2026-03-28T07:46:06.482Z</time></trkpt><trkpt lat="40.8779733" lon="14.972585"><ele>749.0</ele><time>2026-03-28T07:46:07.482Z</time></trkpt><trkpt lat="40.87802" lon="14.9728267"><ele>747.0</ele><time>2026-03-28T07:46:08.482Z</time></trkpt><trkpt lat="40.8780667" lon="14.9730617"><ele>745.0</ele><time>2026-03-28T07:46:09.481Z</time></trkpt><trkpt lat="40.8781283" lon="14.9732967"><ele>741.0</ele><time>2026-03-28T07:46:10.482Z</time></trkpt><trkpt lat="40.8781983" lon="14.9735383"><ele>737.0</ele><time>2026-03-28T07:46:11.481Z</time></trkpt><trkpt lat="40.8782817" lon="14.97377"><ele>733.0</ele><time>2026-03-28T07:46:12.482Z</time></trkpt><trkpt lat="40.878375" lon="14.974005"><ele>742.6666666666667</ele><time>2026-03-28T07:46:13.482Z</time></trkpt><trkpt lat="40.8784733" lon="14.974235"><ele>752.3333333333334</ele><time>2026-03-28T07:46:14.482Z</time></trkpt><trkpt lat="40.8785717" lon="14.97446"><ele>762.0</ele><time>2026-03-28T07:46:15.481Z</time></trkpt><trkpt lat="40.8786717" lon="14.97468"><ele>762.0</ele><time>2026-03-28T07:46:16.482Z</time></trkpt><trkpt lat="40.8787683" lon="14.974905"><ele>762.0</ele><time>2026-03-28T07:46:17.481Z</time></trkpt><trkpt lat="40.8788683" lon="14.97514"><ele>762.0</ele><time>2026-03-28T07:46:18.481Z</time></trkpt><trkpt lat="40.87895" lon="14.9753817"><ele>759.6666666666666</ele><time>2026-03-28T07:46:19.482Z</time></trkpt><trkpt lat="40.8790267" lon="14.9756183"><ele>757.3333333333333</ele><time>2026-03-28T07:46:20.482Z</time></trkpt><trkpt lat="40.8790883" lon="14.9758617"><ele>755.0</ele><time>2026-03-28T07:46:21.482Z</time></trkpt><trkpt lat="40.879125" lon="14.976115"><ele>753.6666666666666</ele><time>2026-03-28T07:46:22.481Z</time></trkpt><trkpt lat="40.8791633" lon="14.9763683"><ele>752.3333333333334</ele><time>2026-03-28T07:46:23.481Z</time></trkpt><trkpt lat="40.8791933" lon="14.976615"><ele>751.0</ele><time>2026-03-28T07:46:24.481Z</time></trkpt><trkpt lat="40.87921" lon="14.9768583"><ele>751.0</ele><time>2026-03-28T07:46:25.482Z</time></trkpt><trkpt lat="40.8792167" lon="14.977105"><ele>751.0</ele><time>2026-03-28T07:46:26.481Z</time></trkpt><trkpt lat="40.87921" lon="14.9773483"><ele>751.0</ele><time>2026-03-28T07:46:27.482Z</time></trkpt><trkpt lat="40.8791783" lon="14.977595"><ele>752.0</ele><time>2026-03-28T07:46:28.482Z</time></trkpt><trkpt lat="40.8791417" lon="14.9778417"><ele>753.0</ele><time>2026-03-28T07:46:29.481Z</time></trkpt><trkpt lat="40.8790983" lon="14.978085"><ele>754.0</ele><time>2026-03-28T07:46:30.482Z</time></trkpt><trkpt lat="40.879045" lon="14.9783267"><ele>751.3333333333334</ele><time>2026-03-28T07:46:31.481Z</time></trkpt><trkpt lat="40.878985" lon="14.97857"><ele>748.6666666666666</ele><time>2026-03-28T07:46:32.482Z</time></trkpt><trkpt lat="40.8789133" lon="14.9788083"><ele>746.0</ele><time>2026-03-28T07:46:33.481Z</time></trkpt><trkpt lat="40.8788283" lon="14.979045"><ele>749.6666666666666</ele><time>2026-03-28T07:46:34.482Z</time></trkpt><trkpt lat="40.87873" lon="14.9792833"><ele>753.3333333333334</ele><time>2026-03-28T07:46:35.482Z</time></trkpt><trkpt lat="40.87863" lon="14.97952"><ele>757.0</ele><time>2026-03-28T07:46:36.482Z</time></trkpt><trkpt lat="40.8785367" lon="14.9797567"><ele>757.0</ele><time>2026-03-28T07:46:37.482Z</time></trkpt><trkpt lat="40.87844" lon="14.9799933"><ele>757.0</ele><time>2026-03-28T07:46:38.482Z</time></trkpt><trkpt lat="40.8783483" lon="14.98022"><ele>757.0</ele><time>2026-03-28T07:46:39.482Z</time></trkpt><trkpt lat="40.8782567" lon="14.9804533"><ele>760.6666666666667</ele><time>2026-03-28T07:46:40.482Z</time></trkpt><trkpt lat="40.8781733" lon="14.9806883"><ele>764.3333333333334</ele><time>2026-03-28T07:46:41.482Z</time></trkpt><trkpt lat="40.8780967" lon="14.9809317"><ele>768.0</ele><time>2026-03-28T07:46:42.481Z</time></trkpt><trkpt lat="40.8780367" lon="14.9811617"><ele>772.3333333333333</ele><time>2026-03-28T07:46:43.482Z</time></trkpt><trkpt lat="40.877985" lon="14.9813933"><ele>776.6666666666666</ele><time>2026-03-28T07:46:44.482Z</time></trkpt><trkpt lat="40.87794" lon="14.9816233"><ele>781.0</ele><time>2026-03-28T07:46:45.482Z</time></trkpt><trkpt lat="40.8779033" lon="14.9818433"><ele>784.0</ele><time>2026-03-28T07:46:46.482Z</time></trkpt><trkpt lat="40.8778817" lon="14.9820683"><ele>787.0</ele><time>2026-03-28T07:46:47.481Z</time></trkpt><trkpt lat="40.8778717" lon="14.9822967"><ele>790.0</ele><time>2026-03-28T07:46:48.481Z</time></trkpt><trkpt lat="40.8778733" lon="14.9825283"><ele>792.3333333333333</ele><time>2026-03-28T07:46:49.481Z</time></trkpt><trkpt lat="40.8778833" lon="14.9827567"><ele>794.6666666666667</ele><time>2026-03-28T07:46:50.481Z</time></trkpt><trkpt lat="40.8779017" lon="14.98299"><ele>797.0</ele><time>2026-03-28T07:46:51.482Z</time></trkpt><trkpt lat="40.8779183" lon="14.9832283"><ele>796.0</ele><time>2026-03-28T07:46:52.482Z</time></trkpt><trkpt lat="40.8779517" lon="14.9834717"><ele>795.0</ele><time>2026-03-28T07:46:53.481Z</time></trkpt><trkpt lat="40.8780033" lon="14.98371"><ele>794.0</ele><time>2026-03-28T07:46:54.481Z</time></trkpt><trkpt lat="40.87806" lon="14.98395"><ele>795.3333333333334</ele><time>2026-03-28T07:46:55.482Z</time></trkpt><trkpt lat="40.878125" lon="14.9841867"><ele>796.6666666666667</ele><time>2026-03-28T07:46:56.482Z</time></trkpt><trkpt lat="40.8781983" lon="14.9844167"><ele>798.0</ele><time>2026-03-28T07:46:57.482Z</time></trkpt><trkpt lat="40.87828" lon="14.98465"><ele>798.0</ele><time>2026-03-28T07:46:58.482Z</time></trkpt><trkpt lat="40.8783717" lon="14.984875"><ele>798.0</ele><time>2026-03-28T07:46:59.482Z</time></trkpt><trkpt lat="40.8784533" lon="14.9850967"><ele>798.0</ele><time>2026-03-28T07:47:00.482Z</time></trkpt><trkpt lat="40.8785517" lon="14.985305"><ele>796.6666666666667</ele><time>2026-03-28T07:47:01.482Z</time></trkpt><trkpt lat="40.8786467" lon="14.98552"><ele>795.3333333333334</ele><time>2026-03-28T07:47:02.482Z</time></trkpt><trkpt lat="40.8787417" lon="14.9857367"><ele>794.0</ele><time>2026-03-28T07:47:03.481Z</time></trkpt><trkpt lat="40.8788417" lon="14.9859467"><ele>794.0</ele><time>2026-03-28T07:47:04.482Z</time></trkpt><trkpt lat="40.878935" lon="14.986155"><ele>794.0</ele><time>2026-03-28T07:47:05.482Z</time></trkpt><trkpt lat="40.8790283" lon="14.9863717"><ele>794.0</ele><time>2026-03-28T07:47:06.481Z</time></trkpt><trkpt lat="40.8791217" lon="14.98659"><ele>793.6666666666667</ele><time>2026-03-28T07:47:07.481Z</time></trkpt><trkpt lat="40.879215" lon="14.986815"><ele>793.3333333333333</ele><time>2026-03-28T07:47:08.482Z</time></trkpt><trkpt lat="40.8793183" lon="14.9870367"><ele>793.0</ele><time>2026-03-28T07:47:09.481Z</time></trkpt><trkpt lat="40.8793983" lon="14.987255"><ele>793.0</ele><time>2026-03-28T07:47:10.482Z</time></trkpt><trkpt lat="40.8794883" lon="14.9874733"><ele>793.0</ele><time>2026-03-28T07:47:11.482Z</time></trkpt><trkpt lat="40.8795767" lon="14.987675"><ele>793.0</ele><time>2026-03-28T07:47:12.481Z</time></trkpt><trkpt lat="40.8796667" lon="14.9878817"><ele>792.6666666666666</ele><time>2026-03-28T07:47:13.481Z</time></trkpt><trkpt lat="40.8797583" lon="14.98809"><ele>792.3333333333333</ele><time>2026-03-28T07:47:14.482Z</time></trkpt><trkpt lat="40.87985" lon="14.9883033"><ele>792.0</ele><time>2026-03-28T07:47:15.481Z</time></trkpt><trkpt lat="40.8799517" lon="14.98852"><ele>792.6666666666667</ele><time>2026-03-28T07:47:16.482Z</time></trkpt><trkpt lat="40.88006" lon="14.9887383"><ele>793.3333333333334</ele><time>2026-03-28T07:47:17.483Z</time></trkpt><trkpt lat="40.880165" lon="14.9889567"><ele>794.0</ele><time>2026-03-28T07:47:18.483Z</time></trkpt><trkpt lat="40.8802817" lon="14.98917"><ele>795.6666666666667</ele><time>2026-03-28T07:47:19.482Z</time></trkpt><trkpt lat="40.8804017" lon="14.989385"><ele>797.3333333333333</ele><time>2026-03-28T07:47:20.482Z</time></trkpt><trkpt lat="40.880525" lon="14.9895933"><ele>799.0</ele><time>2026-03-28T07:47:21.483Z</time></trkpt><trkpt lat="40.880655" lon="14.98979"><ele>799.0</ele><time>2026-03-28T07:47:22.483Z</time></trkpt><trkpt lat="40.8807917" lon="14.9899767"><ele>799.0</ele><time>2026-03-28T07:47:23.483Z</time></trkpt><trkpt lat="40.88093" lon="14.9901667"><ele>799.0</ele><time>2026-03-28T07:47:24.483Z</time></trkpt><trkpt lat="40.8810717" lon="14.99034"><ele>797.6666666666666</ele><time>2026-03-28T07:47:25.483Z</time></trkpt><trkpt lat="40.8812083" lon="14.990515"><ele>796.3333333333333</ele><time>2026-03-28T07:47:26.482Z</time></trkpt><trkpt lat="40.8813467" lon="14.99068"><ele>795.0</ele><time>2026-03-28T07:47:27.482Z</time></trkpt><trkpt lat="40.881495" lon="14.9908433"><ele>796.6666666666667</ele><time>2026-03-28T07:47:28.483Z</time></trkpt><trkpt lat="40.8816467" lon="14.991015"><ele>798.3333333333334</ele><time>2026-03-28T07:47:29.483Z</time></trkpt><trkpt lat="40.8818083" lon="14.991185"><ele>800.0</ele><time>2026-03-28T07:47:30.483Z</time></trkpt><trkpt lat="40.88197" lon="14.9913417"><ele>800.0</ele><time>2026-03-28T07:47:31.482Z</time></trkpt><trkpt lat="40.882135" lon="14.9914967"><ele>800.0</ele><time>2026-03-28T07:47:32.483Z</time></trkpt><trkpt lat="40.8823" lon="14.99165"><ele>800.0</ele><time>2026-03-28T07:47:33.482Z</time></trkpt><trkpt lat="40.8824683" lon="14.9918033"><ele>800.3333333333334</ele><time>2026-03-28T07:47:34.483Z</time></trkpt><trkpt lat="40.8826367" lon="14.9919533"><ele>800.6666666666667</ele><time>2026-03-28T07:47:35.483Z</time></trkpt><trkpt lat="40.88281" lon="14.9921117"><ele>801.0</ele><time>2026-03-28T07:47:36.483Z</time></trkpt><trkpt lat="40.8829817" lon="14.9922667"><ele>801.0</ele><time>2026-03-28T07:47:37.483Z</time></trkpt><trkpt lat="40.88315" lon="14.9924183"><ele>801.0</ele><time>2026-03-28T07:47:38.483Z</time></trkpt><trkpt lat="40.8833167" lon="14.9925717"><ele>801.0</ele><time>2026-03-28T07:47:39.483Z</time></trkpt><trkpt lat="40.8834833" lon="14.9927283"><ele>801.6666666666667</ele><time>2026-03-28T07:47:40.483Z</time></trkpt><trkpt lat="40.8836467" lon="14.99288"><ele>802.3333333333334</ele><time>2026-03-28T07:47:41.483Z</time></trkpt><trkpt lat="40.8838167" lon="14.9930333"><ele>803.0</ele><time>2026-03-28T07:47:42.482Z</time></trkpt><trkpt lat="40.88399" lon="14.993185"><ele>804.0</ele><time>2026-03-28T07:47:43.483Z</time></trkpt><trkpt lat="40.8841617" lon="14.9933433"><ele>805.0</ele><time>2026-03-28T07:47:44.482Z</time></trkpt><trkpt lat="40.884335" lon="14.9935"><ele>806.0</ele><time>2026-03-28T07:47:45.482Z</time></trkpt><trkpt lat="40.8844967" lon="14.9936633"><ele>806.0</ele><time>2026-03-28T07:47:46.483Z</time></trkpt><trkpt lat="40.8846633" lon="14.99382"><ele>806.0</ele><time>2026-03-28T07:47:47.483Z</time></trkpt><trkpt lat="40.8848367" lon="14.99397"><ele>806.0</ele><time>2026-03-28T07:47:48.483Z</time></trkpt><trkpt lat="40.8850083" lon="14.9941283"><ele>806.0</ele><time>2026-03-28T07:47:49.482Z</time></trkpt><trkpt lat="40.8851783" lon="14.9942867"><ele>806.0</ele><time>2026-03-28T07:47:50.482Z</time></trkpt><trkpt lat="40.8853417" lon="14.99445"><ele>806.0</ele><time>2026-03-28T07:47:51.483Z</time></trkpt><trkpt lat="40.8855017" lon="14.99463"><ele>806.0</ele><time>2026-03-28T07:47:52.482Z</time></trkpt><trkpt lat="40.8856667" lon="14.994815"><ele>806.0</ele><time>2026-03-28T07:47:53.482Z</time></trkpt><trkpt lat="40.8858267" lon="14.9949983"><ele>806.0</ele><time>2026-03-28T07:47:54.483Z</time></trkpt><trkpt lat="40.885985" lon="14.9951917"><ele>806.6666666666667</ele><time>2026-03-28T07:47:55.482Z</time></trkpt><trkpt lat="40.8861367" lon="14.9953867"><ele>807.3333333333333</ele><time>2026-03-28T07:47:56.483Z</time></trkpt><trkpt lat="40.8862817" lon="14.9955917"><ele>808.0</ele><time>2026-03-28T07:47:57.483Z</time></trkpt><trkpt lat="40.8864217" lon="14.9957983"><ele>808.6666666666666</ele><time>2026-03-28T07:47:58.483Z</time></trkpt><trkpt lat="40.8865583" lon="14.9960067"><ele>809.3333333333333</ele><time>2026-03-28T07:47:59.483Z</time></trkpt><trkpt lat="40.8866783" lon="14.9962183"><ele>810.0</ele><time>2026-03-28T07:48:00.482Z</time></trkpt><trkpt lat="40.8867983" lon="14.9964317"><ele>809.3333333333333</ele><time>2026-03-28T07:48:01.482Z</time></trkpt><trkpt lat="40.886915" lon="14.996645"><ele>808.6666666666666</ele><time>2026-03-28T07:48:02.483Z</time></trkpt><trkpt lat="40.88702" lon="14.99686"><ele>808.0</ele><time>2026-03-28T07:48:03.483Z</time></trkpt><trkpt lat="40.8871167" lon="14.997075"><ele>808.0</ele><time>2026-03-28T07:48:04.483Z</time></trkpt><trkpt lat="40.8872117" lon="14.9972883"><ele>808.0</ele><time>2026-03-28T07:48:05.483Z</time></trkpt><trkpt lat="40.8872967" lon="14.9975017"><ele>808.0</ele><time>2026-03-28T07:48:06.483Z</time></trkpt><trkpt lat="40.8873817" lon="14.9977167"><ele>807.6666666666666</ele><time>2026-03-28T07:48:07.482Z</time></trkpt><trkpt lat="40.88746" lon="14.997935"><ele>807.3333333333333</ele><time>2026-03-28T07:48:08.482Z</time></trkpt><trkpt lat="40.8875383" lon="14.99816"><ele>807.0</ele><time>2026-03-28T07:48:09.482Z</time></trkpt><trkpt lat="40.8876133" lon="14.9983917"><ele>807.0</ele><time>2026-03-28T07:48:10.482Z</time></trkpt><trkpt lat="40.8876833" lon="14.9986267"><ele>807.0</ele><time>2026-03-28T07:48:11.483Z</time></trkpt><trkpt lat="40.8877467" lon="14.998865"><ele>807.0</ele><time>2026-03-28T07:48:12.483Z</time></trkpt><trkpt lat="40.8878117" lon="14.9991133"><ele>806.3333333333333</ele><time>2026-03-28T07:48:13.483Z</time></trkpt><trkpt lat="40.88787" lon="14.9993667"><ele>805.6666666666666</ele><time>2026-03-28T07:48:14.483Z</time></trkpt><trkpt lat="40.887935" lon="14.999615"><ele>805.0</ele><time>2026-03-28T07:48:15.483Z</time></trkpt><trkpt lat="40.8879967" lon="14.9998733"><ele>805.0</ele><time>2026-03-28T07:48:16.482Z</time></trkpt><trkpt lat="40.88805" lon="15.0001333"><ele>805.0</ele><time>2026-03-28T07:48:17.482Z</time></trkpt><trkpt lat="40.88811" lon="15.0003883"><ele>805.0</ele><time>2026-03-28T07:48:18.483Z</time></trkpt><trkpt lat="40.8881667" lon="15.0006417"><ele>804.0</ele><time>2026-03-28T07:48:19.483Z</time></trkpt><trkpt lat="40.8882317" lon="15.0008883"><ele>803.0</ele><time>2026-03-28T07:48:20.483Z</time></trkpt><trkpt lat="40.888285" lon="15.0011417"><ele>802.0</ele><time>2026-03-28T07:48:21.483Z</time></trkpt><trkpt lat="40.8883417" lon="15.0013883"><ele>802.0</ele><time>2026-03-28T07:48:22.482Z</time></trkpt><trkpt lat="40.8883967" lon="15.0016333"><ele>802.0</ele><time>2026-03-28T07:48:23.483Z</time></trkpt><trkpt lat="40.88845" lon="15.0018783"><ele>802.0</ele><time>2026-03-28T07:48:24.482Z</time></trkpt><trkpt lat="40.8885017" lon="15.002125"><ele>807.6666666666666</ele><time>2026-03-28T07:48:25.483Z</time></trkpt><trkpt lat="40.8885533" lon="15.0023733"><ele>813.3333333333333</ele><time>2026-03-28T07:48:26.483Z</time></trkpt><trkpt lat="40.8885917" lon="15.0026183"><ele>819.0</ele><time>2026-03-28T07:48:27.483Z</time></trkpt><trkpt lat="40.8886183" lon="15.0028583"><ele>819.0</ele><time>2026-03-28T07:48:28.482Z</time></trkpt><trkpt lat="40.8886367" lon="15.0030967"><ele>819.0</ele><time>2026-03-28T07:48:29.483Z</time></trkpt><trkpt lat="40.8886417" lon="15.003335"><ele>819.0</ele><time>2026-03-28T07:48:30.482Z</time></trkpt><trkpt lat="40.8886317" lon="15.0035667"><ele>813.0</ele><time>2026-03-28T07:48:31.482Z</time></trkpt><trkpt lat="40.8886067" lon="15.0037933"><ele>807.0</ele><time>2026-03-28T07:48:32.483Z</time></trkpt><trkpt lat="40.888575" lon="15.004025"><ele>801.0</ele><time>2026-03-28T07:48:33.482Z</time></trkpt><trkpt lat="40.8885483" lon="15.00426"><ele>797.0</ele><time>2026-03-28T07:48:34.483Z</time></trkpt><trkpt lat="40.8885133" lon="15.004485"><ele>793.0</ele><time>2026-03-28T07:48:35.482Z</time></trkpt><trkpt lat="40.888465" lon="15.0047067"><ele>789.0</ele><time>2026-03-28T07:48:36.483Z</time></trkpt><trkpt lat="40.888405" lon="15.0049233"><ele>784.6666666666667</ele><time>2026-03-28T07:48:37.483Z</time></trkpt><trkpt lat="40.8883333" lon="15.0051333"><ele>780.3333333333334</ele><time>2026-03-28T07:48:38.483Z</time></trkpt><trkpt lat="40.888255" lon="15.0053383"><ele>776.0</ele><time>2026-03-28T07:48:39.483Z</time></trkpt><trkpt lat="40.8881683" lon="15.0055383"><ele>776.0</ele><time>2026-03-28T07:48:40.482Z</time></trkpt><trkpt lat="40.888055" lon="15.0057467"><ele>776.0</ele><time>2026-03-28T07:48:41.482Z</time></trkpt><trkpt lat="40.887935" lon="15.0059467"><ele>776.0</ele><time>2026-03-28T07:48:42.483Z</time></trkpt><trkpt lat="40.8878083" lon="15.0061317"><ele>777.0</ele><time>2026-03-28T07:48:43.483Z</time></trkpt><trkpt lat="40.8876767" lon="15.0063067"><ele>778.0</ele><time>2026-03-28T07:48:44.483Z</time></trkpt><trkpt lat="40.8875317" lon="15.006475"><ele>779.0</ele><time>2026-03-28T07:48:45.483Z</time></trkpt><trkpt lat="40.8873783" lon="15.006635"><ele>770.3333333333334</ele><time>2026-03-28T07:48:46.483Z</time></trkpt><trkpt lat="40.887225" lon="15.0067717"><ele>761.6666666666667</ele><time>2026-03-28T07:48:47.482Z</time></trkpt><trkpt lat="40.8870667" lon="15.0068983"><ele>753.0</ele><time>2026-03-28T07:48:48.482Z</time></trkpt><trkpt lat="40.8869017" lon="15.00701"><ele>757.6666666666666</ele><time>2026-03-28T07:48:49.482Z</time></trkpt><trkpt lat="40.8867367" lon="15.007115"><ele>762.3333333333333</ele><time>2026-03-28T07:48:50.483Z</time></trkpt><trkpt lat="40.88657" lon="15.0072033"><ele>767.0</ele><time>2026-03-28T07:48:51.482Z</time></trkpt><trkpt lat="40.8864033" lon="15.0072733"><ele>767.0</ele><time>2026-03-28T07:48:52.482Z</time></trkpt><trkpt lat="40.8862333" lon="15.00734"><ele>767.0</ele><time>2026-03-28T07:48:53.482Z</time></trkpt><trkpt lat="40.886055" lon="15.0074067"><ele>767.0</ele><time>2026-03-28T07:48:54.482Z</time></trkpt><trkpt lat="40.8858717" lon="15.007455"><ele>765.0</ele><time>2026-03-28T07:48:55.482Z</time></trkpt><trkpt lat="40.885685" lon="15.0074883"><ele>763.0</ele><time>2026-03-28T07:48:56.483Z</time></trkpt><trkpt lat="40.8854967" lon="15.0075083"><ele>761.0</ele><time>2026-03-28T07:48:57.482Z</time></trkpt><trkpt lat="40.8853083" lon="15.0075217"><ele>755.0</ele><time>2026-03-28T07:48:58.483Z</time></trkpt><trkpt lat="40.8851167" lon="15.00753"><ele>749.0</ele><time>2026-03-28T07:48:59.482Z</time></trkpt><trkpt lat="40.88493" lon="15.0075333"><ele>743.0</ele><time>2026-03-28T07:49:00.483Z</time></trkpt><trkpt lat="40.88475" lon="15.0075167"><ele>743.0</ele><time>2026-03-28T07:49:01.483Z</time></trkpt><trkpt lat="40.8845633" lon="15.0075117"><ele>743.0</ele><time>2026-03-28T07:49:02.483Z</time></trkpt><trkpt lat="40.8843783" lon="15.0075067"><ele>743.0</ele><time>2026-03-28T07:49:03.483Z</time></trkpt><trkpt lat="40.8842" lon="15.0074983"><ele>756.3333333333333</ele><time>2026-03-28T07:49:04.482Z</time></trkpt><trkpt lat="40.88402" lon="15.0074883"><ele>769.6666666666666</ele><time>2026-03-28T07:49:05.483Z</time></trkpt><trkpt lat="40.8838383" lon="15.0074817"><ele>783.0</ele><time>2026-03-28T07:49:06.482Z</time></trkpt><trkpt lat="40.8836583" lon="15.0074717"><ele>783.0</ele><time>2026-03-28T07:49:07.482Z</time></trkpt><trkpt lat="40.8834783" lon="15.007465"><ele>783.0</ele><time>2026-03-28T07:49:08.483Z</time></trkpt><trkpt lat="40.8832983" lon="15.0074467"><ele>783.0</ele><time>2026-03-28T07:49:09.483Z</time></trkpt><trkpt lat="40.88312" lon="15.00744"><ele>779.3333333333333</ele><time>2026-03-28T07:49:10.483Z</time></trkpt><trkpt lat="40.8829417" lon="15.007425"><ele>775.6666666666666</ele><time>2026-03-28T07:49:11.482Z</time></trkpt><trkpt lat="40.8827633" lon="15.0074083"><ele>772.0</ele><time>2026-03-28T07:49:12.482Z</time></trkpt><trkpt lat="40.8825817" lon="15.00739"><ele>767.3333333333333</ele><time>2026-03-28T07:49:13.483Z</time></trkpt><trkpt lat="40.8823983" lon="15.0073783"><ele>762.6666666666666</ele><time>2026-03-28T07:49:14.483Z</time></trkpt><trkpt lat="40.882215" lon="15.007365"><ele>758.0</ele><time>2026-03-28T07:49:15.483Z</time></trkpt><trkpt lat="40.88203" lon="15.0073533"><ele>758.0</ele><time>2026-03-28T07:49:16.482Z</time></trkpt><trkpt lat="40.8818533" lon="15.0073333"><ele>758.0</ele><time>2026-03-28T07:49:17.482Z</time></trkpt><trkpt lat="40.8816683" lon="15.0073283"><ele>758.0</ele><time>2026-03-28T07:49:18.483Z</time></trkpt><trkpt lat="40.881485" lon="15.0073317"><ele>751.6666666666666</ele><time>2026-03-28T07:49:19.482Z</time></trkpt><trkpt lat="40.881305" lon="15.0073367"><ele>745.3333333333334</ele><time>2026-03-28T07:49:20.482Z</time></trkpt><trkpt lat="40.88113" lon="15.0073517"><ele>739.0</ele><time>2026-03-28T07:49:21.483Z</time></trkpt><trkpt lat="40.880955" lon="15.007385"><ele>730.0</ele><time>2026-03-28T07:49:22.482Z</time></trkpt><trkpt lat="40.880785" lon="15.0074317"><ele>721.0</ele><time>2026-03-28T07:49:23.483Z</time></trkpt><trkpt lat="40.880615" lon="15.0074967"><ele>712.0</ele><time>2026-03-28T07:49:24.483Z</time></trkpt><trkpt lat="40.880455" lon="15.007565"><ele>703.0</ele><time>2026-03-28T07:49:25.482Z</time></trkpt><trkpt lat="40.8802967" lon="15.0076533"><ele>694.0</ele><time>2026-03-28T07:49:26.483Z</time></trkpt><trkpt lat="40.8801433" lon="15.0077467"><ele>685.0</ele><time>2026-03-28T07:49:27.482Z</time></trkpt><trkpt lat="40.88" lon="15.0078517"><ele>679.3333333333334</ele><time>2026-03-28T07:49:28.483Z</time></trkpt><trkpt lat="40.879855" lon="15.0079683"><ele>673.6666666666666</ele><time>2026-03-28T07:49:29.483Z</time></trkpt><trkpt lat="40.879715" lon="15.0081"><ele>668.0</ele><time>2026-03-28T07:49:30.482Z</time></trkpt><trkpt lat="40.8795783" lon="15.0082433"><ele>667.0</ele><time>2026-03-28T07:49:31.482Z</time></trkpt><trkpt lat="40.87945" lon="15.0084083"><ele>666.0</ele><time>2026-03-28T07:49:32.483Z</time></trkpt><trkpt lat="40.87933" lon="15.0085817"><ele>665.0</ele><time>2026-03-28T07:49:33.482Z</time></trkpt><trkpt lat="40.8792217" lon="15.0087683"><ele>665.0</ele><time>2026-03-28T07:49:34.483Z</time></trkpt><trkpt lat="40.8791233" lon="15.0089617"><ele>665.0</ele><time>2026-03-28T07:49:35.483Z</time></trkpt><trkpt lat="40.879035" lon="15.0091667"><ele>665.0</ele><time>2026-03-28T07:49:36.482Z</time></trkpt><trkpt lat="40.8789583" lon="15.00937"><ele>659.0</ele><time>2026-03-28T07:49:37.483Z</time></trkpt><trkpt lat="40.8788883" lon="15.0095767"><ele>653.0</ele><time>2026-03-28T07:49:38.482Z</time></trkpt><trkpt lat="40.87883" lon="15.0098067"><ele>647.0</ele><time>2026-03-28T07:49:39.483Z</time></trkpt><trkpt lat="40.87878" lon="15.0100417"><ele>647.0</ele><time>2026-03-28T07:49:40.483Z</time></trkpt><trkpt lat="40.8787283" lon="15.0102783"><ele>647.0</ele><time>2026-03-28T07:49:41.483Z</time></trkpt><trkpt lat="40.8786867" lon="15.0105267"><ele>647.0</ele><time>2026-03-28T07:49:42.483Z</time></trkpt><trkpt lat="40.878655" lon="15.0107733"><ele>649.0</ele><time>2026-03-28T07:49:43.482Z</time></trkpt><trkpt lat="40.8786283" lon="15.0110317"><ele>651.0</ele><time>2026-03-28T07:49:44.483Z</time></trkpt><trkpt lat="40.878605" lon="15.011285"><ele>653.0</ele><time>2026-03-28T07:49:45.482Z</time></trkpt><trkpt lat="40.8785817" lon="15.0115333"><ele>650.6666666666666</ele><time>2026-03-28T07:49:46.482Z</time></trkpt><trkpt lat="40.8785767" lon="15.0117767"><ele>648.3333333333334</ele><time>2026-03-28T07:49:47.483Z</time></trkpt><trkpt lat="40.878575" lon="15.0120167"><ele>646.0</ele><time>2026-03-28T07:49:48.483Z</time></trkpt><trkpt lat="40.8785633" lon="15.012255"><ele>646.0</ele><time>2026-03-28T07:49:49.483Z</time></trkpt><trkpt lat="40.87855" lon="15.012485"><ele>646.0</ele><time>2026-03-28T07:49:50.483Z</time></trkpt><trkpt lat="40.8785217" lon="15.0127117"><ele>646.0</ele><time>2026-03-28T07:49:51.483Z</time></trkpt><trkpt lat="40.8784967" lon="15.012935"><ele>642.0</ele><time>2026-03-28T07:49:52.483Z</time></trkpt><trkpt lat="40.8784683" lon="15.0131583"><ele>638.0</ele><time>2026-03-28T07:49:53.482Z</time></trkpt><trkpt lat="40.87843" lon="15.0133833"><ele>634.0</ele><time>2026-03-28T07:49:54.483Z</time></trkpt><trkpt lat="40.878385" lon="15.0136083"><ele>643.3333333333334</ele><time>2026-03-28T07:49:55.483Z</time></trkpt><trkpt lat="40.8783367" lon="15.013835"><ele>652.6666666666666</ele><time>2026-03-28T07:49:56.482Z</time></trkpt><trkpt lat="40.87828" lon="15.0140667"><ele>662.0</ele><time>2026-03-28T07:49:57.482Z</time></trkpt><trkpt lat="40.8782183" lon="15.0142967"><ele>662.0</ele><time>2026-03-28T07:49:58.483Z</time></trkpt><trkpt lat="40.8781533" lon="15.0145233"><ele>662.0</ele><time>2026-03-28T07:49:59.482Z</time></trkpt><trkpt lat="40.8780833" lon="15.0147483"><ele>662.0</ele><time>2026-03-28T07:50:00.483Z</time></trkpt><trkpt lat="40.8780067" lon="15.01498"><ele>656.3333333333333</ele><time>2026-03-28T07:50:01.483Z</time></trkpt><trkpt lat="40.8779333" lon="15.0152083"><ele>650.6666666666666</ele><time>2026-03-28T07:50:02.482Z</time></trkpt><trkpt lat="40.8778617" lon="15.0154367"><ele>645.0</ele><time>2026-03-28T07:50:03.483Z</time></trkpt><trkpt lat="40.8777883" lon="15.0156617"><ele>648.0</ele><time>2026-03-28T07:50:04.483Z</time></trkpt><trkpt lat="40.87771" lon="15.01589"><ele>651.0</ele><time>2026-03-28T07:50:05.483Z</time></trkpt><trkpt lat="40.8776283" lon="15.0161133"><ele>654.0</ele><time>2026-03-28T07:50:06.483Z</time></trkpt><trkpt lat="40.8775517" lon="15.0163483"><ele>654.0</ele><time>2026-03-28T07:50:07.482Z</time></trkpt><trkpt lat="40.87748" lon="15.016575"><ele>654.0</ele><time>2026-03-28T07:50:08.482Z</time></trkpt><trkpt lat="40.8774117" lon="15.0167933"><ele>654.0</ele><time>2026-03-28T07:50:09.483Z</time></trkpt><trkpt lat="40.8773467" lon="15.0170083"><ele>650.6666666666666</ele><time>2026-03-28T07:50:10.482Z</time></trkpt><trkpt lat="40.87727" lon="15.0172217"><ele>647.3333333333333</ele><time>2026-03-28T07:50:11.483Z</time></trkpt><trkpt lat="40.8771967" lon="15.0174367"><ele>644.0</ele><time>2026-03-28T07:50:12.483Z</time></trkpt><trkpt lat="40.8771183" lon="15.0176383"><ele>639.0</ele><time>2026-03-28T07:50:13.482Z</time></trkpt><trkpt lat="40.8770467" lon="15.0178533"><ele>634.0</ele><time>2026-03-28T07:50:14.482Z</time></trkpt><trkpt lat="40.8769783" lon="15.0180683"><ele>629.0</ele><time>2026-03-28T07:50:15.483Z</time></trkpt><trkpt lat="40.876905" lon="15.018285"><ele>624.6666666666666</ele><time>2026-03-28T07:50:16.482Z</time></trkpt><trkpt lat="40.8768317" lon="15.0185117"><ele>620.3333333333334</ele><time>2026-03-28T07:50:17.483Z</time></trkpt><trkpt lat="40.876755" lon="15.018735"><ele>616.0</ele><time>2026-03-28T07:50:18.483Z</time></trkpt><trkpt lat="40.875125" lon="15.020435"><ele>625.3333333333334</ele><time>2026-03-28T07:50:29.481Z</time></trkpt><trkpt lat="40.8749417" lon="15.02053"><ele>634.6666666666666</ele><time>2026-03-28T07:50:30.481Z</time></trkpt><trkpt lat="40.874755" lon="15.0206167"><ele>644.0</ele><time>2026-03-28T07:50:31.481Z</time></trkpt><trkpt lat="40.874565" lon="15.0206967"><ele>644.0</ele><time>2026-03-28T07:50:32.481Z</time></trkpt><trkpt lat="40.8743833" lon="15.0207883"><ele>644.0</ele><time>2026-03-28T07:50:33.48Z</time></trkpt><trkpt lat="40.8742133" lon="15.02087"><ele>644.0</ele><time>2026-03-28T07:50:34.481Z</time></trkpt><trkpt lat="40.8740467" lon="15.0209467"><ele>636.0</ele><time>2026-03-28T07:50:35.48Z</time></trkpt><trkpt lat="40.8738783" lon="15.0210283"><ele>628.0</ele><time>2026-03-28T07:50:36.48Z</time></trkpt><trkpt lat="40.8737" lon="15.0211117"><ele>620.0</ele><time>2026-03-28T07:50:37.48Z</time></trkpt><trkpt lat="40.8735217" lon="15.0211867"><ele>616.6666666666666</ele><time>2026-03-28T07:50:38.481Z</time></trkpt><trkpt lat="40.87335" lon="15.0212717"><ele>613.3333333333334</ele><time>2026-03-28T07:50:39.48Z</time></trkpt><trkpt lat="40.8731783" lon="15.0213517"><ele>610.0</ele><time>2026-03-28T07:50:40.481Z</time></trkpt><trkpt lat="40.8729983" lon="15.021435"><ele>610.0</ele><time>2026-03-28T07:50:41.481Z</time></trkpt><trkpt lat="40.87282" lon="15.02152"><ele>610.0</ele><time>2026-03-28T07:50:42.481Z</time></trkpt><trkpt lat="40.8726383" lon="15.0215967"><ele>610.0</ele><time>2026-03-28T07:50:43.48Z</time></trkpt><trkpt lat="40.8724533" lon="15.0216717"><ele>600.0</ele><time>2026-03-28T07:50:44.481Z</time></trkpt><trkpt lat="40.8722667" lon="15.021745"><ele>590.0</ele><time>2026-03-28T07:50:45.48Z</time></trkpt><trkpt lat="40.8720783" lon="15.0218167"><ele>580.0</ele><time>2026-03-28T07:50:46.48Z</time></trkpt><trkpt lat="40.8718883" lon="15.0218783"><ele>588.6666666666667</ele><time>2026-03-28T07:50:47.481Z</time></trkpt><trkpt lat="40.8716883" lon="15.0219417"><ele>597.3333333333334</ele><time>2026-03-28T07:50:48.48Z</time></trkpt><trkpt lat="40.8714833" lon="15.0220083"><ele>606.0</ele><time>2026-03-28T07:50:49.481Z</time></trkpt><trkpt lat="40.8712683" lon="15.0220733"><ele>606.0</ele><time>2026-03-28T07:50:50.48Z</time></trkpt><trkpt lat="40.8710567" lon="15.0221317"><ele>606.0</ele><time>2026-03-28T07:50:51.48Z</time></trkpt><trkpt lat="40.8708467" lon="15.0221983"><ele>606.0</ele><time>2026-03-28T07:50:52.48Z</time></trkpt><trkpt lat="40.8706383" lon="15.0222483"><ele>613.0</ele><time>2026-03-28T07:50:53.481Z</time></trkpt><trkpt lat="40.87044" lon="15.0223017"><ele>620.0</ele><time>2026-03-28T07:50:54.481Z</time></trkpt><trkpt lat="40.8702367" lon="15.0223583"><ele>627.0</ele><time>2026-03-28T07:50:55.481Z</time></trkpt><trkpt lat="40.8700383" lon="15.0224133"><ele>630.0</ele><time>2026-03-28T07:50:56.48Z</time></trkpt><trkpt lat="40.8698433" lon="15.0224667"><ele>633.0</ele><time>2026-03-28T07:50:57.481Z</time></trkpt><trkpt lat="40.8696483" lon="15.0225117"><ele>636.0</ele><time>2026-03-28T07:50:58.481Z</time></trkpt><trkpt lat="40.8694517" lon="15.0225567"><ele>618.3333333333334</ele><time>2026-03-28T07:50:59.481Z</time></trkpt><trkpt lat="40.8692683" lon="15.0225933"><ele>600.6666666666667</ele><time>2026-03-28T07:51:00.48Z</time></trkpt><trkpt lat="40.8690783" lon="15.022655"><ele>583.0</ele><time>2026-03-28T07:51:01.481Z</time></trkpt><trkpt lat="40.8688983" lon="15.0227133"><ele>583.0</ele><time>2026-03-28T07:51:02.48Z</time></trkpt><trkpt lat="40.868715" lon="15.0227883"><ele>583.0</ele><time>2026-03-28T07:51:03.48Z</time></trkpt><trkpt lat="40.8685383" lon="15.0228733"><ele>583.0</ele><time>2026-03-28T07:51:04.481Z</time></trkpt><trkpt lat="40.86836" lon="15.0229667"><ele>580.6666666666667</ele><time>2026-03-28T07:51:05.481Z</time></trkpt><trkpt lat="40.8681833" lon="15.0230867"><ele>578.3333333333334</ele><time>2026-03-28T07:51:06.481Z</time></trkpt><trkpt lat="40.86801" lon="15.0232167"><ele>576.0</ele><time>2026-03-28T07:51:07.481Z</time></trkpt><trkpt lat="40.86785" lon="15.0233517"><ele>575.6666666666666</ele><time>2026-03-28T07:51:08.48Z</time></trkpt><trkpt lat="40.8676983" lon="15.023505"><ele>575.3333333333333</ele><time>2026-03-28T07:51:09.481Z</time></trkpt><trkpt lat="40.86755" lon="15.02367"><ele>575.0</ele><time>2026-03-28T07:51:10.481Z</time></trkpt><trkpt lat="40.867395" lon="15.0238483"><ele>575.0</ele><time>2026-03-28T07:51:11.48Z</time></trkpt><trkpt lat="40.86725" lon="15.0240333"><ele>575.0</ele><time>2026-03-28T07:51:12.481Z</time></trkpt><trkpt lat="40.8671183" lon="15.024215"><ele>575.0</ele><time>2026-03-28T07:51:13.481Z</time></trkpt><trkpt lat="40.8669967" lon="15.0244033"><ele>575.0</ele><time>2026-03-28T07:51:14.48Z</time></trkpt><trkpt lat="40.8668667" lon="15.0246083"><ele>575.0</ele><time>2026-03-28T07:51:15.481Z</time></trkpt><trkpt lat="40.866725" lon="15.0248233"><ele>575.0</ele><time>2026-03-28T07:51:16.481Z</time></trkpt><trkpt lat="40.8665783" lon="15.0250133"><ele>573.3333333333333</ele><time>2026-03-28T07:51:17.481Z</time></trkpt><trkpt lat="40.8664333" lon="15.0251883"><ele>571.6666666666666</ele><time>2026-03-28T07:51:18.48Z</time></trkpt><trkpt lat="40.8662933" lon="15.02536"><ele>570.0</ele><time>2026-03-28T07:51:19.481Z</time></trkpt><trkpt lat="40.866155" lon="15.0255467"><ele>570.0</ele><time>2026-03-28T07:51:20.48Z</time></trkpt><trkpt lat="40.866015" lon="15.0257283"><ele>570.0</ele><time>2026-03-28T07:51:21.481Z</time></trkpt><trkpt lat="40.8658733" lon="15.025915"><ele>570.0</ele><time>2026-03-28T07:51:22.48Z</time></trkpt><trkpt lat="40.8657283" lon="15.0261"><ele>568.3333333333334</ele><time>2026-03-28T07:51:23.48Z</time></trkpt><trkpt lat="40.865585" lon="15.0262767"><ele>566.6666666666667</ele><time>2026-03-28T07:51:24.481Z</time></trkpt><trkpt lat="40.8654417" lon="15.02645"><ele>565.0</ele><time>2026-03-28T07:51:25.48Z</time></trkpt><trkpt lat="40.8652933" lon="15.0266183"><ele>564.0</ele><time>2026-03-28T07:51:26.481Z</time></trkpt><trkpt lat="40.8651367" lon="15.026795"><ele>563.0</ele><time>2026-03-28T07:51:27.481Z</time></trkpt><trkpt lat="40.86498" lon="15.0269567"><ele>562.0</ele><time>2026-03-28T07:51:28.48Z</time></trkpt><trkpt lat="40.8648183" lon="15.0271133"><ele>562.0</ele><time>2026-03-28T07:51:29.481Z</time></trkpt><trkpt lat="40.8646467" lon="15.02727"><ele>562.0</ele><time>2026-03-28T07:51:30.481Z</time></trkpt><trkpt lat="40.86448" lon="15.0274233"><ele>562.0</ele><time>2026-03-28T07:51:31.481Z</time></trkpt><trkpt lat="40.86432" lon="15.0275683"><ele>563.0</ele><time>2026-03-28T07:51:32.48Z</time></trkpt><trkpt lat="40.8641583" lon="15.0277117"><ele>564.0</ele><time>2026-03-28T07:51:33.481Z</time></trkpt><trkpt lat="40.8640017" lon="15.0278567"><ele>565.0</ele><time>2026-03-28T07:51:34.481Z</time></trkpt><trkpt lat="40.86385" lon="15.0280067"><ele>565.0</ele><time>2026-03-28T07:51:35.48Z</time></trkpt><trkpt lat="40.863695" lon="15.0281583"><ele>565.0</ele><time>2026-03-28T07:51:36.481Z</time></trkpt><trkpt lat="40.8635367" lon="15.028315"><ele>565.0</ele><time>2026-03-28T07:51:37.481Z</time></trkpt><trkpt lat="40.8633833" lon="15.0284667"><ele>561.3333333333334</ele><time>2026-03-28T07:51:38.48Z</time></trkpt><trkpt lat="40.8632333" lon="15.02862"><ele>557.6666666666666</ele><time>2026-03-28T07:51:39.48Z</time></trkpt><trkpt lat="40.863075" lon="15.02877"><ele>554.0</ele><time>2026-03-28T07:51:40.481Z</time></trkpt><trkpt lat="40.8629233" lon="15.028925"><ele>554.0</ele><time>2026-03-28T07:51:41.481Z</time></trkpt><trkpt lat="40.8627733" lon="15.0290883"><ele>554.0</ele><time>2026-03-28T07:51:42.481Z</time></trkpt><trkpt lat="40.8626283" lon="15.0292433"><ele>554.0</ele><time>2026-03-28T07:51:43.48Z</time></trkpt><trkpt lat="40.86249" lon="15.029405"><ele>551.3333333333333</ele><time>2026-03-28T07:51:44.481Z</time></trkpt><trkpt lat="40.86236" lon="15.029585"><ele>548.6666666666666</ele><time>2026-03-28T07:51:45.481Z</time></trkpt><trkpt lat="40.8622317" lon="15.029775"><ele>546.0</ele><time>2026-03-28T07:51:46.481Z</time></trkpt><trkpt lat="40.8621117" lon="15.029975"><ele>541.6666666666666</ele><time>2026-03-28T07:51:47.48Z</time></trkpt><trkpt lat="40.8619883" lon="15.0301817"><ele>537.3333333333333</ele><time>2026-03-28T07:51:48.481Z</time></trkpt><trkpt lat="40.8618783" lon="15.0304067"><ele>533.0</ele><time>2026-03-28T07:51:49.482Z</time></trkpt><trkpt lat="40.8617783" lon="15.03064"><ele>526.6666666666666</ele><time>2026-03-28T07:51:50.482Z</time></trkpt><trkpt lat="40.8616767" lon="15.0308683"><ele>520.3333333333334</ele><time>2026-03-28T07:51:51.482Z</time></trkpt><trkpt lat="40.8615717" lon="15.0311167"><ele>514.0</ele><time>2026-03-28T07:51:52.482Z</time></trkpt><trkpt lat="40.86147" lon="15.0313633"><ele>514.0</ele><time>2026-03-28T07:51:53.482Z</time></trkpt><trkpt lat="40.8613683" lon="15.031615"><ele>514.0</ele><time>2026-03-28T07:51:54.482Z</time></trkpt><trkpt lat="40.86126" lon="15.0318617"><ele>514.0</ele><time>2026-03-28T07:51:55.482Z</time></trkpt><trkpt lat="40.8611517" lon="15.0321033"><ele>510.0</ele><time>2026-03-28T07:51:56.482Z</time></trkpt><trkpt lat="40.8610467" lon="15.03235"><ele>506.0</ele><time>2026-03-28T07:51:57.482Z</time></trkpt><trkpt lat="40.860945" lon="15.0325933"><ele>502.0</ele><time>2026-03-28T07:51:58.481Z</time></trkpt><trkpt lat="40.8608433" lon="15.032825"><ele>501.33333333333337</ele><time>2026-03-28T07:51:59.482Z</time></trkpt><trkpt lat="40.8607467" lon="15.0330517"><ele>500.66666666666663</ele><time>2026-03-28T07:52:00.481Z</time></trkpt><trkpt lat="40.8606517" lon="15.0332767"><ele>500.0</ele><time>2026-03-28T07:52:01.481Z</time></trkpt><trkpt lat="40.860555" lon="15.033505"><ele>500.0</ele><time>2026-03-28T07:52:02.482Z</time></trkpt><trkpt lat="40.8604617" lon="15.0337267"><ele>500.0</ele><time>2026-03-28T07:52:03.481Z</time></trkpt><trkpt lat="40.8603683" lon="15.0339583"><ele>500.0</ele><time>2026-03-28T07:52:04.482Z</time></trkpt><trkpt lat="40.860275" lon="15.03419"><ele>500.0</ele><time>2026-03-28T07:52:05.482Z</time></trkpt><trkpt lat="40.8601783" lon="15.03442"><ele>500.0</ele><time>2026-03-28T07:52:06.481Z</time></trkpt><trkpt lat="40.8600783" lon="15.0346517"><ele>500.0</ele><time>2026-03-28T07:52:07.482Z</time></trkpt><trkpt lat="40.8599833" lon="15.0348867"><ele>499.0</ele><time>2026-03-28T07:52:08.482Z</time></trkpt><trkpt lat="40.8598867" lon="15.035125"><ele>498.0</ele><time>2026-03-28T07:52:09.481Z</time></trkpt><trkpt lat="40.8598" lon="15.035355"><ele>497.0</ele><time>2026-03-28T07:52:10.481Z</time></trkpt><trkpt lat="40.8597183" lon="15.0355833"><ele>497.0</ele><time>2026-03-28T07:52:11.482Z</time></trkpt><trkpt lat="40.8596333" lon="15.0358067"><ele>497.0</ele><time>2026-03-28T07:52:12.482Z</time></trkpt><trkpt lat="40.8595433" lon="15.0360333"><ele>497.0</ele><time>2026-03-28T07:52:13.481Z</time></trkpt><trkpt lat="40.85945" lon="15.0362483"><ele>497.0</ele><time>2026-03-28T07:52:14.481Z</time></trkpt><trkpt lat="40.859355" lon="15.0364683"><ele>497.0</ele><time>2026-03-28T07:52:15.482Z</time></trkpt><trkpt lat="40.8592617" lon="15.0366933"><ele>497.0</ele><time>2026-03-28T07:52:16.482Z</time></trkpt><trkpt lat="40.8591733" lon="15.0369283"><ele>496.66666666666663</ele><time>2026-03-28T07:52:17.481Z</time></trkpt><trkpt lat="40.8590883" lon="15.03716"><ele>496.33333333333337</ele><time>2026-03-28T07:52:18.481Z</time></trkpt><trkpt lat="40.85901" lon="15.037395"><ele>496.0</ele><time>2026-03-28T07:52:19.482Z</time></trkpt><trkpt lat="40.8589367" lon="15.0376317"><ele>496.0</ele><time>2026-03-28T07:52:20.482Z</time></trkpt><trkpt lat="40.8588733" lon="15.0378733"><ele>496.0</ele><time>2026-03-28T07:52:21.481Z</time></trkpt><trkpt lat="40.8588133" lon="15.0381167"><ele>496.0</ele><time>2026-03-28T07:52:22.481Z</time></trkpt><trkpt lat="40.85876" lon="15.038365"><ele>495.6666666666667</ele><time>2026-03-28T07:52:23.482Z</time></trkpt><trkpt lat="40.8587183" lon="15.0386133"><ele>495.33333333333337</ele><time>2026-03-28T07:52:24.482Z</time></trkpt><trkpt lat="40.8586817" lon="15.03887"><ele>495.0</ele><time>2026-03-28T07:52:25.482Z</time></trkpt><trkpt lat="40.8586583" lon="15.0391367"><ele>494.0</ele><time>2026-03-28T07:52:26.482Z</time></trkpt><trkpt lat="40.8586383" lon="15.0394083"><ele>493.0</ele><time>2026-03-28T07:52:27.482Z</time></trkpt><trkpt lat="40.8586267" lon="15.0396833"><ele>492.0</ele><time>2026-03-28T07:52:28.482Z</time></trkpt><trkpt lat="40.8586217" lon="15.03995"><ele>492.0</ele><time>2026-03-28T07:52:29.481Z</time></trkpt><trkpt lat="40.85862" lon="15.04022"><ele>492.0</ele><time>2026-03-28T07:52:30.481Z</time></trkpt><trkpt lat="40.85863" lon="15.04049"><ele>492.0</ele><time>2026-03-28T07:52:31.482Z</time></trkpt><trkpt lat="40.8586433" lon="15.0407517"><ele>492.66666666666663</ele><time>2026-03-28T07:52:32.482Z</time></trkpt><trkpt lat="40.8586583" lon="15.0410117"><ele>493.3333333333333</ele><time>2026-03-28T07:52:33.482Z</time></trkpt><trkpt lat="40.8586733" lon="15.04127"><ele>494.0</ele><time>2026-03-28T07:52:34.482Z</time></trkpt><trkpt lat="40.8586833" lon="15.0415133"><ele>493.3333333333333</ele><time>2026-03-28T07:52:35.482Z</time></trkpt><trkpt lat="40.8586983" lon="15.04177"><ele>492.66666666666663</ele><time>2026-03-28T07:52:36.481Z</time></trkpt><trkpt lat="40.8587167" lon="15.042025"><ele>492.0</ele><time>2026-03-28T07:52:37.481Z</time></trkpt><trkpt lat="40.8587333" lon="15.0422817"><ele>490.66666666666663</ele><time>2026-03-28T07:52:38.481Z</time></trkpt><trkpt lat="40.858745" lon="15.0425383"><ele>489.3333333333333</ele><time>2026-03-28T07:52:39.482Z</time></trkpt><trkpt lat="40.8587583" lon="15.04279"><ele>488.0</ele><time>2026-03-28T07:52:40.482Z</time></trkpt><trkpt lat="40.85877" lon="15.0430233"><ele>488.0</ele><time>2026-03-28T07:52:41.482Z</time></trkpt><trkpt lat="40.8587833" lon="15.0432583"><ele>488.0</ele><time>2026-03-28T07:52:42.482Z</time></trkpt><trkpt lat="40.8588033" lon="15.0434833"><ele>488.0</ele><time>2026-03-28T07:52:43.481Z</time></trkpt><trkpt lat="40.8588267" lon="15.0437067"><ele>487.66666666666663</ele><time>2026-03-28T07:52:44.482Z</time></trkpt><trkpt lat="40.8588567" lon="15.043935"><ele>487.33333333333337</ele><time>2026-03-28T07:52:45.481Z</time></trkpt><trkpt lat="40.8589017" lon="15.0441667"><ele>487.0</ele><time>2026-03-28T07:52:46.482Z</time></trkpt><trkpt lat="40.8589517" lon="15.0444"><ele>486.6666666666667</ele><time>2026-03-28T07:52:47.482Z</time></trkpt><trkpt lat="40.8590117" lon="15.04463"><ele>486.33333333333337</ele><time>2026-03-28T07:52:48.482Z</time></trkpt><trkpt lat="40.859075" lon="15.0448567"><ele>486.0</ele><time>2026-03-28T07:52:49.482Z</time></trkpt><trkpt lat="40.85914" lon="15.0450767"><ele>485.66666666666663</ele><time>2026-03-28T07:52:50.482Z</time></trkpt><trkpt lat="40.8592167" lon="15.045295"><ele>485.3333333333333</ele><time>2026-03-28T07:52:51.481Z</time></trkpt><trkpt lat="40.8592967" lon="15.0455067"><ele>485.0</ele><time>2026-03-28T07:52:52.482Z</time></trkpt><trkpt lat="40.859385" lon="15.0457183"><ele>482.66666666666663</ele><time>2026-03-28T07:52:53.482Z</time></trkpt><trkpt lat="40.8594833" lon="15.0459233"><ele>480.33333333333337</ele><time>2026-03-28T07:52:54.482Z</time></trkpt><trkpt lat="40.8595783" lon="15.0461233"><ele>478.0</ele><time>2026-03-28T07:52:55.482Z</time></trkpt><trkpt lat="40.85968" lon="15.046315"><ele>478.0</ele><time>2026-03-28T07:52:56.482Z</time></trkpt><trkpt lat="40.8597833" lon="15.0464967"><ele>478.0</ele><time>2026-03-28T07:52:57.482Z</time></trkpt><trkpt lat="40.8598933" lon="15.0466817"><ele>478.0</ele><time>2026-03-28T07:52:58.481Z</time></trkpt><trkpt lat="40.8600117" lon="15.0468617"><ele>481.33333333333337</ele><time>2026-03-28T07:52:59.481Z</time></trkpt><trkpt lat="40.8601233" lon="15.04705"><ele>484.66666666666663</ele><time>2026-03-28T07:53:00.481Z</time></trkpt><trkpt lat="40.8602367" lon="15.0472383"><ele>488.0</ele><time>2026-03-28T07:53:01.481Z</time></trkpt><trkpt lat="40.8603517" lon="15.0474233"><ele>497.66666666666663</ele><time>2026-03-28T07:53:02.481Z</time></trkpt><trkpt lat="40.8604667" lon="15.0476167"><ele>507.33333333333337</ele><time>2026-03-28T07:53:03.481Z</time></trkpt><trkpt lat="40.8605767" lon="15.047815"><ele>517.0</ele><time>2026-03-28T07:53:04.481Z</time></trkpt><trkpt lat="40.8606983" lon="15.04801"><ele>517.0</ele><time>2026-03-28T07:53:05.482Z</time></trkpt><trkpt lat="40.86082" lon="15.0482"><ele>517.0</ele><time>2026-03-28T07:53:06.481Z</time></trkpt><trkpt lat="40.8609367" lon="15.0484017"><ele>517.0</ele><time>2026-03-28T07:53:07.482Z</time></trkpt><trkpt lat="40.8610583" lon="15.0485983"><ele>526.3333333333334</ele><time>2026-03-28T07:53:08.481Z</time></trkpt><trkpt lat="40.86118" lon="15.0487967"><ele>535.6666666666666</ele><time>2026-03-28T07:53:09.481Z</time></trkpt><trkpt lat="40.8613033" lon="15.0489933"><ele>545.0</ele><time>2026-03-28T07:53:10.481Z</time></trkpt><trkpt lat="40.8614217" lon="15.04918"><ele>545.0</ele><time>2026-03-28T07:53:11.482Z</time></trkpt><trkpt lat="40.8615333" lon="15.04937"><ele>545.0</ele><time>2026-03-28T07:53:12.482Z</time></trkpt><trkpt lat="40.8616333" lon="15.0495567"><ele>545.0</ele><time>2026-03-28T07:53:13.482Z</time></trkpt><trkpt lat="40.861725" lon="15.0497533"><ele>544.6666666666666</ele><time>2026-03-28T07:53:14.482Z</time></trkpt><trkpt lat="40.8618183" lon="15.0499517"><ele>544.3333333333334</ele><time>2026-03-28T07:53:15.482Z</time></trkpt><trkpt lat="40.8619083" lon="15.05016"><ele>544.0</ele><time>2026-03-28T07:53:16.482Z</time></trkpt><trkpt lat="40.861975" lon="15.0503767"><ele>544.0</ele><time>2026-03-28T07:53:17.482Z</time></trkpt><trkpt lat="40.8620467" lon="15.0506"><ele>544.0</ele><time>2026-03-28T07:53:18.481Z</time></trkpt><trkpt lat="40.862105" lon="15.0508183"><ele>544.0</ele><time>2026-03-28T07:53:19.482Z</time></trkpt><trkpt lat="40.862155" lon="15.0510333"><ele>545.6666666666667</ele><time>2026-03-28T07:53:20.481Z</time></trkpt><trkpt lat="40.8621917" lon="15.0512417"><ele>547.3333333333334</ele><time>2026-03-28T07:53:21.481Z</time></trkpt><trkpt lat="40.862225" lon="15.0514517"><ele>549.0</ele><time>2026-03-28T07:53:22.482Z</time></trkpt><trkpt lat="40.862255" lon="15.0516667"><ele>550.0</ele><time>2026-03-28T07:53:23.482Z</time></trkpt><trkpt lat="40.8622833" lon="15.0518967"><ele>551.0</ele><time>2026-03-28T07:53:24.482Z</time></trkpt><trkpt lat="40.862305" lon="15.0521317"><ele>552.0</ele><time>2026-03-28T07:53:25.482Z</time></trkpt><trkpt lat="40.86231" lon="15.0523783"><ele>552.6666666666666</ele><time>2026-03-28T07:53:26.482Z</time></trkpt><trkpt lat="40.862305" lon="15.052635"><ele>553.3333333333333</ele><time>2026-03-28T07:53:27.482Z</time></trkpt><trkpt lat="40.8622983" lon="15.0528933"><ele>554.0</ele><time>2026-03-28T07:53:28.481Z</time></trkpt><trkpt lat="40.8622733" lon="15.0531483"><ele>553.6666666666666</ele><time>2026-03-28T07:53:29.481Z</time></trkpt><trkpt lat="40.8622283" lon="15.0534"><ele>553.3333333333334</ele><time>2026-03-28T07:53:30.482Z</time></trkpt><trkpt lat="40.862185" lon="15.0536517"><ele>553.0</ele><time>2026-03-28T07:53:31.481Z</time></trkpt><trkpt lat="40.8621367" lon="15.0539033"><ele>554.3333333333334</ele><time>2026-03-28T07:53:32.482Z</time></trkpt><trkpt lat="40.8620833" lon="15.05415"><ele>555.6666666666666</ele><time>2026-03-28T07:53:33.481Z</time></trkpt><trkpt lat="40.8620217" lon="15.0544017"><ele>557.0</ele><time>2026-03-28T07:53:34.481Z</time></trkpt><trkpt lat="40.86196" lon="15.05465"><ele>557.0</ele><time>2026-03-28T07:53:35.481Z</time></trkpt><trkpt lat="40.8618983" lon="15.0548883"><ele>557.0</ele><time>2026-03-28T07:53:36.482Z</time></trkpt><trkpt lat="40.8618417" lon="15.0551183"><ele>557.0</ele><time>2026-03-28T07:53:37.482Z</time></trkpt><trkpt lat="40.8617883" lon="15.055355"><ele>557.0</ele><time>2026-03-28T07:53:38.482Z</time></trkpt><trkpt lat="40.861745" lon="15.055585"><ele>557.0</ele><time>2026-03-28T07:53:39.482Z</time></trkpt><trkpt lat="40.8617033" lon="15.0558133"><ele>557.0</ele><time>2026-03-28T07:53:40.482Z</time></trkpt><trkpt lat="40.8616633" lon="15.056045"><ele>559.3333333333333</ele><time>2026-03-28T07:53:41.482Z</time></trkpt><trkpt lat="40.8616233" lon="15.0562783"><ele>561.6666666666666</ele><time>2026-03-28T07:53:42.481Z</time></trkpt><trkpt lat="40.86158" lon="15.056515"><ele>564.0</ele><time>2026-03-28T07:53:43.482Z</time></trkpt><trkpt lat="40.8615367" lon="15.056745"><ele>565.3333333333334</ele><time>2026-03-28T07:53:44.482Z</time></trkpt><trkpt lat="40.861505" lon="15.0569567"><ele>566.6666666666667</ele><time>2026-03-28T07:53:45.482Z</time></trkpt><trkpt lat="40.8614667" lon="15.0571683"><ele>568.0</ele><time>2026-03-28T07:53:46.481Z</time></trkpt><trkpt lat="40.8614233" lon="15.0573833"><ele>569.6666666666667</ele><time>2026-03-28T07:53:47.481Z</time></trkpt><trkpt lat="40.8613867" lon="15.05761"><ele>571.3333333333334</ele><time>2026-03-28T07:53:48.482Z</time></trkpt><trkpt lat="40.8613483" lon="15.0578333"><ele>573.0</ele><time>2026-03-28T07:53:49.481Z</time></trkpt><trkpt lat="40.8613067" lon="15.0580633"><ele>576.0</ele><time>2026-03-28T07:53:50.481Z</time></trkpt><trkpt lat="40.8612717" lon="15.058295"><ele>579.0</ele><time>2026-03-28T07:53:51.481Z</time></trkpt><trkpt lat="40.861235" lon="15.0585267"><ele>582.0</ele><time>2026-03-28T07:53:52.482Z</time></trkpt><trkpt lat="40.8612" lon="15.0587633"><ele>582.0</ele><time>2026-03-28T07:53:53.481Z</time></trkpt><trkpt lat="40.861165" lon="15.0589983"><ele>582.0</ele><time>2026-03-28T07:53:54.482Z</time></trkpt><trkpt lat="40.8611317" lon="15.0592383"><ele>582.0</ele><time>2026-03-28T07:53:55.481Z</time></trkpt><trkpt lat="40.8610917" lon="15.0594833"><ele>582.0</ele><time>2026-03-28T07:53:56.482Z</time></trkpt><trkpt lat="40.8610533" lon="15.0597333"><ele>582.0</ele><time>2026-03-28T07:53:57.482Z</time></trkpt><trkpt lat="40.86101" lon="15.0599833"><ele>582.0</ele><time>2026-03-28T07:53:58.482Z</time></trkpt><trkpt lat="40.8609717" lon="15.0602333"><ele>575.6666666666666</ele><time>2026-03-28T07:53:59.481Z</time></trkpt><trkpt lat="40.8609333" lon="15.0604817"><ele>569.3333333333333</ele><time>2026-03-28T07:54:00.481Z</time></trkpt><trkpt lat="40.860895" lon="15.0607217"><ele>563.0</ele><time>2026-03-28T07:54:01.482Z</time></trkpt><trkpt lat="40.86086" lon="15.0609633"><ele>562.0</ele><time>2026-03-28T07:54:02.481Z</time></trkpt><trkpt lat="40.860825" lon="15.0611983"><ele>561.0</ele><time>2026-03-28T07:54:03.481Z</time></trkpt><trkpt lat="40.8607867" lon="15.06144"><ele>560.0</ele><time>2026-03-28T07:54:04.482Z</time></trkpt><trkpt lat="40.8607483" lon="15.061685"><ele>564.6666666666666</ele><time>2026-03-28T07:54:05.481Z</time></trkpt><trkpt lat="40.8607083" lon="15.0619267"><ele>569.3333333333334</ele><time>2026-03-28T07:54:06.482Z</time></trkpt><trkpt lat="40.8606683" lon="15.06218"><ele>574.0</ele><time>2026-03-28T07:54:07.482Z</time></trkpt><trkpt lat="40.8606283" lon="15.0624317"><ele>579.0</ele><time>2026-03-28T07:54:08.481Z</time></trkpt><trkpt lat="40.8605883" lon="15.0626867"><ele>584.0</ele><time>2026-03-28T07:54:09.481Z</time></trkpt><trkpt lat="40.8605467" lon="15.0629467"><ele>589.0</ele><time>2026-03-28T07:54:10.482Z</time></trkpt><trkpt lat="40.86051" lon="15.0632"><ele>592.0</ele><time>2026-03-28T07:54:11.482Z</time></trkpt><trkpt lat="40.8604683" lon="15.0634467"><ele>595.0</ele><time>2026-03-28T07:54:12.481Z</time></trkpt><trkpt lat="40.8604283" lon="15.0636867"><ele>598.0</ele><time>2026-03-28T07:54:13.482Z</time></trkpt><trkpt lat="40.86039" lon="15.063935"><ele>602.0</ele><time>2026-03-28T07:54:14.482Z</time></trkpt><trkpt lat="40.86035" lon="15.0641833"><ele>606.0</ele><time>2026-03-28T07:54:15.481Z</time></trkpt><trkpt lat="40.8603183" lon="15.0644267"><ele>610.0</ele><time>2026-03-28T07:54:16.481Z</time></trkpt><trkpt lat="40.8602867" lon="15.0646717"><ele>610.0</ele><time>2026-03-28T07:54:17.482Z</time></trkpt><trkpt lat="40.8602583" lon="15.0649133"><ele>610.0</ele><time>2026-03-28T07:54:18.481Z</time></trkpt><trkpt lat="40.8602433" lon="15.0651617"><ele>610.0</ele><time>2026-03-28T07:54:19.481Z</time></trkpt><trkpt lat="40.8602317" lon="15.0654033"><ele>613.3333333333334</ele><time>2026-03-28T07:54:20.482Z</time></trkpt><trkpt lat="40.860225" lon="15.06564"><ele>616.6666666666666</ele><time>2026-03-28T07:54:21.481Z</time></trkpt><trkpt lat="40.8602267" lon="15.0658733"><ele>620.0</ele><time>2026-03-28T07:54:22.481Z</time></trkpt><trkpt lat="40.8602467" lon="15.0661133"><ele>619.3333333333333</ele><time>2026-03-28T07:54:23.481Z</time></trkpt><trkpt lat="40.8602633" lon="15.0663583"><ele>618.6666666666666</ele><time>2026-03-28T07:54:24.481Z</time></trkpt><trkpt lat="40.860295" lon="15.066605"><ele>618.0</ele><time>2026-03-28T07:54:25.482Z</time></trkpt><trkpt lat="40.860335" lon="15.06685"><ele>618.0</ele><time>2026-03-28T07:54:26.482Z</time></trkpt><trkpt lat="40.8603717" lon="15.0670983"><ele>618.0</ele><time>2026-03-28T07:54:27.482Z</time></trkpt><trkpt lat="40.8604133" lon="15.06734"><ele>618.0</ele><time>2026-03-28T07:54:28.481Z</time></trkpt><trkpt lat="40.86045" lon="15.06758"><ele>618.0</ele><time>2026-03-28T07:54:29.482Z</time></trkpt><trkpt lat="40.8604867" lon="15.067815"><ele>618.0</ele><time>2026-03-28T07:54:30.482Z</time></trkpt><trkpt lat="40.8605283" lon="15.0680483"><ele>618.0</ele><time>2026-03-28T07:54:31.481Z</time></trkpt><trkpt lat="40.86057" lon="15.0682817"><ele>619.3333333333334</ele><time>2026-03-28T07:54:32.481Z</time></trkpt><trkpt lat="40.86061" lon="15.0685083"><ele>620.6666666666667</ele><time>2026-03-28T07:54:33.482Z</time></trkpt><trkpt lat="40.8606483" lon="15.0687367"><ele>622.0</ele><time>2026-03-28T07:54:34.482Z</time></trkpt><trkpt lat="40.8606967" lon="15.0689633"><ele>623.6666666666667</ele><time>2026-03-28T07:54:35.482Z</time></trkpt><trkpt lat="40.860735" lon="15.06919"><ele>625.3333333333334</ele><time>2026-03-28T07:54:36.482Z</time></trkpt><trkpt lat="40.8607767" lon="15.069415"><ele>627.0</ele><time>2026-03-28T07:54:37.482Z</time></trkpt><trkpt lat="40.8608233" lon="15.0696417"><ele>627.0</ele><time>2026-03-28T07:54:38.481Z</time></trkpt><trkpt lat="40.8608783" lon="15.0698583"><ele>627.0</ele><time>2026-03-28T07:54:39.481Z</time></trkpt><trkpt lat="40.860945" lon="15.07009"><ele>627.0</ele><time>2026-03-28T07:54:40.481Z</time></trkpt><trkpt lat="40.8610083" lon="15.07031"><ele>632.0</ele><time>2026-03-28T07:54:41.482Z</time></trkpt><trkpt lat="40.8610833" lon="15.070515"><ele>637.0</ele><time>2026-03-28T07:54:42.482Z</time></trkpt><trkpt lat="40.8611667" lon="15.0707233"><ele>642.0</ele><time>2026-03-28T07:54:43.481Z</time></trkpt><trkpt lat="40.86126" lon="15.0709267"><ele>642.0</ele><time>2026-03-28T07:54:44.481Z</time></trkpt><trkpt lat="40.86136" lon="15.0711317"><ele>642.0</ele><time>2026-03-28T07:54:45.482Z</time></trkpt><trkpt lat="40.8614717" lon="15.0713417"><ele>642.0</ele><time>2026-03-28T07:54:46.482Z</time></trkpt><trkpt lat="40.86158" lon="15.0715517"><ele>639.0</ele><time>2026-03-28T07:54:47.482Z</time></trkpt><trkpt lat="40.86169" lon="15.0717583"><ele>636.0</ele><time>2026-03-28T07:54:48.482Z</time></trkpt><trkpt lat="40.8617933" lon="15.0719633"><ele>633.0</ele><time>2026-03-28T07:54:49.481Z</time></trkpt><trkpt lat="40.861895" lon="15.0721783"><ele>637.3333333333334</ele><time>2026-03-28T07:54:50.481Z</time></trkpt><trkpt lat="40.861995" lon="15.0723967"><ele>641.6666666666667</ele><time>2026-03-28T07:54:51.482Z</time></trkpt><trkpt lat="40.8620883" lon="15.0726217"><ele>646.0</ele><time>2026-03-28T07:54:52.482Z</time></trkpt><trkpt lat="40.8621767" lon="15.0728467"><ele>646.0</ele><time>2026-03-28T07:54:53.482Z</time></trkpt><trkpt lat="40.8622583" lon="15.0730667"><ele>646.0</ele><time>2026-03-28T07:54:54.482Z</time></trkpt><trkpt lat="40.8623283" lon="15.0732767"><ele>646.0</ele><time>2026-03-28T07:54:55.481Z</time></trkpt><trkpt lat="40.8623967" lon="15.0734917"><ele>645.3333333333334</ele><time>2026-03-28T07:54:56.482Z</time></trkpt><trkpt lat="40.8624567" lon="15.0737133"><ele>644.6666666666666</ele><time>2026-03-28T07:54:57.482Z</time></trkpt><trkpt lat="40.8625117" lon="15.0739383"><ele>644.0</ele><time>2026-03-28T07:54:58.482Z</time></trkpt><trkpt lat="40.8625633" lon="15.0741617"><ele>650.0</ele><time>2026-03-28T07:54:59.481Z</time></trkpt><trkpt lat="40.86262" lon="15.0743867"><ele>656.0</ele><time>2026-03-28T07:55:00.482Z</time></trkpt><trkpt lat="40.8626817" lon="15.0746183"><ele>662.0</ele><time>2026-03-28T07:55:01.482Z</time></trkpt><trkpt lat="40.8627533" lon="15.07485"><ele>662.6666666666666</ele><time>2026-03-28T07:55:02.482Z</time></trkpt><trkpt lat="40.86283" lon="15.0750783"><ele>663.3333333333334</ele><time>2026-03-28T07:55:03.481Z</time></trkpt><trkpt lat="40.8629083" lon="15.075305"><ele>664.0</ele><time>2026-03-28T07:55:04.482Z</time></trkpt><trkpt lat="40.8629883" lon="15.075535"><ele>664.0</ele><time>2026-03-28T07:55:05.481Z</time></trkpt><trkpt lat="40.8630717" lon="15.07576"><ele>664.0</ele><time>2026-03-28T07:55:06.482Z</time></trkpt><trkpt lat="40.8631633" lon="15.0759817"><ele>664.0</ele><time>2026-03-28T07:55:07.482Z</time></trkpt><trkpt lat="40.8632617" lon="15.0762017"><ele>661.3333333333334</ele><time>2026-03-28T07:55:08.482Z</time></trkpt><trkpt lat="40.8633633" lon="15.0764217"><ele>658.6666666666666</ele><time>2026-03-28T07:55:09.481Z</time></trkpt><trkpt lat="40.8634617" lon="15.0766483"><ele>656.0</ele><time>2026-03-28T07:55:10.481Z</time></trkpt><trkpt lat="40.8635567" lon="15.0768633"><ele>658.6666666666666</ele><time>2026-03-28T07:55:11.481Z</time></trkpt><trkpt lat="40.86365" lon="15.0770717"><ele>661.3333333333334</ele><time>2026-03-28T07:55:12.482Z</time></trkpt><trkpt lat="40.86375" lon="15.0772733"><ele>664.0</ele><time>2026-03-28T07:55:13.481Z</time></trkpt><trkpt lat="40.8638417" lon="15.07748"><ele>664.0</ele><time>2026-03-28T07:55:14.481Z</time></trkpt><trkpt lat="40.8639517" lon="15.0776867"><ele>664.0</ele><time>2026-03-28T07:55:15.481Z</time></trkpt><trkpt lat="40.8640683" lon="15.0778733"><ele>664.0</ele><time>2026-03-28T07:55:16.482Z</time></trkpt><trkpt lat="40.8641917" lon="15.0780583"><ele>662.3333333333334</ele><time>2026-03-28T07:55:17.481Z</time></trkpt><trkpt lat="40.8643267" lon="15.0782433"><ele>660.6666666666666</ele><time>2026-03-28T07:55:18.481Z</time></trkpt><trkpt lat="40.86447" lon="15.0784167"><ele>659.0</ele><time>2026-03-28T07:55:19.481Z</time></trkpt><trkpt lat="40.8646167" lon="15.0785767"><ele>659.0</ele><time>2026-03-28T07:55:20.482Z</time></trkpt><trkpt lat="40.8647667" lon="15.0787283"><ele>659.0</ele><time>2026-03-28T07:55:21.482Z</time></trkpt><trkpt lat="40.8649183" lon="15.0788767"><ele>659.0</ele><time>2026-03-28T07:55:22.481Z</time></trkpt><trkpt lat="40.86507" lon="15.079015"><ele>661.6666666666666</ele><time>2026-03-28T07:55:23.482Z</time></trkpt><trkpt lat="40.865225" lon="15.0791467"><ele>664.3333333333334</ele><time>2026-03-28T07:55:24.481Z</time></trkpt><trkpt lat="40.86538" lon="15.0792733"><ele>667.0</ele><time>2026-03-28T07:55:25.481Z</time></trkpt><trkpt lat="40.86554" lon="15.0794"><ele>667.0</ele><time>2026-03-28T07:55:26.481Z</time></trkpt><trkpt lat="40.8657" lon="15.079525"><ele>667.0</ele><time>2026-03-28T07:55:27.482Z</time></trkpt><trkpt lat="40.8658583" lon="15.0796567"><ele>667.0</ele><time>2026-03-28T07:55:28.482Z</time></trkpt><trkpt lat="40.8660233" lon="15.0797967"><ele>670.6666666666667</ele><time>2026-03-28T07:55:29.481Z</time></trkpt><trkpt lat="40.866195" lon="15.0799283"><ele>674.3333333333334</ele><time>2026-03-28T07:55:30.481Z</time></trkpt><trkpt lat="40.8663633" lon="15.0800633"><ele>678.0</ele><time>2026-03-28T07:55:31.481Z</time></trkpt><trkpt lat="40.8665233" lon="15.0801967"><ele>678.0</ele><time>2026-03-28T07:55:32.482Z</time></trkpt><trkpt lat="40.8666833" lon="15.080325"><ele>678.0</ele><time>2026-03-28T07:55:33.481Z</time></trkpt><trkpt lat="40.8668317" lon="15.08045"><ele>678.0</ele><time>2026-03-28T07:55:34.482Z</time></trkpt><trkpt lat="40.8669783" lon="15.0805733"><ele>684.0</ele><time>2026-03-28T07:55:35.482Z</time></trkpt><trkpt lat="40.8671317" lon="15.0806967"><ele>690.0</ele><time>2026-03-28T07:55:36.481Z</time></trkpt><trkpt lat="40.8686817" lon="15.0827333"><ele>682.3333333333334</ele><time>2026-03-28T07:55:48.48Z</time></trkpt><trkpt lat="40.8687767" lon="15.0829333"><ele>674.6666666666667</ele><time>2026-03-28T07:55:49.479Z</time></trkpt><trkpt lat="40.868855" lon="15.0831433"><ele>667.0</ele><time>2026-03-28T07:55:50.479Z</time></trkpt><trkpt lat="40.86894" lon="15.0833583"><ele>667.0</ele><time>2026-03-28T07:55:51.48Z</time></trkpt><trkpt lat="40.8690083" lon="15.0835783"><ele>667.0</ele><time>2026-03-28T07:55:52.48Z</time></trkpt><trkpt lat="40.8690767" lon="15.0838033"><ele>667.0</ele><time>2026-03-28T07:55:53.48Z</time></trkpt><trkpt lat="40.8691383" lon="15.0840367"><ele>665.0</ele><time>2026-03-28T07:55:54.479Z</time></trkpt><trkpt lat="40.869195" lon="15.0842767"><ele>663.0</ele><time>2026-03-28T07:55:55.479Z</time></trkpt><trkpt lat="40.8692383" lon="15.0845167"><ele>661.0</ele><time>2026-03-28T07:55:56.48Z</time></trkpt><trkpt lat="40.8692767" lon="15.0847533"><ele>664.0</ele><time>2026-03-28T07:55:57.479Z</time></trkpt><trkpt lat="40.8693133" lon="15.0849933"><ele>667.0</ele><time>2026-03-28T07:55:58.48Z</time></trkpt><trkpt lat="40.8693483" lon="15.0852367"><ele>670.0</ele><time>2026-03-28T07:55:59.479Z</time></trkpt><trkpt lat="40.86938" lon="15.0854767"><ele>670.0</ele><time>2026-03-28T07:56:00.48Z</time></trkpt><trkpt lat="40.869415" lon="15.0857117"><ele>670.0</ele><time>2026-03-28T07:56:01.48Z</time></trkpt><trkpt lat="40.8694483" lon="15.0859633"><ele>670.0</ele><time>2026-03-28T07:56:02.479Z</time></trkpt><trkpt lat="40.8694867" lon="15.086205"><ele>670.6666666666667</ele><time>2026-03-28T07:56:03.479Z</time></trkpt><trkpt lat="40.8695183" lon="15.0864383"><ele>671.3333333333334</ele><time>2026-03-28T07:56:04.48Z</time></trkpt><trkpt lat="40.8695583" lon="15.0866717"><ele>672.0</ele><time>2026-03-28T07:56:05.48Z</time></trkpt><trkpt lat="40.8695917" lon="15.0869"><ele>672.0</ele><time>2026-03-28T07:56:06.479Z</time></trkpt><trkpt lat="40.86963" lon="15.087135"><ele>672.0</ele><time>2026-03-28T07:56:07.48Z</time></trkpt><trkpt lat="40.86966" lon="15.0873633"><ele>672.0</ele><time>2026-03-28T07:56:08.479Z</time></trkpt><trkpt lat="40.869695" lon="15.0876"><ele>671.6666666666666</ele><time>2026-03-28T07:56:09.48Z</time></trkpt><trkpt lat="40.8697317" lon="15.0878383"><ele>671.3333333333333</ele><time>2026-03-28T07:56:10.48Z</time></trkpt><trkpt lat="40.8697667" lon="15.0880733"><ele>671.0</ele><time>2026-03-28T07:56:11.48Z</time></trkpt><trkpt lat="40.8698083" lon="15.0883033"><ele>672.3333333333333</ele><time>2026-03-28T07:56:12.479Z</time></trkpt><trkpt lat="40.8698533" lon="15.0885233"><ele>673.6666666666666</ele><time>2026-03-28T07:56:13.481Z</time></trkpt><trkpt lat="40.86991" lon="15.0887483"><ele>675.0</ele><time>2026-03-28T07:56:14.48Z</time></trkpt><trkpt lat="40.86997" lon="15.0889767"><ele>673.6666666666666</ele><time>2026-03-28T07:56:15.481Z</time></trkpt><trkpt lat="40.8700417" lon="15.089195"><ele>672.3333333333333</ele><time>2026-03-28T07:56:16.481Z</time></trkpt><trkpt lat="40.8701183" lon="15.0894183"><ele>671.0</ele><time>2026-03-28T07:56:17.481Z</time></trkpt><trkpt lat="40.8701967" lon="15.0896383"><ele>671.0</ele><time>2026-03-28T07:56:18.48Z</time></trkpt><trkpt lat="40.8702833" lon="15.0898517"><ele>671.0</ele><time>2026-03-28T07:56:19.48Z</time></trkpt><trkpt lat="40.8703683" lon="15.0900633"><ele>671.0</ele><time>2026-03-28T07:56:20.48Z</time></trkpt><trkpt lat="40.8704567" lon="15.09028"><ele>672.6666666666666</ele><time>2026-03-28T07:56:21.481Z</time></trkpt><trkpt lat="40.87054" lon="15.0904833"><ele>674.3333333333334</ele><time>2026-03-28T07:56:22.481Z</time></trkpt><trkpt lat="40.8706283" lon="15.0906817"><ele>676.0</ele><time>2026-03-28T07:56:23.481Z</time></trkpt><trkpt lat="40.8707233" lon="15.090885"><ele>678.0</ele><time>2026-03-28T07:56:24.481Z</time></trkpt><trkpt lat="40.870815" lon="15.0910933"><ele>680.0</ele><time>2026-03-28T07:56:25.481Z</time></trkpt><trkpt lat="40.870915" lon="15.0913067"><ele>682.0</ele><time>2026-03-28T07:56:26.481Z</time></trkpt><trkpt lat="40.871015" lon="15.09152"><ele>679.3333333333334</ele><time>2026-03-28T07:56:27.48Z</time></trkpt><trkpt lat="40.8711117" lon="15.0917367"><ele>676.6666666666666</ele><time>2026-03-28T07:56:28.481Z</time></trkpt><trkpt lat="40.8712083" lon="15.0919533"><ele>674.0</ele><time>2026-03-28T07:56:29.481Z</time></trkpt><trkpt lat="40.8713067" lon="15.09217"><ele>674.0</ele><time>2026-03-28T07:56:30.48Z</time></trkpt><trkpt lat="40.8714017" lon="15.0923883"><ele>674.0</ele><time>2026-03-28T07:56:31.481Z</time></trkpt><trkpt lat="40.8714917" lon="15.0925917"><ele>674.0</ele><time>2026-03-28T07:56:32.48Z</time></trkpt><trkpt lat="40.871585" lon="15.09279"><ele>675.3333333333333</ele><time>2026-03-28T07:56:33.48Z</time></trkpt><trkpt lat="40.871675" lon="15.0929933"><ele>676.6666666666666</ele><time>2026-03-28T07:56:34.481Z</time></trkpt><trkpt lat="40.8717633" lon="15.093205"><ele>678.0</ele><time>2026-03-28T07:56:35.481Z</time></trkpt><trkpt lat="40.8718333" lon="15.09343"><ele>675.3333333333334</ele><time>2026-03-28T07:56:36.481Z</time></trkpt><trkpt lat="40.8718933" lon="15.0936483"><ele>672.6666666666667</ele><time>2026-03-28T07:56:37.48Z</time></trkpt><trkpt lat="40.8719433" lon="15.0938717"><ele>670.0</ele><time>2026-03-28T07:56:38.481Z</time></trkpt><trkpt lat="40.8719833" lon="15.094095"><ele>670.0</ele><time>2026-03-28T07:56:39.481Z</time></trkpt><trkpt lat="40.8720083" lon="15.09432"><ele>670.0</ele><time>2026-03-28T07:56:40.48Z</time></trkpt><trkpt lat="40.8720267" lon="15.094545"><ele>670.0</ele><time>2026-03-28T07:56:41.481Z</time></trkpt><trkpt lat="40.8720367" lon="15.0947683"><ele>670.6666666666667</ele><time>2026-03-28T07:56:42.48Z</time></trkpt><trkpt lat="40.8720333" lon="15.0949783"><ele>671.3333333333334</ele><time>2026-03-28T07:56:43.481Z</time></trkpt><trkpt lat="40.8720183" lon="15.0951917"><ele>672.0</ele><time>2026-03-28T07:56:44.48Z</time></trkpt><trkpt lat="40.8719883" lon="15.09541"><ele>672.0</ele><time>2026-03-28T07:56:45.481Z</time></trkpt><trkpt lat="40.8719533" lon="15.0956283"><ele>672.0</ele><time>2026-03-28T07:56:46.481Z</time></trkpt><trkpt lat="40.871905" lon="15.0958467"><ele>672.0</ele><time>2026-03-28T07:56:47.48Z</time></trkpt><trkpt lat="40.8718483" lon="15.0960667"><ele>672.3333333333334</ele><time>2026-03-28T07:56:48.481Z</time></trkpt><trkpt lat="40.8717817" lon="15.0962917"><ele>672.6666666666667</ele><time>2026-03-28T07:56:49.481Z</time></trkpt><trkpt lat="40.8717117" lon="15.096515"><ele>673.0</ele><time>2026-03-28T07:56:50.48Z</time></trkpt><trkpt lat="40.8716383" lon="15.0967383"><ele>674.6666666666667</ele><time>2026-03-28T07:56:51.48Z</time></trkpt><trkpt lat="40.87157" lon="15.0969533"><ele>676.3333333333334</ele><time>2026-03-28T07:56:52.481Z</time></trkpt><trkpt lat="40.8715" lon="15.0971633"><ele>678.0</ele><time>2026-03-28T07:56:53.481Z</time></trkpt><trkpt lat="40.871435" lon="15.09738"><ele>677.0</ele><time>2026-03-28T07:56:54.48Z</time></trkpt><trkpt lat="40.8713683" lon="15.0975983"><ele>676.0</ele><time>2026-03-28T07:56:55.481Z</time></trkpt><trkpt lat="40.8712983" lon="15.0978183"><ele>675.0</ele><time>2026-03-28T07:56:56.481Z</time></trkpt><trkpt lat="40.8712267" lon="15.0980383"><ele>675.0</ele><time>2026-03-28T07:56:57.481Z</time></trkpt><trkpt lat="40.8711583" lon="15.09825"><ele>675.0</ele><time>2026-03-28T07:56:58.481Z</time></trkpt><trkpt lat="40.871095" lon="15.0984567"><ele>675.0</ele><time>2026-03-28T07:56:59.481Z</time></trkpt><trkpt lat="40.8710283" lon="15.0986733"><ele>674.6666666666666</ele><time>2026-03-28T07:57:00.48Z</time></trkpt><trkpt lat="40.8709583" lon="15.0988917"><ele>674.3333333333333</ele><time>2026-03-28T07:57:01.481Z</time></trkpt><trkpt lat="40.8708917" lon="15.0991117"><ele>674.0</ele><time>2026-03-28T07:57:02.48Z</time></trkpt><trkpt lat="40.87082" lon="15.0993383"><ele>673.6666666666666</ele><time>2026-03-28T07:57:03.481Z</time></trkpt><trkpt lat="40.8707533" lon="15.0995683"><ele>673.3333333333334</ele><time>2026-03-28T07:57:04.48Z</time></trkpt><trkpt lat="40.8706717" lon="15.0998117"><ele>673.0</ele><time>2026-03-28T07:57:05.48Z</time></trkpt><trkpt lat="40.8706067" lon="15.1000433"><ele>671.6666666666667</ele><time>2026-03-28T07:57:06.48Z</time></trkpt><trkpt lat="40.8705333" lon="15.1002733"><ele>670.3333333333334</ele><time>2026-03-28T07:57:07.48Z</time></trkpt><trkpt lat="40.870465" lon="15.1004967"><ele>669.0</ele><time>2026-03-28T07:57:08.481Z</time></trkpt><trkpt lat="40.8703933" lon="15.1007183"><ele>668.3333333333334</ele><time>2026-03-28T07:57:09.481Z</time></trkpt><trkpt lat="40.8703267" lon="15.1009467"><ele>667.6666666666667</ele><time>2026-03-28T07:57:10.48Z</time></trkpt><trkpt lat="40.8702567" lon="15.1011733"><ele>667.0</ele><time>2026-03-28T07:57:11.48Z</time></trkpt><trkpt lat="40.8701817" lon="15.1014033"><ele>667.3333333333334</ele><time>2026-03-28T07:57:12.48Z</time></trkpt><trkpt lat="40.8701117" lon="15.1016233"><ele>667.6666666666666</ele><time>2026-03-28T07:57:13.481Z</time></trkpt><trkpt lat="40.8700517" lon="15.1018483"><ele>668.0</ele><time>2026-03-28T07:57:14.481Z</time></trkpt><trkpt lat="40.8700033" lon="15.102075"><ele>664.3333333333333</ele><time>2026-03-28T07:57:15.48Z</time></trkpt><trkpt lat="40.869955" lon="15.1023033"><ele>660.6666666666666</ele><time>2026-03-28T07:57:16.481Z</time></trkpt><trkpt lat="40.8699133" lon="15.10254"><ele>657.0</ele><time>2026-03-28T07:57:17.481Z</time></trkpt><trkpt lat="40.8698767" lon="15.10278"><ele>656.6666666666666</ele><time>2026-03-28T07:57:18.48Z</time></trkpt><trkpt lat="40.8698433" lon="15.1030283"><ele>656.3333333333333</ele><time>2026-03-28T07:57:19.48Z</time></trkpt><trkpt lat="40.8698233" lon="15.1032783"><ele>656.0</ele><time>2026-03-28T07:57:20.481Z</time></trkpt><trkpt lat="40.869815" lon="15.103535"><ele>655.3333333333333</ele><time>2026-03-28T07:57:21.48Z</time></trkpt><trkpt lat="40.869805" lon="15.103795"><ele>654.6666666666666</ele><time>2026-03-28T07:57:22.48Z</time></trkpt><trkpt lat="40.8698017" lon="15.1040633"><ele>654.0</ele><time>2026-03-28T07:57:23.481Z</time></trkpt><trkpt lat="40.8698083" lon="15.1043233"><ele>652.3333333333334</ele><time>2026-03-28T07:57:24.48Z</time></trkpt><trkpt lat="40.86982" lon="15.1045817"><ele>650.6666666666667</ele><time>2026-03-28T07:57:25.481Z</time></trkpt><trkpt lat="40.8698383" lon="15.1048383"><ele>649.0</ele><time>2026-03-28T07:57:26.481Z</time></trkpt><trkpt lat="40.8698567" lon="15.1050917"><ele>647.3333333333334</ele><time>2026-03-28T07:57:27.481Z</time></trkpt><trkpt lat="40.8698783" lon="15.105345"><ele>645.6666666666666</ele><time>2026-03-28T07:57:28.48Z</time></trkpt><trkpt lat="40.8699017" lon="15.1055933"><ele>644.0</ele><time>2026-03-28T07:57:29.48Z</time></trkpt><trkpt lat="40.86992" lon="15.1058367"><ele>643.0</ele><time>2026-03-28T07:57:30.48Z</time></trkpt><trkpt lat="40.8699417" lon="15.1060783"><ele>642.0</ele><time>2026-03-28T07:57:31.48Z</time></trkpt><trkpt lat="40.86996" lon="15.1063217"><ele>641.0</ele><time>2026-03-28T07:57:32.481Z</time></trkpt><trkpt lat="40.8699767" lon="15.1065733"><ele>640.6666666666666</ele><time>2026-03-28T07:57:33.48Z</time></trkpt><trkpt lat="40.869995" lon="15.1068267"><ele>640.3333333333334</ele><time>2026-03-28T07:57:34.481Z</time></trkpt><trkpt lat="40.87001" lon="15.10708"><ele>640.0</ele><time>2026-03-28T07:57:35.48Z</time></trkpt><trkpt lat="40.8700283" lon="15.10734"><ele>639.0</ele><time>2026-03-28T07:57:36.481Z</time></trkpt><trkpt lat="40.8700467" lon="15.1076033"><ele>638.0</ele><time>2026-03-28T07:57:37.48Z</time></trkpt><trkpt lat="40.8700667" lon="15.10786"><ele>637.0</ele><time>2026-03-28T07:57:38.481Z</time></trkpt><trkpt lat="40.87008" lon="15.1081133"><ele>636.6666666666667</ele><time>2026-03-28T07:57:39.481Z</time></trkpt><trkpt lat="40.8701" lon="15.1083667"><ele>636.3333333333334</ele><time>2026-03-28T07:57:40.481Z</time></trkpt><trkpt lat="40.8701217" lon="15.1086183"><ele>636.0</ele><time>2026-03-28T07:57:41.48Z</time></trkpt><trkpt lat="40.8701383" lon="15.1088717"><ele>636.0</ele><time>2026-03-28T07:57:42.48Z</time></trkpt><trkpt lat="40.87016" lon="15.1091283"><ele>636.0</ele><time>2026-03-28T07:57:43.481Z</time></trkpt><trkpt lat="40.8701783" lon="15.1093933"><ele>636.0</ele><time>2026-03-28T07:57:44.481Z</time></trkpt><trkpt lat="40.8701983" lon="15.1096583"><ele>635.3333333333334</ele><time>2026-03-28T07:57:45.481Z</time></trkpt><trkpt lat="40.8702167" lon="15.1099267"><ele>634.6666666666667</ele><time>2026-03-28T07:57:46.481Z</time></trkpt><trkpt lat="40.8702333" lon="15.1101967"><ele>634.0</ele><time>2026-03-28T07:57:47.481Z</time></trkpt><trkpt lat="40.87025" lon="15.1104617"><ele>634.0</ele><time>2026-03-28T07:57:48.481Z</time></trkpt><trkpt lat="40.8702667" lon="15.1107167"><ele>634.0</ele><time>2026-03-28T07:57:49.48Z</time></trkpt><trkpt lat="40.8702883" lon="15.1109683"><ele>634.0</ele><time>2026-03-28T07:57:50.48Z</time></trkpt><trkpt lat="40.8703083" lon="15.1112317"><ele>632.6666666666667</ele><time>2026-03-28T07:57:51.481Z</time></trkpt><trkpt lat="40.8703233" lon="15.1114917"><ele>631.3333333333334</ele><time>2026-03-28T07:57:52.48Z</time></trkpt><trkpt lat="40.8703417" lon="15.111755"><ele>630.0</ele><time>2026-03-28T07:57:53.48Z</time></trkpt><trkpt lat="40.8703583" lon="15.1120117"><ele>629.6666666666666</ele><time>2026-03-28T07:57:54.481Z</time></trkpt><trkpt lat="40.87038" lon="15.11227"><ele>629.3333333333333</ele><time>2026-03-28T07:57:55.48Z</time></trkpt><trkpt lat="40.8703983" lon="15.1125233"><ele>629.0</ele><time>2026-03-28T07:57:56.48Z</time></trkpt><trkpt lat="40.8704217" lon="15.1127817"><ele>629.0</ele><time>2026-03-28T07:57:57.48Z</time></trkpt><trkpt lat="40.8704383" lon="15.1130367"><ele>629.0</ele><time>2026-03-28T07:57:58.481Z</time></trkpt><trkpt lat="40.870455" lon="15.11329"><ele>629.0</ele><time>2026-03-28T07:57:59.481Z</time></trkpt><trkpt lat="40.8704717" lon="15.1135467"><ele>629.0</ele><time>2026-03-28T07:58:00.481Z</time></trkpt><trkpt lat="40.8704883" lon="15.1138033"><ele>629.0</ele><time>2026-03-28T07:58:01.481Z</time></trkpt><trkpt lat="40.8705167" lon="15.1140517"><ele>629.0</ele><time>2026-03-28T07:58:02.481Z</time></trkpt><trkpt lat="40.8705517" lon="15.1143"><ele>627.6666666666666</ele><time>2026-03-28T07:58:03.48Z</time></trkpt><trkpt lat="40.87059" lon="15.1145367"><ele>626.3333333333334</ele><time>2026-03-28T07:58:04.48Z</time></trkpt><trkpt lat="40.8706383" lon="15.1147617"><ele>625.0</ele><time>2026-03-28T07:58:05.48Z</time></trkpt><trkpt lat="40.8706983" lon="15.1149783"><ele>623.0</ele><time>2026-03-28T07:58:06.48Z</time></trkpt><trkpt lat="40.8707583" lon="15.1151817"><ele>621.0</ele><time>2026-03-28T07:58:07.481Z</time></trkpt><trkpt lat="40.8708267" lon="15.1153883"><ele>619.0</ele><time>2026-03-28T07:58:08.48Z</time></trkpt><trkpt lat="40.8709033" lon="15.1156"><ele>621.3333333333334</ele><time>2026-03-28T07:58:09.481Z</time></trkpt><trkpt lat="40.8709917" lon="15.1158183"><ele>623.6666666666666</ele><time>2026-03-28T07:58:10.481Z</time></trkpt><trkpt lat="40.8710917" lon="15.1160367"><ele>626.0</ele><time>2026-03-28T07:58:11.481Z</time></trkpt><trkpt lat="40.8712" lon="15.1162533"><ele>626.0</ele><time>2026-03-28T07:58:12.48Z</time></trkpt><trkpt lat="40.8713133" lon="15.1164517"><ele>626.0</ele><time>2026-03-28T07:58:13.481Z</time></trkpt><trkpt lat="40.8714367" lon="15.11665"><ele>626.0</ele><time>2026-03-28T07:58:14.48Z</time></trkpt><trkpt lat="40.871565" lon="15.11684"><ele>627.3333333333333</ele><time>2026-03-28T07:58:15.481Z</time></trkpt><trkpt lat="40.8716983" lon="15.1170217"><ele>628.6666666666666</ele><time>2026-03-28T07:58:16.481Z</time></trkpt><trkpt lat="40.871835" lon="15.1171917"><ele>630.0</ele><time>2026-03-28T07:58:17.481Z</time></trkpt><trkpt lat="40.8719783" lon="15.1173433"><ele>628.0</ele><time>2026-03-28T07:58:18.481Z</time></trkpt><trkpt lat="40.8721283" lon="15.1175"><ele>626.0</ele><time>2026-03-28T07:58:19.481Z</time></trkpt><trkpt lat="40.8722733" lon="15.1176517"><ele>624.0</ele><time>2026-03-28T07:58:20.481Z</time></trkpt><trkpt lat="40.872415" lon="15.117815"><ele>624.0</ele><time>2026-03-28T07:58:21.48Z</time></trkpt><trkpt lat="40.8725633" lon="15.1179783"><ele>624.0</ele><time>2026-03-28T07:58:22.48Z</time></trkpt><trkpt lat="40.8727" lon="15.1181317"><ele>624.0</ele><time>2026-03-28T07:58:23.481Z</time></trkpt><trkpt lat="40.8728333" lon="15.11828"><ele>622.3333333333334</ele><time>2026-03-28T07:58:24.48Z</time></trkpt><trkpt lat="40.87297" lon="15.118435"><ele>620.6666666666667</ele><time>2026-03-28T07:58:25.48Z</time></trkpt><trkpt lat="40.8731033" lon="15.1185933"><ele>619.0</ele><time>2026-03-28T07:58:26.481Z</time></trkpt><trkpt lat="40.8732367" lon="15.1187567"><ele>619.0</ele><time>2026-03-28T07:58:27.48Z</time></trkpt><trkpt lat="40.8733733" lon="15.118915"><ele>619.0</ele><time>2026-03-28T07:58:28.481Z</time></trkpt><trkpt lat="40.8735133" lon="15.1190717"><ele>619.0</ele><time>2026-03-28T07:58:29.48Z</time></trkpt><trkpt lat="40.8736533" lon="15.1192333"><ele>617.6666666666667</ele><time>2026-03-28T07:58:30.481Z</time></trkpt><trkpt lat="40.8737917" lon="15.1193967"><ele>616.3333333333334</ele><time>2026-03-28T07:58:31.481Z</time></trkpt><trkpt lat="40.8739317" lon="15.119565"><ele>615.0</ele><time>2026-03-28T07:58:32.48Z</time></trkpt><trkpt lat="40.8740767" lon="15.1197333"><ele>614.3333333333334</ele><time>2026-03-28T07:58:33.481Z</time></trkpt><trkpt lat="40.87422" lon="15.1199117"><ele>613.6666666666667</ele><time>2026-03-28T07:58:34.48Z</time></trkpt><trkpt lat="40.8743583" lon="15.120095"><ele>613.0</ele><time>2026-03-28T07:58:35.48Z</time></trkpt><trkpt lat="40.8744833" lon="15.1202817"><ele>614.3333333333334</ele><time>2026-03-28T07:58:36.48Z</time></trkpt><trkpt lat="40.8745933" lon="15.120475"><ele>615.6666666666666</ele><time>2026-03-28T07:58:37.48Z</time></trkpt><trkpt lat="40.8746967" lon="15.120675"><ele>617.0</ele><time>2026-03-28T07:58:38.48Z</time></trkpt><trkpt lat="40.87479" lon="15.1208783"><ele>617.0</ele><time>2026-03-28T07:58:39.48Z</time></trkpt><trkpt lat="40.87488" lon="15.1210883"><ele>617.0</ele><time>2026-03-28T07:58:40.48Z</time></trkpt><trkpt lat="40.87496" lon="15.1213067"><ele>617.0</ele><time>2026-03-28T07:58:41.481Z</time></trkpt><trkpt lat="40.8750417" lon="15.1215167"><ele>618.3333333333333</ele><time>2026-03-28T07:58:42.481Z</time></trkpt><trkpt lat="40.87512" lon="15.1217317"><ele>619.6666666666666</ele><time>2026-03-28T07:58:43.48Z</time></trkpt><trkpt lat="40.8752017" lon="15.121935"><ele>621.0</ele><time>2026-03-28T07:58:44.481Z</time></trkpt><trkpt lat="40.8752817" lon="15.1221433"><ele>621.0</ele><time>2026-03-28T07:58:45.481Z</time></trkpt><trkpt lat="40.8753667" lon="15.1223583"><ele>621.0</ele><time>2026-03-28T07:58:46.481Z</time></trkpt><trkpt lat="40.8754467" lon="15.1225733"><ele>621.0</ele><time>2026-03-28T07:58:47.481Z</time></trkpt><trkpt lat="40.8755283" lon="15.122785"><ele>618.6666666666666</ele><time>2026-03-28T07:58:48.48Z</time></trkpt><trkpt lat="40.8756083" lon="15.1229917"><ele>616.3333333333333</ele><time>2026-03-28T07:58:49.48Z</time></trkpt><trkpt lat="40.87569" lon="15.1231967"><ele>614.0</ele><time>2026-03-28T07:58:50.481Z</time></trkpt><trkpt lat="40.8757667" lon="15.1234133"><ele>615.3333333333333</ele><time>2026-03-28T07:58:51.481Z</time></trkpt><trkpt lat="40.8758467" lon="15.1236233"><ele>616.6666666666666</ele><time>2026-03-28T07:58:52.481Z</time></trkpt><trkpt lat="40.8759267" lon="15.1238283"><ele>618.0</ele><time>2026-03-28T07:58:53.48Z</time></trkpt><trkpt lat="40.87599" lon="15.1240467"><ele>616.3333333333334</ele><time>2026-03-28T07:58:54.481Z</time></trkpt><trkpt lat="40.8760417" lon="15.124275"><ele>614.6666666666667</ele><time>2026-03-28T07:58:55.481Z</time></trkpt><trkpt lat="40.8760817" lon="15.1245133"><ele>613.0</ele><time>2026-03-28T07:58:56.481Z</time></trkpt><trkpt lat="40.8761083" lon="15.1247567"><ele>610.0</ele><time>2026-03-28T07:58:57.48Z</time></trkpt><trkpt lat="40.876125" lon="15.125005"><ele>607.0</ele><time>2026-03-28T07:58:58.481Z</time></trkpt><trkpt lat="40.876125" lon="15.1252517"><ele>604.0</ele><time>2026-03-28T07:58:59.481Z</time></trkpt><trkpt lat="40.8761167" lon="15.1254983"><ele>601.3333333333334</ele><time>2026-03-28T07:59:00.481Z</time></trkpt><trkpt lat="40.8760983" lon="15.1257383"><ele>598.6666666666666</ele><time>2026-03-28T07:59:01.481Z</time></trkpt><trkpt lat="40.87607" lon="15.125975"><ele>596.0</ele><time>2026-03-28T07:59:02.481Z</time></trkpt><trkpt lat="40.87603" lon="15.1262133"><ele>596.0</ele><time>2026-03-28T07:59:03.481Z</time></trkpt><trkpt lat="40.875985" lon="15.126455"><ele>596.0</ele><time>2026-03-28T07:59:04.481Z</time></trkpt><trkpt lat="40.8759417" lon="15.1266983"><ele>596.0</ele><time>2026-03-28T07:59:05.481Z</time></trkpt><trkpt lat="40.8758933" lon="15.1269367"><ele>593.6666666666666</ele><time>2026-03-28T07:59:06.481Z</time></trkpt><trkpt lat="40.8758483" lon="15.1271717"><ele>591.3333333333334</ele><time>2026-03-28T07:59:07.481Z</time></trkpt><trkpt lat="40.875805" lon="15.1274117"><ele>589.0</ele><time>2026-03-28T07:59:08.481Z</time></trkpt><trkpt lat="40.8757567" lon="15.1276533"><ele>589.0</ele><time>2026-03-28T07:59:09.481Z</time></trkpt><trkpt lat="40.875715" lon="15.1279017"><ele>589.0</ele><time>2026-03-28T07:59:10.481Z</time></trkpt><trkpt lat="40.8756717" lon="15.1281483"><ele>589.0</ele><time>2026-03-28T07:59:11.481Z</time></trkpt><trkpt lat="40.8756217" lon="15.1283883"><ele>588.3333333333334</ele><time>2026-03-28T07:59:12.481Z</time></trkpt><trkpt lat="40.8755767" lon="15.12863"><ele>587.6666666666666</ele><time>2026-03-28T07:59:13.481Z</time></trkpt><trkpt lat="40.8755433" lon="15.1288683"><ele>587.0</ele><time>2026-03-28T07:59:14.48Z</time></trkpt><trkpt lat="40.8755183" lon="15.12911"><ele>586.3333333333333</ele><time>2026-03-28T07:59:15.48Z</time></trkpt><trkpt lat="40.8755067" lon="15.1293433"><ele>585.6666666666666</ele><time>2026-03-28T07:59:16.481Z</time></trkpt><trkpt lat="40.8755083" lon="15.1295867"><ele>585.0</ele><time>2026-03-28T07:59:17.48Z</time></trkpt><trkpt lat="40.8755217" lon="15.1298283"><ele>585.0</ele><time>2026-03-28T07:59:18.481Z</time></trkpt><trkpt lat="40.8755467" lon="15.130065"><ele>585.0</ele><time>2026-03-28T07:59:19.48Z</time></trkpt><trkpt lat="40.8755783" lon="15.130305"><ele>585.0</ele><time>2026-03-28T07:59:20.48Z</time></trkpt><trkpt lat="40.875625" lon="15.1305433"><ele>585.0</ele><time>2026-03-28T07:59:21.481Z</time></trkpt><trkpt lat="40.8756867" lon="15.130775"><ele>585.0</ele><time>2026-03-28T07:59:22.481Z</time></trkpt><trkpt lat="40.875755" lon="15.1310017"><ele>585.0</ele><time>2026-03-28T07:59:23.48Z</time></trkpt><trkpt lat="40.8758367" lon="15.1312183"><ele>585.0</ele><time>2026-03-28T07:59:24.481Z</time></trkpt><trkpt lat="40.8759283" lon="15.131425"><ele>585.0</ele><time>2026-03-28T07:59:25.48Z</time></trkpt><trkpt lat="40.8760233" lon="15.131625"><ele>585.0</ele><time>2026-03-28T07:59:26.481Z</time></trkpt><trkpt lat="40.8761317" lon="15.1318267"><ele>584.6666666666666</ele><time>2026-03-28T07:59:27.481Z</time></trkpt><trkpt lat="40.8762417" lon="15.1320217"><ele>584.3333333333333</ele><time>2026-03-28T07:59:28.481Z</time></trkpt><trkpt lat="40.8763567" lon="15.1322133"><ele>584.0</ele><time>2026-03-28T07:59:29.481Z</time></trkpt><trkpt lat="40.8764667" lon="15.1324083"><ele>584.0</ele><time>2026-03-28T07:59:30.481Z</time></trkpt><trkpt lat="40.8765783" lon="15.1326067"><ele>584.0</ele><time>2026-03-28T07:59:31.48Z</time></trkpt><trkpt lat="40.8766917" lon="15.1327983"><ele>584.0</ele><time>2026-03-28T07:59:32.481Z</time></trkpt><trkpt lat="40.8767967" lon="15.1329883"><ele>583.6666666666666</ele><time>2026-03-28T07:59:33.481Z</time></trkpt><trkpt lat="40.8769083" lon="15.133165"><ele>583.3333333333334</ele><time>2026-03-28T07:59:34.48Z</time></trkpt><trkpt lat="40.8770233" lon="15.1333467"><ele>583.0</ele><time>2026-03-28T07:59:35.48Z</time></trkpt><trkpt lat="40.87714" lon="15.1335367"><ele>582.0</ele><time>2026-03-28T07:59:36.48Z</time></trkpt><trkpt lat="40.877255" lon="15.1337333"><ele>581.0</ele><time>2026-03-28T07:59:37.481Z</time></trkpt><trkpt lat="40.8773683" lon="15.1339433"><ele>580.0</ele><time>2026-03-28T07:59:38.481Z</time></trkpt><trkpt lat="40.8774917" lon="15.1341467"><ele>579.6666666666667</ele><time>2026-03-28T07:59:39.48Z</time></trkpt><trkpt lat="40.877605" lon="15.1343533"><ele>579.3333333333334</ele><time>2026-03-28T07:59:40.481Z</time></trkpt><trkpt lat="40.8777233" lon="15.1345567"><ele>579.0</ele><time>2026-03-28T07:59:41.481Z</time></trkpt><trkpt lat="40.8778433" lon="15.1347567"><ele>578.3333333333334</ele><time>2026-03-28T07:59:42.481Z</time></trkpt><trkpt lat="40.8779633" lon="15.1349617"><ele>577.6666666666667</ele><time>2026-03-28T07:59:43.481Z</time></trkpt><trkpt lat="40.878075" lon="15.13517"><ele>577.0</ele><time>2026-03-28T07:59:44.481Z</time></trkpt><trkpt lat="40.878185" lon="15.13537"><ele>577.0</ele><time>2026-03-28T07:59:45.481Z</time></trkpt><trkpt lat="40.8783033" lon="15.1355667"><ele>577.0</ele><time>2026-03-28T07:59:46.481Z</time></trkpt><trkpt lat="40.87842" lon="15.1357633"><ele>577.0</ele><time>2026-03-28T07:59:47.481Z</time></trkpt><trkpt lat="40.8785333" lon="15.135965"><ele>575.0</ele><time>2026-03-28T07:59:48.481Z</time></trkpt><trkpt lat="40.8786483" lon="15.1361633"><ele>573.0</ele><time>2026-03-28T07:59:49.481Z</time></trkpt><trkpt lat="40.8787667" lon="15.13636"><ele>571.0</ele><time>2026-03-28T07:59:50.481Z</time></trkpt><trkpt lat="40.878885" lon="15.13656"><ele>570.6666666666667</ele><time>2026-03-28T07:59:51.481Z</time></trkpt><trkpt lat="40.8790017" lon="15.1367583"><ele>570.3333333333334</ele><time>2026-03-28T07:59:52.481Z</time></trkpt><trkpt lat="40.8791167" lon="15.136965"><ele>570.0</ele><time>2026-03-28T07:59:53.481Z</time></trkpt><trkpt lat="40.8792333" lon="15.1371683"><ele>570.3333333333334</ele><time>2026-03-28T07:59:54.48Z</time></trkpt><trkpt lat="40.8793483" lon="15.1373633"><ele>570.6666666666667</ele><time>2026-03-28T07:59:55.481Z</time></trkpt><trkpt lat="40.879465" lon="15.1375533"><ele>571.0</ele><time>2026-03-28T07:59:56.48Z</time></trkpt><trkpt lat="40.87958" lon="15.13775"><ele>570.3333333333334</ele><time>2026-03-28T07:59:57.481Z</time></trkpt><trkpt lat="40.8796967" lon="15.1379467"><ele>569.6666666666666</ele><time>2026-03-28T07:59:58.481Z</time></trkpt><trkpt lat="40.8798117" lon="15.13814"><ele>569.0</ele><time>2026-03-28T07:59:59.48Z</time></trkpt><trkpt lat="40.8799283" lon="15.1383417"><ele>569.0</ele><time>2026-03-28T08:00:00.481Z</time></trkpt><trkpt lat="40.8800467" lon="15.138545"><ele>569.0</ele><time>2026-03-28T08:00:01.481Z</time></trkpt><trkpt lat="40.8801633" lon="15.13875"><ele>569.0</ele><time>2026-03-28T08:00:02.481Z</time></trkpt><trkpt lat="40.88028" lon="15.138955"><ele>569.0</ele><time>2026-03-28T08:00:03.48Z</time></trkpt><trkpt lat="40.8803917" lon="15.1391567"><ele>569.0</ele><time>2026-03-28T08:00:04.481Z</time></trkpt><trkpt lat="40.8805067" lon="15.1393567"><ele>569.0</ele><time>2026-03-28T08:00:05.481Z</time></trkpt><trkpt lat="40.8806167" lon="15.13955"><ele>569.0</ele><time>2026-03-28T08:00:06.481Z</time></trkpt><trkpt lat="40.88073" lon="15.13975"><ele>569.0</ele><time>2026-03-28T08:00:07.481Z</time></trkpt><trkpt lat="40.88085" lon="15.1399533"><ele>569.0</ele><time>2026-03-28T08:00:08.48Z</time></trkpt><trkpt lat="40.88097" lon="15.1401533"><ele>569.0</ele><time>2026-03-28T08:00:09.48Z</time></trkpt><trkpt lat="40.881085" lon="15.1403517"><ele>569.0</ele><time>2026-03-28T08:00:10.481Z</time></trkpt><trkpt lat="40.8812" lon="15.1405517"><ele>569.0</ele><time>2026-03-28T08:00:11.481Z</time></trkpt><trkpt lat="40.8813167" lon="15.1407533"><ele>569.0</ele><time>2026-03-28T08:00:12.481Z</time></trkpt><trkpt lat="40.8814333" lon="15.140955"><ele>569.0</ele><time>2026-03-28T08:00:13.481Z</time></trkpt><trkpt lat="40.8815517" lon="15.1411567"><ele>569.0</ele><time>2026-03-28T08:00:14.48Z</time></trkpt><trkpt lat="40.88166" lon="15.1413517"><ele>569.3333333333333</ele><time>2026-03-28T08:00:15.481Z</time></trkpt><trkpt lat="40.8817667" lon="15.1415367"><ele>569.6666666666666</ele><time>2026-03-28T08:00:16.481Z</time></trkpt><trkpt lat="40.8818667" lon="15.14172"><ele>570.0</ele><time>2026-03-28T08:00:17.481Z</time></trkpt><trkpt lat="40.8819617" lon="15.1418867"><ele>573.0</ele><time>2026-03-28T08:00:18.481Z</time></trkpt><trkpt lat="40.8820383" lon="15.1420617"><ele>576.0</ele><time>2026-03-28T08:00:19.48Z</time></trkpt><trkpt lat="40.88211" lon="15.1422467"><ele>579.0</ele><time>2026-03-28T08:00:20.481Z</time></trkpt><trkpt lat="40.8821867" lon="15.142435"><ele>581.0</ele><time>2026-03-28T08:00:21.481Z</time></trkpt><trkpt lat="40.8822417" lon="15.1426267"><ele>583.0</ele><time>2026-03-28T08:00:22.481Z</time></trkpt><trkpt lat="40.8822983" lon="15.142825"><ele>585.0</ele><time>2026-03-28T08:00:23.48Z</time></trkpt><trkpt lat="40.8823317" lon="15.1430317"><ele>584.6666666666666</ele><time>2026-03-28T08:00:24.481Z</time></trkpt><trkpt lat="40.8823583" lon="15.1432333"><ele>584.3333333333333</ele><time>2026-03-28T08:00:25.481Z</time></trkpt><trkpt lat="40.8823783" lon="15.143435"><ele>584.0</ele><time>2026-03-28T08:00:26.481Z</time></trkpt><trkpt lat="40.882385" lon="15.1436367"><ele>584.0</ele><time>2026-03-28T08:00:27.481Z</time></trkpt><trkpt lat="40.8823833" lon="15.1438383"><ele>584.0</ele><time>2026-03-28T08:00:28.48Z</time></trkpt><trkpt lat="40.882375" lon="15.144045"><ele>584.0</ele><time>2026-03-28T08:00:29.48Z</time></trkpt><trkpt lat="40.8823517" lon="15.1442517"><ele>584.0</ele><time>2026-03-28T08:00:30.48Z</time></trkpt><trkpt lat="40.8823283" lon="15.1444633"><ele>584.0</ele><time>2026-03-28T08:00:31.482Z</time></trkpt><trkpt lat="40.8822933" lon="15.1446767"><ele>584.0</ele><time>2026-03-28T08:00:32.481Z</time></trkpt><trkpt lat="40.8822517" lon="15.144895"><ele>586.0</ele><time>2026-03-28T08:00:33.482Z</time></trkpt><trkpt lat="40.8822067" lon="15.1451133"><ele>588.0</ele><time>2026-03-28T08:00:34.482Z</time></trkpt><trkpt lat="40.88216" lon="15.14533"><ele>590.0</ele><time>2026-03-28T08:00:35.482Z</time></trkpt><trkpt lat="40.882115" lon="15.14554"><ele>593.0</ele><time>2026-03-28T08:00:36.482Z</time></trkpt><trkpt lat="40.88207" lon="15.1457483"><ele>596.0</ele><time>2026-03-28T08:00:37.482Z</time></trkpt><trkpt lat="40.88202" lon="15.1459567"><ele>599.0</ele><time>2026-03-28T08:00:38.482Z</time></trkpt><trkpt lat="40.881975" lon="15.1461717"><ele>599.0</ele><time>2026-03-28T08:00:39.482Z</time></trkpt><trkpt lat="40.88193" lon="15.1463967"><ele>599.0</ele><time>2026-03-28T08:00:40.482Z</time></trkpt><trkpt lat="40.88189" lon="15.1466117"><ele>599.0</ele><time>2026-03-28T08:00:41.482Z</time></trkpt><trkpt lat="40.88185" lon="15.1468267"><ele>600.6666666666666</ele><time>2026-03-28T08:00:42.482Z</time></trkpt><trkpt lat="40.8818033" lon="15.147045"><ele>602.3333333333334</ele><time>2026-03-28T08:00:43.482Z</time></trkpt><trkpt lat="40.8817533" lon="15.1472633"><ele>604.0</ele><time>2026-03-28T08:00:44.481Z</time></trkpt><trkpt lat="40.8816967" lon="15.14748"><ele>605.0</ele><time>2026-03-28T08:00:45.482Z</time></trkpt><trkpt lat="40.8816333" lon="15.1477"><ele>606.0</ele><time>2026-03-28T08:00:46.482Z</time></trkpt><trkpt lat="40.88156" lon="15.147915"><ele>607.0</ele><time>2026-03-28T08:00:47.481Z</time></trkpt><trkpt lat="40.8814767" lon="15.148135"><ele>606.3333333333334</ele><time>2026-03-28T08:00:48.482Z</time></trkpt><trkpt lat="40.8813917" lon="15.1483617"><ele>605.6666666666666</ele><time>2026-03-28T08:00:49.482Z</time></trkpt><trkpt lat="40.8813017" lon="15.1485783"><ele>605.0</ele><time>2026-03-28T08:00:50.481Z</time></trkpt><trkpt lat="40.8812133" lon="15.1488017"><ele>605.0</ele><time>2026-03-28T08:00:51.482Z</time></trkpt><trkpt lat="40.8811267" lon="15.1490283"><ele>605.0</ele><time>2026-03-28T08:00:52.482Z</time></trkpt><trkpt lat="40.8810283" lon="15.1492567"><ele>605.0</ele><time>2026-03-28T08:00:53.481Z</time></trkpt><trkpt lat="40.88095" lon="15.1494833"><ele>605.3333333333333</ele><time>2026-03-28T08:00:54.481Z</time></trkpt><trkpt lat="40.8808767" lon="15.1497067"><ele>605.6666666666666</ele><time>2026-03-28T08:00:55.482Z</time></trkpt><trkpt lat="40.880785" lon="15.1499283"><ele>606.0</ele><time>2026-03-28T08:00:56.482Z</time></trkpt><trkpt lat="40.8807" lon="15.1501433"><ele>606.0</ele><time>2026-03-28T08:00:57.482Z</time></trkpt><trkpt lat="40.8806183" lon="15.1503483"><ele>606.0</ele><time>2026-03-28T08:00:58.481Z</time></trkpt><trkpt lat="40.8805383" lon="15.1505617"><ele>606.0</ele><time>2026-03-28T08:00:59.481Z</time></trkpt><trkpt lat="40.88045" lon="15.1507633"><ele>603.3333333333334</ele><time>2026-03-28T08:01:00.482Z</time></trkpt><trkpt lat="40.8803633" lon="15.150955"><ele>600.6666666666667</ele><time>2026-03-28T08:01:01.481Z</time></trkpt><trkpt lat="40.8802883" lon="15.1511483"><ele>598.0</ele><time>2026-03-28T08:01:02.482Z</time></trkpt><trkpt lat="40.8802083" lon="15.151335"><ele>598.0</ele><time>2026-03-28T08:01:03.482Z</time></trkpt><trkpt lat="40.88013" lon="15.151525"><ele>598.0</ele><time>2026-03-28T08:01:04.482Z</time></trkpt><trkpt lat="40.8800517" lon="15.1517217"><ele>598.0</ele><time>2026-03-28T08:01:05.482Z</time></trkpt><trkpt lat="40.8799717" lon="15.1519267"><ele>596.6666666666667</ele><time>2026-03-28T08:01:06.482Z</time></trkpt><trkpt lat="40.8798917" lon="15.1521333"><ele>595.3333333333334</ele><time>2026-03-28T08:01:07.481Z</time></trkpt><trkpt lat="40.8798133" lon="15.1523383"><ele>594.0</ele><time>2026-03-28T08:01:08.482Z</time></trkpt><trkpt lat="40.87974" lon="15.152545"><ele>590.6666666666666</ele><time>2026-03-28T08:01:09.482Z</time></trkpt><trkpt lat="40.8796533" lon="15.1527583"><ele>587.3333333333333</ele><time>2026-03-28T08:01:10.482Z</time></trkpt><trkpt lat="40.8795617" lon="15.1529817"><ele>584.0</ele><time>2026-03-28T08:01:11.482Z</time></trkpt><trkpt lat="40.8794717" lon="15.15321"><ele>583.6666666666666</ele><time>2026-03-28T08:01:12.482Z</time></trkpt><trkpt lat="40.8793817" lon="15.1534367"><ele>583.3333333333334</ele><time>2026-03-28T08:01:13.481Z</time></trkpt><trkpt lat="40.87929" lon="15.1536667"><ele>583.0</ele><time>2026-03-28T08:01:14.482Z</time></trkpt><trkpt lat="40.8791983" lon="15.1538983"><ele>580.3333333333334</ele><time>2026-03-28T08:01:15.482Z</time></trkpt><trkpt lat="40.87911" lon="15.1541233"><ele>577.6666666666666</ele><time>2026-03-28T08:01:16.481Z</time></trkpt><trkpt lat="40.8790283" lon="15.15434"><ele>575.0</ele><time>2026-03-28T08:01:17.482Z</time></trkpt><trkpt lat="40.8789467" lon="15.15455"><ele>575.0</ele><time>2026-03-28T08:01:18.482Z</time></trkpt><trkpt lat="40.8788617" lon="15.154755"><ele>575.0</ele><time>2026-03-28T08:01:19.482Z</time></trkpt><trkpt lat="40.8787817" lon="15.1549683"><ele>575.0</ele><time>2026-03-28T08:01:20.482Z</time></trkpt><trkpt lat="40.8787083" lon="15.1551833"><ele>574.3333333333333</ele><time>2026-03-28T08:01:21.481Z</time></trkpt><trkpt lat="40.8786433" lon="15.1554"><ele>573.6666666666666</ele><time>2026-03-28T08:01:22.481Z</time></trkpt><trkpt lat="40.8785817" lon="15.1556217"><ele>573.0</ele><time>2026-03-28T08:01:23.482Z</time></trkpt><trkpt lat="40.8785283" lon="15.1558467"><ele>573.0</ele><time>2026-03-28T08:01:24.482Z</time></trkpt><trkpt lat="40.8784883" lon="15.1560767"><ele>573.0</ele><time>2026-03-28T08:01:25.481Z</time></trkpt><trkpt lat="40.878445" lon="15.156315"><ele>573.0</ele><time>2026-03-28T08:01:26.482Z</time></trkpt><trkpt lat="40.878415" lon="15.1565667"><ele>574.6666666666666</ele><time>2026-03-28T08:01:27.481Z</time></trkpt><trkpt lat="40.8783833" lon="15.1568267"><ele>576.3333333333333</ele><time>2026-03-28T08:01:28.481Z</time></trkpt><trkpt lat="40.8783583" lon="15.1570883"><ele>578.0</ele><time>2026-03-28T08:01:29.481Z</time></trkpt><trkpt lat="40.8783467" lon="15.1573517"><ele>575.3333333333333</ele><time>2026-03-28T08:01:30.481Z</time></trkpt><trkpt lat="40.8783433" lon="15.1576117"><ele>572.6666666666666</ele><time>2026-03-28T08:01:31.482Z</time></trkpt><trkpt lat="40.87835" lon="15.1578633"><ele>570.0</ele><time>2026-03-28T08:01:32.481Z</time></trkpt><trkpt lat="40.8783583" lon="15.1581133"><ele>568.0</ele><time>2026-03-28T08:01:33.481Z</time></trkpt><trkpt lat="40.8783717" lon="15.1583683"><ele>566.0</ele><time>2026-03-28T08:01:34.481Z</time></trkpt><trkpt lat="40.8784" lon="15.158615"><ele>564.0</ele><time>2026-03-28T08:01:35.481Z</time></trkpt><trkpt lat="40.8784417" lon="15.158855"><ele>562.3333333333334</ele><time>2026-03-28T08:01:36.482Z</time></trkpt><trkpt lat="40.87848" lon="15.15909"><ele>560.6666666666667</ele><time>2026-03-28T08:01:37.481Z</time></trkpt><trkpt lat="40.8785317" lon="15.159325"><ele>559.0</ele><time>2026-03-28T08:01:38.481Z</time></trkpt><trkpt lat="40.8785933" lon="15.1595517"><ele>559.0</ele><time>2026-03-28T08:01:39.482Z</time></trkpt><trkpt lat="40.878655" lon="15.1597767"><ele>559.0</ele><time>2026-03-28T08:01:40.482Z</time></trkpt><trkpt lat="40.8787233" lon="15.1599983"><ele>559.0</ele><time>2026-03-28T08:01:41.481Z</time></trkpt><trkpt lat="40.8787917" lon="15.1602217"><ele>559.6666666666667</ele><time>2026-03-28T08:01:42.481Z</time></trkpt><trkpt lat="40.8788667" lon="15.1604483"><ele>560.3333333333334</ele><time>2026-03-28T08:01:43.482Z</time></trkpt><trkpt lat="40.8789383" lon="15.16067"><ele>561.0</ele><time>2026-03-28T08:01:44.481Z</time></trkpt><trkpt lat="40.8790117" lon="15.1608967"><ele>561.0</ele><time>2026-03-28T08:01:45.482Z</time></trkpt><trkpt lat="40.8790817" lon="15.16112"><ele>561.0</ele><time>2026-03-28T08:01:46.482Z</time></trkpt><trkpt lat="40.879155" lon="15.161355"><ele>561.0</ele><time>2026-03-28T08:01:47.482Z</time></trkpt><trkpt lat="40.879235" lon="15.1615867"><ele>559.0</ele><time>2026-03-28T08:01:48.482Z</time></trkpt><trkpt lat="40.8793117" lon="15.1618267"><ele>557.0</ele><time>2026-03-28T08:01:49.481Z</time></trkpt><trkpt lat="40.879385" lon="15.1620567"><ele>555.0</ele><time>2026-03-28T08:01:50.481Z</time></trkpt><trkpt lat="40.8794583" lon="15.1622767"><ele>554.0</ele><time>2026-03-28T08:01:51.481Z</time></trkpt><trkpt lat="40.8795333" lon="15.162495"><ele>553.0</ele><time>2026-03-28T08:01:52.482Z</time></trkpt><trkpt lat="40.8796133" lon="15.1627133"><ele>552.0</ele><time>2026-03-28T08:01:53.482Z</time></trkpt><trkpt lat="40.8796867" lon="15.1629367"><ele>552.0</ele><time>2026-03-28T08:01:54.482Z</time></trkpt><trkpt lat="40.87975" lon="15.1631583"><ele>552.0</ele><time>2026-03-28T08:01:55.482Z</time></trkpt><trkpt lat="40.8798033" lon="15.16338"><ele>552.0</ele><time>2026-03-28T08:01:56.482Z</time></trkpt><trkpt lat="40.8798533" lon="15.1635967"><ele>551.0</ele><time>2026-03-28T08:01:57.482Z</time></trkpt><trkpt lat="40.879895" lon="15.16382"><ele>550.0</ele><time>2026-03-28T08:01:58.482Z</time></trkpt><trkpt lat="40.8799333" lon="15.1640517"><ele>549.0</ele><time>2026-03-28T08:01:59.482Z</time></trkpt><trkpt lat="40.8799667" lon="15.16428"><ele>548.3333333333334</ele><time>2026-03-28T08:02:00.482Z</time></trkpt><trkpt lat="40.8799867" lon="15.1645117"><ele>547.6666666666667</ele><time>2026-03-28T08:02:01.482Z</time></trkpt><trkpt lat="40.8799967" lon="15.16475"><ele>547.0</ele><time>2026-03-28T08:02:02.482Z</time></trkpt><trkpt lat="40.880005" lon="15.1649917"><ele>546.3333333333334</ele><time>2026-03-28T08:02:03.481Z</time></trkpt><trkpt lat="40.8800117" lon="15.1652367"><ele>545.6666666666666</ele><time>2026-03-28T08:02:04.482Z</time></trkpt><trkpt lat="40.8799967" lon="15.1654817"><ele>545.0</ele><time>2026-03-28T08:02:05.482Z</time></trkpt><trkpt lat="40.8799767" lon="15.1657267"><ele>544.3333333333333</ele><time>2026-03-28T08:02:06.482Z</time></trkpt><trkpt lat="40.8799533" lon="15.1659733"><ele>543.6666666666666</ele><time>2026-03-28T08:02:07.481Z</time></trkpt><trkpt lat="40.879915" lon="15.1662183"><ele>543.0</ele><time>2026-03-28T08:02:08.481Z</time></trkpt><trkpt lat="40.87987" lon="15.16646"><ele>542.6666666666666</ele><time>2026-03-28T08:02:09.482Z</time></trkpt><trkpt lat="40.87982" lon="15.1667"><ele>542.3333333333333</ele><time>2026-03-28T08:02:10.481Z</time></trkpt><trkpt lat="40.879755" lon="15.16694"><ele>542.0</ele><time>2026-03-28T08:02:11.482Z</time></trkpt><trkpt lat="40.879685" lon="15.1671783"><ele>541.3333333333333</ele><time>2026-03-28T08:02:12.482Z</time></trkpt><trkpt lat="40.8796067" lon="15.1674117"><ele>540.6666666666666</ele><time>2026-03-28T08:02:13.481Z</time></trkpt><trkpt lat="40.8795217" lon="15.167635"><ele>540.0</ele><time>2026-03-28T08:02:14.481Z</time></trkpt><trkpt lat="40.879435" lon="15.1678433"><ele>540.0</ele><time>2026-03-28T08:02:15.482Z</time></trkpt><trkpt lat="40.87934" lon="15.1680433"><ele>540.0</ele><time>2026-03-28T08:02:16.482Z</time></trkpt><trkpt lat="40.8792367" lon="15.16824"><ele>540.0</ele><time>2026-03-28T08:02:17.482Z</time></trkpt><trkpt lat="40.879125" lon="15.1684383"><ele>541.0</ele><time>2026-03-28T08:02:18.482Z</time></trkpt><trkpt lat="40.8790033" lon="15.1686317"><ele>542.0</ele><time>2026-03-28T08:02:19.482Z</time></trkpt><trkpt lat="40.87889" lon="15.1688217"><ele>543.0</ele><time>2026-03-28T08:02:20.482Z</time></trkpt><trkpt lat="40.8787733" lon="15.169015"><ele>542.0</ele><time>2026-03-28T08:02:21.482Z</time></trkpt><trkpt lat="40.8786617" lon="15.1691983"><ele>541.0</ele><time>2026-03-28T08:02:22.481Z</time></trkpt><trkpt lat="40.8785483" lon="15.16938"><ele>540.0</ele><time>2026-03-28T08:02:23.481Z</time></trkpt><trkpt lat="40.8784333" lon="15.1695667"><ele>540.0</ele><time>2026-03-28T08:02:24.482Z</time></trkpt><trkpt lat="40.87832" lon="15.16976"><ele>540.0</ele><time>2026-03-28T08:02:25.481Z</time></trkpt><trkpt lat="40.878205" lon="15.1699517"><ele>540.0</ele><time>2026-03-28T08:02:26.482Z</time></trkpt><trkpt lat="40.8780817" lon="15.1701567"><ele>539.3333333333334</ele><time>2026-03-28T08:02:27.481Z</time></trkpt><trkpt lat="40.8779583" lon="15.1703683"><ele>538.6666666666667</ele><time>2026-03-28T08:02:28.481Z</time></trkpt><trkpt lat="40.8778383" lon="15.1705717"><ele>538.0</ele><time>2026-03-28T08:02:29.481Z</time></trkpt><trkpt lat="40.87772" lon="15.17077"><ele>537.6666666666667</ele><time>2026-03-28T08:02:30.482Z</time></trkpt><trkpt lat="40.8776083" lon="15.1709733"><ele>537.3333333333334</ele><time>2026-03-28T08:02:31.482Z</time></trkpt><trkpt lat="40.8775" lon="15.1711717"><ele>537.0</ele><time>2026-03-28T08:02:32.482Z</time></trkpt><trkpt lat="40.877395" lon="15.1713683"><ele>537.6666666666666</ele><time>2026-03-28T08:02:33.481Z</time></trkpt><trkpt lat="40.87729" lon="15.1715633"><ele>538.3333333333333</ele><time>2026-03-28T08:02:34.481Z</time></trkpt><trkpt lat="40.877185" lon="15.171765"><ele>539.0</ele><time>2026-03-28T08:02:35.481Z</time></trkpt><trkpt lat="40.8770783" lon="15.17196"><ele>539.0</ele><time>2026-03-28T08:02:36.482Z</time></trkpt><trkpt lat="40.8769667" lon="15.1721583"><ele>539.0</ele><time>2026-03-28T08:02:37.482Z</time></trkpt><trkpt lat="40.8768517" lon="15.1723633"><ele>539.0</ele><time>2026-03-28T08:02:38.481Z</time></trkpt><trkpt lat="40.8767367" lon="15.1725717"><ele>537.6666666666666</ele><time>2026-03-28T08:02:39.481Z</time></trkpt><trkpt lat="40.8766167" lon="15.17279"><ele>536.3333333333334</ele><time>2026-03-28T08:02:40.481Z</time></trkpt><trkpt lat="40.8765017" lon="15.173"><ele>535.0</ele><time>2026-03-28T08:02:41.481Z</time></trkpt><trkpt lat="40.8763883" lon="15.17321"><ele>534.6666666666667</ele><time>2026-03-28T08:02:42.482Z</time></trkpt><trkpt lat="40.8762733" lon="15.1734183"><ele>534.3333333333334</ele><time>2026-03-28T08:02:43.482Z</time></trkpt><trkpt lat="40.8761567" lon="15.1736217"><ele>534.0</ele><time>2026-03-28T08:02:44.482Z</time></trkpt><trkpt lat="40.8760367" lon="15.1738367"><ele>534.3333333333334</ele><time>2026-03-28T08:02:45.482Z</time></trkpt><trkpt lat="40.8759217" lon="15.1740483"><ele>534.6666666666667</ele><time>2026-03-28T08:02:46.482Z</time></trkpt><trkpt lat="40.8758067" lon="15.17426"><ele>535.0</ele><time>2026-03-28T08:02:47.482Z</time></trkpt><trkpt lat="40.8756867" lon="15.1744717"><ele>535.0</ele><time>2026-03-28T08:02:48.481Z</time></trkpt><trkpt lat="40.8755683" lon="15.174685"><ele>535.0</ele><time>2026-03-28T08:02:49.482Z</time></trkpt><trkpt lat="40.87545" lon="15.1749"><ele>535.0</ele><time>2026-03-28T08:02:50.481Z</time></trkpt><trkpt lat="40.87533" lon="15.1751217"><ele>534.3333333333334</ele><time>2026-03-28T08:02:51.481Z</time></trkpt><trkpt lat="40.8752017" lon="15.17534"><ele>533.6666666666666</ele><time>2026-03-28T08:02:52.481Z</time></trkpt><trkpt lat="40.875085" lon="15.1755567"><ele>533.0</ele><time>2026-03-28T08:02:53.482Z</time></trkpt><trkpt lat="40.87497" lon="15.1757667"><ele>533.0</ele><time>2026-03-28T08:02:54.482Z</time></trkpt><trkpt lat="40.874855" lon="15.175975"><ele>533.0</ele><time>2026-03-28T08:02:55.482Z</time></trkpt><trkpt lat="40.8747483" lon="15.17618"><ele>533.0</ele><time>2026-03-28T08:02:56.482Z</time></trkpt><trkpt lat="40.8746383" lon="15.1763767"><ele>532.3333333333333</ele><time>2026-03-28T08:02:57.482Z</time></trkpt><trkpt lat="40.8745317" lon="15.1765733"><ele>531.6666666666666</ele><time>2026-03-28T08:02:58.481Z</time></trkpt><trkpt lat="40.8744217" lon="15.1767617"><ele>531.0</ele><time>2026-03-28T08:02:59.482Z</time></trkpt><trkpt lat="40.8743133" lon="15.1769467"><ele>532.0</ele><time>2026-03-28T08:03:00.482Z</time></trkpt><trkpt lat="40.8742033" lon="15.17713"><ele>533.0</ele><time>2026-03-28T08:03:01.482Z</time></trkpt><trkpt lat="40.8741017" lon="15.177325"><ele>534.0</ele><time>2026-03-28T08:03:02.481Z</time></trkpt><trkpt lat="40.8739933" lon="15.1775167"><ele>534.0</ele><time>2026-03-28T08:03:03.482Z</time></trkpt><trkpt lat="40.87389" lon="15.1777083"><ele>534.0</ele><time>2026-03-28T08:03:04.481Z</time></trkpt><trkpt lat="40.8737883" lon="15.1779083"><ele>534.0</ele><time>2026-03-28T08:03:05.482Z</time></trkpt><trkpt lat="40.873685" lon="15.178095"><ele>533.6666666666666</ele><time>2026-03-28T08:03:06.482Z</time></trkpt><trkpt lat="40.8735917" lon="15.1782867"><ele>533.3333333333333</ele><time>2026-03-28T08:03:07.481Z</time></trkpt><trkpt lat="40.8735017" lon="15.1784883"><ele>533.0</ele><time>2026-03-28T08:03:08.482Z</time></trkpt><trkpt lat="40.8734067" lon="15.178695"><ele>533.0</ele><time>2026-03-28T08:03:09.482Z</time></trkpt><trkpt lat="40.87331" lon="15.1789167"><ele>533.0</ele><time>2026-03-28T08:03:10.481Z</time></trkpt><trkpt lat="40.8732183" lon="15.1791533"><ele>533.0</ele><time>2026-03-28T08:03:11.481Z</time></trkpt><trkpt lat="40.873125" lon="15.179405"><ele>532.0</ele><time>2026-03-28T08:03:12.481Z</time></trkpt><trkpt lat="40.8730367" lon="15.1796633"><ele>531.0</ele><time>2026-03-28T08:03:13.482Z</time></trkpt><trkpt lat="40.872955" lon="15.1799183"><ele>530.0</ele><time>2026-03-28T08:03:14.481Z</time></trkpt><trkpt lat="40.872875" lon="15.1801767"><ele>529.6666666666666</ele><time>2026-03-28T08:03:15.481Z</time></trkpt><trkpt lat="40.8727983" lon="15.1804383"><ele>529.3333333333334</ele><time>2026-03-28T08:03:16.481Z</time></trkpt><trkpt lat="40.8727267" lon="15.1807033"><ele>529.0</ele><time>2026-03-28T08:03:17.482Z</time></trkpt><trkpt lat="40.87266" lon="15.1809717"><ele>529.3333333333334</ele><time>2026-03-28T08:03:18.482Z</time></trkpt><trkpt lat="40.87259" lon="15.1812283"><ele>529.6666666666666</ele><time>2026-03-28T08:03:19.482Z</time></trkpt><trkpt lat="40.872525" lon="15.1814867"><ele>530.0</ele><time>2026-03-28T08:03:20.482Z</time></trkpt><trkpt lat="40.8724533" lon="15.1817433"><ele>530.0</ele><time>2026-03-28T08:03:21.482Z</time></trkpt><trkpt lat="40.8723883" lon="15.182005"><ele>530.0</ele><time>2026-03-28T08:03:22.481Z</time></trkpt><trkpt lat="40.872325" lon="15.1822617"><ele>530.0</ele><time>2026-03-28T08:03:23.481Z</time></trkpt><trkpt lat="40.8722583" lon="15.1825217"><ele>530.0</ele><time>2026-03-28T08:03:24.481Z</time></trkpt><trkpt lat="40.8721883" lon="15.1827767"><ele>530.0</ele><time>2026-03-28T08:03:25.481Z</time></trkpt><trkpt lat="40.872125" lon="15.1830233"><ele>530.0</ele><time>2026-03-28T08:03:26.482Z</time></trkpt><trkpt lat="40.872055" lon="15.1832667"><ele>529.3333333333333</ele><time>2026-03-28T08:03:27.481Z</time></trkpt><trkpt lat="40.8719883" lon="15.18351"><ele>528.6666666666666</ele><time>2026-03-28T08:03:28.482Z</time></trkpt><trkpt lat="40.8719233" lon="15.183755"><ele>528.0</ele><time>2026-03-28T08:03:29.482Z</time></trkpt><trkpt lat="40.8718617" lon="15.1840083"><ele>527.6666666666666</ele><time>2026-03-28T08:03:30.481Z</time></trkpt><trkpt lat="40.8717933" lon="15.1842767"><ele>527.3333333333333</ele><time>2026-03-28T08:03:31.482Z</time></trkpt><trkpt lat="40.871725" lon="15.1845517"><ele>527.0</ele><time>2026-03-28T08:03:32.482Z</time></trkpt><trkpt lat="40.8716583" lon="15.1848217"><ele>527.3333333333333</ele><time>2026-03-28T08:03:33.481Z</time></trkpt><trkpt lat="40.8715867" lon="15.18509"><ele>527.6666666666666</ele><time>2026-03-28T08:03:34.482Z</time></trkpt><trkpt lat="40.8715233" lon="15.1853517"><ele>528.0</ele><time>2026-03-28T08:03:35.482Z</time></trkpt><trkpt lat="40.8714583" lon="15.18561"><ele>527.6666666666666</ele><time>2026-03-28T08:03:36.482Z</time></trkpt><trkpt lat="40.8713967" lon="15.18586"><ele>527.3333333333333</ele><time>2026-03-28T08:03:37.481Z</time></trkpt><trkpt lat="40.8713367" lon="15.1861083"><ele>527.0</ele><time>2026-03-28T08:03:38.481Z</time></trkpt><trkpt lat="40.8712717" lon="15.18636"><ele>527.0</ele><time>2026-03-28T08:03:39.481Z</time></trkpt><trkpt lat="40.8712067" lon="15.1866067"><ele>527.0</ele><time>2026-03-28T08:03:40.482Z</time></trkpt><trkpt lat="40.8711367" lon="15.1868633"><ele>527.0</ele><time>2026-03-28T08:03:41.482Z</time></trkpt><trkpt lat="40.8710733" lon="15.1871183"><ele>527.3333333333333</ele><time>2026-03-28T08:03:42.482Z</time></trkpt><trkpt lat="40.8710083" lon="15.1873617"><ele>527.6666666666666</ele><time>2026-03-28T08:03:43.482Z</time></trkpt><trkpt lat="40.8709417" lon="15.1876167"><ele>528.0</ele><time>2026-03-28T08:03:44.481Z</time></trkpt><trkpt lat="40.8708783" lon="15.187875"><ele>528.0</ele><time>2026-03-28T08:03:45.482Z</time></trkpt><trkpt lat="40.87082" lon="15.188135"><ele>528.0</ele><time>2026-03-28T08:03:46.481Z</time></trkpt><trkpt lat="40.8707567" lon="15.188395"><ele>528.0</ele><time>2026-03-28T08:03:47.482Z</time></trkpt><trkpt lat="40.8706917" lon="15.1886567"><ele>528.0</ele><time>2026-03-28T08:03:48.482Z</time></trkpt><trkpt lat="40.870625" lon="15.1889133"><ele>528.0</ele><time>2026-03-28T08:03:49.481Z</time></trkpt><trkpt lat="40.8705717" lon="15.1891667"><ele>528.0</ele><time>2026-03-28T08:03:50.481Z</time></trkpt><trkpt lat="40.8705283" lon="15.18942"><ele>528.0</ele><time>2026-03-28T08:03:51.482Z</time></trkpt><trkpt lat="40.8704967" lon="15.1896733"><ele>528.0</ele><time>2026-03-28T08:03:52.482Z</time></trkpt><trkpt lat="40.8704683" lon="15.18993"><ele>528.0</ele><time>2026-03-28T08:03:53.481Z</time></trkpt><trkpt lat="40.8704483" lon="15.1901917"><ele>528.0</ele><time>2026-03-28T08:03:54.481Z</time></trkpt><trkpt lat="40.87044" lon="15.1904583"><ele>528.0</ele><time>2026-03-28T08:03:55.482Z</time></trkpt><trkpt lat="40.8704467" lon="15.1907283"><ele>528.0</ele><time>2026-03-28T08:03:56.482Z</time></trkpt><trkpt lat="40.8704667" lon="15.191"><ele>528.0</ele><time>2026-03-28T08:03:57.481Z</time></trkpt><trkpt lat="40.8704883" lon="15.1912583"><ele>528.0</ele><time>2026-03-28T08:03:58.482Z</time></trkpt><trkpt lat="40.8705117" lon="15.1915183"><ele>528.0</ele><time>2026-03-28T08:03:59.482Z</time></trkpt><trkpt lat="40.8705267" lon="15.191765"><ele>527.3333333333334</ele><time>2026-03-28T08:04:00.481Z</time></trkpt><trkpt lat="40.8705333" lon="15.191995"><ele>526.6666666666667</ele><time>2026-03-28T08:04:01.481Z</time></trkpt><trkpt lat="40.8705533" lon="15.1922233"><ele>526.0</ele><time>2026-03-28T08:04:02.482Z</time></trkpt><trkpt lat="40.8705733" lon="15.19245"><ele>525.3333333333334</ele><time>2026-03-28T08:04:03.482Z</time></trkpt><trkpt lat="40.87059" lon="15.19269"><ele>524.6666666666666</ele><time>2026-03-28T08:04:04.481Z</time></trkpt><trkpt lat="40.870615" lon="15.19293"><ele>524.0</ele><time>2026-03-28T08:04:05.482Z</time></trkpt><trkpt lat="40.8706317" lon="15.1931817"><ele>524.0</ele><time>2026-03-28T08:04:06.481Z</time></trkpt><trkpt lat="40.8706467" lon="15.19344"><ele>524.0</ele><time>2026-03-28T08:04:07.482Z</time></trkpt><trkpt lat="40.8706633" lon="15.1936967"><ele>524.0</ele><time>2026-03-28T08:04:08.481Z</time></trkpt><trkpt lat="40.87067" lon="15.193955"><ele>524.6666666666666</ele><time>2026-03-28T08:04:09.482Z</time></trkpt><trkpt lat="40.87067" lon="15.19421"><ele>525.3333333333334</ele><time>2026-03-28T08:04:10.482Z</time></trkpt><trkpt lat="40.870655" lon="15.1944683"><ele>526.0</ele><time>2026-03-28T08:04:11.482Z</time></trkpt><trkpt lat="40.870635" lon="15.19471"><ele>526.3333333333334</ele><time>2026-03-28T08:04:12.481Z</time></trkpt><trkpt lat="40.8706133" lon="15.1949417"><ele>526.6666666666666</ele><time>2026-03-28T08:04:13.481Z</time></trkpt><trkpt lat="40.8705817" lon="15.1951683"><ele>527.0</ele><time>2026-03-28T08:04:14.481Z</time></trkpt><trkpt lat="40.8705433" lon="15.195395"><ele>527.0</ele><time>2026-03-28T08:04:15.482Z</time></trkpt><trkpt lat="40.870505" lon="15.195625"><ele>527.0</ele><time>2026-03-28T08:04:16.482Z</time></trkpt><trkpt lat="40.870475" lon="15.1958567"><ele>527.0</ele><time>2026-03-28T08:04:17.481Z</time></trkpt><trkpt lat="40.870445" lon="15.1960917"><ele>527.3333333333333</ele><time>2026-03-28T08:04:18.482Z</time></trkpt><trkpt lat="40.8704167" lon="15.1963317"><ele>527.6666666666666</ele><time>2026-03-28T08:04:19.481Z</time></trkpt><trkpt lat="40.8703817" lon="15.1965733"><ele>528.0</ele><time>2026-03-28T08:04:20.482Z</time></trkpt><trkpt lat="40.8703483" lon="15.1968117"><ele>528.3333333333334</ele><time>2026-03-28T08:04:21.482Z</time></trkpt><trkpt lat="40.87032" lon="15.1970517"><ele>528.6666666666667</ele><time>2026-03-28T08:04:22.482Z</time></trkpt><trkpt lat="40.8702933" lon="15.1972933"><ele>529.0</ele><time>2026-03-28T08:04:23.482Z</time></trkpt><trkpt lat="40.8702667" lon="15.1975367"><ele>529.6666666666667</ele><time>2026-03-28T08:04:24.482Z</time></trkpt><trkpt lat="40.8702333" lon="15.1977767"><ele>530.3333333333334</ele><time>2026-03-28T08:04:25.481Z</time></trkpt><trkpt lat="40.8701967" lon="15.1980183"><ele>531.0</ele><time>2026-03-28T08:04:26.482Z</time></trkpt><trkpt lat="40.8701667" lon="15.198255"><ele>531.0</ele><time>2026-03-28T08:04:27.482Z</time></trkpt><trkpt lat="40.87013" lon="15.19849"><ele>531.0</ele><time>2026-03-28T08:04:28.482Z</time></trkpt><trkpt lat="40.8700967" lon="15.1987133"><ele>531.0</ele><time>2026-03-28T08:04:29.481Z</time></trkpt><trkpt lat="40.8700667" lon="15.1989367"><ele>528.3333333333334</ele><time>2026-03-28T08:04:30.481Z</time></trkpt><trkpt lat="40.8700333" lon="15.19916"><ele>525.6666666666667</ele><time>2026-03-28T08:04:31.482Z</time></trkpt><trkpt lat="40.87" lon="15.1993883"><ele>523.0</ele><time>2026-03-28T08:04:32.482Z</time></trkpt><trkpt lat="40.8699683" lon="15.1996133"><ele>523.0</ele><time>2026-03-28T08:04:33.482Z</time></trkpt><trkpt lat="40.8699333" lon="15.1998283"><ele>523.0</ele><time>2026-03-28T08:04:34.481Z</time></trkpt><trkpt lat="40.86991" lon="15.20006"><ele>523.0</ele><time>2026-03-28T08:04:35.482Z</time></trkpt><trkpt lat="40.8698933" lon="15.200285"><ele>523.0</ele><time>2026-03-28T08:04:36.481Z</time></trkpt><trkpt lat="40.8698883" lon="15.2005083"><ele>523.0</ele><time>2026-03-28T08:04:37.481Z</time></trkpt><trkpt lat="40.86989" lon="15.20073"><ele>523.0</ele><time>2026-03-28T08:04:38.482Z</time></trkpt><trkpt lat="40.8698917" lon="15.2009383"><ele>523.0</ele><time>2026-03-28T08:04:39.482Z</time></trkpt><trkpt lat="40.8699" lon="15.201145"><ele>523.0</ele><time>2026-03-28T08:04:40.481Z</time></trkpt><trkpt lat="40.869905" lon="15.201355"><ele>523.0</ele><time>2026-03-28T08:04:41.482Z</time></trkpt><trkpt lat="40.8699233" lon="15.2015617"><ele>522.6666666666667</ele><time>2026-03-28T08:04:42.481Z</time></trkpt><trkpt lat="40.86995" lon="15.2017617"><ele>522.3333333333334</ele><time>2026-03-28T08:04:43.481Z</time></trkpt><trkpt lat="40.8699867" lon="15.20196"><ele>522.0</ele><time>2026-03-28T08:04:44.481Z</time></trkpt><trkpt lat="40.870035" lon="15.2021583"><ele>522.3333333333334</ele><time>2026-03-28T08:04:45.482Z</time></trkpt><trkpt lat="40.8700967" lon="15.202355"><ele>522.6666666666667</ele><time>2026-03-28T08:04:46.481Z</time></trkpt><trkpt lat="40.870175" lon="15.202545"><ele>523.0</ele><time>2026-03-28T08:04:47.482Z</time></trkpt><trkpt lat="40.87027" lon="15.2027217"><ele>523.3333333333334</ele><time>2026-03-28T08:04:48.482Z</time></trkpt><trkpt lat="40.8703717" lon="15.2028967"><ele>523.6666666666666</ele><time>2026-03-28T08:04:49.482Z</time></trkpt><trkpt lat="40.8704817" lon="15.2030567"><ele>524.0</ele><time>2026-03-28T08:04:50.482Z</time></trkpt><trkpt lat="40.87059" lon="15.2032083"><ele>525.3333333333333</ele><time>2026-03-28T08:04:51.482Z</time></trkpt><trkpt lat="40.8707" lon="15.2033517"><ele>526.6666666666666</ele><time>2026-03-28T08:04:52.482Z</time></trkpt><trkpt lat="40.8708083" lon="15.2035"><ele>528.0</ele><time>2026-03-28T08:04:53.483Z</time></trkpt><trkpt lat="40.8709167" lon="15.2036533"><ele>526.6666666666666</ele><time>2026-03-28T08:04:54.483Z</time></trkpt><trkpt lat="40.8710333" lon="15.20381"><ele>525.3333333333333</ele><time>2026-03-28T08:04:55.482Z</time></trkpt><trkpt lat="40.87115" lon="15.20397"><ele>524.0</ele><time>2026-03-28T08:04:56.483Z</time></trkpt><trkpt lat="40.87127" lon="15.20413"><ele>523.6666666666666</ele><time>2026-03-28T08:04:57.482Z</time></trkpt><trkpt lat="40.87138" lon="15.2042867"><ele>523.3333333333334</ele><time>2026-03-28T08:04:58.483Z</time></trkpt><trkpt lat="40.8714817" lon="15.2044417"><ele>523.0</ele><time>2026-03-28T08:04:59.483Z</time></trkpt><trkpt lat="40.8715817" lon="15.2046017"><ele>523.0</ele><time>2026-03-28T08:05:00.483Z</time></trkpt><trkpt lat="40.871685" lon="15.204765"><ele>523.0</ele><time>2026-03-28T08:05:01.482Z</time></trkpt><trkpt lat="40.87179" lon="15.2049283"><ele>523.0</ele><time>2026-03-28T08:05:02.483Z</time></trkpt><trkpt lat="40.8719" lon="15.2050933"><ele>522.0</ele><time>2026-03-28T08:05:03.483Z</time></trkpt><trkpt lat="40.8720117" lon="15.2052583"><ele>521.0</ele><time>2026-03-28T08:05:04.482Z</time></trkpt><trkpt lat="40.872125" lon="15.2054317"><ele>520.0</ele><time>2026-03-28T08:05:05.482Z</time></trkpt><trkpt lat="40.8722383" lon="15.2056033"><ele>520.3333333333334</ele><time>2026-03-28T08:05:06.482Z</time></trkpt><trkpt lat="40.8723467" lon="15.2057667"><ele>520.6666666666666</ele><time>2026-03-28T08:05:07.482Z</time></trkpt><trkpt lat="40.872455" lon="15.2059183"><ele>521.0</ele><time>2026-03-28T08:05:08.482Z</time></trkpt><trkpt lat="40.8725633" lon="15.2060683"><ele>520.6666666666666</ele><time>2026-03-28T08:05:09.482Z</time></trkpt><trkpt lat="40.87267" lon="15.2062183"><ele>520.3333333333334</ele><time>2026-03-28T08:05:10.483Z</time></trkpt><trkpt lat="40.8727867" lon="15.206365"><ele>520.0</ele><time>2026-03-28T08:05:11.482Z</time></trkpt><trkpt lat="40.8729133" lon="15.20651"><ele>520.0</ele><time>2026-03-28T08:05:12.482Z</time></trkpt><trkpt lat="40.8730483" lon="15.20664"><ele>520.0</ele><time>2026-03-28T08:05:13.483Z</time></trkpt><trkpt lat="40.873185" lon="15.2067667"><ele>520.0</ele><time>2026-03-28T08:05:14.483Z</time></trkpt><trkpt lat="40.8733267" lon="15.2068917"><ele>520.0</ele><time>2026-03-28T08:05:15.482Z</time></trkpt><trkpt lat="40.8734633" lon="15.2069983"><ele>520.0</ele><time>2026-03-28T08:05:16.482Z</time></trkpt><trkpt lat="40.8736067" lon="15.2070867"><ele>520.0</ele><time>2026-03-28T08:05:17.483Z</time></trkpt><trkpt lat="40.8737617" lon="15.2071633"><ele>520.0</ele><time>2026-03-28T08:05:18.482Z</time></trkpt><trkpt lat="40.8739083" lon="15.2072283"><ele>520.0</ele><time>2026-03-28T08:05:19.482Z</time></trkpt><trkpt lat="40.8740583" lon="15.2072767"><ele>520.0</ele><time>2026-03-28T08:05:20.483Z</time></trkpt><trkpt lat="40.8742033" lon="15.2073167"><ele>521.6666666666667</ele><time>2026-03-28T08:05:21.482Z</time></trkpt><trkpt lat="40.874355" lon="15.207345"><ele>523.3333333333334</ele><time>2026-03-28T08:05:22.483Z</time></trkpt><trkpt lat="40.8745033" lon="15.20738"><ele>525.0</ele><time>2026-03-28T08:05:23.483Z</time></trkpt><trkpt lat="40.87466" lon="15.20742"><ele>525.0</ele><time>2026-03-28T08:05:24.483Z</time></trkpt><trkpt lat="40.87482" lon="15.2074583"><ele>525.0</ele><time>2026-03-28T08:05:25.483Z</time></trkpt><trkpt lat="40.874975" lon="15.207495"><ele>525.0</ele><time>2026-03-28T08:05:26.482Z</time></trkpt><trkpt lat="40.8751317" lon="15.2075283"><ele>524.3333333333334</ele><time>2026-03-28T08:05:27.482Z</time></trkpt><trkpt lat="40.87529" lon="15.20757"><ele>523.6666666666667</ele><time>2026-03-28T08:05:28.483Z</time></trkpt><trkpt lat="40.8754517" lon="15.2076033"><ele>523.0</ele><time>2026-03-28T08:05:29.483Z</time></trkpt><trkpt lat="40.8756167" lon="15.207635"><ele>523.0</ele><time>2026-03-28T08:05:30.482Z</time></trkpt><trkpt lat="40.8757833" lon="15.20767"><ele>523.0</ele><time>2026-03-28T08:05:31.483Z</time></trkpt><trkpt lat="40.8759517" lon="15.2077133"><ele>523.0</ele><time>2026-03-28T08:05:32.483Z</time></trkpt><trkpt lat="40.87612" lon="15.2077583"><ele>522.3333333333334</ele><time>2026-03-28T08:05:33.483Z</time></trkpt><trkpt lat="40.8762833" lon="15.2078033"><ele>521.6666666666666</ele><time>2026-03-28T08:05:34.483Z</time></trkpt><trkpt lat="40.8764433" lon="15.2078517"><ele>521.0</ele><time>2026-03-28T08:05:35.483Z</time></trkpt><trkpt lat="40.8765933" lon="15.2079083"><ele>521.0</ele><time>2026-03-28T08:05:36.483Z</time></trkpt><trkpt lat="40.8767467" lon="15.2079817"><ele>521.0</ele><time>2026-03-28T08:05:37.482Z</time></trkpt><trkpt lat="40.8769" lon="15.2080633"><ele>521.0</ele><time>2026-03-28T08:05:38.482Z</time></trkpt><trkpt lat="40.87705" lon="15.208145"><ele>522.6666666666666</ele><time>2026-03-28T08:05:39.483Z</time></trkpt><trkpt lat="40.8772" lon="15.20824"><ele>524.3333333333334</ele><time>2026-03-28T08:05:40.483Z</time></trkpt><trkpt lat="40.8773467" lon="15.2083383"><ele>526.0</ele><time>2026-03-28T08:05:41.483Z</time></trkpt><trkpt lat="40.877495" lon="15.208445"><ele>522.6666666666667</ele><time>2026-03-28T08:05:42.482Z</time></trkpt><trkpt lat="40.87764" lon="15.20855"><ele>519.3333333333334</ele><time>2026-03-28T08:05:43.482Z</time></trkpt><trkpt lat="40.8777883" lon="15.2086617"><ele>516.0</ele><time>2026-03-28T08:05:44.482Z</time></trkpt><trkpt lat="40.8779467" lon="15.2087817"><ele>516.0</ele><time>2026-03-28T08:05:45.483Z</time></trkpt><trkpt lat="40.8781067" lon="15.2088933"><ele>516.0</ele><time>2026-03-28T08:05:46.483Z</time></trkpt><trkpt lat="40.8782633" lon="15.2090117"><ele>516.0</ele><time>2026-03-28T08:05:47.483Z</time></trkpt><trkpt lat="40.878415" lon="15.209115"><ele>516.0</ele><time>2026-03-28T08:05:48.483Z</time></trkpt><trkpt lat="40.878565" lon="15.209225"><ele>516.0</ele><time>2026-03-28T08:05:49.483Z</time></trkpt><trkpt lat="40.87872" lon="15.2093083"><ele>516.0</ele><time>2026-03-28T08:05:50.482Z</time></trkpt><trkpt lat="40.8788683" lon="15.2093867"><ele>516.0</ele><time>2026-03-28T08:05:51.483Z</time></trkpt><trkpt lat="40.8790017" lon="15.2094767"><ele>516.0</ele><time>2026-03-28T08:05:52.483Z</time></trkpt><trkpt lat="40.8791167" lon="15.2095717"><ele>516.0</ele><time>2026-03-28T08:05:53.483Z</time></trkpt><trkpt lat="40.8792217" lon="15.2096667"><ele>516.0</ele><time>2026-03-28T08:05:54.483Z</time></trkpt><trkpt lat="40.87932" lon="15.20977"><ele>515.5</ele><time>2026-03-28T08:05:55.482Z</time></trkpt><trkpt lat="40.87941" lon="15.2098783"><ele>515.0</ele><time>2026-03-28T08:05:56.483Z</time></trkpt><trkpt lat="40.879495" lon="15.2099967"><ele>514.5</ele><time>2026-03-28T08:05:57.483Z</time></trkpt><trkpt lat="40.8795817" lon="15.2101167"><ele>514.0</ele><time>2026-03-28T08:05:58.482Z</time></trkpt><trkpt lat="40.8796583" lon="15.2102567"><ele>514.0</ele><time>2026-03-28T08:05:59.483Z</time></trkpt><trkpt lat="40.87973" lon="15.2104117"><ele>514.0</ele><time>2026-03-28T08:06:00.482Z</time></trkpt><trkpt lat="40.8798" lon="15.2105783"><ele>514.0</ele><time>2026-03-28T08:06:01.483Z</time></trkpt><trkpt lat="40.87987" lon="15.2107517"><ele>514.0</ele><time>2026-03-28T08:06:02.482Z</time></trkpt><trkpt lat="40.8799333" lon="15.2109333"><ele>513.6666666666667</ele><time>2026-03-28T08:06:03.483Z</time></trkpt><trkpt lat="40.879985" lon="15.2111233"><ele>513.3333333333334</ele><time>2026-03-28T08:06:04.483Z</time></trkpt><trkpt lat="40.8800383" lon="15.211325"><ele>513.0</ele><time>2026-03-28T08:06:05.482Z</time></trkpt><trkpt lat="40.8800967" lon="15.2115383"><ele>514.3333333333334</ele><time>2026-03-28T08:06:06.482Z</time></trkpt><trkpt lat="40.8801617" lon="15.2117617"><ele>515.6666666666667</ele><time>2026-03-28T08:06:07.482Z</time></trkpt><trkpt lat="40.8802233" lon="15.2119783"><ele>517.0</ele><time>2026-03-28T08:06:08.482Z</time></trkpt><trkpt lat="40.8802833" lon="15.2121883"><ele>515.3333333333334</ele><time>2026-03-28T08:06:09.483Z</time></trkpt><trkpt lat="40.88034" lon="15.2124"><ele>513.6666666666666</ele><time>2026-03-28T08:06:10.483Z</time></trkpt><trkpt lat="40.880395" lon="15.2126083"><ele>512.0</ele><time>2026-03-28T08:06:11.483Z</time></trkpt><trkpt lat="40.88045" lon="15.2128083"><ele>512.0</ele><time>2026-03-28T08:06:12.482Z</time></trkpt><trkpt lat="40.8805017" lon="15.2130117"><ele>512.0</ele><time>2026-03-28T08:06:13.483Z</time></trkpt><trkpt lat="40.880565" lon="15.213205"><ele>512.0</ele><time>2026-03-28T08:06:14.483Z</time></trkpt><trkpt lat="40.8806333" lon="15.2133983"><ele>511.66666666666663</ele><time>2026-03-28T08:06:15.483Z</time></trkpt><trkpt lat="40.8807067" lon="15.2135883"><ele>511.33333333333337</ele><time>2026-03-28T08:06:16.483Z</time></trkpt><trkpt lat="40.8807867" lon="15.2137667"><ele>511.0</ele><time>2026-03-28T08:06:17.483Z</time></trkpt><trkpt lat="40.8808717" lon="15.21394"><ele>512.6666666666667</ele><time>2026-03-28T08:06:18.483Z</time></trkpt><trkpt lat="40.8809717" lon="15.2141017"><ele>514.3333333333334</ele><time>2026-03-28T08:06:19.482Z</time></trkpt><trkpt lat="40.8810733" lon="15.2142533"><ele>516.0</ele><time>2026-03-28T08:06:20.482Z</time></trkpt><trkpt lat="40.881175" lon="15.21439"><ele>516.0</ele><time>2026-03-28T08:06:21.483Z</time></trkpt><trkpt lat="40.88129" lon="15.21452"><ele>516.0</ele><time>2026-03-28T08:06:22.483Z</time></trkpt><trkpt lat="40.8814067" lon="15.2146367"><ele>516.0</ele><time>2026-03-28T08:06:23.483Z</time></trkpt><trkpt lat="40.8815267" lon="15.21475"><ele>516.0</ele><time>2026-03-28T08:06:24.483Z</time></trkpt><trkpt lat="40.8816517" lon="15.2148533"><ele>514.0</ele><time>2026-03-28T08:06:25.482Z</time></trkpt><trkpt lat="40.8817817" lon="15.21495"><ele>512.0</ele><time>2026-03-28T08:06:26.483Z</time></trkpt><trkpt lat="40.881915" lon="15.2150317"><ele>510.0</ele><time>2026-03-28T08:06:27.482Z</time></trkpt><trkpt lat="40.882045" lon="15.2151017"><ele>508.0</ele><time>2026-03-28T08:06:28.483Z</time></trkpt><trkpt lat="40.882175" lon="15.2151617"><ele>508.0</ele><time>2026-03-28T08:06:29.482Z</time></trkpt><trkpt lat="40.8822983" lon="15.2152183"><ele>508.0</ele><time>2026-03-28T08:06:30.483Z</time></trkpt><trkpt lat="40.8824283" lon="15.2152683"><ele>508.0</ele><time>2026-03-28T08:06:31.482Z</time></trkpt><trkpt lat="40.8825583" lon="15.2153217"><ele>508.0</ele><time>2026-03-28T08:06:32.483Z</time></trkpt><trkpt lat="40.88268" lon="15.2153717"><ele>504.75</ele><time>2026-03-28T08:06:33.483Z</time></trkpt><trkpt lat="40.8828133" lon="15.2154283"><ele>501.5</ele><time>2026-03-28T08:06:34.483Z</time></trkpt><trkpt lat="40.8829417" lon="15.21551"><ele>498.25</ele><time>2026-03-28T08:06:35.482Z</time></trkpt><trkpt lat="40.8830633" lon="15.2156033"><ele>495.0</ele><time>2026-03-28T08:06:36.483Z</time></trkpt><trkpt lat="40.8831817" lon="15.2157167"><ele>495.0</ele><time>2026-03-28T08:06:37.483Z</time></trkpt><trkpt lat="40.8832933" lon="15.21584"><ele>495.0</ele><time>2026-03-28T08:06:38.483Z</time></trkpt><trkpt lat="40.8834017" lon="15.215985"><ele>495.0</ele><time>2026-03-28T08:06:39.482Z</time></trkpt><trkpt lat="40.8835033" lon="15.2161367"><ele>493.33333333333337</ele><time>2026-03-28T08:06:40.483Z</time></trkpt><trkpt lat="40.8835983" lon="15.2162983"><ele>491.6666666666667</ele><time>2026-03-28T08:06:41.483Z</time></trkpt><trkpt lat="40.8836917" lon="15.2164733"><ele>490.0</ele><time>2026-03-28T08:06:42.482Z</time></trkpt><trkpt lat="40.8837833" lon="15.2166417"><ele>490.0</ele><time>2026-03-28T08:06:43.483Z</time></trkpt><trkpt lat="40.8838683" lon="15.216815"><ele>490.0</ele><time>2026-03-28T08:06:44.482Z</time></trkpt><trkpt lat="40.8839567" lon="15.2169917"><ele>490.0</ele><time>2026-03-28T08:06:45.483Z</time></trkpt><trkpt lat="40.88405" lon="15.2171767"><ele>488.6666666666667</ele><time>2026-03-28T08:06:46.483Z</time></trkpt><trkpt lat="40.8841433" lon="15.2173533"><ele>487.33333333333337</ele><time>2026-03-28T08:06:47.482Z</time></trkpt><trkpt lat="40.884235" lon="15.21753"><ele>486.0</ele><time>2026-03-28T08:06:48.482Z</time></trkpt><trkpt lat="40.884325" lon="15.217705"><ele>486.0</ele><time>2026-03-28T08:06:49.483Z</time></trkpt><trkpt lat="40.884425" lon="15.2178683"><ele>486.0</ele><time>2026-03-28T08:06:50.482Z</time></trkpt><trkpt lat="40.8845267" lon="15.2180183"><ele>486.0</ele><time>2026-03-28T08:06:51.483Z</time></trkpt><trkpt lat="40.88463" lon="15.2181633"><ele>491.66666666666663</ele><time>2026-03-28T08:06:52.482Z</time></trkpt><trkpt lat="40.8847433" lon="15.21829"><ele>497.3333333333333</ele><time>2026-03-28T08:06:53.483Z</time></trkpt><trkpt lat="40.88486" lon="15.218415"><ele>503.0</ele><time>2026-03-28T08:06:54.482Z</time></trkpt><trkpt lat="40.8849917" lon="15.2185367"><ele>499.66666666666663</ele><time>2026-03-28T08:06:55.483Z</time></trkpt><trkpt lat="40.8851283" lon="15.2186567"><ele>496.33333333333337</ele><time>2026-03-28T08:06:56.483Z</time></trkpt><trkpt lat="40.8852667" lon="15.2187683"><ele>493.0</ele><time>2026-03-28T08:06:57.482Z</time></trkpt><trkpt lat="40.8854117" lon="15.2188733"><ele>493.0</ele><time>2026-03-28T08:06:58.482Z</time></trkpt><trkpt lat="40.88556" lon="15.21897"><ele>493.0</ele><time>2026-03-28T08:06:59.482Z</time></trkpt><trkpt lat="40.885705" lon="15.2190633"><ele>493.0</ele><time>2026-03-28T08:07:00.483Z</time></trkpt><trkpt lat="40.8858433" lon="15.2191633"><ele>493.6666666666667</ele><time>2026-03-28T08:07:01.483Z</time></trkpt><trkpt lat="40.885985" lon="15.2192667"><ele>494.33333333333337</ele><time>2026-03-28T08:07:02.483Z</time></trkpt><trkpt lat="40.8861217" lon="15.2193833"><ele>495.0</ele><time>2026-03-28T08:07:03.483Z</time></trkpt><trkpt lat="40.886255" lon="15.2195067"><ele>495.0</ele><time>2026-03-28T08:07:04.483Z</time></trkpt><trkpt lat="40.8863733" lon="15.2196417"><ele>495.0</ele><time>2026-03-28T08:07:05.482Z</time></trkpt><trkpt lat="40.88649" lon="15.2197933"><ele>495.0</ele><time>2026-03-28T08:07:06.483Z</time></trkpt><trkpt lat="40.886605" lon="15.2199483"><ele>495.33333333333337</ele><time>2026-03-28T08:07:07.482Z</time></trkpt><trkpt lat="40.8867167" lon="15.2201117"><ele>495.6666666666667</ele><time>2026-03-28T08:07:08.482Z</time></trkpt><trkpt lat="40.8868217" lon="15.220285"><ele>496.0</ele><time>2026-03-28T08:07:09.483Z</time></trkpt><trkpt lat="40.88692" lon="15.22047"><ele>492.33333333333337</ele><time>2026-03-28T08:07:10.483Z</time></trkpt><trkpt lat="40.8870033" lon="15.2206583"><ele>488.66666666666663</ele><time>2026-03-28T08:07:11.483Z</time></trkpt><trkpt lat="40.8870783" lon="15.220855"><ele>485.0</ele><time>2026-03-28T08:07:12.483Z</time></trkpt><trkpt lat="40.8871467" lon="15.2210633"><ele>485.0</ele><time>2026-03-28T08:07:13.483Z</time></trkpt><trkpt lat="40.88721" lon="15.2212717"><ele>485.0</ele><time>2026-03-28T08:07:14.483Z</time></trkpt><trkpt lat="40.88727" lon="15.2214817"><ele>485.0</ele><time>2026-03-28T08:07:15.483Z</time></trkpt><trkpt lat="40.8873317" lon="15.2216967"><ele>485.66666666666663</ele><time>2026-03-28T08:07:16.483Z</time></trkpt><trkpt lat="40.8873933" lon="15.2219133"><ele>486.33333333333337</ele><time>2026-03-28T08:07:17.483Z</time></trkpt><trkpt lat="40.8874583" lon="15.2221283"><ele>487.0</ele><time>2026-03-28T08:07:18.483Z</time></trkpt><trkpt lat="40.8875267" lon="15.2223367"><ele>487.0</ele><time>2026-03-28T08:07:19.482Z</time></trkpt><trkpt lat="40.887585" lon="15.22254"><ele>487.0</ele><time>2026-03-28T08:07:20.483Z</time></trkpt><trkpt lat="40.88765" lon="15.2227417"><ele>487.0</ele><time>2026-03-28T08:07:21.483Z</time></trkpt><trkpt lat="40.88771" lon="15.22294"><ele>484.6666666666667</ele><time>2026-03-28T08:07:22.483Z</time></trkpt><trkpt lat="40.887775" lon="15.22314"><ele>482.33333333333337</ele><time>2026-03-28T08:07:23.482Z</time></trkpt><trkpt lat="40.8878433" lon="15.22335"><ele>480.0</ele><time>2026-03-28T08:07:24.483Z</time></trkpt><trkpt lat="40.8879133" lon="15.22356"><ele>480.0</ele><time>2026-03-28T08:07:25.482Z</time></trkpt><trkpt lat="40.8879783" lon="15.22377"><ele>480.0</ele><time>2026-03-28T08:07:26.483Z</time></trkpt><trkpt lat="40.8880467" lon="15.223985"><ele>480.0</ele><time>2026-03-28T08:07:27.483Z</time></trkpt><trkpt lat="40.8881133" lon="15.2242033"><ele>480.33333333333337</ele><time>2026-03-28T08:07:28.483Z</time></trkpt><trkpt lat="40.888175" lon="15.22442"><ele>480.6666666666667</ele><time>2026-03-28T08:07:29.483Z</time></trkpt><trkpt lat="40.888235" lon="15.2246267"><ele>481.0</ele><time>2026-03-28T08:07:30.483Z</time></trkpt><trkpt lat="40.8882933" lon="15.2248233"><ele>481.33333333333337</ele><time>2026-03-28T08:07:31.482Z</time></trkpt><trkpt lat="40.888355" lon="15.2250167"><ele>481.66666666666663</ele><time>2026-03-28T08:07:32.483Z</time></trkpt><trkpt lat="40.8884133" lon="15.225215"><ele>482.0</ele><time>2026-03-28T08:07:33.483Z</time></trkpt><trkpt lat="40.88847" lon="15.2254133"><ele>481.0</ele><time>2026-03-28T08:07:34.483Z</time></trkpt><trkpt lat="40.88853" lon="15.2256167"><ele>480.0</ele><time>2026-03-28T08:07:35.483Z</time></trkpt><trkpt lat="40.88859" lon="15.22582"><ele>479.0</ele><time>2026-03-28T08:07:36.483Z</time></trkpt><trkpt lat="40.88866" lon="15.22602"><ele>479.0</ele><time>2026-03-28T08:07:37.482Z</time></trkpt><trkpt lat="40.88873" lon="15.22622"><ele>479.0</ele><time>2026-03-28T08:07:38.483Z</time></trkpt><trkpt lat="40.888805" lon="15.2264167"><ele>479.0</ele><time>2026-03-28T08:07:39.483Z</time></trkpt><trkpt lat="40.8888833" lon="15.2265983"><ele>481.3333333333333</ele><time>2026-03-28T08:07:40.482Z</time></trkpt><trkpt lat="40.8889667" lon="15.2267767"><ele>483.66666666666663</ele><time>2026-03-28T08:07:41.483Z</time></trkpt><trkpt lat="40.88905" lon="15.2269517"><ele>486.0</ele><time>2026-03-28T08:07:42.483Z</time></trkpt><trkpt lat="40.889135" lon="15.2271217"><ele>486.0</ele><time>2026-03-28T08:07:43.482Z</time></trkpt><trkpt lat="40.8892217" lon="15.2272783"><ele>486.0</ele><time>2026-03-28T08:07:44.482Z</time></trkpt><trkpt lat="40.8893133" lon="15.22743"><ele>486.0</ele><time>2026-03-28T08:07:45.482Z</time></trkpt><trkpt lat="40.88941" lon="15.22757"><ele>486.0</ele><time>2026-03-28T08:07:46.483Z</time></trkpt><trkpt lat="40.88952" lon="15.2276983"><ele>485.0</ele><time>2026-03-28T08:07:47.482Z</time></trkpt><trkpt lat="40.8896417" lon="15.2278017"><ele>484.0</ele><time>2026-03-28T08:07:48.482Z</time></trkpt><trkpt lat="40.8897683" lon="15.2278983"><ele>483.0</ele><time>2026-03-28T08:07:49.483Z</time></trkpt><trkpt lat="40.889895" lon="15.22799"><ele>482.0</ele><time>2026-03-28T08:07:50.483Z</time></trkpt><trkpt lat="40.8900267" lon="15.2280917"><ele>481.3333333333333</ele><time>2026-03-28T08:07:51.483Z</time></trkpt><trkpt lat="40.8901683" lon="15.2281867"><ele>480.66666666666663</ele><time>2026-03-28T08:07:52.483Z</time></trkpt><trkpt lat="40.8903133" lon="15.22827"><ele>480.0</ele><time>2026-03-28T08:07:53.483Z</time></trkpt><trkpt lat="40.8904567" lon="15.2283533"><ele>480.0</ele><time>2026-03-28T08:07:54.483Z</time></trkpt><trkpt lat="40.8905983" lon="15.2284133"><ele>480.0</ele><time>2026-03-28T08:07:55.483Z</time></trkpt><trkpt lat="40.89075" lon="15.2284617"><ele>480.0</ele><time>2026-03-28T08:07:56.482Z</time></trkpt><trkpt lat="40.8909017" lon="15.228495"><ele>478.25</ele><time>2026-03-28T08:07:57.482Z</time></trkpt><trkpt lat="40.8910467" lon="15.22852"><ele>476.5</ele><time>2026-03-28T08:07:58.483Z</time></trkpt><trkpt lat="40.8911867" lon="15.228535"><ele>474.75</ele><time>2026-03-28T08:07:59.483Z</time></trkpt><trkpt lat="40.8913367" lon="15.2285483"><ele>473.0</ele><time>2026-03-28T08:08:00.483Z</time></trkpt><trkpt lat="40.8914883" lon="15.2285733"><ele>473.0</ele><time>2026-03-28T08:08:01.483Z</time></trkpt><trkpt lat="40.89164" lon="15.228605"><ele>473.0</ele><time>2026-03-28T08:08:02.483Z</time></trkpt><trkpt lat="40.891785" lon="15.2286567"><ele>473.0</ele><time>2026-03-28T08:08:03.482Z</time></trkpt><trkpt lat="40.8919283" lon="15.2287233"><ele>473.3333333333333</ele><time>2026-03-28T08:08:04.483Z</time></trkpt><trkpt lat="40.89207" lon="15.2287917"><ele>473.66666666666663</ele><time>2026-03-28T08:08:05.483Z</time></trkpt><trkpt lat="40.8922117" lon="15.2288833"><ele>474.0</ele><time>2026-03-28T08:08:06.483Z</time></trkpt><trkpt lat="40.89235" lon="15.2289833"><ele>474.0</ele><time>2026-03-28T08:08:07.483Z</time></trkpt><trkpt lat="40.8924817" lon="15.2291017"><ele>474.0</ele><time>2026-03-28T08:08:08.482Z</time></trkpt><trkpt lat="40.89261" lon="15.229235"><ele>474.0</ele><time>2026-03-28T08:08:09.483Z</time></trkpt><trkpt lat="40.892725" lon="15.229365"><ele>472.0</ele><time>2026-03-28T08:08:10.482Z</time></trkpt><trkpt lat="40.89284" lon="15.2295067"><ele>470.0</ele><time>2026-03-28T08:08:11.483Z</time></trkpt><trkpt lat="40.89294" lon="15.2296517"><ele>468.0</ele><time>2026-03-28T08:08:12.483Z</time></trkpt><trkpt lat="40.8930283" lon="15.229805"><ele>467.33333333333337</ele><time>2026-03-28T08:08:13.483Z</time></trkpt><trkpt lat="40.893105" lon="15.229975"><ele>466.6666666666667</ele><time>2026-03-28T08:08:14.483Z</time></trkpt><trkpt lat="40.8931783" lon="15.2301517"><ele>466.0</ele><time>2026-03-28T08:08:15.482Z</time></trkpt><trkpt lat="40.8932483" lon="15.2303333"><ele>466.0</ele><time>2026-03-28T08:08:16.482Z</time></trkpt><trkpt lat="40.893315" lon="15.2305117"><ele>466.0</ele><time>2026-03-28T08:08:17.483Z</time></trkpt><trkpt lat="40.89337" lon="15.23069"><ele>466.0</ele><time>2026-03-28T08:08:18.482Z</time></trkpt><trkpt lat="40.893415" lon="15.2308817"><ele>466.0</ele><time>2026-03-28T08:08:19.483Z</time></trkpt><trkpt lat="40.893445" lon="15.2310767"><ele>468.6666666666667</ele><time>2026-03-28T08:08:20.483Z</time></trkpt><trkpt lat="40.893465" lon="15.2312867"><ele>471.33333333333337</ele><time>2026-03-28T08:08:21.482Z</time></trkpt><trkpt lat="40.89348" lon="15.2314983"><ele>474.0</ele><time>2026-03-28T08:08:22.483Z</time></trkpt><trkpt lat="40.8934917" lon="15.2317067"><ele>474.0</ele><time>2026-03-28T08:08:23.482Z</time></trkpt><trkpt lat="40.8934933" lon="15.2319067"><ele>474.0</ele><time>2026-03-28T08:08:24.482Z</time></trkpt><trkpt lat="40.89349" lon="15.2321067"><ele>474.0</ele><time>2026-03-28T08:08:25.482Z</time></trkpt><trkpt lat="40.8934867" lon="15.2323167"><ele>473.66666666666663</ele><time>2026-03-28T08:08:26.482Z</time></trkpt><trkpt lat="40.8934783" lon="15.2325233"><ele>473.3333333333333</ele><time>2026-03-28T08:08:27.482Z</time></trkpt><trkpt lat="40.8934583" lon="15.2327233"><ele>473.0</ele><time>2026-03-28T08:08:28.482Z</time></trkpt><trkpt lat="40.8934483" lon="15.2329283"><ele>473.0</ele><time>2026-03-28T08:08:29.482Z</time></trkpt><trkpt lat="40.8934317" lon="15.23313"><ele>473.0</ele><time>2026-03-28T08:08:30.482Z</time></trkpt><trkpt lat="40.893405" lon="15.2333333"><ele>473.0</ele><time>2026-03-28T08:08:31.483Z</time></trkpt><trkpt lat="40.8933783" lon="15.23354"><ele>471.0</ele><time>2026-03-28T08:08:32.483Z</time></trkpt><trkpt lat="40.89334" lon="15.2337467"><ele>469.0</ele><time>2026-03-28T08:08:33.483Z</time></trkpt><trkpt lat="40.893295" lon="15.23395"><ele>467.0</ele><time>2026-03-28T08:08:34.483Z</time></trkpt><trkpt lat="40.8932383" lon="15.23415"><ele>467.0</ele><time>2026-03-28T08:08:35.482Z</time></trkpt><trkpt lat="40.893185" lon="15.2343533"><ele>467.0</ele><time>2026-03-28T08:08:36.483Z</time></trkpt><trkpt lat="40.8931283" lon="15.234555"><ele>467.0</ele><time>2026-03-28T08:08:37.482Z</time></trkpt><trkpt lat="40.8930683" lon="15.2347467"><ele>467.0</ele><time>2026-03-28T08:08:38.483Z</time></trkpt><trkpt lat="40.8929967" lon="15.2349367"><ele>467.0</ele><time>2026-03-28T08:08:39.482Z</time></trkpt><trkpt lat="40.8929217" lon="15.23512"><ele>467.0</ele><time>2026-03-28T08:08:40.483Z</time></trkpt><trkpt lat="40.8928517" lon="15.2353133"><ele>467.0</ele><time>2026-03-28T08:08:41.483Z</time></trkpt><trkpt lat="40.892785" lon="15.2355117"><ele>467.0</ele><time>2026-03-28T08:08:42.482Z</time></trkpt><trkpt lat="40.8927117" lon="15.2357"><ele>467.0</ele><time>2026-03-28T08:08:43.483Z</time></trkpt><trkpt lat="40.8926383" lon="15.2359"><ele>465.3333333333333</ele><time>2026-03-28T08:08:44.482Z</time></trkpt><trkpt lat="40.8925717" lon="15.2360967"><ele>463.66666666666663</ele><time>2026-03-28T08:08:45.482Z</time></trkpt><trkpt lat="40.8925017" lon="15.2362917"><ele>462.0</ele><time>2026-03-28T08:08:46.483Z</time></trkpt><trkpt lat="40.8924283" lon="15.2364867"><ele>462.0</ele><time>2026-03-28T08:08:47.483Z</time></trkpt><trkpt lat="40.8923667" lon="15.2366883"><ele>462.0</ele><time>2026-03-28T08:08:48.483Z</time></trkpt><trkpt lat="40.8923017" lon="15.236885"><ele>462.0</ele><time>2026-03-28T08:08:49.483Z</time></trkpt><trkpt lat="40.8922317" lon="15.23708"><ele>462.0</ele><time>2026-03-28T08:08:50.483Z</time></trkpt><trkpt lat="40.8921617" lon="15.23728"><ele>462.0</ele><time>2026-03-28T08:08:51.482Z</time></trkpt><trkpt lat="40.8920867" lon="15.2374817"><ele>462.0</ele><time>2026-03-28T08:08:52.483Z</time></trkpt><trkpt lat="40.8920133" lon="15.237685"><ele>462.66666666666663</ele><time>2026-03-28T08:08:53.483Z</time></trkpt><trkpt lat="40.8919417" lon="15.2378867"><ele>463.3333333333333</ele><time>2026-03-28T08:08:54.482Z</time></trkpt><trkpt lat="40.8918733" lon="15.2380883"><ele>464.0</ele><time>2026-03-28T08:08:55.482Z</time></trkpt><trkpt lat="40.8918067" lon="15.23828"><ele>462.66666666666663</ele><time>2026-03-28T08:08:56.483Z</time></trkpt><trkpt lat="40.8917467" lon="15.238475"><ele>461.33333333333337</ele><time>2026-03-28T08:08:57.482Z</time></trkpt><trkpt lat="40.8916917" lon="15.238675"><ele>460.0</ele><time>2026-03-28T08:08:58.483Z</time></trkpt><trkpt lat="40.89165" lon="15.2388817"><ele>460.33333333333337</ele><time>2026-03-28T08:08:59.482Z</time></trkpt><trkpt lat="40.8916117" lon="15.23909"><ele>460.66666666666663</ele><time>2026-03-28T08:09:00.483Z</time></trkpt><trkpt lat="40.8915833" lon="15.2393"><ele>461.0</ele><time>2026-03-28T08:09:01.482Z</time></trkpt><trkpt lat="40.8915667" lon="15.2395167"><ele>461.0</ele><time>2026-03-28T08:09:02.482Z</time></trkpt><trkpt lat="40.89157" lon="15.2397367"><ele>461.0</ele><time>2026-03-28T08:09:03.482Z</time></trkpt><trkpt lat="40.891575" lon="15.2399583"><ele>461.0</ele><time>2026-03-28T08:09:04.483Z</time></trkpt><trkpt lat="40.8915933" lon="15.2401783"><ele>461.0</ele><time>2026-03-28T08:09:05.483Z</time></trkpt><trkpt lat="40.8916233" lon="15.2404"><ele>461.0</ele><time>2026-03-28T08:09:06.482Z</time></trkpt><trkpt lat="40.8916617" lon="15.2406283"><ele>461.0</ele><time>2026-03-28T08:09:07.482Z</time></trkpt><trkpt lat="40.89171" lon="15.2408517"><ele>463.0</ele><time>2026-03-28T08:09:08.483Z</time></trkpt><trkpt lat="40.8917633" lon="15.24107"><ele>465.0</ele><time>2026-03-28T08:09:09.482Z</time></trkpt><trkpt lat="40.8918167" lon="15.2412733"><ele>467.0</ele><time>2026-03-28T08:09:10.484Z</time></trkpt><trkpt lat="40.8918767" lon="15.241475"><ele>467.0</ele><time>2026-03-28T08:09:11.484Z</time></trkpt><trkpt lat="40.8919383" lon="15.2416717"><ele>467.0</ele><time>2026-03-28T08:09:12.483Z</time></trkpt><trkpt lat="40.8920067" lon="15.2418617"><ele>467.0</ele><time>2026-03-28T08:09:13.484Z</time></trkpt><trkpt lat="40.8920717" lon="15.24206"><ele>467.0</ele><time>2026-03-28T08:09:14.484Z</time></trkpt><trkpt lat="40.8921333" lon="15.2422567"><ele>467.0</ele><time>2026-03-28T08:09:15.484Z</time></trkpt><trkpt lat="40.8921983" lon="15.2424617"><ele>467.0</ele><time>2026-03-28T08:09:16.484Z</time></trkpt><trkpt lat="40.892255" lon="15.242655"><ele>466.0</ele><time>2026-03-28T08:09:17.484Z</time></trkpt><trkpt lat="40.89231" lon="15.24285"><ele>465.0</ele><time>2026-03-28T08:09:18.484Z</time></trkpt><trkpt lat="40.8923667" lon="15.2430517"><ele>464.0</ele><time>2026-03-28T08:09:19.484Z</time></trkpt><trkpt lat="40.89241" lon="15.243255"><ele>463.3333333333333</ele><time>2026-03-28T08:09:20.484Z</time></trkpt><trkpt lat="40.8924467" lon="15.243465"><ele>462.66666666666663</ele><time>2026-03-28T08:09:21.484Z</time></trkpt><trkpt lat="40.8924783" lon="15.243675"><ele>462.0</ele><time>2026-03-28T08:09:22.484Z</time></trkpt><trkpt lat="40.8925117" lon="15.24389"><ele>461.66666666666663</ele><time>2026-03-28T08:09:23.484Z</time></trkpt><trkpt lat="40.89253" lon="15.2441083"><ele>461.3333333333333</ele><time>2026-03-28T08:09:24.484Z</time></trkpt><trkpt lat="40.8925417" lon="15.2443317"><ele>461.0</ele><time>2026-03-28T08:09:25.483Z</time></trkpt><trkpt lat="40.8925583" lon="15.24456"><ele>461.0</ele><time>2026-03-28T08:09:26.484Z</time></trkpt><trkpt lat="40.892565" lon="15.244785"><ele>461.0</ele><time>2026-03-28T08:09:27.483Z</time></trkpt><trkpt lat="40.8925617" lon="15.2450067"><ele>461.0</ele><time>2026-03-28T08:09:28.483Z</time></trkpt><trkpt lat="40.892565" lon="15.2452217"><ele>461.0</ele><time>2026-03-28T08:09:29.484Z</time></trkpt><trkpt lat="40.892575" lon="15.2454333"><ele>461.0</ele><time>2026-03-28T08:09:30.483Z</time></trkpt><trkpt lat="40.89258" lon="15.245645"><ele>461.0</ele><time>2026-03-28T08:09:31.484Z</time></trkpt><trkpt lat="40.89258" lon="15.24586"><ele>460.0</ele><time>2026-03-28T08:09:32.484Z</time></trkpt><trkpt lat="40.8925867" lon="15.2460783"><ele>459.0</ele><time>2026-03-28T08:09:33.484Z</time></trkpt><trkpt lat="40.8925983" lon="15.246295"><ele>458.0</ele><time>2026-03-28T08:09:34.484Z</time></trkpt><trkpt lat="40.892605" lon="15.2465117"><ele>460.75</ele><time>2026-03-28T08:09:35.483Z</time></trkpt><trkpt lat="40.8926083" lon="15.2467117"><ele>463.5</ele><time>2026-03-28T08:09:36.483Z</time></trkpt><trkpt lat="40.8926167" lon="15.2469067"><ele>466.25</ele><time>2026-03-28T08:09:37.484Z</time></trkpt><trkpt lat="40.89261" lon="15.2470983"><ele>469.0</ele><time>2026-03-28T08:09:38.484Z</time></trkpt><trkpt lat="40.8926017" lon="15.2472883"><ele>468.0</ele><time>2026-03-28T08:09:39.484Z</time></trkpt><trkpt lat="40.8925817" lon="15.24748"><ele>467.0</ele><time>2026-03-28T08:09:40.483Z</time></trkpt><trkpt lat="40.8925533" lon="15.2476717"><ele>466.0</ele><time>2026-03-28T08:09:41.483Z</time></trkpt><trkpt lat="40.892515" lon="15.247865"><ele>465.0</ele><time>2026-03-28T08:09:42.484Z</time></trkpt><trkpt lat="40.892465" lon="15.248065"><ele>466.0</ele><time>2026-03-28T08:09:43.484Z</time></trkpt><trkpt lat="40.8924033" lon="15.2482633"><ele>467.0</ele><time>2026-03-28T08:09:44.484Z</time></trkpt><trkpt lat="40.8923367" lon="15.2484583"><ele>468.0</ele><time>2026-03-28T08:09:45.483Z</time></trkpt><trkpt lat="40.8922667" lon="15.2486383"><ele>468.0</ele><time>2026-03-28T08:09:46.483Z</time></trkpt><trkpt lat="40.8922" lon="15.2488217"><ele>468.0</ele><time>2026-03-28T08:09:47.483Z</time></trkpt><trkpt lat="40.8921233" lon="15.2490067"><ele>468.0</ele><time>2026-03-28T08:09:48.483Z</time></trkpt><trkpt lat="40.8920417" lon="15.249185"><ele>470.33333333333337</ele><time>2026-03-28T08:09:49.483Z</time></trkpt><trkpt lat="40.8919567" lon="15.2493683"><ele>472.6666666666667</ele><time>2026-03-28T08:09:50.483Z</time></trkpt><trkpt lat="40.8918733" lon="15.2495483"><ele>475.0</ele><time>2026-03-28T08:09:51.484Z</time></trkpt><trkpt lat="40.89179" lon="15.2497267"><ele>473.33333333333337</ele><time>2026-03-28T08:09:52.484Z</time></trkpt><trkpt lat="40.89171" lon="15.2498967"><ele>471.66666666666663</ele><time>2026-03-28T08:09:53.483Z</time></trkpt><trkpt lat="40.8916283" lon="15.2500633"><ele>470.0</ele><time>2026-03-28T08:09:54.484Z</time></trkpt><trkpt lat="40.89155" lon="15.2502333"><ele>470.0</ele><time>2026-03-28T08:09:55.484Z</time></trkpt><trkpt lat="40.891465" lon="15.2504083"><ele>470.0</ele><time>2026-03-28T08:09:56.484Z</time></trkpt><trkpt lat="40.89138" lon="15.2505933"><ele>470.0</ele><time>2026-03-28T08:09:57.483Z</time></trkpt><trkpt lat="40.8912967" lon="15.2507817"><ele>473.0</ele><time>2026-03-28T08:09:58.484Z</time></trkpt><trkpt lat="40.8912117" lon="15.25097"><ele>476.0</ele><time>2026-03-28T08:09:59.483Z</time></trkpt><trkpt lat="40.89113" lon="15.251155"><ele>479.0</ele><time>2026-03-28T08:10:00.484Z</time></trkpt><trkpt lat="40.8910533" lon="15.25133"><ele>477.3333333333333</ele><time>2026-03-28T08:10:01.484Z</time></trkpt><trkpt lat="40.8909783" lon="15.251505"><ele>475.66666666666663</ele><time>2026-03-28T08:10:02.483Z</time></trkpt><trkpt lat="40.8908933" lon="15.25168"><ele>474.0</ele><time>2026-03-28T08:10:03.484Z</time></trkpt><trkpt lat="40.89081" lon="15.251855"><ele>474.0</ele><time>2026-03-28T08:10:04.484Z</time></trkpt><trkpt lat="40.8907317" lon="15.2520333"><ele>474.0</ele><time>2026-03-28T08:10:05.483Z</time></trkpt><trkpt lat="40.8906567" lon="15.2522183"><ele>474.0</ele><time>2026-03-28T08:10:06.484Z</time></trkpt><trkpt lat="40.8905733" lon="15.2524083"><ele>475.66666666666663</ele><time>2026-03-28T08:10:07.483Z</time></trkpt><trkpt lat="40.8904883" lon="15.2526"><ele>477.3333333333333</ele><time>2026-03-28T08:10:08.483Z</time></trkpt><trkpt lat="40.8904" lon="15.25279"><ele>479.0</ele><time>2026-03-28T08:10:09.484Z</time></trkpt><trkpt lat="40.890305" lon="15.252985"><ele>481.0</ele><time>2026-03-28T08:10:10.484Z</time></trkpt><trkpt lat="40.8902133" lon="15.2531833"><ele>483.0</ele><time>2026-03-28T08:10:11.484Z</time></trkpt><trkpt lat="40.8901233" lon="15.253385"><ele>485.0</ele><time>2026-03-28T08:10:12.483Z</time></trkpt><trkpt lat="40.8900267" lon="15.253595"><ele>482.3333333333333</ele><time>2026-03-28T08:10:13.484Z</time></trkpt><trkpt lat="40.8899267" lon="15.253795"><ele>479.66666666666663</ele><time>2026-03-28T08:10:14.484Z</time></trkpt><trkpt lat="40.8898317" lon="15.2539817"><ele>477.0</ele><time>2026-03-28T08:10:15.483Z</time></trkpt><trkpt lat="40.88973" lon="15.2541667"><ele>477.0</ele><time>2026-03-28T08:10:16.483Z</time></trkpt><trkpt lat="40.8896333" lon="15.2543533"><ele>477.0</ele><time>2026-03-28T08:10:17.484Z</time></trkpt><trkpt lat="40.889535" lon="15.2545433"><ele>477.0</ele><time>2026-03-28T08:10:18.483Z</time></trkpt><trkpt lat="40.8894283" lon="15.2547367"><ele>478.33333333333337</ele><time>2026-03-28T08:10:19.484Z</time></trkpt><trkpt lat="40.889325" lon="15.25493"><ele>479.6666666666667</ele><time>2026-03-28T08:10:20.484Z</time></trkpt><trkpt lat="40.88922" lon="15.25512"><ele>481.0</ele><time>2026-03-28T08:10:21.483Z</time></trkpt><trkpt lat="40.8891217" lon="15.255315"><ele>479.0</ele><time>2026-03-28T08:10:22.484Z</time></trkpt><trkpt lat="40.8890317" lon="15.255505"><ele>477.0</ele><time>2026-03-28T08:10:23.483Z</time></trkpt><trkpt lat="40.8889333" lon="15.2556983"><ele>475.0</ele><time>2026-03-28T08:10:24.484Z</time></trkpt><trkpt lat="40.8888317" lon="15.25589"><ele>475.0</ele><time>2026-03-28T08:10:25.484Z</time></trkpt><trkpt lat="40.8887317" lon="15.25609"><ele>475.0</ele><time>2026-03-28T08:10:26.484Z</time></trkpt><trkpt lat="40.8886217" lon="15.2562933"><ele>475.0</ele><time>2026-03-28T08:10:27.483Z</time></trkpt><trkpt lat="40.8885133" lon="15.256495"><ele>471.6666666666667</ele><time>2026-03-28T08:10:28.484Z</time></trkpt><trkpt lat="40.8884033" lon="15.256695"><ele>468.33333333333337</ele><time>2026-03-28T08:10:29.484Z</time></trkpt><trkpt lat="40.8882967" lon="15.256895"><ele>465.0</ele><time>2026-03-28T08:10:30.484Z</time></trkpt><trkpt lat="40.8881917" lon="15.2570983"><ele>465.0</ele><time>2026-03-28T08:10:31.484Z</time></trkpt><trkpt lat="40.8880917" lon="15.257285"><ele>465.0</ele><time>2026-03-28T08:10:32.484Z</time></trkpt><trkpt lat="40.8879933" lon="15.257475"><ele>465.0</ele><time>2026-03-28T08:10:33.484Z</time></trkpt><trkpt lat="40.8878917" lon="15.2576667"><ele>462.0</ele><time>2026-03-28T08:10:34.484Z</time></trkpt><trkpt lat="40.8878" lon="15.2578533"><ele>459.0</ele><time>2026-03-28T08:10:35.483Z</time></trkpt><trkpt lat="40.887713" lon="15.2580351"><ele>456.0</ele><time>2026-03-28T08:10:36.483Z</time></trkpt><trkpt lat="40.8876341" lon="15.2582158"><ele>455.25</ele><time>2026-03-28T08:10:37.484Z</time></trkpt><trkpt lat="40.8875654" lon="15.2583859"><ele>454.5</ele><time>2026-03-28T08:10:38.483Z</time></trkpt><trkpt lat="40.8875027" lon="15.2585584"><ele>453.75</ele><time>2026-03-28T08:10:39.484Z</time></trkpt><trkpt lat="40.887444" lon="15.258735"><ele>453.0</ele><time>2026-03-28T08:10:40.484Z</time></trkpt><trkpt lat="40.8873888" lon="15.2589197"><ele>452.33333333333337</ele><time>2026-03-28T08:10:41.484Z</time></trkpt><trkpt lat="40.887341" lon="15.259114"><ele>451.6666666666667</ele><time>2026-03-28T08:10:42.483Z</time></trkpt><trkpt lat="40.8872935" lon="15.2593202"><ele>451.0</ele><time>2026-03-28T08:10:43.483Z</time></trkpt><trkpt lat="40.8872557" lon="15.2595363"><ele>451.0</ele><time>2026-03-28T08:10:44.484Z</time></trkpt><trkpt lat="40.8872247" lon="15.259746"><ele>451.0</ele><time>2026-03-28T08:10:45.484Z</time></trkpt><trkpt lat="40.8872003" lon="15.2599536"><ele>451.0</ele><time>2026-03-28T08:10:46.484Z</time></trkpt><trkpt lat="40.8871779" lon="15.2601633"><ele>452.0</ele><time>2026-03-28T08:10:47.484Z</time></trkpt><trkpt lat="40.8871574" lon="15.2603721"><ele>453.0</ele><time>2026-03-28T08:10:48.484Z</time></trkpt><trkpt lat="40.887134" lon="15.260572"><ele>454.0</ele><time>2026-03-28T08:10:49.484Z</time></trkpt><trkpt lat="40.8871122" lon="15.2607622"><ele>455.75</ele><time>2026-03-28T08:10:50.483Z</time></trkpt><trkpt lat="40.8870908" lon="15.2609447"><ele>457.5</ele><time>2026-03-28T08:10:51.484Z</time></trkpt><trkpt lat="40.8870711" lon="15.2611202"><ele>459.25</ele><time>2026-03-28T08:10:52.484Z</time></trkpt><trkpt lat="40.8870582" lon="15.261285"><ele>461.0</ele><time>2026-03-28T08:10:53.483Z</time></trkpt><trkpt lat="40.8870411" lon="15.2614647"><ele>463.5</ele><time>2026-03-28T08:10:54.483Z</time></trkpt><trkpt lat="40.8870242" lon="15.2616475"><ele>466.0</ele><time>2026-03-28T08:10:55.484Z</time></trkpt><trkpt lat="40.8870091" lon="15.2618277"><ele>468.5</ele><time>2026-03-28T08:10:56.484Z</time></trkpt><trkpt lat="40.8869946" lon="15.2619877"><ele>471.0</ele><time>2026-03-28T08:10:57.484Z</time></trkpt><trkpt lat="40.8869747" lon="15.2621442"><ele>471.0</ele><time>2026-03-28T08:10:58.484Z</time></trkpt><trkpt lat="40.8869543" lon="15.2622719"><ele>471.0</ele><time>2026-03-28T08:10:59.484Z</time></trkpt><trkpt lat="40.8869357" lon="15.2623783"><ele>471.0</ele><time>2026-03-28T08:11:00.483Z</time></trkpt><trkpt lat="40.8869188" lon="15.2624639"><ele>471.0</ele><time>2026-03-28T08:11:01.483Z</time></trkpt><trkpt lat="40.8868856" lon="15.2626083"><ele>471.0</ele><time>2026-03-28T08:11:03.484Z</time></trkpt><trkpt lat="40.8868794" lon="15.26277"><ele>471.5</ele><time>2026-03-28T08:11:05.483Z</time></trkpt><trkpt lat="40.8869091" lon="15.2629246"><ele>472.0</ele><time>2026-03-28T08:11:07.483Z</time></trkpt><trkpt lat="40.8869269" lon="15.2630081"><ele>472.5</ele><time>2026-03-28T08:11:08.483Z</time></trkpt><trkpt lat="40.8869408" lon="15.2631045"><ele>473.0</ele><time>2026-03-28T08:11:09.483Z</time></trkpt><trkpt lat="40.8869531" lon="15.2632121"><ele>473.5</ele><time>2026-03-28T08:11:10.484Z</time></trkpt><trkpt lat="40.8869565" lon="15.2633308"><ele>474.0</ele><time>2026-03-28T08:11:11.483Z</time></trkpt><trkpt lat="40.8869596" lon="15.2634567"><ele>472.5</ele><time>2026-03-28T08:11:12.484Z</time></trkpt><trkpt lat="40.8869634" lon="15.2635939"><ele>471.0</ele><time>2026-03-28T08:11:13.483Z</time></trkpt><trkpt lat="40.8869675" lon="15.2637411"><ele>469.5</ele><time>2026-03-28T08:11:14.484Z</time></trkpt><trkpt lat="40.8869764" lon="15.263901"><ele>468.0</ele><time>2026-03-28T08:11:15.484Z</time></trkpt><trkpt lat="40.8869896" lon="15.264057"><ele>467.25</ele><time>2026-03-28T08:11:16.483Z</time></trkpt><trkpt lat="40.8870085" lon="15.2642038"><ele>466.5</ele><time>2026-03-28T08:11:17.483Z</time></trkpt><trkpt lat="40.8870251" lon="15.2643547"><ele>465.75</ele><time>2026-03-28T08:11:18.484Z</time></trkpt><trkpt lat="40.8870496" lon="15.2645045"><ele>465.0</ele><time>2026-03-28T08:11:19.484Z</time></trkpt><trkpt lat="40.8870833" lon="15.26465"><ele>463.0</ele><time>2026-03-28T08:11:20.483Z</time></trkpt><trkpt lat="40.8871267" lon="15.2647983"><ele>461.0</ele><time>2026-03-28T08:11:21.483Z</time></trkpt><trkpt lat="40.88717" lon="15.2649467"><ele>459.0</ele><time>2026-03-28T08:11:22.484Z</time></trkpt><trkpt lat="40.8872133" lon="15.2651017"><ele>457.0</ele><time>2026-03-28T08:11:23.484Z</time></trkpt><trkpt lat="40.8872583" lon="15.2652633"><ele>457.0</ele><time>2026-03-28T08:11:24.484Z</time></trkpt><trkpt lat="40.8872983" lon="15.2654167"><ele>457.0</ele><time>2026-03-28T08:11:25.484Z</time></trkpt><trkpt lat="40.8873417" lon="15.265565"><ele>457.0</ele><time>2026-03-28T08:11:26.484Z</time></trkpt><trkpt lat="40.8873867" lon="15.2657083"><ele>457.0</ele><time>2026-03-28T08:11:27.484Z</time></trkpt><trkpt lat="40.8874317" lon="15.265865"><ele>456.0</ele><time>2026-03-28T08:11:28.483Z</time></trkpt><trkpt lat="40.8874683" lon="15.26603"><ele>455.0</ele><time>2026-03-28T08:11:29.484Z</time></trkpt><trkpt lat="40.8874933" lon="15.2662"><ele>454.0</ele><time>2026-03-28T08:11:30.483Z</time></trkpt><trkpt lat="40.8875167" lon="15.266365"><ele>453.0</ele><time>2026-03-28T08:11:31.484Z</time></trkpt><trkpt lat="40.8875367" lon="15.266525"><ele>452.2</ele><time>2026-03-28T08:11:32.484Z</time></trkpt><trkpt lat="40.88755" lon="15.2666733"><ele>451.4</ele><time>2026-03-28T08:11:33.484Z</time></trkpt><trkpt lat="40.8875617" lon="15.2668217"><ele>450.59999999999997</ele><time>2026-03-28T08:11:34.484Z</time></trkpt><trkpt lat="40.88757" lon="15.266965"><ele>449.79999999999995</ele><time>2026-03-28T08:11:35.483Z</time></trkpt><trkpt lat="40.88757" lon="15.267105"><ele>449.0</ele><time>2026-03-28T08:11:36.483Z</time></trkpt><trkpt lat="40.8875517" lon="15.26725"><ele>449.25</ele><time>2026-03-28T08:11:37.484Z</time></trkpt><trkpt lat="40.8875167" lon="15.2674"><ele>449.5</ele><time>2026-03-28T08:11:38.484Z</time></trkpt><trkpt lat="40.8874733" lon="15.267545"><ele>449.75</ele><time>2026-03-28T08:11:39.484Z</time></trkpt><trkpt lat="40.88743" lon="15.2676967"><ele>450.0</ele><time>2026-03-28T08:11:40.484Z</time></trkpt><trkpt lat="40.88739" lon="15.267845"><ele>450.0</ele><time>2026-03-28T08:11:41.484Z</time></trkpt><trkpt lat="40.8873667" lon="15.267995"><ele>450.0</ele><time>2026-03-28T08:11:42.483Z</time></trkpt><trkpt lat="40.8873517" lon="15.268135"><ele>450.0</ele><time>2026-03-28T08:11:43.484Z</time></trkpt><trkpt lat="40.88735" lon="15.26827"><ele>450.0</ele><time>2026-03-28T08:11:44.484Z</time></trkpt><trkpt lat="40.8873467" lon="15.26839"><ele>450.0</ele><time>2026-03-28T08:11:45.484Z</time></trkpt><trkpt lat="40.887345" lon="15.268495"><ele>450.1428571428572</ele><time>2026-03-28T08:11:46.483Z</time></trkpt><trkpt lat="40.8873433" lon="15.2685883"><ele>450.28571428571433</ele><time>2026-03-28T08:11:47.484Z</time></trkpt><trkpt lat="40.8873417" lon="15.2686767"><ele>450.42857142857144</ele><time>2026-03-28T08:11:48.483Z</time></trkpt><trkpt lat="40.887345" lon="15.2687617"><ele>450.5714285714286</ele><time>2026-03-28T08:11:49.483Z</time></trkpt><trkpt lat="40.8873367" lon="15.268855"><ele>450.7142857142858</ele><time>2026-03-28T08:11:50.483Z</time></trkpt><trkpt lat="40.8873283" lon="15.2689567"><ele>450.85714285714283</ele><time>2026-03-28T08:11:51.484Z</time></trkpt><trkpt lat="40.887315" lon="15.269055"><ele>451.0</ele><time>2026-03-28T08:11:52.483Z</time></trkpt><trkpt lat="40.8872983" lon="15.269155"><ele>451.1666666666667</ele><time>2026-03-28T08:11:53.484Z</time></trkpt><trkpt lat="40.8872717" lon="15.26925"><ele>451.33333333333337</ele><time>2026-03-28T08:11:54.484Z</time></trkpt><trkpt lat="40.887245" lon="15.2693517"><ele>451.5</ele><time>2026-03-28T08:11:55.484Z</time></trkpt><trkpt lat="40.887225" lon="15.2694583"><ele>451.66666666666663</ele><time>2026-03-28T08:11:56.484Z</time></trkpt><trkpt lat="40.8872017" lon="15.269565"><ele>451.8333333333333</ele><time>2026-03-28T08:11:57.484Z</time></trkpt><trkpt lat="40.887175" lon="15.2696783"><ele>452.0</ele><time>2026-03-28T08:11:58.484Z</time></trkpt><trkpt lat="40.8871517" lon="15.2697917"><ele>452.16666666666663</ele><time>2026-03-28T08:11:59.483Z</time></trkpt><trkpt lat="40.88713" lon="15.2698933"><ele>452.3333333333333</ele><time>2026-03-28T08:12:00.483Z</time></trkpt><trkpt lat="40.8871183" lon="15.26999"><ele>452.5</ele><time>2026-03-28T08:12:01.484Z</time></trkpt><trkpt lat="40.887115" lon="15.27009"><ele>452.66666666666663</ele><time>2026-03-28T08:12:02.484Z</time></trkpt><trkpt lat="40.8871167" lon="15.270195"><ele>452.8333333333333</ele><time>2026-03-28T08:12:03.483Z</time></trkpt><trkpt lat="40.8871233" lon="15.2702917"><ele>453.0</ele><time>2026-03-28T08:12:04.483Z</time></trkpt><trkpt lat="40.887135" lon="15.2703917"><ele>453.0</ele><time>2026-03-28T08:12:05.483Z</time></trkpt><trkpt lat="40.8871683" lon="15.2705317"><ele>452.99999999999994</ele><time>2026-03-28T08:12:07.483Z</time></trkpt><trkpt lat="40.88719" lon="15.2706417"><ele>452.99999999999994</ele><time>2026-03-28T08:12:09.484Z</time></trkpt><trkpt lat="40.88723" lon="15.2707433"><ele>453.0</ele><time>2026-03-28T08:12:11.483Z</time></trkpt><trkpt lat="40.8872883" lon="15.2708667"><ele>453.0</ele><time>2026-03-28T08:12:13.484Z</time></trkpt><trkpt lat="40.8873317" lon="15.27094"><ele>453.6666666666667</ele><time>2026-03-28T08:12:14.484Z</time></trkpt><trkpt lat="40.887385" lon="15.2710117"><ele>454.33333333333337</ele><time>2026-03-28T08:12:15.484Z</time></trkpt><trkpt lat="40.8874367" lon="15.2710783"><ele>455.0</ele><time>2026-03-28T08:12:16.484Z</time></trkpt><trkpt lat="40.88749" lon="15.2711367"><ele>455.6666666666667</ele><time>2026-03-28T08:12:17.483Z</time></trkpt><trkpt lat="40.887545" lon="15.2711933"><ele>456.33333333333337</ele><time>2026-03-28T08:12:18.484Z</time></trkpt><trkpt lat="40.8876" lon="15.2712533"><ele>457.0</ele><time>2026-03-28T08:12:19.484Z</time></trkpt><trkpt lat="40.887695" lon="15.27135"><ele>456.20000000000005</ele><time>2026-03-28T08:12:21.483Z</time></trkpt><trkpt lat="40.8877917" lon="15.2714517"><ele>455.40000000000003</ele><time>2026-03-28T08:12:23.483Z</time></trkpt><trkpt lat="40.8878783" lon="15.2715317"><ele>454.59999999999997</ele><time>2026-03-28T08:12:25.484Z</time></trkpt><trkpt lat="40.8879583" lon="15.2715733"><ele>453.79999999999995</ele><time>2026-03-28T08:12:50.484Z</time></trkpt><trkpt lat="40.8880117" lon="15.2716533"><ele>453.0</ele><time>2026-03-28T08:12:53.484Z</time></trkpt><trkpt lat="40.8880883" lon="15.2717533"><ele>453.0</ele><time>2026-03-28T08:13:02.484Z</time></trkpt><trkpt lat="40.8881733" lon="15.2718583"><ele>452.99999999999994</ele><time>2026-03-28T08:13:04.483Z</time></trkpt><trkpt lat="40.8882567" lon="15.2719633"><ele>452.99999999999994</ele><time>2026-03-28T08:13:06.484Z</time></trkpt><trkpt lat="40.88834" lon="15.27206"><ele>453.0</ele><time>2026-03-28T08:13:08.483Z</time></trkpt><trkpt lat="40.8884133" lon="15.2721383"><ele>453.0</ele><time>2026-03-28T08:13:10.484Z</time></trkpt><trkpt lat="40.8884617" lon="15.2721933"><ele>452.79999999999995</ele><time>2026-03-28T08:13:12.484Z</time></trkpt><trkpt lat="40.888505" lon="15.2722567"><ele>452.59999999999997</ele><time>2026-03-28T08:13:37.484Z</time></trkpt><trkpt lat="40.88857" lon="15.2723483"><ele>452.40000000000003</ele><time>2026-03-28T08:13:40.483Z</time></trkpt><trkpt lat="40.88864" lon="15.272425"><ele>452.20000000000005</ele><time>2026-03-28T08:13:42.484Z</time></trkpt><trkpt lat="40.88873" lon="15.272485"><ele>452.0</ele><time>2026-03-28T08:13:44.483Z</time></trkpt><trkpt lat="40.88882" lon="15.2725433"><ele>452.0</ele><time>2026-03-28T08:13:46.483Z</time></trkpt><trkpt lat="40.888915" lon="15.2725767"><ele>452.00000000000006</ele><time>2026-03-28T08:13:48.485Z</time></trkpt><trkpt lat="40.8890083" lon="15.2726"><ele>452.00000000000006</ele><time>2026-03-28T08:13:50.485Z</time></trkpt><trkpt lat="40.8891133" lon="15.2726117"><ele>452.0</ele><time>2026-03-28T08:13:52.484Z</time></trkpt><trkpt lat="40.8892117" lon="15.27262"><ele>452.0</ele><time>2026-03-28T08:13:54.484Z</time></trkpt><trkpt lat="40.8893" lon="15.2726333"><ele>452.99999999999994</ele><time>2026-03-28T08:13:56.484Z</time></trkpt><trkpt lat="40.889395" lon="15.272655"><ele>454.0</ele><time>2026-03-28T08:13:58.484Z</time></trkpt><trkpt lat="40.8894767" lon="15.2726867"><ele>455.0</ele><time>2026-03-28T08:14:00.484Z</time></trkpt><trkpt lat="40.8895417" lon="15.2727117"><ele>456.0</ele><time>2026-03-28T08:14:31.485Z</time></trkpt><trkpt lat="40.8896133" lon="15.2727567"><ele>456.99999999999994</ele><time>2026-03-28T08:14:33.484Z</time></trkpt><trkpt lat="40.8897133" lon="15.27282"><ele>458.0</ele><time>2026-03-28T08:14:35.484Z</time></trkpt><trkpt lat="40.88982" lon="15.272885"><ele>458.0</ele><time>2026-03-28T08:14:37.485Z</time></trkpt><trkpt lat="40.8899167" lon="15.27294"><ele>458.0</ele><time>2026-03-28T08:14:39.484Z</time></trkpt><trkpt lat="40.8900233" lon="15.2729933"><ele>458.0</ele><time>2026-03-28T08:14:41.485Z</time></trkpt><trkpt lat="40.8901283" lon="15.2730617"><ele>458.0</ele><time>2026-03-28T08:14:43.485Z</time></trkpt><trkpt lat="40.8902283" lon="15.2731333"><ele>456.99999999999994</ele><time>2026-03-28T08:14:45.484Z</time></trkpt><trkpt lat="40.8902883" lon="15.2731717"><ele>456.0</ele><time>2026-03-28T08:14:46.485Z</time></trkpt><trkpt lat="40.8903483" lon="15.273205"><ele>455.0</ele><time>2026-03-28T08:14:47.484Z</time></trkpt><trkpt lat="40.8904067" lon="15.273245"><ele>454.0</ele><time>2026-03-28T08:14:48.485Z</time></trkpt><trkpt lat="40.8905133" lon="15.27332"><ele>452.99999999999994</ele><time>2026-03-28T08:14:50.485Z</time></trkpt><trkpt lat="40.8906117" lon="15.2733933"><ele>452.0</ele><time>2026-03-28T08:14:52.485Z</time></trkpt><trkpt lat="40.890715" lon="15.2734467"><ele>451.99999999999994</ele><time>2026-03-28T08:14:54.485Z</time></trkpt><trkpt lat="40.8907717" lon="15.2734833"><ele>452.0</ele><time>2026-03-28T08:14:55.484Z</time></trkpt><trkpt lat="40.8908633" lon="15.273555"><ele>452.0</ele><time>2026-03-28T08:14:57.484Z</time></trkpt><trkpt lat="40.8909467" lon="15.2736017"><ele>452.0</ele><time>2026-03-28T08:14:59.484Z</time></trkpt><trkpt lat="40.8910233" lon="15.27363"><ele>451.99999999999994</ele><time>2026-03-28T08:15:01.485Z</time></trkpt><trkpt lat="40.891105" lon="15.27368"><ele>452.0</ele><time>2026-03-28T08:15:03.484Z</time></trkpt><trkpt lat="40.8912233" lon="15.2737633"><ele>452.0</ele><time>2026-03-28T08:15:05.485Z</time></trkpt><trkpt lat="40.8913267" lon="15.27383"><ele>452.00000000000006</ele><time>2026-03-28T08:15:07.485Z</time></trkpt><trkpt lat="40.8913833" lon="15.2738667"><ele>452.00000000000006</ele><time>2026-03-28T08:15:08.485Z</time></trkpt><trkpt lat="40.8914833" lon="15.2739333"><ele>452.0</ele><time>2026-03-28T08:15:10.484Z</time></trkpt><trkpt lat="40.8915783" lon="15.2739983"><ele>452.0</ele><time>2026-03-28T08:15:12.484Z</time></trkpt><trkpt lat="40.8916683" lon="15.2740617"><ele>453.20000000000005</ele><time>2026-03-28T08:15:14.484Z</time></trkpt><trkpt lat="40.8917733" lon="15.2741283"><ele>454.40000000000003</ele><time>2026-03-28T08:15:16.484Z</time></trkpt><trkpt lat="40.89183" lon="15.274165"><ele>455.59999999999997</ele><time>2026-03-28T08:15:17.485Z</time></trkpt><trkpt lat="40.8919417" lon="15.2742283"><ele>456.79999999999995</ele><time>2026-03-28T08:15:19.485Z</time></trkpt><trkpt lat="40.892005" lon="15.2742567"><ele>458.0</ele><time>2026-03-28T08:15:20.484Z</time></trkpt><trkpt lat="40.8921183" lon="15.2743017"><ele>457.99999999999994</ele><time>2026-03-28T08:15:22.485Z</time></trkpt><trkpt lat="40.8921817" lon="15.2743333"><ele>458.0</ele><time>2026-03-28T08:15:23.484Z</time></trkpt><trkpt lat="40.8922483" lon="15.27436"><ele>458.0</ele><time>2026-03-28T08:15:24.485Z</time></trkpt><trkpt lat="40.8923633" lon="15.2744083"><ele>458.0</ele><time>2026-03-28T08:15:26.485Z</time></trkpt><trkpt lat="40.892425" lon="15.2744333"><ele>457.99999999999994</ele><time>2026-03-28T08:15:27.485Z</time></trkpt><trkpt lat="40.8924867" lon="15.2744617"><ele>458.0</ele><time>2026-03-28T08:15:28.484Z</time></trkpt><trkpt lat="40.8925983" lon="15.2745133"><ele>459.79999999999995</ele><time>2026-03-28T08:15:30.485Z</time></trkpt><trkpt lat="40.8926583" lon="15.27454"><ele>461.59999999999997</ele><time>2026-03-28T08:15:31.485Z</time></trkpt><trkpt lat="40.8927183" lon="15.2745667"><ele>463.40000000000003</ele><time>2026-03-28T08:15:32.484Z</time></trkpt><trkpt lat="40.89282" lon="15.2746183"><ele>465.20000000000005</ele><time>2026-03-28T08:15:34.485Z</time></trkpt><trkpt lat="40.8929267" lon="15.2746717"><ele>467.0</ele><time>2026-03-28T08:15:36.484Z</time></trkpt><trkpt lat="40.8930317" lon="15.2747183"><ele>467.0</ele><time>2026-03-28T08:15:38.484Z</time></trkpt><trkpt lat="40.8931367" lon="15.27477"><ele>467.00000000000006</ele><time>2026-03-28T08:15:40.485Z</time></trkpt><trkpt lat="40.8932433" lon="15.274825"><ele>467.00000000000006</ele><time>2026-03-28T08:15:42.485Z</time></trkpt><trkpt lat="40.8933283" lon="15.2748733"><ele>467.0</ele><time>2026-03-28T08:15:44.485Z</time></trkpt><trkpt lat="40.8933917" lon="15.2748967"><ele>467.0</ele><time>2026-03-28T08:15:46.485Z</time></trkpt><trkpt lat="40.8934617" lon="15.27494"><ele>467.49999999999994</ele><time>2026-03-28T08:15:48.485Z</time></trkpt><trkpt lat="40.8935383" lon="15.2749833"><ele>468.0</ele><time>2026-03-28T08:15:50.484Z</time></trkpt><trkpt lat="40.89362" lon="15.27504"><ele>468.5</ele><time>2026-03-28T08:15:52.485Z</time></trkpt><trkpt lat="40.8936983" lon="15.275095"><ele>469.0</ele><time>2026-03-28T08:15:54.485Z</time></trkpt><trkpt lat="40.8937767" lon="15.2751367"><ele>469.49999999999994</ele><time>2026-03-28T08:15:56.484Z</time></trkpt><trkpt lat="40.8938667" lon="15.27519"><ele>470.0</ele><time>2026-03-28T08:15:58.484Z</time></trkpt><trkpt lat="40.893945" lon="15.275255"><ele>470.0</ele><time>2026-03-28T08:16:00.485Z</time></trkpt><trkpt lat="40.89405" lon="15.2753283"><ele>470.0</ele><time>2026-03-28T08:16:02.485Z</time></trkpt><trkpt lat="40.8941567" lon="15.2754033"><ele>470.0</ele><time>2026-03-28T08:16:04.485Z</time></trkpt><trkpt lat="40.89427" lon="15.2754733"><ele>470.0</ele><time>2026-03-28T08:16:06.485Z</time></trkpt><trkpt lat="40.8943283" lon="15.275505"><ele>470.0</ele><time>2026-03-28T08:16:07.485Z</time></trkpt><trkpt lat="40.8943867" lon="15.2755367"><ele>470.0</ele><time>2026-03-28T08:16:08.485Z</time></trkpt><trkpt lat="40.8944933" lon="15.2755883"><ele>470.0</ele><time>2026-03-28T08:16:10.485Z</time></trkpt><trkpt lat="40.8946017" lon="15.27564"><ele>470.0</ele><time>2026-03-28T08:16:12.485Z</time></trkpt><trkpt lat="40.8946633" lon="15.2756717"><ele>470.0</ele><time>2026-03-28T08:16:13.485Z</time></trkpt><trkpt lat="40.89477" lon="15.2757317"><ele>470.0</ele><time>2026-03-28T08:16:15.485Z</time></trkpt><trkpt lat="40.8948733" lon="15.275805"><ele>470.0</ele><time>2026-03-28T08:16:17.485Z</time></trkpt><trkpt lat="40.894935" lon="15.2758383"><ele>470.0</ele><time>2026-03-28T08:16:18.484Z</time></trkpt><trkpt lat="40.8950333" lon="15.2759017"><ele>470.0</ele><time>2026-03-28T08:16:20.485Z</time></trkpt><trkpt lat="40.8951417" lon="15.2759733"><ele>470.0</ele><time>2026-03-28T08:16:22.484Z</time></trkpt><trkpt lat="40.8952433" lon="15.276025"><ele>470.0</ele><time>2026-03-28T08:16:24.484Z</time></trkpt><trkpt lat="40.895345" lon="15.27608"><ele>471.2</ele><time>2026-03-28T08:16:26.484Z</time></trkpt><trkpt lat="40.8954433" lon="15.2761567"><ele>472.4</ele><time>2026-03-28T08:16:28.485Z</time></trkpt><trkpt lat="40.89555" lon="15.2762183"><ele>473.6</ele><time>2026-03-28T08:16:30.485Z</time></trkpt><trkpt lat="40.8956517" lon="15.2763033"><ele>474.8</ele><time>2026-03-28T08:16:32.484Z</time></trkpt><trkpt lat="40.8957117" lon="15.2763433"><ele>476.0</ele><time>2026-03-28T08:16:33.485Z</time></trkpt><trkpt lat="40.895775" lon="15.276385"><ele>475.5</ele><time>2026-03-28T08:16:34.485Z</time></trkpt><trkpt lat="40.8958917" lon="15.2764467"><ele>475.0</ele><time>2026-03-28T08:16:36.485Z</time></trkpt><trkpt lat="40.89599" lon="15.276515"><ele>474.5</ele><time>2026-03-28T08:16:38.485Z</time></trkpt><trkpt lat="40.896105" lon="15.2765717"><ele>474.0</ele><time>2026-03-28T08:16:40.485Z</time></trkpt><trkpt lat="40.896215" lon="15.2766233"><ele>475.75</ele><time>2026-03-28T08:16:42.484Z</time></trkpt><trkpt lat="40.89632" lon="15.2766883"><ele>477.5</ele><time>2026-03-28T08:16:44.485Z</time></trkpt><trkpt lat="40.8964183" lon="15.2767583"><ele>479.25</ele><time>2026-03-28T08:16:46.485Z</time></trkpt><trkpt lat="40.8965267" lon="15.276835"><ele>481.0</ele><time>2026-03-28T08:16:48.485Z</time></trkpt><trkpt lat="40.8966433" lon="15.27691"><ele>481.00000000000006</ele><time>2026-03-28T08:16:50.485Z</time></trkpt><trkpt lat="40.896705" lon="15.2769483"><ele>481.0</ele><time>2026-03-28T08:16:51.485Z</time></trkpt><trkpt lat="40.8967717" lon="15.2769767"><ele>481.0</ele><time>2026-03-28T08:16:52.484Z</time></trkpt><trkpt lat="40.8968383" lon="15.277005"><ele>481.0</ele><time>2026-03-28T08:16:53.485Z</time></trkpt><trkpt lat="40.8969033" lon="15.2770367"><ele>481.00000000000006</ele><time>2026-03-28T08:16:54.485Z</time></trkpt><trkpt lat="40.8970183" lon="15.2771117"><ele>481.0</ele><time>2026-03-28T08:16:56.485Z</time></trkpt><trkpt lat="40.8970717" lon="15.2771617"><ele>481.5714285714285</ele><time>2026-03-28T08:16:57.485Z</time></trkpt><trkpt lat="40.897125" lon="15.2772133"><ele>482.1428571428571</ele><time>2026-03-28T08:16:58.485Z</time></trkpt><trkpt lat="40.8971767" lon="15.27727"><ele>482.7142857142857</ele><time>2026-03-28T08:16:59.484Z</time></trkpt><trkpt lat="40.897235" lon="15.2773333"><ele>483.2857142857143</ele><time>2026-03-28T08:17:00.484Z</time></trkpt><trkpt lat="40.897295" lon="15.2773983"><ele>483.8571428571429</ele><time>2026-03-28T08:17:01.484Z</time></trkpt><trkpt lat="40.897345" lon="15.27745"><ele>484.4285714285715</ele><time>2026-03-28T08:17:02.485Z</time></trkpt><trkpt lat="40.897405" lon="15.2775033"><ele>485.00000000000006</ele><time>2026-03-28T08:17:03.484Z</time></trkpt><trkpt lat="40.897465" lon="15.277555"><ele>484.99999999999994</ele><time>2026-03-28T08:17:04.485Z</time></trkpt><trkpt lat="40.89752" lon="15.2776067"><ele>485.0</ele><time>2026-03-28T08:17:05.484Z</time></trkpt><trkpt lat="40.897575" lon="15.27766"><ele>485.0</ele><time>2026-03-28T08:17:06.485Z</time></trkpt><trkpt lat="40.8976267" lon="15.2777117"><ele>485.0</ele><time>2026-03-28T08:17:07.485Z</time></trkpt><trkpt lat="40.89772" lon="15.2777933"><ele>484.99999999999994</ele><time>2026-03-28T08:17:09.485Z</time></trkpt><trkpt lat="40.8977967" lon="15.277855"><ele>485.0</ele><time>2026-03-28T08:17:11.484Z</time></trkpt><trkpt lat="40.8978667" lon="15.2779117"><ele>485.16666666666663</ele><time>2026-03-28T08:17:13.485Z</time></trkpt><trkpt lat="40.897935" lon="15.2779783"><ele>485.3333333333333</ele><time>2026-03-28T08:17:15.485Z</time></trkpt><trkpt lat="40.8979983" lon="15.2780417"><ele>485.5</ele><time>2026-03-28T08:17:17.485Z</time></trkpt><trkpt lat="40.89807" lon="15.2781067"><ele>485.66666666666663</ele><time>2026-03-28T08:17:19.485Z</time></trkpt><trkpt lat="40.8981417" lon="15.2781733"><ele>485.8333333333333</ele><time>2026-03-28T08:17:21.485Z</time></trkpt><trkpt lat="40.8982133" lon="15.2782317"><ele>486.0</ele><time>2026-03-28T08:17:23.485Z</time></trkpt><trkpt lat="40.89828" lon="15.2783033"><ele>486.0</ele><time>2026-03-28T08:17:25.484Z</time></trkpt><trkpt lat="40.8983567" lon="15.2783733"><ele>486.0</ele><time>2026-03-28T08:17:27.485Z</time></trkpt><trkpt lat="40.8984383" lon="15.278455"><ele>486.0</ele><time>2026-03-28T08:17:29.484Z</time></trkpt><trkpt lat="40.8985217" lon="15.2785467"><ele>486.0</ele><time>2026-03-28T08:17:31.485Z</time></trkpt><trkpt lat="40.8986117" lon="15.2786333"><ele>486.0</ele><time>2026-03-28T08:17:33.485Z</time></trkpt><trkpt lat="40.89869" lon="15.2787033"><ele>485.8</ele><time>2026-03-28T08:17:35.484Z</time></trkpt><trkpt lat="40.898775" lon="15.278795"><ele>485.6</ele><time>2026-03-28T08:17:37.484Z</time></trkpt><trkpt lat="40.898855" lon="15.27887"><ele>485.4</ele><time>2026-03-28T08:17:39.485Z</time></trkpt><trkpt lat="40.8989483" lon="15.2789433"><ele>485.2</ele><time>2026-03-28T08:17:41.484Z</time></trkpt><trkpt lat="40.89904" lon="15.2790183"><ele>485.0</ele><time>2026-03-28T08:17:43.484Z</time></trkpt><trkpt lat="40.8991417" lon="15.2791167"><ele>485.0</ele><time>2026-03-28T08:17:45.484Z</time></trkpt><trkpt lat="40.8992017" lon="15.279165"><ele>485.0</ele><time>2026-03-28T08:17:46.484Z</time></trkpt><trkpt lat="40.8993033" lon="15.2792583"><ele>485.0</ele><time>2026-03-28T08:17:48.485Z</time></trkpt><trkpt lat="40.899395" lon="15.2793433"><ele>485.0</ele><time>2026-03-28T08:17:50.485Z</time></trkpt><trkpt lat="40.89948" lon="15.2794283"><ele>485.0</ele><time>2026-03-28T08:17:52.485Z</time></trkpt><trkpt lat="40.8995583" lon="15.27951"><ele>485.2</ele><time>2026-03-28T08:17:54.485Z</time></trkpt><trkpt lat="40.89964" lon="15.2795933"><ele>485.4</ele><time>2026-03-28T08:17:56.485Z</time></trkpt><trkpt lat="40.8997367" lon="15.279685"><ele>485.6</ele><time>2026-03-28T08:17:58.485Z</time></trkpt><trkpt lat="40.8998267" lon="15.2797667"><ele>485.8</ele><time>2026-03-28T08:18:00.485Z</time></trkpt><trkpt lat="40.8999067" lon="15.2798567"><ele>486.0</ele><time>2026-03-28T08:18:02.484Z</time></trkpt><trkpt lat="40.8999817" lon="15.2799083"><ele>486.0</ele><time>2026-03-28T08:18:04.484Z</time></trkpt><trkpt lat="40.9000517" lon="15.2799367"><ele>486.0</ele><time>2026-03-28T08:18:06.484Z</time></trkpt><trkpt lat="40.9001083" lon="15.27998"><ele>486.0</ele><time>2026-03-28T08:18:08.485Z</time></trkpt><trkpt lat="40.9001633" lon="15.28004"><ele>486.0</ele><time>2026-03-28T08:18:10.485Z</time></trkpt><trkpt lat="40.9002167" lon="15.280115"><ele>486.0</ele><time>2026-03-28T08:18:12.484Z</time></trkpt><trkpt lat="40.9002817" lon="15.2801983"><ele>486.0</ele><time>2026-03-28T08:18:14.485Z</time></trkpt><trkpt lat="40.900355" lon="15.2802667"><ele>486.0</ele><time>2026-03-28T08:18:16.485Z</time></trkpt><trkpt lat="40.9004333" lon="15.280335"><ele>486.0</ele><time>2026-03-28T08:18:18.484Z</time></trkpt><trkpt lat="40.9005133" lon="15.2803917"><ele>486.0</ele><time>2026-03-28T08:18:20.485Z</time></trkpt><trkpt lat="40.9005867" lon="15.28045"><ele>486.0</ele><time>2026-03-28T08:18:22.485Z</time></trkpt><trkpt lat="40.90066" lon="15.28052"><ele>486.0</ele><time>2026-03-28T08:18:24.485Z</time></trkpt><trkpt lat="40.9007433" lon="15.280605"><ele>486.0</ele><time>2026-03-28T08:18:26.485Z</time></trkpt><trkpt lat="40.9008183" lon="15.2806833"><ele>486.0</ele><time>2026-03-28T08:18:28.485Z</time></trkpt><trkpt lat="40.900875" lon="15.2807383"><ele>486.0</ele><time>2026-03-28T08:18:30.484Z</time></trkpt><trkpt lat="40.9009383" lon="15.280785"><ele>486.0</ele><time>2026-03-28T08:18:32.484Z</time></trkpt><trkpt lat="40.901" lon="15.2808317"><ele>486.0</ele><time>2026-03-28T08:18:34.484Z</time></trkpt><trkpt lat="40.9010583" lon="15.2808767"><ele>486.0</ele><time>2026-03-28T08:18:36.485Z</time></trkpt><trkpt lat="40.9011317" lon="15.28095"><ele>487.5</ele><time>2026-03-28T08:18:38.484Z</time></trkpt><trkpt lat="40.90121" lon="15.281025"><ele>489.0</ele><time>2026-03-28T08:18:40.485Z</time></trkpt><trkpt lat="40.90128" lon="15.281085"><ele>490.5</ele><time>2026-03-28T08:18:42.485Z</time></trkpt><trkpt lat="40.901345" lon="15.2811467"><ele>492.0</ele><time>2026-03-28T08:18:44.484Z</time></trkpt><trkpt lat="40.9014067" lon="15.2812183"><ele>493.5</ele><time>2026-03-28T08:18:46.485Z</time></trkpt><trkpt lat="40.90148" lon="15.2812917"><ele>495.0</ele><time>2026-03-28T08:18:48.485Z</time></trkpt><trkpt lat="40.9015433" lon="15.281345"><ele>495.0</ele><time>2026-03-28T08:18:50.484Z</time></trkpt><trkpt lat="40.9016067" lon="15.2813983"><ele>495.0</ele><time>2026-03-28T08:18:52.485Z</time></trkpt><trkpt lat="40.9016833" lon="15.2814683"><ele>495.0</ele><time>2026-03-28T08:18:55.484Z</time></trkpt><trkpt lat="40.9017383" lon="15.28152"><ele>495.0</ele><time>2026-03-28T08:18:57.485Z</time></trkpt><trkpt lat="40.9018067" lon="15.2815733"><ele>495.0</ele><time>2026-03-28T08:18:59.484Z</time></trkpt><trkpt lat="40.90187" lon="15.2816417"><ele>495.0</ele><time>2026-03-28T08:19:01.486Z</time></trkpt><trkpt lat="40.9019417" lon="15.2817"><ele>495.0</ele><time>2026-03-28T08:19:03.485Z</time></trkpt><trkpt lat="40.9020183" lon="15.2817617"><ele>495.0</ele><time>2026-03-28T08:19:05.485Z</time></trkpt><trkpt lat="40.902085" lon="15.281825"><ele>495.0</ele><time>2026-03-28T08:19:07.486Z</time></trkpt><trkpt lat="40.9021517" lon="15.2819017"><ele>495.0</ele><time>2026-03-28T08:19:09.485Z</time></trkpt><trkpt lat="40.90222" lon="15.2819667"><ele>495.0</ele><time>2026-03-28T08:19:11.486Z</time></trkpt><trkpt lat="40.9022967" lon="15.2820367"><ele>495.0</ele><time>2026-03-28T08:19:13.485Z</time></trkpt><trkpt lat="40.90238" lon="15.2821217"><ele>495.0</ele><time>2026-03-28T08:19:15.486Z</time></trkpt><trkpt lat="40.9024683" lon="15.2822017"><ele>495.0</ele><time>2026-03-28T08:19:17.486Z</time></trkpt><trkpt lat="40.9025417" lon="15.2822767"><ele>495.0</ele><time>2026-03-28T08:19:19.485Z</time></trkpt><trkpt lat="40.902625" lon="15.282355"><ele>495.0</ele><time>2026-03-28T08:19:21.485Z</time></trkpt><trkpt lat="40.9027167" lon="15.2824333"><ele>495.0</ele><time>2026-03-28T08:19:23.486Z</time></trkpt><trkpt lat="40.9027967" lon="15.282495"><ele>493.8</ele><time>2026-03-28T08:19:25.486Z</time></trkpt><trkpt lat="40.902885" lon="15.282565"><ele>492.6</ele><time>2026-03-28T08:19:27.485Z</time></trkpt><trkpt lat="40.90299" lon="15.2826317"><ele>491.4</ele><time>2026-03-28T08:19:29.486Z</time></trkpt><trkpt lat="40.903085" lon="15.2826867"><ele>490.2</ele><time>2026-03-28T08:19:31.486Z</time></trkpt><trkpt lat="40.9031817" lon="15.282755"><ele>489.0</ele><time>2026-03-28T08:19:33.485Z</time></trkpt><trkpt lat="40.9032633" lon="15.28281"><ele>489.0</ele><time>2026-03-28T08:19:35.486Z</time></trkpt><trkpt lat="40.903335" lon="15.2828517"><ele>489.0</ele><time>2026-03-28T08:19:37.486Z</time></trkpt><trkpt lat="40.9033983" lon="15.2829"><ele>489.0</ele><time>2026-03-28T08:19:40.486Z</time></trkpt><trkpt lat="40.9034817" lon="15.2829683"><ele>489.0</ele><time>2026-03-28T08:21:09.486Z</time></trkpt><trkpt lat="40.903555" lon="15.2830017"><ele>489.0</ele><time>2026-03-28T08:21:11.486Z</time></trkpt><trkpt lat="40.9036183" lon="15.2830433"><ele>489.0</ele><time>2026-03-28T08:21:13.485Z</time></trkpt><trkpt lat="40.9036767" lon="15.2830883"><ele>489.5</ele><time>2026-03-28T08:21:15.485Z</time></trkpt><trkpt lat="40.9037367" lon="15.2831233"><ele>490.0</ele><time>2026-03-28T08:21:17.486Z</time></trkpt><trkpt lat="40.9038017" lon="15.283165"><ele>490.5</ele><time>2026-03-28T08:21:19.485Z</time></trkpt><trkpt lat="40.9038733" lon="15.2832067"><ele>491.0</ele><time>2026-03-28T08:21:21.486Z</time></trkpt><trkpt lat="40.9039467" lon="15.2832617"><ele>491.5</ele><time>2026-03-28T08:21:23.486Z</time></trkpt><trkpt lat="40.90401" lon="15.2833233"><ele>492.0</ele><time>2026-03-28T08:21:25.486Z</time></trkpt><trkpt lat="40.904085" lon="15.283385"><ele>492.0</ele><time>2026-03-28T08:21:27.485Z</time></trkpt><trkpt lat="40.90417" lon="15.2834467"><ele>492.00000000000006</ele><time>2026-03-28T08:21:29.486Z</time></trkpt><trkpt lat="40.9042567" lon="15.2835067"><ele>492.00000000000006</ele><time>2026-03-28T08:21:31.485Z</time></trkpt><trkpt lat="40.9043517" lon="15.2835717"><ele>492.0</ele><time>2026-03-28T08:21:33.486Z</time></trkpt><trkpt lat="40.9044483" lon="15.2836367"><ele>492.0</ele><time>2026-03-28T08:21:35.486Z</time></trkpt><trkpt lat="40.9045417" lon="15.2836917"><ele>492.0</ele><time>2026-03-28T08:21:37.485Z</time></trkpt><trkpt lat="40.904625" lon="15.2837517"><ele>492.00000000000006</ele><time>2026-03-28T08:21:39.486Z</time></trkpt><trkpt lat="40.904715" lon="15.2838117"><ele>492.00000000000006</ele><time>2026-03-28T08:21:41.485Z</time></trkpt><trkpt lat="40.9048083" lon="15.28388"><ele>492.0</ele><time>2026-03-28T08:21:43.486Z</time></trkpt><trkpt lat="40.9049067" lon="15.2839483"><ele>492.0</ele><time>2026-03-28T08:21:45.486Z</time></trkpt><trkpt lat="40.904995" lon="15.28401"><ele>492.0</ele><time>2026-03-28T08:21:47.485Z</time></trkpt><trkpt lat="40.9050783" lon="15.2840717"><ele>492.00000000000006</ele><time>2026-03-28T08:21:49.486Z</time></trkpt><trkpt lat="40.90516" lon="15.2841483"><ele>492.00000000000006</ele><time>2026-03-28T08:21:51.485Z</time></trkpt><trkpt lat="40.90525" lon="15.2842133"><ele>492.0</ele><time>2026-03-28T08:21:53.485Z</time></trkpt><trkpt lat="40.905345" lon="15.2842667"><ele>492.0</ele><time>2026-03-28T08:21:55.486Z</time></trkpt><trkpt lat="40.90544" lon="15.2843233"><ele>493.0</ele><time>2026-03-28T08:21:57.486Z</time></trkpt><trkpt lat="40.9055367" lon="15.2843883"><ele>494.00000000000006</ele><time>2026-03-28T08:21:59.486Z</time></trkpt><trkpt lat="40.9056233" lon="15.2844633"><ele>495.00000000000006</ele><time>2026-03-28T08:22:01.485Z</time></trkpt><trkpt lat="40.9057167" lon="15.28451"><ele>496.0</ele><time>2026-03-28T08:22:03.486Z</time></trkpt><trkpt lat="40.9058133" lon="15.28456"><ele>497.0</ele><time>2026-03-28T08:22:05.486Z</time></trkpt><trkpt lat="40.9059083" lon="15.28463"><ele>498.6</ele><time>2026-03-28T08:22:07.486Z</time></trkpt><trkpt lat="40.9060067" lon="15.2846933"><ele>500.20000000000005</ele><time>2026-03-28T08:22:09.485Z</time></trkpt><trkpt lat="40.9061017" lon="15.2847533"><ele>501.8</ele><time>2026-03-28T08:22:11.486Z</time></trkpt><trkpt lat="40.9061867" lon="15.2848183"><ele>503.4</ele><time>2026-03-28T08:22:13.485Z</time></trkpt><trkpt lat="40.906275" lon="15.2848767"><ele>505.0</ele><time>2026-03-28T08:22:15.485Z</time></trkpt><trkpt lat="40.90637" lon="15.2849367"><ele>505.0</ele><time>2026-03-28T08:22:17.485Z</time></trkpt><trkpt lat="40.9064717" lon="15.2850133"><ele>505.0</ele><time>2026-03-28T08:22:19.485Z</time></trkpt><trkpt lat="40.906565" lon="15.2850717"><ele>505.0</ele><time>2026-03-28T08:22:21.485Z</time></trkpt><trkpt lat="40.9066517" lon="15.2851333"><ele>505.0</ele><time>2026-03-28T08:22:23.485Z</time></trkpt><trkpt lat="40.9067417" lon="15.2852017"><ele>505.0</ele><time>2026-03-28T08:22:25.486Z</time></trkpt><trkpt lat="40.9068317" lon="15.28526"><ele>507.8</ele><time>2026-03-28T08:22:27.486Z</time></trkpt><trkpt lat="40.9069183" lon="15.2853183"><ele>510.6</ele><time>2026-03-28T08:22:29.486Z</time></trkpt><trkpt lat="40.9070083" lon="15.2853917"><ele>513.4</ele><time>2026-03-28T08:22:31.486Z</time></trkpt><trkpt lat="40.9070783" lon="15.2854417"><ele>516.2</ele><time>2026-03-28T08:22:33.486Z</time></trkpt><trkpt lat="40.9071533" lon="15.2854983"><ele>519.0</ele><time>2026-03-28T08:22:35.486Z</time></trkpt><trkpt lat="40.90722" lon="15.2855617"><ele>517.8333333333334</ele><time>2026-03-28T08:22:37.486Z</time></trkpt><trkpt lat="40.9073" lon="15.2856167"><ele>516.6666666666666</ele><time>2026-03-28T08:22:39.486Z</time></trkpt><trkpt lat="40.907375" lon="15.2856567"><ele>515.5</ele><time>2026-03-28T08:22:41.485Z</time></trkpt><trkpt lat="40.9074567" lon="15.2857117"><ele>514.3333333333333</ele><time>2026-03-28T08:22:43.486Z</time></trkpt><trkpt lat="40.9075417" lon="15.28578"><ele>513.1666666666666</ele><time>2026-03-28T08:22:45.485Z</time></trkpt><trkpt lat="40.9076183" lon="15.28583"><ele>512.0</ele><time>2026-03-28T08:22:47.486Z</time></trkpt><trkpt lat="40.9077033" lon="15.2858833"><ele>515.0</ele><time>2026-03-28T08:22:49.485Z</time></trkpt><trkpt lat="40.9077883" lon="15.28594"><ele>518.0</ele><time>2026-03-28T08:22:51.486Z</time></trkpt><trkpt lat="40.9078833" lon="15.2860083"><ele>521.0</ele><time>2026-03-28T08:22:53.486Z</time></trkpt><trkpt lat="40.907985" lon="15.28608"><ele>524.0</ele><time>2026-03-28T08:22:55.486Z</time></trkpt><trkpt lat="40.9080783" lon="15.2861517"><ele>527.0</ele><time>2026-03-28T08:22:57.486Z</time></trkpt><trkpt lat="40.9081733" lon="15.286215"><ele>527.0</ele><time>2026-03-28T08:22:59.485Z</time></trkpt><trkpt lat="40.9082617" lon="15.2862733"><ele>527.0</ele><time>2026-03-28T08:23:01.485Z</time></trkpt><trkpt lat="40.908345" lon="15.2863283"><ele>527.0</ele><time>2026-03-28T08:23:03.486Z</time></trkpt><trkpt lat="40.9084333" lon="15.2863883"><ele>527.0</ele><time>2026-03-28T08:23:05.485Z</time></trkpt><trkpt lat="40.9085283" lon="15.2864483"><ele>527.0</ele><time>2026-03-28T08:23:07.485Z</time></trkpt><trkpt lat="40.9086283" lon="15.2865183"><ele>528.2</ele><time>2026-03-28T08:23:09.485Z</time></trkpt><trkpt lat="40.90872" lon="15.2865867"><ele>529.4000000000001</ele><time>2026-03-28T08:23:11.485Z</time></trkpt><trkpt lat="40.9088133" lon="15.2866517"><ele>530.5999999999999</ele><time>2026-03-28T08:23:13.485Z</time></trkpt><trkpt lat="40.9089083" lon="15.28672"><ele>531.8</ele><time>2026-03-28T08:23:15.486Z</time></trkpt><trkpt lat="40.9090133" lon="15.2867883"><ele>533.0</ele><time>2026-03-28T08:23:17.486Z</time></trkpt><trkpt lat="40.9091067" lon="15.2868517"><ele>533.0</ele><time>2026-03-28T08:23:19.486Z</time></trkpt><trkpt lat="40.909185" lon="15.28692"><ele>533.0</ele><time>2026-03-28T08:23:21.486Z</time></trkpt><trkpt lat="40.9092717" lon="15.28698"><ele>533.0</ele><time>2026-03-28T08:23:23.485Z</time></trkpt><trkpt lat="40.9093417" lon="15.2870233"><ele>533.0</ele><time>2026-03-28T08:23:25.485Z</time></trkpt><trkpt lat="40.9094117" lon="15.2870667"><ele>533.0</ele><time>2026-03-28T08:23:27.485Z</time></trkpt><trkpt lat="40.909485" lon="15.28711"><ele>533.0</ele><time>2026-03-28T08:23:29.486Z</time></trkpt><trkpt lat="40.909555" lon="15.2871433"><ele>535.0</ele><time>2026-03-28T08:23:31.486Z</time></trkpt><trkpt lat="40.9096267" lon="15.2871817"><ele>537.0</ele><time>2026-03-28T08:23:33.486Z</time></trkpt><trkpt lat="40.9096917" lon="15.2872117"><ele>539.0</ele><time>2026-03-28T08:23:35.485Z</time></trkpt><trkpt lat="40.9097583" lon="15.2872217"><ele>541.0</ele><time>2026-03-28T08:23:37.485Z</time></trkpt><trkpt lat="40.9098333" lon="15.28722"><ele>543.0</ele><time>2026-03-28T08:23:39.486Z</time></trkpt><trkpt lat="40.90991" lon="15.2872283"><ele>545.0</ele><time>2026-03-28T08:23:41.485Z</time></trkpt><trkpt lat="40.9099767" lon="15.2872183"><ele>547.0</ele><time>2026-03-28T08:23:43.486Z</time></trkpt><trkpt lat="40.91007" lon="15.2871783"><ele>548.8333333333334</ele><time>2026-03-28T08:23:46.486Z</time></trkpt><trkpt lat="40.9101633" lon="15.287135"><ele>550.6666666666667</ele><time>2026-03-28T08:23:49.485Z</time></trkpt><trkpt lat="40.9102267" lon="15.2870967"><ele>552.5</ele><time>2026-03-28T08:23:51.485Z</time></trkpt><trkpt lat="40.910295" lon="15.28706"><ele>554.3333333333334</ele><time>2026-03-28T08:23:53.486Z</time></trkpt><trkpt lat="40.91038" lon="15.2870217"><ele>556.1666666666666</ele><time>2026-03-28T08:23:56.486Z</time></trkpt><trkpt lat="40.9104617" lon="15.2869917"><ele>558.0</ele><time>2026-03-28T08:23:59.486Z</time></trkpt><trkpt lat="40.9105167" lon="15.2869483"><ele>557.9999999999999</ele><time>2026-03-28T08:24:01.486Z</time></trkpt><trkpt lat="40.910585" lon="15.286905"><ele>558.0</ele><time>2026-03-28T08:24:03.486Z</time></trkpt><trkpt lat="40.9106567" lon="15.28688"><ele>558.0</ele><time>2026-03-28T08:24:05.486Z</time></trkpt><trkpt lat="40.910725" lon="15.286855"><ele>558.0</ele><time>2026-03-28T08:24:07.486Z</time></trkpt><trkpt lat="40.9107967" lon="15.286845"><ele>558.0</ele><time>2026-03-28T08:24:09.486Z</time></trkpt><trkpt lat="40.910865" lon="15.286855"><ele>557.9999999999999</ele><time>2026-03-28T08:24:11.486Z</time></trkpt><trkpt lat="40.910945" lon="15.2868967"><ele>558.0</ele><time>2026-03-28T08:24:13.486Z</time></trkpt><trkpt lat="40.91103" lon="15.2869333"><ele>559.8333333333334</ele><time>2026-03-28T08:24:15.486Z</time></trkpt><trkpt lat="40.9111167" lon="15.2869767"><ele>561.6666666666666</ele><time>2026-03-28T08:24:17.487Z</time></trkpt><trkpt lat="40.911195" lon="15.2870133"><ele>563.5</ele><time>2026-03-28T08:24:19.486Z</time></trkpt><trkpt lat="40.9112583" lon="15.28704"><ele>565.3333333333333</ele><time>2026-03-28T08:24:21.486Z</time></trkpt><trkpt lat="40.91133" lon="15.287075"><ele>567.1666666666666</ele><time>2026-03-28T08:24:23.486Z</time></trkpt><trkpt lat="40.91141" lon="15.2871317"><ele>569.0</ele><time>2026-03-28T08:24:25.486Z</time></trkpt><trkpt lat="40.911495" lon="15.2871917"><ele>569.0</ele><time>2026-03-28T08:24:27.487Z</time></trkpt><trkpt lat="40.9115667" lon="15.2872433"><ele>569.0</ele><time>2026-03-28T08:24:29.487Z</time></trkpt><trkpt lat="40.9116267" lon="15.2872883"><ele>569.0</ele><time>2026-03-28T08:24:31.486Z</time></trkpt><trkpt lat="40.9117" lon="15.2873417"><ele>569.0</ele><time>2026-03-28T08:24:33.487Z</time></trkpt><trkpt lat="40.9117717" lon="15.2873917"><ele>569.0</ele><time>2026-03-28T08:24:35.486Z</time></trkpt><trkpt lat="40.9118467" lon="15.2874433"><ele>569.0</ele><time>2026-03-28T08:24:37.486Z</time></trkpt><trkpt lat="40.91193" lon="15.2875117"><ele>569.5</ele><time>2026-03-28T08:24:39.487Z</time></trkpt><trkpt lat="40.9120133" lon="15.28757"><ele>570.0</ele><time>2026-03-28T08:24:41.486Z</time></trkpt><trkpt lat="40.9120883" lon="15.2876083"><ele>570.5</ele><time>2026-03-28T08:24:43.487Z</time></trkpt><trkpt lat="40.91216" lon="15.2876667"><ele>571.0</ele><time>2026-03-28T08:24:45.486Z</time></trkpt><trkpt lat="40.9122267" lon="15.2877183"><ele>571.5</ele><time>2026-03-28T08:24:47.487Z</time></trkpt><trkpt lat="40.912295" lon="15.2877733"><ele>572.0</ele><time>2026-03-28T08:24:49.487Z</time></trkpt><trkpt lat="40.91239" lon="15.2878317"><ele>572.0</ele><time>2026-03-28T08:24:51.487Z</time></trkpt><trkpt lat="40.91248" lon="15.28789"><ele>572.0</ele><time>2026-03-28T08:24:53.487Z</time></trkpt><trkpt lat="40.9125667" lon="15.2879583"><ele>572.0</ele><time>2026-03-28T08:24:55.487Z</time></trkpt><trkpt lat="40.9126467" lon="15.2880217"><ele>572.0</ele><time>2026-03-28T08:24:57.486Z</time></trkpt><trkpt lat="40.912725" lon="15.2880717"><ele>572.0</ele><time>2026-03-28T08:24:59.486Z</time></trkpt><trkpt lat="40.9128" lon="15.2881217"><ele>572.3333333333333</ele><time>2026-03-28T08:25:01.486Z</time></trkpt><trkpt lat="40.9128767" lon="15.2881733"><ele>572.6666666666666</ele><time>2026-03-28T08:25:03.487Z</time></trkpt><trkpt lat="40.9129483" lon="15.2882283"><ele>573.0</ele><time>2026-03-28T08:25:05.486Z</time></trkpt><trkpt lat="40.9130283" lon="15.2882933"><ele>573.3333333333334</ele><time>2026-03-28T08:25:07.487Z</time></trkpt><trkpt lat="40.9130917" lon="15.2883533"><ele>573.6666666666667</ele><time>2026-03-28T08:25:09.486Z</time></trkpt><trkpt lat="40.9131633" lon="15.2884067"><ele>574.0</ele><time>2026-03-28T08:25:11.487Z</time></trkpt><trkpt lat="40.9132267" lon="15.2884517"><ele>574.0</ele><time>2026-03-28T08:25:13.487Z</time></trkpt><trkpt lat="40.913295" lon="15.2885017"><ele>574.0</ele><time>2026-03-28T08:25:15.487Z</time></trkpt><trkpt lat="40.9133633" lon="15.2885433"><ele>574.0</ele><time>2026-03-28T08:25:17.487Z</time></trkpt><trkpt lat="40.9134317" lon="15.2885983"><ele>574.0</ele><time>2026-03-28T08:25:19.486Z</time></trkpt><trkpt lat="40.9135017" lon="15.2886517"><ele>574.0</ele><time>2026-03-28T08:25:21.487Z</time></trkpt><trkpt lat="40.9135667" lon="15.2886933"><ele>574.0</ele><time>2026-03-28T08:25:23.486Z</time></trkpt><trkpt lat="40.9136283" lon="15.288735"><ele>574.0</ele><time>2026-03-28T08:25:25.487Z</time></trkpt><trkpt lat="40.9136883" lon="15.2887783"><ele>574.0</ele><time>2026-03-28T08:25:27.487Z</time></trkpt><trkpt lat="40.9137733" lon="15.2888333"><ele>574.0</ele><time>2026-03-28T08:25:30.486Z</time></trkpt><trkpt lat="40.913855" lon="15.2888933"><ele>574.0</ele><time>2026-03-28T08:25:33.487Z</time></trkpt><trkpt lat="40.9139333" lon="15.2889533"><ele>574.0</ele><time>2026-03-28T08:25:36.486Z</time></trkpt><trkpt lat="40.9140117" lon="15.2890033"><ele>574.0</ele><time>2026-03-28T08:25:39.487Z</time></trkpt><trkpt lat="40.9140733" lon="15.2890433"><ele>572.4285714285714</ele><time>2026-03-28T08:25:42.487Z</time></trkpt><trkpt lat="40.914135" lon="15.2890667"><ele>570.8571428571429</ele><time>2026-03-28T08:25:45.486Z</time></trkpt><trkpt lat="40.9142083" lon="15.2890917"><ele>569.2857142857142</ele><time>2026-03-28T08:25:48.487Z</time></trkpt><trkpt lat="40.91428" lon="15.28913"><ele>567.7142857142858</ele><time>2026-03-28T08:25:51.487Z</time></trkpt><trkpt lat="40.9143417" lon="15.28917"><ele>566.1428571428571</ele><time>2026-03-28T08:25:54.487Z</time></trkpt><trkpt lat="40.9144217" lon="15.28922"><ele>564.5714285714286</ele><time>2026-03-28T08:25:57.487Z</time></trkpt><trkpt lat="40.9144867" lon="15.289245"><ele>563.0</ele><time>2026-03-28T08:26:00.486Z</time></trkpt><trkpt lat="40.9145533" lon="15.2892717"><ele>562.3333333333333</ele><time>2026-03-28T08:26:03.486Z</time></trkpt><trkpt lat="40.914615" lon="15.2892983"><ele>561.6666666666666</ele><time>2026-03-28T08:26:06.486Z</time></trkpt><trkpt lat="40.91468" lon="15.2893317"><ele>561.0</ele><time>2026-03-28T08:26:09.487Z</time></trkpt><trkpt lat="40.91475" lon="15.28938"><ele>560.3333333333334</ele><time>2026-03-28T08:26:12.486Z</time></trkpt><trkpt lat="40.9148267" lon="15.2894167"><ele>559.6666666666667</ele><time>2026-03-28T08:26:15.486Z</time></trkpt><trkpt lat="40.9149117" lon="15.289435"><ele>559.0</ele><time>2026-03-28T08:26:19.487Z</time></trkpt><trkpt lat="40.914995" lon="15.2894567"><ele>559.0</ele><time>2026-03-28T08:26:23.487Z</time></trkpt><trkpt lat="40.915065" lon="15.28948"><ele>559.0</ele><time>2026-03-28T08:26:26.486Z</time></trkpt><trkpt lat="40.9151367" lon="15.2895433"><ele>559.0</ele><time>2026-03-28T08:26:29.487Z</time></trkpt><trkpt lat="40.9151983" lon="15.2896083"><ele>559.0</ele><time>2026-03-28T08:26:32.486Z</time></trkpt><trkpt lat="40.91527" lon="15.28969"><ele>559.0</ele><time>2026-03-28T08:26:35.486Z</time></trkpt><trkpt lat="40.9153267" lon="15.2897833"><ele>559.0</ele><time>2026-03-28T08:26:38.486Z</time></trkpt><trkpt lat="40.9153783" lon="15.289855"><ele>559.1428571428571</ele><time>2026-03-28T08:26:41.487Z</time></trkpt><trkpt lat="40.91543" lon="15.28992"><ele>559.2857142857143</ele><time>2026-03-28T08:26:44.487Z</time></trkpt><trkpt lat="40.91548" lon="15.289975"><ele>559.4285714285714</ele><time>2026-03-28T08:26:47.486Z</time></trkpt><trkpt lat="40.9155317" lon="15.2900283"><ele>559.5714285714286</ele><time>2026-03-28T08:26:50.487Z</time></trkpt><trkpt lat="40.9155867" lon="15.290085"><ele>559.7142857142858</ele><time>2026-03-28T08:26:53.487Z</time></trkpt><trkpt lat="40.9156467" lon="15.2901383"><ele>559.8571428571429</ele><time>2026-03-28T08:26:56.487Z</time></trkpt><trkpt lat="40.9157117" lon="15.2901833"><ele>560.0</ele><time>2026-03-28T08:26:58.486Z</time></trkpt><trkpt lat="40.9157733" lon="15.2902267"><ele>560.0</ele><time>2026-03-28T08:27:00.487Z</time></trkpt><trkpt lat="40.9158383" lon="15.2902733"><ele>560.0</ele><time>2026-03-28T08:27:02.486Z</time></trkpt><trkpt lat="40.9158983" lon="15.29032"><ele>560.0</ele><time>2026-03-28T08:27:04.487Z</time></trkpt><trkpt lat="40.9159683" lon="15.290375"><ele>560.0</ele><time>2026-03-28T08:27:06.486Z</time></trkpt><trkpt lat="40.9160483" lon="15.2904317"><ele>560.0</ele><time>2026-03-28T08:27:08.486Z</time></trkpt><trkpt lat="40.9161217" lon="15.29048"><ele>560.0</ele><time>2026-03-28T08:27:10.487Z</time></trkpt><trkpt lat="40.91619" lon="15.2905233"><ele>561.1666666666666</ele><time>2026-03-28T08:27:12.487Z</time></trkpt><trkpt lat="40.916255" lon="15.2905633"><ele>562.3333333333333</ele><time>2026-03-28T08:27:14.487Z</time></trkpt><trkpt lat="40.9163233" lon="15.2906017"><ele>563.5</ele><time>2026-03-28T08:27:16.487Z</time></trkpt><trkpt lat="40.916395" lon="15.2906433"><ele>564.6666666666666</ele><time>2026-03-28T08:27:18.487Z</time></trkpt><trkpt lat="40.9164783" lon="15.2906983"><ele>565.8333333333334</ele><time>2026-03-28T08:27:20.487Z</time></trkpt><trkpt lat="40.9165617" lon="15.2907633"><ele>567.0</ele><time>2026-03-28T08:27:22.487Z</time></trkpt><trkpt lat="40.91665" lon="15.2908217"><ele>568.6666666666666</ele><time>2026-03-28T08:27:24.486Z</time></trkpt><trkpt lat="40.9167417" lon="15.2908733"><ele>570.3333333333334</ele><time>2026-03-28T08:27:26.487Z</time></trkpt><trkpt lat="40.9168283" lon="15.2909217"><ele>572.0</ele><time>2026-03-28T08:27:28.487Z</time></trkpt><trkpt lat="40.91691" lon="15.2909833"><ele>573.6666666666667</ele><time>2026-03-28T08:27:30.486Z</time></trkpt><trkpt lat="40.916975" lon="15.2910117"><ele>575.3333333333334</ele><time>2026-03-28T08:27:32.487Z</time></trkpt><trkpt lat="40.9170583" lon="15.2910183"><ele>577.0</ele><time>2026-03-28T08:27:35.486Z</time></trkpt><trkpt lat="40.91714" lon="15.2909517"><ele>577.0</ele><time>2026-03-28T08:27:38.486Z</time></trkpt><trkpt lat="40.9171833" lon="15.29088"><ele>577.0</ele><time>2026-03-28T08:27:40.486Z</time></trkpt><trkpt lat="40.9172283" lon="15.2908133"><ele>577.0</ele><time>2026-03-28T08:27:42.487Z</time></trkpt><trkpt lat="40.9172683" lon="15.29074"><ele>577.0</ele><time>2026-03-28T08:27:44.487Z</time></trkpt><trkpt lat="40.9173233" lon="15.29064"><ele>577.0</ele><time>2026-03-28T08:27:47.487Z</time></trkpt><trkpt lat="40.9173683" lon="15.2905683"><ele>577.0</ele><time>2026-03-28T08:27:49.487Z</time></trkpt><trkpt lat="40.91742" lon="15.2905017"><ele>577.0</ele><time>2026-03-28T08:27:51.487Z</time></trkpt><trkpt lat="40.9174817" lon="15.29044"><ele>577.5714285714286</ele><time>2026-03-28T08:27:53.487Z</time></trkpt><trkpt lat="40.9175367" lon="15.2903967"><ele>578.1428571428571</ele><time>2026-03-28T08:27:55.486Z</time></trkpt><trkpt lat="40.9175967" lon="15.2903483"><ele>578.7142857142858</ele><time>2026-03-28T08:27:57.487Z</time></trkpt><trkpt lat="40.917665" lon="15.290305"><ele>579.2857142857142</ele><time>2026-03-28T08:27:59.487Z</time></trkpt><trkpt lat="40.91773" lon="15.29026"><ele>579.8571428571429</ele><time>2026-03-28T08:28:01.487Z</time></trkpt><trkpt lat="40.9177967" lon="15.2902333"><ele>580.4285714285714</ele><time>2026-03-28T08:28:03.487Z</time></trkpt><trkpt lat="40.9178767" lon="15.2902083"><ele>581.0</ele><time>2026-03-28T08:28:05.487Z</time></trkpt><trkpt lat="40.9179517" lon="15.2901817"><ele>582.0</ele><time>2026-03-28T08:28:07.487Z</time></trkpt><trkpt lat="40.91805" lon="15.2901567"><ele>583.0</ele><time>2026-03-28T08:28:10.487Z</time></trkpt><trkpt lat="40.9181183" lon="15.290135"><ele>584.0</ele><time>2026-03-28T08:28:12.487Z</time></trkpt><trkpt lat="40.91819" lon="15.29011"><ele>585.0</ele><time>2026-03-28T08:28:14.486Z</time></trkpt><trkpt lat="40.9182567" lon="15.2900767"><ele>586.0</ele><time>2026-03-28T08:28:16.487Z</time></trkpt><trkpt lat="40.91833" lon="15.2900533"><ele>587.0</ele><time>2026-03-28T08:28:18.487Z</time></trkpt><trkpt lat="40.9184017" lon="15.29003"><ele>588.8333333333333</ele><time>2026-03-28T08:28:20.487Z</time></trkpt><trkpt lat="40.918475" lon="15.29001"><ele>590.6666666666666</ele><time>2026-03-28T08:28:22.487Z</time></trkpt><trkpt lat="40.9185533" lon="15.2899817"><ele>592.5</ele><time>2026-03-28T08:28:24.486Z</time></trkpt><trkpt lat="40.9186267" lon="15.2899517"><ele>594.3333333333334</ele><time>2026-03-28T08:28:26.487Z</time></trkpt><trkpt lat="40.9187033" lon="15.28993"><ele>596.1666666666667</ele><time>2026-03-28T08:28:28.487Z</time></trkpt><trkpt lat="40.9187883" lon="15.2899067"><ele>598.0</ele><time>2026-03-28T08:28:31.487Z</time></trkpt><trkpt lat="40.91885" lon="15.2898883"><ele>598.0</ele><time>2026-03-28T08:28:33.486Z</time></trkpt><trkpt lat="40.9189267" lon="15.2898583"><ele>598.0</ele><time>2026-03-28T08:28:35.486Z</time></trkpt><trkpt lat="40.9189933" lon="15.289825"><ele>598.0</ele><time>2026-03-28T08:28:37.486Z</time></trkpt><trkpt lat="40.9190583" lon="15.28979"><ele>598.0</ele><time>2026-03-28T08:28:39.487Z</time></trkpt><trkpt lat="40.919125" lon="15.2897483"><ele>598.0</ele><time>2026-03-28T08:28:41.487Z</time></trkpt><trkpt lat="40.91919" lon="15.2897133"><ele>598.0</ele><time>2026-03-28T08:28:43.487Z</time></trkpt><trkpt lat="40.9192467" lon="15.2896667"><ele>598.0</ele><time>2026-03-28T08:28:45.487Z</time></trkpt><trkpt lat="40.9193167" lon="15.2896167"><ele>600.0</ele><time>2026-03-28T08:28:47.486Z</time></trkpt><trkpt lat="40.91941" lon="15.28955"><ele>602.0</ele><time>2026-03-28T08:28:49.486Z</time></trkpt><trkpt lat="40.9195067" lon="15.2894983"><ele>604.0</ele><time>2026-03-28T08:28:51.487Z</time></trkpt><trkpt lat="40.919605" lon="15.2894417"><ele>606.0</ele><time>2026-03-28T08:28:53.487Z</time></trkpt><trkpt lat="40.919695" lon="15.289385"><ele>608.0</ele><time>2026-03-28T08:28:55.487Z</time></trkpt><trkpt lat="40.9197667" lon="15.2893317"><ele>608.0</ele><time>2026-03-28T08:28:57.487Z</time></trkpt><trkpt lat="40.9198267" lon="15.289285"><ele>608.0</ele><time>2026-03-28T08:28:59.486Z</time></trkpt><trkpt lat="40.9199383" lon="15.28922"><ele>608.0</ele><time>2026-03-28T08:35:12.488Z</time></trkpt><trkpt lat="40.9200183" lon="15.2891717"><ele>608.0</ele><time>2026-03-28T08:35:14.489Z</time></trkpt><trkpt lat="40.9201067" lon="15.2891133"><ele>608.0</ele><time>2026-03-28T08:35:16.488Z</time></trkpt><trkpt lat="40.9202183" lon="15.289035"><ele>610.4</ele><time>2026-03-28T08:35:18.489Z</time></trkpt><trkpt lat="40.9202767" lon="15.2889867"><ele>612.8</ele><time>2026-03-28T08:35:19.489Z</time></trkpt><trkpt lat="40.9203717" lon="15.288895"><ele>615.2</ele><time>2026-03-28T08:35:21.489Z</time></trkpt><trkpt lat="40.9204667" lon="15.2888"><ele>617.6</ele><time>2026-03-28T08:35:23.488Z</time></trkpt><trkpt lat="40.9205483" lon="15.2886867"><ele>620.0</ele><time>2026-03-28T08:35:25.489Z</time></trkpt><trkpt lat="40.920595" lon="15.288625"><ele>620.8333333333333</ele><time>2026-03-28T08:35:26.489Z</time></trkpt><trkpt lat="40.9206417" lon="15.2885533"><ele>621.6666666666666</ele><time>2026-03-28T08:35:27.489Z</time></trkpt><trkpt lat="40.920685" lon="15.2884733"><ele>622.5</ele><time>2026-03-28T08:35:28.489Z</time></trkpt><trkpt lat="40.9207317" lon="15.288395"><ele>623.3333333333334</ele><time>2026-03-28T08:35:29.489Z</time></trkpt><trkpt lat="40.9207783" lon="15.2883233"><ele>624.1666666666667</ele><time>2026-03-28T08:35:30.489Z</time></trkpt><trkpt lat="40.9208567" lon="15.28824"><ele>625.0</ele><time>2026-03-28T08:35:32.488Z</time></trkpt><trkpt lat="40.9209417" lon="15.2881833"><ele>626.8333333333334</ele><time>2026-03-28T08:35:34.488Z</time></trkpt><trkpt lat="40.9210333" lon="15.2881283"><ele>628.6666666666667</ele><time>2026-03-28T08:35:36.489Z</time></trkpt><trkpt lat="40.9211183" lon="15.2880383"><ele>630.5</ele><time>2026-03-28T08:35:38.488Z</time></trkpt><trkpt lat="40.921175" lon="15.28798"><ele>632.3333333333334</ele><time>2026-03-28T08:35:39.488Z</time></trkpt><trkpt lat="40.921245" lon="15.28792"><ele>634.1666666666666</ele><time>2026-03-28T08:35:40.489Z</time></trkpt><trkpt lat="40.9213067" lon="15.2878717"><ele>636.0</ele><time>2026-03-28T08:35:41.488Z</time></trkpt><trkpt lat="40.9213967" lon="15.2877833"><ele>636.8333333333334</ele><time>2026-03-28T08:35:43.488Z</time></trkpt><trkpt lat="40.9214783" lon="15.2876967"><ele>637.6666666666666</ele><time>2026-03-28T08:35:45.489Z</time></trkpt><trkpt lat="40.9215167" lon="15.2876233"><ele>638.5</ele><time>2026-03-28T08:35:46.489Z</time></trkpt><trkpt lat="40.9215833" lon="15.2874867"><ele>639.3333333333333</ele><time>2026-03-28T08:35:48.489Z</time></trkpt><trkpt lat="40.921605" lon="15.2873917"><ele>640.1666666666666</ele><time>2026-03-28T08:35:49.489Z</time></trkpt><trkpt lat="40.9216283" lon="15.2872933"><ele>641.0</ele><time>2026-03-28T08:35:50.489Z</time></trkpt><trkpt lat="40.9216317" lon="15.287205"><ele>641.0</ele><time>2026-03-28T08:35:51.489Z</time></trkpt><trkpt lat="40.9216317" lon="15.2871133"><ele>641.0</ele><time>2026-03-28T08:35:52.488Z</time></trkpt><trkpt lat="40.92163" lon="15.2870217"><ele>641.0</ele><time>2026-03-28T08:35:53.489Z</time></trkpt><trkpt lat="40.9216367" lon="15.2869383"><ele>641.0</ele><time>2026-03-28T08:35:54.489Z</time></trkpt><trkpt lat="40.9216533" lon="15.2868517"><ele>641.0</ele><time>2026-03-28T08:35:55.489Z</time></trkpt><trkpt lat="40.9216917" lon="15.286785"><ele>641.0</ele><time>2026-03-28T08:35:56.488Z</time></trkpt><trkpt lat="40.9217517" lon="15.286725"><ele>641.0</ele><time>2026-03-28T08:35:57.489Z</time></trkpt><trkpt lat="40.9218217" lon="15.2866783"><ele>642.3333333333333</ele><time>2026-03-28T08:35:58.489Z</time></trkpt><trkpt lat="40.9218983" lon="15.286635"><ele>643.6666666666666</ele><time>2026-03-28T08:35:59.488Z</time></trkpt><trkpt lat="40.9219783" lon="15.2865967"><ele>645.0</ele><time>2026-03-28T08:36:00.489Z</time></trkpt><trkpt lat="40.9220567" lon="15.286555"><ele>646.3333333333334</ele><time>2026-03-28T08:36:01.489Z</time></trkpt><trkpt lat="40.9221317" lon="15.2865117"><ele>647.6666666666667</ele><time>2026-03-28T08:36:02.489Z</time></trkpt><trkpt lat="40.9221983" lon="15.2864733"><ele>649.0</ele><time>2026-03-28T08:36:03.488Z</time></trkpt><trkpt lat="40.92229" lon="15.2864117"><ele>649.0</ele><time>2026-03-28T08:36:05.489Z</time></trkpt><trkpt lat="40.9223617" lon="15.2864"><ele>649.0</ele><time>2026-03-28T08:36:07.489Z</time></trkpt><trkpt lat="40.9224283" lon="15.286485"><ele>649.0</ele><time>2026-03-28T08:36:09.489Z</time></trkpt><trkpt lat="40.92249" lon="15.2866267"><ele>649.0</ele><time>2026-03-28T08:36:11.489Z</time></trkpt><trkpt lat="40.9225317" lon="15.286705"><ele>649.0</ele><time>2026-03-28T08:36:12.489Z</time></trkpt><trkpt lat="40.9226133" lon="15.286825"><ele>650.1428571428571</ele><time>2026-03-28T08:36:14.489Z</time></trkpt><trkpt lat="40.922655" lon="15.2869017"><ele>651.2857142857142</ele><time>2026-03-28T08:36:15.489Z</time></trkpt><trkpt lat="40.922685" lon="15.2869817"><ele>652.4285714285713</ele><time>2026-03-28T08:36:16.489Z</time></trkpt><trkpt lat="40.9227167" lon="15.2870683"><ele>653.5714285714286</ele><time>2026-03-28T08:36:17.489Z</time></trkpt><trkpt lat="40.9227417" lon="15.28716"><ele>654.7142857142858</ele><time>2026-03-28T08:36:18.489Z</time></trkpt><trkpt lat="40.9227567" lon="15.28725"><ele>655.8571428571428</ele><time>2026-03-28T08:36:19.488Z</time></trkpt><trkpt lat="40.9227683" lon="15.28735"><ele>657.0</ele><time>2026-03-28T08:36:20.488Z</time></trkpt><trkpt lat="40.92278" lon="15.2874617"><ele>657.0</ele><time>2026-03-28T08:36:21.489Z</time></trkpt><trkpt lat="40.9227867" lon="15.2875633"><ele>657.0</ele><time>2026-03-28T08:36:22.489Z</time></trkpt><trkpt lat="40.9227883" lon="15.2876633"><ele>657.0</ele><time>2026-03-28T08:36:23.489Z</time></trkpt><trkpt lat="40.9227867" lon="15.287765"><ele>657.0</ele><time>2026-03-28T08:36:24.489Z</time></trkpt><trkpt lat="40.9228" lon="15.2878717"><ele>657.0</ele><time>2026-03-28T08:36:25.489Z</time></trkpt><trkpt lat="40.9228183" lon="15.2879717"><ele>657.0</ele><time>2026-03-28T08:36:26.488Z</time></trkpt><trkpt lat="40.922845" lon="15.2880683"><ele>656.3333333333334</ele><time>2026-03-28T08:36:27.488Z</time></trkpt><trkpt lat="40.9228717" lon="15.28817"><ele>655.6666666666666</ele><time>2026-03-28T08:36:28.488Z</time></trkpt><trkpt lat="40.922905" lon="15.2882817"><ele>655.0</ele><time>2026-03-28T08:36:29.489Z</time></trkpt><trkpt lat="40.922935" lon="15.288395"><ele>654.3333333333333</ele><time>2026-03-28T08:36:30.489Z</time></trkpt><trkpt lat="40.922965" lon="15.2885033"><ele>653.6666666666666</ele><time>2026-03-28T08:36:31.489Z</time></trkpt><trkpt lat="40.9229933" lon="15.2886067"><ele>653.0</ele><time>2026-03-28T08:36:32.489Z</time></trkpt><trkpt lat="40.9230167" lon="15.2887067"><ele>653.0</ele><time>2026-03-28T08:36:33.489Z</time></trkpt><trkpt lat="40.9230333" lon="15.2887967"><ele>653.0</ele><time>2026-03-28T08:36:34.488Z</time></trkpt><trkpt lat="40.923055" lon="15.2888883"><ele>653.0</ele><time>2026-03-28T08:36:35.488Z</time></trkpt><trkpt lat="40.9230883" lon="15.288995"><ele>653.0</ele><time>2026-03-28T08:36:36.488Z</time></trkpt><trkpt lat="40.923125" lon="15.2891083"><ele>653.0</ele><time>2026-03-28T08:36:37.489Z</time></trkpt><trkpt lat="40.9231617" lon="15.289225"><ele>653.0</ele><time>2026-03-28T08:36:38.489Z</time></trkpt><trkpt lat="40.9232017" lon="15.289345"><ele>653.5</ele><time>2026-03-28T08:36:39.489Z</time></trkpt><trkpt lat="40.92324" lon="15.2894567"><ele>654.0</ele><time>2026-03-28T08:36:40.489Z</time></trkpt><trkpt lat="40.9232667" lon="15.2895583"><ele>654.5</ele><time>2026-03-28T08:36:41.489Z</time></trkpt><trkpt lat="40.923295" lon="15.2896533"><ele>655.0</ele><time>2026-03-28T08:36:42.489Z</time></trkpt><trkpt lat="40.92332" lon="15.28975"><ele>655.5</ele><time>2026-03-28T08:36:43.489Z</time></trkpt><trkpt lat="40.923345" lon="15.289855"><ele>656.0</ele><time>2026-03-28T08:36:44.489Z</time></trkpt><trkpt lat="40.9233633" lon="15.289955"><ele>656.1428571428571</ele><time>2026-03-28T08:36:45.488Z</time></trkpt><trkpt lat="40.92339" lon="15.2900567"><ele>656.2857142857142</ele><time>2026-03-28T08:36:46.489Z</time></trkpt><trkpt lat="40.9234117" lon="15.2901567"><ele>656.4285714285713</ele><time>2026-03-28T08:36:47.488Z</time></trkpt><trkpt lat="40.923435" lon="15.2902433"><ele>656.5714285714286</ele><time>2026-03-28T08:36:48.489Z</time></trkpt><trkpt lat="40.9234533" lon="15.2903267"><ele>656.7142857142858</ele><time>2026-03-28T08:36:49.488Z</time></trkpt><trkpt lat="40.9234717" lon="15.2904083"><ele>656.8571428571428</ele><time>2026-03-28T08:36:50.489Z</time></trkpt><trkpt lat="40.92349" lon="15.2904883"><ele>657.0</ele><time>2026-03-28T08:36:51.488Z</time></trkpt><trkpt lat="40.92351" lon="15.29057"><ele>658.4285714285714</ele><time>2026-03-28T08:36:52.488Z</time></trkpt><trkpt lat="40.9235367" lon="15.290655"><ele>659.8571428571429</ele><time>2026-03-28T08:36:53.488Z</time></trkpt><trkpt lat="40.9235567" lon="15.290735"><ele>661.2857142857143</ele><time>2026-03-28T08:36:54.489Z</time></trkpt><trkpt lat="40.923575" lon="15.2908183"><ele>662.7142857142858</ele><time>2026-03-28T08:36:55.489Z</time></trkpt><trkpt lat="40.9235917" lon="15.29091"><ele>664.1428571428571</ele><time>2026-03-28T08:36:56.489Z</time></trkpt><trkpt lat="40.9236117" lon="15.291"><ele>665.5714285714287</ele><time>2026-03-28T08:36:57.489Z</time></trkpt><trkpt lat="40.9236267" lon="15.29109"><ele>667.0</ele><time>2026-03-28T08:36:58.489Z</time></trkpt><trkpt lat="40.92364" lon="15.2911733"><ele>667.0</ele><time>2026-03-28T08:36:59.489Z</time></trkpt><trkpt lat="40.9236533" lon="15.29126"><ele>667.0</ele><time>2026-03-28T08:37:00.489Z</time></trkpt><trkpt lat="40.9236783" lon="15.2914217"><ele>667.0</ele><time>2026-03-28T08:37:02.488Z</time></trkpt><trkpt lat="40.9237017" lon="15.291505"><ele>667.0</ele><time>2026-03-28T08:37:03.489Z</time></trkpt><trkpt lat="40.923735" lon="15.291585"><ele>667.0</ele><time>2026-03-28T08:37:04.488Z</time></trkpt><trkpt lat="40.92377" lon="15.2916667"><ele>667.0</ele><time>2026-03-28T08:37:05.489Z</time></trkpt><trkpt lat="40.9238017" lon="15.291755"><ele>666.1666666666667</ele><time>2026-03-28T08:37:06.489Z</time></trkpt><trkpt lat="40.923835" lon="15.291845"><ele>665.3333333333334</ele><time>2026-03-28T08:37:07.488Z</time></trkpt><trkpt lat="40.9238633" lon="15.291925"><ele>664.5</ele><time>2026-03-28T08:37:08.489Z</time></trkpt><trkpt lat="40.9239083" lon="15.292065"><ele>663.6666666666666</ele><time>2026-03-28T08:37:10.489Z</time></trkpt><trkpt lat="40.92396" lon="15.2922083"><ele>662.8333333333333</ele><time>2026-03-28T08:37:12.488Z</time></trkpt><trkpt lat="40.9239883" lon="15.2922867"><ele>662.0</ele><time>2026-03-28T08:37:13.489Z</time></trkpt><trkpt lat="40.9240167" lon="15.2923717"><ele>660.6</ele><time>2026-03-28T08:37:14.488Z</time></trkpt><trkpt lat="40.924035" lon="15.292455"><ele>659.2</ele><time>2026-03-28T08:37:15.488Z</time></trkpt><trkpt lat="40.9240483" lon="15.2925417"><ele>657.8</ele><time>2026-03-28T08:37:16.488Z</time></trkpt><trkpt lat="40.92409" lon="15.29269"><ele>656.4</ele><time>2026-03-28T08:37:18.489Z</time></trkpt><trkpt lat="40.9241433" lon="15.2928283"><ele>655.0</ele><time>2026-03-28T08:37:20.488Z</time></trkpt><trkpt lat="40.92419" lon="15.29298"><ele>656.8333333333334</ele><time>2026-03-28T08:37:22.489Z</time></trkpt><trkpt lat="40.924235" lon="15.29314"><ele>658.6666666666667</ele><time>2026-03-28T08:37:24.489Z</time></trkpt><trkpt lat="40.9242633" lon="15.2932383"><ele>660.5</ele><time>2026-03-28T08:37:25.488Z</time></trkpt><trkpt lat="40.9242917" lon="15.2933267"><ele>662.3333333333334</ele><time>2026-03-28T08:37:26.488Z</time></trkpt><trkpt lat="40.92433" lon="15.293415"><ele>664.1666666666666</ele><time>2026-03-28T08:37:27.488Z</time></trkpt><trkpt lat="40.92436" lon="15.293515"><ele>666.0</ele><time>2026-03-28T08:37:28.488Z</time></trkpt><trkpt lat="40.924395" lon="15.2936233"><ele>666.0</ele><time>2026-03-28T08:37:29.489Z</time></trkpt><trkpt lat="40.9244283" lon="15.2937267"><ele>666.0</ele><time>2026-03-28T08:37:30.488Z</time></trkpt><trkpt lat="40.92445" lon="15.2938217"><ele>666.0</ele><time>2026-03-28T08:37:31.488Z</time></trkpt><trkpt lat="40.9244717" lon="15.2939067"><ele>666.0</ele><time>2026-03-28T08:37:32.488Z</time></trkpt><trkpt lat="40.9245083" lon="15.2940033"><ele>666.0</ele><time>2026-03-28T08:37:33.489Z</time></trkpt><trkpt lat="40.9245517" lon="15.2941"><ele>666.0</ele><time>2026-03-28T08:37:34.488Z</time></trkpt><trkpt lat="40.9246017" lon="15.2942"><ele>664.8333333333334</ele><time>2026-03-28T08:37:35.489Z</time></trkpt><trkpt lat="40.9246483" lon="15.2942883"><ele>663.6666666666666</ele><time>2026-03-28T08:37:36.488Z</time></trkpt><trkpt lat="40.924705" lon="15.2943867"><ele>662.5</ele><time>2026-03-28T08:37:37.489Z</time></trkpt><trkpt lat="40.9247583" lon="15.2944733"><ele>661.3333333333333</ele><time>2026-03-28T08:37:38.489Z</time></trkpt><trkpt lat="40.9248133" lon="15.2945567"><ele>660.1666666666666</ele><time>2026-03-28T08:37:39.489Z</time></trkpt><trkpt lat="40.9248683" lon="15.2946383"><ele>659.0</ele><time>2026-03-28T08:37:40.489Z</time></trkpt><trkpt lat="40.924915" lon="15.2947267"><ele>658.0</ele><time>2026-03-28T08:37:41.489Z</time></trkpt><trkpt lat="40.924955" lon="15.29481"><ele>657.0</ele><time>2026-03-28T08:37:42.488Z</time></trkpt><trkpt lat="40.92499" lon="15.2948917"><ele>656.0</ele><time>2026-03-28T08:37:43.488Z</time></trkpt><trkpt lat="40.9250133" lon="15.2949783"><ele>655.0</ele><time>2026-03-28T08:37:44.488Z</time></trkpt><trkpt lat="40.9250383" lon="15.2950717"><ele>654.0</ele><time>2026-03-28T08:37:45.489Z</time></trkpt><trkpt lat="40.9250483" lon="15.2951733"><ele>653.0</ele><time>2026-03-28T08:37:46.489Z</time></trkpt><trkpt lat="40.92506" lon="15.2952883"><ele>654.3333333333333</ele><time>2026-03-28T08:37:47.489Z</time></trkpt><trkpt lat="40.9250683" lon="15.2953917"><ele>655.6666666666666</ele><time>2026-03-28T08:37:48.488Z</time></trkpt><trkpt lat="40.9250733" lon="15.2954983"><ele>657.0</ele><time>2026-03-28T08:37:49.489Z</time></trkpt><trkpt lat="40.9250783" lon="15.2956017"><ele>658.3333333333334</ele><time>2026-03-28T08:37:50.489Z</time></trkpt><trkpt lat="40.92509" lon="15.2957033"><ele>659.6666666666667</ele><time>2026-03-28T08:37:51.488Z</time></trkpt><trkpt lat="40.925115" lon="15.2958033"><ele>661.0</ele><time>2026-03-28T08:37:52.488Z</time></trkpt><trkpt lat="40.92515" lon="15.2959017"><ele>661.0</ele><time>2026-03-28T08:37:53.488Z</time></trkpt><trkpt lat="40.925185" lon="15.2960067"><ele>661.0</ele><time>2026-03-28T08:37:54.488Z</time></trkpt><trkpt lat="40.9252217" lon="15.2961133"><ele>661.0</ele><time>2026-03-28T08:37:55.489Z</time></trkpt><trkpt lat="40.9252433" lon="15.29621"><ele>661.0</ele><time>2026-03-28T08:37:56.488Z</time></trkpt><trkpt lat="40.925275" lon="15.296305"><ele>661.0</ele><time>2026-03-28T08:37:57.488Z</time></trkpt><trkpt lat="40.9253167" lon="15.2964017"><ele>661.0</ele><time>2026-03-28T08:37:58.489Z</time></trkpt><trkpt lat="40.92536" lon="15.2964833"><ele>659.5</ele><time>2026-03-28T08:37:59.489Z</time></trkpt><trkpt lat="40.9253983" lon="15.29657"><ele>658.0</ele><time>2026-03-28T08:38:00.489Z</time></trkpt><trkpt lat="40.92543" lon="15.296665"><ele>656.5</ele><time>2026-03-28T08:38:01.489Z</time></trkpt><trkpt lat="40.9254567" lon="15.29677"><ele>655.0</ele><time>2026-03-28T08:38:02.489Z</time></trkpt><trkpt lat="40.9254833" lon="15.2968833"><ele>653.5</ele><time>2026-03-28T08:38:03.489Z</time></trkpt><trkpt lat="40.9255017" lon="15.2969967"><ele>652.0</ele><time>2026-03-28T08:38:04.488Z</time></trkpt><trkpt lat="40.92552" lon="15.2970967"><ele>652.0</ele><time>2026-03-28T08:38:05.488Z</time></trkpt><trkpt lat="40.9255417" lon="15.29719"><ele>652.0</ele><time>2026-03-28T08:38:06.488Z</time></trkpt><trkpt lat="40.925565" lon="15.2973567"><ele>652.0</ele><time>2026-03-28T08:38:08.488Z</time></trkpt><trkpt lat="40.9255833" lon="15.2974383"><ele>652.0</ele><time>2026-03-28T08:38:09.488Z</time></trkpt><trkpt lat="40.9256217" lon="15.2975233"><ele>652.0</ele><time>2026-03-28T08:38:10.489Z</time></trkpt><trkpt lat="40.9256667" lon="15.297585"><ele>652.0</ele><time>2026-03-28T08:38:11.489Z</time></trkpt><trkpt lat="40.92572" lon="15.2976533"><ele>652.0</ele><time>2026-03-28T08:38:12.488Z</time></trkpt><trkpt lat="40.9257733" lon="15.29772"><ele>652.0</ele><time>2026-03-28T08:38:13.488Z</time></trkpt><trkpt lat="40.9258317" lon="15.2977833"><ele>652.0</ele><time>2026-03-28T08:38:14.489Z</time></trkpt><trkpt lat="40.925895" lon="15.2978467"><ele>652.0</ele><time>2026-03-28T08:38:15.488Z</time></trkpt><trkpt lat="40.92596" lon="15.29791"><ele>652.0</ele><time>2026-03-28T08:38:16.489Z</time></trkpt><trkpt lat="40.926025" lon="15.29797"><ele>652.0</ele><time>2026-03-28T08:38:17.488Z</time></trkpt><trkpt lat="40.9260867" lon="15.2980283"><ele>649.8333333333334</ele><time>2026-03-28T08:38:18.489Z</time></trkpt><trkpt lat="40.926145" lon="15.2980917"><ele>647.6666666666667</ele><time>2026-03-28T08:38:19.488Z</time></trkpt><trkpt lat="40.9262067" lon="15.2981483"><ele>645.5</ele><time>2026-03-28T08:38:20.489Z</time></trkpt><trkpt lat="40.9262667" lon="15.2982117"><ele>643.3333333333334</ele><time>2026-03-28T08:38:21.489Z</time></trkpt><trkpt lat="40.9263267" lon="15.2982717"><ele>641.1666666666666</ele><time>2026-03-28T08:38:22.488Z</time></trkpt><trkpt lat="40.92638" lon="15.2983383"><ele>639.0</ele><time>2026-03-28T08:38:23.488Z</time></trkpt><trkpt lat="40.9264417" lon="15.29841"><ele>639.0</ele><time>2026-03-28T08:38:24.489Z</time></trkpt><trkpt lat="40.9264833" lon="15.2984833"><ele>639.0</ele><time>2026-03-28T08:38:25.489Z</time></trkpt><trkpt lat="40.9265233" lon="15.2985683"><ele>639.0</ele><time>2026-03-28T08:38:26.488Z</time></trkpt><trkpt lat="40.92656" lon="15.2986617"><ele>639.0</ele><time>2026-03-28T08:38:27.489Z</time></trkpt><trkpt lat="40.9265867" lon="15.2987567"><ele>639.0</ele><time>2026-03-28T08:38:28.488Z</time></trkpt><trkpt lat="40.9266067" lon="15.29886"><ele>639.0</ele><time>2026-03-28T08:38:29.489Z</time></trkpt><trkpt lat="40.926625" lon="15.2989583"><ele>638.4285714285714</ele><time>2026-03-28T08:38:30.489Z</time></trkpt><trkpt lat="40.92663" lon="15.29906"><ele>637.8571428571429</ele><time>2026-03-28T08:38:31.489Z</time></trkpt><trkpt lat="40.9266283" lon="15.2991583"><ele>637.2857142857142</ele><time>2026-03-28T08:38:32.488Z</time></trkpt><trkpt lat="40.9266267" lon="15.2992567"><ele>636.7142857142858</ele><time>2026-03-28T08:38:33.489Z</time></trkpt><trkpt lat="40.926625" lon="15.29935"><ele>636.1428571428571</ele><time>2026-03-28T08:38:34.488Z</time></trkpt><trkpt lat="40.9266333" lon="15.2994433"><ele>635.5714285714286</ele><time>2026-03-28T08:38:35.489Z</time></trkpt><trkpt lat="40.9266483" lon="15.2995367"><ele>635.0</ele><time>2026-03-28T08:38:36.488Z</time></trkpt><trkpt lat="40.926665" lon="15.2996217"><ele>636.8</ele><time>2026-03-28T08:38:37.488Z</time></trkpt><trkpt lat="40.926735" lon="15.2997733"><ele>638.6</ele><time>2026-03-28T08:38:39.489Z</time></trkpt><trkpt lat="40.9267883" lon="15.299855"><ele>640.4000000000001</ele><time>2026-03-28T08:38:40.489Z</time></trkpt><trkpt lat="40.9268467" lon="15.299935"><ele>642.2</ele><time>2026-03-28T08:38:41.489Z</time></trkpt><trkpt lat="40.9269017" lon="15.300025"><ele>644.0</ele><time>2026-03-28T08:38:42.489Z</time></trkpt><trkpt lat="40.9269567" lon="15.300115"><ele>644.0</ele><time>2026-03-28T08:38:43.489Z</time></trkpt><trkpt lat="40.92701" lon="15.3002"><ele>644.0</ele><time>2026-03-28T08:38:44.489Z</time></trkpt><trkpt lat="40.92706" lon="15.3002817"><ele>644.0</ele><time>2026-03-28T08:38:45.488Z</time></trkpt><trkpt lat="40.92711" lon="15.3003683"><ele>644.0</ele><time>2026-03-28T08:38:46.489Z</time></trkpt><trkpt lat="40.9271533" lon="15.3004567"><ele>644.0</ele><time>2026-03-28T08:38:47.488Z</time></trkpt><trkpt lat="40.9272033" lon="15.300535"><ele>644.0</ele><time>2026-03-28T08:38:48.488Z</time></trkpt><trkpt lat="40.927255" lon="15.300615"><ele>643.0</ele><time>2026-03-28T08:38:49.488Z</time></trkpt><trkpt lat="40.9273133" lon="15.3006933"><ele>642.0</ele><time>2026-03-28T08:38:50.489Z</time></trkpt><trkpt lat="40.92737" lon="15.3007667"><ele>641.0</ele><time>2026-03-28T08:38:51.489Z</time></trkpt><trkpt lat="40.9274233" lon="15.3008433"><ele>640.0</ele><time>2026-03-28T08:38:52.489Z</time></trkpt><trkpt lat="40.9274833" lon="15.30091"><ele>639.0</ele><time>2026-03-28T08:38:53.488Z</time></trkpt><trkpt lat="40.9275417" lon="15.3009733"><ele>638.0</ele><time>2026-03-28T08:38:54.489Z</time></trkpt><trkpt lat="40.9276067" lon="15.3010383"><ele>638.6666666666666</ele><time>2026-03-28T08:38:55.488Z</time></trkpt><trkpt lat="40.9276617" lon="15.3011167"><ele>639.3333333333333</ele><time>2026-03-28T08:38:56.488Z</time></trkpt><trkpt lat="40.927715" lon="15.3012017"><ele>640.0</ele><time>2026-03-28T08:38:57.488Z</time></trkpt><trkpt lat="40.9277667" lon="15.30129"><ele>640.6666666666666</ele><time>2026-03-28T08:38:58.489Z</time></trkpt><trkpt lat="40.9278183" lon="15.30137"><ele>641.3333333333334</ele><time>2026-03-28T08:38:59.488Z</time></trkpt><trkpt lat="40.9278633" lon="15.3014467"><ele>642.0</ele><time>2026-03-28T08:39:00.489Z</time></trkpt><trkpt lat="40.927905" lon="15.3015283"><ele>642.0</ele><time>2026-03-28T08:39:01.488Z</time></trkpt><trkpt lat="40.927935" lon="15.3016233"><ele>642.0</ele><time>2026-03-28T08:39:02.488Z</time></trkpt><trkpt lat="40.9279533" lon="15.30173"><ele>642.0</ele><time>2026-03-28T08:39:03.489Z</time></trkpt><trkpt lat="40.9279717" lon="15.301835"><ele>642.0</ele><time>2026-03-28T08:39:04.489Z</time></trkpt><trkpt lat="40.9279933" lon="15.30193"><ele>642.0</ele><time>2026-03-28T08:39:05.489Z</time></trkpt><trkpt lat="40.9280217" lon="15.3020283"><ele>642.0</ele><time>2026-03-28T08:39:06.488Z</time></trkpt><trkpt lat="40.928065" lon="15.3021283"><ele>642.0</ele><time>2026-03-28T08:39:07.489Z</time></trkpt><trkpt lat="40.9281133" lon="15.30223"><ele>642.0</ele><time>2026-03-28T08:39:08.488Z</time></trkpt><trkpt lat="40.928155" lon="15.3023317"><ele>642.0</ele><time>2026-03-28T08:39:09.489Z</time></trkpt><trkpt lat="40.92819" lon="15.3024333"><ele>642.0</ele><time>2026-03-28T08:39:10.489Z</time></trkpt><trkpt lat="40.9282083" lon="15.3025367"><ele>642.0</ele><time>2026-03-28T08:39:11.488Z</time></trkpt><trkpt lat="40.92822" lon="15.30265"><ele>642.0</ele><time>2026-03-28T08:39:12.489Z</time></trkpt><trkpt lat="40.9282333" lon="15.3027717"><ele>641.0</ele><time>2026-03-28T08:39:13.489Z</time></trkpt><trkpt lat="40.9282483" lon="15.3028717"><ele>640.0</ele><time>2026-03-28T08:39:14.489Z</time></trkpt><trkpt lat="40.9282633" lon="15.3029667"><ele>639.0</ele><time>2026-03-28T08:39:15.489Z</time></trkpt><trkpt lat="40.9282933" lon="15.30313"><ele>638.0</ele><time>2026-03-28T08:39:17.489Z</time></trkpt><trkpt lat="40.9283083" lon="15.3032883"><ele>637.0</ele><time>2026-03-28T08:39:19.489Z</time></trkpt><trkpt lat="40.928265" lon="15.3034267"><ele>636.8333333333334</ele><time>2026-03-28T08:39:21.488Z</time></trkpt><trkpt lat="40.9282333" lon="15.3035033"><ele>636.6666666666667</ele><time>2026-03-28T08:39:22.488Z</time></trkpt><trkpt lat="40.9281983" lon="15.3035817"><ele>636.5</ele><time>2026-03-28T08:39:23.489Z</time></trkpt><trkpt lat="40.9281667" lon="15.3036617"><ele>636.3333333333334</ele><time>2026-03-28T08:39:24.489Z</time></trkpt><trkpt lat="40.9281433" lon="15.3037417"><ele>636.1666666666666</ele><time>2026-03-28T08:39:25.488Z</time></trkpt><trkpt lat="40.92813" lon="15.3038267"><ele>636.0</ele><time>2026-03-28T08:39:26.489Z</time></trkpt><trkpt lat="40.9281417" lon="15.3039983"><ele>635.5</ele><time>2026-03-28T08:39:28.489Z</time></trkpt><trkpt lat="40.9281667" lon="15.3040883"><ele>635.0</ele><time>2026-03-28T08:39:29.488Z</time></trkpt><trkpt lat="40.9281967" lon="15.3041733"><ele>634.5</ele><time>2026-03-28T08:39:30.489Z</time></trkpt><trkpt lat="40.9282367" lon="15.3042617"><ele>634.0</ele><time>2026-03-28T08:39:31.489Z</time></trkpt><trkpt lat="40.9282883" lon="15.304355"><ele>633.5</ele><time>2026-03-28T08:39:32.488Z</time></trkpt><trkpt lat="40.9283417" lon="15.304445"><ele>633.0</ele><time>2026-03-28T08:39:33.488Z</time></trkpt><trkpt lat="40.9284033" lon="15.3045283"><ele>635.0</ele><time>2026-03-28T08:39:34.489Z</time></trkpt><trkpt lat="40.928465" lon="15.30462"><ele>637.0</ele><time>2026-03-28T08:39:35.488Z</time></trkpt><trkpt lat="40.9285283" lon="15.30471"><ele>639.0</ele><time>2026-03-28T08:39:36.489Z</time></trkpt><trkpt lat="40.9285817" lon="15.30481"><ele>641.0</ele><time>2026-03-28T08:39:37.489Z</time></trkpt><trkpt lat="40.92863" lon="15.30492"><ele>643.0</ele><time>2026-03-28T08:39:38.488Z</time></trkpt><trkpt lat="40.9286633" lon="15.3050433"><ele>643.0</ele><time>2026-03-28T08:39:39.489Z</time></trkpt><trkpt lat="40.9287033" lon="15.3051817"><ele>643.0</ele><time>2026-03-28T08:39:40.488Z</time></trkpt><trkpt lat="40.92875" lon="15.3053183"><ele>643.0</ele><time>2026-03-28T08:39:41.489Z</time></trkpt><trkpt lat="40.92879" lon="15.3054433"><ele>643.0</ele><time>2026-03-28T08:39:42.489Z</time></trkpt><trkpt lat="40.928825" lon="15.305565"><ele>643.0</ele><time>2026-03-28T08:39:43.489Z</time></trkpt><trkpt lat="40.928865" lon="15.3056817"><ele>642.4</ele><time>2026-03-28T08:39:44.489Z</time></trkpt><trkpt lat="40.9289017" lon="15.3057983"><ele>641.8</ele><time>2026-03-28T08:39:45.489Z</time></trkpt><trkpt lat="40.9289417" lon="15.3059167"><ele>641.2</ele><time>2026-03-28T08:39:46.489Z</time></trkpt><trkpt lat="40.9289833" lon="15.3060333"><ele>640.6</ele><time>2026-03-28T08:39:47.488Z</time></trkpt><trkpt lat="40.9290183" lon="15.3061533"><ele>640.0</ele><time>2026-03-28T08:39:48.488Z</time></trkpt><trkpt lat="40.9290533" lon="15.30626"><ele>640.0</ele><time>2026-03-28T08:39:49.489Z</time></trkpt><trkpt lat="40.9290783" lon="15.306365"><ele>640.0</ele><time>2026-03-28T08:39:50.489Z</time></trkpt><trkpt lat="40.9290967" lon="15.3064517"><ele>640.0</ele><time>2026-03-28T08:39:51.489Z</time></trkpt><trkpt lat="40.9291267" lon="15.3065383"><ele>640.0</ele><time>2026-03-28T08:39:52.489Z</time></trkpt><trkpt lat="40.9291683" lon="15.3066267"><ele>640.0</ele><time>2026-03-28T08:39:53.489Z</time></trkpt><trkpt lat="40.929205" lon="15.3067033"><ele>640.0</ele><time>2026-03-28T08:39:54.488Z</time></trkpt><trkpt lat="40.9292317" lon="15.3068483"><ele>643.4</ele><time>2026-03-28T08:39:56.488Z</time></trkpt><trkpt lat="40.9292467" lon="15.3069683"><ele>646.8</ele><time>2026-03-28T08:39:58.489Z</time></trkpt><trkpt lat="40.9292783" lon="15.3070433"><ele>650.2</ele><time>2026-03-28T08:40:00.489Z</time></trkpt><trkpt lat="40.929365" lon="15.307045"><ele>653.6</ele><time>2026-03-28T08:40:02.489Z</time></trkpt><trkpt lat="40.9294383" lon="15.3069767"><ele>657.0</ele><time>2026-03-28T08:40:04.489Z</time></trkpt><trkpt lat="40.9295417" lon="15.3068917"><ele>657.0</ele><time>2026-03-28T08:40:06.489Z</time></trkpt><trkpt lat="40.9296533" lon="15.30685"><ele>657.0</ele><time>2026-03-28T08:40:08.489Z</time></trkpt><trkpt lat="40.929715" lon="15.30683"><ele>657.0</ele><time>2026-03-28T08:40:09.489Z</time></trkpt><trkpt lat="40.9297767" lon="15.3068033"><ele>657.0</ele><time>2026-03-28T08:40:10.489Z</time></trkpt><trkpt lat="40.9298367" lon="15.30677"><ele>657.0</ele><time>2026-03-28T08:40:11.488Z</time></trkpt><trkpt lat="40.929885" lon="15.306715"><ele>657.0</ele><time>2026-03-28T08:40:12.489Z</time></trkpt><trkpt lat="40.9299267" lon="15.30665"><ele>657.0</ele><time>2026-03-28T08:40:13.489Z</time></trkpt><trkpt lat="40.9300083" lon="15.306535"><ele>659.0</ele><time>2026-03-28T08:40:15.489Z</time></trkpt><trkpt lat="40.9300683" lon="15.3064967"><ele>661.0</ele><time>2026-03-28T08:40:16.489Z</time></trkpt><trkpt lat="40.9301333" lon="15.3064717"><ele>663.0</ele><time>2026-03-28T08:40:17.488Z</time></trkpt><trkpt lat="40.9302067" lon="15.30645"><ele>665.0</ele><time>2026-03-28T08:40:18.489Z</time></trkpt><trkpt lat="40.9302867" lon="15.3064183"><ele>667.0</ele><time>2026-03-28T08:40:19.49Z</time></trkpt><trkpt lat="40.9303717" lon="15.3063733"><ele>669.0</ele><time>2026-03-28T08:40:20.489Z</time></trkpt><trkpt lat="40.930455" lon="15.30632"><ele>670.1666666666666</ele><time>2026-03-28T08:40:21.49Z</time></trkpt><trkpt lat="40.93053" lon="15.30626"><ele>671.3333333333334</ele><time>2026-03-28T08:40:22.489Z</time></trkpt><trkpt lat="40.9305983" lon="15.3061983"><ele>672.5</ele><time>2026-03-28T08:40:23.489Z</time></trkpt><trkpt lat="40.9306683" lon="15.3061317"><ele>673.6666666666667</ele><time>2026-03-28T08:40:24.489Z</time></trkpt><trkpt lat="40.9307383" lon="15.30607"><ele>674.8333333333334</ele><time>2026-03-28T08:40:25.49Z</time></trkpt><trkpt lat="40.9308083" lon="15.3060233"><ele>676.0</ele><time>2026-03-28T08:40:26.489Z</time></trkpt><trkpt lat="40.9308733" lon="15.3059717"><ele>679.0</ele><time>2026-03-28T08:40:27.49Z</time></trkpt><trkpt lat="40.9309267" lon="15.305915"><ele>682.0</ele><time>2026-03-28T08:40:28.49Z</time></trkpt><trkpt lat="40.9309783" lon="15.3058417"><ele>685.0</ele><time>2026-03-28T08:40:29.489Z</time></trkpt><trkpt lat="40.9310233" lon="15.3057617"><ele>688.0</ele><time>2026-03-28T08:40:30.49Z</time></trkpt><trkpt lat="40.9310767" lon="15.305645"><ele>691.0</ele><time>2026-03-28T08:40:31.49Z</time></trkpt><trkpt lat="40.931125" lon="15.3055217"><ele>694.0</ele><time>2026-03-28T08:40:32.49Z</time></trkpt><trkpt lat="40.9311633" lon="15.3054133"><ele>694.4285714285714</ele><time>2026-03-28T08:40:33.489Z</time></trkpt><trkpt lat="40.9311933" lon="15.30531"><ele>694.8571428571428</ele><time>2026-03-28T08:40:34.49Z</time></trkpt><trkpt lat="40.93122" lon="15.3052167"><ele>695.2857142857142</ele><time>2026-03-28T08:40:35.489Z</time></trkpt><trkpt lat="40.9312533" lon="15.305145"><ele>695.7142857142858</ele><time>2026-03-28T08:40:36.49Z</time></trkpt><trkpt lat="40.9313017" lon="15.3050717"><ele>696.1428571428571</ele><time>2026-03-28T08:40:37.489Z</time></trkpt><trkpt lat="40.9313617" lon="15.3050217"><ele>696.5714285714286</ele><time>2026-03-28T08:40:38.49Z</time></trkpt><trkpt lat="40.93144" lon="15.3049967"><ele>697.0</ele><time>2026-03-28T08:40:39.49Z</time></trkpt><trkpt lat="40.93151" lon="15.3050017"><ele>697.0</ele><time>2026-03-28T08:40:40.489Z</time></trkpt><trkpt lat="40.9315767" lon="15.3050233"><ele>697.0</ele><time>2026-03-28T08:40:41.49Z</time></trkpt><trkpt lat="40.9316433" lon="15.3050667"><ele>697.0</ele><time>2026-03-28T08:40:42.489Z</time></trkpt><trkpt lat="40.9317083" lon="15.3051167"><ele>697.0</ele><time>2026-03-28T08:40:43.49Z</time></trkpt><trkpt lat="40.93178" lon="15.3051567"><ele>697.0</ele><time>2026-03-28T08:40:44.49Z</time></trkpt><trkpt lat="40.93186" lon="15.3051883"><ele>697.0</ele><time>2026-03-28T08:40:45.49Z</time></trkpt><trkpt lat="40.9319317" lon="15.3052033"><ele>700.0</ele><time>2026-03-28T08:40:46.49Z</time></trkpt><trkpt lat="40.932" lon="15.3052117"><ele>703.0</ele><time>2026-03-28T08:40:47.49Z</time></trkpt><trkpt lat="40.93207" lon="15.305205"><ele>706.0</ele><time>2026-03-28T08:40:48.489Z</time></trkpt><trkpt lat="40.9322" lon="15.3051383"><ele>709.0</ele><time>2026-03-28T08:40:50.49Z</time></trkpt><trkpt lat="40.9322833" lon="15.3050883"><ele>712.0</ele><time>2026-03-28T08:40:51.49Z</time></trkpt><trkpt lat="40.932375" lon="15.30504"><ele>712.0</ele><time>2026-03-28T08:40:52.489Z</time></trkpt><trkpt lat="40.9324633" lon="15.3050233"><ele>712.0</ele><time>2026-03-28T08:40:53.49Z</time></trkpt><trkpt lat="40.9325467" lon="15.3050317"><ele>712.0</ele><time>2026-03-28T08:40:54.49Z</time></trkpt><trkpt lat="40.932625" lon="15.30505"><ele>712.0</ele><time>2026-03-28T08:40:55.49Z</time></trkpt><trkpt lat="40.9327" lon="15.30508"><ele>712.0</ele><time>2026-03-28T08:40:56.489Z</time></trkpt><trkpt lat="40.93277" lon="15.3051133"><ele>712.0</ele><time>2026-03-28T08:40:57.49Z</time></trkpt><trkpt lat="40.9328317" lon="15.3051517"><ele>712.8</ele><time>2026-03-28T08:40:58.49Z</time></trkpt><trkpt lat="40.9328917" lon="15.30519"><ele>713.6</ele><time>2026-03-28T08:40:59.49Z</time></trkpt><trkpt lat="40.9330033" lon="15.3052283"><ele>714.4</ele><time>2026-03-28T08:41:01.49Z</time></trkpt><trkpt lat="40.93311" lon="15.305205"><ele>715.1999999999999</ele><time>2026-03-28T08:41:03.49Z</time></trkpt><trkpt lat="40.9332" lon="15.3050967"><ele>716.0</ele><time>2026-03-28T08:41:05.489Z</time></trkpt><trkpt lat="40.9332283" lon="15.3050083"><ele>716.0</ele><time>2026-03-28T08:41:06.489Z</time></trkpt><trkpt lat="40.9332533" lon="15.3048967"><ele>716.0</ele><time>2026-03-28T08:41:07.489Z</time></trkpt><trkpt lat="40.933275" lon="15.3047767"><ele>716.0</ele><time>2026-03-28T08:41:08.49Z</time></trkpt><trkpt lat="40.933305" lon="15.3046433"><ele>716.0</ele><time>2026-03-28T08:41:09.489Z</time></trkpt><trkpt lat="40.9333383" lon="15.304505"><ele>716.0</ele><time>2026-03-28T08:41:10.49Z</time></trkpt><trkpt lat="40.933365" lon="15.304375"><ele>717.0</ele><time>2026-03-28T08:41:11.49Z</time></trkpt><trkpt lat="40.9333917" lon="15.30424"><ele>718.0</ele><time>2026-03-28T08:41:12.489Z</time></trkpt><trkpt lat="40.93342" lon="15.3041067"><ele>719.0</ele><time>2026-03-28T08:41:13.489Z</time></trkpt><trkpt lat="40.933435" lon="15.3039933"><ele>720.0</ele><time>2026-03-28T08:41:14.49Z</time></trkpt><trkpt lat="40.933455" lon="15.3038817"><ele>721.0</ele><time>2026-03-28T08:41:15.49Z</time></trkpt><trkpt lat="40.9334733" lon="15.303775"><ele>722.1666666666667</ele><time>2026-03-28T08:41:16.489Z</time></trkpt><trkpt lat="40.9334917" lon="15.3036767"><ele>723.3333333333334</ele><time>2026-03-28T08:41:17.49Z</time></trkpt><trkpt lat="40.9335183" lon="15.3035983"><ele>724.5</ele><time>2026-03-28T08:41:18.49Z</time></trkpt><trkpt lat="40.933585" lon="15.30352"><ele>725.6666666666666</ele><time>2026-03-28T08:41:20.489Z</time></trkpt><trkpt lat="40.9336867" lon="15.3035217"><ele>726.8333333333333</ele><time>2026-03-28T08:41:22.49Z</time></trkpt><trkpt lat="40.93376" lon="15.3035333"><ele>728.0</ele><time>2026-03-28T08:41:23.49Z</time></trkpt><trkpt lat="40.933845" lon="15.3035483"><ele>728.0</ele><time>2026-03-28T08:41:24.489Z</time></trkpt><trkpt lat="40.9339333" lon="15.303565"><ele>728.0</ele><time>2026-03-28T08:41:25.49Z</time></trkpt><trkpt lat="40.9340133" lon="15.3035867"><ele>728.0</ele><time>2026-03-28T08:41:26.489Z</time></trkpt><trkpt lat="40.93409" lon="15.3036133"><ele>728.0</ele><time>2026-03-28T08:41:27.49Z</time></trkpt><trkpt lat="40.9341567" lon="15.3036483"><ele>728.0</ele><time>2026-03-28T08:41:28.489Z</time></trkpt><trkpt lat="40.9342183" lon="15.3036967"><ele>728.0</ele><time>2026-03-28T08:41:29.49Z</time></trkpt><trkpt lat="40.934285" lon="15.3037533"><ele>728.2</ele><time>2026-03-28T08:41:30.489Z</time></trkpt><trkpt lat="40.9343433" lon="15.3038067"><ele>728.4</ele><time>2026-03-28T08:41:31.489Z</time></trkpt><trkpt lat="40.9344033" lon="15.30385"><ele>728.6</ele><time>2026-03-28T08:41:32.49Z</time></trkpt><trkpt lat="40.934515" lon="15.3038767"><ele>728.8000000000001</ele><time>2026-03-28T08:41:34.489Z</time></trkpt><trkpt lat="40.9346183" lon="15.303855"><ele>729.0</ele><time>2026-03-28T08:41:36.489Z</time></trkpt><trkpt lat="40.9346983" lon="15.3037717"><ele>729.0</ele><time>2026-03-28T08:41:38.489Z</time></trkpt><trkpt lat="40.9347517" lon="15.303625"><ele>729.0</ele><time>2026-03-28T08:41:40.489Z</time></trkpt><trkpt lat="40.9347733" lon="15.3035267"><ele>729.0</ele><time>2026-03-28T08:41:41.49Z</time></trkpt><trkpt lat="40.9347867" lon="15.3034283"><ele>729.0</ele><time>2026-03-28T08:41:42.49Z</time></trkpt><trkpt lat="40.9347933" lon="15.3033267"><ele>729.0</ele><time>2026-03-28T08:41:43.49Z</time></trkpt><trkpt lat="40.9347817" lon="15.3032333"><ele>729.0</ele><time>2026-03-28T08:41:44.49Z</time></trkpt><trkpt lat="40.9347467" lon="15.3031517"><ele>730.0</ele><time>2026-03-28T08:41:45.49Z</time></trkpt><trkpt lat="40.9347033" lon="15.3030567"><ele>731.0</ele><time>2026-03-28T08:41:46.489Z</time></trkpt><trkpt lat="40.9346583" lon="15.302955"><ele>732.0</ele><time>2026-03-28T08:41:47.49Z</time></trkpt><trkpt lat="40.9346233" lon="15.30284"><ele>733.0</ele><time>2026-03-28T08:41:48.49Z</time></trkpt><trkpt lat="40.93459" lon="15.3027267"><ele>734.0</ele><time>2026-03-28T08:41:49.489Z</time></trkpt><trkpt lat="40.9345667" lon="15.3026083"><ele>734.0</ele><time>2026-03-28T08:41:50.489Z</time></trkpt><trkpt lat="40.9345567" lon="15.302495"><ele>734.0</ele><time>2026-03-28T08:41:51.49Z</time></trkpt><trkpt lat="40.934565" lon="15.3023817"><ele>734.0</ele><time>2026-03-28T08:41:52.489Z</time></trkpt><trkpt lat="40.9345883" lon="15.3022633"><ele>734.0</ele><time>2026-03-28T08:41:53.49Z</time></trkpt><trkpt lat="40.9346183" lon="15.3021433"><ele>734.0</ele><time>2026-03-28T08:41:54.49Z</time></trkpt><trkpt lat="40.9346517" lon="15.3020117"><ele>735.8000000000001</ele><time>2026-03-28T08:41:55.489Z</time></trkpt><trkpt lat="40.934675" lon="15.3018717"><ele>737.6</ele><time>2026-03-28T08:41:56.489Z</time></trkpt><trkpt lat="40.934695" lon="15.3017417"><ele>739.4</ele><time>2026-03-28T08:41:57.489Z</time></trkpt><trkpt lat="40.9347083" lon="15.3016333"><ele>741.2</ele><time>2026-03-28T08:41:58.49Z</time></trkpt><trkpt lat="40.93472" lon="15.3015467"><ele>743.0</ele><time>2026-03-28T08:41:59.49Z</time></trkpt><trkpt lat="40.93473" lon="15.3014133"><ele>744.5999999999999</ele><time>2026-03-28T08:42:01.49Z</time></trkpt><trkpt lat="40.9347567" lon="15.3012933"><ele>746.1999999999999</ele><time>2026-03-28T08:42:03.49Z</time></trkpt><trkpt lat="40.9348333" lon="15.301195"><ele>747.8</ele><time>2026-03-28T08:42:05.489Z</time></trkpt><trkpt lat="40.93491" lon="15.30115"><ele>749.4</ele><time>2026-03-28T08:42:06.49Z</time></trkpt><trkpt lat="40.9349917" lon="15.301105"><ele>751.0</ele><time>2026-03-28T08:42:07.49Z</time></trkpt><trkpt lat="40.935075" lon="15.3010483"><ele>752.0</ele><time>2026-03-28T08:42:08.489Z</time></trkpt><trkpt lat="40.9351583" lon="15.301"><ele>753.0</ele><time>2026-03-28T08:42:09.49Z</time></trkpt><trkpt lat="40.9352383" lon="15.3009517"><ele>754.0</ele><time>2026-03-28T08:42:10.49Z</time></trkpt><trkpt lat="40.935315" lon="15.3008967"><ele>755.0</ele><time>2026-03-28T08:42:11.49Z</time></trkpt><trkpt lat="40.9354033" lon="15.3008417"><ele>756.0</ele><time>2026-03-28T08:42:12.489Z</time></trkpt><trkpt lat="40.9354983" lon="15.3007917"><ele>756.0</ele><time>2026-03-28T08:42:13.49Z</time></trkpt><trkpt lat="40.9355933" lon="15.3007417"><ele>756.0</ele><time>2026-03-28T08:42:14.489Z</time></trkpt><trkpt lat="40.935685" lon="15.3006933"><ele>756.0</ele><time>2026-03-28T08:42:15.49Z</time></trkpt><trkpt lat="40.9357783" lon="15.3006467"><ele>756.0</ele><time>2026-03-28T08:42:16.49Z</time></trkpt><trkpt lat="40.93587" lon="15.3005933"><ele>756.0</ele><time>2026-03-28T08:42:17.49Z</time></trkpt><trkpt lat="40.9359617" lon="15.3005433"><ele>758.0</ele><time>2026-03-28T08:42:18.49Z</time></trkpt><trkpt lat="40.936055" lon="15.3004983"><ele>760.0</ele><time>2026-03-28T08:42:19.489Z</time></trkpt><trkpt lat="40.93615" lon="15.300455"><ele>762.0</ele><time>2026-03-28T08:42:20.49Z</time></trkpt><trkpt lat="40.9362517" lon="15.30042"><ele>764.0</ele><time>2026-03-28T08:42:21.49Z</time></trkpt><trkpt lat="40.93634" lon="15.3003917"><ele>766.0</ele><time>2026-03-28T08:42:22.49Z</time></trkpt><trkpt lat="40.9364367" lon="15.3003733"><ele>766.0</ele><time>2026-03-28T08:42:23.489Z</time></trkpt><trkpt lat="40.93654" lon="15.3003467"><ele>766.0</ele><time>2026-03-28T08:42:24.49Z</time></trkpt><trkpt lat="40.9366517" lon="15.30033"><ele>766.0</ele><time>2026-03-28T08:42:25.49Z</time></trkpt><trkpt lat="40.9367717" lon="15.3003033"><ele>766.0</ele><time>2026-03-28T08:42:26.49Z</time></trkpt><trkpt lat="40.93688" lon="15.3002717"><ele>768.25</ele><time>2026-03-28T08:42:27.489Z</time></trkpt><trkpt lat="40.93699" lon="15.300235"><ele>770.5</ele><time>2026-03-28T08:42:28.49Z</time></trkpt><trkpt lat="40.937105" lon="15.3002017"><ele>772.75</ele><time>2026-03-28T08:42:29.49Z</time></trkpt><trkpt lat="40.9372167" lon="15.3001667"><ele>775.0</ele><time>2026-03-28T08:42:30.489Z</time></trkpt><trkpt lat="40.937335" lon="15.3001317"><ele>775.0</ele><time>2026-03-28T08:42:31.49Z</time></trkpt><trkpt lat="40.937445" lon="15.3000983"><ele>775.0</ele><time>2026-03-28T08:42:32.489Z</time></trkpt><trkpt lat="40.9375517" lon="15.30006"><ele>775.0</ele><time>2026-03-28T08:42:33.489Z</time></trkpt><trkpt lat="40.9376517" lon="15.3000283"><ele>775.0</ele><time>2026-03-28T08:42:34.489Z</time></trkpt><trkpt lat="40.9377583" lon="15.2999983"><ele>775.0</ele><time>2026-03-28T08:42:35.49Z</time></trkpt><trkpt lat="40.9378717" lon="15.2999633"><ele>777.25</ele><time>2026-03-28T08:42:36.489Z</time></trkpt><trkpt lat="40.9379883" lon="15.2999233"><ele>779.5</ele><time>2026-03-28T08:42:37.49Z</time></trkpt><trkpt lat="40.93811" lon="15.2998833"><ele>781.75</ele><time>2026-03-28T08:42:38.489Z</time></trkpt><trkpt lat="40.9382267" lon="15.2998483"><ele>784.0</ele><time>2026-03-28T08:42:39.489Z</time></trkpt><trkpt lat="40.938345" lon="15.2998083"><ele>785.0</ele><time>2026-03-28T08:42:40.49Z</time></trkpt><trkpt lat="40.9384583" lon="15.29977"><ele>786.0</ele><time>2026-03-28T08:42:41.49Z</time></trkpt><trkpt lat="40.9385633" lon="15.299735"><ele>787.0</ele><time>2026-03-28T08:42:42.49Z</time></trkpt><trkpt lat="40.9386667" lon="15.2996983"><ele>788.0</ele><time>2026-03-28T08:42:43.489Z</time></trkpt><trkpt lat="40.9387633" lon="15.2996583"><ele>789.0</ele><time>2026-03-28T08:42:44.49Z</time></trkpt><trkpt lat="40.938855" lon="15.2996267"><ele>790.4000000000001</ele><time>2026-03-28T08:42:45.49Z</time></trkpt><trkpt lat="40.9389383" lon="15.2995933"><ele>791.8</ele><time>2026-03-28T08:42:46.489Z</time></trkpt><trkpt lat="40.93903" lon="15.299565"><ele>793.2</ele><time>2026-03-28T08:42:47.489Z</time></trkpt><trkpt lat="40.9391233" lon="15.2995233"><ele>794.5999999999999</ele><time>2026-03-28T08:42:48.49Z</time></trkpt><trkpt lat="40.9392233" lon="15.2994867"><ele>796.0</ele><time>2026-03-28T08:42:49.49Z</time></trkpt><trkpt lat="40.9393267" lon="15.2994483"><ele>796.0</ele><time>2026-03-28T08:42:50.489Z</time></trkpt><trkpt lat="40.939435" lon="15.299405"><ele>796.0</ele><time>2026-03-28T08:42:51.49Z</time></trkpt><trkpt lat="40.9395517" lon="15.29936"><ele>796.0</ele><time>2026-03-28T08:42:52.49Z</time></trkpt><trkpt lat="40.93967" lon="15.299315"><ele>796.0</ele><time>2026-03-28T08:42:53.489Z</time></trkpt><trkpt lat="40.9397733" lon="15.29927"><ele>796.0</ele><time>2026-03-28T08:42:54.49Z</time></trkpt><trkpt lat="40.93988" lon="15.299225"><ele>796.0</ele><time>2026-03-28T08:42:55.489Z</time></trkpt><trkpt lat="40.939985" lon="15.2991867"><ele>796.0</ele><time>2026-03-28T08:42:56.49Z</time></trkpt><trkpt lat="40.9400867" lon="15.299145"><ele>796.0</ele><time>2026-03-28T08:42:57.49Z</time></trkpt><trkpt lat="40.94019" lon="15.2991"><ele>796.0</ele><time>2026-03-28T08:42:58.49Z</time></trkpt><trkpt lat="40.9402883" lon="15.2990617"><ele>796.0</ele><time>2026-03-28T08:42:59.49Z</time></trkpt><trkpt lat="40.9403867" lon="15.2990267"><ele>796.0</ele><time>2026-03-28T08:43:00.49Z</time></trkpt><trkpt lat="40.9404817" lon="15.2989883"><ele>796.0</ele><time>2026-03-28T08:43:01.49Z</time></trkpt><trkpt lat="40.9405783" lon="15.2989417"><ele>796.0</ele><time>2026-03-28T08:43:02.49Z</time></trkpt><trkpt lat="40.9406717" lon="15.29889"><ele>796.0</ele><time>2026-03-28T08:43:03.489Z</time></trkpt><trkpt lat="40.9407717" lon="15.2988433"><ele>797.25</ele><time>2026-03-28T08:43:04.49Z</time></trkpt><trkpt lat="40.940875" lon="15.2988017"><ele>798.5</ele><time>2026-03-28T08:43:05.49Z</time></trkpt><trkpt lat="40.940985" lon="15.2987617"><ele>799.75</ele><time>2026-03-28T08:43:06.489Z</time></trkpt><trkpt lat="40.9410983" lon="15.2987167"><ele>801.0</ele><time>2026-03-28T08:43:07.489Z</time></trkpt><trkpt lat="40.9412117" lon="15.2986717"><ele>801.0</ele><time>2026-03-28T08:43:08.489Z</time></trkpt><trkpt lat="40.941315" lon="15.2986267"><ele>801.0</ele><time>2026-03-28T08:43:09.49Z</time></trkpt><trkpt lat="40.94141" lon="15.2985817"><ele>801.0</ele><time>2026-03-28T08:43:10.489Z</time></trkpt><trkpt lat="40.9415" lon="15.29853"><ele>801.0</ele><time>2026-03-28T08:43:11.489Z</time></trkpt><trkpt lat="40.941585" lon="15.2984683"><ele>801.0</ele><time>2026-03-28T08:43:12.49Z</time></trkpt><trkpt lat="40.9416683" lon="15.2983967"><ele>798.8</ele><time>2026-03-28T08:43:13.489Z</time></trkpt><trkpt lat="40.9417467" lon="15.2983083"><ele>796.5999999999999</ele><time>2026-03-28T08:43:14.49Z</time></trkpt><trkpt lat="40.9418233" lon="15.298215"><ele>794.4</ele><time>2026-03-28T08:43:15.49Z</time></trkpt><trkpt lat="40.9418933" lon="15.2981183"><ele>792.2</ele><time>2026-03-28T08:43:16.489Z</time></trkpt><trkpt lat="40.9419617" lon="15.2980183"><ele>790.0</ele><time>2026-03-28T08:43:17.489Z</time></trkpt><trkpt lat="40.9420333" lon="15.297915"><ele>790.0</ele><time>2026-03-28T08:43:18.49Z</time></trkpt><trkpt lat="40.942105" lon="15.29782"><ele>790.0</ele><time>2026-03-28T08:43:19.489Z</time></trkpt><trkpt lat="40.9421833" lon="15.29772"><ele>790.0</ele><time>2026-03-28T08:43:20.49Z</time></trkpt><trkpt lat="40.9422617" lon="15.2976167"><ele>790.0</ele><time>2026-03-28T08:43:21.489Z</time></trkpt><trkpt lat="40.9423383" lon="15.2975117"><ele>790.0</ele><time>2026-03-28T08:43:22.49Z</time></trkpt><trkpt lat="40.9424167" lon="15.2974017"><ele>790.0</ele><time>2026-03-28T08:43:23.489Z</time></trkpt><trkpt lat="40.9424933" lon="15.2973"><ele>790.0</ele><time>2026-03-28T08:43:24.49Z</time></trkpt><trkpt lat="40.942575" lon="15.2971967"><ele>790.0</ele><time>2026-03-28T08:43:25.489Z</time></trkpt><trkpt lat="40.942645" lon="15.2970883"><ele>790.0</ele><time>2026-03-28T08:43:26.489Z</time></trkpt><trkpt lat="40.9427183" lon="15.29698"><ele>790.0</ele><time>2026-03-28T08:43:27.489Z</time></trkpt><trkpt lat="40.9427917" lon="15.2968617"><ele>789.25</ele><time>2026-03-28T08:43:28.489Z</time></trkpt><trkpt lat="40.94287" lon="15.2967483"><ele>788.5</ele><time>2026-03-28T08:43:29.489Z</time></trkpt><trkpt lat="40.9429533" lon="15.29663"><ele>787.75</ele><time>2026-03-28T08:43:30.489Z</time></trkpt><trkpt lat="40.943035" lon="15.296515"><ele>787.0</ele><time>2026-03-28T08:43:31.49Z</time></trkpt><trkpt lat="40.9431133" lon="15.2964067"><ele>787.0</ele><time>2026-03-28T08:43:32.49Z</time></trkpt><trkpt lat="40.9431867" lon="15.2962967"><ele>787.0</ele><time>2026-03-28T08:43:33.49Z</time></trkpt><trkpt lat="40.9432617" lon="15.2961933"><ele>787.0</ele><time>2026-03-28T08:43:34.49Z</time></trkpt><trkpt lat="40.9433367" lon="15.2961"><ele>787.0</ele><time>2026-03-28T08:43:35.49Z</time></trkpt><trkpt lat="40.9434117" lon="15.2960017"><ele>787.0</ele><time>2026-03-28T08:43:36.49Z</time></trkpt><trkpt lat="40.9434767" lon="15.2958983"><ele>786.0</ele><time>2026-03-28T08:43:37.49Z</time></trkpt><trkpt lat="40.9435433" lon="15.29577"><ele>785.0</ele><time>2026-03-28T08:43:38.489Z</time></trkpt><trkpt lat="40.9436" lon="15.2956283"><ele>784.0</ele><time>2026-03-28T08:43:39.49Z</time></trkpt><trkpt lat="40.943655" lon="15.2954767"><ele>783.0</ele><time>2026-03-28T08:43:40.49Z</time></trkpt><trkpt lat="40.9437083" lon="15.29533"><ele>783.0</ele><time>2026-03-28T08:43:41.49Z</time></trkpt><trkpt lat="40.9437617" lon="15.2951867"><ele>783.0</ele><time>2026-03-28T08:43:42.49Z</time></trkpt><trkpt lat="40.94383" lon="15.29504"><ele>783.0</ele><time>2026-03-28T08:43:43.489Z</time></trkpt><trkpt lat="40.9439" lon="15.2948967"><ele>783.0</ele><time>2026-03-28T08:43:44.49Z</time></trkpt><trkpt lat="40.9439617" lon="15.29476"><ele>784.25</ele><time>2026-03-28T08:43:45.49Z</time></trkpt><trkpt lat="40.9440217" lon="15.2946233"><ele>785.5</ele><time>2026-03-28T08:43:46.489Z</time></trkpt><trkpt lat="40.9440967" lon="15.2944833"><ele>786.75</ele><time>2026-03-28T08:43:47.489Z</time></trkpt><trkpt lat="40.9441833" lon="15.2943433"><ele>788.0</ele><time>2026-03-28T08:43:48.49Z</time></trkpt><trkpt lat="40.9442567" lon="15.2942083"><ele>788.0</ele><time>2026-03-28T08:43:49.49Z</time></trkpt><trkpt lat="40.9443283" lon="15.2940767"><ele>788.0</ele><time>2026-03-28T08:43:50.489Z</time></trkpt><trkpt lat="40.9443983" lon="15.2939517"><ele>788.0</ele><time>2026-03-28T08:43:51.489Z</time></trkpt><trkpt lat="40.9444783" lon="15.29384"><ele>788.0</ele><time>2026-03-28T08:43:52.49Z</time></trkpt><trkpt lat="40.9445617" lon="15.2937133"><ele>789.2</ele><time>2026-03-28T08:43:53.49Z</time></trkpt><trkpt lat="40.94464" lon="15.293585"><ele>790.4</ele><time>2026-03-28T08:43:54.49Z</time></trkpt><trkpt lat="40.9447217" lon="15.2934633"><ele>791.6</ele><time>2026-03-28T08:43:55.49Z</time></trkpt><trkpt lat="40.9447883" lon="15.2933517"><ele>792.8000000000001</ele><time>2026-03-28T08:43:56.489Z</time></trkpt><trkpt lat="40.944845" lon="15.2932517"><ele>794.0</ele><time>2026-03-28T08:43:57.489Z</time></trkpt><trkpt lat="40.9449" lon="15.293145"><ele>795.4000000000001</ele><time>2026-03-28T08:43:58.49Z</time></trkpt><trkpt lat="40.9449367" lon="15.2930167"><ele>796.8</ele><time>2026-03-28T08:43:59.489Z</time></trkpt><trkpt lat="40.944965" lon="15.2928717"><ele>798.2</ele><time>2026-03-28T08:44:00.49Z</time></trkpt><trkpt lat="40.9449817" lon="15.29272"><ele>799.5999999999999</ele><time>2026-03-28T08:44:01.49Z</time></trkpt><trkpt lat="40.9449933" lon="15.292585"><ele>801.0</ele><time>2026-03-28T08:44:02.49Z</time></trkpt><trkpt lat="40.945" lon="15.2924683"><ele>801.0</ele><time>2026-03-28T08:44:03.49Z</time></trkpt><trkpt lat="40.9450133" lon="15.292355"><ele>801.0</ele><time>2026-03-28T08:44:04.49Z</time></trkpt><trkpt lat="40.94503" lon="15.29225"><ele>801.0</ele><time>2026-03-28T08:44:05.49Z</time></trkpt><trkpt lat="40.9450667" lon="15.29215"><ele>801.0</ele><time>2026-03-28T08:44:06.489Z</time></trkpt><trkpt lat="40.9451033" lon="15.2920633"><ele>801.0</ele><time>2026-03-28T08:44:07.489Z</time></trkpt><trkpt lat="40.94515" lon="15.2919983"><ele>801.0</ele><time>2026-03-28T08:44:08.489Z</time></trkpt><trkpt lat="40.94521" lon="15.2919517"><ele>801.5</ele><time>2026-03-28T08:44:09.49Z</time></trkpt><trkpt lat="40.9452767" lon="15.29194"><ele>802.0</ele><time>2026-03-28T08:44:10.489Z</time></trkpt><trkpt lat="40.945355" lon="15.2919417"><ele>802.5</ele><time>2026-03-28T08:44:11.489Z</time></trkpt><trkpt lat="40.9454383" lon="15.2919617"><ele>803.0</ele><time>2026-03-28T08:44:12.49Z</time></trkpt><trkpt lat="40.9455217" lon="15.2919983"><ele>803.5</ele><time>2026-03-28T08:44:13.49Z</time></trkpt><trkpt lat="40.9455933" lon="15.292065"><ele>804.0</ele><time>2026-03-28T08:44:14.49Z</time></trkpt><trkpt lat="40.94565" lon="15.29214"><ele>804.0</ele><time>2026-03-28T08:44:15.489Z</time></trkpt><trkpt lat="40.94569" lon="15.2922417"><ele>804.0</ele><time>2026-03-28T08:44:16.49Z</time></trkpt><trkpt lat="40.94572" lon="15.2923617"><ele>804.0</ele><time>2026-03-28T08:44:17.49Z</time></trkpt><trkpt lat="40.94576" lon="15.2924983"><ele>804.0</ele><time>2026-03-28T08:44:18.49Z</time></trkpt><trkpt lat="40.9457983" lon="15.2926333"><ele>804.0</ele><time>2026-03-28T08:44:19.49Z</time></trkpt><trkpt lat="40.9458317" lon="15.2927633"><ele>804.0</ele><time>2026-03-28T08:44:20.489Z</time></trkpt><trkpt lat="40.94586" lon="15.2929017"><ele>804.0</ele><time>2026-03-28T08:44:21.489Z</time></trkpt><trkpt lat="40.945895" lon="15.2930433"><ele>804.0</ele><time>2026-03-28T08:44:22.49Z</time></trkpt><trkpt lat="40.945925" lon="15.293175"><ele>804.0</ele><time>2026-03-28T08:44:23.49Z</time></trkpt><trkpt lat="40.9459467" lon="15.2932967"><ele>804.0</ele><time>2026-03-28T08:44:24.49Z</time></trkpt><trkpt lat="40.9459617" lon="15.2934133"><ele>805.2</ele><time>2026-03-28T08:44:25.49Z</time></trkpt><trkpt lat="40.9459767" lon="15.29354"><ele>806.4000000000001</ele><time>2026-03-28T08:44:26.489Z</time></trkpt><trkpt lat="40.9459933" lon="15.2936633"><ele>807.6</ele><time>2026-03-28T08:44:27.49Z</time></trkpt><trkpt lat="40.946" lon="15.2938"><ele>808.8</ele><time>2026-03-28T08:44:28.49Z</time></trkpt><trkpt lat="40.9459983" lon="15.2939417"><ele>810.0</ele><time>2026-03-28T08:44:29.489Z</time></trkpt><trkpt lat="40.9459933" lon="15.2941017"><ele>810.0</ele><time>2026-03-28T08:44:30.49Z</time></trkpt><trkpt lat="40.94598" lon="15.2942583"><ele>810.0</ele><time>2026-03-28T08:44:31.489Z</time></trkpt><trkpt lat="40.94597" lon="15.29442"><ele>810.0</ele><time>2026-03-28T08:44:32.49Z</time></trkpt><trkpt lat="40.94596" lon="15.29457"><ele>810.0</ele><time>2026-03-28T08:44:33.49Z</time></trkpt><trkpt lat="40.9459417" lon="15.2947067"><ele>810.4</ele><time>2026-03-28T08:44:34.489Z</time></trkpt><trkpt lat="40.94593" lon="15.2948417"><ele>810.8</ele><time>2026-03-28T08:44:35.49Z</time></trkpt><trkpt lat="40.9459133" lon="15.29498"><ele>811.2</ele><time>2026-03-28T08:44:36.49Z</time></trkpt><trkpt lat="40.9458917" lon="15.2951083"><ele>811.6</ele><time>2026-03-28T08:44:37.49Z</time></trkpt><trkpt lat="40.9458817" lon="15.29523"><ele>812.0</ele><time>2026-03-28T08:44:38.49Z</time></trkpt><trkpt lat="40.9458817" lon="15.2953733"><ele>812.0</ele><time>2026-03-28T08:44:39.489Z</time></trkpt><trkpt lat="40.9458917" lon="15.2955233"><ele>812.0</ele><time>2026-03-28T08:44:40.489Z</time></trkpt><trkpt lat="40.9459" lon="15.2956633"><ele>812.0</ele><time>2026-03-28T08:44:41.49Z</time></trkpt><trkpt lat="40.94591" lon="15.2958017"><ele>812.0</ele><time>2026-03-28T08:44:42.489Z</time></trkpt><trkpt lat="40.9459217" lon="15.2959367"><ele>812.0</ele><time>2026-03-28T08:44:43.489Z</time></trkpt><trkpt lat="40.9459467" lon="15.2960683"><ele>811.8</ele><time>2026-03-28T08:44:44.489Z</time></trkpt><trkpt lat="40.9459817" lon="15.2961967"><ele>811.6</ele><time>2026-03-28T08:44:45.489Z</time></trkpt><trkpt lat="40.9460317" lon="15.29633"><ele>811.4</ele><time>2026-03-28T08:44:46.49Z</time></trkpt><trkpt lat="40.9460983" lon="15.2964567"><ele>811.1999999999999</ele><time>2026-03-28T08:44:47.49Z</time></trkpt><trkpt lat="40.94617" lon="15.2965683"><ele>811.0</ele><time>2026-03-28T08:44:48.489Z</time></trkpt><trkpt lat="40.94625" lon="15.2966667"><ele>810.5999999999999</ele><time>2026-03-28T08:44:49.49Z</time></trkpt><trkpt lat="40.9463283" lon="15.2967567"><ele>810.2</ele><time>2026-03-28T08:44:50.49Z</time></trkpt><trkpt lat="40.9464133" lon="15.2968317"><ele>809.8</ele><time>2026-03-28T08:44:51.49Z</time></trkpt><trkpt lat="40.946505" lon="15.296895"><ele>809.4000000000001</ele><time>2026-03-28T08:44:52.49Z</time></trkpt><trkpt lat="40.9466" lon="15.2969467"><ele>809.0</ele><time>2026-03-28T08:44:53.49Z</time></trkpt><trkpt lat="40.9467083" lon="15.2969783"><ele>811.0</ele><time>2026-03-28T08:44:54.49Z</time></trkpt><trkpt lat="40.9468233" lon="15.2969917"><ele>813.0</ele><time>2026-03-28T08:44:55.49Z</time></trkpt><trkpt lat="40.9469467" lon="15.2969867"><ele>815.0</ele><time>2026-03-28T08:44:56.49Z</time></trkpt><trkpt lat="40.947075" lon="15.2969683"><ele>817.0</ele><time>2026-03-28T08:44:57.49Z</time></trkpt><trkpt lat="40.9472133" lon="15.2969433"><ele>817.0</ele><time>2026-03-28T08:44:58.489Z</time></trkpt><trkpt lat="40.947345" lon="15.2969117"><ele>817.0</ele><time>2026-03-28T08:44:59.49Z</time></trkpt><trkpt lat="40.9474733" lon="15.2968783"><ele>817.0</ele><time>2026-03-28T08:45:00.489Z</time></trkpt><trkpt lat="40.947595" lon="15.2968533"><ele>817.0</ele><time>2026-03-28T08:45:01.489Z</time></trkpt><trkpt lat="40.9477233" lon="15.2968217"><ele>818.75</ele><time>2026-03-28T08:45:02.49Z</time></trkpt><trkpt lat="40.94784" lon="15.2967917"><ele>820.5</ele><time>2026-03-28T08:45:03.489Z</time></trkpt><trkpt lat="40.94795" lon="15.29676"><ele>822.25</ele><time>2026-03-28T08:45:04.489Z</time></trkpt><trkpt lat="40.94806" lon="15.2967333"><ele>824.0</ele><time>2026-03-28T08:45:05.49Z</time></trkpt><trkpt lat="40.94817" lon="15.2967167"><ele>824.0</ele><time>2026-03-28T08:45:06.49Z</time></trkpt><trkpt lat="40.9482817" lon="15.296695"><ele>824.0</ele><time>2026-03-28T08:45:07.489Z</time></trkpt><trkpt lat="40.9483917" lon="15.29667"><ele>824.0</ele><time>2026-03-28T08:45:08.489Z</time></trkpt><trkpt lat="40.9485" lon="15.2966467"><ele>824.0</ele><time>2026-03-28T08:45:09.49Z</time></trkpt><trkpt lat="40.9486117" lon="15.2966217"><ele>824.0</ele><time>2026-03-28T08:45:10.49Z</time></trkpt><trkpt lat="40.9487233" lon="15.2966"><ele>824.5</ele><time>2026-03-28T08:45:11.49Z</time></trkpt><trkpt lat="40.9488433" lon="15.2965783"><ele>825.0</ele><time>2026-03-28T08:45:12.489Z</time></trkpt><trkpt lat="40.9489633" lon="15.296555"><ele>825.5</ele><time>2026-03-28T08:45:13.49Z</time></trkpt><trkpt lat="40.94908" lon="15.296545"><ele>826.0</ele><time>2026-03-28T08:45:14.49Z</time></trkpt><trkpt lat="40.9491967" lon="15.2965417"><ele>825.8</ele><time>2026-03-28T08:45:15.49Z</time></trkpt><trkpt lat="40.9493083" lon="15.29654"><ele>825.5999999999999</ele><time>2026-03-28T08:45:16.49Z</time></trkpt><trkpt lat="40.9494167" lon="15.296545"><ele>825.4</ele><time>2026-03-28T08:45:17.489Z</time></trkpt><trkpt lat="40.9495183" lon="15.2965583"><ele>825.2</ele><time>2026-03-28T08:45:18.489Z</time></trkpt><trkpt lat="40.94962" lon="15.2965683"><ele>825.0</ele><time>2026-03-28T08:45:19.489Z</time></trkpt><trkpt lat="40.9497167" lon="15.296595"><ele>825.0</ele><time>2026-03-28T08:45:20.49Z</time></trkpt><trkpt lat="40.949815" lon="15.2966283"><ele>825.0</ele><time>2026-03-28T08:45:21.489Z</time></trkpt><trkpt lat="40.9499033" lon="15.2966683"><ele>825.0</ele><time>2026-03-28T08:45:22.49Z</time></trkpt><trkpt lat="40.94999" lon="15.2967117"><ele>825.0</ele><time>2026-03-28T08:45:23.49Z</time></trkpt><trkpt lat="40.9500817" lon="15.2967667"><ele>825.0</ele><time>2026-03-28T08:45:24.49Z</time></trkpt><trkpt lat="40.950165" lon="15.2968383"><ele>825.0</ele><time>2026-03-28T08:45:25.49Z</time></trkpt><trkpt lat="40.95026" lon="15.2969283"><ele>825.0</ele><time>2026-03-28T08:45:26.489Z</time></trkpt><trkpt lat="40.9503567" lon="15.2970367"><ele>825.0</ele><time>2026-03-28T08:45:27.49Z</time></trkpt><trkpt lat="40.9504567" lon="15.2971533"><ele>825.0</ele><time>2026-03-28T08:45:28.49Z</time></trkpt><trkpt lat="40.9505533" lon="15.2972717"><ele>824.25</ele><time>2026-03-28T08:45:29.489Z</time></trkpt><trkpt lat="40.9506517" lon="15.2973983"><ele>823.5</ele><time>2026-03-28T08:45:30.489Z</time></trkpt><trkpt lat="40.9507367" lon="15.2975267"><ele>822.75</ele><time>2026-03-28T08:45:31.489Z</time></trkpt><trkpt lat="40.9508217" lon="15.297665"><ele>822.0</ele><time>2026-03-28T08:45:32.489Z</time></trkpt><trkpt lat="40.9509017" lon="15.2978017"><ele>823.0</ele><time>2026-03-28T08:45:33.49Z</time></trkpt><trkpt lat="40.9509733" lon="15.2979283"><ele>824.0</ele><time>2026-03-28T08:45:34.49Z</time></trkpt><trkpt lat="40.9510283" lon="15.2980467"><ele>825.0</ele><time>2026-03-28T08:45:35.49Z</time></trkpt><trkpt lat="40.9510733" lon="15.2981583"><ele>826.0</ele><time>2026-03-28T08:45:36.49Z</time></trkpt><trkpt lat="40.951115" lon="15.2982733"><ele>827.0</ele><time>2026-03-28T08:45:37.49Z</time></trkpt><trkpt lat="40.9511567" lon="15.298395"><ele>827.0</ele><time>2026-03-28T08:45:38.49Z</time></trkpt><trkpt lat="40.951195" lon="15.2985133"><ele>827.0</ele><time>2026-03-28T08:45:39.49Z</time></trkpt><trkpt lat="40.9512283" lon="15.2986433"><ele>827.0</ele><time>2026-03-28T08:45:40.49Z</time></trkpt><trkpt lat="40.951255" lon="15.29878"><ele>827.0</ele><time>2026-03-28T08:45:41.489Z</time></trkpt><trkpt lat="40.95128" lon="15.29892"><ele>827.0</ele><time>2026-03-28T08:45:42.489Z</time></trkpt><trkpt lat="40.951305" lon="15.2990667"><ele>826.0</ele><time>2026-03-28T08:45:43.489Z</time></trkpt><trkpt lat="40.951335" lon="15.2992067"><ele>825.0</ele><time>2026-03-28T08:45:44.49Z</time></trkpt><trkpt lat="40.9513533" lon="15.299355"><ele>824.0</ele><time>2026-03-28T08:45:45.49Z</time></trkpt><trkpt lat="40.951355" lon="15.2995083"><ele>823.0</ele><time>2026-03-28T08:45:46.489Z</time></trkpt><trkpt lat="40.9513383" lon="15.2996467"><ele>822.0</ele><time>2026-03-28T08:45:47.489Z</time></trkpt><trkpt lat="40.951305" lon="15.2997883"><ele>820.25</ele><time>2026-03-28T08:45:48.489Z</time></trkpt><trkpt lat="40.9512567" lon="15.29994"><ele>818.5</ele><time>2026-03-28T08:45:49.489Z</time></trkpt><trkpt lat="40.9512083" lon="15.3000917"><ele>816.75</ele><time>2026-03-28T08:45:50.49Z</time></trkpt><trkpt lat="40.9511583" lon="15.3002483"><ele>815.0</ele><time>2026-03-28T08:45:51.49Z</time></trkpt><trkpt lat="40.9511083" lon="15.3003983"><ele>815.0</ele><time>2026-03-28T08:45:52.49Z</time></trkpt><trkpt lat="40.9510583" lon="15.300545"><ele>815.0</ele><time>2026-03-28T08:45:53.489Z</time></trkpt><trkpt lat="40.95101" lon="15.3007"><ele>815.0</ele><time>2026-03-28T08:45:54.49Z</time></trkpt><trkpt lat="40.9509617" lon="15.3008483"><ele>815.0</ele><time>2026-03-28T08:45:55.489Z</time></trkpt><trkpt lat="40.9509117" lon="15.30098"><ele>812.2</ele><time>2026-03-28T08:45:56.49Z</time></trkpt><trkpt lat="40.95086" lon="15.3011067"><ele>809.4</ele><time>2026-03-28T08:45:57.489Z</time></trkpt><trkpt lat="40.9508017" lon="15.3012233"><ele>806.5999999999999</ele><time>2026-03-28T08:45:58.489Z</time></trkpt><trkpt lat="40.9507317" lon="15.3013333"><ele>803.8</ele><time>2026-03-28T08:45:59.489Z</time></trkpt><trkpt lat="40.9506483" lon="15.3014383"><ele>801.0</ele><time>2026-03-28T08:46:00.49Z</time></trkpt><trkpt lat="40.950555" lon="15.30154"><ele>800.0</ele><time>2026-03-28T08:46:01.489Z</time></trkpt><trkpt lat="40.9504617" lon="15.3016333"><ele>799.0</ele><time>2026-03-28T08:46:02.49Z</time></trkpt><trkpt lat="40.9503617" lon="15.301725"><ele>798.0</ele><time>2026-03-28T08:46:03.49Z</time></trkpt><trkpt lat="40.9502633" lon="15.301825"><ele>797.0</ele><time>2026-03-28T08:46:04.489Z</time></trkpt><trkpt lat="40.9501617" lon="15.30193"><ele>797.0</ele><time>2026-03-28T08:46:05.49Z</time></trkpt><trkpt lat="40.9500617" lon="15.302025"><ele>797.0</ele><time>2026-03-28T08:46:06.49Z</time></trkpt><trkpt lat="40.94997" lon="15.3021117"><ele>797.0</ele><time>2026-03-28T08:46:07.49Z</time></trkpt><trkpt lat="40.94988" lon="15.3021933"><ele>797.0</ele><time>2026-03-28T08:46:08.489Z</time></trkpt><trkpt lat="40.949795" lon="15.3022767"><ele>794.2</ele><time>2026-03-28T08:46:09.49Z</time></trkpt><trkpt lat="40.9497083" lon="15.30236"><ele>791.4000000000001</ele><time>2026-03-28T08:46:10.491Z</time></trkpt><trkpt lat="40.9496217" lon="15.3024367"><ele>788.5999999999999</ele><time>2026-03-28T08:46:11.49Z</time></trkpt><trkpt lat="40.949535" lon="15.3025017"><ele>785.8</ele><time>2026-03-28T08:46:12.491Z</time></trkpt><trkpt lat="40.9494533" lon="15.302555"><ele>783.0</ele><time>2026-03-28T08:46:13.491Z</time></trkpt><trkpt lat="40.94936" lon="15.302585"><ele>783.0</ele><time>2026-03-28T08:46:14.491Z</time></trkpt><trkpt lat="40.9492633" lon="15.3025967"><ele>783.0</ele><time>2026-03-28T08:46:15.491Z</time></trkpt><trkpt lat="40.94916" lon="15.3025867"><ele>783.0</ele><time>2026-03-28T08:46:16.491Z</time></trkpt><trkpt lat="40.9490517" lon="15.3025617"><ele>783.0</ele><time>2026-03-28T08:46:17.491Z</time></trkpt><trkpt lat="40.948945" lon="15.302555"><ele>783.0</ele><time>2026-03-28T08:46:18.49Z</time></trkpt><trkpt lat="40.9488383" lon="15.3025583"><ele>780.2</ele><time>2026-03-28T08:46:19.49Z</time></trkpt><trkpt lat="40.94873" lon="15.30258"><ele>777.4</ele><time>2026-03-28T08:46:20.491Z</time></trkpt><trkpt lat="40.9486333" lon="15.3026167"><ele>774.6</ele><time>2026-03-28T08:46:21.491Z</time></trkpt><trkpt lat="40.9485383" lon="15.3026667"><ele>771.8000000000001</ele><time>2026-03-28T08:46:22.491Z</time></trkpt><trkpt lat="40.9484517" lon="15.30274"><ele>769.0</ele><time>2026-03-28T08:46:23.49Z</time></trkpt><trkpt lat="40.948365" lon="15.3028383"><ele>767.6</ele><time>2026-03-28T08:46:24.49Z</time></trkpt><trkpt lat="40.9482833" lon="15.3029517"><ele>766.2</ele><time>2026-03-28T08:46:25.49Z</time></trkpt><trkpt lat="40.9482083" lon="15.30307"><ele>764.8000000000001</ele><time>2026-03-28T08:46:26.491Z</time></trkpt><trkpt lat="40.948135" lon="15.3031783"><ele>763.4000000000001</ele><time>2026-03-28T08:46:27.491Z</time></trkpt><trkpt lat="40.948075" lon="15.3032833"><ele>762.0</ele><time>2026-03-28T08:46:28.49Z</time></trkpt><trkpt lat="40.9480267" lon="15.303385"><ele>762.0</ele><time>2026-03-28T08:46:29.491Z</time></trkpt><trkpt lat="40.94799" lon="15.3035017"><ele>762.0</ele><time>2026-03-28T08:46:30.491Z</time></trkpt><trkpt lat="40.9479783" lon="15.3036217"><ele>762.0</ele><time>2026-03-28T08:46:31.491Z</time></trkpt><trkpt lat="40.9479733" lon="15.303755"><ele>762.0</ele><time>2026-03-28T08:46:32.491Z</time></trkpt><trkpt lat="40.9479817" lon="15.30389"><ele>762.0</ele><time>2026-03-28T08:46:33.49Z</time></trkpt><trkpt lat="40.9480067" lon="15.3040233"><ele>761.8</ele><time>2026-03-28T08:46:34.491Z</time></trkpt><trkpt lat="40.9480367" lon="15.3041383"><ele>761.6</ele><time>2026-03-28T08:46:35.491Z</time></trkpt><trkpt lat="40.9480767" lon="15.30425"><ele>761.4</ele><time>2026-03-28T08:46:36.49Z</time></trkpt><trkpt lat="40.9481333" lon="15.304365"><ele>761.1999999999999</ele><time>2026-03-28T08:46:37.491Z</time></trkpt><trkpt lat="40.9482133" lon="15.3044833"><ele>761.0</ele><time>2026-03-28T08:46:38.49Z</time></trkpt><trkpt lat="40.9483083" lon="15.3046"><ele>762.75</ele><time>2026-03-28T08:46:39.49Z</time></trkpt><trkpt lat="40.9483983" lon="15.3047117"><ele>764.5</ele><time>2026-03-28T08:46:40.49Z</time></trkpt><trkpt lat="40.9484933" lon="15.3048217"><ele>766.25</ele><time>2026-03-28T08:46:41.491Z</time></trkpt><trkpt lat="40.9485833" lon="15.3049317"><ele>768.0</ele><time>2026-03-28T08:46:42.49Z</time></trkpt><trkpt lat="40.948665" lon="15.305055"><ele>763.75</ele><time>2026-03-28T08:46:43.491Z</time></trkpt><trkpt lat="40.9487417" lon="15.30517"><ele>759.5</ele><time>2026-03-28T08:46:44.49Z</time></trkpt><trkpt lat="40.948825" lon="15.30529"><ele>755.25</ele><time>2026-03-28T08:46:45.491Z</time></trkpt><trkpt lat="40.9489083" lon="15.305395"><ele>751.0</ele><time>2026-03-28T08:46:46.49Z</time></trkpt><trkpt lat="40.9489933" lon="15.3055"><ele>749.1999999999999</ele><time>2026-03-28T08:46:47.491Z</time></trkpt><trkpt lat="40.9490733" lon="15.3056083"><ele>747.4</ele><time>2026-03-28T08:46:48.491Z</time></trkpt><trkpt lat="40.9491517" lon="15.305715"><ele>745.6</ele><time>2026-03-28T08:46:49.491Z</time></trkpt><trkpt lat="40.9492267" lon="15.3058133"><ele>743.8</ele><time>2026-03-28T08:46:50.491Z</time></trkpt><trkpt lat="40.9493133" lon="15.3059033"><ele>742.0</ele><time>2026-03-28T08:46:51.491Z</time></trkpt><trkpt lat="40.9494083" lon="15.30599"><ele>742.0</ele><time>2026-03-28T08:46:52.491Z</time></trkpt><trkpt lat="40.9495083" lon="15.306065"><ele>742.0</ele><time>2026-03-28T08:46:53.491Z</time></trkpt><trkpt lat="40.9495983" lon="15.3061367"><ele>742.0</ele><time>2026-03-28T08:46:54.49Z</time></trkpt><trkpt lat="40.94969" lon="15.306205"><ele>742.0</ele><time>2026-03-28T08:46:55.49Z</time></trkpt><trkpt lat="40.94979" lon="15.3062733"><ele>742.0</ele><time>2026-03-28T08:46:56.49Z</time></trkpt><trkpt lat="40.949895" lon="15.306335"><ele>742.0</ele><time>2026-03-28T08:46:57.491Z</time></trkpt><trkpt lat="40.9500017" lon="15.3064"><ele>742.0</ele><time>2026-03-28T08:46:58.49Z</time></trkpt><trkpt lat="40.9501117" lon="15.30647"><ele>742.0</ele><time>2026-03-28T08:46:59.49Z</time></trkpt><trkpt lat="40.950215" lon="15.306525"><ele>742.0</ele><time>2026-03-28T08:47:00.49Z</time></trkpt><trkpt lat="40.95032" lon="15.3065833"><ele>739.5</ele><time>2026-03-28T08:47:01.491Z</time></trkpt><trkpt lat="40.9504267" lon="15.30665"><ele>737.0</ele><time>2026-03-28T08:47:02.491Z</time></trkpt><trkpt lat="40.9505333" lon="15.30671"><ele>734.5</ele><time>2026-03-28T08:47:03.491Z</time></trkpt><trkpt lat="40.95063" lon="15.3067767"><ele>732.0</ele><time>2026-03-28T08:47:04.49Z</time></trkpt><trkpt lat="40.9507317" lon="15.30685"><ele>732.0</ele><time>2026-03-28T08:47:05.491Z</time></trkpt><trkpt lat="40.9508333" lon="15.3069133"><ele>732.0</ele><time>2026-03-28T08:47:06.49Z</time></trkpt><trkpt lat="40.9509233" lon="15.3069717"><ele>732.0</ele><time>2026-03-28T08:47:07.49Z</time></trkpt><trkpt lat="40.951005" lon="15.3070267"><ele>732.0</ele><time>2026-03-28T08:47:08.491Z</time></trkpt><trkpt lat="40.9510783" lon="15.307095"><ele>732.0</ele><time>2026-03-28T08:47:09.491Z</time></trkpt><trkpt lat="40.9511417" lon="15.3071733"><ele>730.1666666666666</ele><time>2026-03-28T08:47:10.49Z</time></trkpt><trkpt lat="40.9511867" lon="15.307255"><ele>728.3333333333334</ele><time>2026-03-28T08:47:11.491Z</time></trkpt><trkpt lat="40.9512217" lon="15.3073483"><ele>726.5</ele><time>2026-03-28T08:47:12.491Z</time></trkpt><trkpt lat="40.9512333" lon="15.30745"><ele>724.6666666666667</ele><time>2026-03-28T08:47:13.491Z</time></trkpt><trkpt lat="40.9512283" lon="15.3075533"><ele>722.8333333333334</ele><time>2026-03-28T08:47:14.491Z</time></trkpt><trkpt lat="40.95121" lon="15.3076683"><ele>721.0</ele><time>2026-03-28T08:47:15.491Z</time></trkpt><trkpt lat="40.9511733" lon="15.3077867"><ele>721.0</ele><time>2026-03-28T08:47:16.491Z</time></trkpt><trkpt lat="40.9511267" lon="15.30791"><ele>721.0</ele><time>2026-03-28T08:47:17.491Z</time></trkpt><trkpt lat="40.9510733" lon="15.3080383"><ele>721.0</ele><time>2026-03-28T08:47:18.49Z</time></trkpt><trkpt lat="40.9510167" lon="15.30816"><ele>721.0</ele><time>2026-03-28T08:47:19.491Z</time></trkpt><trkpt lat="40.9509667" lon="15.3082767"><ele>721.0</ele><time>2026-03-28T08:47:20.491Z</time></trkpt><trkpt lat="40.9509167" lon="15.3083867"><ele>717.8333333333334</ele><time>2026-03-28T08:47:21.491Z</time></trkpt><trkpt lat="40.9508683" lon="15.308485"><ele>714.6666666666667</ele><time>2026-03-28T08:47:22.491Z</time></trkpt><trkpt lat="40.9508233" lon="15.3085667"><ele>711.5</ele><time>2026-03-28T08:47:23.491Z</time></trkpt><trkpt lat="40.950775" lon="15.30864"><ele>708.3333333333334</ele><time>2026-03-28T08:47:24.491Z</time></trkpt><trkpt lat="40.9507117" lon="15.30869"><ele>705.1666666666666</ele><time>2026-03-28T08:47:25.49Z</time></trkpt><trkpt lat="40.9506417" lon="15.308725"><ele>702.0</ele><time>2026-03-28T08:47:26.49Z</time></trkpt><trkpt lat="40.95057" lon="15.3087433"><ele>702.0</ele><time>2026-03-28T08:47:27.491Z</time></trkpt><trkpt lat="40.9504933" lon="15.3087417"><ele>702.0</ele><time>2026-03-28T08:47:28.491Z</time></trkpt><trkpt lat="40.9503983" lon="15.3087267"><ele>702.0</ele><time>2026-03-28T08:47:29.491Z</time></trkpt><trkpt lat="40.950285" lon="15.3086983"><ele>702.0</ele><time>2026-03-28T08:47:30.491Z</time></trkpt><trkpt lat="40.950165" lon="15.3086667"><ele>702.0</ele><time>2026-03-28T08:47:31.491Z</time></trkpt><trkpt lat="40.950045" lon="15.3086433"><ele>700.0</ele><time>2026-03-28T08:47:32.49Z</time></trkpt><trkpt lat="40.9499317" lon="15.308615"><ele>698.0</ele><time>2026-03-28T08:47:33.49Z</time></trkpt><trkpt lat="40.94981" lon="15.3085783"><ele>696.0</ele><time>2026-03-28T08:47:34.491Z</time></trkpt><trkpt lat="40.9496817" lon="15.3085433"><ele>694.0</ele><time>2026-03-28T08:47:35.491Z</time></trkpt><trkpt lat="40.9495533" lon="15.308505"><ele>694.0</ele><time>2026-03-28T08:47:36.491Z</time></trkpt><trkpt lat="40.9494233" lon="15.3084667"><ele>694.0</ele><time>2026-03-28T08:47:37.49Z</time></trkpt><trkpt lat="40.9492983" lon="15.3084267"><ele>694.0</ele><time>2026-03-28T08:47:38.491Z</time></trkpt><trkpt lat="40.9491717" lon="15.3083933"><ele>694.0</ele><time>2026-03-28T08:47:39.49Z</time></trkpt><trkpt lat="40.9490433" lon="15.3083633"><ele>691.0</ele><time>2026-03-28T08:47:40.491Z</time></trkpt><trkpt lat="40.9489083" lon="15.3083317"><ele>688.0</ele><time>2026-03-28T08:47:41.49Z</time></trkpt><trkpt lat="40.9487733" lon="15.3083"><ele>685.0</ele><time>2026-03-28T08:47:42.491Z</time></trkpt><trkpt lat="40.94865" lon="15.3082733"><ele>682.0</ele><time>2026-03-28T08:47:43.49Z</time></trkpt><trkpt lat="40.9485283" lon="15.3082333"><ele>682.0</ele><time>2026-03-28T08:47:44.491Z</time></trkpt><trkpt lat="40.9484067" lon="15.308195"><ele>682.0</ele><time>2026-03-28T08:47:45.49Z</time></trkpt><trkpt lat="40.9482867" lon="15.3081517"><ele>682.0</ele><time>2026-03-28T08:47:46.49Z</time></trkpt><trkpt lat="40.9481633" lon="15.3081133"><ele>682.0</ele><time>2026-03-28T08:47:47.49Z</time></trkpt><trkpt lat="40.9480433" lon="15.3080783"><ele>683.5</ele><time>2026-03-28T08:47:48.491Z</time></trkpt><trkpt lat="40.9479133" lon="15.30805"><ele>685.0</ele><time>2026-03-28T08:47:49.491Z</time></trkpt><trkpt lat="40.94778" lon="15.3080267"><ele>686.5</ele><time>2026-03-28T08:47:50.491Z</time></trkpt><trkpt lat="40.9476483" lon="15.3079933"><ele>688.0</ele><time>2026-03-28T08:47:51.49Z</time></trkpt><trkpt lat="40.9475183" lon="15.307965"><ele>688.0</ele><time>2026-03-28T08:47:52.49Z</time></trkpt><trkpt lat="40.947395" lon="15.3079333"><ele>688.0</ele><time>2026-03-28T08:47:53.491Z</time></trkpt><trkpt lat="40.94728" lon="15.3079"><ele>688.0</ele><time>2026-03-28T08:47:54.491Z</time></trkpt><trkpt lat="40.9471733" lon="15.307875"><ele>688.0</ele><time>2026-03-28T08:47:55.49Z</time></trkpt><trkpt lat="40.947065" lon="15.3078433"><ele>688.0</ele><time>2026-03-28T08:47:56.49Z</time></trkpt><trkpt lat="40.9469617" lon="15.3078183"><ele>688.0</ele><time>2026-03-28T08:47:57.49Z</time></trkpt><trkpt lat="40.94686" lon="15.30781"><ele>688.0</ele><time>2026-03-28T08:47:58.49Z</time></trkpt><trkpt lat="40.9467717" lon="15.3078133"><ele>688.0</ele><time>2026-03-28T08:47:59.49Z</time></trkpt><trkpt lat="40.94669" lon="15.3078333"><ele>688.0</ele><time>2026-03-28T08:48:00.49Z</time></trkpt><trkpt lat="40.94661" lon="15.307875"><ele>687.2</ele><time>2026-03-28T08:48:01.491Z</time></trkpt><trkpt lat="40.946535" lon="15.3079433"><ele>686.4</ele><time>2026-03-28T08:48:02.49Z</time></trkpt><trkpt lat="40.9464517" lon="15.3080233"><ele>685.6</ele><time>2026-03-28T08:48:03.49Z</time></trkpt><trkpt lat="40.9463633" lon="15.30811"><ele>684.8000000000001</ele><time>2026-03-28T08:48:04.491Z</time></trkpt><trkpt lat="40.946275" lon="15.3082"><ele>684.0</ele><time>2026-03-28T08:48:05.491Z</time></trkpt><trkpt lat="40.9461783" lon="15.3083"><ele>680.75</ele><time>2026-03-28T08:48:06.491Z</time></trkpt><trkpt lat="40.9460767" lon="15.3083983"><ele>677.5</ele><time>2026-03-28T08:48:07.491Z</time></trkpt><trkpt lat="40.9459717" lon="15.30849"><ele>674.25</ele><time>2026-03-28T08:48:08.491Z</time></trkpt><trkpt lat="40.9458783" lon="15.30858"><ele>671.0</ele><time>2026-03-28T08:48:09.49Z</time></trkpt><trkpt lat="40.945795" lon="15.30865"><ele>670.8333333333333</ele><time>2026-03-28T08:48:10.49Z</time></trkpt><trkpt lat="40.945715" lon="15.3087117"><ele>670.6666666666666</ele><time>2026-03-28T08:48:11.491Z</time></trkpt><trkpt lat="40.9456467" lon="15.30877"><ele>670.5</ele><time>2026-03-28T08:48:12.491Z</time></trkpt><trkpt lat="40.94558" lon="15.30881"><ele>670.3333333333334</ele><time>2026-03-28T08:48:13.49Z</time></trkpt><trkpt lat="40.9455167" lon="15.30884"><ele>670.1666666666667</ele><time>2026-03-28T08:48:14.491Z</time></trkpt><trkpt lat="40.9454367" lon="15.308885"><ele>670.0</ele><time>2026-03-28T08:48:16.491Z</time></trkpt><trkpt lat="40.9453867" lon="15.30894"><ele>668.8</ele><time>2026-03-28T08:48:18.491Z</time></trkpt><trkpt lat="40.9453433" lon="15.3090433"><ele>667.6</ele><time>2026-03-28T08:48:20.491Z</time></trkpt><trkpt lat="40.945325" lon="15.3091817"><ele>666.4000000000001</ele><time>2026-03-28T08:48:22.49Z</time></trkpt><trkpt lat="40.94529" lon="15.3093517"><ele>665.2</ele><time>2026-03-28T08:48:24.49Z</time></trkpt><trkpt lat="40.945265" lon="15.30945"><ele>664.0</ele><time>2026-03-28T08:48:25.49Z</time></trkpt><trkpt lat="40.9452267" lon="15.30956"><ele>664.0</ele><time>2026-03-28T08:48:26.491Z</time></trkpt><trkpt lat="40.9451767" lon="15.3096717"><ele>664.0</ele><time>2026-03-28T08:48:27.491Z</time></trkpt><trkpt lat="40.9451233" lon="15.30978"><ele>664.0</ele><time>2026-03-28T08:48:28.491Z</time></trkpt><trkpt lat="40.94507" lon="15.3098867"><ele>664.0</ele><time>2026-03-28T08:48:29.491Z</time></trkpt><trkpt lat="40.94501" lon="15.31"><ele>664.0</ele><time>2026-03-28T08:48:30.491Z</time></trkpt><trkpt lat="40.9449567" lon="15.3101233"><ele>664.0</ele><time>2026-03-28T08:48:31.491Z</time></trkpt><trkpt lat="40.944905" lon="15.3102567"><ele>664.0</ele><time>2026-03-28T08:48:32.491Z</time></trkpt><trkpt lat="40.944855" lon="15.31039"><ele>664.0</ele><time>2026-03-28T08:48:33.491Z</time></trkpt><trkpt lat="40.9448067" lon="15.3105383"><ele>664.0</ele><time>2026-03-28T08:48:34.49Z</time></trkpt><trkpt lat="40.94475" lon="15.3106817"><ele>666.25</ele><time>2026-03-28T08:48:35.49Z</time></trkpt><trkpt lat="40.94469" lon="15.3108267"><ele>668.5</ele><time>2026-03-28T08:48:36.491Z</time></trkpt><trkpt lat="40.944625" lon="15.3109783"><ele>670.75</ele><time>2026-03-28T08:48:37.491Z</time></trkpt><trkpt lat="40.9445567" lon="15.3111367"><ele>673.0</ele><time>2026-03-28T08:48:38.491Z</time></trkpt><trkpt lat="40.9445" lon="15.3112933"><ele>675.5</ele><time>2026-03-28T08:48:39.491Z</time></trkpt><trkpt lat="40.944445" lon="15.31144"><ele>678.0</ele><time>2026-03-28T08:48:40.491Z</time></trkpt><trkpt lat="40.9443933" lon="15.3115933"><ele>680.5</ele><time>2026-03-28T08:48:41.491Z</time></trkpt><trkpt lat="40.94433" lon="15.311745"><ele>683.0</ele><time>2026-03-28T08:48:42.491Z</time></trkpt><trkpt lat="40.9442633" lon="15.3118817"><ele>682.25</ele><time>2026-03-28T08:48:43.49Z</time></trkpt><trkpt lat="40.9441833" lon="15.31201"><ele>681.5</ele><time>2026-03-28T08:48:44.49Z</time></trkpt><trkpt lat="40.9441217" lon="15.31213"><ele>680.75</ele><time>2026-03-28T08:48:45.491Z</time></trkpt><trkpt lat="40.94407" lon="15.3122567"><ele>680.0</ele><time>2026-03-28T08:48:46.491Z</time></trkpt><trkpt lat="40.94403" lon="15.312395"><ele>680.0</ele><time>2026-03-28T08:48:47.49Z</time></trkpt><trkpt lat="40.944005" lon="15.3125433"><ele>680.0</ele><time>2026-03-28T08:48:48.49Z</time></trkpt><trkpt lat="40.9439767" lon="15.3127"><ele>680.0</ele><time>2026-03-28T08:48:49.491Z</time></trkpt><trkpt lat="40.943955" lon="15.3128633"><ele>680.0</ele><time>2026-03-28T08:48:50.49Z</time></trkpt><trkpt lat="40.9439383" lon="15.3130283"><ele>681.5</ele><time>2026-03-28T08:48:51.491Z</time></trkpt><trkpt lat="40.9439267" lon="15.3131983"><ele>683.0</ele><time>2026-03-28T08:48:52.49Z</time></trkpt><trkpt lat="40.943915" lon="15.3133583"><ele>684.5</ele><time>2026-03-28T08:48:53.49Z</time></trkpt><trkpt lat="40.9439183" lon="15.31353"><ele>686.0</ele><time>2026-03-28T08:48:54.49Z</time></trkpt><trkpt lat="40.9439217" lon="15.313685"><ele>686.0</ele><time>2026-03-28T08:48:55.491Z</time></trkpt><trkpt lat="40.9439317" lon="15.3138417"><ele>686.0</ele><time>2026-03-28T08:48:56.491Z</time></trkpt><trkpt lat="40.94395" lon="15.3140117"><ele>686.0</ele><time>2026-03-28T08:48:57.491Z</time></trkpt><trkpt lat="40.9439733" lon="15.3141833"><ele>686.0</ele><time>2026-03-28T08:48:58.49Z</time></trkpt><trkpt lat="40.9440067" lon="15.3143533"><ele>688.0</ele><time>2026-03-28T08:48:59.49Z</time></trkpt><trkpt lat="40.9440433" lon="15.3145133"><ele>690.0</ele><time>2026-03-28T08:49:00.49Z</time></trkpt><trkpt lat="40.9440817" lon="15.314665"><ele>692.0</ele><time>2026-03-28T08:49:01.491Z</time></trkpt><trkpt lat="40.944115" lon="15.3148117"><ele>694.0</ele><time>2026-03-28T08:49:02.491Z</time></trkpt><trkpt lat="40.9441483" lon="15.31494"><ele>695.6</ele><time>2026-03-28T08:49:03.491Z</time></trkpt><trkpt lat="40.944185" lon="15.3150567"><ele>697.2</ele><time>2026-03-28T08:49:04.491Z</time></trkpt><trkpt lat="40.9442283" lon="15.3151683"><ele>698.8000000000001</ele><time>2026-03-28T08:49:05.491Z</time></trkpt><trkpt lat="40.94428" lon="15.315305"><ele>700.4000000000001</ele><time>2026-03-28T08:49:06.491Z</time></trkpt><trkpt lat="40.9443233" lon="15.3154533"><ele>702.0</ele><time>2026-03-28T08:49:07.491Z</time></trkpt><trkpt lat="40.9443683" lon="15.3155917"><ele>706.75</ele><time>2026-03-28T08:49:08.491Z</time></trkpt><trkpt lat="40.9444183" lon="15.31573"><ele>711.5</ele><time>2026-03-28T08:49:09.491Z</time></trkpt><trkpt lat="40.9444683" lon="15.3158667"><ele>716.25</ele><time>2026-03-28T08:49:10.49Z</time></trkpt><trkpt lat="40.9445167" lon="15.3159933"><ele>721.0</ele><time>2026-03-28T08:49:11.49Z</time></trkpt><trkpt lat="40.9445717" lon="15.3161283"><ele>721.0</ele><time>2026-03-28T08:49:12.491Z</time></trkpt><trkpt lat="40.9446267" lon="15.3162717"><ele>721.0</ele><time>2026-03-28T08:49:13.49Z</time></trkpt><trkpt lat="40.9446817" lon="15.31642"><ele>721.0</ele><time>2026-03-28T08:49:14.491Z</time></trkpt><trkpt lat="40.9447383" lon="15.31658"><ele>721.0</ele><time>2026-03-28T08:49:15.491Z</time></trkpt><trkpt lat="40.9447933" lon="15.3167383"><ele>721.8</ele><time>2026-03-28T08:49:16.49Z</time></trkpt><trkpt lat="40.9448433" lon="15.31688"><ele>722.5999999999999</ele><time>2026-03-28T08:49:17.49Z</time></trkpt><trkpt lat="40.9448967" lon="15.3170167"><ele>723.4</ele><time>2026-03-28T08:49:18.49Z</time></trkpt><trkpt lat="40.94495" lon="15.317145"><ele>724.2</ele><time>2026-03-28T08:49:19.49Z</time></trkpt><trkpt lat="40.945" lon="15.3172633"><ele>725.0</ele><time>2026-03-28T08:49:20.491Z</time></trkpt><trkpt lat="40.9450667" lon="15.3173683"><ele>728.75</ele><time>2026-03-28T08:49:21.491Z</time></trkpt><trkpt lat="40.9451417" lon="15.3174783"><ele>732.5</ele><time>2026-03-28T08:49:22.49Z</time></trkpt><trkpt lat="40.945235" lon="15.317595"><ele>736.25</ele><time>2026-03-28T08:49:23.491Z</time></trkpt><trkpt lat="40.94534" lon="15.31772"><ele>740.0</ele><time>2026-03-28T08:49:24.49Z</time></trkpt><trkpt lat="40.94545" lon="15.31784"><ele>740.0</ele><time>2026-03-28T08:49:25.49Z</time></trkpt><trkpt lat="40.9455667" lon="15.3179667"><ele>740.0</ele><time>2026-03-28T08:49:26.49Z</time></trkpt><trkpt lat="40.9456717" lon="15.3180967"><ele>740.0</ele><time>2026-03-28T08:49:27.491Z</time></trkpt><trkpt lat="40.9457717" lon="15.3182067"><ele>740.0</ele><time>2026-03-28T08:49:28.49Z</time></trkpt><trkpt lat="40.9458483" lon="15.3183133"><ele>743.4</ele><time>2026-03-28T08:49:29.49Z</time></trkpt><trkpt lat="40.94592" lon="15.318425"><ele>746.8</ele><time>2026-03-28T08:49:30.491Z</time></trkpt><trkpt lat="40.9459833" lon="15.3185467"><ele>750.2</ele><time>2026-03-28T08:49:31.491Z</time></trkpt><trkpt lat="40.946025" lon="15.3186733"><ele>753.6</ele><time>2026-03-28T08:49:32.491Z</time></trkpt><trkpt lat="40.9460433" lon="15.318805"><ele>757.0</ele><time>2026-03-28T08:49:33.49Z</time></trkpt><trkpt lat="40.9460517" lon="15.3189417"><ele>757.4000000000001</ele><time>2026-03-28T08:49:34.49Z</time></trkpt><trkpt lat="40.9460467" lon="15.3190867"><ele>757.8000000000001</ele><time>2026-03-28T08:49:35.491Z</time></trkpt><trkpt lat="40.9460267" lon="15.319215"><ele>758.2</ele><time>2026-03-28T08:49:36.491Z</time></trkpt><trkpt lat="40.946005" lon="15.3193233"><ele>758.6</ele><time>2026-03-28T08:49:37.491Z</time></trkpt><trkpt lat="40.9459667" lon="15.3194267"><ele>759.0</ele><time>2026-03-28T08:49:38.49Z</time></trkpt><trkpt lat="40.945895" lon="15.3195317"><ele>759.25</ele><time>2026-03-28T08:49:39.491Z</time></trkpt><trkpt lat="40.945805" lon="15.3196333"><ele>759.5</ele><time>2026-03-28T08:49:40.491Z</time></trkpt><trkpt lat="40.945705" lon="15.319735"><ele>759.75</ele><time>2026-03-28T08:49:41.49Z</time></trkpt><trkpt lat="40.9456067" lon="15.3198383"><ele>760.0</ele><time>2026-03-28T08:49:42.49Z</time></trkpt><trkpt lat="40.9455033" lon="15.3199517"><ele>760.0</ele><time>2026-03-28T08:49:43.49Z</time></trkpt><trkpt lat="40.9453983" lon="15.320065"><ele>760.0</ele><time>2026-03-28T08:49:44.49Z</time></trkpt><trkpt lat="40.9453" lon="15.3201817"><ele>760.0</ele><time>2026-03-28T08:49:45.49Z</time></trkpt><trkpt lat="40.9452083" lon="15.3202833"><ele>760.0</ele><time>2026-03-28T08:49:46.49Z</time></trkpt><trkpt lat="40.945125" lon="15.3203817"><ele>760.0</ele><time>2026-03-28T08:49:47.491Z</time></trkpt><trkpt lat="40.9450483" lon="15.3204667"><ele>760.0</ele><time>2026-03-28T08:49:48.491Z</time></trkpt><trkpt lat="40.9449833" lon="15.3205583"><ele>760.0</ele><time>2026-03-28T08:49:49.491Z</time></trkpt><trkpt lat="40.9449267" lon="15.3206483"><ele>760.0</ele><time>2026-03-28T08:49:50.49Z</time></trkpt><trkpt lat="40.9448817" lon="15.3207583"><ele>760.0</ele><time>2026-03-28T08:49:51.49Z</time></trkpt><trkpt lat="40.9448467" lon="15.3208833"><ele>762.0</ele><time>2026-03-28T08:49:52.491Z</time></trkpt><trkpt lat="40.9448217" lon="15.3210317"><ele>764.0</ele><time>2026-03-28T08:49:53.491Z</time></trkpt><trkpt lat="40.9448033" lon="15.3212"><ele>766.0</ele><time>2026-03-28T08:49:54.49Z</time></trkpt><trkpt lat="40.944785" lon="15.3213833"><ele>768.0</ele><time>2026-03-28T08:49:55.49Z</time></trkpt><trkpt lat="40.9447667" lon="15.3215733"><ele>770.5</ele><time>2026-03-28T08:49:56.491Z</time></trkpt><trkpt lat="40.94475" lon="15.3217583"><ele>773.0</ele><time>2026-03-28T08:49:57.49Z</time></trkpt><trkpt lat="40.9447283" lon="15.321935"><ele>775.5</ele><time>2026-03-28T08:49:58.49Z</time></trkpt><trkpt lat="40.9447067" lon="15.3221183"><ele>778.0</ele><time>2026-03-28T08:49:59.49Z</time></trkpt><trkpt lat="40.9446833" lon="15.3223"><ele>779.5</ele><time>2026-03-28T08:50:00.49Z</time></trkpt><trkpt lat="40.9446667" lon="15.32248"><ele>781.0</ele><time>2026-03-28T08:50:01.491Z</time></trkpt><trkpt lat="40.94465" lon="15.32266"><ele>782.5</ele><time>2026-03-28T08:50:02.491Z</time></trkpt><trkpt lat="40.9446317" lon="15.322835"><ele>784.0</ele><time>2026-03-28T08:50:03.49Z</time></trkpt><trkpt lat="40.94461" lon="15.323"><ele>785.3333333333333</ele><time>2026-03-28T08:50:04.491Z</time></trkpt><trkpt lat="40.9445933" lon="15.323145"><ele>786.6666666666666</ele><time>2026-03-28T08:50:05.49Z</time></trkpt><trkpt lat="40.94458" lon="15.3232767"><ele>788.0</ele><time>2026-03-28T08:50:06.491Z</time></trkpt><trkpt lat="40.944575" lon="15.3233933"><ele>789.3333333333333</ele><time>2026-03-28T08:50:07.491Z</time></trkpt><trkpt lat="40.9445633" lon="15.323495"><ele>790.6666666666666</ele><time>2026-03-28T08:50:08.49Z</time></trkpt><trkpt lat="40.94455" lon="15.323585"><ele>792.0</ele><time>2026-03-28T08:50:09.491Z</time></trkpt><trkpt lat="40.9445367" lon="15.3236817"><ele>792.0</ele><time>2026-03-28T08:50:10.491Z</time></trkpt><trkpt lat="40.9445183" lon="15.32378"><ele>792.0</ele><time>2026-03-28T08:50:11.491Z</time></trkpt><trkpt lat="40.9445" lon="15.3238767"><ele>792.0</ele><time>2026-03-28T08:50:12.491Z</time></trkpt><trkpt lat="40.94447" lon="15.323965"><ele>792.0</ele><time>2026-03-28T08:50:13.49Z</time></trkpt><trkpt lat="40.9444283" lon="15.32406"><ele>792.0</ele><time>2026-03-28T08:50:14.49Z</time></trkpt><trkpt lat="40.944365" lon="15.3241667"><ele>792.0</ele><time>2026-03-28T08:50:15.491Z</time></trkpt><trkpt lat="40.9442883" lon="15.3242883"><ele>792.5</ele><time>2026-03-28T08:50:16.49Z</time></trkpt><trkpt lat="40.9442067" lon="15.32443"><ele>793.0</ele><time>2026-03-28T08:50:17.49Z</time></trkpt><trkpt lat="40.9441317" lon="15.324575"><ele>793.5</ele><time>2026-03-28T08:50:18.49Z</time></trkpt><trkpt lat="40.9440633" lon="15.3247267"><ele>794.0</ele><time>2026-03-28T08:50:19.49Z</time></trkpt><trkpt lat="40.9439983" lon="15.32489"><ele>794.0</ele><time>2026-03-28T08:50:20.491Z</time></trkpt><trkpt lat="40.9439267" lon="15.3250683"><ele>794.0</ele><time>2026-03-28T08:50:21.491Z</time></trkpt><trkpt lat="40.9438517" lon="15.3252433"><ele>794.0</ele><time>2026-03-28T08:50:22.491Z</time></trkpt><trkpt lat="40.94378" lon="15.3254133"><ele>795.25</ele><time>2026-03-28T08:50:23.491Z</time></trkpt><trkpt lat="40.9437067" lon="15.3255833"><ele>796.5</ele><time>2026-03-28T08:50:24.49Z</time></trkpt><trkpt lat="40.94363" lon="15.325755"><ele>797.75</ele><time>2026-03-28T08:50:25.491Z</time></trkpt><trkpt lat="40.9435567" lon="15.32592"><ele>799.0</ele><time>2026-03-28T08:50:26.49Z</time></trkpt><trkpt lat="40.943485" lon="15.32608"><ele>799.0</ele><time>2026-03-28T08:50:27.49Z</time></trkpt><trkpt lat="40.9434117" lon="15.3262417"><ele>799.0</ele><time>2026-03-28T08:50:28.491Z</time></trkpt><trkpt lat="40.9433417" lon="15.3264067"><ele>799.0</ele><time>2026-03-28T08:50:29.491Z</time></trkpt><trkpt lat="40.9432633" lon="15.3265633"><ele>799.0</ele><time>2026-03-28T08:50:30.491Z</time></trkpt><trkpt lat="40.9431867" lon="15.32672"><ele>798.0</ele><time>2026-03-28T08:50:31.491Z</time></trkpt><trkpt lat="40.9431" lon="15.3268667"><ele>797.0</ele><time>2026-03-28T08:50:32.491Z</time></trkpt><trkpt lat="40.942995" lon="15.3269967"><ele>796.0</ele><time>2026-03-28T08:50:33.491Z</time></trkpt><trkpt lat="40.94288" lon="15.327105"><ele>795.0</ele><time>2026-03-28T08:50:34.491Z</time></trkpt><trkpt lat="40.9427617" lon="15.3271867"><ele>795.0</ele><time>2026-03-28T08:50:35.491Z</time></trkpt><trkpt lat="40.94264" lon="15.32725"><ele>795.0</ele><time>2026-03-28T08:50:36.49Z</time></trkpt><trkpt lat="40.9425083" lon="15.327285"><ele>795.0</ele><time>2026-03-28T08:50:37.49Z</time></trkpt><trkpt lat="40.9423733" lon="15.3273033"><ele>795.0</ele><time>2026-03-28T08:50:38.49Z</time></trkpt><trkpt lat="40.9422267" lon="15.32732"><ele>794.0</ele><time>2026-03-28T08:50:39.491Z</time></trkpt><trkpt lat="40.9420733" lon="15.3273317"><ele>793.0</ele><time>2026-03-28T08:50:40.491Z</time></trkpt><trkpt lat="40.9419183" lon="15.3273467"><ele>792.0</ele><time>2026-03-28T08:50:41.49Z</time></trkpt><trkpt lat="40.9417483" lon="15.327355"><ele>792.6666666666667</ele><time>2026-03-28T08:50:42.49Z</time></trkpt><trkpt lat="40.9415783" lon="15.3273683"><ele>793.3333333333334</ele><time>2026-03-28T08:50:43.49Z</time></trkpt><trkpt lat="40.9414133" lon="15.32738"><ele>794.0</ele><time>2026-03-28T08:50:44.491Z</time></trkpt><trkpt lat="40.94125" lon="15.3273967"><ele>794.0</ele><time>2026-03-28T08:50:45.491Z</time></trkpt><trkpt lat="40.9410933" lon="15.3274133"><ele>794.0</ele><time>2026-03-28T08:50:46.491Z</time></trkpt><trkpt lat="40.9409367" lon="15.32743"><ele>794.0</ele><time>2026-03-28T08:50:47.491Z</time></trkpt><trkpt lat="40.9407767" lon="15.327445"><ele>794.5</ele><time>2026-03-28T08:50:48.491Z</time></trkpt><trkpt lat="40.940625" lon="15.3274567"><ele>795.0</ele><time>2026-03-28T08:50:49.491Z</time></trkpt><trkpt lat="40.9404867" lon="15.32746"><ele>795.5</ele><time>2026-03-28T08:50:50.491Z</time></trkpt><trkpt lat="40.940355" lon="15.32747"><ele>796.0</ele><time>2026-03-28T08:50:51.491Z</time></trkpt><trkpt lat="40.9402433" lon="15.32748"><ele>795.9999999999999</ele><time>2026-03-28T08:50:52.49Z</time></trkpt><trkpt lat="40.9401433" lon="15.3274933"><ele>796.0</ele><time>2026-03-28T08:50:53.491Z</time></trkpt><trkpt lat="40.940065" lon="15.3275"><ele>796.0</ele><time>2026-03-28T08:50:54.491Z</time></trkpt><trkpt lat="40.9400017" lon="15.3275033"><ele>796.0</ele><time>2026-03-28T08:50:55.49Z</time></trkpt><trkpt lat="40.9399167" lon="15.3275067"><ele>795.9999999999999</ele><time>2026-03-28T08:50:57.491Z</time></trkpt><trkpt lat="40.9398367" lon="15.327535"><ele>796.0</ele><time>2026-03-28T08:51:00.49Z</time></trkpt><trkpt lat="40.9398267" lon="15.3276333"><ele>796.0</ele><time>2026-03-28T08:51:04.491Z</time></trkpt><trkpt lat="40.93989" lon="15.3276733"><ele>796.0</ele><time>2026-03-28T08:51:06.49Z</time></trkpt><trkpt lat="40.94001" lon="15.3277"><ele>796.0</ele><time>2026-03-28T08:51:08.49Z</time></trkpt><trkpt lat="40.94008" lon="15.3277283"><ele>796.0</ele><time>2026-03-28T08:51:09.491Z</time></trkpt><trkpt lat="40.9401583" lon="15.32776"><ele>796.0</ele><time>2026-03-28T08:51:10.491Z</time></trkpt><trkpt lat="40.94026" lon="15.3277983"><ele>796.0</ele><time>2026-03-28T08:51:11.491Z</time></trkpt><trkpt lat="40.9403683" lon="15.32784"><ele>796.0</ele><time>2026-03-28T08:51:12.491Z</time></trkpt><trkpt lat="40.940485" lon="15.3278767"><ele>796.0</ele><time>2026-03-28T08:51:13.491Z</time></trkpt><trkpt lat="40.940615" lon="15.32793"><ele>796.0</ele><time>2026-03-28T08:51:14.49Z</time></trkpt><trkpt lat="40.9407483" lon="15.32798"><ele>796.0</ele><time>2026-03-28T08:51:15.491Z</time></trkpt><trkpt lat="40.9408767" lon="15.3280333"><ele>796.0</ele><time>2026-03-28T08:51:16.491Z</time></trkpt><trkpt lat="40.94101" lon="15.3280867"><ele>796.0</ele><time>2026-03-28T08:51:17.49Z</time></trkpt><trkpt lat="40.941145" lon="15.328135"><ele>796.0</ele><time>2026-03-28T08:51:18.491Z</time></trkpt><trkpt lat="40.941275" lon="15.3281917"><ele>795.25</ele><time>2026-03-28T08:51:19.49Z</time></trkpt><trkpt lat="40.94141" lon="15.328245"><ele>794.5</ele><time>2026-03-28T08:51:20.49Z</time></trkpt><trkpt lat="40.941545" lon="15.328295"><ele>793.75</ele><time>2026-03-28T08:51:21.491Z</time></trkpt><trkpt lat="40.9416783" lon="15.3283433"><ele>793.0</ele><time>2026-03-28T08:51:22.491Z</time></trkpt><trkpt lat="40.9418133" lon="15.328395"><ele>792.75</ele><time>2026-03-28T08:51:23.49Z</time></trkpt><trkpt lat="40.9419533" lon="15.328455"><ele>792.5</ele><time>2026-03-28T08:51:24.491Z</time></trkpt><trkpt lat="40.942095" lon="15.328515"><ele>792.25</ele><time>2026-03-28T08:51:25.491Z</time></trkpt><trkpt lat="40.9422317" lon="15.32857"><ele>792.0</ele><time>2026-03-28T08:51:26.49Z</time></trkpt><trkpt lat="40.9423667" lon="15.3286233"><ele>792.0</ele><time>2026-03-28T08:51:27.491Z</time></trkpt><trkpt lat="40.9424933" lon="15.3286783"><ele>792.0</ele><time>2026-03-28T08:51:28.49Z</time></trkpt><trkpt lat="40.9426233" lon="15.3287317"><ele>792.0</ele><time>2026-03-28T08:51:29.491Z</time></trkpt><trkpt lat="40.9427567" lon="15.3287783"><ele>792.0</ele><time>2026-03-28T08:51:30.49Z</time></trkpt><trkpt lat="40.9428867" lon="15.3288417"><ele>792.0</ele><time>2026-03-28T08:51:31.491Z</time></trkpt><trkpt lat="40.9430183" lon="15.3289133"><ele>792.0</ele><time>2026-03-28T08:51:32.491Z</time></trkpt><trkpt lat="40.9431467" lon="15.328995"><ele>792.0</ele><time>2026-03-28T08:51:33.491Z</time></trkpt><trkpt lat="40.9432817" lon="15.329075"><ele>792.0</ele><time>2026-03-28T08:51:34.491Z</time></trkpt><trkpt lat="40.9434217" lon="15.3291533"><ele>793.0</ele><time>2026-03-28T08:51:35.49Z</time></trkpt><trkpt lat="40.9435617" lon="15.32924"><ele>794.0</ele><time>2026-03-28T08:51:36.49Z</time></trkpt><trkpt lat="40.9436967" lon="15.3293267"><ele>795.0</ele><time>2026-03-28T08:51:37.491Z</time></trkpt><trkpt lat="40.9438217" lon="15.3294133"><ele>796.0</ele><time>2026-03-28T08:51:38.49Z</time></trkpt><trkpt lat="40.943945" lon="15.3294983"><ele>796.0</ele><time>2026-03-28T08:51:39.49Z</time></trkpt><trkpt lat="40.9440667" lon="15.329585"><ele>796.0</ele><time>2026-03-28T08:51:40.49Z</time></trkpt><trkpt lat="40.9441833" lon="15.3296733"><ele>796.0</ele><time>2026-03-28T08:51:41.491Z</time></trkpt><trkpt lat="40.9442983" lon="15.3297583"><ele>796.0</ele><time>2026-03-28T08:51:42.491Z</time></trkpt><trkpt lat="40.9444167" lon="15.3298433"><ele>795.5</ele><time>2026-03-28T08:51:43.492Z</time></trkpt><trkpt lat="40.9445367" lon="15.3299267"><ele>795.0</ele><time>2026-03-28T08:51:44.492Z</time></trkpt><trkpt lat="40.9446683" lon="15.3299983"><ele>794.5</ele><time>2026-03-28T08:51:45.491Z</time></trkpt><trkpt lat="40.9448067" lon="15.3300667"><ele>794.0</ele><time>2026-03-28T08:51:46.492Z</time></trkpt><trkpt lat="40.9449417" lon="15.33013"><ele>793.75</ele><time>2026-03-28T08:51:47.492Z</time></trkpt><trkpt lat="40.945075" lon="15.330195"><ele>793.5</ele><time>2026-03-28T08:51:48.492Z</time></trkpt><trkpt lat="40.9452067" lon="15.3302583"><ele>793.25</ele><time>2026-03-28T08:51:49.491Z</time></trkpt><trkpt lat="40.9453367" lon="15.3303217"><ele>793.0</ele><time>2026-03-28T08:51:50.492Z</time></trkpt><trkpt lat="40.9454733" lon="15.330395"><ele>793.0</ele><time>2026-03-28T08:51:51.491Z</time></trkpt><trkpt lat="40.94561" lon="15.3304767"><ele>793.0</ele><time>2026-03-28T08:51:52.492Z</time></trkpt><trkpt lat="40.945745" lon="15.3305683"><ele>793.0</ele><time>2026-03-28T08:51:53.491Z</time></trkpt><trkpt lat="40.945875" lon="15.33067"><ele>793.6666666666666</ele><time>2026-03-28T08:51:54.491Z</time></trkpt><trkpt lat="40.94601" lon="15.33078"><ele>794.3333333333333</ele><time>2026-03-28T08:51:55.491Z</time></trkpt><trkpt lat="40.9461517" lon="15.3308967"><ele>795.0</ele><time>2026-03-28T08:51:56.491Z</time></trkpt><trkpt lat="40.94629" lon="15.3310133"><ele>795.0</ele><time>2026-03-28T08:51:57.492Z</time></trkpt><trkpt lat="40.9464233" lon="15.3311233"><ele>795.0</ele><time>2026-03-28T08:51:58.492Z</time></trkpt><trkpt lat="40.946555" lon="15.3312283"><ele>795.0</ele><time>2026-03-28T08:51:59.492Z</time></trkpt><trkpt lat="40.9466883" lon="15.33133"><ele>796.0</ele><time>2026-03-28T08:52:00.491Z</time></trkpt><trkpt lat="40.9468233" lon="15.331435"><ele>797.0</ele><time>2026-03-28T08:52:01.492Z</time></trkpt><trkpt lat="40.9469517" lon="15.3315417"><ele>798.0</ele><time>2026-03-28T08:52:02.492Z</time></trkpt><trkpt lat="40.9470783" lon="15.3316517"><ele>798.0</ele><time>2026-03-28T08:52:03.491Z</time></trkpt><trkpt lat="40.9472017" lon="15.3317617"><ele>798.0</ele><time>2026-03-28T08:52:04.492Z</time></trkpt><trkpt lat="40.947335" lon="15.3318633"><ele>798.0</ele><time>2026-03-28T08:52:05.492Z</time></trkpt><trkpt lat="40.9474633" lon="15.3319683"><ele>798.3333333333333</ele><time>2026-03-28T08:52:06.492Z</time></trkpt><trkpt lat="40.9475917" lon="15.3320717"><ele>798.6666666666666</ele><time>2026-03-28T08:52:07.492Z</time></trkpt><trkpt lat="40.9477233" lon="15.3321733"><ele>799.0</ele><time>2026-03-28T08:52:08.491Z</time></trkpt><trkpt lat="40.9478533" lon="15.332275"><ele>799.0</ele><time>2026-03-28T08:52:09.492Z</time></trkpt><trkpt lat="40.9479767" lon="15.3323783"><ele>799.0</ele><time>2026-03-28T08:52:10.492Z</time></trkpt><trkpt lat="40.9481" lon="15.332475"><ele>799.0</ele><time>2026-03-28T08:52:11.491Z</time></trkpt><trkpt lat="40.948225" lon="15.3325717"><ele>799.0</ele><time>2026-03-28T08:52:12.491Z</time></trkpt><trkpt lat="40.94835" lon="15.3326683"><ele>801.5</ele><time>2026-03-28T08:52:13.491Z</time></trkpt><trkpt lat="40.9484767" lon="15.3327633"><ele>804.0</ele><time>2026-03-28T08:52:14.492Z</time></trkpt><trkpt lat="40.9486017" lon="15.3328617"><ele>806.5</ele><time>2026-03-28T08:52:15.492Z</time></trkpt><trkpt lat="40.9487333" lon="15.33296"><ele>809.0</ele><time>2026-03-28T08:52:16.491Z</time></trkpt><trkpt lat="40.94886" lon="15.3330517"><ele>809.5</ele><time>2026-03-28T08:52:17.492Z</time></trkpt><trkpt lat="40.9489783" lon="15.3331417"><ele>810.0</ele><time>2026-03-28T08:52:18.492Z</time></trkpt><trkpt lat="40.94909" lon="15.333245"><ele>810.5</ele><time>2026-03-28T08:52:19.492Z</time></trkpt><trkpt lat="40.9492117" lon="15.33334"><ele>811.0</ele><time>2026-03-28T08:52:20.491Z</time></trkpt><trkpt lat="40.94934" lon="15.3334267"><ele>811.0</ele><time>2026-03-28T08:52:21.492Z</time></trkpt><trkpt lat="40.9494667" lon="15.333515"><ele>811.0</ele><time>2026-03-28T08:52:22.491Z</time></trkpt><trkpt lat="40.9495933" lon="15.3336133"><ele>811.0</ele><time>2026-03-28T08:52:23.492Z</time></trkpt><trkpt lat="40.949705" lon="15.3337083"><ele>811.0</ele><time>2026-03-28T08:52:24.492Z</time></trkpt><trkpt lat="40.9498267" lon="15.333815"><ele>810.75</ele><time>2026-03-28T08:52:25.492Z</time></trkpt><trkpt lat="40.94994" lon="15.3339117"><ele>810.5</ele><time>2026-03-28T08:52:26.491Z</time></trkpt><trkpt lat="40.9500533" lon="15.3340133"><ele>810.25</ele><time>2026-03-28T08:52:27.492Z</time></trkpt><trkpt lat="40.95016" lon="15.33411"><ele>810.0</ele><time>2026-03-28T08:52:28.491Z</time></trkpt><trkpt lat="40.9502733" lon="15.3342017"><ele>810.0</ele><time>2026-03-28T08:52:29.492Z</time></trkpt><trkpt lat="40.950385" lon="15.334285"><ele>810.0</ele><time>2026-03-28T08:52:30.491Z</time></trkpt><trkpt lat="40.9504967" lon="15.33437"><ele>810.0</ele><time>2026-03-28T08:52:31.492Z</time></trkpt><trkpt lat="40.950615" lon="15.3344467"><ele>810.0</ele><time>2026-03-28T08:52:32.492Z</time></trkpt><trkpt lat="40.950735" lon="15.3345083"><ele>810.0</ele><time>2026-03-28T08:52:33.491Z</time></trkpt><trkpt lat="40.950865" lon="15.3345617"><ele>810.0</ele><time>2026-03-28T08:52:34.491Z</time></trkpt><trkpt lat="40.9509817" lon="15.3346267"><ele>810.0</ele><time>2026-03-28T08:52:35.492Z</time></trkpt><trkpt lat="40.9511" lon="15.3346833"><ele>810.0</ele><time>2026-03-28T08:52:36.492Z</time></trkpt><trkpt lat="40.9512133" lon="15.33474"><ele>809.6</ele><time>2026-03-28T08:52:37.491Z</time></trkpt><trkpt lat="40.9513217" lon="15.3347883"><ele>809.2</ele><time>2026-03-28T08:52:38.492Z</time></trkpt><trkpt lat="40.951425" lon="15.3348317"><ele>808.8</ele><time>2026-03-28T08:52:39.491Z</time></trkpt><trkpt lat="40.95152" lon="15.33486"><ele>808.4</ele><time>2026-03-28T08:52:40.492Z</time></trkpt><trkpt lat="40.9516067" lon="15.3348767"><ele>808.0</ele><time>2026-03-28T08:52:41.491Z</time></trkpt><trkpt lat="40.95168" lon="15.3348867"><ele>809.3333333333333</ele><time>2026-03-28T08:52:42.492Z</time></trkpt><trkpt lat="40.9517483" lon="15.3349067"><ele>810.6666666666666</ele><time>2026-03-28T08:52:43.492Z</time></trkpt><trkpt lat="40.951855" lon="15.3349867"><ele>812.0</ele><time>2026-03-28T08:52:45.492Z</time></trkpt><trkpt lat="40.9518983" lon="15.3350533"><ele>813.3333333333333</ele><time>2026-03-28T08:52:46.491Z</time></trkpt><trkpt lat="40.9519317" lon="15.3351367"><ele>814.6666666666666</ele><time>2026-03-28T08:52:47.492Z</time></trkpt><trkpt lat="40.95196" lon="15.3352283"><ele>816.0</ele><time>2026-03-28T08:52:48.491Z</time></trkpt><trkpt lat="40.9519883" lon="15.3353333"><ele>816.0</ele><time>2026-03-28T08:52:49.491Z</time></trkpt><trkpt lat="40.9520167" lon="15.3354467"><ele>816.0</ele><time>2026-03-28T08:52:50.492Z</time></trkpt><trkpt lat="40.9520533" lon="15.3355667"><ele>816.0</ele><time>2026-03-28T08:52:51.492Z</time></trkpt><trkpt lat="40.9520983" lon="15.3356833"><ele>816.0</ele><time>2026-03-28T08:52:52.492Z</time></trkpt><trkpt lat="40.9521633" lon="15.3357767"><ele>816.0</ele><time>2026-03-28T08:52:53.492Z</time></trkpt><trkpt lat="40.952245" lon="15.3358533"><ele>816.5</ele><time>2026-03-28T08:52:54.491Z</time></trkpt><trkpt lat="40.9523383" lon="15.3359283"><ele>817.0</ele><time>2026-03-28T08:52:55.491Z</time></trkpt><trkpt lat="40.9524417" lon="15.3359933"><ele>817.5</ele><time>2026-03-28T08:52:56.491Z</time></trkpt><trkpt lat="40.9525533" lon="15.3360567"><ele>818.0</ele><time>2026-03-28T08:52:57.492Z</time></trkpt><trkpt lat="40.9526617" lon="15.336115"><ele>820.0</ele><time>2026-03-28T08:52:58.492Z</time></trkpt><trkpt lat="40.9527667" lon="15.336175"><ele>822.0</ele><time>2026-03-28T08:52:59.491Z</time></trkpt><trkpt lat="40.9528667" lon="15.3362417"><ele>824.0</ele><time>2026-03-28T08:53:00.492Z</time></trkpt><trkpt lat="40.952955" lon="15.3363083"><ele>826.0</ele><time>2026-03-28T08:53:01.492Z</time></trkpt><trkpt lat="40.95302" lon="15.336385"><ele>828.0</ele><time>2026-03-28T08:53:02.492Z</time></trkpt><trkpt lat="40.953075" lon="15.33648"><ele>828.0</ele><time>2026-03-28T08:53:03.491Z</time></trkpt><trkpt lat="40.9531267" lon="15.3365917"><ele>828.0</ele><time>2026-03-28T08:53:04.492Z</time></trkpt><trkpt lat="40.9531717" lon="15.3367033"><ele>828.0</ele><time>2026-03-28T08:53:05.492Z</time></trkpt><trkpt lat="40.9532133" lon="15.3368167"><ele>828.0</ele><time>2026-03-28T08:53:06.491Z</time></trkpt><trkpt lat="40.9532517" lon="15.3369217"><ele>828.0</ele><time>2026-03-28T08:53:07.491Z</time></trkpt><trkpt lat="40.953275" lon="15.3370267"><ele>828.0</ele><time>2026-03-28T08:53:08.492Z</time></trkpt><trkpt lat="40.9532917" lon="15.3371317"><ele>828.0</ele><time>2026-03-28T08:53:09.492Z</time></trkpt><trkpt lat="40.9533" lon="15.3372533"><ele>828.0</ele><time>2026-03-28T08:53:10.491Z</time></trkpt><trkpt lat="40.9533067" lon="15.33738"><ele>828.0</ele><time>2026-03-28T08:53:11.491Z</time></trkpt><trkpt lat="40.9533167" lon="15.3375183"><ele>828.0</ele><time>2026-03-28T08:53:12.491Z</time></trkpt><trkpt lat="40.9533233" lon="15.3376417"><ele>828.0</ele><time>2026-03-28T08:53:13.492Z</time></trkpt><trkpt lat="40.953335" lon="15.3377533"><ele>828.0</ele><time>2026-03-28T08:53:14.492Z</time></trkpt><trkpt lat="40.9533617" lon="15.3378583"><ele>828.0</ele><time>2026-03-28T08:53:15.491Z</time></trkpt><trkpt lat="40.9533983" lon="15.3379533"><ele>828.0</ele><time>2026-03-28T08:53:16.491Z</time></trkpt><trkpt lat="40.9534533" lon="15.3380433"><ele>828.0</ele><time>2026-03-28T08:53:17.492Z</time></trkpt><trkpt lat="40.9535183" lon="15.3381183"><ele>828.0</ele><time>2026-03-28T08:53:18.492Z</time></trkpt><trkpt lat="40.953585" lon="15.33819"><ele>828.4</ele><time>2026-03-28T08:53:19.492Z</time></trkpt><trkpt lat="40.9536483" lon="15.3382733"><ele>828.8</ele><time>2026-03-28T08:53:20.492Z</time></trkpt><trkpt lat="40.95371" lon="15.3383683"><ele>829.2</ele><time>2026-03-28T08:53:21.491Z</time></trkpt><trkpt lat="40.953755" lon="15.3384733"><ele>829.6</ele><time>2026-03-28T08:53:22.491Z</time></trkpt><trkpt lat="40.9538" lon="15.33857"><ele>830.0</ele><time>2026-03-28T08:53:23.492Z</time></trkpt><trkpt lat="40.95385" lon="15.3386717"><ele>830.0</ele><time>2026-03-28T08:53:24.491Z</time></trkpt><trkpt lat="40.9539183" lon="15.3387683"><ele>830.0</ele><time>2026-03-28T08:53:25.492Z</time></trkpt><trkpt lat="40.9539883" lon="15.3388683"><ele>830.0</ele><time>2026-03-28T08:53:26.491Z</time></trkpt><trkpt lat="40.9540617" lon="15.3389617"><ele>830.0</ele><time>2026-03-28T08:53:27.491Z</time></trkpt><trkpt lat="40.95413" lon="15.3390517"><ele>830.0</ele><time>2026-03-28T08:53:28.492Z</time></trkpt><trkpt lat="40.9542033" lon="15.3391333"><ele>830.0</ele><time>2026-03-28T08:53:29.492Z</time></trkpt><trkpt lat="40.954265" lon="15.3392133"><ele>830.0</ele><time>2026-03-28T08:53:30.491Z</time></trkpt><trkpt lat="40.954335" lon="15.3392967"><ele>830.0</ele><time>2026-03-28T08:53:31.491Z</time></trkpt><trkpt lat="40.9544017" lon="15.3393933"><ele>830.0</ele><time>2026-03-28T08:53:32.492Z</time></trkpt><trkpt lat="40.954465" lon="15.3394917"><ele>830.0</ele><time>2026-03-28T08:53:33.492Z</time></trkpt><trkpt lat="40.9545183" lon="15.33959"><ele>830.0000000000001</ele><time>2026-03-28T08:53:34.492Z</time></trkpt><trkpt lat="40.9545717" lon="15.3396833"><ele>830.0</ele><time>2026-03-28T08:53:35.492Z</time></trkpt><trkpt lat="40.9546233" lon="15.3397667"><ele>830.0</ele><time>2026-03-28T08:53:36.492Z</time></trkpt><trkpt lat="40.9546717" lon="15.33985"><ele>830.0</ele><time>2026-03-28T08:53:37.492Z</time></trkpt><trkpt lat="40.9547117" lon="15.3399317"><ele>830.0000000000001</ele><time>2026-03-28T08:53:38.491Z</time></trkpt><trkpt lat="40.9547433" lon="15.3400217"><ele>830.0</ele><time>2026-03-28T08:53:39.492Z</time></trkpt><trkpt lat="40.9547733" lon="15.3401167"><ele>829.1666666666667</ele><time>2026-03-28T08:53:40.491Z</time></trkpt><trkpt lat="40.9547983" lon="15.3402083"><ele>828.3333333333334</ele><time>2026-03-28T08:53:41.491Z</time></trkpt><trkpt lat="40.954835" lon="15.3403717"><ele>827.5</ele><time>2026-03-28T08:53:43.492Z</time></trkpt><trkpt lat="40.9548683" lon="15.3404433"><ele>826.6666666666667</ele><time>2026-03-28T08:53:44.492Z</time></trkpt><trkpt lat="40.9549117" lon="15.3405083"><ele>825.8333333333334</ele><time>2026-03-28T08:53:45.492Z</time></trkpt><trkpt lat="40.9549617" lon="15.3405733"><ele>825.0</ele><time>2026-03-28T08:53:46.492Z</time></trkpt><trkpt lat="40.9550183" lon="15.34063"><ele>824.1666666666666</ele><time>2026-03-28T08:53:47.491Z</time></trkpt><trkpt lat="40.955085" lon="15.340675"><ele>823.3333333333333</ele><time>2026-03-28T08:53:48.491Z</time></trkpt><trkpt lat="40.9551617" lon="15.34072"><ele>822.5</ele><time>2026-03-28T08:53:49.492Z</time></trkpt><trkpt lat="40.9552467" lon="15.3407617"><ele>821.6666666666666</ele><time>2026-03-28T08:53:50.492Z</time></trkpt><trkpt lat="40.955325" lon="15.3408167"><ele>820.8333333333333</ele><time>2026-03-28T08:53:51.492Z</time></trkpt><trkpt lat="40.955405" lon="15.34089"><ele>820.0</ele><time>2026-03-28T08:53:52.492Z</time></trkpt><trkpt lat="40.9554767" lon="15.3409683"><ele>819.9999999999999</ele><time>2026-03-28T08:53:53.492Z</time></trkpt><trkpt lat="40.9555333" lon="15.3410383"><ele>820.0</ele><time>2026-03-28T08:53:54.492Z</time></trkpt><trkpt lat="40.955585" lon="15.3411283"><ele>820.0</ele><time>2026-03-28T08:53:55.491Z</time></trkpt><trkpt lat="40.9556267" lon="15.3412267"><ele>820.0</ele><time>2026-03-28T08:53:56.492Z</time></trkpt><trkpt lat="40.9556417" lon="15.3413417"><ele>819.9999999999999</ele><time>2026-03-28T08:53:57.491Z</time></trkpt><trkpt lat="40.955645" lon="15.3414617"><ele>820.0</ele><time>2026-03-28T08:53:58.492Z</time></trkpt><trkpt lat="40.9556367" lon="15.3415967"><ele>819.8</ele><time>2026-03-28T08:53:59.492Z</time></trkpt><trkpt lat="40.9556183" lon="15.3417383"><ele>819.6</ele><time>2026-03-28T08:54:00.491Z</time></trkpt><trkpt lat="40.9555933" lon="15.34188"><ele>819.4000000000001</ele><time>2026-03-28T08:54:01.491Z</time></trkpt><trkpt lat="40.9555733" lon="15.3420133"><ele>819.2</ele><time>2026-03-28T08:54:02.492Z</time></trkpt><trkpt lat="40.9555667" lon="15.3421383"><ele>819.0</ele><time>2026-03-28T08:54:03.492Z</time></trkpt><trkpt lat="40.955565" lon="15.3422567"><ele>819.6</ele><time>2026-03-28T08:54:04.492Z</time></trkpt><trkpt lat="40.9555667" lon="15.34238"><ele>820.2</ele><time>2026-03-28T08:54:05.491Z</time></trkpt><trkpt lat="40.9555767" lon="15.34251"><ele>820.8000000000001</ele><time>2026-03-28T08:54:06.491Z</time></trkpt><trkpt lat="40.9555883" lon="15.3426317"><ele>821.4000000000001</ele><time>2026-03-28T08:54:07.492Z</time></trkpt><trkpt lat="40.9556117" lon="15.3427617"><ele>822.0</ele><time>2026-03-28T08:54:08.492Z</time></trkpt><trkpt lat="40.955645" lon="15.3428967"><ele>822.0</ele><time>2026-03-28T08:54:09.492Z</time></trkpt><trkpt lat="40.95569" lon="15.3430417"><ele>822.0</ele><time>2026-03-28T08:54:10.492Z</time></trkpt><trkpt lat="40.9557417" lon="15.34318"><ele>822.0</ele><time>2026-03-28T08:54:11.492Z</time></trkpt><trkpt lat="40.9557983" lon="15.343315"><ele>822.0</ele><time>2026-03-28T08:54:12.492Z</time></trkpt><trkpt lat="40.9558533" lon="15.3434317"><ele>824.2</ele><time>2026-03-28T08:54:13.492Z</time></trkpt><trkpt lat="40.9558967" lon="15.343545"><ele>826.4000000000001</ele><time>2026-03-28T08:54:14.492Z</time></trkpt><trkpt lat="40.95593" lon="15.343655"><ele>828.5999999999999</ele><time>2026-03-28T08:54:15.492Z</time></trkpt><trkpt lat="40.955955" lon="15.3437617"><ele>830.8</ele><time>2026-03-28T08:54:16.491Z</time></trkpt><trkpt lat="40.9559733" lon="15.343875"><ele>833.0</ele><time>2026-03-28T08:54:17.492Z</time></trkpt><trkpt lat="40.9559867" lon="15.3439967"><ele>833.0</ele><time>2026-03-28T08:54:18.491Z</time></trkpt><trkpt lat="40.9560033" lon="15.344115"><ele>833.0</ele><time>2026-03-28T08:54:19.492Z</time></trkpt><trkpt lat="40.95603" lon="15.344235"><ele>833.0</ele><time>2026-03-28T08:54:20.492Z</time></trkpt><trkpt lat="40.956055" lon="15.3443533"><ele>833.0</ele><time>2026-03-28T08:54:21.492Z</time></trkpt><trkpt lat="40.956075" lon="15.344475"><ele>833.0</ele><time>2026-03-28T08:54:22.491Z</time></trkpt><trkpt lat="40.9560967" lon="15.3445983"><ele>833.0000000000001</ele><time>2026-03-28T08:54:23.492Z</time></trkpt><trkpt lat="40.9561167" lon="15.3447083"><ele>833.0</ele><time>2026-03-28T08:54:24.492Z</time></trkpt><trkpt lat="40.956135" lon="15.3448"><ele>833.0</ele><time>2026-03-28T08:54:25.492Z</time></trkpt><trkpt lat="40.9561617" lon="15.344895"><ele>833.0</ele><time>2026-03-28T08:54:26.491Z</time></trkpt><trkpt lat="40.956195" lon="15.3449883"><ele>833.0000000000001</ele><time>2026-03-28T08:54:27.492Z</time></trkpt><trkpt lat="40.9562333" lon="15.3450733"><ele>833.0</ele><time>2026-03-28T08:54:28.492Z</time></trkpt><trkpt lat="40.9562817" lon="15.345155"><ele>832.2</ele><time>2026-03-28T08:54:29.492Z</time></trkpt><trkpt lat="40.95634" lon="15.3452433"><ele>831.4</ele><time>2026-03-28T08:54:30.492Z</time></trkpt><trkpt lat="40.9564017" lon="15.34533"><ele>830.6</ele><time>2026-03-28T08:54:31.492Z</time></trkpt><trkpt lat="40.9564617" lon="15.3454167"><ele>829.8000000000001</ele><time>2026-03-28T08:54:32.491Z</time></trkpt><trkpt lat="40.9565283" lon="15.3455"><ele>829.0</ele><time>2026-03-28T08:54:33.491Z</time></trkpt><trkpt lat="40.956595" lon="15.3455867"><ele>828.6</ele><time>2026-03-28T08:54:34.492Z</time></trkpt><trkpt lat="40.956665" lon="15.34567"><ele>828.2</ele><time>2026-03-28T08:54:35.492Z</time></trkpt><trkpt lat="40.9567367" lon="15.3457583"><ele>827.8000000000001</ele><time>2026-03-28T08:54:36.492Z</time></trkpt><trkpt lat="40.9568083" lon="15.345855"><ele>827.4000000000001</ele><time>2026-03-28T08:54:37.492Z</time></trkpt><trkpt lat="40.956885" lon="15.3459517"><ele>827.0</ele><time>2026-03-28T08:54:38.491Z</time></trkpt><trkpt lat="40.9569617" lon="15.34606"><ele>827.0</ele><time>2026-03-28T08:54:39.491Z</time></trkpt><trkpt lat="40.9570383" lon="15.3461617"><ele>827.0</ele><time>2026-03-28T08:54:40.491Z</time></trkpt><trkpt lat="40.9571133" lon="15.3462667"><ele>827.0</ele><time>2026-03-28T08:54:41.492Z</time></trkpt><trkpt lat="40.95719" lon="15.3463667"><ele>827.0</ele><time>2026-03-28T08:54:42.492Z</time></trkpt><trkpt lat="40.9572617" lon="15.34646"><ele>827.0</ele><time>2026-03-28T08:54:43.491Z</time></trkpt><trkpt lat="40.957325" lon="15.34655"><ele>826.6666666666667</ele><time>2026-03-28T08:54:44.491Z</time></trkpt><trkpt lat="40.9573817" lon="15.34663"><ele>826.3333333333334</ele><time>2026-03-28T08:54:45.492Z</time></trkpt><trkpt lat="40.9574317" lon="15.346705"><ele>826.0</ele><time>2026-03-28T08:54:46.492Z</time></trkpt><trkpt lat="40.957485" lon="15.3467733"><ele>825.6666666666667</ele><time>2026-03-28T08:54:47.492Z</time></trkpt><trkpt lat="40.957535" lon="15.34684"><ele>825.3333333333334</ele><time>2026-03-28T08:54:48.492Z</time></trkpt><trkpt lat="40.9575867" lon="15.3469117"><ele>825.0</ele><time>2026-03-28T08:54:49.492Z</time></trkpt><trkpt lat="40.9576433" lon="15.34699"><ele>825.0</ele><time>2026-03-28T08:54:50.492Z</time></trkpt><trkpt lat="40.957705" lon="15.3470633"><ele>825.0</ele><time>2026-03-28T08:54:51.491Z</time></trkpt><trkpt lat="40.9577717" lon="15.347135"><ele>825.0</ele><time>2026-03-28T08:54:52.492Z</time></trkpt><trkpt lat="40.9578483" lon="15.3471967"><ele>825.0</ele><time>2026-03-28T08:54:53.492Z</time></trkpt><trkpt lat="40.9579283" lon="15.3472517"><ele>825.0</ele><time>2026-03-28T08:54:54.492Z</time></trkpt><trkpt lat="40.958025" lon="15.3472983"><ele>823.8</ele><time>2026-03-28T08:54:55.492Z</time></trkpt><trkpt lat="40.9581283" lon="15.347345"><ele>822.6</ele><time>2026-03-28T08:54:56.492Z</time></trkpt><trkpt lat="40.9582333" lon="15.34739"><ele>821.4000000000001</ele><time>2026-03-28T08:54:57.491Z</time></trkpt><trkpt lat="40.9583383" lon="15.3474267"><ele>820.2</ele><time>2026-03-28T08:54:58.491Z</time></trkpt><trkpt lat="40.9584333" lon="15.3474533"><ele>819.0</ele><time>2026-03-28T08:54:59.491Z</time></trkpt><trkpt lat="40.9585317" lon="15.3474833"><ele>818.6</ele><time>2026-03-28T08:55:00.491Z</time></trkpt><trkpt lat="40.9586267" lon="15.3475133"><ele>818.2</ele><time>2026-03-28T08:55:01.491Z</time></trkpt><trkpt lat="40.95872" lon="15.3475467"><ele>817.8000000000001</ele><time>2026-03-28T08:55:02.491Z</time></trkpt><trkpt lat="40.9588117" lon="15.3475767"><ele>817.4000000000001</ele><time>2026-03-28T08:55:03.491Z</time></trkpt><trkpt lat="40.9589017" lon="15.3476067"><ele>817.0</ele><time>2026-03-28T08:55:04.492Z</time></trkpt><trkpt lat="40.9589917" lon="15.347625"><ele>817.0</ele><time>2026-03-28T08:55:05.492Z</time></trkpt><trkpt lat="40.9590933" lon="15.3476417"><ele>817.0</ele><time>2026-03-28T08:55:06.492Z</time></trkpt><trkpt lat="40.9591933" lon="15.3476517"><ele>817.0</ele><time>2026-03-28T08:55:07.492Z</time></trkpt><trkpt lat="40.9593017" lon="15.3476617"><ele>817.0</ele><time>2026-03-28T08:55:08.492Z</time></trkpt><trkpt lat="40.9594167" lon="15.3476783"><ele>817.0</ele><time>2026-03-28T08:55:09.491Z</time></trkpt><trkpt lat="40.95953" lon="15.3477033"><ele>816.25</ele><time>2026-03-28T08:55:10.492Z</time></trkpt><trkpt lat="40.959645" lon="15.3477367"><ele>815.5</ele><time>2026-03-28T08:55:11.492Z</time></trkpt><trkpt lat="40.9597583" lon="15.347775"><ele>814.75</ele><time>2026-03-28T08:55:12.491Z</time></trkpt><trkpt lat="40.9598683" lon="15.3478133"><ele>814.0</ele><time>2026-03-28T08:55:13.491Z</time></trkpt><trkpt lat="40.9599717" lon="15.347855"><ele>812.8000000000001</ele><time>2026-03-28T08:55:14.491Z</time></trkpt><trkpt lat="40.9600733" lon="15.3478967"><ele>811.6</ele><time>2026-03-28T08:55:15.492Z</time></trkpt><trkpt lat="40.9601783" lon="15.3479317"><ele>810.4</ele><time>2026-03-28T08:55:16.492Z</time></trkpt><trkpt lat="40.96028" lon="15.3479667"><ele>809.2</ele><time>2026-03-28T08:55:17.492Z</time></trkpt><trkpt lat="40.960375" lon="15.3479967"><ele>808.0</ele><time>2026-03-28T08:55:18.492Z</time></trkpt><trkpt lat="40.9604717" lon="15.3480267"><ele>806.5999999999999</ele><time>2026-03-28T08:55:19.492Z</time></trkpt><trkpt lat="40.960565" lon="15.3480567"><ele>805.1999999999999</ele><time>2026-03-28T08:55:20.492Z</time></trkpt><trkpt lat="40.9606533" lon="15.3480967"><ele>803.8</ele><time>2026-03-28T08:55:21.492Z</time></trkpt><trkpt lat="40.960735" lon="15.3481583"><ele>802.4</ele><time>2026-03-28T08:55:22.492Z</time></trkpt><trkpt lat="40.9608083" lon="15.348235"><ele>801.0</ele><time>2026-03-28T08:55:23.492Z</time></trkpt><trkpt lat="40.9608833" lon="15.3483183"><ele>800.5999999999999</ele><time>2026-03-28T08:55:24.492Z</time></trkpt><trkpt lat="40.9609567" lon="15.348405"><ele>800.2</ele><time>2026-03-28T08:55:25.492Z</time></trkpt><trkpt lat="40.9610267" lon="15.34849"><ele>799.8</ele><time>2026-03-28T08:55:26.492Z</time></trkpt><trkpt lat="40.9610933" lon="15.34857"><ele>799.4000000000001</ele><time>2026-03-28T08:55:27.492Z</time></trkpt><trkpt lat="40.9611633" lon="15.3486383"><ele>799.0</ele><time>2026-03-28T08:55:28.491Z</time></trkpt><trkpt lat="40.9612417" lon="15.3486817"><ele>798.9999999999999</ele><time>2026-03-28T08:55:29.492Z</time></trkpt><trkpt lat="40.96132" lon="15.3487"><ele>799.0</ele><time>2026-03-28T08:55:30.492Z</time></trkpt><trkpt lat="40.9614017" lon="15.3486933"><ele>799.0</ele><time>2026-03-28T08:55:31.491Z</time></trkpt><trkpt lat="40.9614883" lon="15.348675"><ele>799.0</ele><time>2026-03-28T08:55:32.492Z</time></trkpt><trkpt lat="40.9615783" lon="15.3486583"><ele>798.9999999999999</ele><time>2026-03-28T08:55:33.492Z</time></trkpt><trkpt lat="40.9616767" lon="15.34864"><ele>799.0</ele><time>2026-03-28T08:55:34.492Z</time></trkpt><trkpt lat="40.961775" lon="15.3486317"><ele>798.0</ele><time>2026-03-28T08:55:35.491Z</time></trkpt><trkpt lat="40.9618767" lon="15.3486267"><ele>797.0</ele><time>2026-03-28T08:55:36.492Z</time></trkpt><trkpt lat="40.9619783" lon="15.3486033"><ele>796.0</ele><time>2026-03-28T08:55:37.491Z</time></trkpt><trkpt lat="40.9620767" lon="15.3485667"><ele>795.0</ele><time>2026-03-28T08:55:38.492Z</time></trkpt><trkpt lat="40.9621717" lon="15.348525"><ele>794.0</ele><time>2026-03-28T08:55:39.491Z</time></trkpt><trkpt lat="40.9622617" lon="15.3484883"><ele>794.0000000000001</ele><time>2026-03-28T08:55:40.492Z</time></trkpt><trkpt lat="40.96234" lon="15.348465"><ele>794.0</ele><time>2026-03-28T08:55:41.492Z</time></trkpt><trkpt lat="40.96242" lon="15.3484633"><ele>794.0</ele><time>2026-03-28T08:55:42.491Z</time></trkpt><trkpt lat="40.9625017" lon="15.3484833"><ele>794.0</ele><time>2026-03-28T08:55:43.492Z</time></trkpt><trkpt lat="40.9625867" lon="15.348525"><ele>794.0000000000001</ele><time>2026-03-28T08:55:44.492Z</time></trkpt><trkpt lat="40.96267" lon="15.3485967"><ele>794.0</ele><time>2026-03-28T08:55:45.492Z</time></trkpt><trkpt lat="40.9627333" lon="15.3486883"><ele>793.0</ele><time>2026-03-28T08:55:46.492Z</time></trkpt><trkpt lat="40.9627883" lon="15.3488"><ele>792.0</ele><time>2026-03-28T08:55:47.492Z</time></trkpt><trkpt lat="40.96284" lon="15.34892"><ele>791.0</ele><time>2026-03-28T08:55:48.491Z</time></trkpt><trkpt lat="40.9628917" lon="15.3490367"><ele>790.0</ele><time>2026-03-28T08:55:49.491Z</time></trkpt><trkpt lat="40.9629483" lon="15.3491367"><ele>789.0</ele><time>2026-03-28T08:55:50.491Z</time></trkpt><trkpt lat="40.9630167" lon="15.3492117"><ele>787.8000000000001</ele><time>2026-03-28T08:55:51.492Z</time></trkpt><trkpt lat="40.963095" lon="15.34928"><ele>786.6</ele><time>2026-03-28T08:55:52.492Z</time></trkpt><trkpt lat="40.963175" lon="15.3493383"><ele>785.4</ele><time>2026-03-28T08:55:53.491Z</time></trkpt><trkpt lat="40.9632633" lon="15.34938"><ele>784.2</ele><time>2026-03-28T08:55:54.491Z</time></trkpt><trkpt lat="40.963365" lon="15.349415"><ele>783.0</ele><time>2026-03-28T08:55:55.492Z</time></trkpt><trkpt lat="40.9634683" lon="15.3494467"><ele>781.5999999999999</ele><time>2026-03-28T08:55:56.492Z</time></trkpt><trkpt lat="40.963575" lon="15.34948"><ele>780.1999999999999</ele><time>2026-03-28T08:55:57.492Z</time></trkpt><trkpt lat="40.963685" lon="15.3495067"><ele>778.8</ele><time>2026-03-28T08:55:58.492Z</time></trkpt><trkpt lat="40.9637967" lon="15.3495317"><ele>777.4</ele><time>2026-03-28T08:55:59.492Z</time></trkpt><trkpt lat="40.9639083" lon="15.3495517"><ele>776.0</ele><time>2026-03-28T08:56:00.492Z</time></trkpt><trkpt lat="40.96401" lon="15.3495717"><ele>776.0</ele><time>2026-03-28T08:56:01.492Z</time></trkpt><trkpt lat="40.96411" lon="15.3496"><ele>776.0</ele><time>2026-03-28T08:56:02.492Z</time></trkpt><trkpt lat="40.9642167" lon="15.3496217"><ele>776.0</ele><time>2026-03-28T08:56:03.492Z</time></trkpt><trkpt lat="40.9643183" lon="15.3496433"><ele>776.0</ele><time>2026-03-28T08:56:04.491Z</time></trkpt><trkpt lat="40.9644183" lon="15.3496583"><ele>776.0</ele><time>2026-03-28T08:56:05.492Z</time></trkpt><trkpt lat="40.9645217" lon="15.34967"><ele>774.4</ele><time>2026-03-28T08:56:06.492Z</time></trkpt><trkpt lat="40.9646267" lon="15.3496833"><ele>772.8</ele><time>2026-03-28T08:56:07.492Z</time></trkpt><trkpt lat="40.9647283" lon="15.3497017"><ele>771.1999999999999</ele><time>2026-03-28T08:56:08.491Z</time></trkpt><trkpt lat="40.9648233" lon="15.34972"><ele>769.5999999999999</ele><time>2026-03-28T08:56:09.491Z</time></trkpt><trkpt lat="40.9649117" lon="15.3497517"><ele>768.0</ele><time>2026-03-28T08:56:10.492Z</time></trkpt><trkpt lat="40.964995" lon="15.3497917"><ele>766.0</ele><time>2026-03-28T08:56:11.492Z</time></trkpt><trkpt lat="40.96507" lon="15.3498483"><ele>764.0</ele><time>2026-03-28T08:56:12.492Z</time></trkpt><trkpt lat="40.9651317" lon="15.3498967"><ele>762.0</ele><time>2026-03-28T08:56:13.492Z</time></trkpt><trkpt lat="40.965195" lon="15.3499517"><ele>760.0</ele><time>2026-03-28T08:56:14.492Z</time></trkpt><trkpt lat="40.96526" lon="15.35"><ele>758.0</ele><time>2026-03-28T08:56:15.492Z</time></trkpt><trkpt lat="40.9653267" lon="15.3500417"><ele>756.0</ele><time>2026-03-28T08:56:16.491Z</time></trkpt><trkpt lat="40.965395" lon="15.3500717"><ele>756.0</ele><time>2026-03-28T08:56:17.491Z</time></trkpt><trkpt lat="40.96551" lon="15.3500717"><ele>756.0</ele><time>2026-03-28T08:56:19.491Z</time></trkpt><trkpt lat="40.9655917" lon="15.3499717"><ele>756.0</ele><time>2026-03-28T08:56:21.492Z</time></trkpt><trkpt lat="40.9656317" lon="15.3499017"><ele>756.0</ele><time>2026-03-28T08:56:22.492Z</time></trkpt><trkpt lat="40.9656783" lon="15.349835"><ele>756.0</ele><time>2026-03-28T08:56:23.492Z</time></trkpt><trkpt lat="40.9657783" lon="15.3497867"><ele>756.5</ele><time>2026-03-28T08:56:25.491Z</time></trkpt><trkpt lat="40.9658917" lon="15.349855"><ele>757.0</ele><time>2026-03-28T08:56:27.491Z</time></trkpt><trkpt lat="40.965945" lon="15.34992"><ele>757.5</ele><time>2026-03-28T08:56:28.491Z</time></trkpt><trkpt lat="40.966005" lon="15.35"><ele>758.0</ele><time>2026-03-28T08:56:29.491Z</time></trkpt><trkpt lat="40.966055" lon="15.3500783"><ele>758.5</ele><time>2026-03-28T08:56:30.492Z</time></trkpt><trkpt lat="40.966105" lon="15.3501467"><ele>759.0</ele><time>2026-03-28T08:56:31.491Z</time></trkpt><trkpt lat="40.9661483" lon="15.35021"><ele>759.0</ele><time>2026-03-28T08:56:32.492Z</time></trkpt><trkpt lat="40.9662017" lon="15.35026"><ele>759.0</ele><time>2026-03-28T08:56:33.492Z</time></trkpt><trkpt lat="40.9662583" lon="15.3503067"><ele>759.0</ele><time>2026-03-28T08:56:34.491Z</time></trkpt><trkpt lat="40.9663217" lon="15.3503517"><ele>759.0</ele><time>2026-03-28T08:56:35.491Z</time></trkpt><trkpt lat="40.9663983" lon="15.3503867"><ele>759.0</ele><time>2026-03-28T08:56:36.492Z</time></trkpt><trkpt lat="40.9664917" lon="15.3504017"><ele>759.0</ele><time>2026-03-28T08:56:37.491Z</time></trkpt><trkpt lat="40.9665883" lon="15.3504117"><ele>760.4000000000001</ele><time>2026-03-28T08:56:38.492Z</time></trkpt><trkpt lat="40.9666967" lon="15.3504167"><ele>761.8</ele><time>2026-03-28T08:56:39.491Z</time></trkpt><trkpt lat="40.9667933" lon="15.350425"><ele>763.2</ele><time>2026-03-28T08:56:40.491Z</time></trkpt><trkpt lat="40.9668833" lon="15.3504317"><ele>764.5999999999999</ele><time>2026-03-28T08:56:41.492Z</time></trkpt><trkpt lat="40.966965" lon="15.3504383"><ele>766.0</ele><time>2026-03-28T08:56:42.491Z</time></trkpt><trkpt lat="40.967045" lon="15.3504533"><ele>766.0</ele><time>2026-03-28T08:56:43.491Z</time></trkpt><trkpt lat="40.9671283" lon="15.3504833"><ele>766.0</ele><time>2026-03-28T08:56:44.491Z</time></trkpt><trkpt lat="40.9672117" lon="15.35051"><ele>766.0</ele><time>2026-03-28T08:56:45.492Z</time></trkpt><trkpt lat="40.9672833" lon="15.3505517"><ele>766.0</ele><time>2026-03-28T08:56:46.491Z</time></trkpt><trkpt lat="40.9673467" lon="15.3505933"><ele>766.0</ele><time>2026-03-28T08:56:47.492Z</time></trkpt><trkpt lat="40.9674117" lon="15.3506367"><ele>766.0</ele><time>2026-03-28T08:56:48.492Z</time></trkpt><trkpt lat="40.9674733" lon="15.3506767"><ele>765.0</ele><time>2026-03-28T08:56:49.491Z</time></trkpt><trkpt lat="40.9675367" lon="15.3507183"><ele>764.0</ele><time>2026-03-28T08:56:50.492Z</time></trkpt><trkpt lat="40.9676017" lon="15.3507667"><ele>763.0</ele><time>2026-03-28T08:56:51.492Z</time></trkpt><trkpt lat="40.9676683" lon="15.3508183"><ele>762.0</ele><time>2026-03-28T08:56:52.492Z</time></trkpt><trkpt lat="40.9677283" lon="15.350865"><ele>761.0</ele><time>2026-03-28T08:56:53.492Z</time></trkpt><trkpt lat="40.9677883" lon="15.3509117"><ele>760.0</ele><time>2026-03-28T08:56:54.491Z</time></trkpt><trkpt lat="40.9678467" lon="15.350955"><ele>759.0</ele><time>2026-03-28T08:56:55.492Z</time></trkpt><trkpt lat="40.9679017" lon="15.351"><ele>759.0</ele><time>2026-03-28T08:56:56.492Z</time></trkpt><trkpt lat="40.967955" lon="15.351045"><ele>759.0</ele><time>2026-03-28T08:56:57.492Z</time></trkpt><trkpt lat="40.9680133" lon="15.3510917"><ele>759.0</ele><time>2026-03-28T08:56:58.492Z</time></trkpt><trkpt lat="40.9680733" lon="15.351145"><ele>759.0</ele><time>2026-03-28T08:56:59.492Z</time></trkpt><trkpt lat="40.9681317" lon="15.3511883"><ele>759.0</ele><time>2026-03-28T08:57:00.492Z</time></trkpt><trkpt lat="40.9682317" lon="15.3512633"><ele>759.0</ele><time>2026-03-28T08:57:02.492Z</time></trkpt><trkpt lat="40.9683267" lon="15.3513333"><ele>757.6</ele><time>2026-03-28T08:57:04.492Z</time></trkpt><trkpt lat="40.9684283" lon="15.3513917"><ele>756.2</ele><time>2026-03-28T08:57:06.492Z</time></trkpt><trkpt lat="40.9685283" lon="15.3514333"><ele>754.8000000000001</ele><time>2026-03-28T08:57:08.491Z</time></trkpt><trkpt lat="40.9686367" lon="15.351455"><ele>753.4000000000001</ele><time>2026-03-28T08:57:10.492Z</time></trkpt><trkpt lat="40.9687433" lon="15.351465"><ele>752.0</ele><time>2026-03-28T08:57:12.492Z</time></trkpt><trkpt lat="40.9688733" lon="15.3514783"><ele>752.0</ele><time>2026-03-28T08:57:14.492Z</time></trkpt><trkpt lat="40.968945" lon="15.3514817"><ele>752.0</ele><time>2026-03-28T08:57:15.492Z</time></trkpt><trkpt lat="40.9690217" lon="15.351475"><ele>752.0</ele><time>2026-03-28T08:57:16.492Z</time></trkpt><trkpt lat="40.969105" lon="15.35146"><ele>752.0</ele><time>2026-03-28T08:57:17.491Z</time></trkpt><trkpt lat="40.969185" lon="15.35145"><ele>752.0</ele><time>2026-03-28T08:57:18.492Z</time></trkpt><trkpt lat="40.9692567" lon="15.3514483"><ele>752.0</ele><time>2026-03-28T08:57:19.491Z</time></trkpt><trkpt lat="40.9693267" lon="15.351445"><ele>754.8333333333333</ele><time>2026-03-28T08:57:20.492Z</time></trkpt><trkpt lat="40.9693917" lon="15.3514417"><ele>757.6666666666666</ele><time>2026-03-28T08:57:21.492Z</time></trkpt><trkpt lat="40.9694983" lon="15.351425"><ele>760.5</ele><time>2026-03-28T08:57:23.491Z</time></trkpt><trkpt lat="40.9695683" lon="15.3513967"><ele>763.3333333333333</ele><time>2026-03-28T08:57:25.491Z</time></trkpt><trkpt lat="40.9696433" lon="15.3514067"><ele>766.1666666666666</ele><time>2026-03-28T08:57:27.492Z</time></trkpt><trkpt lat="40.9697117" lon="15.3514683"><ele>769.0</ele><time>2026-03-28T08:57:29.492Z</time></trkpt><trkpt lat="40.96977" lon="15.3515667"><ele>769.0</ele><time>2026-03-28T08:57:31.492Z</time></trkpt><trkpt lat="40.96984" lon="15.3516933"><ele>769.0</ele><time>2026-03-28T08:57:33.492Z</time></trkpt><trkpt lat="40.9698767" lon="15.35177"><ele>769.0</ele><time>2026-03-28T08:57:34.492Z</time></trkpt><trkpt lat="40.9699583" lon="15.3519017"><ele>769.0</ele><time>2026-03-28T08:57:36.492Z</time></trkpt><trkpt lat="40.9700583" lon="15.3519983"><ele>769.0</ele><time>2026-03-28T08:57:38.493Z</time></trkpt><trkpt lat="40.97012" lon="15.3520217"><ele>770.8000000000001</ele><time>2026-03-28T08:57:39.492Z</time></trkpt><trkpt lat="40.9702333" lon="15.3520617"><ele>772.6</ele><time>2026-03-28T08:57:41.492Z</time></trkpt><trkpt lat="40.9703217" lon="15.3520933"><ele>774.4</ele><time>2026-03-28T08:57:43.493Z</time></trkpt><trkpt lat="40.9704033" lon="15.35212"><ele>776.2</ele><time>2026-03-28T08:57:45.493Z</time></trkpt><trkpt lat="40.97048" lon="15.3520817"><ele>778.0</ele><time>2026-03-28T08:57:47.493Z</time></trkpt><trkpt lat="40.9704933" lon="15.3519733"><ele>778.0</ele><time>2026-03-28T08:57:49.493Z</time></trkpt><trkpt lat="40.970485" lon="15.3518483"><ele>778.0</ele><time>2026-03-28T08:57:51.492Z</time></trkpt><trkpt lat="40.9704967" lon="15.3517383"><ele>778.0</ele><time>2026-03-28T08:57:53.492Z</time></trkpt><trkpt lat="40.9705517" lon="15.3516383"><ele>778.0</ele><time>2026-03-28T08:57:55.493Z</time></trkpt><trkpt lat="40.9706467" lon="15.3516117"><ele>778.0</ele><time>2026-03-28T08:57:57.492Z</time></trkpt><trkpt lat="40.970745" lon="15.3516117"><ele>778.0</ele><time>2026-03-28T08:57:59.492Z</time></trkpt><trkpt lat="40.97085" lon="15.3516133"><ele>778.0</ele><time>2026-03-28T08:58:01.492Z</time></trkpt><trkpt lat="40.9709583" lon="15.351615"><ele>778.0</ele><time>2026-03-28T08:58:03.492Z</time></trkpt><trkpt lat="40.9710433" lon="15.3515967"><ele>778.0</ele><time>2026-03-28T08:58:05.493Z</time></trkpt><trkpt lat="40.9711217" lon="15.3515433"><ele>778.0</ele><time>2026-03-28T08:58:07.493Z</time></trkpt><trkpt lat="40.9711767" lon="15.3514217"><ele>779.8</ele><time>2026-03-28T08:58:09.492Z</time></trkpt><trkpt lat="40.97122" lon="15.3512767"><ele>781.5999999999999</ele><time>2026-03-28T08:58:11.492Z</time></trkpt><trkpt lat="40.9712383" lon="15.351195"><ele>783.4000000000001</ele><time>2026-03-28T08:58:12.493Z</time></trkpt><trkpt lat="40.971265" lon="15.35103"><ele>785.2</ele><time>2026-03-28T08:58:14.493Z</time></trkpt><trkpt lat="40.9713017" lon="15.3508933"><ele>787.0</ele><time>2026-03-28T08:58:16.492Z</time></trkpt><trkpt lat="40.971365" lon="15.3508217"><ele>787.0</ele><time>2026-03-28T08:58:18.492Z</time></trkpt><trkpt lat="40.9714633" lon="15.3508217"><ele>787.0</ele><time>2026-03-28T08:58:20.493Z</time></trkpt><trkpt lat="40.9715717" lon="15.35087"><ele>787.0</ele><time>2026-03-28T08:58:22.492Z</time></trkpt><trkpt lat="40.9716283" lon="15.3509117"><ele>787.0</ele><time>2026-03-28T08:58:23.492Z</time></trkpt><trkpt lat="40.9716867" lon="15.3509483"><ele>787.0</ele><time>2026-03-28T08:58:24.492Z</time></trkpt><trkpt lat="40.9717967" lon="15.3509883"><ele>789.1666666666666</ele><time>2026-03-28T08:58:26.493Z</time></trkpt><trkpt lat="40.971925" lon="15.3509717"><ele>791.3333333333333</ele><time>2026-03-28T08:58:28.493Z</time></trkpt><trkpt lat="40.9719967" lon="15.3509483"><ele>793.5</ele><time>2026-03-28T08:58:29.492Z</time></trkpt><trkpt lat="40.9720767" lon="15.3509267"><ele>795.6666666666667</ele><time>2026-03-28T08:58:30.493Z</time></trkpt><trkpt lat="40.97215" lon="15.350925"><ele>797.8333333333334</ele><time>2026-03-28T08:58:31.493Z</time></trkpt><trkpt lat="40.9722233" lon="15.35093"><ele>800.0</ele><time>2026-03-28T08:58:32.492Z</time></trkpt><trkpt lat="40.9723017" lon="15.3509433"><ele>800.0000000000001</ele><time>2026-03-28T08:58:33.493Z</time></trkpt><trkpt lat="40.97238" lon="15.350985"><ele>800.0</ele><time>2026-03-28T08:58:34.492Z</time></trkpt><trkpt lat="40.9724517" lon="15.35104"><ele>800.0</ele><time>2026-03-28T08:58:35.492Z</time></trkpt><trkpt lat="40.972525" lon="15.3510983"><ele>800.0</ele><time>2026-03-28T08:58:36.493Z</time></trkpt><trkpt lat="40.9725967" lon="15.35114"><ele>800.0000000000001</ele><time>2026-03-28T08:58:37.493Z</time></trkpt><trkpt lat="40.972675" lon="15.3511633"><ele>800.0</ele><time>2026-03-28T08:58:38.493Z</time></trkpt><trkpt lat="40.9727617" lon="15.3511717"><ele>801.0</ele><time>2026-03-28T08:58:39.493Z</time></trkpt><trkpt lat="40.972855" lon="15.3511667"><ele>802.0</ele><time>2026-03-28T08:58:40.493Z</time></trkpt><trkpt lat="40.9729517" lon="15.3511617"><ele>803.0</ele><time>2026-03-28T08:58:41.493Z</time></trkpt><trkpt lat="40.973055" lon="15.3511667"><ele>804.0</ele><time>2026-03-28T08:58:42.492Z</time></trkpt><trkpt lat="40.97315" lon="15.3511833"><ele>805.0</ele><time>2026-03-28T08:58:43.493Z</time></trkpt><trkpt lat="40.9732467" lon="15.35121"><ele>805.0</ele><time>2026-03-28T08:58:44.493Z</time></trkpt><trkpt lat="40.9733533" lon="15.3512583"><ele>805.0</ele><time>2026-03-28T08:58:45.493Z</time></trkpt><trkpt lat="40.9734633" lon="15.351325"><ele>805.0</ele><time>2026-03-28T08:58:46.493Z</time></trkpt><trkpt lat="40.9735617" lon="15.351405"><ele>805.0</ele><time>2026-03-28T08:58:47.492Z</time></trkpt><trkpt lat="40.9736567" lon="15.3514867"><ele>806.4</ele><time>2026-03-28T08:58:48.492Z</time></trkpt><trkpt lat="40.9737517" lon="15.3515633"><ele>807.8</ele><time>2026-03-28T08:58:49.492Z</time></trkpt><trkpt lat="40.9738467" lon="15.3516333"><ele>809.2</ele><time>2026-03-28T08:58:50.493Z</time></trkpt><trkpt lat="40.9739417" lon="15.3517117"><ele>810.6</ele><time>2026-03-28T08:58:51.493Z</time></trkpt><trkpt lat="40.9740333" lon="15.35179"><ele>812.0</ele><time>2026-03-28T08:58:52.493Z</time></trkpt><trkpt lat="40.97413" lon="15.35187"><ele>812.6</ele><time>2026-03-28T08:58:53.493Z</time></trkpt><trkpt lat="40.9742167" lon="15.351945"><ele>813.2</ele><time>2026-03-28T08:58:54.493Z</time></trkpt><trkpt lat="40.9743033" lon="15.3520183"><ele>813.8</ele><time>2026-03-28T08:58:55.493Z</time></trkpt><trkpt lat="40.9743833" lon="15.3520867"><ele>814.4</ele><time>2026-03-28T08:58:56.493Z</time></trkpt><trkpt lat="40.9744633" lon="15.3521583"><ele>815.0</ele><time>2026-03-28T08:58:57.492Z</time></trkpt><trkpt lat="40.974545" lon="15.35223"><ele>815.6</ele><time>2026-03-28T08:58:58.492Z</time></trkpt><trkpt lat="40.97463" lon="15.3523133"><ele>816.2</ele><time>2026-03-28T08:58:59.492Z</time></trkpt><trkpt lat="40.9747267" lon="15.3524"><ele>816.8</ele><time>2026-03-28T08:59:00.492Z</time></trkpt><trkpt lat="40.9748117" lon="15.3524817"><ele>817.4</ele><time>2026-03-28T08:59:01.492Z</time></trkpt><trkpt lat="40.9748917" lon="15.3525517"><ele>818.0</ele><time>2026-03-28T08:59:02.493Z</time></trkpt><trkpt lat="40.974955" lon="15.3526217"><ele>818.0000000000001</ele><time>2026-03-28T08:59:03.492Z</time></trkpt><trkpt lat="40.9750167" lon="15.3526817"><ele>818.0</ele><time>2026-03-28T08:59:04.492Z</time></trkpt><trkpt lat="40.9750733" lon="15.352745"><ele>818.0</ele><time>2026-03-28T08:59:05.493Z</time></trkpt><trkpt lat="40.9751533" lon="15.3528483"><ele>818.0</ele><time>2026-03-28T08:59:07.492Z</time></trkpt><trkpt lat="40.9752183" lon="15.3529"><ele>818.0000000000001</ele><time>2026-03-28T08:59:09.492Z</time></trkpt><trkpt lat="40.9753167" lon="15.3528467"><ele>818.0</ele><time>2026-03-28T08:59:11.493Z</time></trkpt><trkpt lat="40.9753767" lon="15.35279"><ele>818.6666666666667</ele><time>2026-03-28T08:59:12.493Z</time></trkpt><trkpt lat="40.975435" lon="15.35273"><ele>819.3333333333334</ele><time>2026-03-28T08:59:13.492Z</time></trkpt><trkpt lat="40.9754967" lon="15.3526717"><ele>820.0</ele><time>2026-03-28T08:59:14.493Z</time></trkpt><trkpt lat="40.9755633" lon="15.3526033"><ele>820.6666666666667</ele><time>2026-03-28T08:59:15.493Z</time></trkpt><trkpt lat="40.9756383" lon="15.3525283"><ele>821.3333333333334</ele><time>2026-03-28T08:59:16.493Z</time></trkpt><trkpt lat="40.9757117" lon="15.352455"><ele>822.0</ele><time>2026-03-28T08:59:17.493Z</time></trkpt><trkpt lat="40.9757867" lon="15.3523833"><ele>822.2</ele><time>2026-03-28T08:59:18.493Z</time></trkpt><trkpt lat="40.9758767" lon="15.3522967"><ele>822.4000000000001</ele><time>2026-03-28T08:59:19.492Z</time></trkpt><trkpt lat="40.9759667" lon="15.352215"><ele>822.5999999999999</ele><time>2026-03-28T08:59:20.492Z</time></trkpt><trkpt lat="40.9760533" lon="15.35214"><ele>822.8</ele><time>2026-03-28T08:59:21.493Z</time></trkpt><trkpt lat="40.976135" lon="15.352065"><ele>823.0</ele><time>2026-03-28T08:59:22.492Z</time></trkpt><trkpt lat="40.9762233" lon="15.351995"><ele>822.4</ele><time>2026-03-28T08:59:23.493Z</time></trkpt><trkpt lat="40.976315" lon="15.3519183"><ele>821.8</ele><time>2026-03-28T08:59:24.492Z</time></trkpt><trkpt lat="40.9764" lon="15.3518483"><ele>821.2</ele><time>2026-03-28T08:59:25.493Z</time></trkpt><trkpt lat="40.9764867" lon="15.351775"><ele>820.6</ele><time>2026-03-28T08:59:26.493Z</time></trkpt><trkpt lat="40.9765717" lon="15.35169"><ele>820.0</ele><time>2026-03-28T08:59:27.492Z</time></trkpt><trkpt lat="40.9766583" lon="15.3516067"><ele>821.2</ele><time>2026-03-28T08:59:28.493Z</time></trkpt><trkpt lat="40.9767333" lon="15.3515267"><ele>822.4</ele><time>2026-03-28T08:59:29.492Z</time></trkpt><trkpt lat="40.9768033" lon="15.35146"><ele>823.5999999999999</ele><time>2026-03-28T08:59:30.493Z</time></trkpt><trkpt lat="40.9768617" lon="15.351405"><ele>824.8</ele><time>2026-03-28T08:59:31.492Z</time></trkpt><trkpt lat="40.9769533" lon="15.3513617"><ele>826.0</ele><time>2026-03-28T08:59:33.493Z</time></trkpt><trkpt lat="40.9770533" lon="15.3514267"><ele>826.0</ele><time>2026-03-28T08:59:35.492Z</time></trkpt><trkpt lat="40.9771" lon="15.3514967"><ele>826.0</ele><time>2026-03-28T08:59:36.493Z</time></trkpt><trkpt lat="40.977155" lon="15.3515883"><ele>826.0</ele><time>2026-03-28T08:59:37.492Z</time></trkpt><trkpt lat="40.9772117" lon="15.35169"><ele>826.0</ele><time>2026-03-28T08:59:38.493Z</time></trkpt><trkpt lat="40.977275" lon="15.3518017"><ele>826.0</ele><time>2026-03-28T08:59:39.492Z</time></trkpt><trkpt lat="40.9773433" lon="15.3519067"><ele>826.0</ele><time>2026-03-28T08:59:40.493Z</time></trkpt><trkpt lat="40.9774183" lon="15.352015"><ele>826.0</ele><time>2026-03-28T08:59:41.493Z</time></trkpt><trkpt lat="40.9775" lon="15.3521317"><ele>826.0</ele><time>2026-03-28T08:59:42.492Z</time></trkpt><trkpt lat="40.9775817" lon="15.3522533"><ele>826.0</ele><time>2026-03-28T08:59:43.492Z</time></trkpt><trkpt lat="40.9776583" lon="15.3523683"><ele>826.4</ele><time>2026-03-28T08:59:44.492Z</time></trkpt><trkpt lat="40.977725" lon="15.3524683"><ele>826.8</ele><time>2026-03-28T08:59:45.493Z</time></trkpt><trkpt lat="40.97779" lon="15.3525567"><ele>827.1999999999999</ele><time>2026-03-28T08:59:46.493Z</time></trkpt><trkpt lat="40.9778617" lon="15.3526467"><ele>827.5999999999999</ele><time>2026-03-28T08:59:47.493Z</time></trkpt><trkpt lat="40.9779383" lon="15.35273"><ele>828.0</ele><time>2026-03-28T08:59:48.492Z</time></trkpt><trkpt lat="40.9780083" lon="15.3528"><ele>828.0</ele><time>2026-03-28T08:59:49.492Z</time></trkpt><trkpt lat="40.9780733" lon="15.3528567"><ele>828.0</ele><time>2026-03-28T08:59:50.493Z</time></trkpt><trkpt lat="40.9781683" lon="15.3529433"><ele>828.0</ele><time>2026-03-28T08:59:52.493Z</time></trkpt><trkpt lat="40.9782383" lon="15.3530233"><ele>828.0</ele><time>2026-03-28T08:59:54.493Z</time></trkpt><trkpt lat="40.978275" lon="15.353105"><ele>828.0</ele><time>2026-03-28T08:59:56.493Z</time></trkpt><trkpt lat="40.9782817" lon="15.35322"><ele>828.0</ele><time>2026-03-28T08:59:58.493Z</time></trkpt><trkpt lat="40.9782717" lon="15.353365"><ele>827.3333333333334</ele><time>2026-03-28T09:00:00.492Z</time></trkpt><trkpt lat="40.97826" lon="15.3534567"><ele>826.6666666666667</ele><time>2026-03-28T09:00:01.493Z</time></trkpt><trkpt lat="40.9782483" lon="15.35356"><ele>826.0</ele><time>2026-03-28T09:00:02.493Z</time></trkpt><trkpt lat="40.9782267" lon="15.35367"><ele>825.3333333333334</ele><time>2026-03-28T09:00:03.492Z</time></trkpt><trkpt lat="40.9782033" lon="15.353785"><ele>824.6666666666667</ele><time>2026-03-28T09:00:04.492Z</time></trkpt><trkpt lat="40.978185" lon="15.3538817"><ele>824.0</ele><time>2026-03-28T09:00:05.492Z</time></trkpt><trkpt lat="40.978165" lon="15.3539783"><ele>823.6666666666667</ele><time>2026-03-28T09:00:06.493Z</time></trkpt><trkpt lat="40.97814" lon="15.354075"><ele>823.3333333333334</ele><time>2026-03-28T09:00:07.493Z</time></trkpt><trkpt lat="40.9781117" lon="15.35417"><ele>823.0</ele><time>2026-03-28T09:00:08.492Z</time></trkpt><trkpt lat="40.97809" lon="15.3542783"><ele>822.6666666666667</ele><time>2026-03-28T09:00:09.493Z</time></trkpt><trkpt lat="40.9780733" lon="15.3543883"><ele>822.3333333333334</ele><time>2026-03-28T09:00:10.493Z</time></trkpt><trkpt lat="40.9780583" lon="15.3545"><ele>822.0</ele><time>2026-03-28T09:00:11.493Z</time></trkpt><trkpt lat="40.9780367" lon="15.3546183"><ele>822.5</ele><time>2026-03-28T09:00:12.492Z</time></trkpt><trkpt lat="40.9780133" lon="15.3547367"><ele>823.0</ele><time>2026-03-28T09:00:13.492Z</time></trkpt><trkpt lat="40.977995" lon="15.3548533"><ele>823.5</ele><time>2026-03-28T09:00:14.492Z</time></trkpt><trkpt lat="40.97798" lon="15.3549567"><ele>824.0</ele><time>2026-03-28T09:00:15.493Z</time></trkpt><trkpt lat="40.9779767" lon="15.3550483"><ele>824.5</ele><time>2026-03-28T09:00:16.493Z</time></trkpt><trkpt lat="40.9779733" lon="15.3551383"><ele>825.0</ele><time>2026-03-28T09:00:17.493Z</time></trkpt><trkpt lat="40.977965" lon="15.35523"><ele>825.0</ele><time>2026-03-28T09:00:18.492Z</time></trkpt><trkpt lat="40.9779617" lon="15.3553183"><ele>825.0</ele><time>2026-03-28T09:00:19.492Z</time></trkpt><trkpt lat="40.977955" lon="15.3554067"><ele>825.0</ele><time>2026-03-28T09:00:20.492Z</time></trkpt><trkpt lat="40.97794" lon="15.3554917"><ele>825.0</ele><time>2026-03-28T09:00:21.493Z</time></trkpt><trkpt lat="40.9779267" lon="15.3555883"><ele>825.0</ele><time>2026-03-28T09:00:22.492Z</time></trkpt><trkpt lat="40.9779167" lon="15.3556883"><ele>825.0</ele><time>2026-03-28T09:00:23.492Z</time></trkpt><trkpt lat="40.9779033" lon="15.3557867"><ele>825.0</ele><time>2026-03-28T09:00:24.493Z</time></trkpt><trkpt lat="40.9778917" lon="15.35588"><ele>825.4285714285714</ele><time>2026-03-28T09:00:25.492Z</time></trkpt><trkpt lat="40.97788" lon="15.3559733"><ele>825.8571428571429</ele><time>2026-03-28T09:00:26.493Z</time></trkpt><trkpt lat="40.9778717" lon="15.356065"><ele>826.2857142857143</ele><time>2026-03-28T09:00:27.493Z</time></trkpt><trkpt lat="40.9778617" lon="15.3561517"><ele>826.7142857142858</ele><time>2026-03-28T09:00:28.492Z</time></trkpt><trkpt lat="40.977855" lon="15.3562417"><ele>827.1428571428571</ele><time>2026-03-28T09:00:29.492Z</time></trkpt><trkpt lat="40.977845" lon="15.3563367"><ele>827.5714285714287</ele><time>2026-03-28T09:00:30.492Z</time></trkpt><trkpt lat="40.9778383" lon="15.3564283"><ele>828.0</ele><time>2026-03-28T09:00:31.493Z</time></trkpt><trkpt lat="40.97783" lon="15.3565183"><ele>828.1666666666666</ele><time>2026-03-28T09:00:32.492Z</time></trkpt><trkpt lat="40.9778233" lon="15.3566083"><ele>828.3333333333333</ele><time>2026-03-28T09:00:33.492Z</time></trkpt><trkpt lat="40.97781" lon="15.356695"><ele>828.5</ele><time>2026-03-28T09:00:34.493Z</time></trkpt><trkpt lat="40.977795" lon="15.3567983"><ele>828.6666666666666</ele><time>2026-03-28T09:00:35.493Z</time></trkpt><trkpt lat="40.9777817" lon="15.356915"><ele>828.8333333333333</ele><time>2026-03-28T09:00:36.493Z</time></trkpt><trkpt lat="40.9777683" lon="15.3570317"><ele>829.0</ele><time>2026-03-28T09:00:37.493Z</time></trkpt><trkpt lat="40.9777567" lon="15.357155"><ele>829.1666666666666</ele><time>2026-03-28T09:00:38.493Z</time></trkpt><trkpt lat="40.977745" lon="15.3572717"><ele>829.3333333333333</ele><time>2026-03-28T09:00:39.493Z</time></trkpt><trkpt lat="40.9777367" lon="15.357385"><ele>829.5</ele><time>2026-03-28T09:00:40.493Z</time></trkpt><trkpt lat="40.9777317" lon="15.35749"><ele>829.6666666666667</ele><time>2026-03-28T09:00:41.492Z</time></trkpt><trkpt lat="40.9777233" lon="15.3576"><ele>829.8333333333334</ele><time>2026-03-28T09:00:42.493Z</time></trkpt><trkpt lat="40.9777217" lon="15.3577233"><ele>830.0</ele><time>2026-03-28T09:00:43.492Z</time></trkpt><trkpt lat="40.977725" lon="15.35784"><ele>830.0</ele><time>2026-03-28T09:00:44.492Z</time></trkpt><trkpt lat="40.9777283" lon="15.35796"><ele>830.0</ele><time>2026-03-28T09:00:45.493Z</time></trkpt><trkpt lat="40.9777317" lon="15.3580867"><ele>830.0</ele><time>2026-03-28T09:00:46.492Z</time></trkpt><trkpt lat="40.97773" lon="15.3582117"><ele>830.0</ele><time>2026-03-28T09:00:47.493Z</time></trkpt><trkpt lat="40.9777283" lon="15.3583367"><ele>830.0</ele><time>2026-03-28T09:00:48.492Z</time></trkpt><trkpt lat="40.9777283" lon="15.3584667"><ele>829.8</ele><time>2026-03-28T09:00:49.493Z</time></trkpt><trkpt lat="40.9777333" lon="15.3586067"><ele>829.6</ele><time>2026-03-28T09:00:50.493Z</time></trkpt><trkpt lat="40.9777333" lon="15.3587517"><ele>829.4000000000001</ele><time>2026-03-28T09:00:51.493Z</time></trkpt><trkpt lat="40.9777317" lon="15.3588917"><ele>829.2</ele><time>2026-03-28T09:00:52.492Z</time></trkpt><trkpt lat="40.9777317" lon="15.3590233"><ele>829.0</ele><time>2026-03-28T09:00:53.493Z</time></trkpt><trkpt lat="40.9777367" lon="15.3591533"><ele>829.6</ele><time>2026-03-28T09:00:54.493Z</time></trkpt><trkpt lat="40.977735" lon="15.3592667"><ele>830.2</ele><time>2026-03-28T09:00:55.493Z</time></trkpt><trkpt lat="40.9777467" lon="15.359385"><ele>830.8000000000001</ele><time>2026-03-28T09:00:56.493Z</time></trkpt><trkpt lat="40.9777667" lon="15.3595"><ele>831.4000000000001</ele><time>2026-03-28T09:00:57.493Z</time></trkpt><trkpt lat="40.977795" lon="15.3596167"><ele>832.0</ele><time>2026-03-28T09:00:58.492Z</time></trkpt><trkpt lat="40.9778117" lon="15.3597383"><ele>832.6</ele><time>2026-03-28T09:00:59.492Z</time></trkpt><trkpt lat="40.9778317" lon="15.3598683"><ele>833.2</ele><time>2026-03-28T09:01:00.492Z</time></trkpt><trkpt lat="40.9778367" lon="15.3600017"><ele>833.8</ele><time>2026-03-28T09:01:01.493Z</time></trkpt><trkpt lat="40.977835" lon="15.3601267"><ele>834.4</ele><time>2026-03-28T09:01:02.493Z</time></trkpt><trkpt lat="40.97783" lon="15.3602567"><ele>835.0</ele><time>2026-03-28T09:01:03.493Z</time></trkpt><trkpt lat="40.9778217" lon="15.36039"><ele>835.0</ele><time>2026-03-28T09:01:04.492Z</time></trkpt><trkpt lat="40.97781" lon="15.360525"><ele>835.0</ele><time>2026-03-28T09:01:05.492Z</time></trkpt><trkpt lat="40.9778" lon="15.3606617"><ele>835.0</ele><time>2026-03-28T09:01:06.492Z</time></trkpt><trkpt lat="40.9777933" lon="15.36079"><ele>835.0</ele><time>2026-03-28T09:01:07.493Z</time></trkpt><trkpt lat="40.9777833" lon="15.36092"><ele>835.0</ele><time>2026-03-28T09:01:08.492Z</time></trkpt><trkpt lat="40.9777733" lon="15.3610517"><ele>835.3333333333333</ele><time>2026-03-28T09:01:09.493Z</time></trkpt><trkpt lat="40.977765" lon="15.36118"><ele>835.6666666666666</ele><time>2026-03-28T09:01:10.492Z</time></trkpt><trkpt lat="40.9777567" lon="15.3612967"><ele>836.0</ele><time>2026-03-28T09:01:11.492Z</time></trkpt><trkpt lat="40.9777467" lon="15.361405"><ele>836.3333333333333</ele><time>2026-03-28T09:01:12.493Z</time></trkpt><trkpt lat="40.9777333" lon="15.36152"><ele>836.6666666666666</ele><time>2026-03-28T09:01:13.493Z</time></trkpt><trkpt lat="40.9777183" lon="15.3616383"><ele>837.0</ele><time>2026-03-28T09:01:14.492Z</time></trkpt><trkpt lat="40.9777067" lon="15.3617433"><ele>837.4000000000001</ele><time>2026-03-28T09:01:15.493Z</time></trkpt><trkpt lat="40.9776983" lon="15.3618367"><ele>837.8000000000001</ele><time>2026-03-28T09:01:16.493Z</time></trkpt><trkpt lat="40.9776867" lon="15.3619917"><ele>838.2</ele><time>2026-03-28T09:01:18.492Z</time></trkpt><trkpt lat="40.97769" lon="15.3621283"><ele>838.6</ele><time>2026-03-28T09:01:20.493Z</time></trkpt><trkpt lat="40.97773" lon="15.3622317"><ele>839.0</ele><time>2026-03-28T09:01:22.493Z</time></trkpt><trkpt lat="40.9778233" lon="15.3622983"><ele>839.1666666666667</ele><time>2026-03-28T09:01:24.493Z</time></trkpt><trkpt lat="40.977945" lon="15.3623317"><ele>839.3333333333334</ele><time>2026-03-28T09:01:26.493Z</time></trkpt><trkpt lat="40.978015" lon="15.362345"><ele>839.5</ele><time>2026-03-28T09:01:27.492Z</time></trkpt><trkpt lat="40.9780883" lon="15.3623467"><ele>839.6666666666667</ele><time>2026-03-28T09:01:28.492Z</time></trkpt><trkpt lat="40.97817" lon="15.362355"><ele>839.8333333333334</ele><time>2026-03-28T09:01:29.492Z</time></trkpt><trkpt lat="40.9782617" lon="15.362365"><ele>840.0</ele><time>2026-03-28T09:01:30.493Z</time></trkpt><trkpt lat="40.9783567" lon="15.36238"><ele>840.4</ele><time>2026-03-28T09:01:31.493Z</time></trkpt><trkpt lat="40.9784617" lon="15.3623967"><ele>840.8</ele><time>2026-03-28T09:01:32.493Z</time></trkpt><trkpt lat="40.978565" lon="15.3624217"><ele>841.2</ele><time>2026-03-28T09:01:33.492Z</time></trkpt><trkpt lat="40.97866" lon="15.36245"><ele>841.6</ele><time>2026-03-28T09:01:34.493Z</time></trkpt><trkpt lat="40.9787583" lon="15.3624833"><ele>842.0</ele><time>2026-03-28T09:01:35.492Z</time></trkpt><trkpt lat="40.978855" lon="15.3625133"><ele>842.0</ele><time>2026-03-28T09:01:36.492Z</time></trkpt><trkpt lat="40.9789533" lon="15.3625483"><ele>842.0</ele><time>2026-03-28T09:01:37.492Z</time></trkpt><trkpt lat="40.9790617" lon="15.36258"><ele>842.0</ele><time>2026-03-28T09:01:38.493Z</time></trkpt><trkpt lat="40.97917" lon="15.3626183"><ele>842.0</ele><time>2026-03-28T09:01:39.492Z</time></trkpt><trkpt lat="40.9792667" lon="15.3626517"><ele>842.0</ele><time>2026-03-28T09:01:40.493Z</time></trkpt><trkpt lat="40.9793617" lon="15.3626883"><ele>842.2</ele><time>2026-03-28T09:01:41.493Z</time></trkpt><trkpt lat="40.9794567" lon="15.3627283"><ele>842.4000000000001</ele><time>2026-03-28T09:01:42.492Z</time></trkpt><trkpt lat="40.9795567" lon="15.3627717"><ele>842.5999999999999</ele><time>2026-03-28T09:01:43.493Z</time></trkpt><trkpt lat="40.9796667" lon="15.3628167"><ele>842.8</ele><time>2026-03-28T09:01:44.493Z</time></trkpt><trkpt lat="40.9797667" lon="15.3628683"><ele>843.0</ele><time>2026-03-28T09:01:45.493Z</time></trkpt><trkpt lat="40.979865" lon="15.3629167"><ele>843.0</ele><time>2026-03-28T09:01:46.492Z</time></trkpt><trkpt lat="40.9799583" lon="15.3629583"><ele>843.0</ele><time>2026-03-28T09:01:47.493Z</time></trkpt><trkpt lat="40.9800517" lon="15.36299"><ele>843.0</ele><time>2026-03-28T09:01:48.493Z</time></trkpt><trkpt lat="40.9801483" lon="15.36302"><ele>843.0</ele><time>2026-03-28T09:01:49.493Z</time></trkpt><trkpt lat="40.9802433" lon="15.3630417"><ele>843.0</ele><time>2026-03-28T09:01:50.493Z</time></trkpt><trkpt lat="40.980335" lon="15.3630567"><ele>843.2</ele><time>2026-03-28T09:01:51.493Z</time></trkpt><trkpt lat="40.98043" lon="15.363075"><ele>843.4</ele><time>2026-03-28T09:01:52.493Z</time></trkpt><trkpt lat="40.980515" lon="15.3630933"><ele>843.6</ele><time>2026-03-28T09:01:53.492Z</time></trkpt><trkpt lat="40.980605" lon="15.363115"><ele>843.8000000000001</ele><time>2026-03-28T09:01:54.492Z</time></trkpt><trkpt lat="40.9807017" lon="15.3631333"><ele>844.0</ele><time>2026-03-28T09:01:55.492Z</time></trkpt><trkpt lat="40.9807883" lon="15.3631517"><ele>844.1666666666666</ele><time>2026-03-28T09:01:56.493Z</time></trkpt><trkpt lat="40.9808717" lon="15.3631683"><ele>844.3333333333333</ele><time>2026-03-28T09:01:57.492Z</time></trkpt><trkpt lat="40.9809467" lon="15.3631883"><ele>844.5</ele><time>2026-03-28T09:01:58.493Z</time></trkpt><trkpt lat="40.9810183" lon="15.3632233"><ele>844.6666666666667</ele><time>2026-03-28T09:01:59.493Z</time></trkpt><trkpt lat="40.9810783" lon="15.3632717"><ele>844.8333333333334</ele><time>2026-03-28T09:02:00.492Z</time></trkpt><trkpt lat="40.98114" lon="15.3633383"><ele>845.0</ele><time>2026-03-28T09:02:01.493Z</time></trkpt><trkpt lat="40.981195" lon="15.3634333"><ele>845.0000000000001</ele><time>2026-03-28T09:02:02.493Z</time></trkpt><trkpt lat="40.98124" lon="15.3635367"><ele>845.0</ele><time>2026-03-28T09:02:03.492Z</time></trkpt><trkpt lat="40.9812783" lon="15.36363"><ele>845.0</ele><time>2026-03-28T09:02:04.493Z</time></trkpt><trkpt lat="40.9813133" lon="15.3637217"><ele>845.0</ele><time>2026-03-28T09:02:05.492Z</time></trkpt><trkpt lat="40.98135" lon="15.3638183"><ele>845.0000000000001</ele><time>2026-03-28T09:02:06.493Z</time></trkpt><trkpt lat="40.9813917" lon="15.36391"><ele>845.0</ele><time>2026-03-28T09:02:07.493Z</time></trkpt><trkpt lat="40.9814283" lon="15.3640083"><ele>844.6666666666667</ele><time>2026-03-28T09:02:08.492Z</time></trkpt><trkpt lat="40.9814683" lon="15.3641033"><ele>844.3333333333334</ele><time>2026-03-28T09:02:09.492Z</time></trkpt><trkpt lat="40.9815067" lon="15.3641917"><ele>844.0</ele><time>2026-03-28T09:02:10.492Z</time></trkpt><trkpt lat="40.9815433" lon="15.3642767"><ele>843.6666666666667</ele><time>2026-03-28T09:02:11.492Z</time></trkpt><trkpt lat="40.9815767" lon="15.3643633"><ele>843.3333333333334</ele><time>2026-03-28T09:02:12.492Z</time></trkpt><trkpt lat="40.981615" lon="15.36445"><ele>843.0</ele><time>2026-03-28T09:02:13.493Z</time></trkpt><trkpt lat="40.9816517" lon="15.3645433"><ele>843.0</ele><time>2026-03-28T09:02:14.493Z</time></trkpt><trkpt lat="40.9816883" lon="15.3646433"><ele>843.0</ele><time>2026-03-28T09:02:15.493Z</time></trkpt><trkpt lat="40.9817317" lon="15.3647317"><ele>843.0</ele><time>2026-03-28T09:02:16.493Z</time></trkpt><trkpt lat="40.9817717" lon="15.3648233"><ele>843.0</ele><time>2026-03-28T09:02:17.492Z</time></trkpt><trkpt lat="40.9818133" lon="15.36491"><ele>843.0</ele><time>2026-03-28T09:02:18.493Z</time></trkpt><trkpt lat="40.9818567" lon="15.3650017"><ele>843.0</ele><time>2026-03-28T09:02:19.493Z</time></trkpt><trkpt lat="40.981905" lon="15.3651033"><ele>842.5</ele><time>2026-03-28T09:02:20.493Z</time></trkpt><trkpt lat="40.981955" lon="15.3652133"><ele>842.0</ele><time>2026-03-28T09:02:21.493Z</time></trkpt><trkpt lat="40.982" lon="15.365325"><ele>841.5</ele><time>2026-03-28T09:02:22.492Z</time></trkpt><trkpt lat="40.982045" lon="15.3654233"><ele>841.0</ele><time>2026-03-28T09:02:23.493Z</time></trkpt><trkpt lat="40.982085" lon="15.3655183"><ele>840.5</ele><time>2026-03-28T09:02:24.493Z</time></trkpt><trkpt lat="40.9821217" lon="15.36561"><ele>840.0</ele><time>2026-03-28T09:02:25.492Z</time></trkpt><trkpt lat="40.9821583" lon="15.3656967"><ele>839.8</ele><time>2026-03-28T09:02:26.492Z</time></trkpt><trkpt lat="40.9821967" lon="15.365775"><ele>839.6</ele><time>2026-03-28T09:02:27.493Z</time></trkpt><trkpt lat="40.982235" lon="15.36585"><ele>839.4000000000001</ele><time>2026-03-28T09:02:28.493Z</time></trkpt><trkpt lat="40.9822683" lon="15.3659283"><ele>839.2</ele><time>2026-03-28T09:02:29.492Z</time></trkpt><trkpt lat="40.9823167" lon="15.366085"><ele>839.0</ele><time>2026-03-28T09:02:31.493Z</time></trkpt><trkpt lat="40.98232" lon="15.36624"><ele>839.1666666666667</ele><time>2026-03-28T09:02:33.493Z</time></trkpt><trkpt lat="40.982275" lon="15.36639"><ele>839.3333333333334</ele><time>2026-03-28T09:02:35.493Z</time></trkpt><trkpt lat="40.9822333" lon="15.366455"><ele>839.5</ele><time>2026-03-28T09:02:36.493Z</time></trkpt><trkpt lat="40.9821817" lon="15.3665217"><ele>839.6666666666667</ele><time>2026-03-28T09:02:37.492Z</time></trkpt><trkpt lat="40.9821283" lon="15.366585"><ele>839.8333333333334</ele><time>2026-03-28T09:02:38.492Z</time></trkpt><trkpt lat="40.9820633" lon="15.3666617"><ele>840.0</ele><time>2026-03-28T09:02:39.493Z</time></trkpt><trkpt lat="40.9819967" lon="15.3667417"><ele>840.0</ele><time>2026-03-28T09:02:40.493Z</time></trkpt><trkpt lat="40.9819267" lon="15.3668183"><ele>840.0</ele><time>2026-03-28T09:02:41.493Z</time></trkpt><trkpt lat="40.9818517" lon="15.3669017"><ele>840.0</ele><time>2026-03-28T09:02:42.493Z</time></trkpt><trkpt lat="40.981775" lon="15.3669967"><ele>840.0</ele><time>2026-03-28T09:02:43.492Z</time></trkpt><trkpt lat="40.9817033" lon="15.367095"><ele>840.0</ele><time>2026-03-28T09:02:44.493Z</time></trkpt><trkpt lat="40.98164" lon="15.36719"><ele>840.4</ele><time>2026-03-28T09:02:45.493Z</time></trkpt><trkpt lat="40.9815717" lon="15.3672767"><ele>840.8</ele><time>2026-03-28T09:02:46.492Z</time></trkpt><trkpt lat="40.9815017" lon="15.3673717"><ele>841.2</ele><time>2026-03-28T09:02:47.493Z</time></trkpt><trkpt lat="40.9814383" lon="15.3674733"><ele>841.6</ele><time>2026-03-28T09:02:48.493Z</time></trkpt><trkpt lat="40.9813683" lon="15.36756"><ele>842.0</ele><time>2026-03-28T09:02:49.492Z</time></trkpt><trkpt lat="40.9813" lon="15.3676467"><ele>842.0</ele><time>2026-03-28T09:02:50.493Z</time></trkpt><trkpt lat="40.9812267" lon="15.3677267"><ele>842.0</ele><time>2026-03-28T09:02:51.493Z</time></trkpt><trkpt lat="40.981155" lon="15.3678033"><ele>842.0</ele><time>2026-03-28T09:02:52.493Z</time></trkpt><trkpt lat="40.9810833" lon="15.367875"><ele>842.0</ele><time>2026-03-28T09:02:53.492Z</time></trkpt><trkpt lat="40.9810117" lon="15.3679467"><ele>842.0</ele><time>2026-03-28T09:02:54.492Z</time></trkpt><trkpt lat="40.9809417" lon="15.368025"><ele>842.1666666666667</ele><time>2026-03-28T09:02:55.493Z</time></trkpt><trkpt lat="40.9808783" lon="15.368095"><ele>842.3333333333334</ele><time>2026-03-28T09:02:56.493Z</time></trkpt><trkpt lat="40.980815" lon="15.3681717"><ele>842.5</ele><time>2026-03-28T09:02:57.493Z</time></trkpt><trkpt lat="40.9807483" lon="15.368245"><ele>842.6666666666667</ele><time>2026-03-28T09:02:58.493Z</time></trkpt><trkpt lat="40.9806867" lon="15.3683283"><ele>842.8333333333334</ele><time>2026-03-28T09:02:59.493Z</time></trkpt><trkpt lat="40.9806267" lon="15.3684117"><ele>843.0</ele><time>2026-03-28T09:03:00.493Z</time></trkpt><trkpt lat="40.9805667" lon="15.3685"><ele>843.0</ele><time>2026-03-28T09:03:01.492Z</time></trkpt><trkpt lat="40.98051" lon="15.3685883"><ele>843.0</ele><time>2026-03-28T09:03:02.493Z</time></trkpt><trkpt lat="40.9804617" lon="15.3686783"><ele>843.0</ele><time>2026-03-28T09:03:03.492Z</time></trkpt><trkpt lat="40.9804133" lon="15.368765"><ele>843.0</ele><time>2026-03-28T09:03:04.493Z</time></trkpt><trkpt lat="40.9803667" lon="15.3688617"><ele>843.0</ele><time>2026-03-28T09:03:05.493Z</time></trkpt><trkpt lat="40.9803083" lon="15.36897"><ele>843.0</ele><time>2026-03-28T09:03:06.492Z</time></trkpt><trkpt lat="40.980245" lon="15.3690683"><ele>843.4</ele><time>2026-03-28T09:03:07.492Z</time></trkpt><trkpt lat="40.9801933" lon="15.3691633"><ele>843.8</ele><time>2026-03-28T09:03:08.493Z</time></trkpt><trkpt lat="40.9801383" lon="15.3692567"><ele>844.2</ele><time>2026-03-28T09:03:09.492Z</time></trkpt><trkpt lat="40.9800767" lon="15.3693483"><ele>844.6</ele><time>2026-03-28T09:03:10.492Z</time></trkpt><trkpt lat="40.9800083" lon="15.3694467"><ele>845.0</ele><time>2026-03-28T09:03:11.492Z</time></trkpt><trkpt lat="40.9799367" lon="15.3695483"><ele>844.2</ele><time>2026-03-28T09:03:12.492Z</time></trkpt><trkpt lat="40.9798683" lon="15.3696467"><ele>843.4</ele><time>2026-03-28T09:03:13.493Z</time></trkpt><trkpt lat="40.9798033" lon="15.3697433"><ele>842.5999999999999</ele><time>2026-03-28T09:03:14.493Z</time></trkpt><trkpt lat="40.9797367" lon="15.3698517"><ele>841.8</ele><time>2026-03-28T09:03:15.493Z</time></trkpt><trkpt lat="40.97967" lon="15.3699567"><ele>841.0</ele><time>2026-03-28T09:03:16.493Z</time></trkpt><trkpt lat="40.97961" lon="15.37006"><ele>841.0</ele><time>2026-03-28T09:03:17.492Z</time></trkpt><trkpt lat="40.9795567" lon="15.3701583"><ele>841.0</ele><time>2026-03-28T09:03:18.493Z</time></trkpt><trkpt lat="40.9794933" lon="15.3702717"><ele>841.0</ele><time>2026-03-28T09:03:19.492Z</time></trkpt><trkpt lat="40.9794267" lon="15.37038"><ele>841.0</ele><time>2026-03-28T09:03:20.492Z</time></trkpt><trkpt lat="40.9793683" lon="15.370485"><ele>841.0</ele><time>2026-03-28T09:03:21.493Z</time></trkpt><trkpt lat="40.9793167" lon="15.3705917"><ele>840.8</ele><time>2026-03-28T09:03:22.493Z</time></trkpt><trkpt lat="40.9792667" lon="15.370705"><ele>840.5999999999999</ele><time>2026-03-28T09:03:23.493Z</time></trkpt><trkpt lat="40.9792067" lon="15.3708183"><ele>840.4</ele><time>2026-03-28T09:03:24.492Z</time></trkpt><trkpt lat="40.9791467" lon="15.3709317"><ele>840.2</ele><time>2026-03-28T09:03:25.492Z</time></trkpt><trkpt lat="40.9790883" lon="15.37104"><ele>840.0</ele><time>2026-03-28T09:03:26.493Z</time></trkpt><trkpt lat="40.979025" lon="15.3711383"><ele>840.0</ele><time>2026-03-28T09:03:27.493Z</time></trkpt><trkpt lat="40.9789633" lon="15.3712433"><ele>840.0</ele><time>2026-03-28T09:03:28.493Z</time></trkpt><trkpt lat="40.9788983" lon="15.37135"><ele>840.0</ele><time>2026-03-28T09:03:29.493Z</time></trkpt><trkpt lat="40.9788383" lon="15.3714483"><ele>840.0</ele><time>2026-03-28T09:03:30.494Z</time></trkpt><trkpt lat="40.9787867" lon="15.3715317"><ele>840.0</ele><time>2026-03-28T09:03:31.494Z</time></trkpt><trkpt lat="40.978745" lon="15.3716033"><ele>840.0</ele><time>2026-03-28T09:03:32.493Z</time></trkpt><trkpt lat="40.978705" lon="15.3716783"><ele>839.8333333333334</ele><time>2026-03-28T09:03:33.494Z</time></trkpt><trkpt lat="40.978665" lon="15.371755"><ele>839.6666666666667</ele><time>2026-03-28T09:03:34.493Z</time></trkpt><trkpt lat="40.9786183" lon="15.3718333"><ele>839.5</ele><time>2026-03-28T09:03:35.493Z</time></trkpt><trkpt lat="40.9785667" lon="15.3719167"><ele>839.3333333333334</ele><time>2026-03-28T09:03:36.493Z</time></trkpt><trkpt lat="40.9785133" lon="15.371995"><ele>839.1666666666667</ele><time>2026-03-28T09:03:37.494Z</time></trkpt><trkpt lat="40.978455" lon="15.3720783"><ele>839.0</ele><time>2026-03-28T09:03:38.493Z</time></trkpt><trkpt lat="40.97839" lon="15.3721617"><ele>838.2</ele><time>2026-03-28T09:03:39.494Z</time></trkpt><trkpt lat="40.9783183" lon="15.3722467"><ele>837.4000000000001</ele><time>2026-03-28T09:03:40.493Z</time></trkpt><trkpt lat="40.9782417" lon="15.3723183"><ele>836.6</ele><time>2026-03-28T09:03:41.493Z</time></trkpt><trkpt lat="40.9781667" lon="15.3723983"><ele>835.8</ele><time>2026-03-28T09:03:42.494Z</time></trkpt><trkpt lat="40.9780867" lon="15.372475"><ele>835.0</ele><time>2026-03-28T09:03:43.494Z</time></trkpt><trkpt lat="40.978" lon="15.3725617"><ele>835.0</ele><time>2026-03-28T09:03:44.494Z</time></trkpt><trkpt lat="40.9779183" lon="15.3726417"><ele>835.0</ele><time>2026-03-28T09:03:45.493Z</time></trkpt><trkpt lat="40.9778317" lon="15.3727183"><ele>835.0</ele><time>2026-03-28T09:03:46.493Z</time></trkpt><trkpt lat="40.9777483" lon="15.3727833"><ele>835.0</ele><time>2026-03-28T09:03:47.494Z</time></trkpt><trkpt lat="40.97767" lon="15.3728533"><ele>835.0</ele><time>2026-03-28T09:03:48.493Z</time></trkpt><trkpt lat="40.97759" lon="15.3729133"><ele>834.6666666666666</ele><time>2026-03-28T09:03:49.494Z</time></trkpt><trkpt lat="40.9775083" lon="15.3729817"><ele>834.3333333333333</ele><time>2026-03-28T09:03:50.493Z</time></trkpt><trkpt lat="40.9774333" lon="15.37305"><ele>834.0</ele><time>2026-03-28T09:03:51.493Z</time></trkpt><trkpt lat="40.977365" lon="15.3730967"><ele>833.6666666666667</ele><time>2026-03-28T09:03:52.494Z</time></trkpt><trkpt lat="40.9773067" lon="15.3731517"><ele>833.3333333333334</ele><time>2026-03-28T09:03:53.493Z</time></trkpt><trkpt lat="40.977235" lon="15.3732417"><ele>833.0</ele><time>2026-03-28T09:03:55.494Z</time></trkpt><trkpt lat="40.977265" lon="15.3733367"><ele>833.0000000000001</ele><time>2026-03-28T09:03:58.493Z</time></trkpt><trkpt lat="40.9773767" lon="15.373355"><ele>833.0</ele><time>2026-03-28T09:04:00.494Z</time></trkpt><trkpt lat="40.9774433" lon="15.3733733"><ele>833.0</ele><time>2026-03-28T09:04:01.494Z</time></trkpt><trkpt lat="40.9775167" lon="15.3734067"><ele>833.0</ele><time>2026-03-28T09:04:02.494Z</time></trkpt><trkpt lat="40.9775933" lon="15.3734567"><ele>833.0000000000001</ele><time>2026-03-28T09:04:03.494Z</time></trkpt><trkpt lat="40.977675" lon="15.3735183"><ele>833.0</ele><time>2026-03-28T09:04:04.494Z</time></trkpt><trkpt lat="40.9777633" lon="15.3735733"><ele>833.0</ele><time>2026-03-28T09:04:05.494Z</time></trkpt><trkpt lat="40.9778533" lon="15.3736283"><ele>833.0</ele><time>2026-03-28T09:04:06.494Z</time></trkpt><trkpt lat="40.977945" lon="15.3736867"><ele>833.0</ele><time>2026-03-28T09:04:07.493Z</time></trkpt><trkpt lat="40.9780367" lon="15.3737433"><ele>833.0</ele><time>2026-03-28T09:04:08.493Z</time></trkpt><trkpt lat="40.97813" lon="15.3738017"><ele>833.0</ele><time>2026-03-28T09:04:09.493Z</time></trkpt><trkpt lat="40.9782217" lon="15.3738583"><ele>832.4</ele><time>2026-03-28T09:04:10.494Z</time></trkpt><trkpt lat="40.9783133" lon="15.3739117"><ele>831.8</ele><time>2026-03-28T09:04:11.494Z</time></trkpt><trkpt lat="40.9784033" lon="15.3739683"><ele>831.2</ele><time>2026-03-28T09:04:12.493Z</time></trkpt><trkpt lat="40.9784967" lon="15.37402"><ele>830.6</ele><time>2026-03-28T09:04:13.493Z</time></trkpt><trkpt lat="40.9785917" lon="15.37407"><ele>830.0</ele><time>2026-03-28T09:04:14.494Z</time></trkpt><trkpt lat="40.9786817" lon="15.3741183"><ele>829.4</ele><time>2026-03-28T09:04:15.493Z</time></trkpt><trkpt lat="40.97878" lon="15.3741633"><ele>828.8</ele><time>2026-03-28T09:04:16.493Z</time></trkpt><trkpt lat="40.9788818" lon="15.3742105"><ele>828.2</ele><time>2026-03-28T09:04:17.494Z</time></trkpt><trkpt lat="40.9789811" lon="15.374254"><ele>827.6</ele><time>2026-03-28T09:04:18.494Z</time></trkpt><trkpt lat="40.9790853" lon="15.3742996"><ele>827.0</ele><time>2026-03-28T09:04:19.494Z</time></trkpt><trkpt lat="40.9791806" lon="15.3743384"><ele>826.6</ele><time>2026-03-28T09:04:20.493Z</time></trkpt><trkpt lat="40.9792708" lon="15.3743763"><ele>826.2</ele><time>2026-03-28T09:04:21.493Z</time></trkpt><trkpt lat="40.9793595" lon="15.3744122"><ele>825.8</ele><time>2026-03-28T09:04:22.494Z</time></trkpt><trkpt lat="40.979447" lon="15.3744516"><ele>825.4</ele><time>2026-03-28T09:04:23.494Z</time></trkpt><trkpt lat="40.9795327" lon="15.3744974"><ele>825.0</ele><time>2026-03-28T09:04:24.493Z</time></trkpt><trkpt lat="40.9796176" lon="15.3745438"><ele>825.0</ele><time>2026-03-28T09:04:25.494Z</time></trkpt><trkpt lat="40.9797102" lon="15.3745855"><ele>825.0</ele><time>2026-03-28T09:04:26.493Z</time></trkpt><trkpt lat="40.9798061" lon="15.3746159"><ele>825.0</ele><time>2026-03-28T09:04:27.493Z</time></trkpt><trkpt lat="40.9799074" lon="15.3746391"><ele>825.0</ele><time>2026-03-28T09:04:28.494Z</time></trkpt><trkpt lat="40.9800151" lon="15.3746578"><ele>825.0</ele><time>2026-03-28T09:04:29.494Z</time></trkpt><trkpt lat="40.9801183" lon="15.3746726"><ele>824.0</ele><time>2026-03-28T09:04:30.493Z</time></trkpt><trkpt lat="40.9802245" lon="15.3746877"><ele>823.0</ele><time>2026-03-28T09:04:31.494Z</time></trkpt><trkpt lat="40.9803329" lon="15.3747073"><ele>822.0</ele><time>2026-03-28T09:04:32.493Z</time></trkpt><trkpt lat="40.9804379" lon="15.3747257"><ele>821.0</ele><time>2026-03-28T09:04:33.493Z</time></trkpt><trkpt lat="40.9805401" lon="15.3747456"><ele>820.0</ele><time>2026-03-28T09:04:34.494Z</time></trkpt><trkpt lat="40.9806353" lon="15.3747628"><ele>818.8</ele><time>2026-03-28T09:04:35.493Z</time></trkpt><trkpt lat="40.9807283" lon="15.3747814"><ele>817.6</ele><time>2026-03-28T09:04:36.493Z</time></trkpt><trkpt lat="40.980815" lon="15.374796"><ele>816.4000000000001</ele><time>2026-03-28T09:04:37.493Z</time></trkpt><trkpt lat="40.9809033" lon="15.3748133"><ele>815.2</ele><time>2026-03-28T09:04:38.494Z</time></trkpt><trkpt lat="40.980995" lon="15.37483"><ele>814.0</ele><time>2026-03-28T09:04:39.493Z</time></trkpt><trkpt lat="40.981085" lon="15.37484"><ele>813.4000000000001</ele><time>2026-03-28T09:04:40.494Z</time></trkpt><trkpt lat="40.98118" lon="15.3748433"><ele>812.8</ele><time>2026-03-28T09:04:41.493Z</time></trkpt><trkpt lat="40.9812733" lon="15.37485"><ele>812.2</ele><time>2026-03-28T09:04:42.493Z</time></trkpt><trkpt lat="40.9813633" lon="15.37485"><ele>811.5999999999999</ele><time>2026-03-28T09:04:43.493Z</time></trkpt><trkpt lat="40.9814583" lon="15.3748517"><ele>811.0</ele><time>2026-03-28T09:04:44.493Z</time></trkpt><trkpt lat="40.9815617" lon="15.374855"><ele>811.0</ele><time>2026-03-28T09:04:45.494Z</time></trkpt><trkpt lat="40.9816683" lon="15.37486"><ele>811.0</ele><time>2026-03-28T09:04:46.494Z</time></trkpt><trkpt lat="40.98178" lon="15.37487"><ele>811.0</ele><time>2026-03-28T09:04:47.493Z</time></trkpt><trkpt lat="40.9819017" lon="15.3748833"><ele>811.0</ele><time>2026-03-28T09:04:48.494Z</time></trkpt><trkpt lat="40.9820167" lon="15.374895"><ele>810.5999999999999</ele><time>2026-03-28T09:04:49.493Z</time></trkpt><trkpt lat="40.9821267" lon="15.3749067"><ele>810.2</ele><time>2026-03-28T09:04:50.493Z</time></trkpt><trkpt lat="40.9822367" lon="15.3749033"><ele>809.8</ele><time>2026-03-28T09:04:51.494Z</time></trkpt><trkpt lat="40.98235" lon="15.3749"><ele>809.4000000000001</ele><time>2026-03-28T09:04:52.494Z</time></trkpt><trkpt lat="40.982455" lon="15.3748883"><ele>809.0</ele><time>2026-03-28T09:04:53.494Z</time></trkpt><trkpt lat="40.9825567" lon="15.374875"><ele>808.2</ele><time>2026-03-28T09:04:54.494Z</time></trkpt><trkpt lat="40.9826633" lon="15.3748567"><ele>807.4000000000001</ele><time>2026-03-28T09:04:55.493Z</time></trkpt><trkpt lat="40.9827733" lon="15.3748333"><ele>806.6</ele><time>2026-03-28T09:04:56.493Z</time></trkpt><trkpt lat="40.9828833" lon="15.374815"><ele>805.8</ele><time>2026-03-28T09:04:57.494Z</time></trkpt><trkpt lat="40.9829883" lon="15.374805"><ele>805.0</ele><time>2026-03-28T09:04:58.493Z</time></trkpt><trkpt lat="40.9830917" lon="15.3747883"><ele>805.0</ele><time>2026-03-28T09:04:59.494Z</time></trkpt><trkpt lat="40.9832" lon="15.374775"><ele>805.0</ele><time>2026-03-28T09:05:00.494Z</time></trkpt><trkpt lat="40.9833033" lon="15.3747567"><ele>805.0</ele><time>2026-03-28T09:05:01.494Z</time></trkpt><trkpt lat="40.9834017" lon="15.374735"><ele>805.0</ele><time>2026-03-28T09:05:02.493Z</time></trkpt><trkpt lat="40.9834967" lon="15.37472"><ele>805.0</ele><time>2026-03-28T09:05:03.494Z</time></trkpt><trkpt lat="40.9835967" lon="15.37471"><ele>804.0</ele><time>2026-03-28T09:05:04.493Z</time></trkpt><trkpt lat="40.9836967" lon="15.374705"><ele>803.0</ele><time>2026-03-28T09:05:05.493Z</time></trkpt><trkpt lat="40.9838" lon="15.374705"><ele>802.0</ele><time>2026-03-28T09:05:06.493Z</time></trkpt><trkpt lat="40.9839" lon="15.3747133"><ele>801.0</ele><time>2026-03-28T09:05:07.493Z</time></trkpt><trkpt lat="40.9839967" lon="15.3747267"><ele>800.0</ele><time>2026-03-28T09:05:08.493Z</time></trkpt><trkpt lat="40.9840983" lon="15.37474"><ele>798.4</ele><time>2026-03-28T09:05:09.493Z</time></trkpt><trkpt lat="40.9842017" lon="15.3747583"><ele>796.8</ele><time>2026-03-28T09:05:10.494Z</time></trkpt><trkpt lat="40.984305" lon="15.3747833"><ele>795.2</ele><time>2026-03-28T09:05:11.494Z</time></trkpt><trkpt lat="40.9844033" lon="15.374815"><ele>793.6</ele><time>2026-03-28T09:05:12.494Z</time></trkpt><trkpt lat="40.9845017" lon="15.3748483"><ele>792.0</ele><time>2026-03-28T09:05:13.493Z</time></trkpt><trkpt lat="40.9846017" lon="15.374885"><ele>792.0</ele><time>2026-03-28T09:05:14.494Z</time></trkpt><trkpt lat="40.9846983" lon="15.374925"><ele>792.0</ele><time>2026-03-28T09:05:15.494Z</time></trkpt><trkpt lat="40.9848017" lon="15.3749667"><ele>792.0</ele><time>2026-03-28T09:05:16.493Z</time></trkpt><trkpt lat="40.9849" lon="15.37501"><ele>792.0</ele><time>2026-03-28T09:05:17.494Z</time></trkpt><trkpt lat="40.98499" lon="15.3750533"><ele>792.0</ele><time>2026-03-28T09:05:18.494Z</time></trkpt><trkpt lat="40.9850817" lon="15.3750933"><ele>790.6</ele><time>2026-03-28T09:05:19.494Z</time></trkpt><trkpt lat="40.9851733" lon="15.375135"><ele>789.2</ele><time>2026-03-28T09:05:20.494Z</time></trkpt><trkpt lat="40.985275" lon="15.37518"><ele>787.8</ele><time>2026-03-28T09:05:21.494Z</time></trkpt><trkpt lat="40.9853867" lon="15.3752283"><ele>786.4</ele><time>2026-03-28T09:05:22.493Z</time></trkpt><trkpt lat="40.9855017" lon="15.3752817"><ele>785.0</ele><time>2026-03-28T09:05:23.493Z</time></trkpt><trkpt lat="40.9856167" lon="15.3753367"><ele>785.0</ele><time>2026-03-28T09:05:24.493Z</time></trkpt><trkpt lat="40.9857333" lon="15.3753967"><ele>785.0</ele><time>2026-03-28T09:05:25.493Z</time></trkpt><trkpt lat="40.9858533" lon="15.3754567"><ele>785.0</ele><time>2026-03-28T09:05:26.494Z</time></trkpt><trkpt lat="40.9859683" lon="15.37552"><ele>785.0</ele><time>2026-03-28T09:05:27.494Z</time></trkpt><trkpt lat="40.9860817" lon="15.3755867"><ele>782.75</ele><time>2026-03-28T09:05:28.493Z</time></trkpt><trkpt lat="40.9861933" lon="15.375655"><ele>780.5</ele><time>2026-03-28T09:05:29.494Z</time></trkpt><trkpt lat="40.9863033" lon="15.3757233"><ele>778.25</ele><time>2026-03-28T09:05:30.494Z</time></trkpt><trkpt lat="40.98641" lon="15.3757933"><ele>776.0</ele><time>2026-03-28T09:05:31.493Z</time></trkpt><trkpt lat="40.9865117" lon="15.3758633"><ele>776.0</ele><time>2026-03-28T09:05:32.494Z</time></trkpt><trkpt lat="40.9866133" lon="15.3759367"><ele>776.0</ele><time>2026-03-28T09:05:33.493Z</time></trkpt><trkpt lat="40.9867133" lon="15.3760017"><ele>776.0</ele><time>2026-03-28T09:05:34.493Z</time></trkpt><trkpt lat="40.9868017" lon="15.3760667"><ele>776.0</ele><time>2026-03-28T09:05:35.493Z</time></trkpt><trkpt lat="40.9868883" lon="15.3761317"><ele>776.0</ele><time>2026-03-28T09:05:36.494Z</time></trkpt><trkpt lat="40.98697" lon="15.37619"><ele>774.8</ele><time>2026-03-28T09:05:37.493Z</time></trkpt><trkpt lat="40.9870583" lon="15.37625"><ele>773.5999999999999</ele><time>2026-03-28T09:05:38.494Z</time></trkpt><trkpt lat="40.987155" lon="15.3763083"><ele>772.4</ele><time>2026-03-28T09:05:39.493Z</time></trkpt><trkpt lat="40.9872433" lon="15.37636"><ele>771.2</ele><time>2026-03-28T09:05:40.494Z</time></trkpt><trkpt lat="40.9873267" lon="15.376405"><ele>770.0</ele><time>2026-03-28T09:05:41.493Z</time></trkpt><trkpt lat="40.9874017" lon="15.3764467"><ele>769.0000000000001</ele><time>2026-03-28T09:05:42.494Z</time></trkpt><trkpt lat="40.9874717" lon="15.3764867"><ele>768.0</ele><time>2026-03-28T09:05:43.493Z</time></trkpt><trkpt lat="40.9875417" lon="15.3765283"><ele>767.0</ele><time>2026-03-28T09:05:44.494Z</time></trkpt><trkpt lat="40.9876133" lon="15.376565"><ele>766.0</ele><time>2026-03-28T09:05:45.494Z</time></trkpt><trkpt lat="40.9876833" lon="15.3766067"><ele>765.0</ele><time>2026-03-28T09:05:46.494Z</time></trkpt><trkpt lat="40.9877467" lon="15.3766633"><ele>764.0</ele><time>2026-03-28T09:05:47.493Z</time></trkpt><trkpt lat="40.9878" lon="15.37674"><ele>762.4285714285714</ele><time>2026-03-28T09:05:48.494Z</time></trkpt><trkpt lat="40.9878383" lon="15.3768317"><ele>760.8571428571428</ele><time>2026-03-28T09:05:49.493Z</time></trkpt><trkpt lat="40.9878617" lon="15.3769267"><ele>759.2857142857142</ele><time>2026-03-28T09:05:50.493Z</time></trkpt><trkpt lat="40.9878767" lon="15.377035"><ele>757.7142857142858</ele><time>2026-03-28T09:05:51.494Z</time></trkpt><trkpt lat="40.987885" lon="15.377135"><ele>756.1428571428571</ele><time>2026-03-28T09:05:52.493Z</time></trkpt><trkpt lat="40.9879067" lon="15.3772217"><ele>754.5714285714286</ele><time>2026-03-28T09:05:53.493Z</time></trkpt><trkpt lat="40.987945" lon="15.37729"><ele>753.0</ele><time>2026-03-28T09:05:54.494Z</time></trkpt><trkpt lat="40.9880033" lon="15.37734"><ele>752.1666666666666</ele><time>2026-03-28T09:05:55.494Z</time></trkpt><trkpt lat="40.9880717" lon="15.377375"><ele>751.3333333333334</ele><time>2026-03-28T09:05:56.494Z</time></trkpt><trkpt lat="40.9881567" lon="15.3773783"><ele>750.5</ele><time>2026-03-28T09:05:57.493Z</time></trkpt><trkpt lat="40.98824" lon="15.3773533"><ele>749.6666666666667</ele><time>2026-03-28T09:05:58.494Z</time></trkpt><trkpt lat="40.9883133" lon="15.3773133"><ele>748.8333333333334</ele><time>2026-03-28T09:05:59.493Z</time></trkpt><trkpt lat="40.9883817" lon="15.3772567"><ele>748.0</ele><time>2026-03-28T09:06:00.494Z</time></trkpt><trkpt lat="40.98845" lon="15.3771767"><ele>746.1666666666667</ele><time>2026-03-28T09:06:01.493Z</time></trkpt><trkpt lat="40.988515" lon="15.3770883"><ele>744.3333333333334</ele><time>2026-03-28T09:06:02.494Z</time></trkpt><trkpt lat="40.988575" lon="15.377005"><ele>742.5</ele><time>2026-03-28T09:06:03.494Z</time></trkpt><trkpt lat="40.98863" lon="15.3769317"><ele>740.6666666666666</ele><time>2026-03-28T09:06:04.494Z</time></trkpt><trkpt lat="40.9886833" lon="15.3768683"><ele>738.8333333333333</ele><time>2026-03-28T09:06:05.494Z</time></trkpt><trkpt lat="40.9887417" lon="15.3768217"><ele>737.0</ele><time>2026-03-28T09:06:06.494Z</time></trkpt><trkpt lat="40.98886" lon="15.376825"><ele>737.0</ele><time>2026-03-28T09:06:08.493Z</time></trkpt><trkpt lat="40.9889183" lon="15.3768667"><ele>737.0</ele><time>2026-03-28T09:06:09.494Z</time></trkpt><trkpt lat="40.9889767" lon="15.3769433"><ele>737.0</ele><time>2026-03-28T09:06:10.493Z</time></trkpt><trkpt lat="40.9890317" lon="15.3770467"><ele>737.0</ele><time>2026-03-28T09:06:11.494Z</time></trkpt><trkpt lat="40.989075" lon="15.3771733"><ele>737.0</ele><time>2026-03-28T09:06:12.493Z</time></trkpt><trkpt lat="40.9891117" lon="15.377305"><ele>735.8</ele><time>2026-03-28T09:06:13.494Z</time></trkpt><trkpt lat="40.9891433" lon="15.377425"><ele>734.6</ele><time>2026-03-28T09:06:14.494Z</time></trkpt><trkpt lat="40.9891683" lon="15.3775333"><ele>733.4</ele><time>2026-03-28T09:06:15.493Z</time></trkpt><trkpt lat="40.98919" lon="15.3776417"><ele>732.1999999999999</ele><time>2026-03-28T09:06:16.493Z</time></trkpt><trkpt lat="40.9892" lon="15.377765"><ele>731.0</ele><time>2026-03-28T09:06:17.494Z</time></trkpt><trkpt lat="40.9891933" lon="15.37791"><ele>729.75</ele><time>2026-03-28T09:06:18.494Z</time></trkpt><trkpt lat="40.9891783" lon="15.3780633"><ele>728.5</ele><time>2026-03-28T09:06:19.494Z</time></trkpt><trkpt lat="40.9891583" lon="15.3782183"><ele>727.25</ele><time>2026-03-28T09:06:20.493Z</time></trkpt><trkpt lat="40.9891333" lon="15.37837"><ele>726.0</ele><time>2026-03-28T09:06:21.494Z</time></trkpt><trkpt lat="40.9891133" lon="15.3785167"><ele>726.0</ele><time>2026-03-28T09:06:22.494Z</time></trkpt><trkpt lat="40.98909" lon="15.37866"><ele>726.0</ele><time>2026-03-28T09:06:23.494Z</time></trkpt><trkpt lat="40.989055" lon="15.3787917"><ele>726.0</ele><time>2026-03-28T09:06:24.494Z</time></trkpt><trkpt lat="40.9890067" lon="15.3789117"><ele>726.0</ele><time>2026-03-28T09:06:25.493Z</time></trkpt><trkpt lat="40.9889617" lon="15.3790183"><ele>726.0</ele><time>2026-03-28T09:06:26.493Z</time></trkpt><trkpt lat="40.988915" lon="15.37912"><ele>724.5</ele><time>2026-03-28T09:06:27.494Z</time></trkpt><trkpt lat="40.9888683" lon="15.3792133"><ele>723.0</ele><time>2026-03-28T09:06:28.493Z</time></trkpt><trkpt lat="40.988825" lon="15.3793"><ele>721.5</ele><time>2026-03-28T09:06:29.494Z</time></trkpt><trkpt lat="40.9887917" lon="15.37938"><ele>720.0</ele><time>2026-03-28T09:06:30.493Z</time></trkpt><trkpt lat="40.9887617" lon="15.3795267"><ele>718.5</ele><time>2026-03-28T09:06:32.494Z</time></trkpt><trkpt lat="40.9887533" lon="15.379635"><ele>717.0</ele><time>2026-03-28T09:06:34.493Z</time></trkpt><trkpt lat="40.98868" lon="15.3797"><ele>716.5</ele><time>2026-03-28T09:06:37.494Z</time></trkpt><trkpt lat="40.9886033" lon="15.379735"><ele>716.0</ele><time>2026-03-28T09:06:39.494Z</time></trkpt><trkpt lat="40.9885367" lon="15.3797933"><ele>715.5</ele><time>2026-03-28T09:06:41.493Z</time></trkpt><trkpt lat="40.9884717" lon="15.379855"><ele>715.0</ele><time>2026-03-28T09:06:43.494Z</time></trkpt><trkpt lat="40.9884067" lon="15.3799117"><ele>714.5</ele><time>2026-03-28T09:06:45.494Z</time></trkpt><trkpt lat="40.9883367" lon="15.3799667"><ele>714.0</ele><time>2026-03-28T09:06:47.493Z</time></trkpt><trkpt lat="40.98826" lon="15.3800167"><ele>714.0</ele><time>2026-03-28T09:06:49.494Z</time></trkpt><trkpt lat="40.9881717" lon="15.3800617"><ele>714.0</ele><time>2026-03-28T09:06:51.494Z</time></trkpt><trkpt lat="40.9880933" lon="15.3800983"><ele>714.0</ele><time>2026-03-28T09:06:53.494Z</time></trkpt><trkpt lat="40.9880167" lon="15.3801517"><ele>714.0</ele><time>2026-03-28T09:06:55.493Z</time></trkpt><trkpt lat="40.9879267" lon="15.3801983"><ele>714.0</ele><time>2026-03-28T09:06:57.493Z</time></trkpt><trkpt lat="40.9878283" lon="15.38026"><ele>714.0</ele><time>2026-03-28T09:06:59.494Z</time></trkpt><trkpt lat="40.9877417" lon="15.380315"><ele>714.0</ele><time>2026-03-28T09:07:01.493Z</time></trkpt><trkpt lat="40.987655" lon="15.3803683"><ele>714.0</ele><time>2026-03-28T09:07:03.494Z</time></trkpt><trkpt lat="40.987565" lon="15.3804183"><ele>714.0</ele><time>2026-03-28T09:07:05.494Z</time></trkpt><trkpt lat="40.9874767" lon="15.3804683"><ele>714.0</ele><time>2026-03-28T09:07:07.493Z</time></trkpt><trkpt lat="40.987385" lon="15.380515"><ele>714.6666666666666</ele><time>2026-03-28T09:07:09.494Z</time></trkpt><trkpt lat="40.9872917" lon="15.3805567"><ele>715.3333333333334</ele><time>2026-03-28T09:07:11.493Z</time></trkpt><trkpt lat="40.9871833" lon="15.38061"><ele>716.0</ele><time>2026-03-28T09:07:13.494Z</time></trkpt><trkpt lat="40.987125" lon="15.3806417"><ele>716.6666666666667</ele><time>2026-03-28T09:07:14.494Z</time></trkpt><trkpt lat="40.9870619" lon="15.3806728"><ele>717.3333333333334</ele><time>2026-03-28T09:07:15.494Z</time></trkpt><trkpt lat="40.9869982" lon="15.3807025"><ele>718.0</ele><time>2026-03-28T09:07:16.493Z</time></trkpt><trkpt lat="40.9869307" lon="15.3807315"><ele>718.0</ele><time>2026-03-28T09:07:17.494Z</time></trkpt><trkpt lat="40.9868655" lon="15.3807586"><ele>718.0</ele><time>2026-03-28T09:07:18.494Z</time></trkpt><trkpt lat="40.986801" lon="15.3807867"><ele>718.0</ele><time>2026-03-28T09:07:19.493Z</time></trkpt><trkpt lat="40.9867364" lon="15.3808099"><ele>718.0</ele><time>2026-03-28T09:07:20.493Z</time></trkpt><trkpt lat="40.9866249" lon="15.3808646"><ele>718.0</ele><time>2026-03-28T09:07:22.493Z</time></trkpt><trkpt lat="40.9865028" lon="15.3809171"><ele>719.8571428571429</ele><time>2026-03-28T09:07:24.493Z</time></trkpt><trkpt lat="40.9864376" lon="15.3809465"><ele>721.7142857142858</ele><time>2026-03-28T09:07:25.493Z</time></trkpt><trkpt lat="40.9863752" lon="15.3809799"><ele>723.5714285714286</ele><time>2026-03-28T09:07:26.493Z</time></trkpt><trkpt lat="40.9863142" lon="15.3810175"><ele>725.4285714285714</ele><time>2026-03-28T09:07:27.494Z</time></trkpt><trkpt lat="40.9862529" lon="15.3810552"><ele>727.2857142857142</ele><time>2026-03-28T09:07:28.493Z</time></trkpt><trkpt lat="40.9861915" lon="15.3810861"><ele>729.1428571428571</ele><time>2026-03-28T09:07:29.493Z</time></trkpt><trkpt lat="40.9861277" lon="15.381113"><ele>731.0</ele><time>2026-03-28T09:07:30.493Z</time></trkpt><trkpt lat="40.9860117" lon="15.3811515"><ele>731.0</ele><time>2026-03-28T09:07:32.494Z</time></trkpt><trkpt lat="40.9858924" lon="15.3811905"><ele>731.0</ele><time>2026-03-28T09:07:34.493Z</time></trkpt><trkpt lat="40.9857721" lon="15.3812297"><ele>731.0</ele><time>2026-03-28T09:07:36.494Z</time></trkpt><trkpt lat="40.9857106" lon="15.3812547"><ele>731.0</ele><time>2026-03-28T09:07:37.493Z</time></trkpt><trkpt lat="40.9856032" lon="15.3813032"><ele>731.0</ele><time>2026-03-28T09:07:39.494Z</time></trkpt><trkpt lat="40.9855157" lon="15.3813542"><ele>731.0</ele><time>2026-03-28T09:07:41.493Z</time></trkpt><trkpt lat="40.9854424" lon="15.3814031"><ele>731.0</ele><time>2026-03-28T09:07:43.494Z</time></trkpt><trkpt lat="40.985384" lon="15.3814382"><ele>731.0</ele><time>2026-03-28T09:07:45.494Z</time></trkpt><trkpt lat="40.9853208" lon="15.3814755"><ele>731.0</ele><time>2026-03-28T09:07:47.494Z</time></trkpt><trkpt lat="40.9852406" lon="15.3815317"><ele>731.0</ele><time>2026-03-28T09:07:49.494Z</time></trkpt><trkpt lat="40.9851528" lon="15.3815781"><ele>731.0</ele><time>2026-03-28T09:07:51.493Z</time></trkpt><trkpt lat="40.9850709" lon="15.3816119"><ele>733.4</ele><time>2026-03-28T09:07:53.493Z</time></trkpt><trkpt lat="40.9849922" lon="15.3816562"><ele>735.8</ele><time>2026-03-28T09:07:55.494Z</time></trkpt><trkpt lat="40.9848973" lon="15.381707"><ele>738.1999999999999</ele><time>2026-03-28T09:07:57.493Z</time></trkpt><trkpt lat="40.9848057" lon="15.381749"><ele>740.5999999999999</ele><time>2026-03-28T09:07:59.493Z</time></trkpt><trkpt lat="40.9847057" lon="15.3817795"><ele>743.0</ele><time>2026-03-28T09:08:01.493Z</time></trkpt><trkpt lat="40.9846149" lon="15.3817999"><ele>743.0</ele><time>2026-03-28T09:08:03.494Z</time></trkpt><trkpt lat="40.9845267" lon="15.3818103"><ele>743.0</ele><time>2026-03-28T09:08:05.494Z</time></trkpt><trkpt lat="40.9844571" lon="15.3818207"><ele>743.0</ele><time>2026-03-28T09:08:07.494Z</time></trkpt><trkpt lat="40.9843587" lon="15.3818332"><ele>743.0</ele><time>2026-03-28T09:08:10.493Z</time></trkpt><trkpt lat="40.9842674" lon="15.3818423"><ele>743.0</ele><time>2026-03-28T09:08:12.494Z</time></trkpt><trkpt lat="40.9841656" lon="15.381847"><ele>743.6666666666666</ele><time>2026-03-28T09:08:14.493Z</time></trkpt><trkpt lat="40.9840641" lon="15.3818551"><ele>744.3333333333333</ele><time>2026-03-28T09:08:16.494Z</time></trkpt><trkpt lat="40.9839799" lon="15.3818561"><ele>745.0</ele><time>2026-03-28T09:08:18.493Z</time></trkpt><trkpt lat="40.9839168" lon="15.3818446"><ele>745.6666666666666</ele><time>2026-03-28T09:08:20.494Z</time></trkpt><trkpt lat="40.9838267" lon="15.3818217"><ele>746.3333333333334</ele><time>2026-03-28T09:08:29.494Z</time></trkpt><trkpt lat="40.98374" lon="15.381775"><ele>747.0</ele><time>2026-03-28T09:08:32.493Z</time></trkpt><trkpt lat="40.983655" lon="15.3817333"><ele>747.0</ele><time>2026-03-28T09:08:35.494Z</time></trkpt><trkpt lat="40.9835717" lon="15.3817083"><ele>747.0</ele><time>2026-03-28T09:08:38.494Z</time></trkpt><trkpt lat="40.9835" lon="15.381705"><ele>747.0</ele><time>2026-03-28T09:08:40.494Z</time></trkpt><trkpt lat="40.98341" lon="15.3817033"><ele>747.0</ele><time>2026-03-28T09:08:42.494Z</time></trkpt><trkpt lat="40.9833283" lon="15.381695"><ele>747.0</ele><time>2026-03-28T09:08:44.494Z</time></trkpt><trkpt lat="40.9832383" lon="15.3816733"><ele>747.0</ele><time>2026-03-28T09:08:47.493Z</time></trkpt><trkpt lat="40.9831467" lon="15.38168"><ele>746.6666666666666</ele><time>2026-03-28T09:08:50.495Z</time></trkpt><trkpt lat="40.9830633" lon="15.3817167"><ele>746.3333333333334</ele><time>2026-03-28T09:08:53.495Z</time></trkpt><trkpt lat="40.9830067" lon="15.381775"><ele>746.0</ele><time>2026-03-28T09:08:55.495Z</time></trkpt><trkpt lat="40.982945" lon="15.3818483"><ele>745.6666666666667</ele><time>2026-03-28T09:08:57.495Z</time></trkpt><trkpt lat="40.9828917" lon="15.38193"><ele>745.3333333333334</ele><time>2026-03-28T09:08:59.495Z</time></trkpt><trkpt lat="40.9828267" lon="15.38202"><ele>745.0</ele><time>2026-03-28T09:09:01.495Z</time></trkpt><trkpt lat="40.9827583" lon="15.3820883"><ele>745.0</ele><time>2026-03-28T09:09:03.494Z</time></trkpt><trkpt lat="40.9826783" lon="15.3821633"><ele>745.0</ele><time>2026-03-28T09:09:05.495Z</time></trkpt><trkpt lat="40.9825933" lon="15.3822367"><ele>745.0</ele><time>2026-03-28T09:09:07.495Z</time></trkpt><trkpt lat="40.982505" lon="15.38231"><ele>745.0</ele><time>2026-03-28T09:09:09.494Z</time></trkpt><trkpt lat="40.9824083" lon="15.3823867"><ele>745.0</ele><time>2026-03-28T09:09:11.494Z</time></trkpt><trkpt lat="40.98231" lon="15.3824733"><ele>745.3333333333334</ele><time>2026-03-28T09:09:13.494Z</time></trkpt><trkpt lat="40.98221" lon="15.3825533"><ele>745.6666666666667</ele><time>2026-03-28T09:09:15.495Z</time></trkpt><trkpt lat="40.9821167" lon="15.3826267"><ele>746.0</ele><time>2026-03-28T09:09:17.495Z</time></trkpt><trkpt lat="40.9820517" lon="15.3826733"><ele>746.3333333333334</ele><time>2026-03-28T09:09:19.494Z</time></trkpt><trkpt lat="40.981985" lon="15.3827117"><ele>746.6666666666666</ele><time>2026-03-28T09:09:21.494Z</time></trkpt><trkpt lat="40.981915" lon="15.38275"><ele>747.0</ele><time>2026-03-28T09:09:23.495Z</time></trkpt><trkpt lat="40.9818517" lon="15.38277"><ele>747.0</ele><time>2026-03-28T09:09:25.494Z</time></trkpt><trkpt lat="40.9817817" lon="15.38279"><ele>747.0</ele><time>2026-03-28T09:09:27.495Z</time></trkpt><trkpt lat="40.9817033" lon="15.3828167"><ele>747.0</ele><time>2026-03-28T09:09:29.495Z</time></trkpt><trkpt lat="40.9816167" lon="15.382845"><ele>747.0</ele><time>2026-03-28T09:09:31.495Z</time></trkpt><trkpt lat="40.98154" lon="15.382875"><ele>747.0</ele><time>2026-03-28T09:09:33.495Z</time></trkpt><trkpt lat="40.9814417" lon="15.382905"><ele>747.0</ele><time>2026-03-28T09:09:35.495Z</time></trkpt><trkpt lat="40.9813467" lon="15.3829433"><ele>747.3333333333334</ele><time>2026-03-28T09:09:37.495Z</time></trkpt><trkpt lat="40.9812683" lon="15.38298"><ele>747.6666666666666</ele><time>2026-03-28T09:09:39.494Z</time></trkpt><trkpt lat="40.9811883" lon="15.3830167"><ele>748.0</ele><time>2026-03-28T09:09:41.495Z</time></trkpt><trkpt lat="40.981105" lon="15.3830533"><ele>748.3333333333333</ele><time>2026-03-28T09:09:43.495Z</time></trkpt><trkpt lat="40.9810217" lon="15.3830867"><ele>748.6666666666666</ele><time>2026-03-28T09:09:45.495Z</time></trkpt><trkpt lat="40.9809383" lon="15.383115"><ele>749.0</ele><time>2026-03-28T09:09:47.494Z</time></trkpt><trkpt lat="40.9808583" lon="15.3831517"><ele>750.5</ele><time>2026-03-28T09:09:49.495Z</time></trkpt><trkpt lat="40.98079" lon="15.3831833"><ele>752.0</ele><time>2026-03-28T09:09:51.495Z</time></trkpt><trkpt lat="40.9807217" lon="15.3832"><ele>753.5</ele><time>2026-03-28T09:09:53.495Z</time></trkpt><trkpt lat="40.9806517" lon="15.3832183"><ele>755.0</ele><time>2026-03-28T09:09:55.495Z</time></trkpt><trkpt lat="40.9805733" lon="15.3832417"><ele>756.5</ele><time>2026-03-28T09:09:57.494Z</time></trkpt><trkpt lat="40.980485" lon="15.383275"><ele>758.0</ele><time>2026-03-28T09:09:59.495Z</time></trkpt><trkpt lat="40.9803917" lon="15.383305"><ele>758.0</ele><time>2026-03-28T09:10:01.494Z</time></trkpt><trkpt lat="40.9803033" lon="15.3833383"><ele>758.0</ele><time>2026-03-28T09:10:03.494Z</time></trkpt><trkpt lat="40.9802133" lon="15.383365"><ele>758.0</ele><time>2026-03-28T09:10:05.495Z</time></trkpt><trkpt lat="40.98012" lon="15.3833833"><ele>758.0</ele><time>2026-03-28T09:10:07.494Z</time></trkpt><trkpt lat="40.9800267" lon="15.3834083"><ele>758.0</ele><time>2026-03-28T09:10:09.495Z</time></trkpt><trkpt lat="40.97994" lon="15.3834433"><ele>759.3333333333333</ele><time>2026-03-28T09:10:11.495Z</time></trkpt><trkpt lat="40.9798633" lon="15.3834667"><ele>760.6666666666666</ele><time>2026-03-28T09:10:13.495Z</time></trkpt><trkpt lat="40.9797933" lon="15.3834917"><ele>762.0</ele><time>2026-03-28T09:10:15.495Z</time></trkpt><trkpt lat="40.97969" lon="15.383525"><ele>763.3333333333334</ele><time>2026-03-28T09:10:18.495Z</time></trkpt><trkpt lat="40.979605" lon="15.3835583"><ele>764.6666666666667</ele><time>2026-03-28T09:10:20.495Z</time></trkpt><trkpt lat="40.9795183" lon="15.3835917"><ele>766.0</ele><time>2026-03-28T09:10:22.495Z</time></trkpt><trkpt lat="40.979445" lon="15.3836217"><ele>766.0</ele><time>2026-03-28T09:10:24.495Z</time></trkpt><trkpt lat="40.97937" lon="15.3836617"><ele>766.0</ele><time>2026-03-28T09:10:26.495Z</time></trkpt><trkpt lat="40.9792917" lon="15.3837133"><ele>766.0</ele><time>2026-03-28T09:10:28.495Z</time></trkpt><trkpt lat="40.9792117" lon="15.3837533"><ele>766.0</ele><time>2026-03-28T09:10:30.494Z</time></trkpt><trkpt lat="40.97913" lon="15.3837933"><ele>766.0</ele><time>2026-03-28T09:10:32.494Z</time></trkpt><trkpt lat="40.9790433" lon="15.3838133"><ele>766.0</ele><time>2026-03-28T09:10:34.495Z</time></trkpt><trkpt lat="40.9789533" lon="15.383825"><ele>765.75</ele><time>2026-03-28T09:10:36.495Z</time></trkpt><trkpt lat="40.9788583" lon="15.3838267"><ele>765.5</ele><time>2026-03-28T09:10:38.495Z</time></trkpt><trkpt lat="40.9787517" lon="15.383835"><ele>765.25</ele><time>2026-03-28T09:10:40.495Z</time></trkpt><trkpt lat="40.9786267" lon="15.38386"><ele>765.0</ele><time>2026-03-28T09:10:42.494Z</time></trkpt><trkpt lat="40.978505" lon="15.383895"><ele>765.0</ele><time>2026-03-28T09:10:44.495Z</time></trkpt><trkpt lat="40.978435" lon="15.38391"><ele>765.0</ele><time>2026-03-28T09:10:45.495Z</time></trkpt><trkpt lat="40.97837" lon="15.3839317"><ele>765.0</ele><time>2026-03-28T09:10:46.494Z</time></trkpt><trkpt lat="40.9783033" lon="15.3839467"><ele>765.0</ele><time>2026-03-28T09:10:47.495Z</time></trkpt><trkpt lat="40.97818" lon="15.3839833"><ele>765.0</ele><time>2026-03-28T09:10:49.494Z</time></trkpt><trkpt lat="40.97806" lon="15.3840133"><ele>766.75</ele><time>2026-03-28T09:10:51.495Z</time></trkpt><trkpt lat="40.97794" lon="15.3840383"><ele>768.5</ele><time>2026-03-28T09:10:53.494Z</time></trkpt><trkpt lat="40.977825" lon="15.38407"><ele>770.25</ele><time>2026-03-28T09:10:55.495Z</time></trkpt><trkpt lat="40.9777083" lon="15.3841083"><ele>772.0</ele><time>2026-03-28T09:10:57.494Z</time></trkpt><trkpt lat="40.977585" lon="15.3841467"><ele>771.9999999999999</ele><time>2026-03-28T09:10:59.494Z</time></trkpt><trkpt lat="40.9775217" lon="15.384175"><ele>772.0</ele><time>2026-03-28T09:11:00.494Z</time></trkpt><trkpt lat="40.97741" lon="15.3842383"><ele>772.0</ele><time>2026-03-28T09:11:02.494Z</time></trkpt><trkpt lat="40.977345" lon="15.384265"><ele>772.0</ele><time>2026-03-28T09:11:03.495Z</time></trkpt><trkpt lat="40.977275" lon="15.3842917"><ele>771.9999999999999</ele><time>2026-03-28T09:11:04.494Z</time></trkpt><trkpt lat="40.9772083" lon="15.3843167"><ele>772.0</ele><time>2026-03-28T09:11:05.495Z</time></trkpt><trkpt lat="40.9771467" lon="15.3843367"><ele>773.2</ele><time>2026-03-28T09:11:06.495Z</time></trkpt><trkpt lat="40.9770433" lon="15.384365"><ele>774.4000000000001</ele><time>2026-03-28T09:11:08.495Z</time></trkpt><trkpt lat="40.9769467" lon="15.3843867"><ele>775.5999999999999</ele><time>2026-03-28T09:11:10.494Z</time></trkpt><trkpt lat="40.9768567" lon="15.3844017"><ele>776.8</ele><time>2026-03-28T09:11:12.495Z</time></trkpt><trkpt lat="40.9767583" lon="15.3844233"><ele>778.0</ele><time>2026-03-28T09:11:14.494Z</time></trkpt><trkpt lat="40.9766583" lon="15.3844533"><ele>778.5999999999999</ele><time>2026-03-28T09:11:16.494Z</time></trkpt><trkpt lat="40.9765583" lon="15.38451"><ele>779.1999999999999</ele><time>2026-03-28T09:11:18.495Z</time></trkpt><trkpt lat="40.97646" lon="15.3845683"><ele>779.8</ele><time>2026-03-28T09:11:20.495Z</time></trkpt><trkpt lat="40.9763567" lon="15.38464"><ele>780.4</ele><time>2026-03-28T09:11:22.495Z</time></trkpt><trkpt lat="40.9762667" lon="15.3847083"><ele>781.0</ele><time>2026-03-28T09:11:24.495Z</time></trkpt><trkpt lat="40.9761917" lon="15.3847533"><ele>780.4285714285714</ele><time>2026-03-28T09:11:26.494Z</time></trkpt><trkpt lat="40.97613" lon="15.3847783"><ele>779.8571428571429</ele><time>2026-03-28T09:11:28.495Z</time></trkpt><trkpt lat="40.97606" lon="15.3847917"><ele>779.2857142857142</ele><time>2026-03-28T09:11:30.495Z</time></trkpt><trkpt lat="40.9759967" lon="15.384795"><ele>778.7142857142858</ele><time>2026-03-28T09:11:32.495Z</time></trkpt><trkpt lat="40.97592" lon="15.384785"><ele>778.1428571428571</ele><time>2026-03-28T09:11:36.494Z</time></trkpt><trkpt lat="40.9758367" lon="15.38475"><ele>777.5714285714286</ele><time>2026-03-28T09:11:39.494Z</time></trkpt><trkpt lat="40.9757667" lon="15.38475"><ele>777.0</ele><time>2026-03-28T09:11:41.494Z</time></trkpt><trkpt lat="40.9756817" lon="15.38476"><ele>777.0</ele><time>2026-03-28T09:11:43.495Z</time></trkpt><trkpt lat="40.9756067" lon="15.3848083"><ele>777.0</ele><time>2026-03-28T09:11:45.495Z</time></trkpt><trkpt lat="40.975535" lon="15.3848817"><ele>777.0</ele><time>2026-03-28T09:11:47.494Z</time></trkpt><trkpt lat="40.9754633" lon="15.3849383"><ele>777.0</ele><time>2026-03-28T09:11:49.495Z</time></trkpt><trkpt lat="40.9753917" lon="15.3850033"><ele>777.0</ele><time>2026-03-28T09:11:51.494Z</time></trkpt><trkpt lat="40.975315" lon="15.385065"><ele>777.0</ele><time>2026-03-28T09:11:53.495Z</time></trkpt><trkpt lat="40.97524" lon="15.3851367"><ele>777.0</ele><time>2026-03-28T09:11:55.495Z</time></trkpt><trkpt lat="40.9751417" lon="15.3852233"><ele>777.0</ele><time>2026-03-28T09:11:57.495Z</time></trkpt><trkpt lat="40.9750467" lon="15.3853067"><ele>777.0</ele><time>2026-03-28T09:11:59.495Z</time></trkpt><trkpt lat="40.9749483" lon="15.385385"><ele>777.0</ele><time>2026-03-28T09:12:01.495Z</time></trkpt><trkpt lat="40.9748933" lon="15.3854267"><ele>777.0</ele><time>2026-03-28T09:12:02.495Z</time></trkpt><trkpt lat="40.974825" lon="15.3854717"><ele>776.5</ele><time>2026-03-28T09:12:03.495Z</time></trkpt><trkpt lat="40.974765" lon="15.3855217"><ele>776.0</ele><time>2026-03-28T09:12:04.494Z</time></trkpt><trkpt lat="40.9747067" lon="15.385565"><ele>775.5</ele><time>2026-03-28T09:12:05.495Z</time></trkpt><trkpt lat="40.9746417" lon="15.3856083"><ele>775.0</ele><time>2026-03-28T09:12:06.495Z</time></trkpt><trkpt lat="40.9745783" lon="15.3856483"><ele>774.5</ele><time>2026-03-28T09:12:07.495Z</time></trkpt><trkpt lat="40.974475" lon="15.3857283"><ele>774.0</ele><time>2026-03-28T09:12:09.494Z</time></trkpt><trkpt lat="40.9743767" lon="15.3857917"><ele>774.0</ele><time>2026-03-28T09:12:11.495Z</time></trkpt><trkpt lat="40.9743" lon="15.3858383"><ele>774.0</ele><time>2026-03-28T09:12:13.495Z</time></trkpt><trkpt lat="40.9742383" lon="15.3858867"><ele>774.0</ele><time>2026-03-28T09:12:15.494Z</time></trkpt><trkpt lat="40.9741683" lon="15.385945"><ele>774.0</ele><time>2026-03-28T09:12:17.495Z</time></trkpt><trkpt lat="40.9740833" lon="15.3860217"><ele>774.0</ele><time>2026-03-28T09:12:19.494Z</time></trkpt><trkpt lat="40.9740017" lon="15.38609"><ele>774.0</ele><time>2026-03-28T09:12:21.495Z</time></trkpt><trkpt lat="40.9739167" lon="15.3861683"><ele>775.2</ele><time>2026-03-28T09:12:23.495Z</time></trkpt><trkpt lat="40.9738383" lon="15.3862433"><ele>776.4000000000001</ele><time>2026-03-28T09:12:25.495Z</time></trkpt><trkpt lat="40.97377" lon="15.3863083"><ele>777.6</ele><time>2026-03-28T09:12:27.494Z</time></trkpt><trkpt lat="40.9736833" lon="15.3863867"><ele>778.8</ele><time>2026-03-28T09:12:29.495Z</time></trkpt><trkpt lat="40.973605" lon="15.386455"><ele>780.0</ele><time>2026-03-28T09:12:31.495Z</time></trkpt><trkpt lat="40.973525" lon="15.3865217"><ele>780.0</ele><time>2026-03-28T09:12:33.494Z</time></trkpt><trkpt lat="40.973445" lon="15.38659"><ele>780.0</ele><time>2026-03-28T09:12:35.495Z</time></trkpt><trkpt lat="40.9733783" lon="15.3866467"><ele>780.0</ele><time>2026-03-28T09:12:37.495Z</time></trkpt><trkpt lat="40.9733217" lon="15.3866967"><ele>780.0</ele><time>2026-03-28T09:12:39.495Z</time></trkpt><trkpt lat="40.9732617" lon="15.3867567"><ele>780.0</ele><time>2026-03-28T09:12:41.494Z</time></trkpt><trkpt lat="40.9732067" lon="15.3868083"><ele>780.0</ele><time>2026-03-28T09:12:43.494Z</time></trkpt><trkpt lat="40.9731483" lon="15.3868517"><ele>780.8333333333334</ele><time>2026-03-28T09:12:45.494Z</time></trkpt><trkpt lat="40.9730883" lon="15.3868967"><ele>781.6666666666667</ele><time>2026-03-28T09:12:47.495Z</time></trkpt><trkpt lat="40.973025" lon="15.386945"><ele>782.5</ele><time>2026-03-28T09:12:49.495Z</time></trkpt><trkpt lat="40.9729667" lon="15.3869883"><ele>783.3333333333334</ele><time>2026-03-28T09:12:51.494Z</time></trkpt><trkpt lat="40.9729017" lon="15.3870433"><ele>784.1666666666667</ele><time>2026-03-28T09:12:53.494Z</time></trkpt><trkpt lat="40.9728167" lon="15.3871183"><ele>785.0</ele><time>2026-03-28T09:12:55.494Z</time></trkpt><trkpt lat="40.97274" lon="15.38719"><ele>785.0</ele><time>2026-03-28T09:12:57.495Z</time></trkpt><trkpt lat="40.9726683" lon="15.3872583"><ele>785.0</ele><time>2026-03-28T09:12:59.495Z</time></trkpt><trkpt lat="40.9725833" lon="15.38733"><ele>785.0</ele><time>2026-03-28T09:13:01.495Z</time></trkpt><trkpt lat="40.9724983" lon="15.3874067"><ele>785.0</ele><time>2026-03-28T09:13:03.495Z</time></trkpt><trkpt lat="40.9724167" lon="15.3874783"><ele>785.0</ele><time>2026-03-28T09:13:05.495Z</time></trkpt><trkpt lat="40.9723283" lon="15.3875433"><ele>787.0</ele><time>2026-03-28T09:13:07.494Z</time></trkpt><trkpt lat="40.9722433" lon="15.3876117"><ele>789.0</ele><time>2026-03-28T09:13:09.495Z</time></trkpt><trkpt lat="40.9721667" lon="15.3876767"><ele>791.0</ele><time>2026-03-28T09:13:11.495Z</time></trkpt><trkpt lat="40.97208" lon="15.3877333"><ele>793.0</ele><time>2026-03-28T09:13:13.495Z</time></trkpt><trkpt lat="40.972005" lon="15.3877867"><ele>795.0</ele><time>2026-03-28T09:13:15.495Z</time></trkpt><trkpt lat="40.9719233" lon="15.3878317"><ele>795.0</ele><time>2026-03-28T09:13:17.494Z</time></trkpt><trkpt lat="40.9718333" lon="15.3878583"><ele>795.0</ele><time>2026-03-28T09:13:19.495Z</time></trkpt><trkpt lat="40.9717417" lon="15.387875"><ele>795.0</ele><time>2026-03-28T09:13:22.494Z</time></trkpt><trkpt lat="40.9716633" lon="15.387865"><ele>795.0</ele><time>2026-03-28T09:17:12.496Z</time></trkpt><trkpt lat="40.9715917" lon="15.3878483"><ele>795.0</ele><time>2026-03-28T09:17:14.495Z</time></trkpt><trkpt lat="40.97152" lon="15.3878383"><ele>795.0</ele><time>2026-03-28T09:17:16.495Z</time></trkpt><trkpt lat="40.9714517" lon="15.387835"><ele>795.2857142857143</ele><time>2026-03-28T09:17:18.496Z</time></trkpt><trkpt lat="40.9713867" lon="15.3878217"><ele>795.5714285714287</ele><time>2026-03-28T09:17:20.496Z</time></trkpt><trkpt lat="40.971315" lon="15.3877933"><ele>795.8571428571429</ele><time>2026-03-28T09:17:22.495Z</time></trkpt><trkpt lat="40.9712483" lon="15.3877583"><ele>796.1428571428571</ele><time>2026-03-28T09:17:24.495Z</time></trkpt><trkpt lat="40.9711833" lon="15.3877283"><ele>796.4285714285714</ele><time>2026-03-28T09:17:26.495Z</time></trkpt><trkpt lat="40.97112" lon="15.387685"><ele>796.7142857142857</ele><time>2026-03-28T09:17:28.495Z</time></trkpt><trkpt lat="40.9710533" lon="15.3876333"><ele>797.0</ele><time>2026-03-28T09:17:30.495Z</time></trkpt><trkpt lat="40.9709833" lon="15.3875833"><ele>797.0000000000001</ele><time>2026-03-28T09:17:32.495Z</time></trkpt><trkpt lat="40.9709083" lon="15.387525"><ele>797.0</ele><time>2026-03-28T09:17:34.496Z</time></trkpt><trkpt lat="40.97082" lon="15.38746"><ele>797.0</ele><time>2026-03-28T09:17:36.495Z</time></trkpt><trkpt lat="40.970755" lon="15.38741"><ele>797.0</ele><time>2026-03-28T09:17:38.495Z</time></trkpt><trkpt lat="40.9706783" lon="15.3873483"><ele>797.0000000000001</ele><time>2026-03-28T09:17:41.496Z</time></trkpt><trkpt lat="40.970615" lon="15.3872983"><ele>797.0</ele><time>2026-03-28T09:17:43.495Z</time></trkpt><trkpt lat="40.9705533" lon="15.38725"><ele>797.5000000000001</ele><time>2026-03-28T09:17:45.496Z</time></trkpt><trkpt lat="40.9704917" lon="15.3872"><ele>798.0</ele><time>2026-03-28T09:17:47.496Z</time></trkpt><trkpt lat="40.97042" lon="15.38715"><ele>798.5</ele><time>2026-03-28T09:17:49.495Z</time></trkpt><trkpt lat="40.9703567" lon="15.387105"><ele>799.0</ele><time>2026-03-28T09:17:51.496Z</time></trkpt><trkpt lat="40.9703" lon="15.38706"><ele>799.5000000000001</ele><time>2026-03-28T09:17:53.496Z</time></trkpt><trkpt lat="40.9702333" lon="15.3870067"><ele>800.0</ele><time>2026-03-28T09:17:55.496Z</time></trkpt><trkpt lat="40.9701533" lon="15.3869517"><ele>800.0000000000001</ele><time>2026-03-28T09:17:57.496Z</time></trkpt><trkpt lat="40.9700883" lon="15.386935"><ele>800.0</ele><time>2026-03-28T09:17:59.496Z</time></trkpt><trkpt lat="40.9700133" lon="15.38693"><ele>800.0</ele><time>2026-03-28T09:18:01.495Z</time></trkpt><trkpt lat="40.969935" lon="15.3869617"><ele>800.0</ele><time>2026-03-28T09:18:03.496Z</time></trkpt><trkpt lat="40.9698717" lon="15.387005"><ele>800.0000000000001</ele><time>2026-03-28T09:18:05.495Z</time></trkpt><trkpt lat="40.9698" lon="15.3870583"><ele>800.0</ele><time>2026-03-28T09:18:07.495Z</time></trkpt><trkpt lat="40.9697333" lon="15.3870983"><ele>800.5714285714287</ele><time>2026-03-28T09:18:09.496Z</time></trkpt><trkpt lat="40.9696733" lon="15.387135"><ele>801.1428571428571</ele><time>2026-03-28T09:18:11.495Z</time></trkpt><trkpt lat="40.9696133" lon="15.3871733"><ele>801.7142857142858</ele><time>2026-03-28T09:18:13.496Z</time></trkpt><trkpt lat="40.9695417" lon="15.3871933"><ele>802.2857142857143</ele><time>2026-03-28T09:18:15.496Z</time></trkpt><trkpt lat="40.9694567" lon="15.38721"><ele>802.8571428571429</ele><time>2026-03-28T09:18:17.496Z</time></trkpt><trkpt lat="40.9693817" lon="15.3872283"><ele>803.4285714285714</ele><time>2026-03-28T09:18:19.496Z</time></trkpt><trkpt lat="40.9693083" lon="15.3872467"><ele>804.0</ele><time>2026-03-28T09:18:21.496Z</time></trkpt><trkpt lat="40.969235" lon="15.3872583"><ele>804.0</ele><time>2026-03-28T09:18:23.495Z</time></trkpt><trkpt lat="40.9691667" lon="15.387265"><ele>804.0</ele><time>2026-03-28T09:18:25.495Z</time></trkpt><trkpt lat="40.9691" lon="15.3872617"><ele>804.0</ele><time>2026-03-28T09:18:27.496Z</time></trkpt><trkpt lat="40.96903" lon="15.3872567"><ele>804.0</ele><time>2026-03-28T09:18:29.496Z</time></trkpt><trkpt lat="40.9689567" lon="15.3872333"><ele>804.0</ele><time>2026-03-28T09:18:31.495Z</time></trkpt><trkpt lat="40.9688733" lon="15.3871917"><ele>804.0</ele><time>2026-03-28T09:18:33.496Z</time></trkpt><trkpt lat="40.9687983" lon="15.3871283"><ele>804.0</ele><time>2026-03-28T09:18:35.496Z</time></trkpt><trkpt lat="40.9687517" lon="15.3870533"><ele>804.0</ele><time>2026-03-28T09:18:37.496Z</time></trkpt><trkpt lat="40.9687117" lon="15.3869733"><ele>804.0</ele><time>2026-03-28T09:18:39.495Z</time></trkpt><trkpt lat="40.9686767" lon="15.3869"><ele>804.0</ele><time>2026-03-28T09:18:41.495Z</time></trkpt><trkpt lat="40.9686267" lon="15.3868333"><ele>804.0</ele><time>2026-03-28T09:18:43.496Z</time></trkpt><trkpt lat="40.968565" lon="15.3867633"><ele>804.0</ele><time>2026-03-28T09:18:45.496Z</time></trkpt><trkpt lat="40.9684933" lon="15.3867167"><ele>804.0</ele><time>2026-03-28T09:18:47.495Z</time></trkpt><trkpt lat="40.9684217" lon="15.3866583"><ele>801.6666666666666</ele><time>2026-03-28T09:18:49.495Z</time></trkpt><trkpt lat="40.9683567" lon="15.3866133"><ele>799.3333333333333</ele><time>2026-03-28T09:18:51.495Z</time></trkpt><trkpt lat="40.9682717" lon="15.3865633"><ele>797.0</ele><time>2026-03-28T09:18:53.496Z</time></trkpt><trkpt lat="40.96819" lon="15.386515"><ele>794.6666666666666</ele><time>2026-03-28T09:18:55.496Z</time></trkpt><trkpt lat="40.9681233" lon="15.38648"><ele>792.3333333333333</ele><time>2026-03-28T09:18:57.495Z</time></trkpt><trkpt lat="40.96805" lon="15.38646"><ele>790.0</ele><time>2026-03-28T09:19:00.495Z</time></trkpt><trkpt lat="40.9679567" lon="15.386455"><ele>790.0</ele><time>2026-03-28T09:19:08.496Z</time></trkpt><trkpt lat="40.967885" lon="15.3864367"><ele>790.0</ele><time>2026-03-28T09:19:13.495Z</time></trkpt><trkpt lat="40.9678133" lon="15.3864017"><ele>790.0</ele><time>2026-03-28T09:19:20.497Z</time></trkpt><trkpt lat="40.9677533" lon="15.3863617"><ele>790.0</ele><time>2026-03-28T09:19:24.496Z</time></trkpt><trkpt lat="40.96769" lon="15.386335"><ele>790.0</ele><time>2026-03-28T09:19:26.496Z</time></trkpt><trkpt lat="40.967615" lon="15.3863017"><ele>790.0</ele><time>2026-03-28T09:19:28.497Z</time></trkpt><trkpt lat="40.9675333" lon="15.386265"><ele>790.0</ele><time>2026-03-28T09:19:30.497Z</time></trkpt><trkpt lat="40.9674567" lon="15.38623"><ele>789.1666666666666</ele><time>2026-03-28T09:19:32.497Z</time></trkpt><trkpt lat="40.9673783" lon="15.3861933"><ele>788.3333333333333</ele><time>2026-03-28T09:19:35.496Z</time></trkpt><trkpt lat="40.9673017" lon="15.38617"><ele>787.5</ele><time>2026-03-28T09:19:38.496Z</time></trkpt><trkpt lat="40.9672233" lon="15.3861417"><ele>786.6666666666667</ele><time>2026-03-28T09:19:41.496Z</time></trkpt><trkpt lat="40.9671467" lon="15.386125"><ele>785.8333333333334</ele><time>2026-03-28T09:19:44.496Z</time></trkpt><trkpt lat="40.9670783" lon="15.3860983"><ele>785.0</ele><time>2026-03-28T09:19:47.497Z</time></trkpt><trkpt lat="40.9669983" lon="15.38608"><ele>785.0000000000001</ele><time>2026-03-28T09:19:52.496Z</time></trkpt><trkpt lat="40.9669083" lon="15.38608"><ele>785.0</ele><time>2026-03-28T09:19:55.496Z</time></trkpt><trkpt lat="40.966825" lon="15.38608"><ele>785.0</ele><time>2026-03-28T09:19:57.496Z</time></trkpt><trkpt lat="40.9667233" lon="15.3860783"><ele>785.0</ele><time>2026-03-28T09:19:59.496Z</time></trkpt><trkpt lat="40.9666433" lon="15.3860683"><ele>785.0000000000001</ele><time>2026-03-28T09:20:01.497Z</time></trkpt><trkpt lat="40.966565" lon="15.3860533"><ele>785.0</ele><time>2026-03-28T09:20:03.497Z</time></trkpt><trkpt lat="40.9664883" lon="15.3860333"><ele>783.8333333333334</ele><time>2026-03-28T09:20:05.496Z</time></trkpt><trkpt lat="40.9664217" lon="15.38598"><ele>782.6666666666667</ele><time>2026-03-28T09:20:07.497Z</time></trkpt><trkpt lat="40.9663617" lon="15.3859067"><ele>781.5</ele><time>2026-03-28T09:20:09.497Z</time></trkpt><trkpt lat="40.96631" lon="15.3858417"><ele>780.3333333333333</ele><time>2026-03-28T09:20:11.497Z</time></trkpt><trkpt lat="40.96624" lon="15.38576"><ele>779.1666666666666</ele><time>2026-03-28T09:20:13.496Z</time></trkpt><trkpt lat="40.9661667" lon="15.3856883"><ele>778.0</ele><time>2026-03-28T09:20:15.497Z</time></trkpt><trkpt lat="40.966085" lon="15.3856433"><ele>777.9999999999999</ele><time>2026-03-28T09:20:17.497Z</time></trkpt><trkpt lat="40.9660133" lon="15.3856033"><ele>778.0</ele><time>2026-03-28T09:20:19.496Z</time></trkpt><trkpt lat="40.96594" lon="15.3855533"><ele>778.0</ele><time>2026-03-28T09:20:21.497Z</time></trkpt><trkpt lat="40.96587" lon="15.3854917"><ele>778.0</ele><time>2026-03-28T09:20:23.496Z</time></trkpt><trkpt lat="40.9658167" lon="15.3854017"><ele>777.9999999999999</ele><time>2026-03-28T09:20:25.496Z</time></trkpt><trkpt lat="40.9657517" lon="15.3853117"><ele>778.0</ele><time>2026-03-28T09:20:27.497Z</time></trkpt><trkpt lat="40.96568" lon="15.3852267"><ele>779.8333333333333</ele><time>2026-03-28T09:20:29.497Z</time></trkpt><trkpt lat="40.9656233" lon="15.3851717"><ele>781.6666666666666</ele><time>2026-03-28T09:20:31.496Z</time></trkpt><trkpt lat="40.965585" lon="15.385105"><ele>783.5</ele><time>2026-03-28T09:20:41.497Z</time></trkpt><trkpt lat="40.96565" lon="15.38504"><ele>785.3333333333333</ele><time>2026-03-28T09:20:45.497Z</time></trkpt><trkpt lat="40.9656917" lon="15.384935"><ele>787.1666666666666</ele><time>2026-03-28T09:20:48.497Z</time></trkpt><trkpt lat="40.9656717" lon="15.38482"><ele>789.0</ele><time>2026-03-28T09:20:50.496Z</time></trkpt><trkpt lat="40.9656483" lon="15.3846883"><ele>791.0</ele><time>2026-03-28T09:20:52.496Z</time></trkpt><trkpt lat="40.9656283" lon="15.384555"><ele>793.0</ele><time>2026-03-28T09:20:54.497Z</time></trkpt><trkpt lat="40.9656117" lon="15.3844217"><ele>795.0</ele><time>2026-03-28T09:20:56.496Z</time></trkpt><trkpt lat="40.96559" lon="15.384305"><ele>797.0</ele><time>2026-03-28T09:20:58.496Z</time></trkpt><trkpt lat="40.9655733" lon="15.3841917"><ele>799.0</ele><time>2026-03-28T09:21:00.496Z</time></trkpt><trkpt lat="40.9655733" lon="15.3840783"><ele>799.0</ele><time>2026-03-28T09:21:02.496Z</time></trkpt><trkpt lat="40.9655933" lon="15.38393"><ele>799.0</ele><time>2026-03-28T09:21:04.496Z</time></trkpt><trkpt lat="40.9656183" lon="15.3837933"><ele>799.0</ele><time>2026-03-28T09:21:06.496Z</time></trkpt><trkpt lat="40.9656483" lon="15.3836533"><ele>799.0</ele><time>2026-03-28T09:21:08.497Z</time></trkpt><trkpt lat="40.9656717" lon="15.3835017"><ele>799.0</ele><time>2026-03-28T09:21:10.496Z</time></trkpt><trkpt lat="40.9656783" lon="15.3834183"><ele>800.4999999999999</ele><time>2026-03-28T09:21:11.497Z</time></trkpt><trkpt lat="40.9656833" lon="15.383335"><ele>802.0</ele><time>2026-03-28T09:21:12.497Z</time></trkpt><trkpt lat="40.9656883" lon="15.3831767"><ele>803.5</ele><time>2026-03-28T09:21:14.497Z</time></trkpt><trkpt lat="40.9656867" lon="15.3830933"><ele>805.0</ele><time>2026-03-28T09:21:15.497Z</time></trkpt><trkpt lat="40.9656783" lon="15.382955"><ele>806.4999999999999</ele><time>2026-03-28T09:21:17.497Z</time></trkpt><trkpt lat="40.9656933" lon="15.3828433"><ele>808.0</ele><time>2026-03-28T09:21:19.497Z</time></trkpt><trkpt lat="40.9657217" lon="15.3827333"><ele>809.5999999999999</ele><time>2026-03-28T09:21:21.497Z</time></trkpt><trkpt lat="40.9657533" lon="15.3826217"><ele>811.1999999999999</ele><time>2026-03-28T09:21:23.496Z</time></trkpt><trkpt lat="40.96575" lon="15.38251"><ele>812.8</ele><time>2026-03-28T09:21:25.497Z</time></trkpt><trkpt lat="40.9657317" lon="15.3824017"><ele>814.4</ele><time>2026-03-28T09:21:27.496Z</time></trkpt><trkpt lat="40.96574" lon="15.3822683"><ele>816.0</ele><time>2026-03-28T09:21:29.496Z</time></trkpt><trkpt lat="40.9658033" lon="15.38217"><ele>817.6666666666666</ele><time>2026-03-28T09:21:32.497Z</time></trkpt><trkpt lat="40.9659067" lon="15.38212"><ele>819.3333333333333</ele><time>2026-03-28T09:21:34.496Z</time></trkpt><trkpt lat="40.96597" lon="15.3820917"><ele>821.0</ele><time>2026-03-28T09:21:35.497Z</time></trkpt><trkpt lat="40.9660283" lon="15.3820567"><ele>822.6666666666666</ele><time>2026-03-28T09:21:36.497Z</time></trkpt><trkpt lat="40.9660917" lon="15.3820217"><ele>824.3333333333333</ele><time>2026-03-28T09:21:37.497Z</time></trkpt><trkpt lat="40.9661583" lon="15.3819717"><ele>826.0</ele><time>2026-03-28T09:21:38.497Z</time></trkpt><trkpt lat="40.9662333" lon="15.3819283"><ele>825.9999999999999</ele><time>2026-03-28T09:21:39.497Z</time></trkpt><trkpt lat="40.966305" lon="15.3818933"><ele>826.0</ele><time>2026-03-28T09:21:40.496Z</time></trkpt><trkpt lat="40.9663767" lon="15.381865"><ele>826.0</ele><time>2026-03-28T09:21:41.496Z</time></trkpt><trkpt lat="40.9664433" lon="15.3818383"><ele>826.0</ele><time>2026-03-28T09:21:42.496Z</time></trkpt><trkpt lat="40.966515" lon="15.38181"><ele>825.9999999999999</ele><time>2026-03-28T09:21:43.497Z</time></trkpt><trkpt lat="40.966595" lon="15.3817717"><ele>826.0</ele><time>2026-03-28T09:21:44.497Z</time></trkpt><trkpt lat="40.9666667" lon="15.381735"><ele>828.1666666666666</ele><time>2026-03-28T09:21:45.497Z</time></trkpt><trkpt lat="40.9667417" lon="15.3816967"><ele>830.3333333333333</ele><time>2026-03-28T09:21:46.497Z</time></trkpt><trkpt lat="40.9668167" lon="15.3816467"><ele>832.5</ele><time>2026-03-28T09:21:47.497Z</time></trkpt><trkpt lat="40.9668883" lon="15.3815967"><ele>834.6666666666667</ele><time>2026-03-28T09:21:48.497Z</time></trkpt><trkpt lat="40.9669633" lon="15.3815433"><ele>836.8333333333334</ele><time>2026-03-28T09:21:49.496Z</time></trkpt><trkpt lat="40.967035" lon="15.381485"><ele>839.0</ele><time>2026-03-28T09:21:50.497Z</time></trkpt><trkpt lat="40.9671" lon="15.3814267"><ele>839.0000000000001</ele><time>2026-03-28T09:21:51.497Z</time></trkpt><trkpt lat="40.9671617" lon="15.3813617"><ele>839.0</ele><time>2026-03-28T09:21:52.496Z</time></trkpt><trkpt lat="40.9672133" lon="15.3812983"><ele>839.0</ele><time>2026-03-28T09:21:53.497Z</time></trkpt><trkpt lat="40.9672633" lon="15.3812283"><ele>839.0</ele><time>2026-03-28T09:21:54.496Z</time></trkpt><trkpt lat="40.9673183" lon="15.3811617"><ele>839.0000000000001</ele><time>2026-03-28T09:21:55.496Z</time></trkpt><trkpt lat="40.9673817" lon="15.3810917"><ele>839.0</ele><time>2026-03-28T09:21:56.496Z</time></trkpt><trkpt lat="40.9674433" lon="15.3810217"><ele>840.0000000000001</ele><time>2026-03-28T09:21:57.497Z</time></trkpt><trkpt lat="40.9675083" lon="15.38095"><ele>841.0</ele><time>2026-03-28T09:21:58.497Z</time></trkpt><trkpt lat="40.9675717" lon="15.3808833"><ele>842.0</ele><time>2026-03-28T09:21:59.497Z</time></trkpt><trkpt lat="40.96763" lon="15.3808167"><ele>843.0</ele><time>2026-03-28T09:22:00.496Z</time></trkpt><trkpt lat="40.96768" lon="15.3807483"><ele>844.0000000000001</ele><time>2026-03-28T09:22:01.497Z</time></trkpt><trkpt lat="40.9677233" lon="15.38068"><ele>845.0</ele><time>2026-03-28T09:22:02.496Z</time></trkpt><trkpt lat="40.9677683" lon="15.38061"><ele>845.6666666666667</ele><time>2026-03-28T09:22:03.496Z</time></trkpt><trkpt lat="40.9678117" lon="15.3805383"><ele>846.3333333333334</ele><time>2026-03-28T09:22:04.497Z</time></trkpt><trkpt lat="40.9678567" lon="15.380465"><ele>847.0</ele><time>2026-03-28T09:22:05.497Z</time></trkpt><trkpt lat="40.967905" lon="15.3804083"><ele>847.6666666666667</ele><time>2026-03-28T09:22:06.497Z</time></trkpt><trkpt lat="40.9679933" lon="15.3803317"><ele>848.3333333333334</ele><time>2026-03-28T09:22:08.496Z</time></trkpt><trkpt lat="40.9680833" lon="15.3802583"><ele>849.0</ele><time>2026-03-28T09:22:10.496Z</time></trkpt><trkpt lat="40.9681867" lon="15.3802267"><ele>849.0</ele><time>2026-03-28T09:22:12.496Z</time></trkpt><trkpt lat="40.968255" lon="15.380235"><ele>849.0</ele><time>2026-03-28T09:22:13.497Z</time></trkpt><trkpt lat="40.9683283" lon="15.3802667"><ele>849.0</ele><time>2026-03-28T09:22:14.497Z</time></trkpt><trkpt lat="40.9683983" lon="15.3803167"><ele>849.0</ele><time>2026-03-28T09:22:15.497Z</time></trkpt><trkpt lat="40.9684733" lon="15.3803767"><ele>849.0</ele><time>2026-03-28T09:22:16.497Z</time></trkpt><trkpt lat="40.9685417" lon="15.3804483"><ele>849.0</ele><time>2026-03-28T09:22:17.497Z</time></trkpt><trkpt lat="40.9686033" lon="15.38052"><ele>849.4285714285714</ele><time>2026-03-28T09:22:18.496Z</time></trkpt><trkpt lat="40.9686483" lon="15.3805883"><ele>849.8571428571429</ele><time>2026-03-28T09:22:19.496Z</time></trkpt><trkpt lat="40.9686917" lon="15.3806533"><ele>850.2857142857142</ele><time>2026-03-28T09:22:20.497Z</time></trkpt><trkpt lat="40.9687383" lon="15.3807167"><ele>850.7142857142858</ele><time>2026-03-28T09:22:21.496Z</time></trkpt><trkpt lat="40.9687917" lon="15.3807833"><ele>851.1428571428571</ele><time>2026-03-28T09:22:22.496Z</time></trkpt><trkpt lat="40.9688483" lon="15.3808433"><ele>851.5714285714286</ele><time>2026-03-28T09:22:23.496Z</time></trkpt><trkpt lat="40.9689117" lon="15.3808967"><ele>852.0</ele><time>2026-03-28T09:22:24.496Z</time></trkpt><trkpt lat="40.968985" lon="15.3809383"><ele>852.0</ele><time>2026-03-28T09:22:25.496Z</time></trkpt><trkpt lat="40.9690667" lon="15.3809633"><ele>852.0</ele><time>2026-03-28T09:22:26.496Z</time></trkpt><trkpt lat="40.96915" lon="15.3809583"><ele>852.0</ele><time>2026-03-28T09:22:27.497Z</time></trkpt><trkpt lat="40.9692383" lon="15.3809433"><ele>852.0</ele><time>2026-03-28T09:22:28.496Z</time></trkpt><trkpt lat="40.9693283" lon="15.3809167"><ele>852.0</ele><time>2026-03-28T09:22:29.496Z</time></trkpt><trkpt lat="40.9694167" lon="15.3808917"><ele>852.0</ele><time>2026-03-28T09:22:30.496Z</time></trkpt><trkpt lat="40.969505" lon="15.3808783"><ele>851.8</ele><time>2026-03-28T09:22:31.496Z</time></trkpt><trkpt lat="40.9695867" lon="15.38086"><ele>851.6</ele><time>2026-03-28T09:22:32.497Z</time></trkpt><trkpt lat="40.96967" lon="15.3808317"><ele>851.4</ele><time>2026-03-28T09:22:33.497Z</time></trkpt><trkpt lat="40.969755" lon="15.3807933"><ele>851.1999999999999</ele><time>2026-03-28T09:22:34.497Z</time></trkpt><trkpt lat="40.96984" lon="15.3807333"><ele>851.0</ele><time>2026-03-28T09:22:35.497Z</time></trkpt><trkpt lat="40.9699233" lon="15.3806583"><ele>851.0</ele><time>2026-03-28T09:22:36.496Z</time></trkpt><trkpt lat="40.9699967" lon="15.3805783"><ele>851.0</ele><time>2026-03-28T09:22:37.497Z</time></trkpt><trkpt lat="40.9700633" lon="15.3804967"><ele>851.0</ele><time>2026-03-28T09:22:38.496Z</time></trkpt><trkpt lat="40.9701267" lon="15.380405"><ele>851.0</ele><time>2026-03-28T09:22:39.496Z</time></trkpt><trkpt lat="40.97019" lon="15.3803117"><ele>851.0</ele><time>2026-03-28T09:22:40.497Z</time></trkpt><trkpt lat="40.9702533" lon="15.3802183"><ele>850.1999999999999</ele><time>2026-03-28T09:22:41.497Z</time></trkpt><trkpt lat="40.9703133" lon="15.3801167"><ele>849.4</ele><time>2026-03-28T09:22:42.497Z</time></trkpt><trkpt lat="40.9703683" lon="15.3800133"><ele>848.6</ele><time>2026-03-28T09:22:43.496Z</time></trkpt><trkpt lat="40.970425" lon="15.3799033"><ele>847.8</ele><time>2026-03-28T09:22:44.497Z</time></trkpt><trkpt lat="40.9704833" lon="15.3797933"><ele>847.0</ele><time>2026-03-28T09:22:45.497Z</time></trkpt><trkpt lat="40.970545" lon="15.3796783"><ele>847.0</ele><time>2026-03-28T09:22:46.497Z</time></trkpt><trkpt lat="40.9706083" lon="15.3795633"><ele>847.0</ele><time>2026-03-28T09:22:47.497Z</time></trkpt><trkpt lat="40.9706683" lon="15.3794483"><ele>847.0</ele><time>2026-03-28T09:22:48.497Z</time></trkpt><trkpt lat="40.9707333" lon="15.379325"><ele>847.0</ele><time>2026-03-28T09:22:49.497Z</time></trkpt><trkpt lat="40.97079" lon="15.3792067"><ele>847.0</ele><time>2026-03-28T09:22:50.496Z</time></trkpt><trkpt lat="40.970845" lon="15.3790933"><ele>846.4000000000001</ele><time>2026-03-28T09:22:51.497Z</time></trkpt><trkpt lat="40.97091" lon="15.3789883"><ele>845.8000000000001</ele><time>2026-03-28T09:22:52.496Z</time></trkpt><trkpt lat="40.970975" lon="15.37888"><ele>845.2</ele><time>2026-03-28T09:22:53.496Z</time></trkpt><trkpt lat="40.9710417" lon="15.37877"><ele>844.6</ele><time>2026-03-28T09:22:54.497Z</time></trkpt><trkpt lat="40.9711117" lon="15.3786683"><ele>844.0</ele><time>2026-03-28T09:22:55.496Z</time></trkpt><trkpt lat="40.9711917" lon="15.3785667"><ele>844.0</ele><time>2026-03-28T09:22:56.497Z</time></trkpt><trkpt lat="40.971275" lon="15.3784583"><ele>844.0</ele><time>2026-03-28T09:22:57.496Z</time></trkpt><trkpt lat="40.97136" lon="15.378365"><ele>844.0</ele><time>2026-03-28T09:22:58.497Z</time></trkpt><trkpt lat="40.9714517" lon="15.3782633"><ele>844.0</ele><time>2026-03-28T09:22:59.496Z</time></trkpt><trkpt lat="40.9715367" lon="15.378165"><ele>844.0</ele><time>2026-03-28T09:23:00.497Z</time></trkpt><trkpt lat="40.9716283" lon="15.37806"><ele>844.0</ele><time>2026-03-28T09:23:01.497Z</time></trkpt><trkpt lat="40.97172" lon="15.3779617"><ele>844.0</ele><time>2026-03-28T09:23:02.497Z</time></trkpt><trkpt lat="40.9718117" lon="15.3778617"><ele>844.0</ele><time>2026-03-28T09:23:03.497Z</time></trkpt><trkpt lat="40.9718983" lon="15.377755"><ele>843.8000000000001</ele><time>2026-03-28T09:23:04.496Z</time></trkpt><trkpt lat="40.97198" lon="15.3776583"><ele>843.6</ele><time>2026-03-28T09:23:05.496Z</time></trkpt><trkpt lat="40.9720617" lon="15.3775583"><ele>843.4</ele><time>2026-03-28T09:23:06.496Z</time></trkpt><trkpt lat="40.9721417" lon="15.377465"><ele>843.2</ele><time>2026-03-28T09:23:07.497Z</time></trkpt><trkpt lat="40.9722217" lon="15.377375"><ele>843.0</ele><time>2026-03-28T09:23:08.497Z</time></trkpt><trkpt lat="40.9723033" lon="15.377285"><ele>843.0</ele><time>2026-03-28T09:23:09.496Z</time></trkpt><trkpt lat="40.9723833" lon="15.377195"><ele>843.0</ele><time>2026-03-28T09:23:10.497Z</time></trkpt><trkpt lat="40.9724583" lon="15.37709"><ele>843.0</ele><time>2026-03-28T09:23:11.497Z</time></trkpt><trkpt lat="40.972535" lon="15.376985"><ele>843.0</ele><time>2026-03-28T09:23:12.497Z</time></trkpt><trkpt lat="40.9726117" lon="15.37688"><ele>843.0</ele><time>2026-03-28T09:23:13.497Z</time></trkpt><trkpt lat="40.9726833" lon="15.3767833"><ele>843.4</ele><time>2026-03-28T09:23:14.497Z</time></trkpt><trkpt lat="40.972755" lon="15.3766883"><ele>843.8</ele><time>2026-03-28T09:23:15.496Z</time></trkpt><trkpt lat="40.9728283" lon="15.3766"><ele>844.2</ele><time>2026-03-28T09:23:16.496Z</time></trkpt><trkpt lat="40.972905" lon="15.376505"><ele>844.6</ele><time>2026-03-28T09:23:17.497Z</time></trkpt><trkpt lat="40.97299" lon="15.376405"><ele>845.0</ele><time>2026-03-28T09:23:18.497Z</time></trkpt><trkpt lat="40.973075" lon="15.376315"><ele>845.0</ele><time>2026-03-28T09:23:19.496Z</time></trkpt><trkpt lat="40.9731667" lon="15.376235"><ele>845.0</ele><time>2026-03-28T09:23:20.497Z</time></trkpt><trkpt lat="40.9732583" lon="15.37615"><ele>845.0</ele><time>2026-03-28T09:23:21.497Z</time></trkpt><trkpt lat="40.97335" lon="15.3760717"><ele>845.0</ele><time>2026-03-28T09:23:22.497Z</time></trkpt><trkpt lat="40.9734367" lon="15.3759983"><ele>845.0</ele><time>2026-03-28T09:23:23.497Z</time></trkpt><trkpt lat="40.9735217" lon="15.375925"><ele>844.75</ele><time>2026-03-28T09:23:24.497Z</time></trkpt><trkpt lat="40.973615" lon="15.3758517"><ele>844.5</ele><time>2026-03-28T09:23:25.497Z</time></trkpt><trkpt lat="40.9737183" lon="15.3757833"><ele>844.25</ele><time>2026-03-28T09:23:26.496Z</time></trkpt><trkpt lat="40.97382" lon="15.3757133"><ele>844.0</ele><time>2026-03-28T09:23:27.497Z</time></trkpt><trkpt lat="40.97392" lon="15.3756417"><ele>844.0</ele><time>2026-03-28T09:23:28.496Z</time></trkpt><trkpt lat="40.9740217" lon="15.3755567"><ele>844.0</ele><time>2026-03-28T09:23:29.497Z</time></trkpt><trkpt lat="40.9741133" lon="15.3754767"><ele>844.0</ele><time>2026-03-28T09:23:30.496Z</time></trkpt><trkpt lat="40.9742033" lon="15.3753983"><ele>844.0</ele><time>2026-03-28T09:23:31.496Z</time></trkpt><trkpt lat="40.974285" lon="15.3753217"><ele>844.0</ele><time>2026-03-28T09:23:32.497Z</time></trkpt><trkpt lat="40.9743667" lon="15.3752467"><ele>843.4000000000001</ele><time>2026-03-28T09:23:33.496Z</time></trkpt><trkpt lat="40.9744517" lon="15.3751717"><ele>842.8</ele><time>2026-03-28T09:23:34.496Z</time></trkpt><trkpt lat="40.9745367" lon="15.3751067"><ele>842.2</ele><time>2026-03-28T09:23:35.497Z</time></trkpt><trkpt lat="40.9746267" lon="15.37503"><ele>841.5999999999999</ele><time>2026-03-28T09:23:36.497Z</time></trkpt><trkpt lat="40.9747233" lon="15.3749483"><ele>841.0</ele><time>2026-03-28T09:23:37.496Z</time></trkpt><trkpt lat="40.9748267" lon="15.3748683"><ele>841.0</ele><time>2026-03-28T09:23:38.496Z</time></trkpt><trkpt lat="40.9749217" lon="15.374795"><ele>841.0</ele><time>2026-03-28T09:23:39.496Z</time></trkpt><trkpt lat="40.9750167" lon="15.3747233"><ele>841.0</ele><time>2026-03-28T09:23:40.496Z</time></trkpt><trkpt lat="40.9751167" lon="15.3746583"><ele>841.0</ele><time>2026-03-28T09:23:41.497Z</time></trkpt><trkpt lat="40.9752183" lon="15.3745817"><ele>841.0</ele><time>2026-03-28T09:23:42.497Z</time></trkpt><trkpt lat="40.9753233" lon="15.3745"><ele>840.0</ele><time>2026-03-28T09:23:43.496Z</time></trkpt><trkpt lat="40.9754267" lon="15.3744217"><ele>839.0</ele><time>2026-03-28T09:23:44.496Z</time></trkpt><trkpt lat="40.975525" lon="15.37435"><ele>838.0</ele><time>2026-03-28T09:23:45.497Z</time></trkpt><trkpt lat="40.9756267" lon="15.3742783"><ele>837.0</ele><time>2026-03-28T09:23:46.497Z</time></trkpt><trkpt lat="40.9757233" lon="15.3742033"><ele>837.0</ele><time>2026-03-28T09:23:47.496Z</time></trkpt><trkpt lat="40.9758183" lon="15.3741283"><ele>837.0</ele><time>2026-03-28T09:23:48.496Z</time></trkpt><trkpt lat="40.9759133" lon="15.3740583"><ele>837.0</ele><time>2026-03-28T09:23:49.496Z</time></trkpt><trkpt lat="40.976015" lon="15.3739867"><ele>837.0</ele><time>2026-03-28T09:23:50.497Z</time></trkpt><trkpt lat="40.9761167" lon="15.37392"><ele>837.0</ele><time>2026-03-28T09:23:51.497Z</time></trkpt><trkpt lat="40.976215" lon="15.3738567"><ele>836.4000000000001</ele><time>2026-03-28T09:23:52.497Z</time></trkpt><trkpt lat="40.97631" lon="15.3737867"><ele>835.8000000000001</ele><time>2026-03-28T09:23:53.496Z</time></trkpt><trkpt lat="40.9764067" lon="15.3737167"><ele>835.2</ele><time>2026-03-28T09:23:54.497Z</time></trkpt><trkpt lat="40.9765" lon="15.373655"><ele>834.6</ele><time>2026-03-28T09:23:55.496Z</time></trkpt><trkpt lat="40.9765933" lon="15.37359"><ele>834.0</ele><time>2026-03-28T09:23:56.496Z</time></trkpt><trkpt lat="40.97668" lon="15.3735367"><ele>833.6666666666666</ele><time>2026-03-28T09:23:57.497Z</time></trkpt><trkpt lat="40.9767567" lon="15.3734867"><ele>833.3333333333333</ele><time>2026-03-28T09:23:58.497Z</time></trkpt><trkpt lat="40.9768283" lon="15.3734383"><ele>833.0</ele><time>2026-03-28T09:23:59.496Z</time></trkpt><trkpt lat="40.9768933" lon="15.3734033"><ele>832.6666666666666</ele><time>2026-03-28T09:24:00.496Z</time></trkpt><trkpt lat="40.97701" lon="15.373345"><ele>832.3333333333333</ele><time>2026-03-28T09:24:02.497Z</time></trkpt><trkpt lat="40.9770733" lon="15.3733233"><ele>832.0</ele><time>2026-03-28T09:24:03.496Z</time></trkpt><trkpt lat="40.977145" lon="15.3733183"><ele>831.9999999999999</ele><time>2026-03-28T09:24:04.497Z</time></trkpt><trkpt lat="40.9772233" lon="15.373325"><ele>832.0</ele><time>2026-03-28T09:24:05.497Z</time></trkpt><trkpt lat="40.9773083" lon="15.37334"><ele>832.0</ele><time>2026-03-28T09:24:06.497Z</time></trkpt><trkpt lat="40.9773933" lon="15.373365"><ele>832.0</ele><time>2026-03-28T09:24:07.496Z</time></trkpt><trkpt lat="40.9774717" lon="15.3733983"><ele>831.9999999999999</ele><time>2026-03-28T09:24:08.497Z</time></trkpt><trkpt lat="40.9775533" lon="15.3734467"><ele>832.0</ele><time>2026-03-28T09:24:09.497Z</time></trkpt><trkpt lat="40.9776433" lon="15.3735017"><ele>832.2</ele><time>2026-03-28T09:24:10.497Z</time></trkpt><trkpt lat="40.9777383" lon="15.3735617"><ele>832.4000000000001</ele><time>2026-03-28T09:24:11.496Z</time></trkpt><trkpt lat="40.977835" lon="15.3736267"><ele>832.5999999999999</ele><time>2026-03-28T09:24:12.496Z</time></trkpt><trkpt lat="40.9779267" lon="15.3736867"><ele>832.8</ele><time>2026-03-28T09:24:13.497Z</time></trkpt><trkpt lat="40.9780167" lon="15.3737483"><ele>833.0</ele><time>2026-03-28T09:24:14.497Z</time></trkpt><trkpt lat="40.9781067" lon="15.3738083"><ele>832.4</ele><time>2026-03-28T09:24:15.496Z</time></trkpt><trkpt lat="40.9782017" lon="15.37386"><ele>831.8</ele><time>2026-03-28T09:24:16.496Z</time></trkpt><trkpt lat="40.9782983" lon="15.373915"><ele>831.2</ele><time>2026-03-28T09:24:17.497Z</time></trkpt><trkpt lat="40.9783917" lon="15.3739717"><ele>830.6</ele><time>2026-03-28T09:24:18.497Z</time></trkpt><trkpt lat="40.9784783" lon="15.3740283"><ele>830.0</ele><time>2026-03-28T09:24:19.496Z</time></trkpt><trkpt lat="40.97857" lon="15.3740833"><ele>829.4</ele><time>2026-03-28T09:24:20.497Z</time></trkpt><trkpt lat="40.9786667" lon="15.3741333"><ele>828.8</ele><time>2026-03-28T09:24:21.497Z</time></trkpt><trkpt lat="40.9787717" lon="15.3741817"><ele>828.2</ele><time>2026-03-28T09:24:22.497Z</time></trkpt><trkpt lat="40.978875" lon="15.3742267"><ele>827.6</ele><time>2026-03-28T09:24:23.497Z</time></trkpt><trkpt lat="40.9789783" lon="15.3742683"><ele>827.0</ele><time>2026-03-28T09:24:24.497Z</time></trkpt><trkpt lat="40.9790817" lon="15.3743083"><ele>827.0</ele><time>2026-03-28T09:24:25.496Z</time></trkpt><trkpt lat="40.9791833" lon="15.374345"><ele>827.0</ele><time>2026-03-28T09:24:26.496Z</time></trkpt><trkpt lat="40.9792817" lon="15.374385"><ele>827.0</ele><time>2026-03-28T09:24:27.496Z</time></trkpt><trkpt lat="40.979385" lon="15.37443"><ele>827.0</ele><time>2026-03-28T09:24:28.497Z</time></trkpt><trkpt lat="40.9794917" lon="15.374475"><ele>827.0</ele><time>2026-03-28T09:24:29.497Z</time></trkpt><trkpt lat="40.9796067" lon="15.3745267"><ele>826.5</ele><time>2026-03-28T09:24:30.497Z</time></trkpt><trkpt lat="40.9797283" lon="15.3745733"><ele>826.0</ele><time>2026-03-28T09:24:31.496Z</time></trkpt><trkpt lat="40.9798567" lon="15.37461"><ele>825.5</ele><time>2026-03-28T09:24:32.497Z</time></trkpt><trkpt lat="40.9799933" lon="15.374645"><ele>825.0</ele><time>2026-03-28T09:24:33.497Z</time></trkpt><trkpt lat="40.9801333" lon="15.3746833"><ele>822.25</ele><time>2026-03-28T09:24:34.496Z</time></trkpt><trkpt lat="40.9802667" lon="15.3747133"><ele>819.5</ele><time>2026-03-28T09:24:35.497Z</time></trkpt><trkpt lat="40.980395" lon="15.3747417"><ele>816.75</ele><time>2026-03-28T09:24:36.496Z</time></trkpt><trkpt lat="40.9805183" lon="15.3747683"><ele>814.0</ele><time>2026-03-28T09:24:37.496Z</time></trkpt><trkpt lat="40.9806367" lon="15.37479"><ele>814.0</ele><time>2026-03-28T09:24:38.497Z</time></trkpt><trkpt lat="40.9807483" lon="15.3748083"><ele>814.0</ele><time>2026-03-28T09:24:39.496Z</time></trkpt><trkpt lat="40.98086" lon="15.374825"><ele>814.0</ele><time>2026-03-28T09:24:40.497Z</time></trkpt><trkpt lat="40.980975" lon="15.3748383"><ele>814.0</ele><time>2026-03-28T09:24:41.497Z</time></trkpt><trkpt lat="40.981095" lon="15.374845"><ele>813.25</ele><time>2026-03-28T09:24:42.496Z</time></trkpt><trkpt lat="40.981215" lon="15.3748483"><ele>812.5</ele><time>2026-03-28T09:24:43.496Z</time></trkpt><trkpt lat="40.9813433" lon="15.3748567"><ele>811.75</ele><time>2026-03-28T09:24:44.497Z</time></trkpt><trkpt lat="40.981465" lon="15.3748667"><ele>811.0</ele><time>2026-03-28T09:24:45.497Z</time></trkpt><trkpt lat="40.9815733" lon="15.374885"><ele>810.5</ele><time>2026-03-28T09:24:46.498Z</time></trkpt><trkpt lat="40.981685" lon="15.374895"><ele>810.0</ele><time>2026-03-28T09:24:47.497Z</time></trkpt><trkpt lat="40.9818017" lon="15.3748983"><ele>809.5</ele><time>2026-03-28T09:24:48.497Z</time></trkpt><trkpt lat="40.981915" lon="15.37491"><ele>809.0</ele><time>2026-03-28T09:24:49.497Z</time></trkpt><trkpt lat="40.9820283" lon="15.3749117"><ele>809.0</ele><time>2026-03-28T09:24:50.497Z</time></trkpt><trkpt lat="40.9821433" lon="15.3749083"><ele>809.0</ele><time>2026-03-28T09:24:51.498Z</time></trkpt><trkpt lat="40.9822633" lon="15.3749083"><ele>809.0</ele><time>2026-03-28T09:24:52.498Z</time></trkpt><trkpt lat="40.982385" lon="15.3749"><ele>809.0</ele><time>2026-03-28T09:24:53.498Z</time></trkpt><trkpt lat="40.982505" lon="15.3748833"><ele>808.0</ele><time>2026-03-28T09:24:54.497Z</time></trkpt><trkpt lat="40.9826183" lon="15.3748667"><ele>807.0</ele><time>2026-03-28T09:24:55.497Z</time></trkpt><trkpt lat="40.9827367" lon="15.3748433"><ele>806.0</ele><time>2026-03-28T09:24:56.498Z</time></trkpt><trkpt lat="40.9828567" lon="15.374825"><ele>805.0</ele><time>2026-03-28T09:24:57.497Z</time></trkpt><trkpt lat="40.9829717" lon="15.37481"><ele>805.0</ele><time>2026-03-28T09:24:58.498Z</time></trkpt><trkpt lat="40.983085" lon="15.374795"><ele>805.0</ele><time>2026-03-28T09:24:59.498Z</time></trkpt><trkpt lat="40.9831933" lon="15.374775"><ele>805.0</ele><time>2026-03-28T09:25:00.498Z</time></trkpt><trkpt lat="40.9833" lon="15.3747533"><ele>805.0</ele><time>2026-03-28T09:25:01.497Z</time></trkpt><trkpt lat="40.9834083" lon="15.3747317"><ele>805.0</ele><time>2026-03-28T09:25:02.497Z</time></trkpt><trkpt lat="40.98352" lon="15.3747167"><ele>804.0</ele><time>2026-03-28T09:25:03.498Z</time></trkpt><trkpt lat="40.9836217" lon="15.3747083"><ele>803.0</ele><time>2026-03-28T09:25:04.498Z</time></trkpt><trkpt lat="40.9837283" lon="15.3747083"><ele>802.0</ele><time>2026-03-28T09:25:05.497Z</time></trkpt><trkpt lat="40.98384" lon="15.374715"><ele>801.0</ele><time>2026-03-28T09:25:06.497Z</time></trkpt><trkpt lat="40.9839517" lon="15.3747267"><ele>800.0</ele><time>2026-03-28T09:25:07.498Z</time></trkpt><trkpt lat="40.9840633" lon="15.3747483"><ele>800.0</ele><time>2026-03-28T09:25:08.497Z</time></trkpt><trkpt lat="40.9841733" lon="15.3747783"><ele>800.0</ele><time>2026-03-28T09:25:09.498Z</time></trkpt><trkpt lat="40.9842817" lon="15.3748067"><ele>800.0</ele><time>2026-03-28T09:25:10.498Z</time></trkpt><trkpt lat="40.9843883" lon="15.374835"><ele>800.0</ele><time>2026-03-28T09:25:11.497Z</time></trkpt><trkpt lat="40.9844983" lon="15.374865"><ele>800.0</ele><time>2026-03-28T09:25:12.498Z</time></trkpt><trkpt lat="40.98461" lon="15.3749033"><ele>798.0</ele><time>2026-03-28T09:25:13.497Z</time></trkpt><trkpt lat="40.9847217" lon="15.3749483"><ele>796.0</ele><time>2026-03-28T09:25:14.498Z</time></trkpt><trkpt lat="40.9848333" lon="15.374995"><ele>794.0</ele><time>2026-03-28T09:25:15.498Z</time></trkpt><trkpt lat="40.9849467" lon="15.3750433"><ele>792.0</ele><time>2026-03-28T09:25:16.497Z</time></trkpt><trkpt lat="40.9850567" lon="15.375095"><ele>790.6</ele><time>2026-03-28T09:25:17.497Z</time></trkpt><trkpt lat="40.9851617" lon="15.37514"><ele>789.2</ele><time>2026-03-28T09:25:18.498Z</time></trkpt><trkpt lat="40.98526" lon="15.3751833"><ele>787.8</ele><time>2026-03-28T09:25:19.498Z</time></trkpt><trkpt lat="40.98536" lon="15.3752267"><ele>786.4</ele><time>2026-03-28T09:25:20.497Z</time></trkpt><trkpt lat="40.98546" lon="15.3752717"><ele>785.0</ele><time>2026-03-28T09:25:21.498Z</time></trkpt><trkpt lat="40.9855633" lon="15.37532"><ele>785.0</ele><time>2026-03-28T09:25:22.497Z</time></trkpt><trkpt lat="40.98567" lon="15.3753733"><ele>785.0</ele><time>2026-03-28T09:25:23.497Z</time></trkpt><trkpt lat="40.9857817" lon="15.37543"><ele>785.0</ele><time>2026-03-28T09:25:24.497Z</time></trkpt><trkpt lat="40.9858917" lon="15.3754933"><ele>785.0</ele><time>2026-03-28T09:25:25.498Z</time></trkpt><trkpt lat="40.9860017" lon="15.375555"><ele>782.75</ele><time>2026-03-28T09:25:26.497Z</time></trkpt><trkpt lat="40.986115" lon="15.3756217"><ele>780.5</ele><time>2026-03-28T09:25:27.497Z</time></trkpt><trkpt lat="40.986225" lon="15.3756917"><ele>778.25</ele><time>2026-03-28T09:25:28.497Z</time></trkpt><trkpt lat="40.986335" lon="15.3757567"><ele>776.0</ele><time>2026-03-28T09:25:29.498Z</time></trkpt><trkpt lat="40.9864383" lon="15.375825"><ele>776.0</ele><time>2026-03-28T09:25:30.497Z</time></trkpt><trkpt lat="40.9865383" lon="15.3758933"><ele>776.0</ele><time>2026-03-28T09:25:31.497Z</time></trkpt><trkpt lat="40.9866267" lon="15.37596"><ele>776.0</ele><time>2026-03-28T09:25:32.497Z</time></trkpt><trkpt lat="40.9867183" lon="15.376025"><ele>776.0</ele><time>2026-03-28T09:25:33.497Z</time></trkpt><trkpt lat="40.986805" lon="15.3760867"><ele>776.0</ele><time>2026-03-28T09:25:34.498Z</time></trkpt><trkpt lat="40.9868883" lon="15.3761417"><ele>774.8</ele><time>2026-03-28T09:25:35.498Z</time></trkpt><trkpt lat="40.9869767" lon="15.3761967"><ele>773.5999999999999</ele><time>2026-03-28T09:25:36.498Z</time></trkpt><trkpt lat="40.987055" lon="15.3762517"><ele>772.4</ele><time>2026-03-28T09:25:37.497Z</time></trkpt><trkpt lat="40.9871383" lon="15.37631"><ele>771.2</ele><time>2026-03-28T09:25:38.498Z</time></trkpt><trkpt lat="40.9872233" lon="15.376365"><ele>770.0</ele><time>2026-03-28T09:25:39.497Z</time></trkpt><trkpt lat="40.9873133" lon="15.376415"><ele>769.0000000000001</ele><time>2026-03-28T09:25:40.498Z</time></trkpt><trkpt lat="40.9874" lon="15.3764633"><ele>768.0</ele><time>2026-03-28T09:25:41.497Z</time></trkpt><trkpt lat="40.9874833" lon="15.3765083"><ele>767.0</ele><time>2026-03-28T09:25:42.498Z</time></trkpt><trkpt lat="40.98756" lon="15.3765467"><ele>766.0</ele><time>2026-03-28T09:25:43.498Z</time></trkpt><trkpt lat="40.98763" lon="15.3765867"><ele>765.0</ele><time>2026-03-28T09:25:44.498Z</time></trkpt><trkpt lat="40.9876983" lon="15.3766283"><ele>764.0</ele><time>2026-03-28T09:25:45.498Z</time></trkpt><trkpt lat="40.98776" lon="15.37669"><ele>762.1666666666666</ele><time>2026-03-28T09:25:46.497Z</time></trkpt><trkpt lat="40.9878133" lon="15.3767833"><ele>760.3333333333333</ele><time>2026-03-28T09:25:47.498Z</time></trkpt><trkpt lat="40.9878483" lon="15.376895"><ele>758.5</ele><time>2026-03-28T09:25:48.498Z</time></trkpt><trkpt lat="40.9878617" lon="15.3770067"><ele>756.6666666666666</ele><time>2026-03-28T09:25:49.498Z</time></trkpt><trkpt lat="40.9878817" lon="15.377105"><ele>754.8333333333334</ele><time>2026-03-28T09:25:50.497Z</time></trkpt><trkpt lat="40.9879" lon="15.3771917"><ele>753.0</ele><time>2026-03-28T09:25:51.498Z</time></trkpt><trkpt lat="40.9879283" lon="15.3772667"><ele>752.2857142857143</ele><time>2026-03-28T09:25:52.497Z</time></trkpt><trkpt lat="40.987975" lon="15.3773267"><ele>751.5714285714287</ele><time>2026-03-28T09:25:53.498Z</time></trkpt><trkpt lat="40.9880383" lon="15.3773667"><ele>750.8571428571429</ele><time>2026-03-28T09:25:54.497Z</time></trkpt><trkpt lat="40.9881167" lon="15.3773783"><ele>750.1428571428571</ele><time>2026-03-28T09:25:55.498Z</time></trkpt><trkpt lat="40.9881933" lon="15.377365"><ele>749.4285714285714</ele><time>2026-03-28T09:25:56.498Z</time></trkpt><trkpt lat="40.9882633" lon="15.3773333"><ele>748.7142857142857</ele><time>2026-03-28T09:25:57.497Z</time></trkpt><trkpt lat="40.988335" lon="15.3772817"><ele>748.0</ele><time>2026-03-28T09:25:58.498Z</time></trkpt><trkpt lat="40.9884067" lon="15.377215"><ele>746.1666666666667</ele><time>2026-03-28T09:25:59.497Z</time></trkpt><trkpt lat="40.9884767" lon="15.3771333"><ele>744.3333333333334</ele><time>2026-03-28T09:26:00.498Z</time></trkpt><trkpt lat="40.988535" lon="15.3770467"><ele>742.5</ele><time>2026-03-28T09:26:01.498Z</time></trkpt><trkpt lat="40.9885917" lon="15.3769717"><ele>740.6666666666666</ele><time>2026-03-28T09:26:02.498Z</time></trkpt><trkpt lat="40.988645" lon="15.3769083"><ele>738.8333333333333</ele><time>2026-03-28T09:26:03.498Z</time></trkpt><trkpt lat="40.9886967" lon="15.3768533"><ele>737.0</ele><time>2026-03-28T09:26:04.498Z</time></trkpt><trkpt lat="40.9888117" lon="15.3768183"><ele>737.0</ele><time>2026-03-28T09:26:06.498Z</time></trkpt><trkpt lat="40.9889283" lon="15.3768933"><ele>737.0</ele><time>2026-03-28T09:26:08.498Z</time></trkpt><trkpt lat="40.9889833" lon="15.3769717"><ele>737.0</ele><time>2026-03-28T09:26:09.497Z</time></trkpt><trkpt lat="40.9890283" lon="15.3770783"><ele>737.0</ele><time>2026-03-28T09:26:10.498Z</time></trkpt><trkpt lat="40.9890633" lon="15.3771967"><ele>737.0</ele><time>2026-03-28T09:26:11.497Z</time></trkpt><trkpt lat="40.9891017" lon="15.3773117"><ele>735.8</ele><time>2026-03-28T09:26:12.497Z</time></trkpt><trkpt lat="40.9891383" lon="15.3774233"><ele>734.6</ele><time>2026-03-28T09:26:13.498Z</time></trkpt><trkpt lat="40.98917" lon="15.3775317"><ele>733.4</ele><time>2026-03-28T09:26:14.498Z</time></trkpt><trkpt lat="40.9891917" lon="15.3776433"><ele>732.1999999999999</ele><time>2026-03-28T09:26:15.497Z</time></trkpt><trkpt lat="40.9892017" lon="15.377765"><ele>731.0</ele><time>2026-03-28T09:26:16.498Z</time></trkpt><trkpt lat="40.989205" lon="15.3778983"><ele>730.0</ele><time>2026-03-28T09:26:17.498Z</time></trkpt><trkpt lat="40.989195" lon="15.3780333"><ele>729.0</ele><time>2026-03-28T09:26:18.498Z</time></trkpt><trkpt lat="40.9891767" lon="15.3781667"><ele>728.0</ele><time>2026-03-28T09:26:19.497Z</time></trkpt><trkpt lat="40.98916" lon="15.378295"><ele>727.0</ele><time>2026-03-28T09:26:20.498Z</time></trkpt><trkpt lat="40.9891433" lon="15.37842"><ele>726.0</ele><time>2026-03-28T09:26:21.498Z</time></trkpt><trkpt lat="40.9891183" lon="15.3785467"><ele>726.0</ele><time>2026-03-28T09:26:22.498Z</time></trkpt><trkpt lat="40.9890933" lon="15.3786783"><ele>726.0</ele><time>2026-03-28T09:26:23.498Z</time></trkpt><trkpt lat="40.9890533" lon="15.3788017"><ele>726.0</ele><time>2026-03-28T09:26:24.497Z</time></trkpt><trkpt lat="40.98901" lon="15.3789133"><ele>726.0</ele><time>2026-03-28T09:26:25.498Z</time></trkpt><trkpt lat="40.988965" lon="15.3790183"><ele>726.0</ele><time>2026-03-28T09:26:26.497Z</time></trkpt><trkpt lat="40.9889133" lon="15.37912"><ele>724.5</ele><time>2026-03-28T09:26:27.497Z</time></trkpt><trkpt lat="40.988855" lon="15.3792217"><ele>723.0</ele><time>2026-03-28T09:26:28.497Z</time></trkpt><trkpt lat="40.9888067" lon="15.37932"><ele>721.5</ele><time>2026-03-28T09:26:29.497Z</time></trkpt><trkpt lat="40.98877" lon="15.379415"><ele>720.0</ele><time>2026-03-28T09:26:30.498Z</time></trkpt><trkpt lat="40.9887433" lon="15.37951"><ele>718.5</ele><time>2026-03-28T09:26:31.497Z</time></trkpt><trkpt lat="40.9887367" lon="15.3796117"><ele>717.0</ele><time>2026-03-28T09:26:32.498Z</time></trkpt><trkpt lat="40.9887567" lon="15.3797217"><ele>716.3333333333334</ele><time>2026-03-28T09:26:33.498Z</time></trkpt><trkpt lat="40.9887917" lon="15.3798267"><ele>715.6666666666666</ele><time>2026-03-28T09:26:34.497Z</time></trkpt><trkpt lat="40.988835" lon="15.3799333"><ele>715.0</ele><time>2026-03-28T09:26:35.497Z</time></trkpt><trkpt lat="40.9888833" lon="15.380045"><ele>714.3333333333333</ele><time>2026-03-28T09:26:36.497Z</time></trkpt><trkpt lat="40.988925" lon="15.3801517"><ele>713.6666666666666</ele><time>2026-03-28T09:26:37.498Z</time></trkpt><trkpt lat="40.9889583" lon="15.3802467"><ele>713.0</ele><time>2026-03-28T09:26:38.498Z</time></trkpt><trkpt lat="40.988975" lon="15.380345"><ele>713.0</ele><time>2026-03-28T09:26:39.498Z</time></trkpt><trkpt lat="40.9889733" lon="15.3804467"><ele>713.0</ele><time>2026-03-28T09:26:40.498Z</time></trkpt><trkpt lat="40.98895" lon="15.38055"><ele>713.0</ele><time>2026-03-28T09:26:41.498Z</time></trkpt><trkpt lat="40.9889083" lon="15.3806633"><ele>713.0</ele><time>2026-03-28T09:26:42.498Z</time></trkpt><trkpt lat="40.9888583" lon="15.380785"><ele>713.0</ele><time>2026-03-28T09:26:43.498Z</time></trkpt><trkpt lat="40.9887983" lon="15.3809117"><ele>714.25</ele><time>2026-03-28T09:26:44.497Z</time></trkpt><trkpt lat="40.9887417" lon="15.381045"><ele>715.5</ele><time>2026-03-28T09:26:45.497Z</time></trkpt><trkpt lat="40.9886917" lon="15.3811767"><ele>716.75</ele><time>2026-03-28T09:26:46.498Z</time></trkpt><trkpt lat="40.9886267" lon="15.3813233"><ele>718.0</ele><time>2026-03-28T09:26:47.497Z</time></trkpt><trkpt lat="40.9885683" lon="15.3814683"><ele>719.25</ele><time>2026-03-28T09:26:48.498Z</time></trkpt><trkpt lat="40.9885" lon="15.381605"><ele>720.5</ele><time>2026-03-28T09:26:49.498Z</time></trkpt><trkpt lat="40.9884383" lon="15.3817433"><ele>721.75</ele><time>2026-03-28T09:26:50.498Z</time></trkpt><trkpt lat="40.98838" lon="15.3818733"><ele>723.0</ele><time>2026-03-28T09:26:51.497Z</time></trkpt><trkpt lat="40.9883267" lon="15.3819983"><ele>722.0</ele><time>2026-03-28T09:26:52.497Z</time></trkpt><trkpt lat="40.9882817" lon="15.3821217"><ele>721.0</ele><time>2026-03-28T09:26:53.498Z</time></trkpt><trkpt lat="40.9882333" lon="15.3822367"><ele>720.0</ele><time>2026-03-28T09:26:54.497Z</time></trkpt><trkpt lat="40.9881867" lon="15.3823417"><ele>719.0</ele><time>2026-03-28T09:26:55.497Z</time></trkpt><trkpt lat="40.9881417" lon="15.382425"><ele>718.0</ele><time>2026-03-28T09:26:56.498Z</time></trkpt><trkpt lat="40.9880767" lon="15.3824833"><ele>718.0</ele><time>2026-03-28T09:26:57.497Z</time></trkpt><trkpt lat="40.9879967" lon="15.3825217"><ele>718.0</ele><time>2026-03-28T09:26:58.498Z</time></trkpt><trkpt lat="40.9879067" lon="15.3825467"><ele>718.0</ele><time>2026-03-28T09:26:59.497Z</time></trkpt><trkpt lat="40.9878233" lon="15.3825767"><ele>718.0</ele><time>2026-03-28T09:27:00.498Z</time></trkpt><trkpt lat="40.987745" lon="15.3826267"><ele>718.0</ele><time>2026-03-28T09:27:01.498Z</time></trkpt><trkpt lat="40.9876783" lon="15.3826983"><ele>718.0</ele><time>2026-03-28T09:27:02.498Z</time></trkpt><trkpt lat="40.9876167" lon="15.3827767"><ele>718.0</ele><time>2026-03-28T09:27:03.498Z</time></trkpt><trkpt lat="40.987565" lon="15.3828683"><ele>718.0</ele><time>2026-03-28T09:27:04.497Z</time></trkpt><trkpt lat="40.98752" lon="15.3829633"><ele>718.0</ele><time>2026-03-28T09:27:05.498Z</time></trkpt><trkpt lat="40.9875017" lon="15.383065"><ele>718.0</ele><time>2026-03-28T09:27:06.498Z</time></trkpt><trkpt lat="40.9875033" lon="15.38318"><ele>718.0</ele><time>2026-03-28T09:27:07.497Z</time></trkpt><trkpt lat="40.9875183" lon="15.3832983"><ele>718.0</ele><time>2026-03-28T09:27:08.497Z</time></trkpt><trkpt lat="40.987555" lon="15.3834117"><ele>719.1666666666667</ele><time>2026-03-28T09:27:09.497Z</time></trkpt><trkpt lat="40.9876" lon="15.38352"><ele>720.3333333333334</ele><time>2026-03-28T09:27:10.497Z</time></trkpt><trkpt lat="40.987655" lon="15.3836317"><ele>721.5</ele><time>2026-03-28T09:27:11.498Z</time></trkpt><trkpt lat="40.9876983" lon="15.38373"><ele>722.6666666666666</ele><time>2026-03-28T09:27:12.497Z</time></trkpt><trkpt lat="40.987725" lon="15.383835"><ele>723.8333333333333</ele><time>2026-03-28T09:27:13.497Z</time></trkpt><trkpt lat="40.9877283" lon="15.383945"><ele>725.0</ele><time>2026-03-28T09:27:14.497Z</time></trkpt><trkpt lat="40.9877167" lon="15.3840717"><ele>727.25</ele><time>2026-03-28T09:27:15.497Z</time></trkpt><trkpt lat="40.9876867" lon="15.38421"><ele>729.5</ele><time>2026-03-28T09:27:16.498Z</time></trkpt><trkpt lat="40.9876417" lon="15.3843783"><ele>731.75</ele><time>2026-03-28T09:27:17.498Z</time></trkpt><trkpt lat="40.9875967" lon="15.3845367"><ele>734.0</ele><time>2026-03-28T09:27:18.498Z</time></trkpt><trkpt lat="40.98755" lon="15.3846917"><ele>731.0</ele><time>2026-03-28T09:27:19.498Z</time></trkpt><trkpt lat="40.987495" lon="15.384835"><ele>728.0</ele><time>2026-03-28T09:27:20.497Z</time></trkpt><trkpt lat="40.98743" lon="15.3849733"><ele>725.0</ele><time>2026-03-28T09:27:21.497Z</time></trkpt><trkpt lat="40.987355" lon="15.3851167"><ele>722.0</ele><time>2026-03-28T09:27:22.498Z</time></trkpt><trkpt lat="40.9872767" lon="15.3852667"><ele>722.0</ele><time>2026-03-28T09:27:23.498Z</time></trkpt><trkpt lat="40.98719" lon="15.3854083"><ele>722.0</ele><time>2026-03-28T09:27:24.498Z</time></trkpt><trkpt lat="40.9871067" lon="15.3855467"><ele>722.0</ele><time>2026-03-28T09:27:25.497Z</time></trkpt><trkpt lat="40.987025" lon="15.3856783"><ele>722.0</ele><time>2026-03-28T09:27:26.497Z</time></trkpt><trkpt lat="40.986945" lon="15.3858033"><ele>720.6</ele><time>2026-03-28T09:27:27.498Z</time></trkpt><trkpt lat="40.9868667" lon="15.3859133"><ele>719.2</ele><time>2026-03-28T09:27:28.497Z</time></trkpt><trkpt lat="40.9867917" lon="15.386005"><ele>717.8</ele><time>2026-03-28T09:27:29.498Z</time></trkpt><trkpt lat="40.98672" lon="15.3860767"><ele>716.4</ele><time>2026-03-28T09:27:30.498Z</time></trkpt><trkpt lat="40.9866583" lon="15.3861467"><ele>715.0</ele><time>2026-03-28T09:27:31.497Z</time></trkpt><trkpt lat="40.9865833" lon="15.3861917"><ele>715.0</ele><time>2026-03-28T09:27:32.497Z</time></trkpt><trkpt lat="40.98649" lon="15.3862367"><ele>715.0</ele><time>2026-03-28T09:27:33.497Z</time></trkpt><trkpt lat="40.98639" lon="15.3862917"><ele>715.0</ele><time>2026-03-28T09:27:34.498Z</time></trkpt><trkpt lat="40.9862933" lon="15.3863517"><ele>715.0</ele><time>2026-03-28T09:27:35.497Z</time></trkpt><trkpt lat="40.986195" lon="15.38643"><ele>715.0</ele><time>2026-03-28T09:27:36.498Z</time></trkpt><trkpt lat="40.98611" lon="15.3865217"><ele>715.8</ele><time>2026-03-28T09:27:37.498Z</time></trkpt><trkpt lat="40.986035" lon="15.38662"><ele>716.6</ele><time>2026-03-28T09:27:38.498Z</time></trkpt><trkpt lat="40.9859667" lon="15.386725"><ele>717.4000000000001</ele><time>2026-03-28T09:27:39.498Z</time></trkpt><trkpt lat="40.9859117" lon="15.386815"><ele>718.2</ele><time>2026-03-28T09:27:40.498Z</time></trkpt><trkpt lat="40.9858633" lon="15.3869"><ele>719.0</ele><time>2026-03-28T09:27:41.497Z</time></trkpt><trkpt lat="40.9858233" lon="15.3869833"><ele>719.0</ele><time>2026-03-28T09:27:42.497Z</time></trkpt><trkpt lat="40.985795" lon="15.3870617"><ele>719.0</ele><time>2026-03-28T09:27:43.498Z</time></trkpt><trkpt lat="40.9857833" lon="15.3871517"><ele>719.0</ele><time>2026-03-28T09:27:44.497Z</time></trkpt><trkpt lat="40.98579" lon="15.387255"><ele>719.0</ele><time>2026-03-28T09:27:45.498Z</time></trkpt><trkpt lat="40.98581" lon="15.3873617"><ele>719.0</ele><time>2026-03-28T09:27:46.498Z</time></trkpt><trkpt lat="40.9858367" lon="15.3874767"><ele>719.0</ele><time>2026-03-28T09:27:47.497Z</time></trkpt><trkpt lat="40.9858833" lon="15.3876"><ele>722.6</ele><time>2026-03-28T09:27:48.498Z</time></trkpt><trkpt lat="40.9859067" lon="15.38773"><ele>726.2</ele><time>2026-03-28T09:27:49.497Z</time></trkpt><trkpt lat="40.9859167" lon="15.3878467"><ele>729.8000000000001</ele><time>2026-03-28T09:27:50.498Z</time></trkpt><trkpt lat="40.985895" lon="15.3879617"><ele>733.4000000000001</ele><time>2026-03-28T09:27:51.498Z</time></trkpt><trkpt lat="40.9858617" lon="15.388085"><ele>737.0</ele><time>2026-03-28T09:27:52.498Z</time></trkpt><trkpt lat="40.9858083" lon="15.3882133"><ele>738.0</ele><time>2026-03-28T09:27:53.498Z</time></trkpt><trkpt lat="40.9857517" lon="15.3883517"><ele>739.0</ele><time>2026-03-28T09:27:54.497Z</time></trkpt><trkpt lat="40.9856917" lon="15.388485"><ele>740.0</ele><time>2026-03-28T09:27:55.498Z</time></trkpt><trkpt lat="40.985635" lon="15.3886233"><ele>741.0</ele><time>2026-03-28T09:27:56.498Z</time></trkpt><trkpt lat="40.9855833" lon="15.38874"><ele>741.0</ele><time>2026-03-28T09:27:57.497Z</time></trkpt><trkpt lat="40.9855367" lon="15.38883"><ele>741.0</ele><time>2026-03-28T09:27:58.497Z</time></trkpt><trkpt lat="40.9854667" lon="15.38895"><ele>741.0</ele><time>2026-03-28T09:28:00.498Z</time></trkpt><trkpt lat="40.9854133" lon="15.3890883"><ele>741.0</ele><time>2026-03-28T09:28:02.497Z</time></trkpt><trkpt lat="40.985385" lon="15.3891633"><ele>741.0</ele><time>2026-03-28T09:28:03.497Z</time></trkpt><trkpt lat="40.9853567" lon="15.3892533"><ele>744.0</ele><time>2026-03-28T09:28:04.498Z</time></trkpt><trkpt lat="40.9853267" lon="15.3893567"><ele>747.0</ele><time>2026-03-28T09:28:05.498Z</time></trkpt><trkpt lat="40.9852933" lon="15.3894683"><ele>750.0</ele><time>2026-03-28T09:28:06.498Z</time></trkpt><trkpt lat="40.9852767" lon="15.3895817"><ele>753.0</ele><time>2026-03-28T09:28:07.498Z</time></trkpt><trkpt lat="40.9852717" lon="15.3897067"><ele>756.0</ele><time>2026-03-28T09:28:08.498Z</time></trkpt><trkpt lat="40.9852667" lon="15.3898483"><ele>756.8</ele><time>2026-03-28T09:28:09.497Z</time></trkpt><trkpt lat="40.98526" lon="15.3899933"><ele>757.5999999999999</ele><time>2026-03-28T09:28:10.498Z</time></trkpt><trkpt lat="40.9852567" lon="15.3901383"><ele>758.4</ele><time>2026-03-28T09:28:11.497Z</time></trkpt><trkpt lat="40.98525" lon="15.3902833"><ele>759.2</ele><time>2026-03-28T09:28:12.497Z</time></trkpt><trkpt lat="40.9852517" lon="15.3904133"><ele>760.0</ele><time>2026-03-28T09:28:13.497Z</time></trkpt><trkpt lat="40.985245" lon="15.3905333"><ele>760.0</ele><time>2026-03-28T09:28:14.497Z</time></trkpt><trkpt lat="40.985235" lon="15.3906433"><ele>760.0</ele><time>2026-03-28T09:28:15.498Z</time></trkpt><trkpt lat="40.9852117" lon="15.3907583"><ele>760.0</ele><time>2026-03-28T09:28:16.498Z</time></trkpt><trkpt lat="40.9851767" lon="15.3908883"><ele>760.0</ele><time>2026-03-28T09:28:17.498Z</time></trkpt><trkpt lat="40.9851333" lon="15.391025"><ele>760.0</ele><time>2026-03-28T09:28:18.498Z</time></trkpt><trkpt lat="40.9850883" lon="15.39116"><ele>760.0</ele><time>2026-03-28T09:28:19.498Z</time></trkpt><trkpt lat="40.9850383" lon="15.3912917"><ele>760.0</ele><time>2026-03-28T09:28:20.498Z</time></trkpt><trkpt lat="40.9849867" lon="15.3914333"><ele>760.0</ele><time>2026-03-28T09:28:21.498Z</time></trkpt><trkpt lat="40.9849283" lon="15.3915767"><ele>760.0</ele><time>2026-03-28T09:28:22.498Z</time></trkpt><trkpt lat="40.984875" lon="15.3917083"><ele>760.6</ele><time>2026-03-28T09:28:23.498Z</time></trkpt><trkpt lat="40.98482" lon="15.3918417"><ele>761.2</ele><time>2026-03-28T09:28:24.498Z</time></trkpt><trkpt lat="40.9847767" lon="15.3919683"><ele>761.8</ele><time>2026-03-28T09:28:25.497Z</time></trkpt><trkpt lat="40.9847317" lon="15.3921033"><ele>762.4</ele><time>2026-03-28T09:28:26.498Z</time></trkpt><trkpt lat="40.9846917" lon="15.392245"><ele>763.0</ele><time>2026-03-28T09:28:27.497Z</time></trkpt><trkpt lat="40.9846567" lon="15.3923733"><ele>763.0</ele><time>2026-03-28T09:28:28.498Z</time></trkpt><trkpt lat="40.984635" lon="15.3924867"><ele>763.0</ele><time>2026-03-28T09:28:29.498Z</time></trkpt><trkpt lat="40.9846217" lon="15.392585"><ele>763.0</ele><time>2026-03-28T09:28:30.498Z</time></trkpt><trkpt lat="40.9846117" lon="15.39267"><ele>763.0</ele><time>2026-03-28T09:28:31.498Z</time></trkpt><trkpt lat="40.9846083" lon="15.3927917"><ele>763.0</ele><time>2026-03-28T09:28:33.497Z</time></trkpt><trkpt lat="40.9845583" lon="15.3928717"><ele>763.0</ele><time>2026-03-28T09:28:35.497Z</time></trkpt><trkpt lat="40.98444" lon="15.3929117"><ele>763.0</ele><time>2026-03-28T09:28:37.498Z</time></trkpt><trkpt lat="40.9843617" lon="15.3929383"><ele>763.0</ele><time>2026-03-28T09:28:38.498Z</time></trkpt><trkpt lat="40.9842717" lon="15.3929633"><ele>763.0</ele><time>2026-03-28T09:28:39.497Z</time></trkpt><trkpt lat="40.9841817" lon="15.3929833"><ele>763.0</ele><time>2026-03-28T09:28:40.497Z</time></trkpt><trkpt lat="40.9840917" lon="15.3929933"><ele>763.0</ele><time>2026-03-28T09:28:41.497Z</time></trkpt><trkpt lat="40.9840033" lon="15.3930117"><ele>763.0</ele><time>2026-03-28T09:28:42.497Z</time></trkpt><trkpt lat="40.9839117" lon="15.3930233"><ele>760.8</ele><time>2026-03-28T09:28:43.497Z</time></trkpt><trkpt lat="40.9838217" lon="15.3930433"><ele>758.5999999999999</ele><time>2026-03-28T09:28:44.498Z</time></trkpt><trkpt lat="40.9837333" lon="15.3930683"><ele>756.4000000000001</ele><time>2026-03-28T09:28:45.497Z</time></trkpt><trkpt lat="40.983645" lon="15.3931067"><ele>754.2</ele><time>2026-03-28T09:28:46.497Z</time></trkpt><trkpt lat="40.983555" lon="15.3931433"><ele>752.0</ele><time>2026-03-28T09:28:47.498Z</time></trkpt><trkpt lat="40.9834583" lon="15.39318"><ele>752.0</ele><time>2026-03-28T09:28:48.498Z</time></trkpt><trkpt lat="40.983365" lon="15.39321"><ele>752.0</ele><time>2026-03-28T09:28:49.497Z</time></trkpt><trkpt lat="40.983275" lon="15.3932383"><ele>752.0</ele><time>2026-03-28T09:28:50.497Z</time></trkpt><trkpt lat="40.98318" lon="15.3932683"><ele>752.0</ele><time>2026-03-28T09:28:51.498Z</time></trkpt><trkpt lat="40.9830883" lon="15.3933033"><ele>752.0</ele><time>2026-03-28T09:28:52.497Z</time></trkpt><trkpt lat="40.9829967" lon="15.393335"><ele>749.8</ele><time>2026-03-28T09:28:53.498Z</time></trkpt><trkpt lat="40.9829083" lon="15.3933683"><ele>747.6</ele><time>2026-03-28T09:28:54.498Z</time></trkpt><trkpt lat="40.9828217" lon="15.3934017"><ele>745.4</ele><time>2026-03-28T09:28:55.497Z</time></trkpt><trkpt lat="40.98273" lon="15.3934383"><ele>743.1999999999999</ele><time>2026-03-28T09:28:56.497Z</time></trkpt><trkpt lat="40.9826383" lon="15.3934783"><ele>741.0</ele><time>2026-03-28T09:28:57.498Z</time></trkpt><trkpt lat="40.9825417" lon="15.3935233"><ele>739.0</ele><time>2026-03-28T09:28:58.498Z</time></trkpt><trkpt lat="40.98244" lon="15.3935683"><ele>737.0</ele><time>2026-03-28T09:28:59.498Z</time></trkpt><trkpt lat="40.9823367" lon="15.39361"><ele>735.0</ele><time>2026-03-28T09:29:00.498Z</time></trkpt><trkpt lat="40.9822333" lon="15.393655"><ele>733.0</ele><time>2026-03-28T09:29:01.498Z</time></trkpt><trkpt lat="40.982125" lon="15.3937017"><ele>731.0</ele><time>2026-03-28T09:29:02.498Z</time></trkpt><trkpt lat="40.9820167" lon="15.3937467"><ele>731.0</ele><time>2026-03-28T09:29:03.497Z</time></trkpt><trkpt lat="40.9819133" lon="15.3937917"><ele>731.0</ele><time>2026-03-28T09:29:04.498Z</time></trkpt><trkpt lat="40.98181" lon="15.39383"><ele>731.0</ele><time>2026-03-28T09:29:05.497Z</time></trkpt><trkpt lat="40.981715" lon="15.3938683"><ele>731.0</ele><time>2026-03-28T09:29:06.498Z</time></trkpt><trkpt lat="40.98162" lon="15.3939017"><ele>731.0</ele><time>2026-03-28T09:29:07.498Z</time></trkpt><trkpt lat="40.9815283" lon="15.3939317"><ele>727.8</ele><time>2026-03-28T09:29:08.498Z</time></trkpt><trkpt lat="40.9814367" lon="15.3939633"><ele>724.5999999999999</ele><time>2026-03-28T09:29:09.497Z</time></trkpt><trkpt lat="40.981345" lon="15.393995"><ele>721.4</ele><time>2026-03-28T09:29:10.497Z</time></trkpt><trkpt lat="40.9812483" lon="15.3940267"><ele>718.2</ele><time>2026-03-28T09:29:11.498Z</time></trkpt><trkpt lat="40.9811467" lon="15.39406"><ele>715.0</ele><time>2026-03-28T09:29:12.497Z</time></trkpt><trkpt lat="40.981045" lon="15.3940983"><ele>715.0</ele><time>2026-03-28T09:29:13.498Z</time></trkpt><trkpt lat="40.9809417" lon="15.39414"><ele>715.0</ele><time>2026-03-28T09:29:14.497Z</time></trkpt><trkpt lat="40.9808467" lon="15.3941833"><ele>715.0</ele><time>2026-03-28T09:29:15.498Z</time></trkpt><trkpt lat="40.98075" lon="15.39423"><ele>715.0</ele><time>2026-03-28T09:29:16.497Z</time></trkpt><trkpt lat="40.980655" lon="15.39428"><ele>715.0</ele><time>2026-03-28T09:29:17.498Z</time></trkpt><trkpt lat="40.980565" lon="15.3943267"><ele>712.6</ele><time>2026-03-28T09:29:18.498Z</time></trkpt><trkpt lat="40.980475" lon="15.3943717"><ele>710.2</ele><time>2026-03-28T09:29:19.498Z</time></trkpt><trkpt lat="40.9803883" lon="15.3944133"><ele>707.8</ele><time>2026-03-28T09:29:20.498Z</time></trkpt><trkpt lat="40.980295" lon="15.3944583"><ele>705.4</ele><time>2026-03-28T09:29:21.499Z</time></trkpt><trkpt lat="40.9801983" lon="15.3945117"><ele>703.0</ele><time>2026-03-28T09:29:22.499Z</time></trkpt><trkpt lat="40.9801017" lon="15.3945617"><ele>700.2</ele><time>2026-03-28T09:29:23.498Z</time></trkpt><trkpt lat="40.98001" lon="15.39461"><ele>697.4</ele><time>2026-03-28T09:29:24.499Z</time></trkpt><trkpt lat="40.9799067" lon="15.3946467"><ele>694.6</ele><time>2026-03-28T09:29:25.498Z</time></trkpt><trkpt lat="40.9797967" lon="15.394675"><ele>691.8000000000001</ele><time>2026-03-28T09:29:26.499Z</time></trkpt><trkpt lat="40.9796767" lon="15.39469"><ele>689.0</ele><time>2026-03-28T09:29:27.498Z</time></trkpt><trkpt lat="40.9795567" lon="15.3946883"><ele>688.5</ele><time>2026-03-28T09:29:28.499Z</time></trkpt><trkpt lat="40.9794383" lon="15.3947017"><ele>688.0</ele><time>2026-03-28T09:29:29.499Z</time></trkpt><trkpt lat="40.979325" lon="15.3947133"><ele>687.5</ele><time>2026-03-28T09:29:30.499Z</time></trkpt><trkpt lat="40.979215" lon="15.3947267"><ele>687.0</ele><time>2026-03-28T09:29:31.499Z</time></trkpt><trkpt lat="40.9790967" lon="15.394735"><ele>686.0</ele><time>2026-03-28T09:29:32.498Z</time></trkpt><trkpt lat="40.9789817" lon="15.39475"><ele>685.0</ele><time>2026-03-28T09:29:33.499Z</time></trkpt><trkpt lat="40.978875" lon="15.3947617"><ele>684.0</ele><time>2026-03-28T09:29:34.498Z</time></trkpt><trkpt lat="40.97877" lon="15.3947817"><ele>683.0</ele><time>2026-03-28T09:29:35.499Z</time></trkpt><trkpt lat="40.978675" lon="15.394805"><ele>682.0</ele><time>2026-03-28T09:29:36.499Z</time></trkpt><trkpt lat="40.97858" lon="15.3948383"><ele>682.0</ele><time>2026-03-28T09:29:37.499Z</time></trkpt><trkpt lat="40.9784933" lon="15.3948883"><ele>682.0</ele><time>2026-03-28T09:29:38.498Z</time></trkpt><trkpt lat="40.97841" lon="15.3949483"><ele>682.0</ele><time>2026-03-28T09:29:39.498Z</time></trkpt><trkpt lat="40.978325" lon="15.3950067"><ele>682.0</ele><time>2026-03-28T09:29:40.499Z</time></trkpt><trkpt lat="40.97824" lon="15.3950817"><ele>682.0</ele><time>2026-03-28T09:29:41.499Z</time></trkpt><trkpt lat="40.9781667" lon="15.395165"><ele>681.6</ele><time>2026-03-28T09:29:42.499Z</time></trkpt><trkpt lat="40.978095" lon="15.395255"><ele>681.2</ele><time>2026-03-28T09:29:43.499Z</time></trkpt><trkpt lat="40.9780267" lon="15.395355"><ele>680.8</ele><time>2026-03-28T09:29:44.498Z</time></trkpt><trkpt lat="40.9779667" lon="15.3954617"><ele>680.4</ele><time>2026-03-28T09:29:45.499Z</time></trkpt><trkpt lat="40.9779083" lon="15.3955733"><ele>680.0</ele><time>2026-03-28T09:29:46.498Z</time></trkpt><trkpt lat="40.9778583" lon="15.3956933"><ele>680.8</ele><time>2026-03-28T09:29:47.499Z</time></trkpt><trkpt lat="40.9778033" lon="15.3958183"><ele>681.6</ele><time>2026-03-28T09:29:48.499Z</time></trkpt><trkpt lat="40.9777483" lon="15.3959467"><ele>682.4000000000001</ele><time>2026-03-28T09:29:49.499Z</time></trkpt><trkpt lat="40.977695" lon="15.396055"><ele>683.2</ele><time>2026-03-28T09:29:50.498Z</time></trkpt><trkpt lat="40.9776267" lon="15.3961433"><ele>684.0</ele><time>2026-03-28T09:29:51.499Z</time></trkpt><trkpt lat="40.9775433" lon="15.39622"><ele>684.4000000000001</ele><time>2026-03-28T09:29:52.499Z</time></trkpt><trkpt lat="40.9774533" lon="15.3962867"><ele>684.8</ele><time>2026-03-28T09:29:53.498Z</time></trkpt><trkpt lat="40.977365" lon="15.3963567"><ele>685.2</ele><time>2026-03-28T09:29:54.498Z</time></trkpt><trkpt lat="40.97727" lon="15.39643"><ele>685.5999999999999</ele><time>2026-03-28T09:29:55.498Z</time></trkpt><trkpt lat="40.9771683" lon="15.3964883"><ele>686.0</ele><time>2026-03-28T09:29:56.498Z</time></trkpt><trkpt lat="40.9770633" lon="15.396545"><ele>686.0</ele><time>2026-03-28T09:29:57.499Z</time></trkpt><trkpt lat="40.97696" lon="15.3965917"><ele>686.0</ele><time>2026-03-28T09:29:58.499Z</time></trkpt><trkpt lat="40.9768433" lon="15.39663"><ele>686.0</ele><time>2026-03-28T09:29:59.499Z</time></trkpt><trkpt lat="40.9767283" lon="15.3966667"><ele>686.0</ele><time>2026-03-28T09:30:00.498Z</time></trkpt><trkpt lat="40.9766167" lon="15.3966967"><ele>684.8</ele><time>2026-03-28T09:30:01.499Z</time></trkpt><trkpt lat="40.9765067" lon="15.396725"><ele>683.5999999999999</ele><time>2026-03-28T09:30:02.499Z</time></trkpt><trkpt lat="40.9763933" lon="15.39676"><ele>682.4</ele><time>2026-03-28T09:30:03.499Z</time></trkpt><trkpt lat="40.976295" lon="15.3968033"><ele>681.2</ele><time>2026-03-28T09:30:04.499Z</time></trkpt><trkpt lat="40.9762133" lon="15.3968467"><ele>680.0</ele><time>2026-03-28T09:30:05.499Z</time></trkpt><trkpt lat="40.976135" lon="15.396905"><ele>680.0</ele><time>2026-03-28T09:30:06.499Z</time></trkpt><trkpt lat="40.9760633" lon="15.39697"><ele>680.0</ele><time>2026-03-28T09:30:07.499Z</time></trkpt><trkpt lat="40.9759883" lon="15.3970417"><ele>680.0</ele><time>2026-03-28T09:30:08.499Z</time></trkpt><trkpt lat="40.9759217" lon="15.3971067"><ele>680.0</ele><time>2026-03-28T09:30:09.499Z</time></trkpt><trkpt lat="40.9758533" lon="15.397165"><ele>680.0</ele><time>2026-03-28T09:30:10.499Z</time></trkpt><trkpt lat="40.975785" lon="15.397195"><ele>680.0</ele><time>2026-03-28T09:30:11.499Z</time></trkpt><trkpt lat="40.9757133" lon="15.3972017"><ele>679.1666666666666</ele><time>2026-03-28T09:30:12.499Z</time></trkpt><trkpt lat="40.9756433" lon="15.3971917"><ele>678.3333333333333</ele><time>2026-03-28T09:30:13.499Z</time></trkpt><trkpt lat="40.97556" lon="15.3971867"><ele>677.5</ele><time>2026-03-28T09:30:14.499Z</time></trkpt><trkpt lat="40.9754767" lon="15.397185"><ele>676.6666666666666</ele><time>2026-03-28T09:30:15.498Z</time></trkpt><trkpt lat="40.9753933" lon="15.3972"><ele>675.8333333333334</ele><time>2026-03-28T09:30:16.499Z</time></trkpt><trkpt lat="40.9753033" lon="15.3972183"><ele>675.0</ele><time>2026-03-28T09:30:17.499Z</time></trkpt><trkpt lat="40.9752" lon="15.39723"><ele>675.0</ele><time>2026-03-28T09:30:18.498Z</time></trkpt><trkpt lat="40.9750917" lon="15.3972367"><ele>675.0</ele><time>2026-03-28T09:30:19.498Z</time></trkpt><trkpt lat="40.9749867" lon="15.3972367"><ele>675.0</ele><time>2026-03-28T09:30:20.498Z</time></trkpt><trkpt lat="40.9748883" lon="15.3972283"><ele>675.0</ele><time>2026-03-28T09:30:21.499Z</time></trkpt><trkpt lat="40.9747983" lon="15.3972133"><ele>675.0</ele><time>2026-03-28T09:30:22.499Z</time></trkpt><trkpt lat="40.97471" lon="15.397195"><ele>674.4</ele><time>2026-03-28T09:30:23.499Z</time></trkpt><trkpt lat="40.97462" lon="15.397175"><ele>673.8</ele><time>2026-03-28T09:30:24.499Z</time></trkpt><trkpt lat="40.974525" lon="15.3971567"><ele>673.2</ele><time>2026-03-28T09:30:25.498Z</time></trkpt><trkpt lat="40.974425" lon="15.397145"><ele>672.6</ele><time>2026-03-28T09:30:26.499Z</time></trkpt><trkpt lat="40.9743183" lon="15.3971417"><ele>672.0</ele><time>2026-03-28T09:30:27.499Z</time></trkpt><trkpt lat="40.9742167" lon="15.3971417"><ele>673.0</ele><time>2026-03-28T09:30:28.499Z</time></trkpt><trkpt lat="40.974115" lon="15.3971433"><ele>674.0</ele><time>2026-03-28T09:30:29.498Z</time></trkpt><trkpt lat="40.9740033" lon="15.3971383"><ele>675.0</ele><time>2026-03-28T09:30:30.498Z</time></trkpt><trkpt lat="40.9738933" lon="15.3971367"><ele>676.0</ele><time>2026-03-28T09:30:31.499Z</time></trkpt><trkpt lat="40.973785" lon="15.3971417"><ele>677.0</ele><time>2026-03-28T09:30:32.499Z</time></trkpt><trkpt lat="40.97368" lon="15.39715"><ele>675.8</ele><time>2026-03-28T09:30:33.499Z</time></trkpt><trkpt lat="40.9735767" lon="15.3971783"><ele>674.6</ele><time>2026-03-28T09:30:34.499Z</time></trkpt><trkpt lat="40.9734833" lon="15.3972117"><ele>673.4</ele><time>2026-03-28T09:30:35.498Z</time></trkpt><trkpt lat="40.9733867" lon="15.3972633"><ele>672.1999999999999</ele><time>2026-03-28T09:30:36.499Z</time></trkpt><trkpt lat="40.9732883" lon="15.3973233"><ele>671.0</ele><time>2026-03-28T09:30:37.498Z</time></trkpt><trkpt lat="40.97319" lon="15.3974083"><ele>670.1999999999999</ele><time>2026-03-28T09:30:38.498Z</time></trkpt><trkpt lat="40.9731" lon="15.3974967"><ele>669.4</ele><time>2026-03-28T09:30:39.498Z</time></trkpt><trkpt lat="40.97302" lon="15.397585"><ele>668.6</ele><time>2026-03-28T09:30:40.499Z</time></trkpt><trkpt lat="40.9729467" lon="15.3976633"><ele>667.8</ele><time>2026-03-28T09:30:41.498Z</time></trkpt><trkpt lat="40.972875" lon="15.3977383"><ele>667.0</ele><time>2026-03-28T09:30:42.498Z</time></trkpt><trkpt lat="40.972805" lon="15.3978033"><ele>667.0</ele><time>2026-03-28T09:30:43.499Z</time></trkpt><trkpt lat="40.9727283" lon="15.3978667"><ele>667.0</ele><time>2026-03-28T09:30:44.499Z</time></trkpt><trkpt lat="40.9726433" lon="15.397935"><ele>667.0</ele><time>2026-03-28T09:30:45.498Z</time></trkpt><trkpt lat="40.9725433" lon="15.398"><ele>667.0</ele><time>2026-03-28T09:30:46.499Z</time></trkpt><trkpt lat="40.97244" lon="15.39807"><ele>667.0</ele><time>2026-03-28T09:30:47.499Z</time></trkpt><trkpt lat="40.972345" lon="15.398135"><ele>667.8</ele><time>2026-03-28T09:30:48.498Z</time></trkpt><trkpt lat="40.9722517" lon="15.3981817"><ele>668.6</ele><time>2026-03-28T09:30:49.498Z</time></trkpt><trkpt lat="40.9721517" lon="15.39822"><ele>669.4</ele><time>2026-03-28T09:30:50.498Z</time></trkpt><trkpt lat="40.97204" lon="15.3982583"><ele>670.1999999999999</ele><time>2026-03-28T09:30:51.499Z</time></trkpt><trkpt lat="40.97192" lon="15.3982933"><ele>671.0</ele><time>2026-03-28T09:30:52.499Z</time></trkpt><trkpt lat="40.971795" lon="15.3983267"><ele>669.75</ele><time>2026-03-28T09:30:53.498Z</time></trkpt><trkpt lat="40.97168" lon="15.3983517"><ele>668.5</ele><time>2026-03-28T09:30:54.499Z</time></trkpt><trkpt lat="40.97157" lon="15.3983767"><ele>667.25</ele><time>2026-03-28T09:30:55.499Z</time></trkpt><trkpt lat="40.9714517" lon="15.3984017"><ele>666.0</ele><time>2026-03-28T09:30:56.499Z</time></trkpt><trkpt lat="40.9713433" lon="15.3984167"><ele>666.0</ele><time>2026-03-28T09:30:57.498Z</time></trkpt><trkpt lat="40.97123" lon="15.3984283"><ele>666.0</ele><time>2026-03-28T09:30:58.499Z</time></trkpt><trkpt lat="40.9711067" lon="15.3984333"><ele>666.0</ele><time>2026-03-28T09:30:59.499Z</time></trkpt><trkpt lat="40.9709783" lon="15.3984283"><ele>666.0</ele><time>2026-03-28T09:31:00.499Z</time></trkpt><trkpt lat="40.9708467" lon="15.398425"><ele>665.75</ele><time>2026-03-28T09:31:01.499Z</time></trkpt><trkpt lat="40.9707117" lon="15.3984233"><ele>665.5</ele><time>2026-03-28T09:31:02.499Z</time></trkpt><trkpt lat="40.97058" lon="15.3984133"><ele>665.25</ele><time>2026-03-28T09:31:03.499Z</time></trkpt><trkpt lat="40.9704417" lon="15.398405"><ele>665.0</ele><time>2026-03-28T09:31:04.498Z</time></trkpt><trkpt lat="40.9703167" lon="15.3983917"><ele>665.0</ele><time>2026-03-28T09:31:05.499Z</time></trkpt><trkpt lat="40.9701883" lon="15.3983733"><ele>665.0</ele><time>2026-03-28T09:31:06.499Z</time></trkpt><trkpt lat="40.9700617" lon="15.3983533"><ele>665.0</ele><time>2026-03-28T09:31:07.499Z</time></trkpt><trkpt lat="40.9699317" lon="15.3983267"><ele>665.0</ele><time>2026-03-28T09:31:08.499Z</time></trkpt><trkpt lat="40.9698" lon="15.3982967"><ele>665.25</ele><time>2026-03-28T09:31:09.498Z</time></trkpt><trkpt lat="40.9696733" lon="15.398255"><ele>665.5</ele><time>2026-03-28T09:31:10.499Z</time></trkpt><trkpt lat="40.9695583" lon="15.398215"><ele>665.75</ele><time>2026-03-28T09:31:11.499Z</time></trkpt><trkpt lat="40.969455" lon="15.3981717"><ele>666.0</ele><time>2026-03-28T09:31:12.498Z</time></trkpt><trkpt lat="40.9693583" lon="15.3981383"><ele>666.0</ele><time>2026-03-28T09:31:13.499Z</time></trkpt><trkpt lat="40.969275" lon="15.3981083"><ele>666.0</ele><time>2026-03-28T09:31:14.499Z</time></trkpt><trkpt lat="40.9692033" lon="15.3980867"><ele>666.0</ele><time>2026-03-28T09:31:15.498Z</time></trkpt><trkpt lat="40.969125" lon="15.3980783"><ele>666.0</ele><time>2026-03-28T09:31:16.498Z</time></trkpt><trkpt lat="40.9690467" lon="15.3980767"><ele>666.0</ele><time>2026-03-28T09:31:17.498Z</time></trkpt><trkpt lat="40.9689683" lon="15.3980767"><ele>666.0</ele><time>2026-03-28T09:31:18.498Z</time></trkpt><trkpt lat="40.9688733" lon="15.3980767"><ele>666.75</ele><time>2026-03-28T09:31:19.498Z</time></trkpt><trkpt lat="40.968765" lon="15.3980767"><ele>667.5</ele><time>2026-03-28T09:31:20.499Z</time></trkpt><trkpt lat="40.9686517" lon="15.3980783"><ele>668.25</ele><time>2026-03-28T09:31:21.499Z</time></trkpt><trkpt lat="40.968535" lon="15.3980833"><ele>669.0</ele><time>2026-03-28T09:31:22.499Z</time></trkpt><trkpt lat="40.9684167" lon="15.3980867"><ele>669.4000000000001</ele><time>2026-03-28T09:31:23.499Z</time></trkpt><trkpt lat="40.9682967" lon="15.398095"><ele>669.8</ele><time>2026-03-28T09:31:24.498Z</time></trkpt><trkpt lat="40.9681867" lon="15.3981"><ele>670.2</ele><time>2026-03-28T09:31:25.498Z</time></trkpt><trkpt lat="40.9680833" lon="15.3981017"><ele>670.5999999999999</ele><time>2026-03-28T09:31:26.499Z</time></trkpt><trkpt lat="40.967975" lon="15.3981067"><ele>671.0</ele><time>2026-03-28T09:31:27.499Z</time></trkpt><trkpt lat="40.9678667" lon="15.3980983"><ele>671.0</ele><time>2026-03-28T09:31:28.499Z</time></trkpt><trkpt lat="40.9677667" lon="15.3980867"><ele>671.0</ele><time>2026-03-28T09:31:29.498Z</time></trkpt><trkpt lat="40.9676717" lon="15.3980633"><ele>671.0</ele><time>2026-03-28T09:31:30.499Z</time></trkpt><trkpt lat="40.9675883" lon="15.3980383"><ele>671.0</ele><time>2026-03-28T09:31:31.498Z</time></trkpt><trkpt lat="40.9675" lon="15.3980083"><ele>671.0</ele><time>2026-03-28T09:31:32.499Z</time></trkpt><trkpt lat="40.967405" lon="15.3979883"><ele>670.0</ele><time>2026-03-28T09:31:33.499Z</time></trkpt><trkpt lat="40.9673033" lon="15.39797"><ele>669.0</ele><time>2026-03-28T09:31:34.499Z</time></trkpt><trkpt lat="40.9672083" lon="15.3979617"><ele>668.0</ele><time>2026-03-28T09:31:35.498Z</time></trkpt><trkpt lat="40.9671167" lon="15.39796"><ele>667.0</ele><time>2026-03-28T09:31:36.499Z</time></trkpt><trkpt lat="40.9670283" lon="15.397965"><ele>666.0</ele><time>2026-03-28T09:31:37.499Z</time></trkpt><trkpt lat="40.9669417" lon="15.3979633"><ele>666.0</ele><time>2026-03-28T09:31:38.499Z</time></trkpt><trkpt lat="40.9668483" lon="15.3979617"><ele>666.0</ele><time>2026-03-28T09:31:39.499Z</time></trkpt><trkpt lat="40.96676" lon="15.397955"><ele>666.0</ele><time>2026-03-28T09:31:40.498Z</time></trkpt><trkpt lat="40.966665" lon="15.3979517"><ele>666.0</ele><time>2026-03-28T09:31:41.499Z</time></trkpt><trkpt lat="40.9665633" lon="15.3979617"><ele>666.0</ele><time>2026-03-28T09:31:42.498Z</time></trkpt><trkpt lat="40.9664567" lon="15.3979767"><ele>669.4</ele><time>2026-03-28T09:31:43.499Z</time></trkpt><trkpt lat="40.9663533" lon="15.3980017"><ele>672.8</ele><time>2026-03-28T09:31:44.499Z</time></trkpt><trkpt lat="40.96625" lon="15.398035"><ele>676.1999999999999</ele><time>2026-03-28T09:31:45.498Z</time></trkpt><trkpt lat="40.966155" lon="15.3980783"><ele>679.5999999999999</ele><time>2026-03-28T09:31:46.498Z</time></trkpt><trkpt lat="40.9660683" lon="15.3981283"><ele>683.0</ele><time>2026-03-28T09:31:47.498Z</time></trkpt><trkpt lat="40.9659883" lon="15.3981917"><ele>683.0</ele><time>2026-03-28T09:31:48.498Z</time></trkpt><trkpt lat="40.96591" lon="15.3982567"><ele>683.0</ele><time>2026-03-28T09:31:49.498Z</time></trkpt><trkpt lat="40.96585" lon="15.3983083"><ele>683.0</ele><time>2026-03-28T09:31:50.499Z</time></trkpt><trkpt lat="40.9658" lon="15.3983633"><ele>683.0</ele><time>2026-03-28T09:31:51.499Z</time></trkpt><trkpt lat="40.9657567" lon="15.3984267"><ele>683.0</ele><time>2026-03-28T09:31:52.499Z</time></trkpt><trkpt lat="40.9657083" lon="15.3985067"><ele>683.0</ele><time>2026-03-28T09:31:53.498Z</time></trkpt><trkpt lat="40.9656583" lon="15.398605"><ele>683.2</ele><time>2026-03-28T09:31:54.498Z</time></trkpt><trkpt lat="40.965595" lon="15.3986967"><ele>683.4</ele><time>2026-03-28T09:31:55.499Z</time></trkpt><trkpt lat="40.965525" lon="15.39878"><ele>683.6</ele><time>2026-03-28T09:31:56.499Z</time></trkpt><trkpt lat="40.9654467" lon="15.3988433"><ele>683.8000000000001</ele><time>2026-03-28T09:31:57.498Z</time></trkpt><trkpt lat="40.9653483" lon="15.3988933"><ele>684.0</ele><time>2026-03-28T09:31:58.499Z</time></trkpt><trkpt lat="40.965245" lon="15.3989367"><ele>684.25</ele><time>2026-03-28T09:31:59.498Z</time></trkpt><trkpt lat="40.965135" lon="15.3989817"><ele>684.5</ele><time>2026-03-28T09:32:00.498Z</time></trkpt><trkpt lat="40.9650267" lon="15.399025"><ele>684.75</ele><time>2026-03-28T09:32:01.498Z</time></trkpt><trkpt lat="40.9649167" lon="15.399065"><ele>685.0</ele><time>2026-03-28T09:32:02.499Z</time></trkpt><trkpt lat="40.9648083" lon="15.3991017"><ele>685.0</ele><time>2026-03-28T09:32:03.499Z</time></trkpt><trkpt lat="40.964695" lon="15.3991367"><ele>685.0</ele><time>2026-03-28T09:32:04.499Z</time></trkpt><trkpt lat="40.9645833" lon="15.3991667"><ele>685.0</ele><time>2026-03-28T09:32:05.499Z</time></trkpt><trkpt lat="40.96447" lon="15.3991933"><ele>685.0</ele><time>2026-03-28T09:32:06.499Z</time></trkpt><trkpt lat="40.9643567" lon="15.39922"><ele>685.0</ele><time>2026-03-28T09:32:07.498Z</time></trkpt><trkpt lat="40.9642467" lon="15.3992467"><ele>685.0</ele><time>2026-03-28T09:32:08.499Z</time></trkpt><trkpt lat="40.9641333" lon="15.399275"><ele>685.0</ele><time>2026-03-28T09:32:09.499Z</time></trkpt><trkpt lat="40.9640217" lon="15.3993133"><ele>685.0</ele><time>2026-03-28T09:32:10.499Z</time></trkpt><trkpt lat="40.96392" lon="15.3993433"><ele>685.0</ele><time>2026-03-28T09:32:11.498Z</time></trkpt><trkpt lat="40.96383" lon="15.3993717"><ele>684.8333333333334</ele><time>2026-03-28T09:32:12.498Z</time></trkpt><trkpt lat="40.9637517" lon="15.3994067"><ele>684.6666666666667</ele><time>2026-03-28T09:32:13.498Z</time></trkpt><trkpt lat="40.96368" lon="15.3994367"><ele>684.5</ele><time>2026-03-28T09:32:14.498Z</time></trkpt><trkpt lat="40.963615" lon="15.3994683"><ele>684.3333333333334</ele><time>2026-03-28T09:32:15.499Z</time></trkpt><trkpt lat="40.9635467" lon="15.3994983"><ele>684.1666666666666</ele><time>2026-03-28T09:32:16.499Z</time></trkpt><trkpt lat="40.9634733" lon="15.3995167"><ele>684.0</ele><time>2026-03-28T09:32:17.499Z</time></trkpt><trkpt lat="40.9633867" lon="15.3995233"><ele>684.6</ele><time>2026-03-28T09:32:18.498Z</time></trkpt><trkpt lat="40.9633067" lon="15.399525"><ele>685.2</ele><time>2026-03-28T09:32:19.499Z</time></trkpt><trkpt lat="40.9632317" lon="15.39952"><ele>685.8000000000001</ele><time>2026-03-28T09:32:20.499Z</time></trkpt><trkpt lat="40.9631233" lon="15.3995"><ele>686.4000000000001</ele><time>2026-03-28T09:32:22.499Z</time></trkpt><trkpt lat="40.9630483" lon="15.399475"><ele>687.0</ele><time>2026-03-28T09:33:11.498Z</time></trkpt><trkpt lat="40.9629383" lon="15.3994583"><ele>687.0</ele><time>2026-03-28T09:33:13.498Z</time></trkpt><trkpt lat="40.9628667" lon="15.39945"><ele>687.0</ele><time>2026-03-28T09:33:14.499Z</time></trkpt><trkpt lat="40.9627833" lon="15.3994383"><ele>687.0</ele><time>2026-03-28T09:33:15.499Z</time></trkpt><trkpt lat="40.96269" lon="15.3994217"><ele>687.0</ele><time>2026-03-28T09:33:16.498Z</time></trkpt><trkpt lat="40.962605" lon="15.3994067"><ele>687.0</ele><time>2026-03-28T09:33:17.498Z</time></trkpt><trkpt lat="40.9625167" lon="15.3993867"><ele>687.0</ele><time>2026-03-28T09:33:18.499Z</time></trkpt><trkpt lat="40.96243" lon="15.39937"><ele>686.0</ele><time>2026-03-28T09:33:19.499Z</time></trkpt><trkpt lat="40.9623383" lon="15.3993517"><ele>685.0</ele><time>2026-03-28T09:33:20.499Z</time></trkpt><trkpt lat="40.9622417" lon="15.3993383"><ele>684.0</ele><time>2026-03-28T09:33:21.499Z</time></trkpt><trkpt lat="40.9621333" lon="15.3993283"><ele>683.0</ele><time>2026-03-28T09:33:22.499Z</time></trkpt><trkpt lat="40.9620267" lon="15.3993117"><ele>682.0</ele><time>2026-03-28T09:33:23.499Z</time></trkpt><trkpt lat="40.9619183" lon="15.3992983"><ele>682.0</ele><time>2026-03-28T09:33:24.499Z</time></trkpt><trkpt lat="40.961805" lon="15.399285"><ele>682.0</ele><time>2026-03-28T09:33:25.499Z</time></trkpt><trkpt lat="40.961685" lon="15.3992767"><ele>682.0</ele><time>2026-03-28T09:33:26.499Z</time></trkpt><trkpt lat="40.96157" lon="15.399275"><ele>682.0</ele><time>2026-03-28T09:33:27.498Z</time></trkpt><trkpt lat="40.9614533" lon="15.3992767"><ele>680.75</ele><time>2026-03-28T09:33:28.499Z</time></trkpt><trkpt lat="40.961335" lon="15.399275"><ele>679.5</ele><time>2026-03-28T09:33:29.499Z</time></trkpt><trkpt lat="40.961215" lon="15.399275"><ele>678.25</ele><time>2026-03-28T09:33:30.499Z</time></trkpt><trkpt lat="40.961095" lon="15.399275"><ele>677.0</ele><time>2026-03-28T09:33:31.498Z</time></trkpt><trkpt lat="40.9609783" lon="15.39928"><ele>677.0</ele><time>2026-03-28T09:33:32.498Z</time></trkpt><trkpt lat="40.96087" lon="15.39928"><ele>677.0</ele><time>2026-03-28T09:33:33.498Z</time></trkpt><trkpt lat="40.96077" lon="15.3992833"><ele>677.0</ele><time>2026-03-28T09:33:34.498Z</time></trkpt><trkpt lat="40.960685" lon="15.39928"><ele>677.0</ele><time>2026-03-28T09:33:35.499Z</time></trkpt><trkpt lat="40.960605" lon="15.3992733"><ele>677.0</ele><time>2026-03-28T09:33:36.498Z</time></trkpt><trkpt lat="40.96054" lon="15.3992633"><ele>677.0</ele><time>2026-03-28T09:33:37.499Z</time></trkpt><trkpt lat="40.9604767" lon="15.3992617"><ele>676.6</ele><time>2026-03-28T09:33:38.499Z</time></trkpt><trkpt lat="40.9604067" lon="15.3993167"><ele>676.2</ele><time>2026-03-28T09:33:40.499Z</time></trkpt><trkpt lat="40.9604033" lon="15.3994533"><ele>675.8</ele><time>2026-03-28T09:33:42.499Z</time></trkpt><trkpt lat="40.96042" lon="15.39955"><ele>675.4</ele><time>2026-03-28T09:33:43.498Z</time></trkpt><trkpt lat="40.9604533" lon="15.3996633"><ele>675.0</ele><time>2026-03-28T09:33:44.499Z</time></trkpt><trkpt lat="40.9604767" lon="15.3997917"><ele>676.0</ele><time>2026-03-28T09:33:45.499Z</time></trkpt><trkpt lat="40.9605" lon="15.3999183"><ele>677.0</ele><time>2026-03-28T09:33:46.499Z</time></trkpt><trkpt lat="40.9605317" lon="15.4000583"><ele>678.0</ele><time>2026-03-28T09:33:47.499Z</time></trkpt><trkpt lat="40.9605567" lon="15.4002133"><ele>679.0</ele><time>2026-03-28T09:33:48.499Z</time></trkpt><trkpt lat="40.9605817" lon="15.4003783"><ele>679.75</ele><time>2026-03-28T09:33:49.498Z</time></trkpt><trkpt lat="40.9606017" lon="15.4005433"><ele>680.5</ele><time>2026-03-28T09:33:50.499Z</time></trkpt><trkpt lat="40.96063" lon="15.4007233"><ele>681.25</ele><time>2026-03-28T09:33:51.499Z</time></trkpt><trkpt lat="40.96066" lon="15.4009017"><ele>682.0</ele><time>2026-03-28T09:33:52.498Z</time></trkpt><trkpt lat="40.960675" lon="15.40108"><ele>682.0</ele><time>2026-03-28T09:33:53.499Z</time></trkpt><trkpt lat="40.9606833" lon="15.4012617"><ele>682.0</ele><time>2026-03-28T09:33:54.498Z</time></trkpt><trkpt lat="40.9606933" lon="15.4014267"><ele>682.0</ele><time>2026-03-28T09:33:55.498Z</time></trkpt><trkpt lat="40.9607067" lon="15.4015767"><ele>682.0</ele><time>2026-03-28T09:33:56.499Z</time></trkpt><trkpt lat="40.960735" lon="15.4017233"><ele>684.25</ele><time>2026-03-28T09:33:57.499Z</time></trkpt><trkpt lat="40.9607767" lon="15.4018733"><ele>686.5</ele><time>2026-03-28T09:33:58.498Z</time></trkpt><trkpt lat="40.960825" lon="15.402015"><ele>688.75</ele><time>2026-03-28T09:33:59.499Z</time></trkpt><trkpt lat="40.9608883" lon="15.402155"><ele>691.0</ele><time>2026-03-28T09:34:00.499Z</time></trkpt><trkpt lat="40.9609483" lon="15.4022933"><ele>693.25</ele><time>2026-03-28T09:34:01.499Z</time></trkpt><trkpt lat="40.9610083" lon="15.402435"><ele>695.5</ele><time>2026-03-28T09:34:02.499Z</time></trkpt><trkpt lat="40.96107" lon="15.402575"><ele>697.75</ele><time>2026-03-28T09:34:03.498Z</time></trkpt><trkpt lat="40.9611283" lon="15.40271"><ele>700.0</ele><time>2026-03-28T09:34:04.499Z</time></trkpt><trkpt lat="40.9611817" lon="15.4028417"><ele>700.0</ele><time>2026-03-28T09:34:05.498Z</time></trkpt><trkpt lat="40.9612417" lon="15.4029667"><ele>700.0</ele><time>2026-03-28T09:34:06.499Z</time></trkpt><trkpt lat="40.961295" lon="15.4030767"><ele>700.0</ele><time>2026-03-28T09:34:07.499Z</time></trkpt><trkpt lat="40.9613467" lon="15.4031883"><ele>700.0</ele><time>2026-03-28T09:34:08.498Z</time></trkpt><trkpt lat="40.9614067" lon="15.4032983"><ele>700.0</ele><time>2026-03-28T09:34:09.498Z</time></trkpt><trkpt lat="40.961465" lon="15.4034"><ele>700.8333333333334</ele><time>2026-03-28T09:34:10.498Z</time></trkpt><trkpt lat="40.9615217" lon="15.4034933"><ele>701.6666666666667</ele><time>2026-03-28T09:34:11.499Z</time></trkpt><trkpt lat="40.96157" lon="15.4035717"><ele>702.5</ele><time>2026-03-28T09:34:12.499Z</time></trkpt><trkpt lat="40.9616083" lon="15.4036433"><ele>703.3333333333334</ele><time>2026-03-28T09:34:13.499Z</time></trkpt><trkpt lat="40.9616467" lon="15.40371"><ele>704.1666666666666</ele><time>2026-03-28T09:34:14.499Z</time></trkpt><trkpt lat="40.9617167" lon="15.4038233"><ele>705.0</ele><time>2026-03-28T09:34:16.499Z</time></trkpt><trkpt lat="40.961775" lon="15.4039483"><ele>706.6</ele><time>2026-03-28T09:34:18.499Z</time></trkpt><trkpt lat="40.9618233" lon="15.4040733"><ele>708.2</ele><time>2026-03-28T09:34:20.498Z</time></trkpt><trkpt lat="40.9618733" lon="15.4042033"><ele>709.8</ele><time>2026-03-28T09:34:22.499Z</time></trkpt><trkpt lat="40.9619333" lon="15.4043233"><ele>711.4</ele><time>2026-03-28T09:34:24.498Z</time></trkpt><trkpt lat="40.9620117" lon="15.4044433"><ele>713.0</ele><time>2026-03-28T09:34:26.498Z</time></trkpt><trkpt lat="40.9620517" lon="15.4045083"><ele>713.0</ele><time>2026-03-28T09:34:27.499Z</time></trkpt><trkpt lat="40.9620983" lon="15.4045717"><ele>713.0</ele><time>2026-03-28T09:34:28.5Z</time></trkpt><trkpt lat="40.9621433" lon="15.4046433"><ele>713.0</ele><time>2026-03-28T09:34:29.5Z</time></trkpt><trkpt lat="40.9622" lon="15.4047183"><ele>713.0</ele><time>2026-03-28T09:34:30.499Z</time></trkpt><trkpt lat="40.9622533" lon="15.4047917"><ele>713.0</ele><time>2026-03-28T09:34:31.5Z</time></trkpt><trkpt lat="40.9623067" lon="15.4048633"><ele>713.0</ele><time>2026-03-28T09:34:32.499Z</time></trkpt><trkpt lat="40.96236" lon="15.4049367"><ele>713.0</ele><time>2026-03-28T09:34:33.5Z</time></trkpt><trkpt lat="40.9624167" lon="15.40501"><ele>713.6666666666666</ele><time>2026-03-28T09:34:34.5Z</time></trkpt><trkpt lat="40.962475" lon="15.4050817"><ele>714.3333333333333</ele><time>2026-03-28T09:34:35.499Z</time></trkpt><trkpt lat="40.962525" lon="15.40515"><ele>715.0</ele><time>2026-03-28T09:34:36.5Z</time></trkpt><trkpt lat="40.962575" lon="15.4052167"><ele>715.6666666666666</ele><time>2026-03-28T09:34:37.5Z</time></trkpt><trkpt lat="40.9626233" lon="15.4052767"><ele>716.3333333333334</ele><time>2026-03-28T09:34:38.499Z</time></trkpt><trkpt lat="40.9627133" lon="15.4053783"><ele>717.0</ele><time>2026-03-28T09:34:40.499Z</time></trkpt><trkpt lat="40.9627817" lon="15.4054533"><ele>718.5</ele><time>2026-03-28T09:34:42.5Z</time></trkpt><trkpt lat="40.962845" lon="15.4055233"><ele>720.0</ele><time>2026-03-28T09:34:44.5Z</time></trkpt><trkpt lat="40.962905" lon="15.4055983"><ele>721.5</ele><time>2026-03-28T09:34:46.499Z</time></trkpt><trkpt lat="40.9629667" lon="15.4056767"><ele>723.0</ele><time>2026-03-28T09:34:48.5Z</time></trkpt><trkpt lat="40.9630317" lon="15.4057617"><ele>724.5</ele><time>2026-03-28T09:34:50.499Z</time></trkpt><trkpt lat="40.9631033" lon="15.4058533"><ele>726.0</ele><time>2026-03-28T09:34:52.499Z</time></trkpt><trkpt lat="40.9631767" lon="15.405965"><ele>726.0</ele><time>2026-03-28T09:34:54.5Z</time></trkpt><trkpt lat="40.9632483" lon="15.4060933"><ele>726.0</ele><time>2026-03-28T09:34:56.499Z</time></trkpt><trkpt lat="40.9632917" lon="15.4061783"><ele>726.0</ele><time>2026-03-28T09:34:57.5Z</time></trkpt><trkpt lat="40.9633383" lon="15.4062733"><ele>726.0</ele><time>2026-03-28T09:34:58.5Z</time></trkpt><trkpt lat="40.9633967" lon="15.40638"><ele>726.0</ele><time>2026-03-28T09:34:59.5Z</time></trkpt><trkpt lat="40.9634533" lon="15.4064917"><ele>727.4</ele><time>2026-03-28T09:35:00.5Z</time></trkpt><trkpt lat="40.9635117" lon="15.4066083"><ele>728.8</ele><time>2026-03-28T09:35:01.5Z</time></trkpt><trkpt lat="40.9635583" lon="15.40672"><ele>730.1999999999999</ele><time>2026-03-28T09:35:02.499Z</time></trkpt><trkpt lat="40.9636067" lon="15.4068333"><ele>731.5999999999999</ele><time>2026-03-28T09:35:03.5Z</time></trkpt><trkpt lat="40.9636567" lon="15.4069417"><ele>733.0</ele><time>2026-03-28T09:35:04.5Z</time></trkpt><trkpt lat="40.9637033" lon="15.4070467"><ele>733.0</ele><time>2026-03-28T09:35:05.5Z</time></trkpt><trkpt lat="40.9637517" lon="15.4071517"><ele>733.0</ele><time>2026-03-28T09:35:06.499Z</time></trkpt><trkpt lat="40.9637983" lon="15.4072533"><ele>733.0</ele><time>2026-03-28T09:35:07.499Z</time></trkpt><trkpt lat="40.9638417" lon="15.40735"><ele>733.0</ele><time>2026-03-28T09:35:08.5Z</time></trkpt><trkpt lat="40.9638867" lon="15.407445"><ele>733.0</ele><time>2026-03-28T09:35:09.5Z</time></trkpt><trkpt lat="40.9639333" lon="15.407545"><ele>733.0</ele><time>2026-03-28T09:35:10.5Z</time></trkpt><trkpt lat="40.9639817" lon="15.407645"><ele>733.0</ele><time>2026-03-28T09:35:11.499Z</time></trkpt><trkpt lat="40.9640283" lon="15.4077433"><ele>733.0</ele><time>2026-03-28T09:35:12.5Z</time></trkpt><trkpt lat="40.9640817" lon="15.40784"><ele>733.0</ele><time>2026-03-28T09:35:13.499Z</time></trkpt><trkpt lat="40.9641233" lon="15.4079317"><ele>733.0</ele><time>2026-03-28T09:35:14.5Z</time></trkpt><trkpt lat="40.964165" lon="15.40801"><ele>733.0</ele><time>2026-03-28T09:35:15.5Z</time></trkpt><trkpt lat="40.96421" lon="15.4080833"><ele>733.0</ele><time>2026-03-28T09:35:16.499Z</time></trkpt><trkpt lat="40.9642517" lon="15.408155"><ele>732.8</ele><time>2026-03-28T09:35:17.5Z</time></trkpt><trkpt lat="40.9642967" lon="15.4082217"><ele>732.5999999999999</ele><time>2026-03-28T09:35:18.5Z</time></trkpt><trkpt lat="40.9643833" lon="15.40834"><ele>732.4000000000001</ele><time>2026-03-28T09:35:20.499Z</time></trkpt><trkpt lat="40.9644567" lon="15.40845"><ele>732.2</ele><time>2026-03-28T09:35:22.5Z</time></trkpt><trkpt lat="40.9645217" lon="15.4085383"><ele>732.0</ele><time>2026-03-28T09:35:24.5Z</time></trkpt><trkpt lat="40.964575" lon="15.4086233"><ele>732.0</ele><time>2026-03-28T09:35:27.499Z</time></trkpt><trkpt lat="40.9645533" lon="15.4087217"><ele>732.0</ele><time>2026-03-28T09:35:31.499Z</time></trkpt><trkpt lat="40.964465" lon="15.4087433"><ele>732.0</ele><time>2026-03-28T09:35:34.5Z</time></trkpt><trkpt lat="40.9643617" lon="15.408765"><ele>732.0</ele><time>2026-03-28T09:35:36.499Z</time></trkpt><trkpt lat="40.9642983" lon="15.408775"><ele>732.0</ele><time>2026-03-28T09:35:37.5Z</time></trkpt><trkpt lat="40.9641817" lon="15.40877"><ele>731.25</ele><time>2026-03-28T09:35:39.5Z</time></trkpt><trkpt lat="40.9640633" lon="15.4087433"><ele>730.5</ele><time>2026-03-28T09:35:41.499Z</time></trkpt><trkpt lat="40.9639567" lon="15.4087017"><ele>729.75</ele><time>2026-03-28T09:35:43.5Z</time></trkpt><trkpt lat="40.963855" lon="15.4086517"><ele>729.0</ele><time>2026-03-28T09:35:45.5Z</time></trkpt><trkpt lat="40.9637483" lon="15.4086017"><ele>729.0</ele><time>2026-03-28T09:35:47.499Z</time></trkpt><trkpt lat="40.9636483" lon="15.4085383"><ele>729.0</ele><time>2026-03-28T09:35:49.5Z</time></trkpt><trkpt lat="40.9635417" lon="15.4084783"><ele>729.0</ele><time>2026-03-28T09:35:51.499Z</time></trkpt><trkpt lat="40.9634867" lon="15.4084367"><ele>729.0</ele><time>2026-03-28T09:35:52.499Z</time></trkpt><trkpt lat="40.963425" lon="15.4083967"><ele>729.0</ele><time>2026-03-28T09:35:53.5Z</time></trkpt><trkpt lat="40.9633667" lon="15.4083567"><ele>729.0</ele><time>2026-03-28T09:35:54.5Z</time></trkpt><trkpt lat="40.963305" lon="15.4083183"><ele>728.7142857142858</ele><time>2026-03-28T09:35:55.5Z</time></trkpt><trkpt lat="40.9632417" lon="15.40828"><ele>728.4285714285713</ele><time>2026-03-28T09:35:56.5Z</time></trkpt><trkpt lat="40.96318" lon="15.4082467"><ele>728.1428571428571</ele><time>2026-03-28T09:35:57.5Z</time></trkpt><trkpt lat="40.9631117" lon="15.40822"><ele>727.8571428571429</ele><time>2026-03-28T09:35:58.499Z</time></trkpt><trkpt lat="40.9630383" lon="15.4081883"><ele>727.5714285714287</ele><time>2026-03-28T09:35:59.5Z</time></trkpt><trkpt lat="40.9629717" lon="15.4081567"><ele>727.2857142857142</ele><time>2026-03-28T09:36:00.5Z</time></trkpt><trkpt lat="40.962905" lon="15.4081233"><ele>727.0</ele><time>2026-03-28T09:36:01.5Z</time></trkpt><trkpt lat="40.9628317" lon="15.4080933"><ele>727.0</ele><time>2026-03-28T09:36:02.499Z</time></trkpt><trkpt lat="40.9627533" lon="15.4080667"><ele>727.0</ele><time>2026-03-28T09:36:03.5Z</time></trkpt><trkpt lat="40.9626783" lon="15.4080433"><ele>727.0</ele><time>2026-03-28T09:36:04.5Z</time></trkpt><trkpt lat="40.96261" lon="15.4080283"><ele>727.0</ele><time>2026-03-28T09:36:05.5Z</time></trkpt><trkpt lat="40.9625467" lon="15.4080133"><ele>727.0</ele><time>2026-03-28T09:36:06.499Z</time></trkpt><trkpt lat="40.9624817" lon="15.408"><ele>727.0</ele><time>2026-03-28T09:36:07.5Z</time></trkpt><trkpt lat="40.9623567" lon="15.407975"><ele>727.3333333333334</ele><time>2026-03-28T09:36:09.499Z</time></trkpt><trkpt lat="40.9622933" lon="15.4079567"><ele>727.6666666666667</ele><time>2026-03-28T09:36:10.5Z</time></trkpt><trkpt lat="40.9622233" lon="15.4079267"><ele>728.0</ele><time>2026-03-28T09:36:11.5Z</time></trkpt><trkpt lat="40.9621583" lon="15.4079033"><ele>728.3333333333334</ele><time>2026-03-28T09:36:12.5Z</time></trkpt><trkpt lat="40.962095" lon="15.4078717"><ele>728.6666666666666</ele><time>2026-03-28T09:36:13.5Z</time></trkpt><trkpt lat="40.96198" lon="15.4078283"><ele>729.0</ele><time>2026-03-28T09:36:15.5Z</time></trkpt><trkpt lat="40.9618767" lon="15.40779"><ele>729.0</ele><time>2026-03-28T09:36:17.499Z</time></trkpt><trkpt lat="40.9617967" lon="15.40775"><ele>729.0</ele><time>2026-03-28T09:36:19.499Z</time></trkpt><trkpt lat="40.9617333" lon="15.407715"><ele>729.0</ele><time>2026-03-28T09:36:21.499Z</time></trkpt><trkpt lat="40.9616617" lon="15.4077067"><ele>729.0</ele><time>2026-03-28T09:36:23.5Z</time></trkpt><trkpt lat="40.9615717" lon="15.4077133"><ele>729.0</ele><time>2026-03-28T09:36:25.499Z</time></trkpt><trkpt lat="40.9614583" lon="15.407715"><ele>729.0</ele><time>2026-03-28T09:36:27.499Z</time></trkpt><trkpt lat="40.9613417" lon="15.4077133"><ele>729.0</ele><time>2026-03-28T09:36:29.5Z</time></trkpt><trkpt lat="40.9612717" lon="15.4077233"><ele>729.0</ele><time>2026-03-28T09:36:30.499Z</time></trkpt><trkpt lat="40.961205" lon="15.40773"><ele>729.0</ele><time>2026-03-28T09:36:31.5Z</time></trkpt><trkpt lat="40.961135" lon="15.4077433"><ele>729.0</ele><time>2026-03-28T09:36:32.5Z</time></trkpt><trkpt lat="40.9610583" lon="15.4077617"><ele>729.0</ele><time>2026-03-28T09:36:33.499Z</time></trkpt><trkpt lat="40.9609867" lon="15.40778"><ele>729.0</ele><time>2026-03-28T09:36:34.499Z</time></trkpt><trkpt lat="40.96091" lon="15.4078"><ele>729.0</ele><time>2026-03-28T09:36:35.499Z</time></trkpt><trkpt lat="40.960835" lon="15.4078333"><ele>729.0</ele><time>2026-03-28T09:36:36.499Z</time></trkpt><trkpt lat="40.9607633" lon="15.40786"><ele>729.0</ele><time>2026-03-28T09:36:37.499Z</time></trkpt><trkpt lat="40.9606967" lon="15.407885"><ele>729.0</ele><time>2026-03-28T09:36:38.499Z</time></trkpt><trkpt lat="40.96063" lon="15.4079067"><ele>729.0</ele><time>2026-03-28T09:36:39.5Z</time></trkpt><trkpt lat="40.9605167" lon="15.407945"><ele>729.0</ele><time>2026-03-28T09:36:41.5Z</time></trkpt><trkpt lat="40.9604217" lon="15.40798"><ele>729.0</ele><time>2026-03-28T09:36:43.499Z</time></trkpt><trkpt lat="40.9603367" lon="15.4080333"><ele>729.0</ele><time>2026-03-28T09:36:45.5Z</time></trkpt><trkpt lat="40.9602317" lon="15.408075"><ele>729.0</ele><time>2026-03-28T09:36:47.499Z</time></trkpt><trkpt lat="40.9601483" lon="15.4080983"><ele>729.0</ele><time>2026-03-28T09:36:49.5Z</time></trkpt><trkpt lat="40.9600583" lon="15.4081333"><ele>729.0</ele><time>2026-03-28T09:40:13.501Z</time></trkpt><trkpt lat="40.959995" lon="15.408145"><ele>729.0</ele><time>2026-03-28T09:40:15.5Z</time></trkpt><trkpt lat="40.9599217" lon="15.4081533"><ele>729.0</ele><time>2026-03-28T09:40:17.5Z</time></trkpt><trkpt lat="40.9598567" lon="15.4081633"><ele>729.0</ele><time>2026-03-28T09:40:20.501Z</time></trkpt><trkpt lat="40.9597667" lon="15.4081917"><ele>729.0</ele><time>2026-03-28T09:40:24.501Z</time></trkpt><trkpt lat="40.9597017" lon="15.4082083"><ele>729.0</ele><time>2026-03-28T09:40:26.5Z</time></trkpt><trkpt lat="40.9596117" lon="15.4082333"><ele>729.0</ele><time>2026-03-28T09:40:28.501Z</time></trkpt><trkpt lat="40.959525" lon="15.4082633"><ele>729.0</ele><time>2026-03-28T09:40:30.501Z</time></trkpt><trkpt lat="40.9594467" lon="15.4083"><ele>729.0</ele><time>2026-03-28T09:40:32.501Z</time></trkpt><trkpt lat="40.959365" lon="15.4083283"><ele>729.0</ele><time>2026-03-28T09:40:34.501Z</time></trkpt><trkpt lat="40.9592667" lon="15.4083483"><ele>729.0</ele><time>2026-03-28T09:40:36.501Z</time></trkpt><trkpt lat="40.9591833" lon="15.40836"><ele>729.0</ele><time>2026-03-28T09:40:38.501Z</time></trkpt><trkpt lat="40.9590883" lon="15.4083817"><ele>729.0</ele><time>2026-03-28T09:41:51.501Z</time></trkpt><trkpt lat="40.95899" lon="15.4084283"><ele>729.0</ele><time>2026-03-28T09:41:53.501Z</time></trkpt><trkpt lat="40.9588833" lon="15.4084667"><ele>729.2</ele><time>2026-03-28T09:41:55.501Z</time></trkpt><trkpt lat="40.9587617" lon="15.4085117"><ele>729.4000000000001</ele><time>2026-03-28T09:41:57.501Z</time></trkpt><trkpt lat="40.958635" lon="15.4085467"><ele>729.6</ele><time>2026-03-28T09:41:59.5Z</time></trkpt><trkpt lat="40.9585667" lon="15.4085717"><ele>729.8</ele><time>2026-03-28T09:42:00.501Z</time></trkpt><trkpt lat="40.9584967" lon="15.408595"><ele>730.0</ele><time>2026-03-28T09:42:01.501Z</time></trkpt><trkpt lat="40.95843" lon="15.408615"><ele>730.7142857142858</ele><time>2026-03-28T09:42:02.5Z</time></trkpt><trkpt lat="40.9583633" lon="15.4086383"><ele>731.4285714285714</ele><time>2026-03-28T09:42:03.5Z</time></trkpt><trkpt lat="40.9582917" lon="15.4086633"><ele>732.1428571428571</ele><time>2026-03-28T09:42:04.501Z</time></trkpt><trkpt lat="40.9582233" lon="15.40869"><ele>732.8571428571429</ele><time>2026-03-28T09:42:05.501Z</time></trkpt><trkpt lat="40.9581583" lon="15.4087133"><ele>733.5714285714286</ele><time>2026-03-28T09:42:06.501Z</time></trkpt><trkpt lat="40.9580917" lon="15.4087267"><ele>734.2857142857143</ele><time>2026-03-28T09:42:07.501Z</time></trkpt><trkpt lat="40.9580217" lon="15.4087383"><ele>735.0</ele><time>2026-03-28T09:42:08.5Z</time></trkpt><trkpt lat="40.9579483" lon="15.4087433"><ele>735.0</ele><time>2026-03-28T09:42:09.5Z</time></trkpt><trkpt lat="40.9578767" lon="15.4087483"><ele>735.0</ele><time>2026-03-28T09:42:10.5Z</time></trkpt><trkpt lat="40.957765" lon="15.40877"><ele>735.0</ele><time>2026-03-28T09:42:12.501Z</time></trkpt><trkpt lat="40.95767" lon="15.4087783"><ele>735.0</ele><time>2026-03-28T09:42:14.501Z</time></trkpt><trkpt lat="40.9575683" lon="15.40878"><ele>735.0</ele><time>2026-03-28T09:42:16.501Z</time></trkpt><trkpt lat="40.9574567" lon="15.4087717"><ele>735.3333333333334</ele><time>2026-03-28T09:42:18.501Z</time></trkpt><trkpt lat="40.9573383" lon="15.40875"><ele>735.6666666666666</ele><time>2026-03-28T09:42:20.5Z</time></trkpt><trkpt lat="40.9572633" lon="15.4087283"><ele>736.0</ele><time>2026-03-28T09:42:22.5Z</time></trkpt><trkpt lat="40.9572" lon="15.40871"><ele>736.3333333333333</ele><time>2026-03-28T09:42:24.501Z</time></trkpt><trkpt lat="40.95713" lon="15.4086767"><ele>736.6666666666666</ele><time>2026-03-28T09:42:26.501Z</time></trkpt><trkpt lat="40.9570617" lon="15.4086467"><ele>737.0</ele><time>2026-03-28T09:42:28.501Z</time></trkpt><trkpt lat="40.9569917" lon="15.4086317"><ele>737.0</ele><time>2026-03-28T09:42:30.501Z</time></trkpt><trkpt lat="40.9569083" lon="15.4085917"><ele>737.0</ele><time>2026-03-28T09:42:32.501Z</time></trkpt><trkpt lat="40.9568317" lon="15.4085617"><ele>737.0</ele><time>2026-03-28T09:42:34.501Z</time></trkpt><trkpt lat="40.95676" lon="15.4085483"><ele>737.0</ele><time>2026-03-28T09:42:36.501Z</time></trkpt><trkpt lat="40.9566917" lon="15.40851"><ele>737.0</ele><time>2026-03-28T09:42:38.5Z</time></trkpt><trkpt lat="40.9566167" lon="15.4084683"><ele>737.0</ele><time>2026-03-28T09:42:40.5Z</time></trkpt><trkpt lat="40.9565333" lon="15.408435"><ele>737.2857142857143</ele><time>2026-03-28T09:42:42.501Z</time></trkpt><trkpt lat="40.9564583" lon="15.4083933"><ele>737.5714285714286</ele><time>2026-03-28T09:42:44.501Z</time></trkpt><trkpt lat="40.95639" lon="15.408365"><ele>737.8571428571429</ele><time>2026-03-28T09:42:46.5Z</time></trkpt><trkpt lat="40.95632" lon="15.4083217"><ele>738.1428571428571</ele><time>2026-03-28T09:42:48.501Z</time></trkpt><trkpt lat="40.9562417" lon="15.4082933"><ele>738.4285714285714</ele><time>2026-03-28T09:42:50.501Z</time></trkpt><trkpt lat="40.9561783" lon="15.4082733"><ele>738.7142857142858</ele><time>2026-03-28T09:42:52.5Z</time></trkpt><trkpt lat="40.956115" lon="15.4082467"><ele>739.0</ele><time>2026-03-28T09:42:54.501Z</time></trkpt><trkpt lat="40.95605" lon="15.4082117"><ele>739.0</ele><time>2026-03-28T09:42:56.501Z</time></trkpt><trkpt lat="40.9559883" lon="15.4081783"><ele>739.0</ele><time>2026-03-28T09:42:58.5Z</time></trkpt><trkpt lat="40.9559183" lon="15.4081367"><ele>739.0</ele><time>2026-03-28T09:43:00.5Z</time></trkpt><trkpt lat="40.9558483" lon="15.4081183"><ele>739.0</ele><time>2026-03-28T09:43:02.5Z</time></trkpt><trkpt lat="40.9557667" lon="15.40809"><ele>739.0</ele><time>2026-03-28T09:43:04.5Z</time></trkpt><trkpt lat="40.9556617" lon="15.4080617"><ele>739.0</ele><time>2026-03-28T09:43:06.5Z</time></trkpt><trkpt lat="40.955545" lon="15.4080283"><ele>738.8000000000001</ele><time>2026-03-28T09:43:08.501Z</time></trkpt><trkpt lat="40.9554517" lon="15.40801"><ele>738.6</ele><time>2026-03-28T09:43:10.5Z</time></trkpt><trkpt lat="40.9553517" lon="15.4079883"><ele>738.4</ele><time>2026-03-28T09:43:12.5Z</time></trkpt><trkpt lat="40.955255" lon="15.4079567"><ele>738.2</ele><time>2026-03-28T09:43:14.501Z</time></trkpt><trkpt lat="40.95515" lon="15.407925"><ele>738.0</ele><time>2026-03-28T09:43:16.501Z</time></trkpt><trkpt lat="40.95505" lon="15.407885"><ele>737.0</ele><time>2026-03-28T09:43:18.501Z</time></trkpt><trkpt lat="40.9549417" lon="15.4078483"><ele>736.0</ele><time>2026-03-28T09:43:20.501Z</time></trkpt><trkpt lat="40.95483" lon="15.407805"><ele>735.0</ele><time>2026-03-28T09:43:22.5Z</time></trkpt><trkpt lat="40.954715" lon="15.4077617"><ele>734.0</ele><time>2026-03-28T09:43:24.5Z</time></trkpt><trkpt lat="40.9546" lon="15.407725"><ele>734.0</ele><time>2026-03-28T09:43:26.5Z</time></trkpt><trkpt lat="40.954505" lon="15.4076817"><ele>734.0</ele><time>2026-03-28T09:43:28.501Z</time></trkpt><trkpt lat="40.9543967" lon="15.40764"><ele>734.0</ele><time>2026-03-28T09:43:30.501Z</time></trkpt><trkpt lat="40.9543033" lon="15.407595"><ele>734.0</ele><time>2026-03-28T09:43:32.5Z</time></trkpt><trkpt lat="40.95424" lon="15.407565"><ele>734.0</ele><time>2026-03-28T09:43:34.5Z</time></trkpt><trkpt lat="40.9541767" lon="15.4075233"><ele>733.6666666666666</ele><time>2026-03-28T09:43:36.501Z</time></trkpt><trkpt lat="40.9541033" lon="15.4074933"><ele>733.3333333333333</ele><time>2026-03-28T09:43:38.501Z</time></trkpt><trkpt lat="40.95402" lon="15.4074533"><ele>733.0</ele><time>2026-03-28T09:43:40.501Z</time></trkpt><trkpt lat="40.9539417" lon="15.40742"><ele>732.6666666666666</ele><time>2026-03-28T09:43:42.5Z</time></trkpt><trkpt lat="40.953865" lon="15.407385"><ele>732.3333333333334</ele><time>2026-03-28T09:43:44.501Z</time></trkpt><trkpt lat="40.953785" lon="15.40735"><ele>732.0</ele><time>2026-03-28T09:43:46.501Z</time></trkpt><trkpt lat="40.9536967" lon="15.4073183"><ele>732.0</ele><time>2026-03-28T09:43:49.501Z</time></trkpt><trkpt lat="40.9536183" lon="15.4072983"><ele>732.0</ele><time>2026-03-28T09:43:51.5Z</time></trkpt><trkpt lat="40.9535317" lon="15.4072567"><ele>732.0</ele><time>2026-03-28T09:43:53.5Z</time></trkpt><trkpt lat="40.95345" lon="15.4072217"><ele>732.0</ele><time>2026-03-28T09:43:55.501Z</time></trkpt><trkpt lat="40.953365" lon="15.4071867"><ele>732.0</ele><time>2026-03-28T09:43:57.5Z</time></trkpt><trkpt lat="40.9532867" lon="15.4071433"><ele>732.0</ele><time>2026-03-28T09:43:59.501Z</time></trkpt><trkpt lat="40.9532" lon="15.4070917"><ele>731.75</ele><time>2026-03-28T09:44:01.501Z</time></trkpt><trkpt lat="40.953095" lon="15.4070333"><ele>731.5</ele><time>2026-03-28T09:44:03.501Z</time></trkpt><trkpt lat="40.9529967" lon="15.4069667"><ele>731.25</ele><time>2026-03-28T09:44:05.5Z</time></trkpt><trkpt lat="40.9528933" lon="15.406895"><ele>731.0</ele><time>2026-03-28T09:44:07.501Z</time></trkpt><trkpt lat="40.9527917" lon="15.406815"><ele>731.0</ele><time>2026-03-28T09:44:09.501Z</time></trkpt><trkpt lat="40.9526933" lon="15.4067333"><ele>731.0</ele><time>2026-03-28T09:44:11.501Z</time></trkpt><trkpt lat="40.952595" lon="15.40666"><ele>731.0</ele><time>2026-03-28T09:44:13.5Z</time></trkpt><trkpt lat="40.95249" lon="15.4065833"><ele>731.0</ele><time>2026-03-28T09:44:15.5Z</time></trkpt><trkpt lat="40.9523917" lon="15.4065"><ele>731.0</ele><time>2026-03-28T09:44:17.5Z</time></trkpt><trkpt lat="40.9523183" lon="15.406425"><ele>731.0</ele><time>2026-03-28T09:44:19.5Z</time></trkpt><trkpt lat="40.9522517" lon="15.406375"><ele>731.0</ele><time>2026-03-28T09:44:21.5Z</time></trkpt><trkpt lat="40.9521767" lon="15.4063233"><ele>731.0</ele><time>2026-03-28T09:44:24.501Z</time></trkpt><trkpt lat="40.952105" lon="15.406285"><ele>731.0</ele><time>2026-03-28T09:44:27.501Z</time></trkpt><trkpt lat="40.9520333" lon="15.4062317"><ele>731.0</ele><time>2026-03-28T09:44:30.502Z</time></trkpt><trkpt lat="40.951975" lon="15.4061767"><ele>731.0</ele><time>2026-03-28T09:44:33.501Z</time></trkpt><trkpt lat="40.951885" lon="15.4061283"><ele>731.0</ele><time>2026-03-28T09:51:01.503Z</time></trkpt><trkpt lat="40.951815" lon="15.4060933"><ele>731.0</ele><time>2026-03-28T09:51:03.503Z</time></trkpt><trkpt lat="40.9517283" lon="15.4060367"><ele>731.0</ele><time>2026-03-28T09:51:22.503Z</time></trkpt><trkpt lat="40.951655" lon="15.4060083"><ele>731.0</ele><time>2026-03-28T09:51:24.503Z</time></trkpt><trkpt lat="40.9515683" lon="15.405975"><ele>731.0</ele><time>2026-03-28T09:51:26.502Z</time></trkpt><trkpt lat="40.95148" lon="15.40595"><ele>731.0</ele><time>2026-03-28T09:51:28.502Z</time></trkpt><trkpt lat="40.951395" lon="15.405915"><ele>731.0</ele><time>2026-03-28T09:51:30.502Z</time></trkpt><trkpt lat="40.95129" lon="15.40588"><ele>731.0</ele><time>2026-03-28T09:51:32.503Z</time></trkpt><trkpt lat="40.9511867" lon="15.4058433"><ele>731.0</ele><time>2026-03-28T09:51:34.503Z</time></trkpt><trkpt lat="40.9510617" lon="15.40581"><ele>731.0</ele><time>2026-03-28T09:51:36.502Z</time></trkpt><trkpt lat="40.95095" lon="15.4057733"><ele>731.5</ele><time>2026-03-28T09:51:38.503Z</time></trkpt><trkpt lat="40.9508333" lon="15.4057367"><ele>732.0</ele><time>2026-03-28T09:51:40.503Z</time></trkpt><trkpt lat="40.9507717" lon="15.4057183"><ele>732.5</ele><time>2026-03-28T09:51:41.502Z</time></trkpt><trkpt lat="40.9507083" lon="15.4056933"><ele>733.0</ele><time>2026-03-28T09:51:42.503Z</time></trkpt><trkpt lat="40.9506467" lon="15.4056683"><ele>733.5</ele><time>2026-03-28T09:51:43.503Z</time></trkpt><trkpt lat="40.950535" lon="15.4056267"><ele>734.0</ele><time>2026-03-28T09:51:45.503Z</time></trkpt><trkpt lat="40.9504217" lon="15.4055783"><ele>734.0</ele><time>2026-03-28T09:51:47.503Z</time></trkpt><trkpt lat="40.95036" lon="15.4055617"><ele>734.0</ele><time>2026-03-28T09:51:48.503Z</time></trkpt><trkpt lat="40.9502983" lon="15.405545"><ele>734.0</ele><time>2026-03-28T09:51:49.502Z</time></trkpt><trkpt lat="40.9501933" lon="15.4055283"><ele>734.0</ele><time>2026-03-28T09:51:51.502Z</time></trkpt><trkpt lat="40.9500917" lon="15.4055083"><ele>734.0</ele><time>2026-03-28T09:51:53.503Z</time></trkpt><trkpt lat="40.9499933" lon="15.40549"><ele>734.0</ele><time>2026-03-28T09:51:55.502Z</time></trkpt><trkpt lat="40.9499167" lon="15.4054767"><ele>734.0</ele><time>2026-03-28T09:51:57.502Z</time></trkpt><trkpt lat="40.9498417" lon="15.4054783"><ele>734.0</ele><time>2026-03-28T09:51:59.502Z</time></trkpt><trkpt lat="40.949775" lon="15.4054667"><ele>734.0</ele><time>2026-03-28T09:52:01.503Z</time></trkpt><trkpt lat="40.9497083" lon="15.405445"><ele>734.0</ele><time>2026-03-28T09:52:03.503Z</time></trkpt><trkpt lat="40.9496217" lon="15.4054083"><ele>734.0</ele><time>2026-03-28T09:52:05.502Z</time></trkpt><trkpt lat="40.9495183" lon="15.4053683"><ele>734.0</ele><time>2026-03-28T09:52:07.503Z</time></trkpt><trkpt lat="40.9494233" lon="15.4053267"><ele>734.0</ele><time>2026-03-28T09:52:09.503Z</time></trkpt><trkpt lat="40.9493383" lon="15.405275"><ele>734.0</ele><time>2026-03-28T09:52:11.503Z</time></trkpt><trkpt lat="40.949255" lon="15.4052217"><ele>734.0</ele><time>2026-03-28T09:52:13.503Z</time></trkpt><trkpt lat="40.9491567" lon="15.40517"><ele>734.0</ele><time>2026-03-28T09:52:15.503Z</time></trkpt><trkpt lat="40.9490683" lon="15.4051133"><ele>734.0</ele><time>2026-03-28T09:52:17.503Z</time></trkpt><trkpt lat="40.94897" lon="15.4050467"><ele>734.8000000000001</ele><time>2026-03-28T09:52:19.503Z</time></trkpt><trkpt lat="40.9488767" lon="15.4049883"><ele>735.6</ele><time>2026-03-28T09:52:21.503Z</time></trkpt><trkpt lat="40.9487767" lon="15.4049317"><ele>736.4</ele><time>2026-03-28T09:52:23.502Z</time></trkpt><trkpt lat="40.9486767" lon="15.4048633"><ele>737.2</ele><time>2026-03-28T09:52:25.503Z</time></trkpt><trkpt lat="40.9485783" lon="15.40479"><ele>738.0</ele><time>2026-03-28T09:52:27.502Z</time></trkpt><trkpt lat="40.948485" lon="15.404725"><ele>738.0</ele><time>2026-03-28T09:52:29.502Z</time></trkpt><trkpt lat="40.9483967" lon="15.404655"><ele>738.0</ele><time>2026-03-28T09:52:31.503Z</time></trkpt><trkpt lat="40.9483417" lon="15.40461"><ele>738.0</ele><time>2026-03-28T09:52:32.503Z</time></trkpt><trkpt lat="40.9482867" lon="15.40456"><ele>738.0</ele><time>2026-03-28T09:52:33.503Z</time></trkpt><trkpt lat="40.9481867" lon="15.4044733"><ele>738.0</ele><time>2026-03-28T09:52:35.502Z</time></trkpt><trkpt lat="40.9480833" lon="15.4043967"><ele>739.0</ele><time>2026-03-28T09:52:37.502Z</time></trkpt><trkpt lat="40.9479917" lon="15.404325"><ele>740.0</ele><time>2026-03-28T09:52:39.503Z</time></trkpt><trkpt lat="40.9479267" lon="15.4042767"><ele>741.0</ele><time>2026-03-28T09:52:41.502Z</time></trkpt><trkpt lat="40.9478633" lon="15.4042867"><ele>742.0</ele><time>2026-03-28T09:52:43.503Z</time></trkpt><trkpt lat="40.9478017" lon="15.404365"><ele>743.0</ele><time>2026-03-28T09:52:45.503Z</time></trkpt><trkpt lat="40.9477567" lon="15.4044883"><ele>744.0</ele><time>2026-03-28T09:52:47.503Z</time></trkpt><trkpt lat="40.9477083" lon="15.404605"><ele>743.4000000000001</ele><time>2026-03-28T09:52:49.503Z</time></trkpt><trkpt lat="40.947645" lon="15.4047167"><ele>742.8</ele><time>2026-03-28T09:52:51.502Z</time></trkpt><trkpt lat="40.947585" lon="15.404835"><ele>742.2</ele><time>2026-03-28T09:52:53.502Z</time></trkpt><trkpt lat="40.9475133" lon="15.4049467"><ele>741.5999999999999</ele><time>2026-03-28T09:52:55.503Z</time></trkpt><trkpt lat="40.9474117" lon="15.4050417"><ele>741.0</ele><time>2026-03-28T09:52:57.503Z</time></trkpt><trkpt lat="40.9473533" lon="15.4050833"><ele>741.0</ele><time>2026-03-28T09:52:58.503Z</time></trkpt><trkpt lat="40.9472933" lon="15.4051183"><ele>741.0</ele><time>2026-03-28T09:52:59.503Z</time></trkpt><trkpt lat="40.9472317" lon="15.405145"><ele>741.0</ele><time>2026-03-28T09:53:00.503Z</time></trkpt><trkpt lat="40.947115" lon="15.4051583"><ele>741.0</ele><time>2026-03-28T09:53:02.503Z</time></trkpt><trkpt lat="40.9469983" lon="15.4051417"><ele>741.0</ele><time>2026-03-28T09:53:04.502Z</time></trkpt><trkpt lat="40.94688" lon="15.4051017"><ele>741.0</ele><time>2026-03-28T09:53:06.503Z</time></trkpt><trkpt lat="40.9467683" lon="15.4050717"><ele>741.0</ele><time>2026-03-28T09:53:08.502Z</time></trkpt><trkpt lat="40.9466617" lon="15.405045"><ele>741.0</ele><time>2026-03-28T09:53:10.503Z</time></trkpt><trkpt lat="40.946535" lon="15.4050483"><ele>741.0</ele><time>2026-03-28T09:53:12.503Z</time></trkpt><trkpt lat="40.9464667" lon="15.4050617"><ele>741.0</ele><time>2026-03-28T09:53:13.503Z</time></trkpt><trkpt lat="40.9464033" lon="15.4050833"><ele>740.5</ele><time>2026-03-28T09:53:14.503Z</time></trkpt><trkpt lat="40.94631" lon="15.4051767"><ele>740.0</ele><time>2026-03-28T09:53:16.502Z</time></trkpt><trkpt lat="40.9462717" lon="15.4052533"><ele>739.5</ele><time>2026-03-28T09:53:17.503Z</time></trkpt><trkpt lat="40.9462433" lon="15.4053433"><ele>739.0</ele><time>2026-03-28T09:53:18.503Z</time></trkpt><trkpt lat="40.946215" lon="15.4054367"><ele>738.5</ele><time>2026-03-28T09:53:19.503Z</time></trkpt><trkpt lat="40.946185" lon="15.405545"><ele>738.0</ele><time>2026-03-28T09:53:20.502Z</time></trkpt><trkpt lat="40.9461467" lon="15.405655"><ele>735.4</ele><time>2026-03-28T09:53:21.503Z</time></trkpt><trkpt lat="40.9461133" lon="15.4057667"><ele>732.8</ele><time>2026-03-28T09:53:22.503Z</time></trkpt><trkpt lat="40.9460833" lon="15.4058783"><ele>730.2</ele><time>2026-03-28T09:53:23.503Z</time></trkpt><trkpt lat="40.9460483" lon="15.40599"><ele>727.6</ele><time>2026-03-28T09:53:24.502Z</time></trkpt><trkpt lat="40.946025" lon="15.4061117"><ele>725.0</ele><time>2026-03-28T09:53:25.502Z</time></trkpt><trkpt lat="40.9460033" lon="15.4062333"><ele>722.6</ele><time>2026-03-28T09:53:26.503Z</time></trkpt><trkpt lat="40.9459817" lon="15.4063633"><ele>720.2</ele><time>2026-03-28T09:53:27.503Z</time></trkpt><trkpt lat="40.945965" lon="15.40649"><ele>717.8</ele><time>2026-03-28T09:53:28.502Z</time></trkpt><trkpt lat="40.9459433" lon="15.4066033"><ele>715.4</ele><time>2026-03-28T09:53:29.503Z</time></trkpt><trkpt lat="40.94592" lon="15.4067117"><ele>713.0</ele><time>2026-03-28T09:53:30.504Z</time></trkpt><trkpt lat="40.9458983" lon="15.4068233"><ele>712.8333333333333</ele><time>2026-03-28T09:53:31.504Z</time></trkpt><trkpt lat="40.9458717" lon="15.4069317"><ele>712.6666666666666</ele><time>2026-03-28T09:53:32.504Z</time></trkpt><trkpt lat="40.94585" lon="15.4070417"><ele>712.5</ele><time>2026-03-28T09:53:33.504Z</time></trkpt><trkpt lat="40.9458233" lon="15.40715"><ele>712.3333333333334</ele><time>2026-03-28T09:53:34.503Z</time></trkpt><trkpt lat="40.9457933" lon="15.4072583"><ele>712.1666666666667</ele><time>2026-03-28T09:53:35.504Z</time></trkpt><trkpt lat="40.9457617" lon="15.4073633"><ele>712.0</ele><time>2026-03-28T09:53:36.503Z</time></trkpt><trkpt lat="40.9457317" lon="15.407465"><ele>710.1666666666667</ele><time>2026-03-28T09:53:37.504Z</time></trkpt><trkpt lat="40.94569" lon="15.4075617"><ele>708.3333333333334</ele><time>2026-03-28T09:53:38.504Z</time></trkpt><trkpt lat="40.9456467" lon="15.4076517"><ele>706.5</ele><time>2026-03-28T09:53:39.504Z</time></trkpt><trkpt lat="40.9456067" lon="15.407745"><ele>704.6666666666666</ele><time>2026-03-28T09:53:40.503Z</time></trkpt><trkpt lat="40.9455583" lon="15.4078283"><ele>702.8333333333333</ele><time>2026-03-28T09:53:41.503Z</time></trkpt><trkpt lat="40.94551" lon="15.407905"><ele>701.0</ele><time>2026-03-28T09:53:42.504Z</time></trkpt><trkpt lat="40.9454483" lon="15.4079817"><ele>699.1666666666666</ele><time>2026-03-28T09:53:43.504Z</time></trkpt><trkpt lat="40.9453917" lon="15.4080567"><ele>697.3333333333333</ele><time>2026-03-28T09:53:44.504Z</time></trkpt><trkpt lat="40.945325" lon="15.40813"><ele>695.5</ele><time>2026-03-28T09:53:45.503Z</time></trkpt><trkpt lat="40.94526" lon="15.4082067"><ele>693.6666666666666</ele><time>2026-03-28T09:53:46.503Z</time></trkpt><trkpt lat="40.9451983" lon="15.40828"><ele>691.8333333333334</ele><time>2026-03-28T09:53:47.503Z</time></trkpt><trkpt lat="40.945135" lon="15.4083517"><ele>690.0</ele><time>2026-03-28T09:53:48.503Z</time></trkpt><trkpt lat="40.94507" lon="15.4084283"><ele>689.8333333333334</ele><time>2026-03-28T09:53:49.503Z</time></trkpt><trkpt lat="40.9450133" lon="15.4085033"><ele>689.6666666666666</ele><time>2026-03-28T09:53:50.504Z</time></trkpt><trkpt lat="40.9449533" lon="15.4085833"><ele>689.5</ele><time>2026-03-28T09:53:51.503Z</time></trkpt><trkpt lat="40.944895" lon="15.4086617"><ele>689.3333333333333</ele><time>2026-03-28T09:53:52.503Z</time></trkpt><trkpt lat="40.9448333" lon="15.4087417"><ele>689.1666666666666</ele><time>2026-03-28T09:53:53.504Z</time></trkpt><trkpt lat="40.944765" lon="15.4088217"><ele>689.0</ele><time>2026-03-28T09:53:54.503Z</time></trkpt><trkpt lat="40.9447017" lon="15.4088983"><ele>688.0</ele><time>2026-03-28T09:53:55.503Z</time></trkpt><trkpt lat="40.9446483" lon="15.4089767"><ele>687.0</ele><time>2026-03-28T09:53:56.504Z</time></trkpt><trkpt lat="40.9445983" lon="15.4090517"><ele>686.0</ele><time>2026-03-28T09:53:57.504Z</time></trkpt><trkpt lat="40.9445517" lon="15.4091183"><ele>685.0</ele><time>2026-03-28T09:53:58.503Z</time></trkpt><trkpt lat="40.9445117" lon="15.4091833"><ele>684.0</ele><time>2026-03-28T09:53:59.504Z</time></trkpt><trkpt lat="40.9444733" lon="15.40925"><ele>683.0</ele><time>2026-03-28T09:54:00.504Z</time></trkpt><trkpt lat="40.9444117" lon="15.4093867"><ele>683.0</ele><time>2026-03-28T09:54:02.503Z</time></trkpt><trkpt lat="40.94439" lon="15.4095083"><ele>683.0</ele><time>2026-03-28T09:54:04.504Z</time></trkpt><trkpt lat="40.9443933" lon="15.409645"><ele>683.0</ele><time>2026-03-28T09:54:06.504Z</time></trkpt><trkpt lat="40.9443967" lon="15.4097517"><ele>683.0</ele><time>2026-03-28T09:54:08.504Z</time></trkpt><trkpt lat="40.9443317" lon="15.40989"><ele>683.0</ele><time>2026-03-28T09:54:56.504Z</time></trkpt><trkpt lat="40.944265" lon="15.4099217"><ele>682.8333333333333</ele><time>2026-03-28T09:54:58.503Z</time></trkpt><trkpt lat="40.9441567" lon="15.4098867"><ele>682.6666666666666</ele><time>2026-03-28T09:55:00.504Z</time></trkpt><trkpt lat="40.9440867" lon="15.4098767"><ele>682.5</ele><time>2026-03-28T09:55:01.504Z</time></trkpt><trkpt lat="40.944005" lon="15.4098883"><ele>682.3333333333334</ele><time>2026-03-28T09:55:02.503Z</time></trkpt><trkpt lat="40.9439267" lon="15.4099183"><ele>682.1666666666667</ele><time>2026-03-28T09:55:03.504Z</time></trkpt><trkpt lat="40.9438467" lon="15.4099683"><ele>682.0</ele><time>2026-03-28T09:55:04.504Z</time></trkpt><trkpt lat="40.94377" lon="15.410035"><ele>682.0</ele><time>2026-03-28T09:55:05.504Z</time></trkpt><trkpt lat="40.943695" lon="15.4101133"><ele>682.0</ele><time>2026-03-28T09:55:06.503Z</time></trkpt><trkpt lat="40.9436167" lon="15.4101883"><ele>682.0</ele><time>2026-03-28T09:55:07.503Z</time></trkpt><trkpt lat="40.9435433" lon="15.410245"><ele>682.0</ele><time>2026-03-28T09:55:08.503Z</time></trkpt><trkpt lat="40.9434683" lon="15.4103117"><ele>682.0</ele><time>2026-03-28T09:55:09.504Z</time></trkpt><trkpt lat="40.9434" lon="15.4103717"><ele>682.0</ele><time>2026-03-28T09:55:10.504Z</time></trkpt><trkpt lat="40.94333" lon="15.4104333"><ele>683.4000000000001</ele><time>2026-03-28T09:55:11.504Z</time></trkpt><trkpt lat="40.943255" lon="15.4104883"><ele>684.8000000000001</ele><time>2026-03-28T09:55:12.504Z</time></trkpt><trkpt lat="40.9431717" lon="15.4105383"><ele>686.2</ele><time>2026-03-28T09:55:13.504Z</time></trkpt><trkpt lat="40.94308" lon="15.4105917"><ele>687.6</ele><time>2026-03-28T09:55:14.503Z</time></trkpt><trkpt lat="40.942995" lon="15.4106417"><ele>689.0</ele><time>2026-03-28T09:55:15.503Z</time></trkpt><trkpt lat="40.9429133" lon="15.410685"><ele>689.5</ele><time>2026-03-28T09:55:16.503Z</time></trkpt><trkpt lat="40.9428367" lon="15.4107317"><ele>690.0</ele><time>2026-03-28T09:55:17.504Z</time></trkpt><trkpt lat="40.942755" lon="15.4107817"><ele>690.5</ele><time>2026-03-28T09:55:18.503Z</time></trkpt><trkpt lat="40.9426817" lon="15.4108167"><ele>691.0</ele><time>2026-03-28T09:55:19.504Z</time></trkpt><trkpt lat="40.9426017" lon="15.410855"><ele>691.5</ele><time>2026-03-28T09:55:20.504Z</time></trkpt><trkpt lat="40.9425167" lon="15.4108867"><ele>692.0</ele><time>2026-03-28T09:55:21.504Z</time></trkpt><trkpt lat="40.94243" lon="15.4109133"><ele>693.3333333333333</ele><time>2026-03-28T09:55:22.503Z</time></trkpt><trkpt lat="40.9423417" lon="15.410945"><ele>694.6666666666666</ele><time>2026-03-28T09:55:23.503Z</time></trkpt><trkpt lat="40.9422633" lon="15.4109783"><ele>696.0</ele><time>2026-03-28T09:55:24.503Z</time></trkpt><trkpt lat="40.942185" lon="15.41101"><ele>697.3333333333334</ele><time>2026-03-28T09:55:25.503Z</time></trkpt><trkpt lat="40.942105" lon="15.4110317"><ele>698.6666666666667</ele><time>2026-03-28T09:55:26.503Z</time></trkpt><trkpt lat="40.9420183" lon="15.41106"><ele>700.0</ele><time>2026-03-28T09:55:27.504Z</time></trkpt><trkpt lat="40.94194" lon="15.4110867"><ele>700.0</ele><time>2026-03-28T09:55:28.504Z</time></trkpt><trkpt lat="40.9418633" lon="15.4110983"><ele>700.0</ele><time>2026-03-28T09:55:29.504Z</time></trkpt><trkpt lat="40.9417833" lon="15.41111"><ele>700.0</ele><time>2026-03-28T09:55:30.504Z</time></trkpt><trkpt lat="40.9417" lon="15.4111317"><ele>700.0</ele><time>2026-03-28T09:55:31.504Z</time></trkpt><trkpt lat="40.941605" lon="15.4111617"><ele>700.0</ele><time>2026-03-28T09:55:32.503Z</time></trkpt><trkpt lat="40.9415167" lon="15.41118"><ele>700.0</ele><time>2026-03-28T09:55:33.504Z</time></trkpt><trkpt lat="40.9414367" lon="15.4111983"><ele>702.3333333333334</ele><time>2026-03-28T09:55:34.503Z</time></trkpt><trkpt lat="40.9413583" lon="15.4112283"><ele>704.6666666666667</ele><time>2026-03-28T09:55:35.503Z</time></trkpt><trkpt lat="40.9412767" lon="15.4112517"><ele>707.0</ele><time>2026-03-28T09:55:36.504Z</time></trkpt><trkpt lat="40.9412017" lon="15.41126"><ele>709.3333333333334</ele><time>2026-03-28T09:55:37.504Z</time></trkpt><trkpt lat="40.941125" lon="15.4112517"><ele>711.6666666666666</ele><time>2026-03-28T09:55:38.504Z</time></trkpt><trkpt lat="40.94104" lon="15.411245"><ele>714.0</ele><time>2026-03-28T09:55:39.503Z</time></trkpt><trkpt lat="40.94095" lon="15.4112267"><ele>716.0</ele><time>2026-03-28T09:55:40.504Z</time></trkpt><trkpt lat="40.9408683" lon="15.4112083"><ele>718.0</ele><time>2026-03-28T09:55:41.504Z</time></trkpt><trkpt lat="40.9407783" lon="15.4111983"><ele>720.0</ele><time>2026-03-28T09:55:42.504Z</time></trkpt><trkpt lat="40.9406883" lon="15.411185"><ele>722.0</ele><time>2026-03-28T09:55:43.503Z</time></trkpt><trkpt lat="40.940605" lon="15.4111767"><ele>724.0</ele><time>2026-03-28T09:55:44.503Z</time></trkpt><trkpt lat="40.9405217" lon="15.4111683"><ele>726.0</ele><time>2026-03-28T09:55:45.504Z</time></trkpt><trkpt lat="40.9404433" lon="15.4111617"><ele>726.0</ele><time>2026-03-28T09:55:46.504Z</time></trkpt><trkpt lat="40.9403717" lon="15.4111567"><ele>726.0</ele><time>2026-03-28T09:55:47.503Z</time></trkpt><trkpt lat="40.9403" lon="15.4111617"><ele>726.0</ele><time>2026-03-28T09:55:48.504Z</time></trkpt><trkpt lat="40.94023" lon="15.4111733"><ele>726.0</ele><time>2026-03-28T09:55:49.503Z</time></trkpt><trkpt lat="40.9401567" lon="15.41121"><ele>726.0</ele><time>2026-03-28T09:55:50.503Z</time></trkpt><trkpt lat="40.9400833" lon="15.4112583"><ele>726.0</ele><time>2026-03-28T09:55:51.504Z</time></trkpt><trkpt lat="40.940005" lon="15.41132"><ele>728.4</ele><time>2026-03-28T09:55:52.504Z</time></trkpt><trkpt lat="40.9399217" lon="15.4113917"><ele>730.8</ele><time>2026-03-28T09:55:53.504Z</time></trkpt><trkpt lat="40.939825" lon="15.4114633"><ele>733.1999999999999</ele><time>2026-03-28T09:55:54.503Z</time></trkpt><trkpt lat="40.9397317" lon="15.411535"><ele>735.5999999999999</ele><time>2026-03-28T09:55:55.504Z</time></trkpt><trkpt lat="40.9396283" lon="15.411605"><ele>738.0</ele><time>2026-03-28T09:55:56.503Z</time></trkpt><trkpt lat="40.9395333" lon="15.4116667"><ele>738.0</ele><time>2026-03-28T09:55:57.504Z</time></trkpt><trkpt lat="40.9394433" lon="15.4117183"><ele>738.0</ele><time>2026-03-28T09:55:58.504Z</time></trkpt><trkpt lat="40.939365" lon="15.4117633"><ele>738.0</ele><time>2026-03-28T09:55:59.504Z</time></trkpt><trkpt lat="40.9393" lon="15.411795"><ele>738.0</ele><time>2026-03-28T09:56:00.504Z</time></trkpt><trkpt lat="40.93924" lon="15.4118317"><ele>738.0</ele><time>2026-03-28T09:56:01.504Z</time></trkpt><trkpt lat="40.939155" lon="15.4119433"><ele>738.0</ele><time>2026-03-28T09:56:03.504Z</time></trkpt><trkpt lat="40.9391367" lon="15.41203"><ele>738.0</ele><time>2026-03-28T09:56:04.503Z</time></trkpt><trkpt lat="40.9391433" lon="15.4121283"><ele>738.0</ele><time>2026-03-28T09:56:05.503Z</time></trkpt><trkpt lat="40.9391667" lon="15.412255"><ele>738.0</ele><time>2026-03-28T09:56:06.503Z</time></trkpt><trkpt lat="40.939205" lon="15.4123917"><ele>738.0</ele><time>2026-03-28T09:56:07.504Z</time></trkpt><trkpt lat="40.93925" lon="15.412545"><ele>738.0</ele><time>2026-03-28T09:56:08.503Z</time></trkpt><trkpt lat="40.939285" lon="15.412695"><ele>739.5</ele><time>2026-03-28T09:56:09.504Z</time></trkpt><trkpt lat="40.9393267" lon="15.4128517"><ele>741.0</ele><time>2026-03-28T09:56:10.504Z</time></trkpt><trkpt lat="40.93936" lon="15.4129967"><ele>742.5</ele><time>2026-03-28T09:56:11.503Z</time></trkpt><trkpt lat="40.9393933" lon="15.4131383"><ele>744.0</ele><time>2026-03-28T09:56:12.504Z</time></trkpt><trkpt lat="40.9394233" lon="15.413275"><ele>744.6</ele><time>2026-03-28T09:56:13.504Z</time></trkpt><trkpt lat="40.939455" lon="15.4134067"><ele>745.2</ele><time>2026-03-28T09:56:14.503Z</time></trkpt><trkpt lat="40.9394867" lon="15.4135367"><ele>745.8000000000001</ele><time>2026-03-28T09:56:15.504Z</time></trkpt><trkpt lat="40.9395167" lon="15.4136717"><ele>746.4000000000001</ele><time>2026-03-28T09:56:16.503Z</time></trkpt><trkpt lat="40.939545" lon="15.41381"><ele>747.0</ele><time>2026-03-28T09:56:17.503Z</time></trkpt><trkpt lat="40.9395717" lon="15.4139283"><ele>747.5</ele><time>2026-03-28T09:56:18.504Z</time></trkpt><trkpt lat="40.939595" lon="15.4140367"><ele>748.0</ele><time>2026-03-28T09:56:19.503Z</time></trkpt><trkpt lat="40.9396217" lon="15.4141383"><ele>748.5</ele><time>2026-03-28T09:56:20.503Z</time></trkpt><trkpt lat="40.9396417" lon="15.4142267"><ele>749.0</ele><time>2026-03-28T09:56:21.504Z</time></trkpt><trkpt lat="40.93966" lon="15.4143083"><ele>749.5</ele><time>2026-03-28T09:56:22.504Z</time></trkpt><trkpt lat="40.9396933" lon="15.4144583"><ele>750.0</ele><time>2026-03-28T09:56:24.503Z</time></trkpt><trkpt lat="40.9397317" lon="15.414585"><ele>749.8333333333334</ele><time>2026-03-28T09:56:26.503Z</time></trkpt><trkpt lat="40.9397783" lon="15.4146967"><ele>749.6666666666666</ele><time>2026-03-28T09:56:28.504Z</time></trkpt><trkpt lat="40.939825" lon="15.4147983"><ele>749.5</ele><time>2026-03-28T09:56:30.504Z</time></trkpt><trkpt lat="40.9398833" lon="15.4149233"><ele>749.3333333333333</ele><time>2026-03-28T09:56:32.503Z</time></trkpt><trkpt lat="40.93993" lon="15.4149917"><ele>749.1666666666666</ele><time>2026-03-28T09:56:33.503Z</time></trkpt><trkpt lat="40.9399867" lon="15.4150467"><ele>749.0</ele><time>2026-03-28T09:56:34.504Z</time></trkpt><trkpt lat="40.9400583" lon="15.4151"><ele>748.0</ele><time>2026-03-28T09:56:35.503Z</time></trkpt><trkpt lat="40.9401367" lon="15.4151417"><ele>747.0</ele><time>2026-03-28T09:56:36.503Z</time></trkpt><trkpt lat="40.9402283" lon="15.4151833"><ele>746.0</ele><time>2026-03-28T09:56:37.503Z</time></trkpt><trkpt lat="40.9403283" lon="15.4152317"><ele>745.0</ele><time>2026-03-28T09:56:38.503Z</time></trkpt><trkpt lat="40.9404367" lon="15.4152783"><ele>744.0</ele><time>2026-03-28T09:56:39.503Z</time></trkpt><trkpt lat="40.9405567" lon="15.41533"><ele>744.0</ele><time>2026-03-28T09:56:40.504Z</time></trkpt><trkpt lat="40.9406767" lon="15.41538"><ele>744.0</ele><time>2026-03-28T09:56:41.504Z</time></trkpt><trkpt lat="40.9407967" lon="15.4154283"><ele>744.0</ele><time>2026-03-28T09:56:42.503Z</time></trkpt><trkpt lat="40.9409183" lon="15.4154783"><ele>744.0</ele><time>2026-03-28T09:56:43.503Z</time></trkpt><trkpt lat="40.941045" lon="15.4155283"><ele>743.5</ele><time>2026-03-28T09:56:44.504Z</time></trkpt><trkpt lat="40.941175" lon="15.4155883"><ele>743.0</ele><time>2026-03-28T09:56:45.503Z</time></trkpt><trkpt lat="40.941305" lon="15.4156467"><ele>742.5</ele><time>2026-03-28T09:56:46.504Z</time></trkpt><trkpt lat="40.941445" lon="15.4157"><ele>742.0</ele><time>2026-03-28T09:56:47.504Z</time></trkpt><trkpt lat="40.9415783" lon="15.4157467"><ele>742.0</ele><time>2026-03-28T09:56:48.503Z</time></trkpt><trkpt lat="40.9417117" lon="15.415795"><ele>742.0</ele><time>2026-03-28T09:56:49.504Z</time></trkpt><trkpt lat="40.94185" lon="15.415835"><ele>742.0</ele><time>2026-03-28T09:56:50.504Z</time></trkpt><trkpt lat="40.94199" lon="15.4158717"><ele>742.0</ele><time>2026-03-28T09:56:51.504Z</time></trkpt><trkpt lat="40.942145" lon="15.4158883"><ele>742.6666666666667</ele><time>2026-03-28T09:56:52.504Z</time></trkpt><trkpt lat="40.9423" lon="15.4158983"><ele>743.3333333333334</ele><time>2026-03-28T09:56:53.504Z</time></trkpt><trkpt lat="40.9424617" lon="15.4159083"><ele>744.0</ele><time>2026-03-28T09:56:54.503Z</time></trkpt><trkpt lat="40.9426217" lon="15.4159183"><ele>744.0</ele><time>2026-03-28T09:56:55.503Z</time></trkpt><trkpt lat="40.942775" lon="15.4159283"><ele>744.0</ele><time>2026-03-28T09:56:56.504Z</time></trkpt><trkpt lat="40.9429267" lon="15.41594"><ele>744.0</ele><time>2026-03-28T09:56:57.504Z</time></trkpt><trkpt lat="40.9430783" lon="15.41595"><ele>744.0</ele><time>2026-03-28T09:56:58.504Z</time></trkpt><trkpt lat="40.9432317" lon="15.415965"><ele>744.0</ele><time>2026-03-28T09:56:59.503Z</time></trkpt><trkpt lat="40.9433833" lon="15.4159783"><ele>744.0</ele><time>2026-03-28T09:57:00.504Z</time></trkpt><trkpt lat="40.9435317" lon="15.4159883"><ele>744.5</ele><time>2026-03-28T09:57:01.504Z</time></trkpt><trkpt lat="40.94368" lon="15.416"><ele>745.0</ele><time>2026-03-28T09:57:02.503Z</time></trkpt><trkpt lat="40.94382" lon="15.41601"><ele>745.5</ele><time>2026-03-28T09:57:03.504Z</time></trkpt><trkpt lat="40.943955" lon="15.41602"><ele>746.0</ele><time>2026-03-28T09:57:04.504Z</time></trkpt><trkpt lat="40.9440983" lon="15.4160283"><ele>746.6666666666666</ele><time>2026-03-28T09:57:05.504Z</time></trkpt><trkpt lat="40.9442467" lon="15.4160333"><ele>747.3333333333334</ele><time>2026-03-28T09:57:06.504Z</time></trkpt><trkpt lat="40.9444017" lon="15.4160283"><ele>748.0</ele><time>2026-03-28T09:57:07.504Z</time></trkpt><trkpt lat="40.9445667" lon="15.416015"><ele>748.0</ele><time>2026-03-28T09:57:08.504Z</time></trkpt><trkpt lat="40.9447283" lon="15.4160033"><ele>748.0</ele><time>2026-03-28T09:57:09.503Z</time></trkpt><trkpt lat="40.9448767" lon="15.4160017"><ele>748.0</ele><time>2026-03-28T09:57:10.503Z</time></trkpt><trkpt lat="40.945" lon="15.4160033"><ele>748.0</ele><time>2026-03-28T09:57:11.504Z</time></trkpt><trkpt lat="40.945105" lon="15.4160017"><ele>748.5999999999999</ele><time>2026-03-28T09:57:12.503Z</time></trkpt><trkpt lat="40.94521" lon="15.416005"><ele>749.1999999999999</ele><time>2026-03-28T09:57:13.503Z</time></trkpt><trkpt lat="40.9453067" lon="15.41601"><ele>749.8</ele><time>2026-03-28T09:57:14.504Z</time></trkpt><trkpt lat="40.9454117" lon="15.4160067"><ele>750.4</ele><time>2026-03-28T09:57:15.503Z</time></trkpt><trkpt lat="40.945515" lon="15.4160067"><ele>751.0</ele><time>2026-03-28T09:57:16.503Z</time></trkpt><trkpt lat="40.9456183" lon="15.4160033"><ele>751.0</ele><time>2026-03-28T09:57:17.504Z</time></trkpt><trkpt lat="40.94572" lon="15.4160033"><ele>751.0</ele><time>2026-03-28T09:57:18.503Z</time></trkpt><trkpt lat="40.9458217" lon="15.4159983"><ele>751.0</ele><time>2026-03-28T09:57:19.504Z</time></trkpt><trkpt lat="40.9459233" lon="15.4159867"><ele>751.0</ele><time>2026-03-28T09:57:20.504Z</time></trkpt><trkpt lat="40.9460233" lon="15.4159767"><ele>751.0</ele><time>2026-03-28T09:57:21.503Z</time></trkpt><trkpt lat="40.94613" lon="15.415975"><ele>751.1666666666667</ele><time>2026-03-28T09:57:22.503Z</time></trkpt><trkpt lat="40.9462367" lon="15.4159717"><ele>751.3333333333334</ele><time>2026-03-28T09:57:23.503Z</time></trkpt><trkpt lat="40.94634" lon="15.4159667"><ele>751.5</ele><time>2026-03-28T09:57:24.503Z</time></trkpt><trkpt lat="40.9464233" lon="15.415965"><ele>751.6666666666666</ele><time>2026-03-28T09:57:25.504Z</time></trkpt><trkpt lat="40.9465033" lon="15.4159717"><ele>751.8333333333333</ele><time>2026-03-28T09:57:26.504Z</time></trkpt><trkpt lat="40.9465733" lon="15.4159833"><ele>752.0</ele><time>2026-03-28T09:57:27.503Z</time></trkpt><trkpt lat="40.946645" lon="15.4160167"><ele>752.0</ele><time>2026-03-28T09:57:28.504Z</time></trkpt><trkpt lat="40.9467017" lon="15.41607"><ele>752.0</ele><time>2026-03-28T09:57:29.504Z</time></trkpt><trkpt lat="40.9467567" lon="15.4161483"><ele>752.0</ele><time>2026-03-28T09:57:30.504Z</time></trkpt><trkpt lat="40.94681" lon="15.416245"><ele>752.0</ele><time>2026-03-28T09:57:31.503Z</time></trkpt><trkpt lat="40.946855" lon="15.4163633"><ele>752.0</ele><time>2026-03-28T09:57:32.504Z</time></trkpt><trkpt lat="40.9469083" lon="15.41649"><ele>753.25</ele><time>2026-03-28T09:57:33.503Z</time></trkpt><trkpt lat="40.9469583" lon="15.4166367"><ele>754.5</ele><time>2026-03-28T09:57:34.504Z</time></trkpt><trkpt lat="40.947015" lon="15.4167983"><ele>755.75</ele><time>2026-03-28T09:57:35.504Z</time></trkpt><trkpt lat="40.94706" lon="15.4169483"><ele>757.0</ele><time>2026-03-28T09:57:36.503Z</time></trkpt><trkpt lat="40.9471067" lon="15.417095"><ele>756.0</ele><time>2026-03-28T09:57:37.503Z</time></trkpt><trkpt lat="40.9471517" lon="15.4172417"><ele>755.0</ele><time>2026-03-28T09:57:38.503Z</time></trkpt><trkpt lat="40.9471967" lon="15.4173933"><ele>754.0</ele><time>2026-03-28T09:57:39.503Z</time></trkpt><trkpt lat="40.94725" lon="15.41755"><ele>753.0</ele><time>2026-03-28T09:57:40.503Z</time></trkpt><trkpt lat="40.9473067" lon="15.4176967"><ele>753.0</ele><time>2026-03-28T09:57:41.504Z</time></trkpt><trkpt lat="40.9473633" lon="15.4178333"><ele>753.0</ele><time>2026-03-28T09:57:42.503Z</time></trkpt><trkpt lat="40.947415" lon="15.4179617"><ele>753.0</ele><time>2026-03-28T09:57:43.503Z</time></trkpt><trkpt lat="40.94747" lon="15.4180933"><ele>753.0</ele><time>2026-03-28T09:57:44.503Z</time></trkpt><trkpt lat="40.9475217" lon="15.4182183"><ele>753.0</ele><time>2026-03-28T09:57:45.504Z</time></trkpt><trkpt lat="40.947585" lon="15.4183383"><ele>752.2</ele><time>2026-03-28T09:57:46.504Z</time></trkpt><trkpt lat="40.947655" lon="15.4184483"><ele>751.4</ele><time>2026-03-28T09:57:47.504Z</time></trkpt><trkpt lat="40.947715" lon="15.4185483"><ele>750.6</ele><time>2026-03-28T09:57:48.504Z</time></trkpt><trkpt lat="40.947755" lon="15.4186517"><ele>749.8000000000001</ele><time>2026-03-28T09:57:49.503Z</time></trkpt><trkpt lat="40.94778" lon="15.4187733"><ele>749.0</ele><time>2026-03-28T09:57:50.504Z</time></trkpt><trkpt lat="40.9478" lon="15.4189117"><ele>747.5</ele><time>2026-03-28T09:57:51.503Z</time></trkpt><trkpt lat="40.9478117" lon="15.4190517"><ele>746.0</ele><time>2026-03-28T09:57:52.504Z</time></trkpt><trkpt lat="40.94783" lon="15.4192067"><ele>744.5</ele><time>2026-03-28T09:57:53.504Z</time></trkpt><trkpt lat="40.94786" lon="15.4193667"><ele>743.0</ele><time>2026-03-28T09:57:54.503Z</time></trkpt><trkpt lat="40.9478933" lon="15.41953"><ele>741.25</ele><time>2026-03-28T09:57:55.503Z</time></trkpt><trkpt lat="40.9479333" lon="15.4196933"><ele>739.5</ele><time>2026-03-28T09:57:56.503Z</time></trkpt><trkpt lat="40.9479767" lon="15.4198633"><ele>737.75</ele><time>2026-03-28T09:57:57.503Z</time></trkpt><trkpt lat="40.9480233" lon="15.4200283"><ele>736.0</ele><time>2026-03-28T09:57:58.503Z</time></trkpt><trkpt lat="40.9480683" lon="15.4201883"><ele>736.0</ele><time>2026-03-28T09:57:59.503Z</time></trkpt><trkpt lat="40.948115" lon="15.4203417"><ele>736.0</ele><time>2026-03-28T09:58:00.503Z</time></trkpt><trkpt lat="40.94817" lon="15.420495"><ele>736.0</ele><time>2026-03-28T09:58:01.503Z</time></trkpt><trkpt lat="40.9482267" lon="15.4206467"><ele>736.0</ele><time>2026-03-28T09:58:02.504Z</time></trkpt><trkpt lat="40.9482833" lon="15.4208"><ele>735.75</ele><time>2026-03-28T09:58:03.504Z</time></trkpt><trkpt lat="40.948335" lon="15.4209383"><ele>735.5</ele><time>2026-03-28T09:58:04.503Z</time></trkpt><trkpt lat="40.9483783" lon="15.4210983"><ele>735.25</ele><time>2026-03-28T09:58:05.504Z</time></trkpt><trkpt lat="40.9484067" lon="15.4212667"><ele>735.0</ele><time>2026-03-28T09:58:06.503Z</time></trkpt><trkpt lat="40.9484183" lon="15.4214467"><ele>735.25</ele><time>2026-03-28T09:58:07.504Z</time></trkpt><trkpt lat="40.9484333" lon="15.4216367"><ele>735.5</ele><time>2026-03-28T09:58:08.504Z</time></trkpt><trkpt lat="40.94845" lon="15.4218233"><ele>735.75</ele><time>2026-03-28T09:58:09.503Z</time></trkpt><trkpt lat="40.948465" lon="15.422"><ele>736.0</ele><time>2026-03-28T09:58:10.504Z</time></trkpt><trkpt lat="40.94849" lon="15.4221617"><ele>736.0</ele><time>2026-03-28T09:58:11.504Z</time></trkpt><trkpt lat="40.948525" lon="15.4223083"><ele>736.0</ele><time>2026-03-28T09:58:12.503Z</time></trkpt><trkpt lat="40.9485683" lon="15.42245"><ele>736.0</ele><time>2026-03-28T09:58:13.504Z</time></trkpt><trkpt lat="40.94862" lon="15.4225933"><ele>736.0</ele><time>2026-03-28T09:58:14.504Z</time></trkpt><trkpt lat="40.948685" lon="15.4227483"><ele>736.0</ele><time>2026-03-28T09:58:15.504Z</time></trkpt><trkpt lat="40.94875" lon="15.4229133"><ele>736.0</ele><time>2026-03-28T09:58:16.503Z</time></trkpt><trkpt lat="40.9488233" lon="15.4230833"><ele>736.0</ele><time>2026-03-28T09:58:17.503Z</time></trkpt><trkpt lat="40.9489017" lon="15.42325"><ele>736.0</ele><time>2026-03-28T09:58:18.504Z</time></trkpt><trkpt lat="40.9489833" lon="15.4234167"><ele>736.5</ele><time>2026-03-28T09:58:19.503Z</time></trkpt><trkpt lat="40.9490667" lon="15.4235817"><ele>737.0</ele><time>2026-03-28T09:58:20.504Z</time></trkpt><trkpt lat="40.949145" lon="15.4237417"><ele>737.5</ele><time>2026-03-28T09:58:21.503Z</time></trkpt><trkpt lat="40.9492267" lon="15.4239033"><ele>738.0</ele><time>2026-03-28T09:58:22.504Z</time></trkpt><trkpt lat="40.9493117" lon="15.4240683"><ele>738.0</ele><time>2026-03-28T09:58:23.504Z</time></trkpt><trkpt lat="40.9493967" lon="15.42423"><ele>738.0</ele><time>2026-03-28T09:58:24.504Z</time></trkpt><trkpt lat="40.9494733" lon="15.4243933"><ele>738.0</ele><time>2026-03-28T09:58:25.504Z</time></trkpt><trkpt lat="40.94955" lon="15.424545"><ele>738.0</ele><time>2026-03-28T09:58:26.504Z</time></trkpt><trkpt lat="40.9496367" lon="15.4246917"><ele>735.25</ele><time>2026-03-28T09:58:27.504Z</time></trkpt><trkpt lat="40.94973" lon="15.4248333"><ele>732.5</ele><time>2026-03-28T09:58:28.504Z</time></trkpt><trkpt lat="40.9498267" lon="15.4249783"><ele>729.75</ele><time>2026-03-28T09:58:29.504Z</time></trkpt><trkpt lat="40.9499267" lon="15.425125"><ele>727.0</ele><time>2026-03-28T09:58:30.504Z</time></trkpt><trkpt lat="40.95003" lon="15.4252717"><ele>726.5</ele><time>2026-03-28T09:58:31.503Z</time></trkpt><trkpt lat="40.9501317" lon="15.4254183"><ele>726.0</ele><time>2026-03-28T09:58:32.503Z</time></trkpt><trkpt lat="40.9502317" lon="15.4255633"><ele>725.5</ele><time>2026-03-28T09:58:33.503Z</time></trkpt><trkpt lat="40.9503367" lon="15.4256983"><ele>725.0</ele><time>2026-03-28T09:58:34.503Z</time></trkpt><trkpt lat="40.9504417" lon="15.4258317"><ele>725.0</ele><time>2026-03-28T09:58:35.505Z</time></trkpt><trkpt lat="40.95055" lon="15.42596"><ele>725.0</ele><time>2026-03-28T09:58:36.504Z</time></trkpt><trkpt lat="40.9506633" lon="15.4260883"><ele>725.0</ele><time>2026-03-28T09:58:37.505Z</time></trkpt><trkpt lat="40.9507833" lon="15.426205"><ele>725.0</ele><time>2026-03-28T09:58:38.504Z</time></trkpt><trkpt lat="40.9508967" lon="15.4263217"><ele>724.25</ele><time>2026-03-28T09:58:39.504Z</time></trkpt><trkpt lat="40.9510067" lon="15.4264333"><ele>723.5</ele><time>2026-03-28T09:58:40.505Z</time></trkpt><trkpt lat="40.95112" lon="15.4265433"><ele>722.75</ele><time>2026-03-28T09:58:41.505Z</time></trkpt><trkpt lat="40.951225" lon="15.426655"><ele>722.0</ele><time>2026-03-28T09:58:42.505Z</time></trkpt><trkpt lat="40.9513317" lon="15.426775"><ele>722.0</ele><time>2026-03-28T09:58:43.505Z</time></trkpt><trkpt lat="40.95143" lon="15.426895"><ele>722.0</ele><time>2026-03-28T09:58:44.505Z</time></trkpt><trkpt lat="40.9515183" lon="15.4270333"><ele>722.0</ele><time>2026-03-28T09:58:45.505Z</time></trkpt><trkpt lat="40.9516033" lon="15.4271717"><ele>722.0</ele><time>2026-03-28T09:58:46.504Z</time></trkpt><trkpt lat="40.9516767" lon="15.4273267"><ele>722.25</ele><time>2026-03-28T09:58:47.505Z</time></trkpt><trkpt lat="40.951745" lon="15.427485"><ele>722.5</ele><time>2026-03-28T09:58:48.504Z</time></trkpt><trkpt lat="40.9518033" lon="15.4276483"><ele>722.75</ele><time>2026-03-28T09:58:49.504Z</time></trkpt><trkpt lat="40.9518633" lon="15.42781"><ele>723.0</ele><time>2026-03-28T09:58:50.505Z</time></trkpt><trkpt lat="40.95192" lon="15.427975"><ele>722.75</ele><time>2026-03-28T09:58:51.504Z</time></trkpt><trkpt lat="40.9519783" lon="15.4281383"><ele>722.5</ele><time>2026-03-28T09:58:52.505Z</time></trkpt><trkpt lat="40.9520317" lon="15.428305"><ele>722.25</ele><time>2026-03-28T09:58:53.504Z</time></trkpt><trkpt lat="40.95209" lon="15.428465"><ele>722.0</ele><time>2026-03-28T09:58:54.505Z</time></trkpt><trkpt lat="40.952145" lon="15.428625"><ele>722.0</ele><time>2026-03-28T09:58:55.504Z</time></trkpt><trkpt lat="40.9521867" lon="15.428785"><ele>722.0</ele><time>2026-03-28T09:58:56.505Z</time></trkpt><trkpt lat="40.9522233" lon="15.4289567"><ele>722.0</ele><time>2026-03-28T09:58:57.504Z</time></trkpt><trkpt lat="40.9522417" lon="15.429145"><ele>722.0</ele><time>2026-03-28T09:58:58.504Z</time></trkpt><trkpt lat="40.9522467" lon="15.429335"><ele>721.75</ele><time>2026-03-28T09:58:59.504Z</time></trkpt><trkpt lat="40.952242" lon="15.4295282"><ele>721.5</ele><time>2026-03-28T09:59:00.505Z</time></trkpt><trkpt lat="40.9522359" lon="15.4297237"><ele>721.25</ele><time>2026-03-28T09:59:01.505Z</time></trkpt><trkpt lat="40.9522321" lon="15.4299237"><ele>721.0</ele><time>2026-03-28T09:59:02.505Z</time></trkpt><trkpt lat="40.9522311" lon="15.430127"><ele>720.3333333333334</ele><time>2026-03-28T09:59:03.505Z</time></trkpt><trkpt lat="40.9522345" lon="15.4303254"><ele>719.6666666666666</ele><time>2026-03-28T09:59:04.505Z</time></trkpt><trkpt lat="40.9522414" lon="15.4305274"><ele>719.0</ele><time>2026-03-28T09:59:05.505Z</time></trkpt><trkpt lat="40.9522513" lon="15.4307272"><ele>718.6666666666666</ele><time>2026-03-28T09:59:06.504Z</time></trkpt><trkpt lat="40.9522605" lon="15.4309325"><ele>718.3333333333334</ele><time>2026-03-28T09:59:07.504Z</time></trkpt><trkpt lat="40.9522717" lon="15.4311369"><ele>718.0</ele><time>2026-03-28T09:59:08.504Z</time></trkpt><trkpt lat="40.9522914" lon="15.4313291"><ele>718.0</ele><time>2026-03-28T09:59:09.505Z</time></trkpt><trkpt lat="40.9523068" lon="15.4315146"><ele>718.0</ele><time>2026-03-28T09:59:10.504Z</time></trkpt><trkpt lat="40.9523135" lon="15.4316951"><ele>718.0</ele><time>2026-03-28T09:59:11.504Z</time></trkpt><trkpt lat="40.9523237" lon="15.4318747"><ele>718.0</ele><time>2026-03-28T09:59:12.505Z</time></trkpt><trkpt lat="40.9523288" lon="15.4320539"><ele>717.5</ele><time>2026-03-28T09:59:13.505Z</time></trkpt><trkpt lat="40.9523299" lon="15.4322349"><ele>717.0</ele><time>2026-03-28T09:59:14.504Z</time></trkpt><trkpt lat="40.9523349" lon="15.4324096"><ele>716.5</ele><time>2026-03-28T09:59:15.504Z</time></trkpt><trkpt lat="40.9523476" lon="15.4325745"><ele>716.0</ele><time>2026-03-28T09:59:16.505Z</time></trkpt><trkpt lat="40.952367" lon="15.4327349"><ele>716.0</ele><time>2026-03-28T09:59:17.505Z</time></trkpt><trkpt lat="40.9523812" lon="15.4328956"><ele>716.0</ele><time>2026-03-28T09:59:18.505Z</time></trkpt><trkpt lat="40.9523924" lon="15.43306"><ele>716.0</ele><time>2026-03-28T09:59:19.505Z</time></trkpt><trkpt lat="40.952398" lon="15.4332294"><ele>716.0</ele><time>2026-03-28T09:59:20.504Z</time></trkpt><trkpt lat="40.9523945" lon="15.4334012"><ele>715.75</ele><time>2026-03-28T09:59:21.505Z</time></trkpt><trkpt lat="40.9523872" lon="15.4335685"><ele>715.5</ele><time>2026-03-28T09:59:22.505Z</time></trkpt><trkpt lat="40.9523774" lon="15.433753"><ele>715.25</ele><time>2026-03-28T09:59:23.505Z</time></trkpt><trkpt lat="40.9523679" lon="15.4339348"><ele>715.0</ele><time>2026-03-28T09:59:24.505Z</time></trkpt><trkpt lat="40.9523603" lon="15.4341132"><ele>714.75</ele><time>2026-03-28T09:59:25.504Z</time></trkpt><trkpt lat="40.9523552" lon="15.434285"><ele>714.5</ele><time>2026-03-28T09:59:26.505Z</time></trkpt><trkpt lat="40.9523484" lon="15.434452"><ele>714.25</ele><time>2026-03-28T09:59:27.505Z</time></trkpt><trkpt lat="40.9523377" lon="15.4346187"><ele>714.0</ele><time>2026-03-28T09:59:28.504Z</time></trkpt><trkpt lat="40.9523308" lon="15.4347889"><ele>714.0</ele><time>2026-03-28T09:59:29.504Z</time></trkpt><trkpt lat="40.952327" lon="15.4349541"><ele>714.0</ele><time>2026-03-28T09:59:30.505Z</time></trkpt><trkpt lat="40.9523236" lon="15.4351079"><ele>714.0</ele><time>2026-03-28T09:59:31.505Z</time></trkpt><trkpt lat="40.9523176" lon="15.4352553"><ele>714.0</ele><time>2026-03-28T09:59:32.505Z</time></trkpt><trkpt lat="40.952307" lon="15.4354108"><ele>714.25</ele><time>2026-03-28T09:59:33.505Z</time></trkpt><trkpt lat="40.9523019" lon="15.4355709"><ele>714.5</ele><time>2026-03-28T09:59:34.505Z</time></trkpt><trkpt lat="40.9523045" lon="15.4357257"><ele>714.75</ele><time>2026-03-28T09:59:35.505Z</time></trkpt><trkpt lat="40.952313" lon="15.435875"><ele>715.0</ele><time>2026-03-28T09:59:36.505Z</time></trkpt><trkpt lat="40.9523244" lon="15.4360185"><ele>715.0</ele><time>2026-03-28T09:59:37.505Z</time></trkpt><trkpt lat="40.9523463" lon="15.4361653"><ele>715.0</ele><time>2026-03-28T09:59:38.504Z</time></trkpt><trkpt lat="40.9523717" lon="15.4363006"><ele>715.0</ele><time>2026-03-28T09:59:39.505Z</time></trkpt><trkpt lat="40.952394" lon="15.4364171"><ele>715.0</ele><time>2026-03-28T09:59:40.505Z</time></trkpt><trkpt lat="40.9524086" lon="15.4365513"><ele>715.0</ele><time>2026-03-28T09:59:41.504Z</time></trkpt><trkpt lat="40.9524217" lon="15.4367117"><ele>714.0</ele><time>2026-03-28T09:59:42.504Z</time></trkpt><trkpt lat="40.9524367" lon="15.4368817"><ele>713.0</ele><time>2026-03-28T09:59:43.505Z</time></trkpt><trkpt lat="40.9524533" lon="15.4370533"><ele>712.0</ele><time>2026-03-28T09:59:44.504Z</time></trkpt><trkpt lat="40.952475" lon="15.4372283"><ele>711.0</ele><time>2026-03-28T09:59:45.504Z</time></trkpt><trkpt lat="40.9524983" lon="15.4373933"><ele>710.0</ele><time>2026-03-28T09:59:46.505Z</time></trkpt><trkpt lat="40.9525233" lon="15.4375467"><ele>709.0</ele><time>2026-03-28T09:59:47.504Z</time></trkpt><trkpt lat="40.95255" lon="15.4376933"><ele>708.0</ele><time>2026-03-28T09:59:48.505Z</time></trkpt><trkpt lat="40.9525883" lon="15.4378383"><ele>707.0</ele><time>2026-03-28T09:59:49.504Z</time></trkpt><trkpt lat="40.9526417" lon="15.4379883"><ele>708.6</ele><time>2026-03-28T09:59:50.505Z</time></trkpt><trkpt lat="40.9526883" lon="15.438135"><ele>710.2</ele><time>2026-03-28T09:59:51.504Z</time></trkpt><trkpt lat="40.9527317" lon="15.4382733"><ele>711.8</ele><time>2026-03-28T09:59:52.505Z</time></trkpt><trkpt lat="40.952765" lon="15.43841"><ele>713.4</ele><time>2026-03-28T09:59:53.504Z</time></trkpt><trkpt lat="40.952785" lon="15.4385467"><ele>715.0</ele><time>2026-03-28T09:59:54.504Z</time></trkpt><trkpt lat="40.952785" lon="15.43869"><ele>716.0</ele><time>2026-03-28T09:59:55.505Z</time></trkpt><trkpt lat="40.9527717" lon="15.4388483"><ele>717.0</ele><time>2026-03-28T09:59:56.504Z</time></trkpt><trkpt lat="40.9527483" lon="15.43902"><ele>718.0</ele><time>2026-03-28T09:59:57.504Z</time></trkpt><trkpt lat="40.9527217" lon="15.4392083"><ele>719.0</ele><time>2026-03-28T09:59:58.504Z</time></trkpt><trkpt lat="40.9527" lon="15.4393967"><ele>719.0</ele><time>2026-03-28T09:59:59.504Z</time></trkpt><trkpt lat="40.9526833" lon="15.4395617"><ele>719.0</ele><time>2026-03-28T10:00:00.504Z</time></trkpt><trkpt lat="40.9526683" lon="15.439715"><ele>719.0</ele><time>2026-03-28T10:00:01.505Z</time></trkpt><trkpt lat="40.9526617" lon="15.4398583"><ele>719.0</ele><time>2026-03-28T10:00:02.505Z</time></trkpt><trkpt lat="40.9526617" lon="15.4400017"><ele>718.25</ele><time>2026-03-28T10:00:03.504Z</time></trkpt><trkpt lat="40.9526733" lon="15.4401433"><ele>717.5</ele><time>2026-03-28T10:00:04.504Z</time></trkpt><trkpt lat="40.9526983" lon="15.44029"><ele>716.75</ele><time>2026-03-28T10:00:05.505Z</time></trkpt><trkpt lat="40.9527383" lon="15.4404433"><ele>716.0</ele><time>2026-03-28T10:00:06.505Z</time></trkpt><trkpt lat="40.9527883" lon="15.4406083"><ele>715.25</ele><time>2026-03-28T10:00:07.504Z</time></trkpt><trkpt lat="40.9528433" lon="15.44077"><ele>714.5</ele><time>2026-03-28T10:00:08.504Z</time></trkpt><trkpt lat="40.952895" lon="15.4409217"><ele>713.75</ele><time>2026-03-28T10:00:09.505Z</time></trkpt><trkpt lat="40.9529467" lon="15.4410733"><ele>713.0</ele><time>2026-03-28T10:00:10.505Z</time></trkpt><trkpt lat="40.952995" lon="15.4412233"><ele>712.0</ele><time>2026-03-28T10:00:11.504Z</time></trkpt><trkpt lat="40.9530417" lon="15.441365"><ele>711.0</ele><time>2026-03-28T10:00:12.505Z</time></trkpt><trkpt lat="40.9530883" lon="15.441495"><ele>710.0</ele><time>2026-03-28T10:00:13.504Z</time></trkpt><trkpt lat="40.9531317" lon="15.4416333"><ele>709.0</ele><time>2026-03-28T10:00:14.504Z</time></trkpt><trkpt lat="40.953175" lon="15.441765"><ele>708.0</ele><time>2026-03-28T10:00:15.505Z</time></trkpt><trkpt lat="40.9532133" lon="15.4418967"><ele>708.0</ele><time>2026-03-28T10:00:16.504Z</time></trkpt><trkpt lat="40.953235" lon="15.4420317"><ele>708.0</ele><time>2026-03-28T10:00:17.505Z</time></trkpt><trkpt lat="40.9532433" lon="15.4421783"><ele>708.0</ele><time>2026-03-28T10:00:18.505Z</time></trkpt><trkpt lat="40.9532367" lon="15.44234"><ele>708.0</ele><time>2026-03-28T10:00:19.504Z</time></trkpt><trkpt lat="40.9532217" lon="15.4425083"><ele>707.75</ele><time>2026-03-28T10:00:20.504Z</time></trkpt><trkpt lat="40.9532017" lon="15.4426783"><ele>707.5</ele><time>2026-03-28T10:00:21.505Z</time></trkpt><trkpt lat="40.95319" lon="15.44285"><ele>707.25</ele><time>2026-03-28T10:00:22.505Z</time></trkpt><trkpt lat="40.9531733" lon="15.4430183"><ele>707.0</ele><time>2026-03-28T10:00:23.504Z</time></trkpt><trkpt lat="40.9531567" lon="15.4431833"><ele>707.75</ele><time>2026-03-28T10:00:24.504Z</time></trkpt><trkpt lat="40.953145" lon="15.4433433"><ele>708.5</ele><time>2026-03-28T10:00:25.504Z</time></trkpt><trkpt lat="40.9531533" lon="15.4435"><ele>709.25</ele><time>2026-03-28T10:00:26.505Z</time></trkpt><trkpt lat="40.9531533" lon="15.44366"><ele>710.0</ele><time>2026-03-28T10:00:27.504Z</time></trkpt><trkpt lat="40.95317" lon="15.4438267"><ele>710.5</ele><time>2026-03-28T10:00:28.505Z</time></trkpt><trkpt lat="40.9531867" lon="15.4440017"><ele>711.0</ele><time>2026-03-28T10:00:29.505Z</time></trkpt><trkpt lat="40.9532033" lon="15.4441733"><ele>711.5</ele><time>2026-03-28T10:00:30.505Z</time></trkpt><trkpt lat="40.9532167" lon="15.4443317"><ele>712.0</ele><time>2026-03-28T10:00:31.504Z</time></trkpt><trkpt lat="40.9532283" lon="15.4444833"><ele>712.0</ele><time>2026-03-28T10:00:32.504Z</time></trkpt><trkpt lat="40.9532417" lon="15.4446183"><ele>712.0</ele><time>2026-03-28T10:00:33.504Z</time></trkpt><trkpt lat="40.953255" lon="15.4447433"><ele>712.0</ele><time>2026-03-28T10:00:34.505Z</time></trkpt><trkpt lat="40.9532767" lon="15.4448583"><ele>712.0</ele><time>2026-03-28T10:00:35.505Z</time></trkpt><trkpt lat="40.9533067" lon="15.44497"><ele>712.0</ele><time>2026-03-28T10:00:36.504Z</time></trkpt><trkpt lat="40.953355" lon="15.4450783"><ele>712.4000000000001</ele><time>2026-03-28T10:00:37.505Z</time></trkpt><trkpt lat="40.9534117" lon="15.4451933"><ele>712.8000000000001</ele><time>2026-03-28T10:00:38.505Z</time></trkpt><trkpt lat="40.9534817" lon="15.44529"><ele>713.2</ele><time>2026-03-28T10:00:39.505Z</time></trkpt><trkpt lat="40.9535383" lon="15.445385"><ele>713.6</ele><time>2026-03-28T10:00:40.505Z</time></trkpt><trkpt lat="40.9535967" lon="15.4454833"><ele>714.0</ele><time>2026-03-28T10:00:41.504Z</time></trkpt><trkpt lat="40.9536567" lon="15.4455733"><ele>712.3333333333334</ele><time>2026-03-28T10:00:42.504Z</time></trkpt><trkpt lat="40.9537167" lon="15.4456533"><ele>710.6666666666666</ele><time>2026-03-28T10:00:43.505Z</time></trkpt><trkpt lat="40.953775" lon="15.445715"><ele>709.0</ele><time>2026-03-28T10:00:44.505Z</time></trkpt><trkpt lat="40.9538433" lon="15.4457583"><ele>707.3333333333333</ele><time>2026-03-28T10:00:45.504Z</time></trkpt><trkpt lat="40.9539217" lon="15.4458017"><ele>705.6666666666666</ele><time>2026-03-28T10:00:46.505Z</time></trkpt><trkpt lat="40.954005" lon="15.4458317"><ele>704.0</ele><time>2026-03-28T10:00:47.505Z</time></trkpt><trkpt lat="40.9540883" lon="15.4458583"><ele>704.0</ele><time>2026-03-28T10:00:48.505Z</time></trkpt><trkpt lat="40.9541617" lon="15.4458883"><ele>704.0</ele><time>2026-03-28T10:00:49.505Z</time></trkpt><trkpt lat="40.9542333" lon="15.44592"><ele>704.0</ele><time>2026-03-28T10:00:50.504Z</time></trkpt><trkpt lat="40.9542883" lon="15.4459683"><ele>704.0</ele><time>2026-03-28T10:00:51.504Z</time></trkpt><trkpt lat="40.954325" lon="15.44604"><ele>704.0</ele><time>2026-03-28T10:00:52.505Z</time></trkpt><trkpt lat="40.95434" lon="15.4461333"><ele>704.0</ele><time>2026-03-28T10:00:53.505Z</time></trkpt><trkpt lat="40.95434" lon="15.4462333"><ele>704.0</ele><time>2026-03-28T10:00:54.505Z</time></trkpt><trkpt lat="40.9543217" lon="15.446345"><ele>705.6</ele><time>2026-03-28T10:00:55.505Z</time></trkpt><trkpt lat="40.9543" lon="15.44646"><ele>707.2</ele><time>2026-03-28T10:00:56.504Z</time></trkpt><trkpt lat="40.9542783" lon="15.4465867"><ele>708.8000000000001</ele><time>2026-03-28T10:00:57.505Z</time></trkpt><trkpt lat="40.9542583" lon="15.44672"><ele>710.4000000000001</ele><time>2026-03-28T10:00:58.505Z</time></trkpt><trkpt lat="40.9542383" lon="15.4468367"><ele>712.0</ele><time>2026-03-28T10:00:59.505Z</time></trkpt><trkpt lat="40.9542333" lon="15.4469567"><ele>712.0</ele><time>2026-03-28T10:01:00.504Z</time></trkpt><trkpt lat="40.954245" lon="15.447085"><ele>712.0</ele><time>2026-03-28T10:01:01.505Z</time></trkpt><trkpt lat="40.9542617" lon="15.4472"><ele>712.0</ele><time>2026-03-28T10:01:02.504Z</time></trkpt><trkpt lat="40.9542983" lon="15.4473233"><ele>712.0</ele><time>2026-03-28T10:01:03.505Z</time></trkpt><trkpt lat="40.9543433" lon="15.4474483"><ele>712.0</ele><time>2026-03-28T10:01:04.504Z</time></trkpt><trkpt lat="40.95439" lon="15.447585"><ele>712.6</ele><time>2026-03-28T10:01:05.505Z</time></trkpt><trkpt lat="40.9544333" lon="15.4477117"><ele>713.2</ele><time>2026-03-28T10:01:06.504Z</time></trkpt><trkpt lat="40.9544817" lon="15.4478383"><ele>713.8</ele><time>2026-03-28T10:01:07.505Z</time></trkpt><trkpt lat="40.954535" lon="15.447975"><ele>714.4</ele><time>2026-03-28T10:01:08.505Z</time></trkpt><trkpt lat="40.95459" lon="15.4481167"><ele>715.0</ele><time>2026-03-28T10:01:09.505Z</time></trkpt><trkpt lat="40.95464" lon="15.4482433"><ele>715.0</ele><time>2026-03-28T10:01:10.505Z</time></trkpt><trkpt lat="40.9546833" lon="15.4483683"><ele>715.0</ele><time>2026-03-28T10:01:11.505Z</time></trkpt><trkpt lat="40.9547067" lon="15.4484883"><ele>715.0</ele><time>2026-03-28T10:01:12.505Z</time></trkpt><trkpt lat="40.954725" lon="15.4486167"><ele>715.0</ele><time>2026-03-28T10:01:13.505Z</time></trkpt><trkpt lat="40.9547217" lon="15.4487567"><ele>715.0</ele><time>2026-03-28T10:01:14.505Z</time></trkpt><trkpt lat="40.9547233" lon="15.44891"><ele>715.0</ele><time>2026-03-28T10:01:15.504Z</time></trkpt><trkpt lat="40.9547283" lon="15.44906"><ele>715.0</ele><time>2026-03-28T10:01:16.504Z</time></trkpt><trkpt lat="40.9547367" lon="15.449195"><ele>715.0</ele><time>2026-03-28T10:01:17.504Z</time></trkpt><trkpt lat="40.9547433" lon="15.449315"><ele>715.0</ele><time>2026-03-28T10:01:18.505Z</time></trkpt><trkpt lat="40.9547567" lon="15.4494367"><ele>715.0</ele><time>2026-03-28T10:01:19.504Z</time></trkpt><trkpt lat="40.9547817" lon="15.44956"><ele>715.0</ele><time>2026-03-28T10:01:20.504Z</time></trkpt><trkpt lat="40.9548133" lon="15.4496817"><ele>715.0</ele><time>2026-03-28T10:01:21.505Z</time></trkpt><trkpt lat="40.95485" lon="15.4498067"><ele>715.0</ele><time>2026-03-28T10:01:22.505Z</time></trkpt><trkpt lat="40.9549017" lon="15.4499433"><ele>715.0</ele><time>2026-03-28T10:01:23.504Z</time></trkpt><trkpt lat="40.954955" lon="15.4500783"><ele>715.0</ele><time>2026-03-28T10:01:24.505Z</time></trkpt><trkpt lat="40.955" lon="15.4502017"><ele>715.5</ele><time>2026-03-28T10:01:25.505Z</time></trkpt><trkpt lat="40.955045" lon="15.4503133"><ele>716.0</ele><time>2026-03-28T10:01:26.505Z</time></trkpt><trkpt lat="40.955075" lon="15.4504183"><ele>716.5</ele><time>2026-03-28T10:01:27.505Z</time></trkpt><trkpt lat="40.9550883" lon="15.4505283"><ele>717.0</ele><time>2026-03-28T10:01:28.505Z</time></trkpt><trkpt lat="40.9550867" lon="15.45064"><ele>717.5</ele><time>2026-03-28T10:01:29.504Z</time></trkpt><trkpt lat="40.9550583" lon="15.4507583"><ele>718.0</ele><time>2026-03-28T10:01:30.504Z</time></trkpt><trkpt lat="40.955015" lon="15.45088"><ele>718.0</ele><time>2026-03-28T10:01:31.505Z</time></trkpt><trkpt lat="40.954945" lon="15.4510033"><ele>718.0</ele><time>2026-03-28T10:01:32.504Z</time></trkpt><trkpt lat="40.954885" lon="15.4511333"><ele>718.0</ele><time>2026-03-28T10:01:33.505Z</time></trkpt><trkpt lat="40.9548283" lon="15.4512783"><ele>718.0</ele><time>2026-03-28T10:01:34.504Z</time></trkpt><trkpt lat="40.9547817" lon="15.4514283"><ele>718.5</ele><time>2026-03-28T10:01:35.505Z</time></trkpt><trkpt lat="40.9547383" lon="15.451585"><ele>719.0</ele><time>2026-03-28T10:01:36.504Z</time></trkpt><trkpt lat="40.9546983" lon="15.4517433"><ele>719.5</ele><time>2026-03-28T10:01:37.505Z</time></trkpt><trkpt lat="40.9546617" lon="15.4518967"><ele>720.0</ele><time>2026-03-28T10:01:38.504Z</time></trkpt><trkpt lat="40.9546267" lon="15.45204"><ele>720.0</ele><time>2026-03-28T10:01:39.504Z</time></trkpt><trkpt lat="40.95459" lon="15.4521817"><ele>720.0</ele><time>2026-03-28T10:01:40.505Z</time></trkpt><trkpt lat="40.9545467" lon="15.4523217"><ele>720.0</ele><time>2026-03-28T10:01:41.505Z</time></trkpt><trkpt lat="40.9545083" lon="15.4524633"><ele>720.0</ele><time>2026-03-28T10:01:42.504Z</time></trkpt><trkpt lat="40.95446" lon="15.4526117"><ele>720.0</ele><time>2026-03-28T10:01:43.505Z</time></trkpt><trkpt lat="40.954405" lon="15.4527767"><ele>720.0</ele><time>2026-03-28T10:01:44.504Z</time></trkpt><trkpt lat="40.954355" lon="15.4529417"><ele>720.0</ele><time>2026-03-28T10:01:45.505Z</time></trkpt><trkpt lat="40.9543033" lon="15.4531183"><ele>720.0</ele><time>2026-03-28T10:01:46.505Z</time></trkpt><trkpt lat="40.9542567" lon="15.4533"><ele>720.0</ele><time>2026-03-28T10:01:47.505Z</time></trkpt><trkpt lat="40.9542167" lon="15.4534883"><ele>720.0</ele><time>2026-03-28T10:01:48.505Z</time></trkpt><trkpt lat="40.95418" lon="15.453675"><ele>720.0</ele><time>2026-03-28T10:01:49.505Z</time></trkpt><trkpt lat="40.9541567" lon="15.4538617"><ele>720.0</ele><time>2026-03-28T10:01:50.504Z</time></trkpt><trkpt lat="40.95414" lon="15.4540483"><ele>719.25</ele><time>2026-03-28T10:01:51.505Z</time></trkpt><trkpt lat="40.954125" lon="15.4542367"><ele>718.5</ele><time>2026-03-28T10:01:52.504Z</time></trkpt><trkpt lat="40.9541167" lon="15.4544333"><ele>717.75</ele><time>2026-03-28T10:01:53.505Z</time></trkpt><trkpt lat="40.9541167" lon="15.4546317"><ele>717.0</ele><time>2026-03-28T10:01:54.505Z</time></trkpt><trkpt lat="40.95411" lon="15.4548333"><ele>716.6666666666666</ele><time>2026-03-28T10:01:55.505Z</time></trkpt><trkpt lat="40.9541" lon="15.4550417"><ele>716.3333333333333</ele><time>2026-03-28T10:01:56.504Z</time></trkpt><trkpt lat="40.9540933" lon="15.4552567"><ele>716.0</ele><time>2026-03-28T10:01:57.504Z</time></trkpt><trkpt lat="40.9540817" lon="15.455465"><ele>715.3333333333333</ele><time>2026-03-28T10:01:58.505Z</time></trkpt><trkpt lat="40.9540683" lon="15.4556683"><ele>714.6666666666666</ele><time>2026-03-28T10:01:59.504Z</time></trkpt><trkpt lat="40.954055" lon="15.4558667"><ele>714.0</ele><time>2026-03-28T10:02:00.505Z</time></trkpt><trkpt lat="40.954045" lon="15.45606"><ele>714.0</ele><time>2026-03-28T10:02:01.505Z</time></trkpt><trkpt lat="40.9540467" lon="15.45625"><ele>714.0</ele><time>2026-03-28T10:02:02.505Z</time></trkpt><trkpt lat="40.9540483" lon="15.4564417"><ele>714.0</ele><time>2026-03-28T10:02:03.504Z</time></trkpt><trkpt lat="40.9540517" lon="15.45663"><ele>714.0</ele><time>2026-03-28T10:02:04.505Z</time></trkpt><trkpt lat="40.9540583" lon="15.456815"><ele>714.0</ele><time>2026-03-28T10:02:05.504Z</time></trkpt><trkpt lat="40.9540683" lon="15.457005"><ele>714.0</ele><time>2026-03-28T10:02:06.505Z</time></trkpt><trkpt lat="40.9540733" lon="15.4572"><ele>714.0</ele><time>2026-03-28T10:02:07.504Z</time></trkpt><trkpt lat="40.9540833" lon="15.4574167"><ele>713.6666666666666</ele><time>2026-03-28T10:02:08.505Z</time></trkpt><trkpt lat="40.954095" lon="15.4576417"><ele>713.3333333333333</ele><time>2026-03-28T10:02:09.504Z</time></trkpt><trkpt lat="40.9541017" lon="15.457865"><ele>713.0</ele><time>2026-03-28T10:02:10.505Z</time></trkpt><trkpt lat="40.9540983" lon="15.4580767"><ele>713.0</ele><time>2026-03-28T10:02:11.504Z</time></trkpt><trkpt lat="40.9541033" lon="15.4582817"><ele>713.0</ele><time>2026-03-28T10:02:12.504Z</time></trkpt><trkpt lat="40.95411" lon="15.4584683"><ele>713.0</ele><time>2026-03-28T10:02:13.505Z</time></trkpt><trkpt lat="40.95412" lon="15.4586467"><ele>713.0</ele><time>2026-03-28T10:02:14.504Z</time></trkpt><trkpt lat="40.9541233" lon="15.4588083"><ele>713.0</ele><time>2026-03-28T10:02:15.504Z</time></trkpt><trkpt lat="40.95413" lon="15.4589733"><ele>713.0</ele><time>2026-03-28T10:02:16.505Z</time></trkpt><trkpt lat="40.9541233" lon="15.4591467"><ele>713.0</ele><time>2026-03-28T10:02:17.504Z</time></trkpt><trkpt lat="40.9541117" lon="15.4593267"><ele>713.0</ele><time>2026-03-28T10:02:18.505Z</time></trkpt><trkpt lat="40.9540883" lon="15.4595183"><ele>713.3333333333333</ele><time>2026-03-28T10:02:19.504Z</time></trkpt><trkpt lat="40.9540533" lon="15.4597183"><ele>713.6666666666666</ele><time>2026-03-28T10:02:20.504Z</time></trkpt><trkpt lat="40.9540133" lon="15.4599233"><ele>714.0</ele><time>2026-03-28T10:02:21.504Z</time></trkpt><trkpt lat="40.9539717" lon="15.460125"><ele>714.0</ele><time>2026-03-28T10:02:22.505Z</time></trkpt><trkpt lat="40.9539267" lon="15.4603183"><ele>714.0</ele><time>2026-03-28T10:02:23.504Z</time></trkpt><trkpt lat="40.953885" lon="15.4605083"><ele>714.0</ele><time>2026-03-28T10:02:24.505Z</time></trkpt><trkpt lat="40.9538417" lon="15.4606933"><ele>714.0</ele><time>2026-03-28T10:02:25.504Z</time></trkpt><trkpt lat="40.9537933" lon="15.46088"><ele>714.6666666666666</ele><time>2026-03-28T10:02:26.504Z</time></trkpt><trkpt lat="40.95374" lon="15.4610617"><ele>715.3333333333333</ele><time>2026-03-28T10:02:27.505Z</time></trkpt><trkpt lat="40.9536817" lon="15.4612517"><ele>716.0</ele><time>2026-03-28T10:02:28.505Z</time></trkpt><trkpt lat="40.95362" lon="15.4614467"><ele>716.3333333333333</ele><time>2026-03-28T10:02:29.505Z</time></trkpt><trkpt lat="40.9535567" lon="15.4616483"><ele>716.6666666666666</ele><time>2026-03-28T10:02:30.504Z</time></trkpt><trkpt lat="40.9534933" lon="15.4618483"><ele>717.0</ele><time>2026-03-28T10:02:31.505Z</time></trkpt><trkpt lat="40.9534283" lon="15.4620433"><ele>717.6666666666666</ele><time>2026-03-28T10:02:32.504Z</time></trkpt><trkpt lat="40.9533667" lon="15.4622367"><ele>718.3333333333333</ele><time>2026-03-28T10:02:33.505Z</time></trkpt><trkpt lat="40.9533067" lon="15.46243"><ele>719.0</ele><time>2026-03-28T10:02:34.504Z</time></trkpt><trkpt lat="40.9532417" lon="15.46262"><ele>719.0</ele><time>2026-03-28T10:02:35.504Z</time></trkpt><trkpt lat="40.953175" lon="15.4628033"><ele>719.0</ele><time>2026-03-28T10:02:36.505Z</time></trkpt><trkpt lat="40.9531167" lon="15.4629817"><ele>719.0</ele><time>2026-03-28T10:02:37.504Z</time></trkpt><trkpt lat="40.953065" lon="15.463155"><ele>719.0</ele><time>2026-03-28T10:02:38.504Z</time></trkpt><trkpt lat="40.9530117" lon="15.46332"><ele>720.0</ele><time>2026-03-28T10:02:39.505Z</time></trkpt><trkpt lat="40.952955" lon="15.463485"><ele>721.0</ele><time>2026-03-28T10:02:40.504Z</time></trkpt><trkpt lat="40.9529017" lon="15.4636433"><ele>722.0</ele><time>2026-03-28T10:02:41.504Z</time></trkpt><trkpt lat="40.95285" lon="15.463795"><ele>723.0</ele><time>2026-03-28T10:02:42.505Z</time></trkpt><trkpt lat="40.9527967" lon="15.4639467"><ele>723.0</ele><time>2026-03-28T10:02:43.505Z</time></trkpt><trkpt lat="40.9527483" lon="15.46411"><ele>723.0</ele><time>2026-03-28T10:02:44.504Z</time></trkpt><trkpt lat="40.952705" lon="15.4642717"><ele>723.0</ele><time>2026-03-28T10:02:45.504Z</time></trkpt><trkpt lat="40.95267" lon="15.464435"><ele>723.0</ele><time>2026-03-28T10:02:46.504Z</time></trkpt><trkpt lat="40.95264" lon="15.4646017"><ele>722.75</ele><time>2026-03-28T10:02:47.505Z</time></trkpt><trkpt lat="40.9526133" lon="15.4647683"><ele>722.5</ele><time>2026-03-28T10:02:48.504Z</time></trkpt><trkpt lat="40.9525867" lon="15.4649333"><ele>722.25</ele><time>2026-03-28T10:02:49.504Z</time></trkpt><trkpt lat="40.952565" lon="15.4651"><ele>722.0</ele><time>2026-03-28T10:02:50.504Z</time></trkpt><trkpt lat="40.9525533" lon="15.4652733"><ele>721.75</ele><time>2026-03-28T10:02:51.504Z</time></trkpt><trkpt lat="40.9525517" lon="15.4654533"><ele>721.5</ele><time>2026-03-28T10:02:52.504Z</time></trkpt><trkpt lat="40.9525567" lon="15.465635"><ele>721.25</ele><time>2026-03-28T10:02:53.505Z</time></trkpt><trkpt lat="40.952565" lon="15.4658267"><ele>721.0</ele><time>2026-03-28T10:02:54.505Z</time></trkpt><trkpt lat="40.9525667" lon="15.46602"><ele>721.0</ele><time>2026-03-28T10:02:55.505Z</time></trkpt><trkpt lat="40.95257" lon="15.466205"><ele>721.0</ele><time>2026-03-28T10:02:56.505Z</time></trkpt><trkpt lat="40.9525733" lon="15.4663867"><ele>721.0</ele><time>2026-03-28T10:02:57.504Z</time></trkpt><trkpt lat="40.9525783" lon="15.4665633"><ele>721.0</ele><time>2026-03-28T10:02:58.505Z</time></trkpt><trkpt lat="40.952585" lon="15.46674"><ele>720.5</ele><time>2026-03-28T10:02:59.505Z</time></trkpt><trkpt lat="40.95259" lon="15.4669117"><ele>720.0</ele><time>2026-03-28T10:03:00.505Z</time></trkpt><trkpt lat="40.9525933" lon="15.4670767"><ele>719.5</ele><time>2026-03-28T10:03:01.505Z</time></trkpt><trkpt lat="40.952585" lon="15.4672367"><ele>719.0</ele><time>2026-03-28T10:03:02.504Z</time></trkpt><trkpt lat="40.952575" lon="15.4673933"><ele>718.5</ele><time>2026-03-28T10:03:03.505Z</time></trkpt><trkpt lat="40.9525567" lon="15.4675467"><ele>718.0</ele><time>2026-03-28T10:03:04.504Z</time></trkpt><trkpt lat="40.9525283" lon="15.4677083"><ele>717.5</ele><time>2026-03-28T10:03:05.505Z</time></trkpt><trkpt lat="40.9524833" lon="15.46787"><ele>717.0</ele><time>2026-03-28T10:03:06.504Z</time></trkpt><trkpt lat="40.9524333" lon="15.4680333"><ele>714.25</ele><time>2026-03-28T10:03:07.505Z</time></trkpt><trkpt lat="40.9523733" lon="15.46819"><ele>711.5</ele><time>2026-03-28T10:03:08.505Z</time></trkpt><trkpt lat="40.952315" lon="15.46833"><ele>708.75</ele><time>2026-03-28T10:03:09.505Z</time></trkpt><trkpt lat="40.9522467" lon="15.468475"><ele>706.0</ele><time>2026-03-28T10:03:10.504Z</time></trkpt><trkpt lat="40.9521817" lon="15.468615"><ele>706.0</ele><time>2026-03-28T10:03:11.504Z</time></trkpt><trkpt lat="40.9521183" lon="15.468755"><ele>706.0</ele><time>2026-03-28T10:03:12.504Z</time></trkpt><trkpt lat="40.9520517" lon="15.4688917"><ele>706.0</ele><time>2026-03-28T10:03:13.504Z</time></trkpt><trkpt lat="40.9519883" lon="15.4690283"><ele>706.0</ele><time>2026-03-28T10:03:14.504Z</time></trkpt><trkpt lat="40.9519267" lon="15.4691633"><ele>705.75</ele><time>2026-03-28T10:03:15.504Z</time></trkpt><trkpt lat="40.9518633" lon="15.4693033"><ele>705.5</ele><time>2026-03-28T10:03:16.505Z</time></trkpt><trkpt lat="40.9517983" lon="15.46944"><ele>705.25</ele><time>2026-03-28T10:03:17.505Z</time></trkpt><trkpt lat="40.9517333" lon="15.4695717"><ele>705.0</ele><time>2026-03-28T10:03:18.504Z</time></trkpt><trkpt lat="40.9516683" lon="15.4697033"><ele>702.25</ele><time>2026-03-28T10:03:19.505Z</time></trkpt><trkpt lat="40.9516067" lon="15.4698383"><ele>699.5</ele><time>2026-03-28T10:03:20.505Z</time></trkpt><trkpt lat="40.9515483" lon="15.4699767"><ele>696.75</ele><time>2026-03-28T10:03:21.505Z</time></trkpt><trkpt lat="40.9514933" lon="15.470115"><ele>694.0</ele><time>2026-03-28T10:03:22.505Z</time></trkpt><trkpt lat="40.9514383" lon="15.4702517"><ele>694.0</ele><time>2026-03-28T10:03:23.505Z</time></trkpt><trkpt lat="40.95138" lon="15.470395"><ele>694.0</ele><time>2026-03-28T10:03:24.504Z</time></trkpt><trkpt lat="40.9513283" lon="15.47054"><ele>694.0</ele><time>2026-03-28T10:03:25.504Z</time></trkpt><trkpt lat="40.9512833" lon="15.470685"><ele>694.0</ele><time>2026-03-28T10:03:26.505Z</time></trkpt><trkpt lat="40.9512333" lon="15.4708317"><ele>692.5</ele><time>2026-03-28T10:03:27.505Z</time></trkpt><trkpt lat="40.9511867" lon="15.4709833"><ele>691.0</ele><time>2026-03-28T10:03:28.505Z</time></trkpt><trkpt lat="40.9511417" lon="15.4711367"><ele>689.5</ele><time>2026-03-28T10:03:29.504Z</time></trkpt><trkpt lat="40.9510933" lon="15.4713017"><ele>688.0</ele><time>2026-03-28T10:03:30.504Z</time></trkpt><trkpt lat="40.95104" lon="15.4714567"><ele>687.25</ele><time>2026-03-28T10:03:31.504Z</time></trkpt><trkpt lat="40.950995" lon="15.4716133"><ele>686.5</ele><time>2026-03-28T10:03:32.505Z</time></trkpt><trkpt lat="40.9509467" lon="15.4717667"><ele>685.75</ele><time>2026-03-28T10:03:33.505Z</time></trkpt><trkpt lat="40.9509017" lon="15.4719267"><ele>685.0</ele><time>2026-03-28T10:03:34.505Z</time></trkpt><trkpt lat="40.9508617" lon="15.4720883"><ele>681.25</ele><time>2026-03-28T10:03:35.505Z</time></trkpt><trkpt lat="40.9508267" lon="15.47225"><ele>677.5</ele><time>2026-03-28T10:03:36.505Z</time></trkpt><trkpt lat="40.9508033" lon="15.4724117"><ele>673.75</ele><time>2026-03-28T10:03:37.505Z</time></trkpt><trkpt lat="40.9507783" lon="15.4725717"><ele>670.0</ele><time>2026-03-28T10:03:38.505Z</time></trkpt><trkpt lat="40.9507567" lon="15.4727283"><ele>670.0</ele><time>2026-03-28T10:03:39.504Z</time></trkpt><trkpt lat="40.9507417" lon="15.4728817"><ele>670.0</ele><time>2026-03-28T10:03:40.505Z</time></trkpt><trkpt lat="40.9507333" lon="15.4730317"><ele>670.0</ele><time>2026-03-28T10:03:41.504Z</time></trkpt><trkpt lat="40.95073" lon="15.4731733"><ele>670.0</ele><time>2026-03-28T10:03:42.505Z</time></trkpt><trkpt lat="40.9507317" lon="15.473325"><ele>669.8</ele><time>2026-03-28T10:03:43.505Z</time></trkpt><trkpt lat="40.9507317" lon="15.4734783"><ele>669.6</ele><time>2026-03-28T10:03:44.505Z</time></trkpt><trkpt lat="40.950735" lon="15.4736217"><ele>669.4000000000001</ele><time>2026-03-28T10:03:45.505Z</time></trkpt><trkpt lat="40.9507383" lon="15.47376"><ele>669.2</ele><time>2026-03-28T10:03:46.505Z</time></trkpt><trkpt lat="40.950735" lon="15.4738867"><ele>669.0</ele><time>2026-03-28T10:03:47.504Z</time></trkpt><trkpt lat="40.9507217" lon="15.474005"><ele>669.0</ele><time>2026-03-28T10:03:48.504Z</time></trkpt><trkpt lat="40.9507133" lon="15.4741183"><ele>669.0</ele><time>2026-03-28T10:03:49.505Z</time></trkpt><trkpt lat="40.9506883" lon="15.474225"><ele>669.0</ele><time>2026-03-28T10:03:50.505Z</time></trkpt><trkpt lat="40.9506383" lon="15.4743183"><ele>669.0</ele><time>2026-03-28T10:03:51.505Z</time></trkpt><trkpt lat="40.9505683" lon="15.474395"><ele>669.0</ele><time>2026-03-28T10:03:52.505Z</time></trkpt><trkpt lat="40.9504867" lon="15.47443"><ele>669.0</ele><time>2026-03-28T10:03:53.505Z</time></trkpt><trkpt lat="40.9503933" lon="15.4744383"><ele>669.0</ele><time>2026-03-28T10:03:54.505Z</time></trkpt><trkpt lat="40.9502967" lon="15.4744083"><ele>669.0</ele><time>2026-03-28T10:03:55.505Z</time></trkpt><trkpt lat="40.9501933" lon="15.47437"><ele>669.0</ele><time>2026-03-28T10:03:56.504Z</time></trkpt><trkpt lat="40.9500767" lon="15.4743267"><ele>669.0</ele><time>2026-03-28T10:03:57.505Z</time></trkpt><trkpt lat="40.9499617" lon="15.4742783"><ele>669.0</ele><time>2026-03-28T10:03:58.505Z</time></trkpt><trkpt lat="40.949845" lon="15.4742317"><ele>669.25</ele><time>2026-03-28T10:03:59.505Z</time></trkpt><trkpt lat="40.9497267" lon="15.4741817"><ele>669.5</ele><time>2026-03-28T10:04:00.506Z</time></trkpt><trkpt lat="40.9496017" lon="15.474125"><ele>669.75</ele><time>2026-03-28T10:04:01.506Z</time></trkpt><trkpt lat="40.9494867" lon="15.4740867"><ele>670.0</ele><time>2026-03-28T10:04:02.505Z</time></trkpt><trkpt lat="40.949395" lon="15.4740533"><ele>670.0</ele><time>2026-03-28T10:04:03.506Z</time></trkpt><trkpt lat="40.9493117" lon="15.4740283"><ele>670.0</ele><time>2026-03-28T10:04:04.506Z</time></trkpt><trkpt lat="40.949225" lon="15.4740217"><ele>670.0</ele><time>2026-03-28T10:04:05.505Z</time></trkpt><trkpt lat="40.9491483" lon="15.47403"><ele>670.0</ele><time>2026-03-28T10:04:06.506Z</time></trkpt><trkpt lat="40.9490667" lon="15.47406"><ele>670.0</ele><time>2026-03-28T10:04:07.506Z</time></trkpt><trkpt lat="40.9489783" lon="15.4741067"><ele>670.0</ele><time>2026-03-28T10:04:08.505Z</time></trkpt><trkpt lat="40.948885" lon="15.47416"><ele>672.0</ele><time>2026-03-28T10:04:09.505Z</time></trkpt><trkpt lat="40.9487833" lon="15.4742183"><ele>674.0</ele><time>2026-03-28T10:04:10.506Z</time></trkpt><trkpt lat="40.9486883" lon="15.4742767"><ele>676.0</ele><time>2026-03-28T10:04:11.506Z</time></trkpt><trkpt lat="40.9485867" lon="15.4743383"><ele>678.0</ele><time>2026-03-28T10:04:12.505Z</time></trkpt><trkpt lat="40.948495" lon="15.4743967"><ele>680.0</ele><time>2026-03-28T10:04:13.505Z</time></trkpt><trkpt lat="40.9484067" lon="15.474455"><ele>680.6</ele><time>2026-03-28T10:04:14.506Z</time></trkpt><trkpt lat="40.94832" lon="15.4745083"><ele>681.2</ele><time>2026-03-28T10:04:15.505Z</time></trkpt><trkpt lat="40.9482317" lon="15.4745617"><ele>681.8</ele><time>2026-03-28T10:04:16.506Z</time></trkpt><trkpt lat="40.9481533" lon="15.4746183"><ele>682.4</ele><time>2026-03-28T10:04:17.506Z</time></trkpt><trkpt lat="40.94807" lon="15.474675"><ele>683.0</ele><time>2026-03-28T10:04:18.506Z</time></trkpt><trkpt lat="40.9479883" lon="15.4747417"><ele>684.4</ele><time>2026-03-28T10:04:19.505Z</time></trkpt><trkpt lat="40.9479" lon="15.4748183"><ele>685.8</ele><time>2026-03-28T10:04:20.505Z</time></trkpt><trkpt lat="40.947815" lon="15.4749033"><ele>687.2</ele><time>2026-03-28T10:04:21.506Z</time></trkpt><trkpt lat="40.9477383" lon="15.4750033"><ele>688.6</ele><time>2026-03-28T10:04:22.506Z</time></trkpt><trkpt lat="40.9476667" lon="15.4751167"><ele>690.0</ele><time>2026-03-28T10:04:23.505Z</time></trkpt><trkpt lat="40.947595" lon="15.475235"><ele>690.4</ele><time>2026-03-28T10:04:24.506Z</time></trkpt><trkpt lat="40.9475283" lon="15.4753517"><ele>690.8</ele><time>2026-03-28T10:04:25.506Z</time></trkpt><trkpt lat="40.94747" lon="15.4754567"><ele>691.2</ele><time>2026-03-28T10:04:26.505Z</time></trkpt><trkpt lat="40.94741" lon="15.4755467"><ele>691.6</ele><time>2026-03-28T10:04:27.506Z</time></trkpt><trkpt lat="40.947335" lon="15.475645"><ele>692.0</ele><time>2026-03-28T10:04:28.506Z</time></trkpt><trkpt lat="40.94725" lon="15.475755"><ele>692.25</ele><time>2026-03-28T10:04:29.505Z</time></trkpt><trkpt lat="40.9471567" lon="15.4758767"><ele>692.5</ele><time>2026-03-28T10:04:30.506Z</time></trkpt><trkpt lat="40.9470667" lon="15.4759983"><ele>692.75</ele><time>2026-03-28T10:04:31.506Z</time></trkpt><trkpt lat="40.9469783" lon="15.4761233"><ele>693.0</ele><time>2026-03-28T10:04:32.505Z</time></trkpt><trkpt lat="40.9468883" lon="15.4762583"><ele>694.0</ele><time>2026-03-28T10:04:33.506Z</time></trkpt><trkpt lat="40.9467967" lon="15.4764017"><ele>695.0</ele><time>2026-03-28T10:04:34.506Z</time></trkpt><trkpt lat="40.94671" lon="15.4765433"><ele>696.0</ele><time>2026-03-28T10:04:35.506Z</time></trkpt><trkpt lat="40.9466267" lon="15.4766733"><ele>697.0</ele><time>2026-03-28T10:04:36.505Z</time></trkpt><trkpt lat="40.9465483" lon="15.4768033"><ele>695.6</ele><time>2026-03-28T10:04:37.505Z</time></trkpt><trkpt lat="40.9464717" lon="15.47692"><ele>694.2</ele><time>2026-03-28T10:04:38.506Z</time></trkpt><trkpt lat="40.946405" lon="15.4770317"><ele>692.8</ele><time>2026-03-28T10:04:39.506Z</time></trkpt><trkpt lat="40.9463383" lon="15.4771367"><ele>691.4</ele><time>2026-03-28T10:04:40.505Z</time></trkpt><trkpt lat="40.9462667" lon="15.47724"><ele>690.0</ele><time>2026-03-28T10:04:41.506Z</time></trkpt><trkpt lat="40.9462" lon="15.47734"><ele>690.0</ele><time>2026-03-28T10:04:42.506Z</time></trkpt><trkpt lat="40.9461417" lon="15.47745"><ele>690.0</ele><time>2026-03-28T10:04:43.505Z</time></trkpt><trkpt lat="40.946085" lon="15.4775583"><ele>690.0</ele><time>2026-03-28T10:04:44.505Z</time></trkpt><trkpt lat="40.9460267" lon="15.4776683"><ele>690.0</ele><time>2026-03-28T10:04:45.505Z</time></trkpt><trkpt lat="40.9459667" lon="15.4777767"><ele>690.0</ele><time>2026-03-28T10:04:46.505Z</time></trkpt><trkpt lat="40.9459017" lon="15.4778917"><ele>688.75</ele><time>2026-03-28T10:04:47.506Z</time></trkpt><trkpt lat="40.94583" lon="15.47801"><ele>687.5</ele><time>2026-03-28T10:04:48.505Z</time></trkpt><trkpt lat="40.945755" lon="15.478135"><ele>686.25</ele><time>2026-03-28T10:04:49.505Z</time></trkpt><trkpt lat="40.945685" lon="15.478265"><ele>685.0</ele><time>2026-03-28T10:04:50.506Z</time></trkpt><trkpt lat="40.94562" lon="15.4783933"><ele>685.0</ele><time>2026-03-28T10:04:51.505Z</time></trkpt><trkpt lat="40.945555" lon="15.47851"><ele>685.0</ele><time>2026-03-28T10:04:52.506Z</time></trkpt><trkpt lat="40.9454867" lon="15.47863"><ele>685.0</ele><time>2026-03-28T10:04:53.505Z</time></trkpt><trkpt lat="40.94542" lon="15.4787533"><ele>685.0</ele><time>2026-03-28T10:04:54.505Z</time></trkpt><trkpt lat="40.9453567" lon="15.4788767"><ele>685.0</ele><time>2026-03-28T10:04:55.506Z</time></trkpt><trkpt lat="40.94529" lon="15.479"><ele>685.0</ele><time>2026-03-28T10:04:56.506Z</time></trkpt><trkpt lat="40.945225" lon="15.479125"><ele>685.0</ele><time>2026-03-28T10:04:57.505Z</time></trkpt><trkpt lat="40.9451667" lon="15.4792467"><ele>685.0</ele><time>2026-03-28T10:04:58.505Z</time></trkpt><trkpt lat="40.9451083" lon="15.4793667"><ele>685.0</ele><time>2026-03-28T10:04:59.506Z</time></trkpt><trkpt lat="40.945045" lon="15.47949"><ele>684.6</ele><time>2026-03-28T10:05:00.506Z</time></trkpt><trkpt lat="40.9449833" lon="15.4796083"><ele>684.2</ele><time>2026-03-28T10:05:01.506Z</time></trkpt><trkpt lat="40.9449217" lon="15.4797167"><ele>683.8</ele><time>2026-03-28T10:05:02.505Z</time></trkpt><trkpt lat="40.9448633" lon="15.4798217"><ele>683.4</ele><time>2026-03-28T10:05:03.506Z</time></trkpt><trkpt lat="40.9448083" lon="15.4799183"><ele>683.0</ele><time>2026-03-28T10:05:04.505Z</time></trkpt><trkpt lat="40.9447567" lon="15.48001"><ele>683.0</ele><time>2026-03-28T10:05:05.506Z</time></trkpt><trkpt lat="40.944705" lon="15.4800833"><ele>683.0</ele><time>2026-03-28T10:05:06.506Z</time></trkpt><trkpt lat="40.9446483" lon="15.4801583"><ele>683.0</ele><time>2026-03-28T10:05:07.506Z</time></trkpt><trkpt lat="40.944585" lon="15.4802283"><ele>683.0</ele><time>2026-03-28T10:05:08.505Z</time></trkpt><trkpt lat="40.9445233" lon="15.4803067"><ele>683.0</ele><time>2026-03-28T10:05:09.506Z</time></trkpt><trkpt lat="40.94446" lon="15.4803833"><ele>683.0</ele><time>2026-03-28T10:05:10.506Z</time></trkpt><trkpt lat="40.9443917" lon="15.4804617"><ele>682.8571428571429</ele><time>2026-03-28T10:05:11.505Z</time></trkpt><trkpt lat="40.9443283" lon="15.4805367"><ele>682.7142857142857</ele><time>2026-03-28T10:05:12.505Z</time></trkpt><trkpt lat="40.944275" lon="15.4806"><ele>682.5714285714286</ele><time>2026-03-28T10:05:13.505Z</time></trkpt><trkpt lat="40.9442267" lon="15.4806617"><ele>682.4285714285714</ele><time>2026-03-28T10:05:14.505Z</time></trkpt><trkpt lat="40.9441767" lon="15.4807183"><ele>682.2857142857143</ele><time>2026-03-28T10:05:15.506Z</time></trkpt><trkpt lat="40.9441217" lon="15.480775"><ele>682.1428571428571</ele><time>2026-03-28T10:05:16.506Z</time></trkpt><trkpt lat="40.944065" lon="15.48082"><ele>682.0</ele><time>2026-03-28T10:05:17.505Z</time></trkpt><trkpt lat="40.9439567" lon="15.48089"><ele>682.0</ele><time>2026-03-28T10:05:19.506Z</time></trkpt><trkpt lat="40.9439" lon="15.4809333"><ele>682.0</ele><time>2026-03-28T10:05:20.506Z</time></trkpt><trkpt lat="40.9438317" lon="15.4809717"><ele>682.0</ele><time>2026-03-28T10:05:21.506Z</time></trkpt><trkpt lat="40.9437667" lon="15.481005"><ele>682.0</ele><time>2026-03-28T10:05:22.505Z</time></trkpt><trkpt lat="40.9436983" lon="15.4810367"><ele>682.0</ele><time>2026-03-28T10:05:23.506Z</time></trkpt><trkpt lat="40.9436217" lon="15.4810667"><ele>682.0</ele><time>2026-03-28T10:05:24.506Z</time></trkpt><trkpt lat="40.9435483" lon="15.4810917"><ele>682.0</ele><time>2026-03-28T10:05:25.506Z</time></trkpt><trkpt lat="40.9434717" lon="15.4811283"><ele>682.0</ele><time>2026-03-28T10:05:26.506Z</time></trkpt><trkpt lat="40.9433967" lon="15.4811633"><ele>682.0</ele><time>2026-03-28T10:05:27.505Z</time></trkpt><trkpt lat="40.9433283" lon="15.4811983"><ele>682.0</ele><time>2026-03-28T10:05:28.505Z</time></trkpt><trkpt lat="40.943255" lon="15.4812383"><ele>682.0</ele><time>2026-03-28T10:05:29.505Z</time></trkpt><trkpt lat="40.943185" lon="15.481275"><ele>682.0</ele><time>2026-03-28T10:05:30.506Z</time></trkpt><trkpt lat="40.94312" lon="15.4813083"><ele>682.0</ele><time>2026-03-28T10:05:31.505Z</time></trkpt><trkpt lat="40.9430517" lon="15.481345"><ele>681.1666666666667</ele><time>2026-03-28T10:05:32.505Z</time></trkpt><trkpt lat="40.9429833" lon="15.4813767"><ele>680.3333333333334</ele><time>2026-03-28T10:05:33.505Z</time></trkpt><trkpt lat="40.9429183" lon="15.4814083"><ele>679.5</ele><time>2026-03-28T10:05:34.506Z</time></trkpt><trkpt lat="40.942855" lon="15.4814433"><ele>678.6666666666666</ele><time>2026-03-28T10:05:35.505Z</time></trkpt><trkpt lat="40.9427967" lon="15.4814767"><ele>677.8333333333333</ele><time>2026-03-28T10:05:36.505Z</time></trkpt><trkpt lat="40.94274" lon="15.481515"><ele>677.0</ele><time>2026-03-28T10:05:37.506Z</time></trkpt><trkpt lat="40.94264" lon="15.481605"><ele>676.9999999999999</ele><time>2026-03-28T10:05:39.505Z</time></trkpt><trkpt lat="40.942595" lon="15.481675"><ele>677.0</ele><time>2026-03-28T10:05:40.506Z</time></trkpt><trkpt lat="40.9425533" lon="15.4817567"><ele>677.0</ele><time>2026-03-28T10:05:41.506Z</time></trkpt><trkpt lat="40.942515" lon="15.4818467"><ele>677.0</ele><time>2026-03-28T10:05:42.505Z</time></trkpt><trkpt lat="40.94248" lon="15.481935"><ele>677.0</ele><time>2026-03-28T10:05:43.505Z</time></trkpt><trkpt lat="40.94244" lon="15.4820117"><ele>676.9999999999999</ele><time>2026-03-28T10:05:44.505Z</time></trkpt><trkpt lat="40.9424033" lon="15.4820883"><ele>677.0</ele><time>2026-03-28T10:05:45.506Z</time></trkpt><trkpt lat="40.9423683" lon="15.482165"><ele>675.6666666666666</ele><time>2026-03-28T10:05:46.505Z</time></trkpt><trkpt lat="40.94234" lon="15.482255"><ele>674.3333333333333</ele><time>2026-03-28T10:05:47.505Z</time></trkpt><trkpt lat="40.9423167" lon="15.48235"><ele>673.0</ele><time>2026-03-28T10:05:48.506Z</time></trkpt><trkpt lat="40.9422867" lon="15.482455"><ele>671.6666666666666</ele><time>2026-03-28T10:05:49.505Z</time></trkpt><trkpt lat="40.9422567" lon="15.4825633"><ele>670.3333333333334</ele><time>2026-03-28T10:05:50.506Z</time></trkpt><trkpt lat="40.9422267" lon="15.4826667"><ele>669.0</ele><time>2026-03-28T10:05:51.505Z</time></trkpt><trkpt lat="40.9421967" lon="15.482775"><ele>669.0</ele><time>2026-03-28T10:05:52.505Z</time></trkpt><trkpt lat="40.942165" lon="15.4828867"><ele>669.0</ele><time>2026-03-28T10:05:53.506Z</time></trkpt><trkpt lat="40.9421333" lon="15.4829967"><ele>669.0</ele><time>2026-03-28T10:05:54.506Z</time></trkpt><trkpt lat="40.94211" lon="15.4830983"><ele>669.0</ele><time>2026-03-28T10:05:55.505Z</time></trkpt><trkpt lat="40.9420867" lon="15.4831983"><ele>669.0</ele><time>2026-03-28T10:05:56.506Z</time></trkpt><trkpt lat="40.9420683" lon="15.4832883"><ele>669.0</ele><time>2026-03-28T10:05:57.506Z</time></trkpt><trkpt lat="40.9420283" lon="15.4834267"><ele>670.0</ele><time>2026-03-28T10:05:59.506Z</time></trkpt><trkpt lat="40.942015" lon="15.4835267"><ele>671.0</ele><time>2026-03-28T10:06:01.506Z</time></trkpt><trkpt lat="40.942" lon="15.4836583"><ele>672.0</ele><time>2026-03-28T10:06:03.506Z</time></trkpt><trkpt lat="40.94196" lon="15.4838167"><ele>673.0</ele><time>2026-03-28T10:06:05.505Z</time></trkpt><trkpt lat="40.94194" lon="15.4839217"><ele>674.0</ele><time>2026-03-28T10:06:06.506Z</time></trkpt><trkpt lat="40.941915" lon="15.4840433"><ele>674.6</ele><time>2026-03-28T10:06:07.505Z</time></trkpt><trkpt lat="40.9418833" lon="15.484165"><ele>675.2</ele><time>2026-03-28T10:06:08.506Z</time></trkpt><trkpt lat="40.9418517" lon="15.484275"><ele>675.8000000000001</ele><time>2026-03-28T10:06:09.506Z</time></trkpt><trkpt lat="40.94182" lon="15.48439"><ele>676.4000000000001</ele><time>2026-03-28T10:06:10.506Z</time></trkpt><trkpt lat="40.9417967" lon="15.4845083"><ele>677.0</ele><time>2026-03-28T10:06:11.506Z</time></trkpt><trkpt lat="40.94177" lon="15.4846333"><ele>677.0</ele><time>2026-03-28T10:06:12.506Z</time></trkpt><trkpt lat="40.9417517" lon="15.4847667"><ele>677.0</ele><time>2026-03-28T10:06:13.506Z</time></trkpt><trkpt lat="40.941735" lon="15.4849017"><ele>677.0</ele><time>2026-03-28T10:06:14.505Z</time></trkpt><trkpt lat="40.9417267" lon="15.4850333"><ele>677.0</ele><time>2026-03-28T10:06:15.505Z</time></trkpt><trkpt lat="40.9417217" lon="15.48516"><ele>677.0</ele><time>2026-03-28T10:06:16.505Z</time></trkpt><trkpt lat="40.9417033" lon="15.485285"><ele>675.0</ele><time>2026-03-28T10:06:17.506Z</time></trkpt><trkpt lat="40.9416883" lon="15.4854017"><ele>673.0</ele><time>2026-03-28T10:06:18.506Z</time></trkpt><trkpt lat="40.9416733" lon="15.4855167"><ele>671.0</ele><time>2026-03-28T10:06:19.506Z</time></trkpt><trkpt lat="40.9416583" lon="15.485635"><ele>669.0</ele><time>2026-03-28T10:06:20.505Z</time></trkpt><trkpt lat="40.9416333" lon="15.485745"><ele>667.0</ele><time>2026-03-28T10:06:21.506Z</time></trkpt><trkpt lat="40.9416067" lon="15.4858533"><ele>665.0</ele><time>2026-03-28T10:06:22.506Z</time></trkpt><trkpt lat="40.9415783" lon="15.485955"><ele>665.0</ele><time>2026-03-28T10:06:23.506Z</time></trkpt><trkpt lat="40.94154" lon="15.486055"><ele>665.0</ele><time>2026-03-28T10:06:24.506Z</time></trkpt><trkpt lat="40.9414933" lon="15.4861517"><ele>665.0</ele><time>2026-03-28T10:06:25.505Z</time></trkpt><trkpt lat="40.94144" lon="15.4862333"><ele>665.0</ele><time>2026-03-28T10:06:26.506Z</time></trkpt><trkpt lat="40.9413517" lon="15.4863567"><ele>665.0</ele><time>2026-03-28T10:06:28.506Z</time></trkpt><trkpt lat="40.9412967" lon="15.486405"><ele>665.0</ele><time>2026-03-28T10:06:29.505Z</time></trkpt><trkpt lat="40.9412367" lon="15.4864433"><ele>665.0</ele><time>2026-03-28T10:06:30.505Z</time></trkpt><trkpt lat="40.9411733" lon="15.48648"><ele>665.0</ele><time>2026-03-28T10:06:31.505Z</time></trkpt><trkpt lat="40.9411017" lon="15.4865183"><ele>665.0</ele><time>2026-03-28T10:06:32.506Z</time></trkpt><trkpt lat="40.9410233" lon="15.4865517"><ele>665.0</ele><time>2026-03-28T10:06:33.506Z</time></trkpt><trkpt lat="40.9409417" lon="15.4865767"><ele>665.0</ele><time>2026-03-28T10:06:34.505Z</time></trkpt><trkpt lat="40.9408667" lon="15.4865933"><ele>665.0</ele><time>2026-03-28T10:06:35.506Z</time></trkpt><trkpt lat="40.9407933" lon="15.4866117"><ele>664.8571428571429</ele><time>2026-03-28T10:06:36.505Z</time></trkpt><trkpt lat="40.9407217" lon="15.4866333"><ele>664.7142857142858</ele><time>2026-03-28T10:06:37.506Z</time></trkpt><trkpt lat="40.9406583" lon="15.48666"><ele>664.5714285714286</ele><time>2026-03-28T10:06:38.505Z</time></trkpt><trkpt lat="40.9405917" lon="15.486695"><ele>664.4285714285714</ele><time>2026-03-28T10:06:39.506Z</time></trkpt><trkpt lat="40.94053" lon="15.4867267"><ele>664.2857142857143</ele><time>2026-03-28T10:06:40.506Z</time></trkpt><trkpt lat="40.94046" lon="15.486775"><ele>664.1428571428571</ele><time>2026-03-28T10:06:41.506Z</time></trkpt><trkpt lat="40.940395" lon="15.4868417"><ele>664.0</ele><time>2026-03-28T10:06:42.505Z</time></trkpt><trkpt lat="40.940325" lon="15.4869217"><ele>664.0</ele><time>2026-03-28T10:06:43.505Z</time></trkpt><trkpt lat="40.9402583" lon="15.4869883"><ele>664.0</ele><time>2026-03-28T10:06:44.506Z</time></trkpt><trkpt lat="40.940195" lon="15.4870433"><ele>664.0</ele><time>2026-03-28T10:06:45.506Z</time></trkpt><trkpt lat="40.9401283" lon="15.4870983"><ele>664.0</ele><time>2026-03-28T10:06:46.506Z</time></trkpt><trkpt lat="40.9400483" lon="15.4871617"><ele>664.0</ele><time>2026-03-28T10:06:47.506Z</time></trkpt><trkpt lat="40.9399783" lon="15.4872383"><ele>664.0</ele><time>2026-03-28T10:06:48.505Z</time></trkpt><trkpt lat="40.9399067" lon="15.4873133"><ele>664.1666666666667</ele><time>2026-03-28T10:06:49.506Z</time></trkpt><trkpt lat="40.9398383" lon="15.487385"><ele>664.3333333333334</ele><time>2026-03-28T10:06:50.505Z</time></trkpt><trkpt lat="40.939775" lon="15.48746"><ele>664.5</ele><time>2026-03-28T10:06:51.506Z</time></trkpt><trkpt lat="40.939715" lon="15.487535"><ele>664.6666666666666</ele><time>2026-03-28T10:06:52.506Z</time></trkpt><trkpt lat="40.939665" lon="15.4876117"><ele>664.8333333333333</ele><time>2026-03-28T10:06:53.505Z</time></trkpt><trkpt lat="40.9396083" lon="15.4876967"><ele>665.0</ele><time>2026-03-28T10:06:54.506Z</time></trkpt><trkpt lat="40.93956" lon="15.4877833"><ele>665.0</ele><time>2026-03-28T10:06:55.505Z</time></trkpt><trkpt lat="40.9395133" lon="15.4878683"><ele>665.0</ele><time>2026-03-28T10:06:56.505Z</time></trkpt><trkpt lat="40.9394633" lon="15.4879633"><ele>665.0</ele><time>2026-03-28T10:06:57.506Z</time></trkpt><trkpt lat="40.9394167" lon="15.4880483"><ele>665.0</ele><time>2026-03-28T10:06:58.506Z</time></trkpt><trkpt lat="40.9393717" lon="15.4881283"><ele>665.0</ele><time>2026-03-28T10:06:59.505Z</time></trkpt><trkpt lat="40.9393367" lon="15.4882033"><ele>665.0</ele><time>2026-03-28T10:07:00.506Z</time></trkpt><trkpt lat="40.9392967" lon="15.4882783"><ele>665.0</ele><time>2026-03-28T10:07:01.506Z</time></trkpt><trkpt lat="40.9392283" lon="15.4884083"><ele>665.0</ele><time>2026-03-28T10:07:03.506Z</time></trkpt><trkpt lat="40.9391583" lon="15.4885167"><ele>665.0</ele><time>2026-03-28T10:07:05.505Z</time></trkpt><trkpt lat="40.9390883" lon="15.488625"><ele>665.0</ele><time>2026-03-28T10:07:07.505Z</time></trkpt><trkpt lat="40.939025" lon="15.48873"><ele>665.0</ele><time>2026-03-28T10:07:09.505Z</time></trkpt><trkpt lat="40.9389717" lon="15.4888767"><ele>662.3333333333333</ele><time>2026-03-28T10:07:11.506Z</time></trkpt><trkpt lat="40.93895" lon="15.4889683"><ele>659.6666666666666</ele><time>2026-03-28T10:07:12.506Z</time></trkpt><trkpt lat="40.9389283" lon="15.4890683"><ele>657.0</ele><time>2026-03-28T10:07:13.505Z</time></trkpt><trkpt lat="40.938905" lon="15.48916"><ele>654.3333333333334</ele><time>2026-03-28T10:07:14.505Z</time></trkpt><trkpt lat="40.93888" lon="15.489255"><ele>651.6666666666667</ele><time>2026-03-28T10:07:15.506Z</time></trkpt><trkpt lat="40.9388583" lon="15.4893567"><ele>649.0</ele><time>2026-03-28T10:07:16.505Z</time></trkpt><trkpt lat="40.93883" lon="15.4894533"><ele>649.0</ele><time>2026-03-28T10:07:17.505Z</time></trkpt><trkpt lat="40.9388083" lon="15.4895433"><ele>649.0</ele><time>2026-03-28T10:07:18.505Z</time></trkpt><trkpt lat="40.9387933" lon="15.4896333"><ele>649.0</ele><time>2026-03-28T10:07:19.505Z</time></trkpt><trkpt lat="40.9387717" lon="15.4897167"><ele>649.0</ele><time>2026-03-28T10:07:20.506Z</time></trkpt><trkpt lat="40.9387617" lon="15.4898017"><ele>649.0</ele><time>2026-03-28T10:07:21.505Z</time></trkpt><trkpt lat="40.938785" lon="15.489965"><ele>649.0</ele><time>2026-03-28T10:07:23.506Z</time></trkpt><trkpt lat="40.9388083" lon="15.49006"><ele>647.1666666666667</ele><time>2026-03-28T10:07:24.506Z</time></trkpt><trkpt lat="40.9388417" lon="15.4901583"><ele>645.3333333333334</ele><time>2026-03-28T10:07:25.506Z</time></trkpt><trkpt lat="40.93888" lon="15.490255"><ele>643.5</ele><time>2026-03-28T10:07:26.505Z</time></trkpt><trkpt lat="40.9389183" lon="15.490365"><ele>641.6666666666666</ele><time>2026-03-28T10:07:27.506Z</time></trkpt><trkpt lat="40.938955" lon="15.4904733"><ele>639.8333333333333</ele><time>2026-03-28T10:07:28.506Z</time></trkpt><trkpt lat="40.9389817" lon="15.4905733"><ele>638.0</ele><time>2026-03-28T10:07:29.506Z</time></trkpt><trkpt lat="40.9390017" lon="15.4906633"><ele>635.6666666666666</ele><time>2026-03-28T10:07:30.506Z</time></trkpt><trkpt lat="40.9390167" lon="15.490755"><ele>633.3333333333333</ele><time>2026-03-28T10:07:31.506Z</time></trkpt><trkpt lat="40.9390333" lon="15.4908483"><ele>631.0</ele><time>2026-03-28T10:07:32.505Z</time></trkpt><trkpt lat="40.9390483" lon="15.4909433"><ele>628.6666666666666</ele><time>2026-03-28T10:07:33.506Z</time></trkpt><trkpt lat="40.93906" lon="15.49105"><ele>626.3333333333334</ele><time>2026-03-28T10:07:34.505Z</time></trkpt><trkpt lat="40.9390783" lon="15.49117"><ele>624.0</ele><time>2026-03-28T10:07:35.505Z</time></trkpt><trkpt lat="40.9390933" lon="15.4912917"><ele>621.6</ele><time>2026-03-28T10:07:36.505Z</time></trkpt><trkpt lat="40.9391017" lon="15.491415"><ele>619.2</ele><time>2026-03-28T10:07:37.505Z</time></trkpt><trkpt lat="40.9391117" lon="15.491535"><ele>616.8000000000001</ele><time>2026-03-28T10:07:38.505Z</time></trkpt><trkpt lat="40.93912" lon="15.491655"><ele>614.4</ele><time>2026-03-28T10:07:39.506Z</time></trkpt><trkpt lat="40.9391267" lon="15.4917733"><ele>612.0</ele><time>2026-03-28T10:07:40.506Z</time></trkpt><trkpt lat="40.9391283" lon="15.4918867"><ele>612.0</ele><time>2026-03-28T10:07:41.505Z</time></trkpt><trkpt lat="40.9391317" lon="15.4920017"><ele>612.0</ele><time>2026-03-28T10:07:42.505Z</time></trkpt><trkpt lat="40.9391233" lon="15.4921183"><ele>612.0</ele><time>2026-03-28T10:07:43.506Z</time></trkpt><trkpt lat="40.939115" lon="15.4922283"><ele>612.0</ele><time>2026-03-28T10:07:44.505Z</time></trkpt><trkpt lat="40.9391033" lon="15.4923367"><ele>612.0</ele><time>2026-03-28T10:07:45.506Z</time></trkpt><trkpt lat="40.9390967" lon="15.4924467"><ele>612.0</ele><time>2026-03-28T10:07:46.506Z</time></trkpt><trkpt lat="40.9390983" lon="15.49255"><ele>610.8333333333334</ele><time>2026-03-28T10:07:47.506Z</time></trkpt><trkpt lat="40.9391083" lon="15.492655"><ele>609.6666666666666</ele><time>2026-03-28T10:07:48.505Z</time></trkpt><trkpt lat="40.93911" lon="15.4927633"><ele>608.5</ele><time>2026-03-28T10:07:49.505Z</time></trkpt><trkpt lat="40.93911" lon="15.4928717"><ele>607.3333333333333</ele><time>2026-03-28T10:07:50.505Z</time></trkpt><trkpt lat="40.9391133" lon="15.4929717"><ele>606.1666666666666</ele><time>2026-03-28T10:07:51.506Z</time></trkpt><trkpt lat="40.93912" lon="15.4930767"><ele>605.0</ele><time>2026-03-28T10:07:52.505Z</time></trkpt><trkpt lat="40.9391233" lon="15.493175"><ele>603.1666666666666</ele><time>2026-03-28T10:07:53.505Z</time></trkpt><trkpt lat="40.939115" lon="15.493275"><ele>601.3333333333333</ele><time>2026-03-28T10:07:54.505Z</time></trkpt><trkpt lat="40.9391017" lon="15.4933833"><ele>599.5</ele><time>2026-03-28T10:07:55.505Z</time></trkpt><trkpt lat="40.939075" lon="15.4934867"><ele>597.6666666666666</ele><time>2026-03-28T10:07:56.505Z</time></trkpt><trkpt lat="40.9390367" lon="15.4935983"><ele>595.8333333333334</ele><time>2026-03-28T10:07:57.506Z</time></trkpt><trkpt lat="40.9389983" lon="15.493715"><ele>594.0</ele><time>2026-03-28T10:07:58.505Z</time></trkpt><trkpt lat="40.9389633" lon="15.4938367"><ele>592.4</ele><time>2026-03-28T10:07:59.506Z</time></trkpt><trkpt lat="40.938935" lon="15.4939533"><ele>590.8</ele><time>2026-03-28T10:08:00.506Z</time></trkpt><trkpt lat="40.9389" lon="15.4940717"><ele>589.2</ele><time>2026-03-28T10:08:01.506Z</time></trkpt><trkpt lat="40.9388483" lon="15.4941917"><ele>587.6</ele><time>2026-03-28T10:08:02.506Z</time></trkpt><trkpt lat="40.9387817" lon="15.494315"><ele>586.0</ele><time>2026-03-28T10:08:03.506Z</time></trkpt><trkpt lat="40.9387133" lon="15.4944317"><ele>586.0</ele><time>2026-03-28T10:08:04.506Z</time></trkpt><trkpt lat="40.9386433" lon="15.4945467"><ele>586.0</ele><time>2026-03-28T10:08:05.506Z</time></trkpt><trkpt lat="40.93858" lon="15.4946483"><ele>586.0</ele><time>2026-03-28T10:08:06.506Z</time></trkpt><trkpt lat="40.9385333" lon="15.4947467"><ele>586.0</ele><time>2026-03-28T10:08:07.505Z</time></trkpt><trkpt lat="40.938495" lon="15.4948383"><ele>586.0</ele><time>2026-03-28T10:08:08.505Z</time></trkpt><trkpt lat="40.938465" lon="15.494945"><ele>585.1666666666667</ele><time>2026-03-28T10:08:09.506Z</time></trkpt><trkpt lat="40.938435" lon="15.49505"><ele>584.3333333333334</ele><time>2026-03-28T10:08:10.506Z</time></trkpt><trkpt lat="40.93841" lon="15.49515"><ele>583.5</ele><time>2026-03-28T10:08:11.506Z</time></trkpt><trkpt lat="40.9383867" lon="15.4952433"><ele>582.6666666666666</ele><time>2026-03-28T10:08:12.506Z</time></trkpt><trkpt lat="40.9383683" lon="15.4953267"><ele>581.8333333333333</ele><time>2026-03-28T10:08:13.505Z</time></trkpt><trkpt lat="40.93835" lon="15.495455"><ele>581.0</ele><time>2026-03-28T10:08:15.505Z</time></trkpt><trkpt lat="40.9383883" lon="15.4955233"><ele>580.2</ele><time>2026-03-28T10:08:17.506Z</time></trkpt><trkpt lat="40.9384617" lon="15.4955667"><ele>579.4000000000001</ele><time>2026-03-28T10:08:19.506Z</time></trkpt><trkpt lat="40.9385633" lon="15.49561"><ele>578.6</ele><time>2026-03-28T10:08:21.506Z</time></trkpt><trkpt lat="40.9386717" lon="15.49565"><ele>577.8000000000001</ele><time>2026-03-28T10:08:23.505Z</time></trkpt><trkpt lat="40.9387917" lon="15.4956867"><ele>577.0</ele><time>2026-03-28T10:08:25.505Z</time></trkpt><trkpt lat="40.938905" lon="15.49572"><ele>577.0</ele><time>2026-03-28T10:08:27.506Z</time></trkpt><trkpt lat="40.9389667" lon="15.4957383"><ele>577.0</ele><time>2026-03-28T10:08:28.506Z</time></trkpt><trkpt lat="40.939085" lon="15.4957717"><ele>577.0</ele><time>2026-03-28T10:08:30.505Z</time></trkpt><trkpt lat="40.93919" lon="15.4958067"><ele>577.0</ele><time>2026-03-28T10:08:32.505Z</time></trkpt><trkpt lat="40.93931" lon="15.4958533"><ele>577.0</ele><time>2026-03-28T10:08:34.506Z</time></trkpt><trkpt lat="40.939425" lon="15.4958917"><ele>576.4</ele><time>2026-03-28T10:08:36.505Z</time></trkpt><trkpt lat="40.939545" lon="15.4959267"><ele>575.8000000000001</ele><time>2026-03-28T10:08:38.505Z</time></trkpt><trkpt lat="40.9396117" lon="15.4959433"><ele>575.2</ele><time>2026-03-28T10:08:39.505Z</time></trkpt><trkpt lat="40.9397367" lon="15.4959833"><ele>574.6</ele><time>2026-03-28T10:08:41.506Z</time></trkpt><trkpt lat="40.9398" lon="15.496"><ele>574.0</ele><time>2026-03-28T10:08:42.506Z</time></trkpt><trkpt lat="40.9399133" lon="15.496035"><ele>574.0</ele><time>2026-03-28T10:08:44.506Z</time></trkpt><trkpt lat="40.9400317" lon="15.4960767"><ele>574.0</ele><time>2026-03-28T10:08:46.505Z</time></trkpt><trkpt lat="40.9401517" lon="15.4961117"><ele>574.0</ele><time>2026-03-28T10:08:48.505Z</time></trkpt><trkpt lat="40.9402683" lon="15.4961533"><ele>574.0</ele><time>2026-03-28T10:08:50.505Z</time></trkpt><trkpt lat="40.94033" lon="15.4961733"><ele>574.0</ele><time>2026-03-28T10:08:51.505Z</time></trkpt><trkpt lat="40.9403933" lon="15.496195"><ele>574.1428571428571</ele><time>2026-03-28T10:08:52.506Z</time></trkpt><trkpt lat="40.9404567" lon="15.496215"><ele>574.2857142857142</ele><time>2026-03-28T10:08:53.505Z</time></trkpt><trkpt lat="40.9405183" lon="15.49624"><ele>574.4285714285714</ele><time>2026-03-28T10:08:54.506Z</time></trkpt><trkpt lat="40.94058" lon="15.49626"><ele>574.5714285714286</ele><time>2026-03-28T10:08:55.506Z</time></trkpt><trkpt lat="40.9406417" lon="15.4962767"><ele>574.7142857142857</ele><time>2026-03-28T10:08:56.506Z</time></trkpt><trkpt lat="40.9407067" lon="15.4963"><ele>574.8571428571429</ele><time>2026-03-28T10:08:57.506Z</time></trkpt><trkpt lat="40.9408217" lon="15.4963383"><ele>575.0</ele><time>2026-03-28T10:08:59.506Z</time></trkpt><trkpt lat="40.9408833" lon="15.4963567"><ele>571.8571428571429</ele><time>2026-03-28T10:09:00.506Z</time></trkpt><trkpt lat="40.9409533" lon="15.4963717"><ele>568.7142857142857</ele><time>2026-03-28T10:09:01.505Z</time></trkpt><trkpt lat="40.9410267" lon="15.496375"><ele>565.5714285714286</ele><time>2026-03-28T10:09:02.506Z</time></trkpt><trkpt lat="40.9410967" lon="15.4963767"><ele>562.4285714285714</ele><time>2026-03-28T10:09:03.505Z</time></trkpt><trkpt lat="40.941165" lon="15.4963667"><ele>559.2857142857142</ele><time>2026-03-28T10:09:04.506Z</time></trkpt><trkpt lat="40.941235" lon="15.4963633"><ele>556.1428571428571</ele><time>2026-03-28T10:09:05.505Z</time></trkpt><trkpt lat="40.941305" lon="15.496365"><ele>553.0</ele><time>2026-03-28T10:09:06.506Z</time></trkpt><trkpt lat="40.9414267" lon="15.4963417"><ele>553.0</ele><time>2026-03-28T10:09:08.506Z</time></trkpt><trkpt lat="40.9414933" lon="15.496315"><ele>553.0</ele><time>2026-03-28T10:09:09.506Z</time></trkpt><trkpt lat="40.9416133" lon="15.4962617"><ele>553.0</ele><time>2026-03-28T10:09:11.506Z</time></trkpt><trkpt lat="40.9416783" lon="15.496225"><ele>553.0</ele><time>2026-03-28T10:09:12.506Z</time></trkpt><trkpt lat="40.9417483" lon="15.4961867"><ele>553.0</ele><time>2026-03-28T10:09:13.506Z</time></trkpt><trkpt lat="40.941825" lon="15.4961283"><ele>553.0</ele><time>2026-03-28T10:09:14.506Z</time></trkpt><trkpt lat="40.9419" lon="15.496065"><ele>553.1666666666667</ele><time>2026-03-28T10:09:15.506Z</time></trkpt><trkpt lat="40.9419767" lon="15.4960067"><ele>553.3333333333334</ele><time>2026-03-28T10:09:16.505Z</time></trkpt><trkpt lat="40.94205" lon="15.4959483"><ele>553.5</ele><time>2026-03-28T10:09:17.506Z</time></trkpt><trkpt lat="40.9421033" lon="15.4958967"><ele>553.6666666666666</ele><time>2026-03-28T10:09:18.506Z</time></trkpt><trkpt lat="40.9421683" lon="15.4958433"><ele>553.8333333333333</ele><time>2026-03-28T10:09:19.507Z</time></trkpt><trkpt lat="40.9422417" lon="15.4957833"><ele>554.0</ele><time>2026-03-28T10:09:20.507Z</time></trkpt><trkpt lat="40.942305" lon="15.49573"><ele>554.0</ele><time>2026-03-28T10:09:21.507Z</time></trkpt><trkpt lat="40.942375" lon="15.49568"><ele>554.0</ele><time>2026-03-28T10:09:22.506Z</time></trkpt><trkpt lat="40.942445" lon="15.4956283"><ele>554.0</ele><time>2026-03-28T10:09:23.507Z</time></trkpt><trkpt lat="40.94251" lon="15.4955817"><ele>554.0</ele><time>2026-03-28T10:09:24.506Z</time></trkpt><trkpt lat="40.942575" lon="15.4955383"><ele>554.0</ele><time>2026-03-28T10:09:25.506Z</time></trkpt><trkpt lat="40.9426483" lon="15.495485"><ele>554.0</ele><time>2026-03-28T10:09:26.506Z</time></trkpt><trkpt lat="40.9427233" lon="15.495435"><ele>553.6666666666666</ele><time>2026-03-28T10:09:27.507Z</time></trkpt><trkpt lat="40.9427883" lon="15.4953967"><ele>553.3333333333333</ele><time>2026-03-28T10:09:28.507Z</time></trkpt><trkpt lat="40.9428567" lon="15.4953517"><ele>553.0</ele><time>2026-03-28T10:09:29.507Z</time></trkpt><trkpt lat="40.94293" lon="15.4953083"><ele>552.6666666666666</ele><time>2026-03-28T10:09:30.506Z</time></trkpt><trkpt lat="40.943" lon="15.4952633"><ele>552.3333333333334</ele><time>2026-03-28T10:09:31.506Z</time></trkpt><trkpt lat="40.9430783" lon="15.4952083"><ele>552.0</ele><time>2026-03-28T10:09:32.506Z</time></trkpt><trkpt lat="40.9431433" lon="15.495165"><ele>552.0</ele><time>2026-03-28T10:09:33.506Z</time></trkpt><trkpt lat="40.943225" lon="15.4951117"><ele>552.0</ele><time>2026-03-28T10:09:34.507Z</time></trkpt><trkpt lat="40.9433033" lon="15.4950617"><ele>552.0</ele><time>2026-03-28T10:09:35.506Z</time></trkpt><trkpt lat="40.9433783" lon="15.4950217"><ele>552.0</ele><time>2026-03-28T10:09:36.506Z</time></trkpt><trkpt lat="40.9434567" lon="15.4949817"><ele>552.0</ele><time>2026-03-28T10:09:37.507Z</time></trkpt><trkpt lat="40.9435367" lon="15.4949433"><ele>552.0</ele><time>2026-03-28T10:09:38.507Z</time></trkpt><trkpt lat="40.9436117" lon="15.4949017"><ele>549.8333333333334</ele><time>2026-03-28T10:09:39.506Z</time></trkpt><trkpt lat="40.9436817" lon="15.494865"><ele>547.6666666666666</ele><time>2026-03-28T10:09:40.506Z</time></trkpt><trkpt lat="40.943755" lon="15.4948217"><ele>545.5</ele><time>2026-03-28T10:09:41.506Z</time></trkpt><trkpt lat="40.9438383" lon="15.4947717"><ele>543.3333333333333</ele><time>2026-03-28T10:09:42.507Z</time></trkpt><trkpt lat="40.9439233" lon="15.4947217"><ele>541.1666666666666</ele><time>2026-03-28T10:09:43.506Z</time></trkpt><trkpt lat="40.94401" lon="15.494665"><ele>539.0</ele><time>2026-03-28T10:09:44.507Z</time></trkpt><trkpt lat="40.9440867" lon="15.4946267"><ele>539.0</ele><time>2026-03-28T10:09:45.506Z</time></trkpt><trkpt lat="40.9441517" lon="15.49459"><ele>539.0</ele><time>2026-03-28T10:09:46.507Z</time></trkpt><trkpt lat="40.9442233" lon="15.4945517"><ele>539.0</ele><time>2026-03-28T10:09:47.507Z</time></trkpt><trkpt lat="40.944295" lon="15.49451"><ele>539.0</ele><time>2026-03-28T10:09:48.506Z</time></trkpt><trkpt lat="40.9443667" lon="15.4944667"><ele>539.0</ele><time>2026-03-28T10:09:49.507Z</time></trkpt><trkpt lat="40.9444333" lon="15.4944283"><ele>539.0</ele><time>2026-03-28T10:09:50.506Z</time></trkpt><trkpt lat="40.9445033" lon="15.4943883"><ele>539.3333333333333</ele><time>2026-03-28T10:09:51.507Z</time></trkpt><trkpt lat="40.9445767" lon="15.494345"><ele>539.6666666666666</ele><time>2026-03-28T10:09:52.506Z</time></trkpt><trkpt lat="40.9446533" lon="15.4942983"><ele>540.0</ele><time>2026-03-28T10:09:53.507Z</time></trkpt><trkpt lat="40.9447283" lon="15.4942383"><ele>540.3333333333334</ele><time>2026-03-28T10:09:54.506Z</time></trkpt><trkpt lat="40.9448067" lon="15.494185"><ele>540.6666666666667</ele><time>2026-03-28T10:09:55.507Z</time></trkpt><trkpt lat="40.94489" lon="15.4941367"><ele>541.0</ele><time>2026-03-28T10:09:56.507Z</time></trkpt><trkpt lat="40.9449667" lon="15.4940967"><ele>541.0</ele><time>2026-03-28T10:09:57.507Z</time></trkpt><trkpt lat="40.94504" lon="15.494055"><ele>541.0</ele><time>2026-03-28T10:09:58.506Z</time></trkpt><trkpt lat="40.9451233" lon="15.49401"><ele>541.0</ele><time>2026-03-28T10:09:59.507Z</time></trkpt><trkpt lat="40.9452017" lon="15.4939617"><ele>541.0</ele><time>2026-03-28T10:10:00.507Z</time></trkpt><trkpt lat="40.9452817" lon="15.4939167"><ele>541.0</ele><time>2026-03-28T10:10:01.506Z</time></trkpt><trkpt lat="40.945365" lon="15.4938833"><ele>541.0</ele><time>2026-03-28T10:10:02.506Z</time></trkpt><trkpt lat="40.94545" lon="15.493835"><ele>541.5</ele><time>2026-03-28T10:10:03.506Z</time></trkpt><trkpt lat="40.94553" lon="15.493795"><ele>542.0</ele><time>2026-03-28T10:10:04.506Z</time></trkpt><trkpt lat="40.9456067" lon="15.4937517"><ele>542.5</ele><time>2026-03-28T10:10:05.507Z</time></trkpt><trkpt lat="40.9456933" lon="15.4937167"><ele>543.0</ele><time>2026-03-28T10:10:06.507Z</time></trkpt><trkpt lat="40.9457683" lon="15.4936833"><ele>543.5</ele><time>2026-03-28T10:10:07.506Z</time></trkpt><trkpt lat="40.94584" lon="15.49364"><ele>544.0</ele><time>2026-03-28T10:10:08.507Z</time></trkpt><trkpt lat="40.94591" lon="15.4936017"><ele>542.5</ele><time>2026-03-28T10:10:09.506Z</time></trkpt><trkpt lat="40.945975" lon="15.4935667"><ele>541.0</ele><time>2026-03-28T10:10:10.507Z</time></trkpt><trkpt lat="40.9460383" lon="15.493535"><ele>539.5</ele><time>2026-03-28T10:10:11.507Z</time></trkpt><trkpt lat="40.9461133" lon="15.4934917"><ele>538.0</ele><time>2026-03-28T10:10:12.507Z</time></trkpt><trkpt lat="40.94619" lon="15.49345"><ele>536.5</ele><time>2026-03-28T10:10:13.507Z</time></trkpt><trkpt lat="40.9462733" lon="15.4934067"><ele>535.0</ele><time>2026-03-28T10:10:14.506Z</time></trkpt><trkpt lat="40.946345" lon="15.49337"><ele>535.0</ele><time>2026-03-28T10:10:15.506Z</time></trkpt><trkpt lat="40.9464267" lon="15.4933333"><ele>535.0</ele><time>2026-03-28T10:10:16.506Z</time></trkpt><trkpt lat="40.9465033" lon="15.4932983"><ele>535.0</ele><time>2026-03-28T10:10:17.507Z</time></trkpt><trkpt lat="40.9465783" lon="15.4932567"><ele>535.0</ele><time>2026-03-28T10:10:18.507Z</time></trkpt><trkpt lat="40.9466533" lon="15.49321"><ele>535.0</ele><time>2026-03-28T10:10:19.506Z</time></trkpt><trkpt lat="40.94673" lon="15.493165"><ele>535.0</ele><time>2026-03-28T10:10:20.506Z</time></trkpt><trkpt lat="40.9468117" lon="15.4931167"><ele>532.4</ele><time>2026-03-28T10:10:21.507Z</time></trkpt><trkpt lat="40.9469033" lon="15.49307"><ele>529.8</ele><time>2026-03-28T10:10:22.506Z</time></trkpt><trkpt lat="40.946985" lon="15.493025"><ele>527.2</ele><time>2026-03-28T10:10:23.506Z</time></trkpt><trkpt lat="40.94707" lon="15.4929967"><ele>524.6</ele><time>2026-03-28T10:10:24.506Z</time></trkpt><trkpt lat="40.9471517" lon="15.4929633"><ele>522.0</ele><time>2026-03-28T10:10:25.507Z</time></trkpt><trkpt lat="40.9472383" lon="15.492925"><ele>523.8333333333334</ele><time>2026-03-28T10:10:26.507Z</time></trkpt><trkpt lat="40.9473217" lon="15.4929"><ele>525.6666666666666</ele><time>2026-03-28T10:10:27.507Z</time></trkpt><trkpt lat="40.9474017" lon="15.492875"><ele>527.5</ele><time>2026-03-28T10:10:28.506Z</time></trkpt><trkpt lat="40.9474883" lon="15.4928517"><ele>529.3333333333333</ele><time>2026-03-28T10:10:29.507Z</time></trkpt><trkpt lat="40.94757" lon="15.4928267"><ele>531.1666666666666</ele><time>2026-03-28T10:10:30.507Z</time></trkpt><trkpt lat="40.9476583" lon="15.4928017"><ele>533.0</ele><time>2026-03-28T10:10:31.506Z</time></trkpt><trkpt lat="40.9477433" lon="15.4927767"><ele>533.0</ele><time>2026-03-28T10:10:32.507Z</time></trkpt><trkpt lat="40.9478217" lon="15.4927583"><ele>533.0</ele><time>2026-03-28T10:10:33.506Z</time></trkpt><trkpt lat="40.9478983" lon="15.4927383"><ele>533.0</ele><time>2026-03-28T10:10:34.507Z</time></trkpt><trkpt lat="40.94797" lon="15.4927233"><ele>533.0</ele><time>2026-03-28T10:10:35.507Z</time></trkpt><trkpt lat="40.9480433" lon="15.4927"><ele>533.0</ele><time>2026-03-28T10:10:36.507Z</time></trkpt><trkpt lat="40.9481067" lon="15.4926767"><ele>533.0</ele><time>2026-03-28T10:10:37.507Z</time></trkpt><trkpt lat="40.9481683" lon="15.4926583"><ele>533.0</ele><time>2026-03-28T10:10:38.507Z</time></trkpt><trkpt lat="40.9482533" lon="15.4926317"><ele>533.0</ele><time>2026-03-28T10:10:40.507Z</time></trkpt><trkpt lat="40.948325" lon="15.492625"><ele>533.0</ele><time>2026-03-28T10:10:42.506Z</time></trkpt><trkpt lat="40.94834" lon="15.4927067"><ele>533.0</ele><time>2026-03-28T10:10:47.507Z</time></trkpt><trkpt lat="40.9482683" lon="15.492765"><ele>533.0</ele><time>2026-03-28T10:10:50.507Z</time></trkpt><trkpt lat="40.9481817" lon="15.4928333"><ele>533.0</ele><time>2026-03-28T10:10:52.507Z</time></trkpt><trkpt lat="40.9480917" lon="15.4928983"><ele>533.0</ele><time>2026-03-28T10:10:54.506Z</time></trkpt><trkpt lat="40.9479917" lon="15.4929617"><ele>530.0</ele><time>2026-03-28T10:10:56.507Z</time></trkpt><trkpt lat="40.9479133" lon="15.493015"><ele>527.0</ele><time>2026-03-28T10:10:58.507Z</time></trkpt><trkpt lat="40.9478483" lon="15.4930783"><ele>524.0</ele><time>2026-03-28T10:11:00.507Z</time></trkpt><trkpt lat="40.9477983" lon="15.493135"><ele>521.0</ele><time>2026-03-28T10:11:02.507Z</time></trkpt><trkpt lat="40.94773" lon="15.4931967"><ele>518.0</ele><time>2026-03-28T10:11:05.506Z</time></trkpt><trkpt lat="40.9476433" lon="15.4932517"><ele>515.0</ele><time>2026-03-28T10:11:08.506Z</time></trkpt><trkpt lat="40.9475683" lon="15.4933017"><ele>516.1666666666666</ele><time>2026-03-28T10:11:10.507Z</time></trkpt><trkpt lat="40.947505" lon="15.49334"><ele>517.3333333333333</ele><time>2026-03-28T10:11:12.506Z</time></trkpt><trkpt lat="40.9474217" lon="15.49337"><ele>518.5</ele><time>2026-03-28T10:11:15.507Z</time></trkpt><trkpt lat="40.9473283" lon="15.4933633"><ele>519.6666666666666</ele><time>2026-03-28T10:11:18.507Z</time></trkpt><trkpt lat="40.9472633" lon="15.4933717"><ele>520.8333333333334</ele><time>2026-03-28T10:11:21.507Z</time></trkpt><trkpt lat="40.9472133" lon="15.4934883"><ele>522.0</ele><time>2026-03-28T10:12:18.507Z</time></trkpt><trkpt lat="40.9472583" lon="15.493375"><ele>522.0</ele><time>2026-03-28T10:13:24.506Z</time></trkpt><trkpt lat="40.9471917" lon="15.4934083"><ele>522.0</ele><time>2026-03-28T10:19:32.509Z</time></trkpt><trkpt lat="40.9472443" lon="15.4933422"><ele>522.0</ele><time>2026-03-28T10:19:33.575Z</time></trkpt><trkpt lat="40.9471858" lon="15.4933992"><ele>522.0</ele><time>2026-03-28T10:19:41.509Z</time></trkpt><trkpt lat="40.947094" lon="15.4934068"><ele>522.0</ele><time>2026-03-28T10:21:39.529Z</time></trkpt><trkpt lat="40.9471523" lon="15.4934559"><ele>522.0</ele><time>2026-03-28T10:28:34.546Z</time></trkpt><trkpt lat="40.9471167" lon="15.4933774"><ele>522.0</ele><time>2026-03-28T10:34:04.512Z</time></trkpt><trkpt lat="40.9472193" lon="15.493386"><ele>522.0</ele><time>2026-03-28T11:03:14.517Z</time></trkpt><trkpt lat="40.9471554" lon="15.4934105"><ele>522.0</ele><time>2026-03-28T11:10:57.519Z</time></trkpt><trkpt lat="40.9472194" lon="15.4933864"><ele>522.0</ele><time>2026-03-28T11:12:00.547Z</time></trkpt><trkpt lat="40.947196" lon="15.4934709"><ele>522.0</ele><time>2026-03-28T11:14:05.521Z</time></trkpt><trkpt lat="40.947239" lon="15.4933998"><ele>522.0</ele><time>2026-03-28T11:17:08.567Z</time></trkpt><trkpt lat="40.94718" lon="15.49343"><ele>522.0</ele><time>2026-03-28T11:22:12.522Z</time></trkpt><trkpt lat="40.9472333" lon="15.4934767"><ele>522.0</ele><time>2026-03-28T11:22:16.522Z</time></trkpt><trkpt lat="40.947315" lon="15.4934417"><ele>522.0</ele><time>2026-03-28T11:22:20.523Z</time></trkpt><trkpt lat="40.9473767" lon="15.493375"><ele>522.0</ele><time>2026-03-28T11:22:22.522Z</time></trkpt><trkpt lat="40.9474333" lon="15.4933233"><ele>522.0</ele><time>2026-03-28T11:22:24.523Z</time></trkpt><trkpt lat="40.9474983" lon="15.493285"><ele>522.0</ele><time>2026-03-28T11:22:26.522Z</time></trkpt><trkpt lat="40.947565" lon="15.49325"><ele>522.0</ele><time>2026-03-28T11:22:28.523Z</time></trkpt><trkpt lat="40.9476383" lon="15.4932083"><ele>522.0</ele><time>2026-03-28T11:22:30.522Z</time></trkpt><trkpt lat="40.947715" lon="15.493165"><ele>520.6</ele><time>2026-03-28T11:22:32.522Z</time></trkpt><trkpt lat="40.947785" lon="15.4931117"><ele>519.2</ele><time>2026-03-28T11:22:34.523Z</time></trkpt><trkpt lat="40.9478617" lon="15.49304"><ele>517.8</ele><time>2026-03-28T11:22:36.522Z</time></trkpt><trkpt lat="40.9479417" lon="15.4929883"><ele>516.4</ele><time>2026-03-28T11:22:38.523Z</time></trkpt><trkpt lat="40.9480333" lon="15.4929267"><ele>515.0</ele><time>2026-03-28T11:22:40.522Z</time></trkpt><trkpt lat="40.9481183" lon="15.49286"><ele>518.0</ele><time>2026-03-28T11:22:42.522Z</time></trkpt><trkpt lat="40.9482" lon="15.4928033"><ele>521.0</ele><time>2026-03-28T11:22:44.523Z</time></trkpt><trkpt lat="40.948275" lon="15.49274"><ele>524.0</ele><time>2026-03-28T11:22:46.523Z</time></trkpt><trkpt lat="40.948315" lon="15.492675"><ele>527.0</ele><time>2026-03-28T11:22:48.522Z</time></trkpt><trkpt lat="40.94825" lon="15.49266"><ele>530.0</ele><time>2026-03-28T11:22:55.522Z</time></trkpt><trkpt lat="40.94817" lon="15.4926883"><ele>533.0</ele><time>2026-03-28T11:22:57.523Z</time></trkpt><trkpt lat="40.9480667" lon="15.4927183"><ele>533.0</ele><time>2026-03-28T11:22:59.523Z</time></trkpt><trkpt lat="40.948" lon="15.4927367"><ele>533.0</ele><time>2026-03-28T11:23:00.523Z</time></trkpt><trkpt lat="40.9479367" lon="15.4927517"><ele>533.0</ele><time>2026-03-28T11:23:01.522Z</time></trkpt><trkpt lat="40.94787" lon="15.4927667"><ele>533.0</ele><time>2026-03-28T11:23:02.523Z</time></trkpt><trkpt lat="40.94775" lon="15.492795"><ele>533.0</ele><time>2026-03-28T11:23:04.523Z</time></trkpt><trkpt lat="40.947685" lon="15.4928117"><ele>533.0</ele><time>2026-03-28T11:23:05.522Z</time></trkpt><trkpt lat="40.9476167" lon="15.492825"><ele>533.0</ele><time>2026-03-28T11:23:06.523Z</time></trkpt><trkpt lat="40.9475483" lon="15.4928483"><ele>533.0</ele><time>2026-03-28T11:23:07.523Z</time></trkpt><trkpt lat="40.947415" lon="15.4928633"><ele>533.0</ele><time>2026-03-28T11:23:09.523Z</time></trkpt><trkpt lat="40.9473433" lon="15.492885"><ele>533.0</ele><time>2026-03-28T11:23:10.523Z</time></trkpt><trkpt lat="40.9472783" lon="15.4929083"><ele>533.0</ele><time>2026-03-28T11:23:11.523Z</time></trkpt><trkpt lat="40.94721" lon="15.49293"><ele>533.0</ele><time>2026-03-28T11:23:12.523Z</time></trkpt><trkpt lat="40.9471333" lon="15.4929517"><ele>533.3333333333333</ele><time>2026-03-28T11:23:13.522Z</time></trkpt><trkpt lat="40.94706" lon="15.492965"><ele>533.6666666666666</ele><time>2026-03-28T11:23:14.522Z</time></trkpt><trkpt lat="40.9469783" lon="15.4930017"><ele>534.0</ele><time>2026-03-28T11:23:15.523Z</time></trkpt><trkpt lat="40.9469017" lon="15.4930433"><ele>534.3333333333334</ele><time>2026-03-28T11:23:16.522Z</time></trkpt><trkpt lat="40.94683" lon="15.4930817"><ele>534.6666666666667</ele><time>2026-03-28T11:23:17.523Z</time></trkpt><trkpt lat="40.9467483" lon="15.4931167"><ele>535.0</ele><time>2026-03-28T11:23:18.523Z</time></trkpt><trkpt lat="40.9466667" lon="15.4931717"><ele>535.0</ele><time>2026-03-28T11:23:19.522Z</time></trkpt><trkpt lat="40.946585" lon="15.4932283"><ele>535.0</ele><time>2026-03-28T11:23:20.522Z</time></trkpt><trkpt lat="40.9465017" lon="15.4932833"><ele>535.0</ele><time>2026-03-28T11:23:21.523Z</time></trkpt><trkpt lat="40.9464267" lon="15.493325"><ele>535.0</ele><time>2026-03-28T11:23:22.522Z</time></trkpt><trkpt lat="40.9463467" lon="15.49337"><ele>535.0</ele><time>2026-03-28T11:23:23.522Z</time></trkpt><trkpt lat="40.9462717" lon="15.4934133"><ele>535.0</ele><time>2026-03-28T11:23:24.523Z</time></trkpt><trkpt lat="40.9461917" lon="15.4934567"><ele>535.0</ele><time>2026-03-28T11:23:25.523Z</time></trkpt><trkpt lat="40.9461133" lon="15.4934833"><ele>535.0</ele><time>2026-03-28T11:23:26.523Z</time></trkpt><trkpt lat="40.9460183" lon="15.4935233"><ele>535.0</ele><time>2026-03-28T11:23:27.523Z</time></trkpt><trkpt lat="40.94594" lon="15.4935583"><ele>535.0</ele><time>2026-03-28T11:23:28.522Z</time></trkpt><trkpt lat="40.9458683" lon="15.49359"><ele>535.0</ele><time>2026-03-28T11:23:29.522Z</time></trkpt><trkpt lat="40.9457883" lon="15.4936333"><ele>535.0</ele><time>2026-03-28T11:23:30.523Z</time></trkpt><trkpt lat="40.9457017" lon="15.49368"><ele>533.6666666666667</ele><time>2026-03-28T11:23:31.523Z</time></trkpt><trkpt lat="40.9456117" lon="15.493725"><ele>532.3333333333334</ele><time>2026-03-28T11:23:32.522Z</time></trkpt><trkpt lat="40.9455283" lon="15.493765"><ele>531.0</ele><time>2026-03-28T11:23:33.523Z</time></trkpt><trkpt lat="40.94545" lon="15.4938"><ele>529.6666666666666</ele><time>2026-03-28T11:23:34.523Z</time></trkpt><trkpt lat="40.9453683" lon="15.4938467"><ele>528.3333333333333</ele><time>2026-03-28T11:23:35.523Z</time></trkpt><trkpt lat="40.9452917" lon="15.4939"><ele>527.0</ele><time>2026-03-28T11:23:36.523Z</time></trkpt><trkpt lat="40.9452117" lon="15.4939467"><ele>527.0</ele><time>2026-03-28T11:23:37.523Z</time></trkpt><trkpt lat="40.9451233" lon="15.4939967"><ele>527.0</ele><time>2026-03-28T11:23:38.522Z</time></trkpt><trkpt lat="40.945035" lon="15.4940483"><ele>527.0</ele><time>2026-03-28T11:23:39.522Z</time></trkpt><trkpt lat="40.9449483" lon="15.4941"><ele>527.0</ele><time>2026-03-28T11:23:40.523Z</time></trkpt><trkpt lat="40.944865" lon="15.494155"><ele>527.0</ele><time>2026-03-28T11:23:41.523Z</time></trkpt><trkpt lat="40.9447867" lon="15.4941967"><ele>529.3333333333333</ele><time>2026-03-28T11:23:42.523Z</time></trkpt><trkpt lat="40.9446983" lon="15.4942533"><ele>531.6666666666666</ele><time>2026-03-28T11:23:43.523Z</time></trkpt><trkpt lat="40.9446117" lon="15.4943133"><ele>534.0</ele><time>2026-03-28T11:23:44.523Z</time></trkpt><trkpt lat="40.944535" lon="15.49436"><ele>536.3333333333334</ele><time>2026-03-28T11:23:45.522Z</time></trkpt><trkpt lat="40.944465" lon="15.4943983"><ele>538.6666666666667</ele><time>2026-03-28T11:23:46.523Z</time></trkpt><trkpt lat="40.9444017" lon="15.4944383"><ele>541.0</ele><time>2026-03-28T11:23:47.522Z</time></trkpt><trkpt lat="40.9443383" lon="15.49447"><ele>541.0</ele><time>2026-03-28T11:23:48.522Z</time></trkpt><trkpt lat="40.9442683" lon="15.494505"><ele>541.0</ele><time>2026-03-28T11:23:49.523Z</time></trkpt><trkpt lat="40.944195" lon="15.49455"><ele>541.0</ele><time>2026-03-28T11:23:50.523Z</time></trkpt><trkpt lat="40.9441183" lon="15.4945967"><ele>541.0</ele><time>2026-03-28T11:23:51.522Z</time></trkpt><trkpt lat="40.9440333" lon="15.494645"><ele>541.0</ele><time>2026-03-28T11:23:52.523Z</time></trkpt><trkpt lat="40.9439483" lon="15.4946967"><ele>541.0</ele><time>2026-03-28T11:23:53.523Z</time></trkpt><trkpt lat="40.9438667" lon="15.4947433"><ele>540.6</ele><time>2026-03-28T11:23:54.523Z</time></trkpt><trkpt lat="40.9437783" lon="15.4947917"><ele>540.2</ele><time>2026-03-28T11:23:55.523Z</time></trkpt><trkpt lat="40.9436917" lon="15.4948383"><ele>539.8</ele><time>2026-03-28T11:23:56.523Z</time></trkpt><trkpt lat="40.9436133" lon="15.494885"><ele>539.4</ele><time>2026-03-28T11:23:57.523Z</time></trkpt><trkpt lat="40.9435217" lon="15.4949367"><ele>539.0</ele><time>2026-03-28T11:23:58.522Z</time></trkpt><trkpt lat="40.9434317" lon="15.4949867"><ele>541.6</ele><time>2026-03-28T11:23:59.523Z</time></trkpt><trkpt lat="40.94335" lon="15.495035"><ele>544.2</ele><time>2026-03-28T11:24:00.522Z</time></trkpt><trkpt lat="40.94326" lon="15.4950883"><ele>546.8000000000001</ele><time>2026-03-28T11:24:01.523Z</time></trkpt><trkpt lat="40.9431783" lon="15.4951417"><ele>549.4</ele><time>2026-03-28T11:24:02.523Z</time></trkpt><trkpt lat="40.943095" lon="15.4951867"><ele>552.0</ele><time>2026-03-28T11:24:03.522Z</time></trkpt><trkpt lat="40.9430017" lon="15.4952417"><ele>552.0</ele><time>2026-03-28T11:24:04.522Z</time></trkpt><trkpt lat="40.94291" lon="15.4953017"><ele>552.0</ele><time>2026-03-28T11:24:05.522Z</time></trkpt><trkpt lat="40.9428133" lon="15.4953567"><ele>552.0</ele><time>2026-03-28T11:24:06.522Z</time></trkpt><trkpt lat="40.9427317" lon="15.4954133"><ele>552.0</ele><time>2026-03-28T11:24:07.523Z</time></trkpt><trkpt lat="40.9426467" lon="15.4954833"><ele>552.0</ele><time>2026-03-28T11:24:08.523Z</time></trkpt><trkpt lat="40.94256" lon="15.4955417"><ele>552.4</ele><time>2026-03-28T11:24:09.523Z</time></trkpt><trkpt lat="40.9424633" lon="15.495605"><ele>552.8000000000001</ele><time>2026-03-28T11:24:10.523Z</time></trkpt><trkpt lat="40.9423783" lon="15.4956683"><ele>553.2</ele><time>2026-03-28T11:24:11.522Z</time></trkpt><trkpt lat="40.9422933" lon="15.4957367"><ele>553.6</ele><time>2026-03-28T11:24:12.523Z</time></trkpt><trkpt lat="40.94222" lon="15.4958017"><ele>554.0</ele><time>2026-03-28T11:24:13.522Z</time></trkpt><trkpt lat="40.9421483" lon="15.4958683"><ele>554.0</ele><time>2026-03-28T11:24:14.523Z</time></trkpt><trkpt lat="40.942075" lon="15.4959283"><ele>554.0</ele><time>2026-03-28T11:24:15.523Z</time></trkpt><trkpt lat="40.94201" lon="15.49599"><ele>554.0</ele><time>2026-03-28T11:24:16.523Z</time></trkpt><trkpt lat="40.94194" lon="15.4960467"><ele>554.0</ele><time>2026-03-28T11:24:17.523Z</time></trkpt><trkpt lat="40.941865" lon="15.4961083"><ele>554.0</ele><time>2026-03-28T11:24:18.522Z</time></trkpt><trkpt lat="40.9417883" lon="15.4961683"><ele>554.0</ele><time>2026-03-28T11:24:19.522Z</time></trkpt><trkpt lat="40.9417083" lon="15.4962233"><ele>553.8</ele><time>2026-03-28T11:24:20.523Z</time></trkpt><trkpt lat="40.941625" lon="15.4962683"><ele>553.5999999999999</ele><time>2026-03-28T11:24:21.522Z</time></trkpt><trkpt lat="40.9415367" lon="15.4963033"><ele>553.4</ele><time>2026-03-28T11:24:22.523Z</time></trkpt><trkpt lat="40.9414433" lon="15.496315"><ele>553.1999999999999</ele><time>2026-03-28T11:24:23.522Z</time></trkpt><trkpt lat="40.9413417" lon="15.4963333"><ele>553.0</ele><time>2026-03-28T11:24:24.522Z</time></trkpt><trkpt lat="40.94124" lon="15.4963417"><ele>553.0</ele><time>2026-03-28T11:24:25.522Z</time></trkpt><trkpt lat="40.9411417" lon="15.4963433"><ele>553.0</ele><time>2026-03-28T11:24:26.523Z</time></trkpt><trkpt lat="40.9410383" lon="15.496345"><ele>553.0</ele><time>2026-03-28T11:24:27.522Z</time></trkpt><trkpt lat="40.9409433" lon="15.49634"><ele>553.0</ele><time>2026-03-28T11:24:28.522Z</time></trkpt><trkpt lat="40.9408517" lon="15.49633"><ele>553.0</ele><time>2026-03-28T11:24:29.523Z</time></trkpt><trkpt lat="40.9407583" lon="15.4963"><ele>555.1999999999999</ele><time>2026-03-28T11:24:30.523Z</time></trkpt><trkpt lat="40.940675" lon="15.4962767"><ele>557.4</ele><time>2026-03-28T11:24:31.522Z</time></trkpt><trkpt lat="40.9405883" lon="15.4962467"><ele>559.5999999999999</ele><time>2026-03-28T11:24:32.522Z</time></trkpt><trkpt lat="40.940495" lon="15.4962217"><ele>561.8</ele><time>2026-03-28T11:24:33.523Z</time></trkpt><trkpt lat="40.940405" lon="15.4961883"><ele>564.0</ele><time>2026-03-28T11:24:34.523Z</time></trkpt><trkpt lat="40.9403167" lon="15.49616"><ele>565.6666666666666</ele><time>2026-03-28T11:24:35.523Z</time></trkpt><trkpt lat="40.9402317" lon="15.4961317"><ele>567.3333333333334</ele><time>2026-03-28T11:24:36.523Z</time></trkpt><trkpt lat="40.9401517" lon="15.4961"><ele>569.0</ele><time>2026-03-28T11:24:37.523Z</time></trkpt><trkpt lat="40.9400717" lon="15.4960783"><ele>570.6666666666667</ele><time>2026-03-28T11:24:38.523Z</time></trkpt><trkpt lat="40.9399917" lon="15.4960483"><ele>572.3333333333334</ele><time>2026-03-28T11:24:39.523Z</time></trkpt><trkpt lat="40.939915" lon="15.4960133"><ele>574.0</ele><time>2026-03-28T11:24:40.523Z</time></trkpt><trkpt lat="40.9398483" lon="15.4959983"><ele>574.0</ele><time>2026-03-28T11:24:41.522Z</time></trkpt><trkpt lat="40.939725" lon="15.4959833"><ele>574.0</ele><time>2026-03-28T11:24:43.523Z</time></trkpt><trkpt lat="40.9396533" lon="15.4959633"><ele>574.0</ele><time>2026-03-28T11:24:44.523Z</time></trkpt><trkpt lat="40.9395767" lon="15.49594"><ele>574.0</ele><time>2026-03-28T11:24:45.523Z</time></trkpt><trkpt lat="40.9395" lon="15.4959133"><ele>574.0</ele><time>2026-03-28T11:24:46.523Z</time></trkpt><trkpt lat="40.939425" lon="15.495885"><ele>574.0</ele><time>2026-03-28T11:24:47.523Z</time></trkpt><trkpt lat="40.9393517" lon="15.49586"><ele>574.0</ele><time>2026-03-28T11:24:48.522Z</time></trkpt><trkpt lat="40.9392817" lon="15.495835"><ele>574.0</ele><time>2026-03-28T11:24:49.523Z</time></trkpt><trkpt lat="40.9392083" lon="15.4958133"><ele>574.0</ele><time>2026-03-28T11:24:50.523Z</time></trkpt><trkpt lat="40.9391317" lon="15.4957817"><ele>574.0</ele><time>2026-03-28T11:24:51.522Z</time></trkpt><trkpt lat="40.9390483" lon="15.4957533"><ele>574.0</ele><time>2026-03-28T11:24:52.522Z</time></trkpt><trkpt lat="40.938965" lon="15.4957267"><ele>574.0</ele><time>2026-03-28T11:24:53.523Z</time></trkpt><trkpt lat="40.938885" lon="15.4957017"><ele>574.4285714285714</ele><time>2026-03-28T11:24:54.522Z</time></trkpt><trkpt lat="40.9388117" lon="15.495675"><ele>574.8571428571429</ele><time>2026-03-28T11:24:55.522Z</time></trkpt><trkpt lat="40.93874" lon="15.4956467"><ele>575.2857142857142</ele><time>2026-03-28T11:24:56.523Z</time></trkpt><trkpt lat="40.9386733" lon="15.49562"><ele>575.7142857142858</ele><time>2026-03-28T11:24:57.523Z</time></trkpt><trkpt lat="40.9385983" lon="15.4955983"><ele>576.1428571428571</ele><time>2026-03-28T11:24:58.523Z</time></trkpt><trkpt lat="40.93852" lon="15.495585"><ele>576.5714285714286</ele><time>2026-03-28T11:24:59.523Z</time></trkpt><trkpt lat="40.9384583" lon="15.49556"><ele>577.0</ele><time>2026-03-28T11:25:00.523Z</time></trkpt><trkpt lat="40.9383967" lon="15.49554"><ele>577.0</ele><time>2026-03-28T11:25:01.523Z</time></trkpt><trkpt lat="40.93833" lon="15.4955267"><ele>577.0</ele><time>2026-03-28T11:25:02.523Z</time></trkpt><trkpt lat="40.9382617" lon="15.49552"><ele>577.0</ele><time>2026-03-28T11:25:03.522Z</time></trkpt><trkpt lat="40.9381917" lon="15.495515"><ele>577.0</ele><time>2026-03-28T11:25:04.523Z</time></trkpt><trkpt lat="40.9381183" lon="15.4955233"><ele>577.0</ele><time>2026-03-28T11:25:05.523Z</time></trkpt><trkpt lat="40.9380467" lon="15.4955433"><ele>577.0</ele><time>2026-03-28T11:25:06.522Z</time></trkpt><trkpt lat="40.9379767" lon="15.4955717"><ele>577.0</ele><time>2026-03-28T11:25:07.523Z</time></trkpt><trkpt lat="40.9379033" lon="15.4956117"><ele>577.0</ele><time>2026-03-28T11:25:08.523Z</time></trkpt><trkpt lat="40.937825" lon="15.4956683"><ele>577.0</ele><time>2026-03-28T11:25:09.523Z</time></trkpt><trkpt lat="40.93775" lon="15.4957233"><ele>577.0</ele><time>2026-03-28T11:25:10.523Z</time></trkpt><trkpt lat="40.93767" lon="15.4957683"><ele>577.0</ele><time>2026-03-28T11:25:11.523Z</time></trkpt><trkpt lat="40.9375917" lon="15.49581"><ele>577.0</ele><time>2026-03-28T11:25:12.523Z</time></trkpt><trkpt lat="40.9375067" lon="15.49585"><ele>577.0</ele><time>2026-03-28T11:25:13.522Z</time></trkpt><trkpt lat="40.937425" lon="15.4958867"><ele>576.7142857142857</ele><time>2026-03-28T11:25:14.523Z</time></trkpt><trkpt lat="40.9373517" lon="15.4959167"><ele>576.4285714285714</ele><time>2026-03-28T11:25:15.522Z</time></trkpt><trkpt lat="40.9372817" lon="15.4959433"><ele>576.1428571428571</ele><time>2026-03-28T11:25:16.523Z</time></trkpt><trkpt lat="40.9372117" lon="15.4959583"><ele>575.8571428571429</ele><time>2026-03-28T11:25:17.522Z</time></trkpt><trkpt lat="40.9371383" lon="15.4959733"><ele>575.5714285714286</ele><time>2026-03-28T11:25:18.522Z</time></trkpt><trkpt lat="40.9370617" lon="15.4959767"><ele>575.2857142857142</ele><time>2026-03-28T11:25:19.522Z</time></trkpt><trkpt lat="40.936985" lon="15.4959733"><ele>575.0</ele><time>2026-03-28T11:25:20.523Z</time></trkpt><trkpt lat="40.9369133" lon="15.4959633"><ele>575.0</ele><time>2026-03-28T11:25:21.522Z</time></trkpt><trkpt lat="40.93685" lon="15.49594"><ele>575.0</ele><time>2026-03-28T11:25:22.523Z</time></trkpt><trkpt lat="40.936785" lon="15.4959083"><ele>575.0</ele><time>2026-03-28T11:25:23.522Z</time></trkpt><trkpt lat="40.936715" lon="15.49587"><ele>575.0</ele><time>2026-03-28T11:25:24.523Z</time></trkpt><trkpt lat="40.936645" lon="15.4958367"><ele>575.0</ele><time>2026-03-28T11:25:25.523Z</time></trkpt><trkpt lat="40.9365733" lon="15.4957867"><ele>575.0</ele><time>2026-03-28T11:25:26.523Z</time></trkpt><trkpt lat="40.9364967" lon="15.4957333"><ele>575.1666666666666</ele><time>2026-03-28T11:25:27.523Z</time></trkpt><trkpt lat="40.9364267" lon="15.4956817"><ele>575.3333333333333</ele><time>2026-03-28T11:25:28.523Z</time></trkpt><trkpt lat="40.9363567" lon="15.4956283"><ele>575.5</ele><time>2026-03-28T11:25:29.523Z</time></trkpt><trkpt lat="40.93629" lon="15.4955717"><ele>575.6666666666666</ele><time>2026-03-28T11:25:30.522Z</time></trkpt><trkpt lat="40.9362217" lon="15.4955133"><ele>575.8333333333334</ele><time>2026-03-28T11:25:31.522Z</time></trkpt><trkpt lat="40.9361483" lon="15.4954567"><ele>576.0</ele><time>2026-03-28T11:25:32.523Z</time></trkpt><trkpt lat="40.9360767" lon="15.4954033"><ele>576.0</ele><time>2026-03-28T11:25:33.522Z</time></trkpt><trkpt lat="40.936" lon="15.4953517"><ele>576.0</ele><time>2026-03-28T11:25:34.522Z</time></trkpt><trkpt lat="40.9359233" lon="15.4952933"><ele>576.0</ele><time>2026-03-28T11:25:35.523Z</time></trkpt><trkpt lat="40.93584" lon="15.4952417"><ele>576.0</ele><time>2026-03-28T11:25:36.523Z</time></trkpt><trkpt lat="40.9357567" lon="15.4951933"><ele>576.0</ele><time>2026-03-28T11:25:37.522Z</time></trkpt><trkpt lat="40.93568" lon="15.4951517"><ele>576.0</ele><time>2026-03-28T11:25:38.522Z</time></trkpt><trkpt lat="40.9356" lon="15.4951117"><ele>576.3333333333334</ele><time>2026-03-28T11:25:39.523Z</time></trkpt><trkpt lat="40.93552" lon="15.4950717"><ele>576.6666666666666</ele><time>2026-03-28T11:25:40.523Z</time></trkpt><trkpt lat="40.935445" lon="15.49503"><ele>577.0</ele><time>2026-03-28T11:25:41.523Z</time></trkpt><trkpt lat="40.93537" lon="15.494995"><ele>577.3333333333333</ele><time>2026-03-28T11:25:42.523Z</time></trkpt><trkpt lat="40.935295" lon="15.4949583"><ele>577.6666666666666</ele><time>2026-03-28T11:25:43.522Z</time></trkpt><trkpt lat="40.9352083" lon="15.4949233"><ele>578.0</ele><time>2026-03-28T11:25:44.522Z</time></trkpt><trkpt lat="40.9351233" lon="15.49488"><ele>577.8333333333333</ele><time>2026-03-28T11:25:45.523Z</time></trkpt><trkpt lat="40.9350483" lon="15.4948283"><ele>577.6666666666666</ele><time>2026-03-28T11:25:46.523Z</time></trkpt><trkpt lat="40.9349717" lon="15.4947883"><ele>577.5</ele><time>2026-03-28T11:25:47.523Z</time></trkpt><trkpt lat="40.9349" lon="15.4947433"><ele>577.3333333333334</ele><time>2026-03-28T11:25:48.523Z</time></trkpt><trkpt lat="40.934835" lon="15.4946967"><ele>577.1666666666667</ele><time>2026-03-28T11:25:49.522Z</time></trkpt><trkpt lat="40.9347617" lon="15.49466"><ele>577.0</ele><time>2026-03-28T11:25:50.522Z</time></trkpt><trkpt lat="40.9346883" lon="15.49462"><ele>577.0</ele><time>2026-03-28T11:25:51.522Z</time></trkpt><trkpt lat="40.9346233" lon="15.494575"><ele>577.0</ele><time>2026-03-28T11:25:52.523Z</time></trkpt><trkpt lat="40.9345633" lon="15.4945367"><ele>577.0</ele><time>2026-03-28T11:25:53.524Z</time></trkpt><trkpt lat="40.9345083" lon="15.4944933"><ele>577.0</ele><time>2026-03-28T11:25:54.523Z</time></trkpt><trkpt lat="40.9344517" lon="15.4944567"><ele>577.0</ele><time>2026-03-28T11:25:55.523Z</time></trkpt><trkpt lat="40.934395" lon="15.4944167"><ele>577.0</ele><time>2026-03-28T11:25:56.523Z</time></trkpt><trkpt lat="40.9343367" lon="15.4943733"><ele>577.0</ele><time>2026-03-28T11:25:57.524Z</time></trkpt><trkpt lat="40.9342783" lon="15.4943283"><ele>575.6666666666667</ele><time>2026-03-28T11:25:58.523Z</time></trkpt><trkpt lat="40.934215" lon="15.4942533"><ele>574.3333333333334</ele><time>2026-03-28T11:25:59.524Z</time></trkpt><trkpt lat="40.9341567" lon="15.4941683"><ele>573.0</ele><time>2026-03-28T11:26:00.524Z</time></trkpt><trkpt lat="40.9341017" lon="15.4940867"><ele>571.6666666666666</ele><time>2026-03-28T11:26:01.524Z</time></trkpt><trkpt lat="40.9340433" lon="15.4940033"><ele>570.3333333333333</ele><time>2026-03-28T11:26:02.524Z</time></trkpt><trkpt lat="40.9339833" lon="15.4939067"><ele>569.0</ele><time>2026-03-28T11:26:03.523Z</time></trkpt><trkpt lat="40.9339317" lon="15.4938033"><ele>569.0</ele><time>2026-03-28T11:26:04.524Z</time></trkpt><trkpt lat="40.9338767" lon="15.4936967"><ele>569.0</ele><time>2026-03-28T11:26:05.523Z</time></trkpt><trkpt lat="40.9338267" lon="15.493595"><ele>569.0</ele><time>2026-03-28T11:26:06.523Z</time></trkpt><trkpt lat="40.9337717" lon="15.4934817"><ele>569.0</ele><time>2026-03-28T11:26:07.523Z</time></trkpt><trkpt lat="40.9337083" lon="15.4933683"><ele>569.0</ele><time>2026-03-28T11:26:08.524Z</time></trkpt><trkpt lat="40.9336417" lon="15.493255"><ele>569.0</ele><time>2026-03-28T11:26:09.523Z</time></trkpt><trkpt lat="40.9335783" lon="15.4931483"><ele>569.0</ele><time>2026-03-28T11:26:10.524Z</time></trkpt><trkpt lat="40.9335217" lon="15.4930383"><ele>569.0</ele><time>2026-03-28T11:26:11.523Z</time></trkpt><trkpt lat="40.9334683" lon="15.492935"><ele>569.0</ele><time>2026-03-28T11:26:12.523Z</time></trkpt><trkpt lat="40.93342" lon="15.4928467"><ele>569.0</ele><time>2026-03-28T11:26:13.524Z</time></trkpt><trkpt lat="40.933375" lon="15.492765"><ele>567.4285714285714</ele><time>2026-03-28T11:26:14.524Z</time></trkpt><trkpt lat="40.9333283" lon="15.4926817"><ele>565.8571428571429</ele><time>2026-03-28T11:26:15.524Z</time></trkpt><trkpt lat="40.933285" lon="15.492605"><ele>564.2857142857142</ele><time>2026-03-28T11:26:16.524Z</time></trkpt><trkpt lat="40.9332433" lon="15.4925267"><ele>562.7142857142858</ele><time>2026-03-28T11:26:17.524Z</time></trkpt><trkpt lat="40.9331967" lon="15.4924433"><ele>561.1428571428571</ele><time>2026-03-28T11:26:18.523Z</time></trkpt><trkpt lat="40.933155" lon="15.4923633"><ele>559.5714285714286</ele><time>2026-03-28T11:26:19.523Z</time></trkpt><trkpt lat="40.9331117" lon="15.49229"><ele>558.0</ele><time>2026-03-28T11:26:20.523Z</time></trkpt><trkpt lat="40.93307" lon="15.492215"><ele>558.0</ele><time>2026-03-28T11:26:21.524Z</time></trkpt><trkpt lat="40.93303" lon="15.49213"><ele>558.0</ele><time>2026-03-28T11:26:22.524Z</time></trkpt><trkpt lat="40.9329833" lon="15.4920333"><ele>558.0</ele><time>2026-03-28T11:26:23.524Z</time></trkpt><trkpt lat="40.9329383" lon="15.4919367"><ele>558.0</ele><time>2026-03-28T11:26:24.524Z</time></trkpt><trkpt lat="40.9328933" lon="15.491845"><ele>558.0</ele><time>2026-03-28T11:26:25.523Z</time></trkpt><trkpt lat="40.9328433" lon="15.4917517"><ele>558.0</ele><time>2026-03-28T11:26:26.523Z</time></trkpt><trkpt lat="40.9328" lon="15.491655"><ele>558.6</ele><time>2026-03-28T11:26:27.524Z</time></trkpt><trkpt lat="40.93276" lon="15.4915517"><ele>559.1999999999999</ele><time>2026-03-28T11:26:28.523Z</time></trkpt><trkpt lat="40.93272" lon="15.4914417"><ele>559.8</ele><time>2026-03-28T11:26:29.523Z</time></trkpt><trkpt lat="40.9326733" lon="15.49133"><ele>560.4</ele><time>2026-03-28T11:26:30.523Z</time></trkpt><trkpt lat="40.9326233" lon="15.49121"><ele>561.0</ele><time>2026-03-28T11:26:31.524Z</time></trkpt><trkpt lat="40.9325667" lon="15.491085"><ele>560.0</ele><time>2026-03-28T11:26:32.524Z</time></trkpt><trkpt lat="40.9325" lon="15.490965"><ele>559.0</ele><time>2026-03-28T11:26:33.524Z</time></trkpt><trkpt lat="40.9324233" lon="15.490855"><ele>558.0</ele><time>2026-03-28T11:26:34.524Z</time></trkpt><trkpt lat="40.9323417" lon="15.490755"><ele>557.0</ele><time>2026-03-28T11:26:35.524Z</time></trkpt><trkpt lat="40.93226" lon="15.490665"><ele>556.0</ele><time>2026-03-28T11:26:36.524Z</time></trkpt><trkpt lat="40.93218" lon="15.490575"><ele>556.0</ele><time>2026-03-28T11:26:37.523Z</time></trkpt><trkpt lat="40.932095" lon="15.4904833"><ele>556.0</ele><time>2026-03-28T11:26:38.524Z</time></trkpt><trkpt lat="40.9320133" lon="15.4903917"><ele>556.0</ele><time>2026-03-28T11:26:39.524Z</time></trkpt><trkpt lat="40.9319333" lon="15.490305"><ele>556.0</ele><time>2026-03-28T11:26:40.523Z</time></trkpt><trkpt lat="40.9318583" lon="15.490215"><ele>556.0</ele><time>2026-03-28T11:26:41.524Z</time></trkpt><trkpt lat="40.9317783" lon="15.4901267"><ele>555.4</ele><time>2026-03-28T11:26:42.523Z</time></trkpt><trkpt lat="40.9317" lon="15.49004"><ele>554.8</ele><time>2026-03-28T11:26:43.524Z</time></trkpt><trkpt lat="40.9316267" lon="15.48995"><ele>554.1999999999999</ele><time>2026-03-28T11:26:44.523Z</time></trkpt><trkpt lat="40.93155" lon="15.4898633"><ele>553.6</ele><time>2026-03-28T11:26:45.524Z</time></trkpt><trkpt lat="40.93147" lon="15.48977"><ele>553.0</ele><time>2026-03-28T11:26:46.524Z</time></trkpt><trkpt lat="40.9313867" lon="15.4896717"><ele>553.6</ele><time>2026-03-28T11:26:47.523Z</time></trkpt><trkpt lat="40.9313" lon="15.48958"><ele>554.1999999999999</ele><time>2026-03-28T11:26:48.523Z</time></trkpt><trkpt lat="40.9312167" lon="15.489485"><ele>554.8</ele><time>2026-03-28T11:26:49.523Z</time></trkpt><trkpt lat="40.9311383" lon="15.4893967"><ele>555.4</ele><time>2026-03-28T11:26:50.524Z</time></trkpt><trkpt lat="40.93106" lon="15.489315"><ele>556.0</ele><time>2026-03-28T11:26:51.524Z</time></trkpt><trkpt lat="40.9309767" lon="15.4892317"><ele>556.0</ele><time>2026-03-28T11:26:52.523Z</time></trkpt><trkpt lat="40.9308983" lon="15.4891517"><ele>556.0</ele><time>2026-03-28T11:26:53.523Z</time></trkpt><trkpt lat="40.93084" lon="15.4890733"><ele>556.0</ele><time>2026-03-28T11:26:54.524Z</time></trkpt><trkpt lat="40.9307883" lon="15.489"><ele>556.0</ele><time>2026-03-28T11:26:55.524Z</time></trkpt><trkpt lat="40.9307483" lon="15.4889167"><ele>556.0</ele><time>2026-03-28T11:26:56.524Z</time></trkpt><trkpt lat="40.93073" lon="15.488825"><ele>556.0</ele><time>2026-03-28T11:26:57.523Z</time></trkpt><trkpt lat="40.93073" lon="15.4886833"><ele>556.0</ele><time>2026-03-28T11:26:59.524Z</time></trkpt><trkpt lat="40.9307083" lon="15.4886017"><ele>556.0</ele><time>2026-03-28T11:27:01.524Z</time></trkpt><trkpt lat="40.9306383" lon="15.4885117"><ele>556.0</ele><time>2026-03-28T11:27:03.524Z</time></trkpt><trkpt lat="40.9305883" lon="15.4884533"><ele>556.0</ele><time>2026-03-28T11:27:04.524Z</time></trkpt><trkpt lat="40.9305333" lon="15.4883967"><ele>556.0</ele><time>2026-03-28T11:27:05.524Z</time></trkpt><trkpt lat="40.9304783" lon="15.48834"><ele>556.0</ele><time>2026-03-28T11:27:06.524Z</time></trkpt><trkpt lat="40.9304183" lon="15.4882867"><ele>556.0</ele><time>2026-03-28T11:27:07.524Z</time></trkpt><trkpt lat="40.9303567" lon="15.48823"><ele>556.0</ele><time>2026-03-28T11:27:08.524Z</time></trkpt><trkpt lat="40.93029" lon="15.4881667"><ele>556.0</ele><time>2026-03-28T11:27:09.524Z</time></trkpt><trkpt lat="40.9302267" lon="15.4881067"><ele>556.0</ele><time>2026-03-28T11:27:10.523Z</time></trkpt><trkpt lat="40.9301617" lon="15.4880483"><ele>556.0</ele><time>2026-03-28T11:27:11.524Z</time></trkpt><trkpt lat="40.9300967" lon="15.487995"><ele>556.0</ele><time>2026-03-28T11:27:12.524Z</time></trkpt><trkpt lat="40.9300333" lon="15.4879433"><ele>556.0</ele><time>2026-03-28T11:27:13.524Z</time></trkpt><trkpt lat="40.9299683" lon="15.487895"><ele>555.1428571428571</ele><time>2026-03-28T11:27:14.524Z</time></trkpt><trkpt lat="40.9299033" lon="15.487845"><ele>554.2857142857143</ele><time>2026-03-28T11:27:15.523Z</time></trkpt><trkpt lat="40.9298383" lon="15.487795"><ele>553.4285714285714</ele><time>2026-03-28T11:27:16.524Z</time></trkpt><trkpt lat="40.9297717" lon="15.48775"><ele>552.5714285714286</ele><time>2026-03-28T11:27:17.523Z</time></trkpt><trkpt lat="40.9297083" lon="15.4877083"><ele>551.7142857142857</ele><time>2026-03-28T11:27:18.523Z</time></trkpt><trkpt lat="40.92964" lon="15.48766"><ele>550.8571428571429</ele><time>2026-03-28T11:27:19.524Z</time></trkpt><trkpt lat="40.9295767" lon="15.4876133"><ele>550.0</ele><time>2026-03-28T11:27:20.524Z</time></trkpt><trkpt lat="40.9295183" lon="15.4875667"><ele>550.0</ele><time>2026-03-28T11:27:21.523Z</time></trkpt><trkpt lat="40.9294633" lon="15.4875217"><ele>550.0</ele><time>2026-03-28T11:27:22.524Z</time></trkpt><trkpt lat="40.929405" lon="15.487475"><ele>550.0</ele><time>2026-03-28T11:27:23.523Z</time></trkpt><trkpt lat="40.92935" lon="15.4874267"><ele>550.0</ele><time>2026-03-28T11:27:24.523Z</time></trkpt><trkpt lat="40.9292967" lon="15.4873733"><ele>550.0</ele><time>2026-03-28T11:27:25.524Z</time></trkpt><trkpt lat="40.9292433" lon="15.4873167"><ele>550.0</ele><time>2026-03-28T11:27:26.523Z</time></trkpt><trkpt lat="40.9291933" lon="15.487245"><ele>550.0</ele><time>2026-03-28T11:27:27.524Z</time></trkpt><trkpt lat="40.929145" lon="15.48718"><ele>549.1428571428571</ele><time>2026-03-28T11:27:28.524Z</time></trkpt><trkpt lat="40.9291017" lon="15.4871133"><ele>548.2857142857142</ele><time>2026-03-28T11:27:29.523Z</time></trkpt><trkpt lat="40.9290633" lon="15.4870417"><ele>547.4285714285713</ele><time>2026-03-28T11:27:30.523Z</time></trkpt><trkpt lat="40.92903" lon="15.48697"><ele>546.5714285714286</ele><time>2026-03-28T11:27:31.524Z</time></trkpt><trkpt lat="40.9290017" lon="15.4868883"><ele>545.7142857142857</ele><time>2026-03-28T11:27:32.523Z</time></trkpt><trkpt lat="40.9289733" lon="15.4868017"><ele>544.8571428571428</ele><time>2026-03-28T11:27:33.523Z</time></trkpt><trkpt lat="40.928945" lon="15.48671"><ele>544.0</ele><time>2026-03-28T11:27:34.523Z</time></trkpt><trkpt lat="40.9289183" lon="15.4866133"><ele>544.0</ele><time>2026-03-28T11:27:35.524Z</time></trkpt><trkpt lat="40.9288917" lon="15.4865183"><ele>544.0</ele><time>2026-03-28T11:27:36.523Z</time></trkpt><trkpt lat="40.928865" lon="15.48642"><ele>544.0</ele><time>2026-03-28T11:27:37.523Z</time></trkpt><trkpt lat="40.9288417" lon="15.48632"><ele>544.0</ele><time>2026-03-28T11:27:38.524Z</time></trkpt><trkpt lat="40.9288133" lon="15.4862267"><ele>544.0</ele><time>2026-03-28T11:27:39.523Z</time></trkpt><trkpt lat="40.9287883" lon="15.4861283"><ele>544.0</ele><time>2026-03-28T11:27:40.524Z</time></trkpt><trkpt lat="40.9287667" lon="15.4860367"><ele>543.1666666666667</ele><time>2026-03-28T11:27:41.523Z</time></trkpt><trkpt lat="40.92874" lon="15.485945"><ele>542.3333333333334</ele><time>2026-03-28T11:27:42.524Z</time></trkpt><trkpt lat="40.9287167" lon="15.4858617"><ele>541.5</ele><time>2026-03-28T11:27:43.523Z</time></trkpt><trkpt lat="40.9286967" lon="15.4857733"><ele>540.6666666666666</ele><time>2026-03-28T11:27:44.523Z</time></trkpt><trkpt lat="40.92866" lon="15.4856133"><ele>539.8333333333333</ele><time>2026-03-28T11:27:46.523Z</time></trkpt><trkpt lat="40.9286383" lon="15.4855267"><ele>539.0</ele><time>2026-03-28T11:27:47.524Z</time></trkpt><trkpt lat="40.9286183" lon="15.48543"><ele>537.5</ele><time>2026-03-28T11:27:48.524Z</time></trkpt><trkpt lat="40.9286033" lon="15.485335"><ele>536.0</ele><time>2026-03-28T11:27:49.524Z</time></trkpt><trkpt lat="40.9285883" lon="15.485245"><ele>534.5</ele><time>2026-03-28T11:27:50.523Z</time></trkpt><trkpt lat="40.92857" lon="15.48516"><ele>533.0</ele><time>2026-03-28T11:27:51.524Z</time></trkpt><trkpt lat="40.9285483" lon="15.485"><ele>531.5</ele><time>2026-03-28T11:27:53.523Z</time></trkpt><trkpt lat="40.9285333" lon="15.4848517"><ele>530.0</ele><time>2026-03-28T11:27:55.524Z</time></trkpt><trkpt lat="40.92852" lon="15.4847133"><ele>530.0</ele><time>2026-03-28T11:27:57.524Z</time></trkpt><trkpt lat="40.9284833" lon="15.484605"><ele>530.0</ele><time>2026-03-28T11:27:59.523Z</time></trkpt><trkpt lat="40.9283967" lon="15.4845383"><ele>530.0</ele><time>2026-03-28T11:28:01.523Z</time></trkpt><trkpt lat="40.9283083" lon="15.4845117"><ele>530.0</ele><time>2026-03-28T11:28:03.524Z</time></trkpt><trkpt lat="40.9282133" lon="15.484505"><ele>530.0</ele><time>2026-03-28T11:28:05.523Z</time></trkpt><trkpt lat="40.92811" lon="15.484495"><ele>526.1666666666666</ele><time>2026-03-28T11:28:07.523Z</time></trkpt><trkpt lat="40.92801" lon="15.4844867"><ele>522.3333333333333</ele><time>2026-03-28T11:28:09.524Z</time></trkpt><trkpt lat="40.92793" lon="15.4844633"><ele>518.5</ele><time>2026-03-28T11:28:11.524Z</time></trkpt><trkpt lat="40.92788" lon="15.4844067"><ele>514.6666666666666</ele><time>2026-03-28T11:28:13.524Z</time></trkpt><trkpt lat="40.9278483" lon="15.4842967"><ele>510.8333333333333</ele><time>2026-03-28T11:28:16.523Z</time></trkpt><trkpt lat="40.927855" lon="15.4841833"><ele>507.0</ele><time>2026-03-28T11:28:19.524Z</time></trkpt><trkpt lat="40.92787" lon="15.4841017"><ele>507.0</ele><time>2026-03-28T11:28:21.523Z</time></trkpt><trkpt lat="40.927905" lon="15.4839867"><ele>507.0</ele><time>2026-03-28T11:28:24.524Z</time></trkpt><trkpt lat="40.927945" lon="15.4838817"><ele>507.0</ele><time>2026-03-28T11:28:27.524Z</time></trkpt><trkpt lat="40.9279767" lon="15.4837767"><ele>507.0</ele><time>2026-03-28T11:28:30.524Z</time></trkpt><trkpt lat="40.927995" lon="15.483685"><ele>507.0</ele><time>2026-03-28T11:28:34.524Z</time></trkpt><trkpt lat="40.9279417" lon="15.4836317"><ele>507.0</ele><time>2026-03-28T11:28:39.523Z</time></trkpt><trkpt lat="40.9278667" lon="15.483625"><ele>504.3333333333333</ele><time>2026-03-28T11:28:43.523Z</time></trkpt><trkpt lat="40.9277817" lon="15.483635"><ele>501.66666666666663</ele><time>2026-03-28T11:28:46.523Z</time></trkpt><trkpt lat="40.9277017" lon="15.4836367"><ele>499.0</ele><time>2026-03-28T11:28:49.524Z</time></trkpt><trkpt lat="40.92764" lon="15.483595"><ele>496.3333333333333</ele><time>2026-03-28T11:28:52.523Z</time></trkpt><trkpt lat="40.92763" lon="15.483475"><ele>493.66666666666663</ele><time>2026-03-28T11:28:55.524Z</time></trkpt><trkpt lat="40.9276533" lon="15.4833967"><ele>491.0</ele><time>2026-03-28T11:28:57.524Z</time></trkpt><trkpt lat="40.9276733" lon="15.483315"><ele>491.0</ele><time>2026-03-28T11:28:59.524Z</time></trkpt><trkpt lat="40.9276883" lon="15.4832267"><ele>490.99999999999994</ele><time>2026-03-28T11:29:01.524Z</time></trkpt><trkpt lat="40.9276583" lon="15.4831283"><ele>491.0</ele><time>2026-03-28T11:29:04.524Z</time></trkpt><trkpt lat="40.9275933" lon="15.4831167"><ele>491.0</ele><time>2026-03-28T11:29:06.524Z</time></trkpt><trkpt lat="40.9275067" lon="15.4831333"><ele>490.99999999999994</ele><time>2026-03-28T11:29:09.523Z</time></trkpt><trkpt lat="40.927435" lon="15.4831317"><ele>491.0</ele><time>2026-03-28T11:29:12.523Z</time></trkpt><trkpt lat="40.927375" lon="15.4830833"><ele>491.0</ele><time>2026-03-28T11:29:15.523Z</time></trkpt><trkpt lat="40.9273517" lon="15.48297"><ele>486.3333333333333</ele><time>2026-03-28T11:29:18.523Z</time></trkpt><trkpt lat="40.9273467" lon="15.48288"><ele>481.66666666666663</ele><time>2026-03-28T11:29:20.524Z</time></trkpt><trkpt lat="40.9273467" lon="15.4827833"><ele>477.0</ele><time>2026-03-28T11:29:22.523Z</time></trkpt><trkpt lat="40.9273717" lon="15.4826917"><ele>472.33333333333337</ele><time>2026-03-28T11:29:24.523Z</time></trkpt><trkpt lat="40.9274067" lon="15.4825967"><ele>467.6666666666667</ele><time>2026-03-28T11:29:26.523Z</time></trkpt><trkpt lat="40.92744" lon="15.4825033"><ele>463.0</ele><time>2026-03-28T11:29:28.524Z</time></trkpt><trkpt lat="40.9274933" lon="15.482385"><ele>463.00000000000006</ele><time>2026-03-28T11:29:30.524Z</time></trkpt><trkpt lat="40.927545" lon="15.482275"><ele>463.0</ele><time>2026-03-28T11:29:32.524Z</time></trkpt><trkpt lat="40.9276117" lon="15.482175"><ele>463.0</ele><time>2026-03-28T11:29:34.523Z</time></trkpt><trkpt lat="40.927685" lon="15.482115"><ele>463.0</ele><time>2026-03-28T11:29:36.524Z</time></trkpt><trkpt lat="40.9277617" lon="15.48207"><ele>463.00000000000006</ele><time>2026-03-28T11:29:39.523Z</time></trkpt><trkpt lat="40.927775" lon="15.4819817"><ele>463.0</ele><time>2026-03-28T11:29:43.523Z</time></trkpt><trkpt lat="40.9277017" lon="15.4819533"><ele>461.4285714285714</ele><time>2026-03-28T11:29:47.524Z</time></trkpt><trkpt lat="40.927625" lon="15.48193"><ele>459.8571428571428</ele><time>2026-03-28T11:29:50.524Z</time></trkpt><trkpt lat="40.9275533" lon="15.4819133"><ele>458.2857142857143</ele><time>2026-03-28T11:29:53.523Z</time></trkpt><trkpt lat="40.9275117" lon="15.4818483"><ele>456.71428571428567</ele><time>2026-03-28T11:29:56.524Z</time></trkpt><trkpt lat="40.9275333" lon="15.481755"><ele>455.1428571428571</ele><time>2026-03-28T11:29:59.523Z</time></trkpt><trkpt lat="40.9275867" lon="15.4816933"><ele>453.57142857142856</ele><time>2026-03-28T11:30:01.523Z</time></trkpt><trkpt lat="40.927655" lon="15.4816267"><ele>452.0</ele><time>2026-03-28T11:30:03.524Z</time></trkpt><trkpt lat="40.9277217" lon="15.4815633"><ele>451.99999999999994</ele><time>2026-03-28T11:30:05.523Z</time></trkpt><trkpt lat="40.9277867" lon="15.481495"><ele>452.0</ele><time>2026-03-28T11:30:07.523Z</time></trkpt><trkpt lat="40.92785" lon="15.4814317"><ele>452.0</ele><time>2026-03-28T11:30:09.524Z</time></trkpt><trkpt lat="40.9279083" lon="15.481375"><ele>452.0</ele><time>2026-03-28T11:30:11.523Z</time></trkpt><trkpt lat="40.9279583" lon="15.4813217"><ele>451.99999999999994</ele><time>2026-03-28T11:30:13.524Z</time></trkpt><trkpt lat="40.9279667" lon="15.4812283"><ele>452.0</ele><time>2026-03-28T11:30:16.524Z</time></trkpt><trkpt lat="40.9278633" lon="15.4812167"><ele>450.3333333333333</ele><time>2026-03-28T11:30:19.524Z</time></trkpt><trkpt lat="40.9277617" lon="15.4812317"><ele>448.66666666666663</ele><time>2026-03-28T11:30:21.523Z</time></trkpt><trkpt lat="40.927675" lon="15.481235"><ele>447.0</ele><time>2026-03-28T11:30:23.524Z</time></trkpt><trkpt lat="40.9276017" lon="15.4811817"><ele>445.33333333333337</ele><time>2026-03-28T11:30:26.524Z</time></trkpt><trkpt lat="40.9275717" lon="15.4811033"><ele>443.6666666666667</ele><time>2026-03-28T11:30:28.524Z</time></trkpt><trkpt lat="40.9275467" lon="15.4810167"><ele>442.0</ele><time>2026-03-28T11:30:30.523Z</time></trkpt><trkpt lat="40.927495" lon="15.4809333"><ele>440.6</ele><time>2026-03-28T11:30:32.523Z</time></trkpt><trkpt lat="40.9274017" lon="15.4809117"><ele>439.20000000000005</ele><time>2026-03-28T11:30:34.524Z</time></trkpt><trkpt lat="40.9273033" lon="15.480905"><ele>437.8</ele><time>2026-03-28T11:30:36.524Z</time></trkpt><trkpt lat="40.92721" lon="15.48085"><ele>436.4</ele><time>2026-03-28T11:30:38.523Z</time></trkpt><trkpt lat="40.9271483" lon="15.48074"><ele>435.0</ele><time>2026-03-28T11:30:40.524Z</time></trkpt><trkpt lat="40.9271283" lon="15.480595"><ele>435.0</ele><time>2026-03-28T11:30:42.524Z</time></trkpt><trkpt lat="40.92714" lon="15.4804367"><ele>435.0</ele><time>2026-03-28T11:30:44.524Z</time></trkpt><trkpt lat="40.9271217" lon="15.4803133"><ele>435.0</ele><time>2026-03-28T11:30:46.523Z</time></trkpt><trkpt lat="40.9270633" lon="15.4802283"><ele>435.0</ele><time>2026-03-28T11:30:48.523Z</time></trkpt><trkpt lat="40.9269833" lon="15.4801417"><ele>435.0</ele><time>2026-03-28T11:30:50.524Z</time></trkpt><trkpt lat="40.9269367" lon="15.4800833"><ele>435.5</ele><time>2026-03-28T11:30:51.524Z</time></trkpt><trkpt lat="40.92689" lon="15.480015"><ele>436.0</ele><time>2026-03-28T11:30:52.524Z</time></trkpt><trkpt lat="40.92684" lon="15.4799417"><ele>436.5</ele><time>2026-03-28T11:30:53.524Z</time></trkpt><trkpt lat="40.926785" lon="15.479865"><ele>437.0</ele><time>2026-03-28T11:30:54.523Z</time></trkpt><trkpt lat="40.9267217" lon="15.47979"><ele>437.5</ele><time>2026-03-28T11:30:55.523Z</time></trkpt><trkpt lat="40.9266617" lon="15.4797183"><ele>438.0</ele><time>2026-03-28T11:30:56.524Z</time></trkpt><trkpt lat="40.9265917" lon="15.479655"><ele>439.0</ele><time>2026-03-28T11:30:57.523Z</time></trkpt><trkpt lat="40.9265283" lon="15.4795967"><ele>440.0</ele><time>2026-03-28T11:30:58.523Z</time></trkpt><trkpt lat="40.9264633" lon="15.47955"><ele>441.0</ele><time>2026-03-28T11:30:59.523Z</time></trkpt><trkpt lat="40.926395" lon="15.4794983"><ele>442.0</ele><time>2026-03-28T11:31:00.524Z</time></trkpt><trkpt lat="40.9263383" lon="15.4794517"><ele>443.0</ele><time>2026-03-28T11:31:01.523Z</time></trkpt><trkpt lat="40.9262867" lon="15.4793917"><ele>444.0</ele><time>2026-03-28T11:31:02.524Z</time></trkpt><trkpt lat="40.926235" lon="15.4793267"><ele>445.0</ele><time>2026-03-28T11:31:03.523Z</time></trkpt><trkpt lat="40.9261883" lon="15.4792633"><ele>445.0</ele><time>2026-03-28T11:31:04.524Z</time></trkpt><trkpt lat="40.9260917" lon="15.47917"><ele>445.0</ele><time>2026-03-28T11:31:06.523Z</time></trkpt><trkpt lat="40.9259783" lon="15.479165"><ele>445.0</ele><time>2026-03-28T11:31:08.524Z</time></trkpt><trkpt lat="40.92589" lon="15.479235"><ele>445.0</ele><time>2026-03-28T11:31:10.523Z</time></trkpt><trkpt lat="40.9258033" lon="15.47929"><ele>445.0</ele><time>2026-03-28T11:31:12.524Z</time></trkpt><trkpt lat="40.9257183" lon="15.47931"><ele>449.0</ele><time>2026-03-28T11:31:14.523Z</time></trkpt><trkpt lat="40.9256367" lon="15.4792733"><ele>453.0</ele><time>2026-03-28T11:31:16.523Z</time></trkpt><trkpt lat="40.92559" lon="15.479175"><ele>457.0</ele><time>2026-03-28T11:31:18.524Z</time></trkpt><trkpt lat="40.9255717" lon="15.47902"><ele>461.0</ele><time>2026-03-28T11:31:20.524Z</time></trkpt><trkpt lat="40.925575" lon="15.4788683"><ele>465.0</ele><time>2026-03-28T11:31:22.524Z</time></trkpt><trkpt lat="40.9255833" lon="15.4787317"><ele>466.0</ele><time>2026-03-28T11:31:24.524Z</time></trkpt><trkpt lat="40.92559" lon="15.4786083"><ele>467.0</ele><time>2026-03-28T11:31:26.523Z</time></trkpt><trkpt lat="40.9255867" lon="15.478485"><ele>468.0</ele><time>2026-03-28T11:31:28.523Z</time></trkpt><trkpt lat="40.9255483" lon="15.4783867"><ele>469.0</ele><time>2026-03-28T11:31:30.524Z</time></trkpt><trkpt lat="40.9254567" lon="15.4783583"><ele>470.0</ele><time>2026-03-28T11:31:32.524Z</time></trkpt><trkpt lat="40.9253933" lon="15.47837"><ele>471.0</ele><time>2026-03-28T11:31:33.524Z</time></trkpt><trkpt lat="40.9252717" lon="15.47839"><ele>471.0</ele><time>2026-03-28T11:31:35.523Z</time></trkpt><trkpt lat="40.9252017" lon="15.4783933"><ele>471.0</ele><time>2026-03-28T11:31:36.524Z</time></trkpt><trkpt lat="40.9251217" lon="15.4783983"><ele>471.0</ele><time>2026-03-28T11:31:37.524Z</time></trkpt><trkpt lat="40.9250467" lon="15.4783967"><ele>471.0</ele><time>2026-03-28T11:31:38.523Z</time></trkpt><trkpt lat="40.92498" lon="15.4783967"><ele>471.0</ele><time>2026-03-28T11:31:39.524Z</time></trkpt><trkpt lat="40.92487" lon="15.4783817"><ele>471.0</ele><time>2026-03-28T11:31:41.523Z</time></trkpt><trkpt lat="40.9247733" lon="15.4783433"><ele>473.5</ele><time>2026-03-28T11:31:43.524Z</time></trkpt><trkpt lat="40.92469" lon="15.4782333"><ele>476.0</ele><time>2026-03-28T11:31:45.524Z</time></trkpt><trkpt lat="40.9246483" lon="15.4781683"><ele>478.5</ele><time>2026-03-28T11:31:46.524Z</time></trkpt><trkpt lat="40.9246067" lon="15.478095"><ele>481.0</ele><time>2026-03-28T11:31:47.524Z</time></trkpt><trkpt lat="40.9245633" lon="15.4780233"><ele>483.5</ele><time>2026-03-28T11:31:48.523Z</time></trkpt><trkpt lat="40.924525" lon="15.4779533"><ele>486.0</ele><time>2026-03-28T11:31:49.523Z</time></trkpt><trkpt lat="40.9244933" lon="15.4778783"><ele>486.20000000000005</ele><time>2026-03-28T11:31:50.523Z</time></trkpt><trkpt lat="40.9244717" lon="15.477795"><ele>486.40000000000003</ele><time>2026-03-28T11:31:51.523Z</time></trkpt><trkpt lat="40.9244483" lon="15.4777067"><ele>486.6</ele><time>2026-03-28T11:31:52.524Z</time></trkpt><trkpt lat="40.9244283" lon="15.4776167"><ele>486.8</ele><time>2026-03-28T11:31:53.523Z</time></trkpt><trkpt lat="40.9244017" lon="15.47747"><ele>487.0</ele><time>2026-03-28T11:31:55.524Z</time></trkpt><trkpt lat="40.924345" lon="15.4773167"><ele>487.00000000000006</ele><time>2026-03-28T11:31:57.524Z</time></trkpt><trkpt lat="40.924315" lon="15.4772183"><ele>487.0</ele><time>2026-03-28T11:31:58.523Z</time></trkpt><trkpt lat="40.924285" lon="15.47711"><ele>487.0</ele><time>2026-03-28T11:31:59.524Z</time></trkpt><trkpt lat="40.9242633" lon="15.4769983"><ele>487.0</ele><time>2026-03-28T11:32:00.524Z</time></trkpt><trkpt lat="40.9242467" lon="15.476895"><ele>487.00000000000006</ele><time>2026-03-28T11:32:01.524Z</time></trkpt><trkpt lat="40.92422" lon="15.4767917"><ele>487.0</ele><time>2026-03-28T11:32:02.524Z</time></trkpt><trkpt lat="40.9241867" lon="15.4766983"><ele>490.83333333333337</ele><time>2026-03-28T11:32:03.523Z</time></trkpt><trkpt lat="40.9241483" lon="15.476615"><ele>494.6666666666667</ele><time>2026-03-28T11:32:04.524Z</time></trkpt><trkpt lat="40.9241083" lon="15.4765417"><ele>498.5</ele><time>2026-03-28T11:32:05.524Z</time></trkpt><trkpt lat="40.9240617" lon="15.47646"><ele>502.33333333333337</ele><time>2026-03-28T11:32:06.524Z</time></trkpt><trkpt lat="40.9240133" lon="15.476375"><ele>506.1666666666667</ele><time>2026-03-28T11:32:07.524Z</time></trkpt><trkpt lat="40.9239683" lon="15.4762883"><ele>510.0</ele><time>2026-03-28T11:32:08.523Z</time></trkpt><trkpt lat="40.9239233" lon="15.4762067"><ele>511.1666666666667</ele><time>2026-03-28T11:32:09.523Z</time></trkpt><trkpt lat="40.9238817" lon="15.4761283"><ele>512.3333333333334</ele><time>2026-03-28T11:32:10.523Z</time></trkpt><trkpt lat="40.9238433" lon="15.4760583"><ele>513.5</ele><time>2026-03-28T11:32:11.523Z</time></trkpt><trkpt lat="40.9237917" lon="15.4759083"><ele>514.6666666666667</ele><time>2026-03-28T11:32:13.524Z</time></trkpt><trkpt lat="40.9237783" lon="15.4758167"><ele>515.8333333333334</ele><time>2026-03-28T11:32:14.524Z</time></trkpt><trkpt lat="40.9237733" lon="15.4757167"><ele>517.0</ele><time>2026-03-28T11:32:15.525Z</time></trkpt><trkpt lat="40.9237667" lon="15.4756"><ele>517.0</ele><time>2026-03-28T11:32:16.525Z</time></trkpt><trkpt lat="40.92376" lon="15.47547"><ele>517.0</ele><time>2026-03-28T11:32:17.524Z</time></trkpt><trkpt lat="40.9237483" lon="15.4753233"><ele>517.0</ele><time>2026-03-28T11:32:18.524Z</time></trkpt><trkpt lat="40.9237367" lon="15.4751867"><ele>517.0</ele><time>2026-03-28T11:32:19.524Z</time></trkpt><trkpt lat="40.9237167" lon="15.4750383"><ele>517.0</ele><time>2026-03-28T11:32:20.525Z</time></trkpt><trkpt lat="40.923695" lon="15.4748833"><ele>517.5</ele><time>2026-03-28T11:32:21.525Z</time></trkpt><trkpt lat="40.923675" lon="15.47473"><ele>518.0</ele><time>2026-03-28T11:32:22.525Z</time></trkpt><trkpt lat="40.923655" lon="15.474575"><ele>518.5</ele><time>2026-03-28T11:32:23.524Z</time></trkpt><trkpt lat="40.9236333" lon="15.474415"><ele>519.0</ele><time>2026-03-28T11:32:24.525Z</time></trkpt><trkpt lat="40.9236167" lon="15.4742667"><ele>519.5</ele><time>2026-03-28T11:32:25.525Z</time></trkpt><trkpt lat="40.9235983" lon="15.4741133"><ele>520.0</ele><time>2026-03-28T11:32:26.524Z</time></trkpt><trkpt lat="40.9235783" lon="15.4739633"><ele>520.5</ele><time>2026-03-28T11:32:27.524Z</time></trkpt><trkpt lat="40.9235583" lon="15.4738117"><ele>521.0</ele><time>2026-03-28T11:32:28.524Z</time></trkpt><trkpt lat="40.9235367" lon="15.4736617"><ele>521.75</ele><time>2026-03-28T11:32:29.524Z</time></trkpt><trkpt lat="40.9235183" lon="15.4735067"><ele>522.5</ele><time>2026-03-28T11:32:30.524Z</time></trkpt><trkpt lat="40.9235017" lon="15.4733583"><ele>523.25</ele><time>2026-03-28T11:32:31.525Z</time></trkpt><trkpt lat="40.9234767" lon="15.473215"><ele>524.0</ele><time>2026-03-28T11:32:32.524Z</time></trkpt><trkpt lat="40.9234517" lon="15.47307"><ele>525.75</ele><time>2026-03-28T11:32:33.525Z</time></trkpt><trkpt lat="40.92342" lon="15.4729217"><ele>527.5</ele><time>2026-03-28T11:32:34.525Z</time></trkpt><trkpt lat="40.923385" lon="15.472775"><ele>529.25</ele><time>2026-03-28T11:32:35.524Z</time></trkpt><trkpt lat="40.9233483" lon="15.47263"><ele>531.0</ele><time>2026-03-28T11:32:36.524Z</time></trkpt><trkpt lat="40.9233067" lon="15.472475"><ele>532.75</ele><time>2026-03-28T11:32:37.525Z</time></trkpt><trkpt lat="40.9232633" lon="15.4723217"><ele>534.5</ele><time>2026-03-28T11:32:38.525Z</time></trkpt><trkpt lat="40.923215" lon="15.4721733"><ele>536.25</ele><time>2026-03-28T11:32:39.525Z</time></trkpt><trkpt lat="40.9231617" lon="15.4720317"><ele>538.0</ele><time>2026-03-28T11:32:40.525Z</time></trkpt><trkpt lat="40.9231017" lon="15.471895"><ele>539.1999999999999</ele><time>2026-03-28T11:32:41.524Z</time></trkpt><trkpt lat="40.9230533" lon="15.471765"><ele>540.4</ele><time>2026-03-28T11:32:42.525Z</time></trkpt><trkpt lat="40.9230133" lon="15.4716383"><ele>541.5999999999999</ele><time>2026-03-28T11:32:43.525Z</time></trkpt><trkpt lat="40.92297" lon="15.471515"><ele>542.8</ele><time>2026-03-28T11:32:44.525Z</time></trkpt><trkpt lat="40.92293" lon="15.4713917"><ele>544.0</ele><time>2026-03-28T11:32:45.525Z</time></trkpt><trkpt lat="40.9228833" lon="15.4712617"><ele>544.6</ele><time>2026-03-28T11:32:46.525Z</time></trkpt><trkpt lat="40.9228367" lon="15.471135"><ele>545.2</ele><time>2026-03-28T11:32:47.524Z</time></trkpt><trkpt lat="40.92279" lon="15.47101"><ele>545.8000000000001</ele><time>2026-03-28T11:32:48.525Z</time></trkpt><trkpt lat="40.9227367" lon="15.4708833"><ele>546.4</ele><time>2026-03-28T11:32:49.524Z</time></trkpt><trkpt lat="40.9226833" lon="15.470755"><ele>547.0</ele><time>2026-03-28T11:32:50.524Z</time></trkpt><trkpt lat="40.922625" lon="15.4706267"><ele>547.5</ele><time>2026-03-28T11:32:51.525Z</time></trkpt><trkpt lat="40.9225633" lon="15.470495"><ele>548.0</ele><time>2026-03-28T11:32:52.525Z</time></trkpt><trkpt lat="40.9224983" lon="15.47037"><ele>548.5</ele><time>2026-03-28T11:32:53.524Z</time></trkpt><trkpt lat="40.9224317" lon="15.47024"><ele>549.0</ele><time>2026-03-28T11:32:54.524Z</time></trkpt><trkpt lat="40.922365" lon="15.4701133"><ele>550.75</ele><time>2026-03-28T11:32:55.524Z</time></trkpt><trkpt lat="40.922295" lon="15.4699933"><ele>552.5</ele><time>2026-03-28T11:32:56.525Z</time></trkpt><trkpt lat="40.9222233" lon="15.4698717"><ele>554.25</ele><time>2026-03-28T11:32:57.525Z</time></trkpt><trkpt lat="40.92215" lon="15.469745"><ele>556.0</ele><time>2026-03-28T11:32:58.525Z</time></trkpt><trkpt lat="40.922075" lon="15.4696167"><ele>556.75</ele><time>2026-03-28T11:32:59.525Z</time></trkpt><trkpt lat="40.9220033" lon="15.469495"><ele>557.5</ele><time>2026-03-28T11:33:00.525Z</time></trkpt><trkpt lat="40.9219333" lon="15.4693733"><ele>558.25</ele><time>2026-03-28T11:33:01.524Z</time></trkpt><trkpt lat="40.921865" lon="15.46925"><ele>559.0</ele><time>2026-03-28T11:33:02.525Z</time></trkpt><trkpt lat="40.9217917" lon="15.4691267"><ele>560.25</ele><time>2026-03-28T11:33:03.525Z</time></trkpt><trkpt lat="40.9217167" lon="15.469005"><ele>561.5</ele><time>2026-03-28T11:33:04.525Z</time></trkpt><trkpt lat="40.9216517" lon="15.4688817"><ele>562.75</ele><time>2026-03-28T11:33:05.524Z</time></trkpt><trkpt lat="40.921585" lon="15.46876"><ele>564.0</ele><time>2026-03-28T11:33:06.524Z</time></trkpt><trkpt lat="40.9215183" lon="15.4686333"><ele>565.0</ele><time>2026-03-28T11:33:07.524Z</time></trkpt><trkpt lat="40.92146" lon="15.4685067"><ele>566.0</ele><time>2026-03-28T11:33:08.525Z</time></trkpt><trkpt lat="40.9214" lon="15.4683833"><ele>567.0</ele><time>2026-03-28T11:33:09.525Z</time></trkpt><trkpt lat="40.9213467" lon="15.4682583"><ele>568.0</ele><time>2026-03-28T11:33:10.525Z</time></trkpt><trkpt lat="40.9212967" lon="15.468145"><ele>569.0</ele><time>2026-03-28T11:33:11.525Z</time></trkpt><trkpt lat="40.92125" lon="15.468035"><ele>569.6666666666666</ele><time>2026-03-28T11:33:12.525Z</time></trkpt><trkpt lat="40.9212033" lon="15.467935"><ele>570.3333333333333</ele><time>2026-03-28T11:33:13.525Z</time></trkpt><trkpt lat="40.9211633" lon="15.4678367"><ele>571.0</ele><time>2026-03-28T11:33:14.524Z</time></trkpt><trkpt lat="40.9211233" lon="15.4677367"><ele>571.6666666666666</ele><time>2026-03-28T11:33:15.525Z</time></trkpt><trkpt lat="40.9210867" lon="15.46763"><ele>572.3333333333334</ele><time>2026-03-28T11:33:16.524Z</time></trkpt><trkpt lat="40.921055" lon="15.467535"><ele>573.0</ele><time>2026-03-28T11:33:17.524Z</time></trkpt><trkpt lat="40.921025" lon="15.467455"><ele>573.0</ele><time>2026-03-28T11:33:18.525Z</time></trkpt><trkpt lat="40.9209867" lon="15.4673283"><ele>573.0</ele><time>2026-03-28T11:33:20.525Z</time></trkpt><trkpt lat="40.9209383" lon="15.4672367"><ele>573.0</ele><time>2026-03-28T11:33:22.524Z</time></trkpt><trkpt lat="40.9208683" lon="15.4672583"><ele>573.0</ele><time>2026-03-28T11:33:24.525Z</time></trkpt><trkpt lat="40.9208" lon="15.4673983"><ele>573.0</ele><time>2026-03-28T11:33:26.525Z</time></trkpt><trkpt lat="40.9207633" lon="15.4675"><ele>573.0</ele><time>2026-03-28T11:33:27.525Z</time></trkpt><trkpt lat="40.9207183" lon="15.4676233"><ele>573.0</ele><time>2026-03-28T11:33:28.524Z</time></trkpt><trkpt lat="40.9206683" lon="15.467745"><ele>573.0</ele><time>2026-03-28T11:33:29.525Z</time></trkpt><trkpt lat="40.9206183" lon="15.4678683"><ele>573.0</ele><time>2026-03-28T11:33:30.524Z</time></trkpt><trkpt lat="40.92056" lon="15.4679967"><ele>573.0</ele><time>2026-03-28T11:33:31.525Z</time></trkpt><trkpt lat="40.9205067" lon="15.4681283"><ele>571.5</ele><time>2026-03-28T11:33:32.525Z</time></trkpt><trkpt lat="40.92045" lon="15.4682667"><ele>570.0</ele><time>2026-03-28T11:33:33.524Z</time></trkpt><trkpt lat="40.920395" lon="15.4684067"><ele>568.5</ele><time>2026-03-28T11:33:34.525Z</time></trkpt><trkpt lat="40.9203367" lon="15.468545"><ele>567.0</ele><time>2026-03-28T11:33:35.525Z</time></trkpt><trkpt lat="40.9202867" lon="15.4686683"><ele>567.0</ele><time>2026-03-28T11:33:36.525Z</time></trkpt><trkpt lat="40.9202483" lon="15.4687733"><ele>567.0</ele><time>2026-03-28T11:33:37.525Z</time></trkpt><trkpt lat="40.9202083" lon="15.4688833"><ele>567.0</ele><time>2026-03-28T11:33:38.524Z</time></trkpt><trkpt lat="40.9201617" lon="15.4690083"><ele>567.0</ele><time>2026-03-28T11:33:39.525Z</time></trkpt><trkpt lat="40.92011" lon="15.4691233"><ele>567.0</ele><time>2026-03-28T11:33:40.525Z</time></trkpt><trkpt lat="40.9200533" lon="15.4692483"><ele>564.4</ele><time>2026-03-28T11:33:41.524Z</time></trkpt><trkpt lat="40.9200033" lon="15.469375"><ele>561.8000000000001</ele><time>2026-03-28T11:33:42.525Z</time></trkpt><trkpt lat="40.9199533" lon="15.4695017"><ele>559.2</ele><time>2026-03-28T11:33:43.525Z</time></trkpt><trkpt lat="40.9199" lon="15.4696333"><ele>556.6</ele><time>2026-03-28T11:33:44.524Z</time></trkpt><trkpt lat="40.9198483" lon="15.4697633"><ele>554.0</ele><time>2026-03-28T11:33:45.525Z</time></trkpt><trkpt lat="40.9198017" lon="15.46989"><ele>552.0</ele><time>2026-03-28T11:33:46.525Z</time></trkpt><trkpt lat="40.9197567" lon="15.470015"><ele>550.0</ele><time>2026-03-28T11:33:47.524Z</time></trkpt><trkpt lat="40.9197133" lon="15.4701383"><ele>548.0</ele><time>2026-03-28T11:33:48.525Z</time></trkpt><trkpt lat="40.91967" lon="15.470265"><ele>546.0</ele><time>2026-03-28T11:33:49.525Z</time></trkpt><trkpt lat="40.91963" lon="15.470395"><ele>544.0</ele><time>2026-03-28T11:33:50.525Z</time></trkpt><trkpt lat="40.91959" lon="15.4705283"><ele>541.8</ele><time>2026-03-28T11:33:51.524Z</time></trkpt><trkpt lat="40.9195533" lon="15.47066"><ele>539.5999999999999</ele><time>2026-03-28T11:33:52.525Z</time></trkpt><trkpt lat="40.919515" lon="15.4707933"><ele>537.4</ele><time>2026-03-28T11:33:53.525Z</time></trkpt><trkpt lat="40.9194867" lon="15.4709283"><ele>535.1999999999999</ele><time>2026-03-28T11:33:54.524Z</time></trkpt><trkpt lat="40.9194483" lon="15.4710583"><ele>533.0</ele><time>2026-03-28T11:33:55.524Z</time></trkpt><trkpt lat="40.919415" lon="15.4711933"><ele>531.6</ele><time>2026-03-28T11:33:56.525Z</time></trkpt><trkpt lat="40.9193817" lon="15.4713217"><ele>530.1999999999999</ele><time>2026-03-28T11:33:57.525Z</time></trkpt><trkpt lat="40.9193483" lon="15.47144"><ele>528.8</ele><time>2026-03-28T11:33:58.525Z</time></trkpt><trkpt lat="40.919315" lon="15.4715517"><ele>527.4</ele><time>2026-03-28T11:33:59.525Z</time></trkpt><trkpt lat="40.9192867" lon="15.47167"><ele>526.0</ele><time>2026-03-28T11:34:00.525Z</time></trkpt><trkpt lat="40.9192617" lon="15.4717933"><ele>526.4</ele><time>2026-03-28T11:34:01.524Z</time></trkpt><trkpt lat="40.9192317" lon="15.47192"><ele>526.8</ele><time>2026-03-28T11:34:02.524Z</time></trkpt><trkpt lat="40.9191983" lon="15.4720517"><ele>527.1999999999999</ele><time>2026-03-28T11:34:03.525Z</time></trkpt><trkpt lat="40.9191567" lon="15.472185"><ele>527.6</ele><time>2026-03-28T11:34:04.525Z</time></trkpt><trkpt lat="40.9191133" lon="15.4723167"><ele>528.0</ele><time>2026-03-28T11:34:05.525Z</time></trkpt><trkpt lat="40.9190583" lon="15.4724433"><ele>526.0</ele><time>2026-03-28T11:34:06.525Z</time></trkpt><trkpt lat="40.919005" lon="15.472565"><ele>524.0</ele><time>2026-03-28T11:34:07.525Z</time></trkpt><trkpt lat="40.9189483" lon="15.47268"><ele>522.0</ele><time>2026-03-28T11:34:08.525Z</time></trkpt><trkpt lat="40.9188817" lon="15.4727933"><ele>520.0</ele><time>2026-03-28T11:34:09.524Z</time></trkpt><trkpt lat="40.9188167" lon="15.4729083"><ele>518.0</ele><time>2026-03-28T11:34:10.525Z</time></trkpt><trkpt lat="40.918745" lon="15.4730283"><ele>516.5</ele><time>2026-03-28T11:34:11.525Z</time></trkpt><trkpt lat="40.9186817" lon="15.47314"><ele>515.0</ele><time>2026-03-28T11:34:12.525Z</time></trkpt><trkpt lat="40.9186083" lon="15.47326"><ele>513.5</ele><time>2026-03-28T11:34:13.524Z</time></trkpt><trkpt lat="40.9185317" lon="15.473375"><ele>512.0</ele><time>2026-03-28T11:34:14.525Z</time></trkpt><trkpt lat="40.91845" lon="15.4735"><ele>512.25</ele><time>2026-03-28T11:34:15.525Z</time></trkpt><trkpt lat="40.9183733" lon="15.4736233"><ele>512.5</ele><time>2026-03-28T11:34:16.524Z</time></trkpt><trkpt lat="40.9182933" lon="15.4737417"><ele>512.75</ele><time>2026-03-28T11:34:17.525Z</time></trkpt><trkpt lat="40.9182083" lon="15.4738683"><ele>513.0</ele><time>2026-03-28T11:34:18.524Z</time></trkpt><trkpt lat="40.918125" lon="15.4739967"><ele>513.0</ele><time>2026-03-28T11:34:19.525Z</time></trkpt><trkpt lat="40.9180467" lon="15.4741167"><ele>513.0</ele><time>2026-03-28T11:34:20.524Z</time></trkpt><trkpt lat="40.9179683" lon="15.4742333"><ele>513.0</ele><time>2026-03-28T11:34:21.524Z</time></trkpt><trkpt lat="40.9178867" lon="15.4743433"><ele>513.0</ele><time>2026-03-28T11:34:22.525Z</time></trkpt><trkpt lat="40.9178033" lon="15.4744517"><ele>513.0</ele><time>2026-03-28T11:34:23.525Z</time></trkpt><trkpt lat="40.9177133" lon="15.4745483"><ele>513.0</ele><time>2026-03-28T11:34:24.525Z</time></trkpt><trkpt lat="40.9176183" lon="15.47465"><ele>513.0</ele><time>2026-03-28T11:34:25.525Z</time></trkpt><trkpt lat="40.9175183" lon="15.4747567"><ele>513.0</ele><time>2026-03-28T11:34:26.525Z</time></trkpt><trkpt lat="40.9174383" lon="15.474855"><ele>514.0</ele><time>2026-03-28T11:34:27.525Z</time></trkpt><trkpt lat="40.91735" lon="15.4749483"><ele>515.0</ele><time>2026-03-28T11:34:28.524Z</time></trkpt><trkpt lat="40.917275" lon="15.475035"><ele>516.0</ele><time>2026-03-28T11:34:29.525Z</time></trkpt><trkpt lat="40.9172017" lon="15.4751117"><ele>517.0</ele><time>2026-03-28T11:34:30.525Z</time></trkpt><trkpt lat="40.9171217" lon="15.475185"><ele>518.0</ele><time>2026-03-28T11:34:31.524Z</time></trkpt><trkpt lat="40.9170333" lon="15.475255"><ele>518.0</ele><time>2026-03-28T11:34:32.525Z</time></trkpt><trkpt lat="40.9169417" lon="15.4753167"><ele>518.0</ele><time>2026-03-28T11:34:33.524Z</time></trkpt><trkpt lat="40.9168483" lon="15.4753717"><ele>518.0</ele><time>2026-03-28T11:34:34.524Z</time></trkpt><trkpt lat="40.9167533" lon="15.4754083"><ele>518.0</ele><time>2026-03-28T11:34:35.524Z</time></trkpt><trkpt lat="40.916655" lon="15.4754383"><ele>518.0</ele><time>2026-03-28T11:34:36.525Z</time></trkpt><trkpt lat="40.9165383" lon="15.4754583"><ele>517.0</ele><time>2026-03-28T11:34:37.525Z</time></trkpt><trkpt lat="40.9164233" lon="15.4754667"><ele>516.0</ele><time>2026-03-28T11:34:38.525Z</time></trkpt><trkpt lat="40.9163083" lon="15.4754683"><ele>515.0</ele><time>2026-03-28T11:34:39.525Z</time></trkpt><trkpt lat="40.9161883" lon="15.475465"><ele>514.0</ele><time>2026-03-28T11:34:40.524Z</time></trkpt><trkpt lat="40.91608" lon="15.4754583"><ele>514.0</ele><time>2026-03-28T11:34:41.525Z</time></trkpt><trkpt lat="40.9159617" lon="15.4754583"><ele>514.0</ele><time>2026-03-28T11:34:42.525Z</time></trkpt><trkpt lat="40.9158367" lon="15.4754617"><ele>514.0</ele><time>2026-03-28T11:34:43.524Z</time></trkpt><trkpt lat="40.9157317" lon="15.4754667"><ele>514.0</ele><time>2026-03-28T11:34:44.525Z</time></trkpt><trkpt lat="40.91564" lon="15.47547"><ele>514.0</ele><time>2026-03-28T11:34:45.525Z</time></trkpt><trkpt lat="40.9155567" lon="15.475485"><ele>514.6666666666667</ele><time>2026-03-28T11:34:46.524Z</time></trkpt><trkpt lat="40.915475" lon="15.475515"><ele>515.3333333333334</ele><time>2026-03-28T11:34:47.524Z</time></trkpt><trkpt lat="40.9154117" lon="15.4755617"><ele>516.0</ele><time>2026-03-28T11:34:48.525Z</time></trkpt><trkpt lat="40.915355" lon="15.4756317"><ele>516.6666666666666</ele><time>2026-03-28T11:34:49.524Z</time></trkpt><trkpt lat="40.915305" lon="15.4757133"><ele>517.3333333333333</ele><time>2026-03-28T11:34:50.524Z</time></trkpt><trkpt lat="40.9152567" lon="15.47581"><ele>518.0</ele><time>2026-03-28T11:34:51.525Z</time></trkpt><trkpt lat="40.91522" lon="15.4759183"><ele>518.0</ele><time>2026-03-28T11:34:52.524Z</time></trkpt><trkpt lat="40.9152017" lon="15.47603"><ele>518.0</ele><time>2026-03-28T11:34:53.524Z</time></trkpt><trkpt lat="40.9151883" lon="15.4761483"><ele>518.0</ele><time>2026-03-28T11:34:54.525Z</time></trkpt><trkpt lat="40.9151767" lon="15.4762583"><ele>518.0</ele><time>2026-03-28T11:34:55.525Z</time></trkpt><trkpt lat="40.9151617" lon="15.4763667"><ele>518.0</ele><time>2026-03-28T11:34:56.524Z</time></trkpt><trkpt lat="40.9151383" lon="15.4764733"><ele>518.0</ele><time>2026-03-28T11:34:57.524Z</time></trkpt><trkpt lat="40.9151067" lon="15.4765767"><ele>518.8</ele><time>2026-03-28T11:34:58.525Z</time></trkpt><trkpt lat="40.9150667" lon="15.47668"><ele>519.5999999999999</ele><time>2026-03-28T11:34:59.525Z</time></trkpt><trkpt lat="40.915015" lon="15.4767917"><ele>520.4000000000001</ele><time>2026-03-28T11:35:00.525Z</time></trkpt><trkpt lat="40.914955" lon="15.4769017"><ele>521.2</ele><time>2026-03-28T11:35:01.525Z</time></trkpt><trkpt lat="40.9148917" lon="15.4770167"><ele>522.0</ele><time>2026-03-28T11:35:02.525Z</time></trkpt><trkpt lat="40.9148283" lon="15.47712"><ele>519.2</ele><time>2026-03-28T11:35:03.524Z</time></trkpt><trkpt lat="40.914765" lon="15.4772167"><ele>516.4000000000001</ele><time>2026-03-28T11:35:04.525Z</time></trkpt><trkpt lat="40.9147067" lon="15.4773117"><ele>513.5999999999999</ele><time>2026-03-28T11:35:05.525Z</time></trkpt><trkpt lat="40.914645" lon="15.47741"><ele>510.79999999999995</ele><time>2026-03-28T11:35:06.524Z</time></trkpt><trkpt lat="40.9146033" lon="15.4775183"><ele>508.0</ele><time>2026-03-28T11:35:07.525Z</time></trkpt><trkpt lat="40.914575" lon="15.477635"><ele>508.0</ele><time>2026-03-28T11:35:08.524Z</time></trkpt><trkpt lat="40.914565" lon="15.4777617"><ele>507.99999999999994</ele><time>2026-03-28T11:35:09.525Z</time></trkpt><trkpt lat="40.9145683" lon="15.4778933"><ele>507.99999999999994</ele><time>2026-03-28T11:35:10.525Z</time></trkpt><trkpt lat="40.9145783" lon="15.4780267"><ele>508.0</ele><time>2026-03-28T11:35:11.525Z</time></trkpt><trkpt lat="40.9145967" lon="15.478155"><ele>508.0</ele><time>2026-03-28T11:35:12.524Z</time></trkpt><trkpt lat="40.9146033" lon="15.4782833"><ele>507.2</ele><time>2026-03-28T11:35:13.524Z</time></trkpt><trkpt lat="40.9146067" lon="15.4784167"><ele>506.4</ele><time>2026-03-28T11:35:14.524Z</time></trkpt><trkpt lat="40.914595" lon="15.47855"><ele>505.59999999999997</ele><time>2026-03-28T11:35:15.525Z</time></trkpt><trkpt lat="40.9145683" lon="15.4786883"><ele>504.79999999999995</ele><time>2026-03-28T11:35:16.525Z</time></trkpt><trkpt lat="40.9145283" lon="15.4788367"><ele>504.0</ele><time>2026-03-28T11:35:17.524Z</time></trkpt><trkpt lat="40.9144867" lon="15.47899"><ele>504.0</ele><time>2026-03-28T11:35:18.525Z</time></trkpt><trkpt lat="40.91444" lon="15.47915"><ele>504.0</ele><time>2026-03-28T11:35:19.524Z</time></trkpt><trkpt lat="40.9144017" lon="15.4793033"><ele>504.0</ele><time>2026-03-28T11:35:20.525Z</time></trkpt><trkpt lat="40.9143683" lon="15.4794467"><ele>504.0</ele><time>2026-03-28T11:35:21.524Z</time></trkpt><trkpt lat="40.91433" lon="15.47959"><ele>504.2</ele><time>2026-03-28T11:35:22.524Z</time></trkpt><trkpt lat="40.9142883" lon="15.4797217"><ele>504.4</ele><time>2026-03-28T11:35:23.525Z</time></trkpt><trkpt lat="40.9142383" lon="15.4798483"><ele>504.6</ele><time>2026-03-28T11:35:24.524Z</time></trkpt><trkpt lat="40.9141833" lon="15.47998"><ele>504.8</ele><time>2026-03-28T11:35:25.525Z</time></trkpt><trkpt lat="40.9141267" lon="15.4801117"><ele>505.0</ele><time>2026-03-28T11:35:26.525Z</time></trkpt><trkpt lat="40.9140667" lon="15.4802433"><ele>508.5</ele><time>2026-03-28T11:35:27.525Z</time></trkpt><trkpt lat="40.9139967" lon="15.480375"><ele>512.0</ele><time>2026-03-28T11:35:28.524Z</time></trkpt><trkpt lat="40.9139283" lon="15.4805067"><ele>515.5</ele><time>2026-03-28T11:35:29.525Z</time></trkpt><trkpt lat="40.9138667" lon="15.48063"><ele>519.0</ele><time>2026-03-28T11:35:30.525Z</time></trkpt><trkpt lat="40.9138" lon="15.4807517"><ele>519.0</ele><time>2026-03-28T11:35:31.524Z</time></trkpt><trkpt lat="40.913735" lon="15.4808633"><ele>519.0</ele><time>2026-03-28T11:35:32.525Z</time></trkpt><trkpt lat="40.9136783" lon="15.4809567"><ele>519.0</ele><time>2026-03-28T11:35:33.524Z</time></trkpt><trkpt lat="40.9136267" lon="15.4810433"><ele>519.0</ele><time>2026-03-28T11:35:34.524Z</time></trkpt><trkpt lat="40.9135683" lon="15.481125"><ele>519.0</ele><time>2026-03-28T11:35:35.524Z</time></trkpt><trkpt lat="40.9135083" lon="15.4811967"><ele>519.0</ele><time>2026-03-28T11:35:36.525Z</time></trkpt><trkpt lat="40.913455" lon="15.481255"><ele>518.6666666666666</ele><time>2026-03-28T11:35:37.525Z</time></trkpt><trkpt lat="40.9134017" lon="15.4813083"><ele>518.3333333333334</ele><time>2026-03-28T11:35:38.525Z</time></trkpt><trkpt lat="40.9133367" lon="15.4813483"><ele>518.0</ele><time>2026-03-28T11:35:39.525Z</time></trkpt><trkpt lat="40.9132667" lon="15.4813867"><ele>517.6666666666667</ele><time>2026-03-28T11:35:40.524Z</time></trkpt><trkpt lat="40.9131917" lon="15.4814183"><ele>517.3333333333334</ele><time>2026-03-28T11:35:41.524Z</time></trkpt><trkpt lat="40.913105" lon="15.4814383"><ele>517.0</ele><time>2026-03-28T11:35:42.524Z</time></trkpt><trkpt lat="40.9130183" lon="15.4814483"><ele>517.0</ele><time>2026-03-28T11:35:43.524Z</time></trkpt><trkpt lat="40.9129217" lon="15.4814583"><ele>517.0</ele><time>2026-03-28T11:35:44.525Z</time></trkpt><trkpt lat="40.91282" lon="15.4814783"><ele>517.0</ele><time>2026-03-28T11:35:45.524Z</time></trkpt><trkpt lat="40.9127167" lon="15.4815"><ele>517.0</ele><time>2026-03-28T11:35:46.524Z</time></trkpt><trkpt lat="40.9126033" lon="15.481525"><ele>517.0</ele><time>2026-03-28T11:35:47.525Z</time></trkpt><trkpt lat="40.9124983" lon="15.4815483"><ele>515.0</ele><time>2026-03-28T11:35:48.525Z</time></trkpt><trkpt lat="40.9123967" lon="15.4815717"><ele>513.0</ele><time>2026-03-28T11:35:49.524Z</time></trkpt><trkpt lat="40.9123" lon="15.4815933"><ele>511.00000000000006</ele><time>2026-03-28T11:35:50.525Z</time></trkpt><trkpt lat="40.9122" lon="15.4816133"><ele>509.0</ele><time>2026-03-28T11:35:51.524Z</time></trkpt><trkpt lat="40.912105" lon="15.481635"><ele>507.0</ele><time>2026-03-28T11:35:52.525Z</time></trkpt><trkpt lat="40.9120067" lon="15.4816467"><ele>507.0</ele><time>2026-03-28T11:35:53.525Z</time></trkpt><trkpt lat="40.9119017" lon="15.4816517"><ele>507.00000000000006</ele><time>2026-03-28T11:35:54.525Z</time></trkpt><trkpt lat="40.911795" lon="15.4816583"><ele>507.00000000000006</ele><time>2026-03-28T11:35:55.525Z</time></trkpt><trkpt lat="40.9116833" lon="15.4816517"><ele>507.0</ele><time>2026-03-28T11:35:56.525Z</time></trkpt><trkpt lat="40.9115717" lon="15.48164"><ele>507.0</ele><time>2026-03-28T11:35:57.525Z</time></trkpt><trkpt lat="40.9114617" lon="15.481625"><ele>507.20000000000005</ele><time>2026-03-28T11:35:58.525Z</time></trkpt><trkpt lat="40.9113617" lon="15.4816033"><ele>507.40000000000003</ele><time>2026-03-28T11:35:59.524Z</time></trkpt><trkpt lat="40.9112667" lon="15.4815733"><ele>507.59999999999997</ele><time>2026-03-28T11:36:00.525Z</time></trkpt><trkpt lat="40.9111667" lon="15.4815333"><ele>507.79999999999995</ele><time>2026-03-28T11:36:01.524Z</time></trkpt><trkpt lat="40.9110717" lon="15.4814933"><ele>508.0</ele><time>2026-03-28T11:36:02.524Z</time></trkpt><trkpt lat="40.9109833" lon="15.4814617"><ele>508.0</ele><time>2026-03-28T11:36:03.525Z</time></trkpt><trkpt lat="40.9108933" lon="15.4814267"><ele>507.99999999999994</ele><time>2026-03-28T11:36:04.524Z</time></trkpt><trkpt lat="40.910805" lon="15.4813883"><ele>507.99999999999994</ele><time>2026-03-28T11:36:05.524Z</time></trkpt><trkpt lat="40.910715" lon="15.4813567"><ele>508.0</ele><time>2026-03-28T11:36:06.525Z</time></trkpt><trkpt lat="40.9106233" lon="15.48133"><ele>508.0</ele><time>2026-03-28T11:36:07.525Z</time></trkpt><trkpt lat="40.9105233" lon="15.4813083"><ele>508.0</ele><time>2026-03-28T11:36:08.524Z</time></trkpt><trkpt lat="40.9104217" lon="15.4812867"><ele>507.99999999999994</ele><time>2026-03-28T11:36:09.525Z</time></trkpt><trkpt lat="40.9103233" lon="15.48127"><ele>507.99999999999994</ele><time>2026-03-28T11:36:10.524Z</time></trkpt><trkpt lat="40.91023" lon="15.4812483"><ele>508.0</ele><time>2026-03-28T11:36:11.525Z</time></trkpt><trkpt lat="40.9101333" lon="15.4812317"><ele>508.0</ele><time>2026-03-28T11:36:12.525Z</time></trkpt><trkpt lat="40.910035" lon="15.481215"><ele>505.4</ele><time>2026-03-28T11:36:13.524Z</time></trkpt><trkpt lat="40.9099367" lon="15.4811833"><ele>502.79999999999995</ele><time>2026-03-28T11:36:14.524Z</time></trkpt><trkpt lat="40.909845" lon="15.4811667"><ele>500.2</ele><time>2026-03-28T11:36:15.525Z</time></trkpt><trkpt lat="40.9097533" lon="15.4811517"><ele>497.6</ele><time>2026-03-28T11:36:16.525Z</time></trkpt><trkpt lat="40.9096683" lon="15.4811383"><ele>495.0</ele><time>2026-03-28T11:36:17.525Z</time></trkpt><trkpt lat="40.9095883" lon="15.4811217"><ele>495.0</ele><time>2026-03-28T11:36:18.525Z</time></trkpt><trkpt lat="40.9095017" lon="15.48111"><ele>495.0</ele><time>2026-03-28T11:36:19.525Z</time></trkpt><trkpt lat="40.90942" lon="15.4810983"><ele>495.0</ele><time>2026-03-28T11:36:20.525Z</time></trkpt><trkpt lat="40.9093367" lon="15.4810967"><ele>495.0</ele><time>2026-03-28T11:36:21.525Z</time></trkpt><trkpt lat="40.9092533" lon="15.48109"><ele>495.0</ele><time>2026-03-28T11:36:22.525Z</time></trkpt><trkpt lat="40.909175" lon="15.4810833"><ele>495.0</ele><time>2026-03-28T11:36:23.525Z</time></trkpt><trkpt lat="40.9090967" lon="15.4810767"><ele>494.99999999999994</ele><time>2026-03-28T11:36:24.525Z</time></trkpt><trkpt lat="40.9090217" lon="15.4810667"><ele>495.0</ele><time>2026-03-28T11:36:25.524Z</time></trkpt><trkpt lat="40.9089483" lon="15.481055"><ele>494.99999999999994</ele><time>2026-03-28T11:36:26.524Z</time></trkpt><trkpt lat="40.9088767" lon="15.4810417"><ele>494.99999999999994</ele><time>2026-03-28T11:36:27.525Z</time></trkpt><trkpt lat="40.9088083" lon="15.4810333"><ele>495.0</ele><time>2026-03-28T11:36:28.525Z</time></trkpt><trkpt lat="40.908735" lon="15.481025"><ele>494.99999999999994</ele><time>2026-03-28T11:36:29.525Z</time></trkpt><trkpt lat="40.90866" lon="15.4810317"><ele>494.99999999999994</ele><time>2026-03-28T11:36:30.525Z</time></trkpt><trkpt lat="40.9085833" lon="15.4810667"><ele>495.0</ele><time>2026-03-28T11:36:31.525Z</time></trkpt><trkpt lat="40.9085" lon="15.4811183"><ele>495.0</ele><time>2026-03-28T11:36:32.525Z</time></trkpt><trkpt lat="40.90841" lon="15.481175"><ele>495.0</ele><time>2026-03-28T11:36:33.524Z</time></trkpt><trkpt lat="40.90832" lon="15.4812383"><ele>495.0</ele><time>2026-03-28T11:36:34.524Z</time></trkpt><trkpt lat="40.9082233" lon="15.4813033"><ele>495.0</ele><time>2026-03-28T11:36:35.525Z</time></trkpt><trkpt lat="40.9081317" lon="15.48137"><ele>487.75</ele><time>2026-03-28T11:36:36.525Z</time></trkpt><trkpt lat="40.9080333" lon="15.4814417"><ele>480.5</ele><time>2026-03-28T11:36:37.525Z</time></trkpt><trkpt lat="40.90793" lon="15.4815167"><ele>473.25</ele><time>2026-03-28T11:36:38.525Z</time></trkpt><trkpt lat="40.9078283" lon="15.48159"><ele>466.0</ele><time>2026-03-28T11:36:39.525Z</time></trkpt><trkpt lat="40.9077333" lon="15.4816567"><ele>466.0</ele><time>2026-03-28T11:36:40.524Z</time></trkpt><trkpt lat="40.90763" lon="15.48173"><ele>466.0</ele><time>2026-03-28T11:36:41.525Z</time></trkpt><trkpt lat="40.9075383" lon="15.481805"><ele>466.0</ele><time>2026-03-28T11:36:42.524Z</time></trkpt><trkpt lat="40.9074483" lon="15.4818767"><ele>466.0</ele><time>2026-03-28T11:36:43.525Z</time></trkpt><trkpt lat="40.90736" lon="15.4819383"><ele>466.0</ele><time>2026-03-28T11:36:44.524Z</time></trkpt><trkpt lat="40.90727" lon="15.4819917"><ele>466.6</ele><time>2026-03-28T11:36:45.525Z</time></trkpt><trkpt lat="40.9071817" lon="15.48204"><ele>467.20000000000005</ele><time>2026-03-28T11:36:46.524Z</time></trkpt><trkpt lat="40.9070867" lon="15.4820783"><ele>467.79999999999995</ele><time>2026-03-28T11:36:47.525Z</time></trkpt><trkpt lat="40.906975" lon="15.482105"><ele>468.4</ele><time>2026-03-28T11:36:48.524Z</time></trkpt><trkpt lat="40.906865" lon="15.4821167"><ele>469.0</ele><time>2026-03-28T11:36:49.524Z</time></trkpt><trkpt lat="40.9067633" lon="15.4821217"><ele>470.6</ele><time>2026-03-28T11:36:50.524Z</time></trkpt><trkpt lat="40.9066617" lon="15.48211"><ele>472.2</ele><time>2026-03-28T11:36:51.524Z</time></trkpt><trkpt lat="40.9065567" lon="15.4820917"><ele>473.80000000000007</ele><time>2026-03-28T11:36:52.524Z</time></trkpt><trkpt lat="40.9064583" lon="15.4820617"><ele>475.40000000000003</ele><time>2026-03-28T11:36:53.525Z</time></trkpt><trkpt lat="40.9063717" lon="15.482035"><ele>477.0</ele><time>2026-03-28T11:36:54.525Z</time></trkpt><trkpt lat="40.9062883" lon="15.4820167"><ele>477.0</ele><time>2026-03-28T11:36:55.525Z</time></trkpt><trkpt lat="40.906215" lon="15.4820067"><ele>477.00000000000006</ele><time>2026-03-28T11:36:56.524Z</time></trkpt><trkpt lat="40.9061517" lon="15.482"><ele>477.00000000000006</ele><time>2026-03-28T11:36:57.524Z</time></trkpt><trkpt lat="40.906045" lon="15.481945"><ele>477.0</ele><time>2026-03-28T11:36:59.525Z</time></trkpt><trkpt lat="40.90594" lon="15.481835"><ele>477.0</ele><time>2026-03-28T11:37:01.524Z</time></trkpt><trkpt lat="40.9058917" lon="15.4817783"><ele>477.20000000000005</ele><time>2026-03-28T11:37:02.525Z</time></trkpt><trkpt lat="40.90584" lon="15.4817117"><ele>477.40000000000003</ele><time>2026-03-28T11:37:03.524Z</time></trkpt><trkpt lat="40.9057717" lon="15.4815933"><ele>477.59999999999997</ele><time>2026-03-28T11:37:05.524Z</time></trkpt><trkpt lat="40.9057267" lon="15.4814633"><ele>477.79999999999995</ele><time>2026-03-28T11:37:07.525Z</time></trkpt><trkpt lat="40.9056867" lon="15.4813133"><ele>478.0</ele><time>2026-03-28T11:37:09.524Z</time></trkpt><trkpt lat="40.905665" lon="15.4812317"><ele>478.4285714285715</ele><time>2026-03-28T11:37:10.524Z</time></trkpt><trkpt lat="40.9056433" lon="15.4811467"><ele>478.8571428571429</ele><time>2026-03-28T11:37:11.524Z</time></trkpt><trkpt lat="40.9056267" lon="15.4810583"><ele>479.2857142857143</ele><time>2026-03-28T11:37:12.524Z</time></trkpt><trkpt lat="40.9056033" lon="15.480975"><ele>479.7142857142857</ele><time>2026-03-28T11:37:13.525Z</time></trkpt><trkpt lat="40.9055767" lon="15.4808867"><ele>480.1428571428571</ele><time>2026-03-28T11:37:14.525Z</time></trkpt><trkpt lat="40.905555" lon="15.4807933"><ele>480.5714285714285</ele><time>2026-03-28T11:37:15.525Z</time></trkpt><trkpt lat="40.9055383" lon="15.4807017"><ele>480.99999999999994</ele><time>2026-03-28T11:37:16.524Z</time></trkpt><trkpt lat="40.90552" lon="15.4806067"><ele>480.99999999999994</ele><time>2026-03-28T11:37:17.524Z</time></trkpt><trkpt lat="40.9055083" lon="15.4805117"><ele>481.0</ele><time>2026-03-28T11:37:18.525Z</time></trkpt><trkpt lat="40.9054983" lon="15.48042"><ele>480.99999999999994</ele><time>2026-03-28T11:37:19.524Z</time></trkpt><trkpt lat="40.9054967" lon="15.4803283"><ele>480.99999999999994</ele><time>2026-03-28T11:37:20.524Z</time></trkpt><trkpt lat="40.9054917" lon="15.4802317"><ele>481.0</ele><time>2026-03-28T11:37:21.524Z</time></trkpt><trkpt lat="40.905485" lon="15.4801367"><ele>480.99999999999994</ele><time>2026-03-28T11:37:22.524Z</time></trkpt><trkpt lat="40.9054767" lon="15.480045"><ele>480.99999999999994</ele><time>2026-03-28T11:37:23.524Z</time></trkpt><trkpt lat="40.9054667" lon="15.4799567"><ele>481.33333333333337</ele><time>2026-03-28T11:37:24.524Z</time></trkpt><trkpt lat="40.9054567" lon="15.4797883"><ele>481.6666666666667</ele><time>2026-03-28T11:37:26.525Z</time></trkpt><trkpt lat="40.9054433" lon="15.4797017"><ele>482.0</ele><time>2026-03-28T11:37:27.525Z</time></trkpt><trkpt lat="40.905435" lon="15.4796117"><ele>482.33333333333337</ele><time>2026-03-28T11:37:28.524Z</time></trkpt><trkpt lat="40.9054267" lon="15.479525"><ele>482.6666666666667</ele><time>2026-03-28T11:37:29.524Z</time></trkpt><trkpt lat="40.9054217" lon="15.4794367"><ele>483.0</ele><time>2026-03-28T11:37:30.525Z</time></trkpt><trkpt lat="40.905415" lon="15.4793517"><ele>482.2</ele><time>2026-03-28T11:37:31.525Z</time></trkpt><trkpt lat="40.9054133" lon="15.4792683"><ele>481.4</ele><time>2026-03-28T11:37:32.525Z</time></trkpt><trkpt lat="40.9054017" lon="15.4791267"><ele>480.59999999999997</ele><time>2026-03-28T11:37:34.525Z</time></trkpt><trkpt lat="40.905385" lon="15.4789883"><ele>479.79999999999995</ele><time>2026-03-28T11:37:36.525Z</time></trkpt><trkpt lat="40.9053917" lon="15.4788483"><ele>479.0</ele><time>2026-03-28T11:37:38.525Z</time></trkpt><trkpt lat="40.9054283" lon="15.478715"><ele>475.99999999999994</ele><time>2026-03-28T11:37:40.524Z</time></trkpt><trkpt lat="40.9054583" lon="15.4786367"><ele>473.0</ele><time>2026-03-28T11:37:41.524Z</time></trkpt><trkpt lat="40.9055" lon="15.4785517"><ele>470.0</ele><time>2026-03-28T11:37:42.525Z</time></trkpt><trkpt lat="40.9055367" lon="15.47847"><ele>467.0</ele><time>2026-03-28T11:37:43.524Z</time></trkpt><trkpt lat="40.9055717" lon="15.478395"><ele>463.99999999999994</ele><time>2026-03-28T11:37:44.524Z</time></trkpt><trkpt lat="40.9056317" lon="15.4782583"><ele>461.0</ele><time>2026-03-28T11:37:46.524Z</time></trkpt><trkpt lat="40.9056783" lon="15.4781367"><ele>460.99999999999994</ele><time>2026-03-28T11:37:48.525Z</time></trkpt><trkpt lat="40.9057317" lon="15.4779967"><ele>461.0</ele><time>2026-03-28T11:37:50.524Z</time></trkpt><trkpt lat="40.9057633" lon="15.4779117"><ele>461.0</ele><time>2026-03-28T11:37:51.524Z</time></trkpt><trkpt lat="40.905795" lon="15.4778267"><ele>461.0</ele><time>2026-03-28T11:37:52.524Z</time></trkpt><trkpt lat="40.9058233" lon="15.4777417"><ele>460.99999999999994</ele><time>2026-03-28T11:37:53.525Z</time></trkpt><trkpt lat="40.90585" lon="15.4776583"><ele>461.0</ele><time>2026-03-28T11:37:54.525Z</time></trkpt><trkpt lat="40.9058767" lon="15.4775817"><ele>457.4</ele><time>2026-03-28T11:37:55.525Z</time></trkpt><trkpt lat="40.9059033" lon="15.4775017"><ele>453.8</ele><time>2026-03-28T11:37:56.525Z</time></trkpt><trkpt lat="40.9059517" lon="15.477365"><ele>450.19999999999993</ele><time>2026-03-28T11:37:58.524Z</time></trkpt><trkpt lat="40.9060067" lon="15.47725"><ele>446.59999999999997</ele><time>2026-03-28T11:38:00.524Z</time></trkpt><trkpt lat="40.9060983" lon="15.4771567"><ele>443.0</ele><time>2026-03-28T11:38:02.525Z</time></trkpt><trkpt lat="40.9062067" lon="15.4771233"><ele>440.0</ele><time>2026-03-28T11:38:04.524Z</time></trkpt><trkpt lat="40.90631" lon="15.4771017"><ele>436.99999999999994</ele><time>2026-03-28T11:38:06.524Z</time></trkpt><trkpt lat="40.9064233" lon="15.4770933"><ele>433.99999999999994</ele><time>2026-03-28T11:38:08.524Z</time></trkpt><trkpt lat="40.90649" lon="15.4770983"><ele>431.0</ele><time>2026-03-28T11:38:09.524Z</time></trkpt><trkpt lat="40.90661" lon="15.477085"><ele>428.0</ele><time>2026-03-28T11:38:11.524Z</time></trkpt><trkpt lat="40.90674" lon="15.477065"><ele>428.66666666666663</ele><time>2026-03-28T11:38:13.524Z</time></trkpt><trkpt lat="40.9068067" lon="15.47706"><ele>429.3333333333333</ele><time>2026-03-28T11:38:14.524Z</time></trkpt><trkpt lat="40.9068733" lon="15.4770567"><ele>430.0</ele><time>2026-03-28T11:38:15.525Z</time></trkpt><trkpt lat="40.90698" lon="15.4770567"><ele>430.66666666666663</ele><time>2026-03-28T11:38:17.525Z</time></trkpt><trkpt lat="40.9070683" lon="15.47706"><ele>431.3333333333333</ele><time>2026-03-28T11:38:19.524Z</time></trkpt><trkpt lat="40.90714" lon="15.4770367"><ele>432.0</ele><time>2026-03-28T11:38:21.524Z</time></trkpt><trkpt lat="40.907205" lon="15.4769717"><ele>432.0</ele><time>2026-03-28T11:38:23.525Z</time></trkpt><trkpt lat="40.9072533" lon="15.4768583"><ele>432.00000000000006</ele><time>2026-03-28T11:38:25.524Z</time></trkpt><trkpt lat="40.90728" lon="15.476725"><ele>432.00000000000006</ele><time>2026-03-28T11:38:27.525Z</time></trkpt><trkpt lat="40.9072817" lon="15.4765833"><ele>432.0</ele><time>2026-03-28T11:38:29.525Z</time></trkpt><trkpt lat="40.9072667" lon="15.4764367"><ele>432.0</ele><time>2026-03-28T11:38:31.525Z</time></trkpt><trkpt lat="40.907255" lon="15.4763"><ele>433.20000000000005</ele><time>2026-03-28T11:38:33.525Z</time></trkpt><trkpt lat="40.9072317" lon="15.4761583"><ele>434.40000000000003</ele><time>2026-03-28T11:38:35.525Z</time></trkpt><trkpt lat="40.9071867" lon="15.4760267"><ele>435.59999999999997</ele><time>2026-03-28T11:38:37.525Z</time></trkpt><trkpt lat="40.907135" lon="15.475895"><ele>436.79999999999995</ele><time>2026-03-28T11:38:39.525Z</time></trkpt><trkpt lat="40.9070983" lon="15.4758217"><ele>438.0</ele><time>2026-03-28T11:38:40.524Z</time></trkpt><trkpt lat="40.9070533" lon="15.475745"><ele>438.0</ele><time>2026-03-28T11:38:41.524Z</time></trkpt><trkpt lat="40.9070133" lon="15.4756783"><ele>438.0</ele><time>2026-03-28T11:38:42.524Z</time></trkpt><trkpt lat="40.9069667" lon="15.475615"><ele>438.0</ele><time>2026-03-28T11:38:43.525Z</time></trkpt><trkpt lat="40.9068667" lon="15.4754883"><ele>438.0</ele><time>2026-03-28T11:38:45.525Z</time></trkpt><trkpt lat="40.9068133" lon="15.4754083"><ele>438.0</ele><time>2026-03-28T11:38:46.525Z</time></trkpt><trkpt lat="40.9067633" lon="15.4753267"><ele>438.0</ele><time>2026-03-28T11:38:47.525Z</time></trkpt><trkpt lat="40.90671" lon="15.4752417"><ele>435.1666666666667</ele><time>2026-03-28T11:38:48.525Z</time></trkpt><trkpt lat="40.9066533" lon="15.4751533"><ele>432.33333333333337</ele><time>2026-03-28T11:38:49.525Z</time></trkpt><trkpt lat="40.9066" lon="15.4750583"><ele>429.5</ele><time>2026-03-28T11:38:50.525Z</time></trkpt><trkpt lat="40.9065467" lon="15.4749633"><ele>426.6666666666667</ele><time>2026-03-28T11:38:51.525Z</time></trkpt><trkpt lat="40.9064983" lon="15.4748717"><ele>423.83333333333337</ele><time>2026-03-28T11:38:52.526Z</time></trkpt><trkpt lat="40.9064567" lon="15.474785"><ele>421.0</ele><time>2026-03-28T11:38:53.525Z</time></trkpt><trkpt lat="40.9064133" lon="15.4746933"><ele>421.00000000000006</ele><time>2026-03-28T11:38:54.526Z</time></trkpt><trkpt lat="40.90637" lon="15.4746083"><ele>421.0</ele><time>2026-03-28T11:38:55.525Z</time></trkpt><trkpt lat="40.9063317" lon="15.4745283"><ele>421.0</ele><time>2026-03-28T11:38:56.525Z</time></trkpt><trkpt lat="40.9062867" lon="15.4744483"><ele>421.0</ele><time>2026-03-28T11:38:57.526Z</time></trkpt><trkpt lat="40.9062483" lon="15.4743667"><ele>421.0</ele><time>2026-03-28T11:38:58.526Z</time></trkpt><trkpt lat="40.9062117" lon="15.474295"><ele>421.00000000000006</ele><time>2026-03-28T11:38:59.526Z</time></trkpt><trkpt lat="40.9061767" lon="15.47422"><ele>421.0</ele><time>2026-03-28T11:39:00.525Z</time></trkpt><trkpt lat="40.9061133" lon="15.474085"><ele>422.20000000000005</ele><time>2026-03-28T11:39:02.526Z</time></trkpt><trkpt lat="40.90606" lon="15.4739467"><ele>423.40000000000003</ele><time>2026-03-28T11:39:04.526Z</time></trkpt><trkpt lat="40.9059933" lon="15.4738117"><ele>424.6</ele><time>2026-03-28T11:39:06.526Z</time></trkpt><trkpt lat="40.9059567" lon="15.4737417"><ele>425.8</ele><time>2026-03-28T11:39:07.526Z</time></trkpt><trkpt lat="40.9058833" lon="15.4736017"><ele>427.0</ele><time>2026-03-28T11:39:09.525Z</time></trkpt><trkpt lat="40.9058517" lon="15.4735133"><ele>425.33333333333337</ele><time>2026-03-28T11:39:10.526Z</time></trkpt><trkpt lat="40.9058283" lon="15.473415"><ele>423.6666666666667</ele><time>2026-03-28T11:39:11.526Z</time></trkpt><trkpt lat="40.9058133" lon="15.4733133"><ele>422.0</ele><time>2026-03-28T11:39:12.525Z</time></trkpt><trkpt lat="40.9057967" lon="15.4732133"><ele>420.33333333333337</ele><time>2026-03-28T11:39:13.525Z</time></trkpt><trkpt lat="40.905785" lon="15.4731183"><ele>418.6666666666667</ele><time>2026-03-28T11:39:14.526Z</time></trkpt><trkpt lat="40.905765" lon="15.4730183"><ele>417.0</ele><time>2026-03-28T11:39:15.526Z</time></trkpt><trkpt lat="40.9057433" lon="15.4729233"><ele>417.0</ele><time>2026-03-28T11:39:16.526Z</time></trkpt><trkpt lat="40.9057167" lon="15.472835"><ele>417.0</ele><time>2026-03-28T11:39:17.526Z</time></trkpt><trkpt lat="40.90569" lon="15.4727517"><ele>417.0</ele><time>2026-03-28T11:39:18.526Z</time></trkpt><trkpt lat="40.9056767" lon="15.4726667"><ele>417.0</ele><time>2026-03-28T11:39:19.526Z</time></trkpt><trkpt lat="40.9056633" lon="15.4725817"><ele>417.0</ele><time>2026-03-28T11:39:20.525Z</time></trkpt><trkpt lat="40.9056417" lon="15.4725017"><ele>417.0</ele><time>2026-03-28T11:39:21.525Z</time></trkpt><trkpt lat="40.9056067" lon="15.47235"><ele>417.0</ele><time>2026-03-28T11:39:23.526Z</time></trkpt><trkpt lat="40.9055883" lon="15.4721933"><ele>417.0</ele><time>2026-03-28T11:39:25.526Z</time></trkpt><trkpt lat="40.9055833" lon="15.4720483"><ele>417.0</ele><time>2026-03-28T11:39:27.526Z</time></trkpt><trkpt lat="40.9055867" lon="15.4719417"><ele>417.0</ele><time>2026-03-28T11:39:29.526Z</time></trkpt><trkpt lat="40.905575" lon="15.4718283"><ele>417.0</ele><time>2026-03-28T11:39:32.526Z</time></trkpt><trkpt lat="40.90557" lon="15.4717033"><ele>416.0</ele><time>2026-03-28T11:39:35.526Z</time></trkpt><trkpt lat="40.9055717" lon="15.4715983"><ele>415.0</ele><time>2026-03-28T11:39:37.526Z</time></trkpt><trkpt lat="40.9055833" lon="15.471495"><ele>414.0</ele><time>2026-03-28T11:39:39.526Z</time></trkpt><trkpt lat="40.9055967" lon="15.4714"><ele>413.0</ele><time>2026-03-28T11:39:41.526Z</time></trkpt><trkpt lat="40.9056083" lon="15.4713083"><ele>412.0</ele><time>2026-03-28T11:39:43.526Z</time></trkpt><trkpt lat="40.9056317" lon="15.4712167"><ele>411.0</ele><time>2026-03-28T11:39:45.526Z</time></trkpt><trkpt lat="40.9056483" lon="15.4710967"><ele>409.0</ele><time>2026-03-28T11:39:47.525Z</time></trkpt><trkpt lat="40.9056783" lon="15.4709533"><ele>407.0</ele><time>2026-03-28T11:39:49.525Z</time></trkpt><trkpt lat="40.905695" lon="15.47087"><ele>405.0</ele><time>2026-03-28T11:39:50.526Z</time></trkpt><trkpt lat="40.9057133" lon="15.4707883"><ele>403.0</ele><time>2026-03-28T11:39:51.526Z</time></trkpt><trkpt lat="40.9057517" lon="15.4706417"><ele>401.0</ele><time>2026-03-28T11:39:53.526Z</time></trkpt><trkpt lat="40.9057817" lon="15.470485"><ele>399.16666666666663</ele><time>2026-03-28T11:39:55.525Z</time></trkpt><trkpt lat="40.905805" lon="15.4704017"><ele>397.3333333333333</ele><time>2026-03-28T11:39:56.525Z</time></trkpt><trkpt lat="40.9058217" lon="15.4703183"><ele>395.5</ele><time>2026-03-28T11:39:57.526Z</time></trkpt><trkpt lat="40.905845" lon="15.470235"><ele>393.66666666666663</ele><time>2026-03-28T11:39:58.525Z</time></trkpt><trkpt lat="40.9058833" lon="15.4700817"><ele>391.8333333333333</ele><time>2026-03-28T11:40:00.526Z</time></trkpt><trkpt lat="40.9059033" lon="15.4700017"><ele>390.0</ele><time>2026-03-28T11:40:01.525Z</time></trkpt><trkpt lat="40.9059317" lon="15.46991"><ele>390.8</ele><time>2026-03-28T11:40:02.525Z</time></trkpt><trkpt lat="40.9059583" lon="15.4698217"><ele>391.6</ele><time>2026-03-28T11:40:03.526Z</time></trkpt><trkpt lat="40.90598" lon="15.4697433"><ele>392.4</ele><time>2026-03-28T11:40:04.525Z</time></trkpt><trkpt lat="40.9060233" lon="15.4696133"><ele>393.2</ele><time>2026-03-28T11:40:06.525Z</time></trkpt><trkpt lat="40.9060767" lon="15.4694733"><ele>394.0</ele><time>2026-03-28T11:40:08.526Z</time></trkpt><trkpt lat="40.9061417" lon="15.4693417"><ele>394.00000000000006</ele><time>2026-03-28T11:40:10.526Z</time></trkpt><trkpt lat="40.9062117" lon="15.469225"><ele>394.0</ele><time>2026-03-28T11:40:12.526Z</time></trkpt><trkpt lat="40.9062533" lon="15.46916"><ele>394.0</ele><time>2026-03-28T11:40:13.526Z</time></trkpt><trkpt lat="40.9063033" lon="15.4690933"><ele>394.0</ele><time>2026-03-28T11:40:14.526Z</time></trkpt><trkpt lat="40.9063533" lon="15.4690267"><ele>394.00000000000006</ele><time>2026-03-28T11:40:15.525Z</time></trkpt><trkpt lat="40.9064" lon="15.468965"><ele>394.0</ele><time>2026-03-28T11:40:16.525Z</time></trkpt><trkpt lat="40.90647" lon="15.4688467"><ele>392.50000000000006</ele><time>2026-03-28T11:40:18.526Z</time></trkpt><trkpt lat="40.906495" lon="15.468705"><ele>391.0</ele><time>2026-03-28T11:40:20.526Z</time></trkpt><trkpt lat="40.906475" lon="15.4685633"><ele>389.5</ele><time>2026-03-28T11:40:22.526Z</time></trkpt><trkpt lat="40.90646" lon="15.46848"><ele>388.0</ele><time>2026-03-28T11:40:23.525Z</time></trkpt><trkpt lat="40.9064417" lon="15.4683883"><ele>386.50000000000006</ele><time>2026-03-28T11:40:24.526Z</time></trkpt><trkpt lat="40.906425" lon="15.46829"><ele>385.0</ele><time>2026-03-28T11:40:25.526Z</time></trkpt><trkpt lat="40.90641" lon="15.468195"><ele>385.0</ele><time>2026-03-28T11:40:26.526Z</time></trkpt><trkpt lat="40.9063933" lon="15.4680983"><ele>385.0</ele><time>2026-03-28T11:40:27.526Z</time></trkpt><trkpt lat="40.90638" lon="15.4680067"><ele>385.0</ele><time>2026-03-28T11:40:28.526Z</time></trkpt><trkpt lat="40.90637" lon="15.4679133"><ele>385.0</ele><time>2026-03-28T11:40:29.525Z</time></trkpt><trkpt lat="40.906365" lon="15.4678183"><ele>385.0</ele><time>2026-03-28T11:40:30.525Z</time></trkpt><trkpt lat="40.9063617" lon="15.4677333"><ele>385.0</ele><time>2026-03-28T11:40:31.526Z</time></trkpt><trkpt lat="40.906355" lon="15.467645"><ele>385.0</ele><time>2026-03-28T11:40:32.526Z</time></trkpt><trkpt lat="40.9063417" lon="15.4674867"><ele>385.50000000000006</ele><time>2026-03-28T11:40:34.526Z</time></trkpt><trkpt lat="40.90634" lon="15.4674033"><ele>386.0</ele><time>2026-03-28T11:40:35.525Z</time></trkpt><trkpt lat="40.9063333" lon="15.4673117"><ele>386.5</ele><time>2026-03-28T11:40:36.525Z</time></trkpt><trkpt lat="40.90632" lon="15.4672117"><ele>387.0</ele><time>2026-03-28T11:40:37.526Z</time></trkpt><trkpt lat="40.9063033" lon="15.4670967"><ele>387.50000000000006</ele><time>2026-03-28T11:40:38.526Z</time></trkpt><trkpt lat="40.906285" lon="15.4669833"><ele>388.0</ele><time>2026-03-28T11:40:39.526Z</time></trkpt><trkpt lat="40.9062583" lon="15.4668667"><ele>389.59999999999997</ele><time>2026-03-28T11:40:40.526Z</time></trkpt><trkpt lat="40.9062417" lon="15.466755"><ele>391.2</ele><time>2026-03-28T11:40:41.525Z</time></trkpt><trkpt lat="40.9062117" lon="15.4666283"><ele>392.8</ele><time>2026-03-28T11:40:42.525Z</time></trkpt><trkpt lat="40.906185" lon="15.4665067"><ele>394.4</ele><time>2026-03-28T11:40:43.525Z</time></trkpt><trkpt lat="40.9061617" lon="15.4663867"><ele>396.0</ele><time>2026-03-28T11:40:44.525Z</time></trkpt><trkpt lat="40.9061433" lon="15.466265"><ele>397.0</ele><time>2026-03-28T11:40:45.526Z</time></trkpt><trkpt lat="40.9061233" lon="15.4661467"><ele>398.0</ele><time>2026-03-28T11:40:46.526Z</time></trkpt><trkpt lat="40.90611" lon="15.4660283"><ele>399.0</ele><time>2026-03-28T11:40:47.526Z</time></trkpt><trkpt lat="40.9060917" lon="15.4659033"><ele>400.0</ele><time>2026-03-28T11:40:48.525Z</time></trkpt><trkpt lat="40.9060783" lon="15.46579"><ele>401.0</ele><time>2026-03-28T11:40:49.525Z</time></trkpt><trkpt lat="40.90605" lon="15.4656733"><ele>401.0</ele><time>2026-03-28T11:40:50.526Z</time></trkpt><trkpt lat="40.9060133" lon="15.4655633"><ele>401.0</ele><time>2026-03-28T11:40:51.526Z</time></trkpt><trkpt lat="40.9059717" lon="15.4654533"><ele>401.0</ele><time>2026-03-28T11:40:52.525Z</time></trkpt><trkpt lat="40.9059217" lon="15.4653367"><ele>401.0</ele><time>2026-03-28T11:40:53.526Z</time></trkpt><trkpt lat="40.905875" lon="15.46522"><ele>401.0</ele><time>2026-03-28T11:40:54.526Z</time></trkpt><trkpt lat="40.9058267" lon="15.4650967"><ele>401.6</ele><time>2026-03-28T11:40:55.525Z</time></trkpt><trkpt lat="40.905785" lon="15.464965"><ele>402.20000000000005</ele><time>2026-03-28T11:40:56.526Z</time></trkpt><trkpt lat="40.9057483" lon="15.46484"><ele>402.79999999999995</ele><time>2026-03-28T11:40:57.526Z</time></trkpt><trkpt lat="40.905705" lon="15.46472"><ele>403.4</ele><time>2026-03-28T11:40:58.526Z</time></trkpt><trkpt lat="40.9056617" lon="15.4646033"><ele>404.0</ele><time>2026-03-28T11:40:59.526Z</time></trkpt><trkpt lat="40.9056133" lon="15.4644867"><ele>404.0</ele><time>2026-03-28T11:41:00.525Z</time></trkpt><trkpt lat="40.9055717" lon="15.4643683"><ele>404.0</ele><time>2026-03-28T11:41:01.525Z</time></trkpt><trkpt lat="40.90553" lon="15.46426"><ele>404.0</ele><time>2026-03-28T11:41:02.526Z</time></trkpt><trkpt lat="40.9054967" lon="15.4641483"><ele>404.0</ele><time>2026-03-28T11:41:03.525Z</time></trkpt><trkpt lat="40.9054717" lon="15.464035"><ele>404.0</ele><time>2026-03-28T11:41:04.525Z</time></trkpt><trkpt lat="40.9054517" lon="15.4639067"><ele>406.5</ele><time>2026-03-28T11:41:05.525Z</time></trkpt><trkpt lat="40.905435" lon="15.4637617"><ele>409.0</ele><time>2026-03-28T11:41:06.526Z</time></trkpt><trkpt lat="40.9054217" lon="15.4636067"><ele>411.5</ele><time>2026-03-28T11:41:07.525Z</time></trkpt><trkpt lat="40.9054033" lon="15.4634583"><ele>414.0</ele><time>2026-03-28T11:41:08.526Z</time></trkpt><trkpt lat="40.9053833" lon="15.4633083"><ele>414.0</ele><time>2026-03-28T11:41:09.525Z</time></trkpt><trkpt lat="40.90537" lon="15.463165"><ele>414.0</ele><time>2026-03-28T11:41:10.526Z</time></trkpt><trkpt lat="40.9053517" lon="15.4630367"><ele>414.0</ele><time>2026-03-28T11:41:11.526Z</time></trkpt><trkpt lat="40.9053383" lon="15.4629117"><ele>414.0</ele><time>2026-03-28T11:41:12.526Z</time></trkpt><trkpt lat="40.9053217" lon="15.4627933"><ele>414.0</ele><time>2026-03-28T11:41:13.525Z</time></trkpt><trkpt lat="40.905295" lon="15.46268"><ele>414.5</ele><time>2026-03-28T11:41:14.526Z</time></trkpt><trkpt lat="40.9052567" lon="15.4625717"><ele>415.0</ele><time>2026-03-28T11:41:15.526Z</time></trkpt><trkpt lat="40.905215" lon="15.4624683"><ele>415.5</ele><time>2026-03-28T11:41:16.526Z</time></trkpt><trkpt lat="40.905175" lon="15.46238"><ele>416.0</ele><time>2026-03-28T11:41:17.526Z</time></trkpt><trkpt lat="40.9051367" lon="15.4622867"><ele>416.5</ele><time>2026-03-28T11:41:18.525Z</time></trkpt><trkpt lat="40.9051" lon="15.4621917"><ele>417.0</ele><time>2026-03-28T11:41:19.525Z</time></trkpt><trkpt lat="40.905065" lon="15.4620883"><ele>414.1666666666667</ele><time>2026-03-28T11:41:20.525Z</time></trkpt><trkpt lat="40.905035" lon="15.4619817"><ele>411.33333333333337</ele><time>2026-03-28T11:41:21.525Z</time></trkpt><trkpt lat="40.9050067" lon="15.4618767"><ele>408.5</ele><time>2026-03-28T11:41:22.525Z</time></trkpt><trkpt lat="40.9049767" lon="15.46177"><ele>405.6666666666667</ele><time>2026-03-28T11:41:23.525Z</time></trkpt><trkpt lat="40.9049483" lon="15.46166"><ele>402.83333333333337</ele><time>2026-03-28T11:41:24.525Z</time></trkpt><trkpt lat="40.9049183" lon="15.46156"><ele>400.0</ele><time>2026-03-28T11:41:25.526Z</time></trkpt><trkpt lat="40.9048817" lon="15.4614617"><ele>400.00000000000006</ele><time>2026-03-28T11:41:26.526Z</time></trkpt><trkpt lat="40.9048533" lon="15.4613583"><ele>400.0</ele><time>2026-03-28T11:41:27.526Z</time></trkpt><trkpt lat="40.904825" lon="15.4612583"><ele>400.0</ele><time>2026-03-28T11:41:28.525Z</time></trkpt><trkpt lat="40.9048" lon="15.4611533"><ele>400.0</ele><time>2026-03-28T11:41:29.525Z</time></trkpt><trkpt lat="40.9047683" lon="15.4610483"><ele>400.00000000000006</ele><time>2026-03-28T11:41:30.526Z</time></trkpt><trkpt lat="40.904745" lon="15.46094"><ele>400.0</ele><time>2026-03-28T11:41:31.526Z</time></trkpt><trkpt lat="40.904725" lon="15.4608417"><ele>400.83333333333337</ele><time>2026-03-28T11:41:32.526Z</time></trkpt><trkpt lat="40.9047133" lon="15.460745"><ele>401.6666666666667</ele><time>2026-03-28T11:41:33.526Z</time></trkpt><trkpt lat="40.9047067" lon="15.4606417"><ele>402.5</ele><time>2026-03-28T11:41:34.525Z</time></trkpt><trkpt lat="40.9047067" lon="15.460545"><ele>403.33333333333337</ele><time>2026-03-28T11:41:35.525Z</time></trkpt><trkpt lat="40.9046967" lon="15.4604533"><ele>404.1666666666667</ele><time>2026-03-28T11:41:36.526Z</time></trkpt><trkpt lat="40.9046467" lon="15.46029"><ele>405.0</ele><time>2026-03-28T11:41:38.525Z</time></trkpt><trkpt lat="40.90461" lon="15.4602117"><ele>405.1666666666667</ele><time>2026-03-28T11:41:39.526Z</time></trkpt><trkpt lat="40.9045683" lon="15.460125"><ele>405.33333333333337</ele><time>2026-03-28T11:41:40.526Z</time></trkpt><trkpt lat="40.9045217" lon="15.46002"><ele>405.5</ele><time>2026-03-28T11:41:41.525Z</time></trkpt><trkpt lat="40.90447" lon="15.4599067"><ele>405.6666666666667</ele><time>2026-03-28T11:41:42.525Z</time></trkpt><trkpt lat="40.9044283" lon="15.4598017"><ele>405.83333333333337</ele><time>2026-03-28T11:41:43.526Z</time></trkpt><trkpt lat="40.9043883" lon="15.459695"><ele>406.0</ele><time>2026-03-28T11:41:44.525Z</time></trkpt><trkpt lat="40.9043533" lon="15.45959"><ele>405.1666666666667</ele><time>2026-03-28T11:41:45.526Z</time></trkpt><trkpt lat="40.9043217" lon="15.4594917"><ele>404.33333333333337</ele><time>2026-03-28T11:41:46.526Z</time></trkpt><trkpt lat="40.9042983" lon="15.4594017"><ele>403.5</ele><time>2026-03-28T11:41:47.525Z</time></trkpt><trkpt lat="40.9042817" lon="15.45932"><ele>402.66666666666663</ele><time>2026-03-28T11:41:48.526Z</time></trkpt><trkpt lat="40.9042433" lon="15.4591767"><ele>401.8333333333333</ele><time>2026-03-28T11:41:50.525Z</time></trkpt><trkpt lat="40.904215" lon="15.4590317"><ele>401.0</ele><time>2026-03-28T11:41:52.526Z</time></trkpt><trkpt lat="40.9041933" lon="15.4588783"><ele>401.8</ele><time>2026-03-28T11:41:54.526Z</time></trkpt><trkpt lat="40.9041783" lon="15.4587283"><ele>402.6</ele><time>2026-03-28T11:41:56.526Z</time></trkpt><trkpt lat="40.9041817" lon="15.4586433"><ele>403.4</ele><time>2026-03-28T11:41:57.526Z</time></trkpt><trkpt lat="40.9041883" lon="15.4584817"><ele>404.2</ele><time>2026-03-28T11:41:59.526Z</time></trkpt><trkpt lat="40.9042167" lon="15.4583267"><ele>405.0</ele><time>2026-03-28T11:42:01.525Z</time></trkpt><trkpt lat="40.90423" lon="15.458245"><ele>405.0</ele><time>2026-03-28T11:42:02.525Z</time></trkpt><trkpt lat="40.9042417" lon="15.4581617"><ele>405.0</ele><time>2026-03-28T11:42:03.525Z</time></trkpt><trkpt lat="40.9042517" lon="15.458075"><ele>405.0</ele><time>2026-03-28T11:42:04.526Z</time></trkpt><trkpt lat="40.9042617" lon="15.4579883"><ele>405.0</ele><time>2026-03-28T11:42:05.525Z</time></trkpt><trkpt lat="40.90427" lon="15.4578283"><ele>405.0</ele><time>2026-03-28T11:42:07.525Z</time></trkpt><trkpt lat="40.9042617" lon="15.457645"><ele>405.0</ele><time>2026-03-28T11:42:09.525Z</time></trkpt><trkpt lat="40.9042433" lon="15.4575133"><ele>405.0</ele><time>2026-03-28T11:42:10.526Z</time></trkpt><trkpt lat="40.904225" lon="15.45738"><ele>405.0</ele><time>2026-03-28T11:42:11.525Z</time></trkpt><trkpt lat="40.9042117" lon="15.4572383"><ele>405.0</ele><time>2026-03-28T11:42:12.526Z</time></trkpt><trkpt lat="40.904205" lon="15.4570883"><ele>405.0</ele><time>2026-03-28T11:42:13.526Z</time></trkpt><trkpt lat="40.904205" lon="15.45695"><ele>405.6</ele><time>2026-03-28T11:42:14.525Z</time></trkpt><trkpt lat="40.904205" lon="15.4568133"><ele>406.2</ele><time>2026-03-28T11:42:15.525Z</time></trkpt><trkpt lat="40.9042033" lon="15.4566767"><ele>406.79999999999995</ele><time>2026-03-28T11:42:16.525Z</time></trkpt><trkpt lat="40.9042033" lon="15.456545"><ele>407.4</ele><time>2026-03-28T11:42:17.526Z</time></trkpt><trkpt lat="40.9042017" lon="15.4564217"><ele>408.0</ele><time>2026-03-28T11:42:18.526Z</time></trkpt><trkpt lat="40.904195" lon="15.456305"><ele>409.0</ele><time>2026-03-28T11:42:19.525Z</time></trkpt><trkpt lat="40.904185" lon="15.4562067"><ele>410.0</ele><time>2026-03-28T11:42:20.525Z</time></trkpt><trkpt lat="40.90418" lon="15.4561217"><ele>411.0</ele><time>2026-03-28T11:42:21.526Z</time></trkpt><trkpt lat="40.90418" lon="15.455975"><ele>412.0</ele><time>2026-03-28T11:42:23.525Z</time></trkpt><trkpt lat="40.9041883" lon="15.4558317"><ele>413.0</ele><time>2026-03-28T11:42:25.526Z</time></trkpt><trkpt lat="40.90419" lon="15.4556733"><ele>413.0</ele><time>2026-03-28T11:42:27.526Z</time></trkpt><trkpt lat="40.9041867" lon="15.4555833"><ele>413.0</ele><time>2026-03-28T11:42:28.526Z</time></trkpt><trkpt lat="40.9041817" lon="15.4554883"><ele>413.0</ele><time>2026-03-28T11:42:29.526Z</time></trkpt><trkpt lat="40.9041767" lon="15.4553967"><ele>413.0</ele><time>2026-03-28T11:42:30.526Z</time></trkpt><trkpt lat="40.904175" lon="15.4553017"><ele>413.0</ele><time>2026-03-28T11:42:31.526Z</time></trkpt><trkpt lat="40.9041683" lon="15.4552083"><ele>413.0</ele><time>2026-03-28T11:42:32.526Z</time></trkpt><trkpt lat="40.904155" lon="15.4551167"><ele>413.0</ele><time>2026-03-28T11:42:33.526Z</time></trkpt><trkpt lat="40.9041367" lon="15.4550267"><ele>413.66666666666663</ele><time>2026-03-28T11:42:34.526Z</time></trkpt><trkpt lat="40.90412" lon="15.4549383"><ele>414.3333333333333</ele><time>2026-03-28T11:42:35.526Z</time></trkpt><trkpt lat="40.9041017" lon="15.4548483"><ele>415.0</ele><time>2026-03-28T11:42:36.526Z</time></trkpt><trkpt lat="40.9040867" lon="15.4547467"><ele>415.66666666666663</ele><time>2026-03-28T11:42:37.526Z</time></trkpt><trkpt lat="40.9040667" lon="15.4546383"><ele>416.3333333333333</ele><time>2026-03-28T11:42:38.526Z</time></trkpt><trkpt lat="40.9040467" lon="15.454525"><ele>417.0</ele><time>2026-03-28T11:42:39.526Z</time></trkpt><trkpt lat="40.9040367" lon="15.4544267"><ele>417.6666666666667</ele><time>2026-03-28T11:42:40.526Z</time></trkpt><trkpt lat="40.9040217" lon="15.4543317"><ele>418.33333333333337</ele><time>2026-03-28T11:42:41.526Z</time></trkpt><trkpt lat="40.9040083" lon="15.45424"><ele>419.0</ele><time>2026-03-28T11:42:42.526Z</time></trkpt><trkpt lat="40.9039917" lon="15.454135"><ele>419.6666666666667</ele><time>2026-03-28T11:42:43.526Z</time></trkpt><trkpt lat="40.9039717" lon="15.4540417"><ele>420.33333333333337</ele><time>2026-03-28T11:42:44.526Z</time></trkpt><trkpt lat="40.9039483" lon="15.4539467"><ele>421.0</ele><time>2026-03-28T11:42:45.525Z</time></trkpt><trkpt lat="40.9039283" lon="15.4538467"><ele>422.1666666666667</ele><time>2026-03-28T11:42:46.525Z</time></trkpt><trkpt lat="40.9039" lon="15.453735"><ele>423.33333333333337</ele><time>2026-03-28T11:42:47.526Z</time></trkpt><trkpt lat="40.9038783" lon="15.45362"><ele>424.5</ele><time>2026-03-28T11:42:48.526Z</time></trkpt><trkpt lat="40.9038483" lon="15.453515"><ele>425.66666666666663</ele><time>2026-03-28T11:42:49.525Z</time></trkpt><trkpt lat="40.9038217" lon="15.4534083"><ele>426.8333333333333</ele><time>2026-03-28T11:42:50.526Z</time></trkpt><trkpt lat="40.9037833" lon="15.4532917"><ele>428.0</ele><time>2026-03-28T11:42:51.526Z</time></trkpt><trkpt lat="40.903745" lon="15.4531817"><ele>427.99999999999994</ele><time>2026-03-28T11:42:52.525Z</time></trkpt><trkpt lat="40.9037117" lon="15.4530717"><ele>428.0</ele><time>2026-03-28T11:42:53.526Z</time></trkpt><trkpt lat="40.9036783" lon="15.452975"><ele>428.0</ele><time>2026-03-28T11:42:54.525Z</time></trkpt><trkpt lat="40.90364" lon="15.4528817"><ele>428.0</ele><time>2026-03-28T11:42:55.526Z</time></trkpt><trkpt lat="40.903605" lon="15.4527883"><ele>427.99999999999994</ele><time>2026-03-28T11:42:56.525Z</time></trkpt><trkpt lat="40.9035683" lon="15.4526967"><ele>428.0</ele><time>2026-03-28T11:42:57.525Z</time></trkpt><trkpt lat="40.90353" lon="15.4526067"><ele>429.66666666666663</ele><time>2026-03-28T11:42:58.526Z</time></trkpt><trkpt lat="40.9034967" lon="15.4525167"><ele>431.3333333333333</ele><time>2026-03-28T11:42:59.526Z</time></trkpt><trkpt lat="40.903465" lon="15.452415"><ele>433.0</ele><time>2026-03-28T11:43:00.525Z</time></trkpt><trkpt lat="40.9034483" lon="15.45231"><ele>434.66666666666663</ele><time>2026-03-28T11:43:01.526Z</time></trkpt><trkpt lat="40.9034383" lon="15.4521983"><ele>436.3333333333333</ele><time>2026-03-28T11:43:02.526Z</time></trkpt><trkpt lat="40.9034383" lon="15.4520933"><ele>438.0</ele><time>2026-03-28T11:43:03.525Z</time></trkpt><trkpt lat="40.90344" lon="15.4519833"><ele>438.7142857142857</ele><time>2026-03-28T11:43:04.525Z</time></trkpt><trkpt lat="40.903435" lon="15.451875"><ele>439.4285714285714</ele><time>2026-03-28T11:43:05.525Z</time></trkpt><trkpt lat="40.9034217" lon="15.4517783"><ele>440.1428571428571</ele><time>2026-03-28T11:43:06.525Z</time></trkpt><trkpt lat="40.9034067" lon="15.4516883"><ele>440.8571428571429</ele><time>2026-03-28T11:43:07.526Z</time></trkpt><trkpt lat="40.90339" lon="15.4516"><ele>441.57142857142856</ele><time>2026-03-28T11:43:08.525Z</time></trkpt><trkpt lat="40.9033767" lon="15.451515"><ele>442.2857142857143</ele><time>2026-03-28T11:43:09.526Z</time></trkpt><trkpt lat="40.9033683" lon="15.451425"><ele>443.0</ele><time>2026-03-28T11:43:10.526Z</time></trkpt><trkpt lat="40.90336" lon="15.4513267"><ele>443.3333333333333</ele><time>2026-03-28T11:43:11.526Z</time></trkpt><trkpt lat="40.9033617" lon="15.4512283"><ele>443.66666666666663</ele><time>2026-03-28T11:43:12.526Z</time></trkpt><trkpt lat="40.9033783" lon="15.4511267"><ele>444.0</ele><time>2026-03-28T11:43:13.525Z</time></trkpt><trkpt lat="40.9033983" lon="15.451025"><ele>444.33333333333337</ele><time>2026-03-28T11:43:14.525Z</time></trkpt><trkpt lat="40.90342" lon="15.450925"><ele>444.6666666666667</ele><time>2026-03-28T11:43:15.526Z</time></trkpt><trkpt lat="40.9034467" lon="15.45082"><ele>445.0</ele><time>2026-03-28T11:43:16.525Z</time></trkpt><trkpt lat="40.9034717" lon="15.4506983"><ele>445.0</ele><time>2026-03-28T11:43:17.526Z</time></trkpt><trkpt lat="40.903505" lon="15.4505717"><ele>445.0</ele><time>2026-03-28T11:43:18.526Z</time></trkpt><trkpt lat="40.903535" lon="15.4504517"><ele>445.0</ele><time>2026-03-28T11:43:19.525Z</time></trkpt><trkpt lat="40.9035633" lon="15.4503267"><ele>445.0</ele><time>2026-03-28T11:43:20.526Z</time></trkpt><trkpt lat="40.90359" lon="15.4501917"><ele>445.0</ele><time>2026-03-28T11:43:21.526Z</time></trkpt><trkpt lat="40.9036183" lon="15.4500483"><ele>444.4</ele><time>2026-03-28T11:43:22.526Z</time></trkpt><trkpt lat="40.9036433" lon="15.44992"><ele>443.8</ele><time>2026-03-28T11:43:23.525Z</time></trkpt><trkpt lat="40.90366" lon="15.4498017"><ele>443.20000000000005</ele><time>2026-03-28T11:43:24.526Z</time></trkpt><trkpt lat="40.9036683" lon="15.4496667"><ele>442.6</ele><time>2026-03-28T11:43:25.526Z</time></trkpt><trkpt lat="40.9036683" lon="15.44954"><ele>442.0</ele><time>2026-03-28T11:43:26.526Z</time></trkpt><trkpt lat="40.903675" lon="15.44941"><ele>441.20000000000005</ele><time>2026-03-28T11:43:27.525Z</time></trkpt><trkpt lat="40.9036867" lon="15.44928"><ele>440.40000000000003</ele><time>2026-03-28T11:43:28.526Z</time></trkpt><trkpt lat="40.903705" lon="15.4491417"><ele>439.59999999999997</ele><time>2026-03-28T11:43:29.526Z</time></trkpt><trkpt lat="40.9037317" lon="15.4490133"><ele>438.79999999999995</ele><time>2026-03-28T11:43:30.526Z</time></trkpt><trkpt lat="40.9037617" lon="15.4488883"><ele>438.0</ele><time>2026-03-28T11:43:31.525Z</time></trkpt><trkpt lat="40.9037933" lon="15.44877"><ele>436.2</ele><time>2026-03-28T11:43:32.525Z</time></trkpt><trkpt lat="40.903825" lon="15.4486533"><ele>434.4</ele><time>2026-03-28T11:43:33.526Z</time></trkpt><trkpt lat="40.9038533" lon="15.4485317"><ele>432.59999999999997</ele><time>2026-03-28T11:43:34.526Z</time></trkpt><trkpt lat="40.903865" lon="15.4483983"><ele>430.79999999999995</ele><time>2026-03-28T11:43:35.526Z</time></trkpt><trkpt lat="40.903885" lon="15.4482667"><ele>429.0</ele><time>2026-03-28T11:43:36.526Z</time></trkpt><trkpt lat="40.9038983" lon="15.4481167"><ele>429.0</ele><time>2026-03-28T11:43:37.525Z</time></trkpt><trkpt lat="40.90391" lon="15.447965"><ele>429.0</ele><time>2026-03-28T11:43:38.525Z</time></trkpt><trkpt lat="40.9039283" lon="15.4478217"><ele>429.0</ele><time>2026-03-28T11:43:39.526Z</time></trkpt><trkpt lat="40.9039467" lon="15.44768"><ele>429.0</ele><time>2026-03-28T11:43:40.526Z</time></trkpt><trkpt lat="40.9039517" lon="15.4475433"><ele>429.0</ele><time>2026-03-28T11:43:41.525Z</time></trkpt><trkpt lat="40.903965" lon="15.4474117"><ele>429.2</ele><time>2026-03-28T11:43:42.525Z</time></trkpt><trkpt lat="40.9039683" lon="15.4472883"><ele>429.4</ele><time>2026-03-28T11:43:43.526Z</time></trkpt><trkpt lat="40.9039667" lon="15.4471567"><ele>429.6</ele><time>2026-03-28T11:43:44.526Z</time></trkpt><trkpt lat="40.9039617" lon="15.4470283"><ele>429.8</ele><time>2026-03-28T11:43:45.526Z</time></trkpt><trkpt lat="40.9039483" lon="15.4468883"><ele>430.0</ele><time>2026-03-28T11:43:46.526Z</time></trkpt><trkpt lat="40.903925" lon="15.4467567"><ele>430.0</ele><time>2026-03-28T11:43:47.526Z</time></trkpt><trkpt lat="40.9039017" lon="15.44663"><ele>430.0</ele><time>2026-03-28T11:43:48.526Z</time></trkpt><trkpt lat="40.9038717" lon="15.446505"><ele>430.0</ele><time>2026-03-28T11:43:49.526Z</time></trkpt><trkpt lat="40.9038333" lon="15.44638"><ele>430.0</ele><time>2026-03-28T11:43:50.526Z</time></trkpt><trkpt lat="40.9038017" lon="15.4462567"><ele>430.0</ele><time>2026-03-28T11:43:51.526Z</time></trkpt><trkpt lat="40.9037767" lon="15.4461283"><ele>431.0</ele><time>2026-03-28T11:43:52.526Z</time></trkpt><trkpt lat="40.90376" lon="15.4459983"><ele>432.0</ele><time>2026-03-28T11:43:53.525Z</time></trkpt><trkpt lat="40.9037583" lon="15.44587"><ele>433.0</ele><time>2026-03-28T11:43:54.526Z</time></trkpt><trkpt lat="40.903765" lon="15.4457533"><ele>434.0</ele><time>2026-03-28T11:43:55.526Z</time></trkpt><trkpt lat="40.903765" lon="15.44563"><ele>435.0</ele><time>2026-03-28T11:43:56.526Z</time></trkpt><trkpt lat="40.90378" lon="15.4455167"><ele>435.2</ele><time>2026-03-28T11:43:57.526Z</time></trkpt><trkpt lat="40.903795" lon="15.445395"><ele>435.4</ele><time>2026-03-28T11:43:58.525Z</time></trkpt><trkpt lat="40.903805" lon="15.4452667"><ele>435.6</ele><time>2026-03-28T11:43:59.526Z</time></trkpt><trkpt lat="40.903805" lon="15.4451283"><ele>435.8</ele><time>2026-03-28T11:44:00.525Z</time></trkpt><trkpt lat="40.9037833" lon="15.4449917"><ele>436.0</ele><time>2026-03-28T11:44:01.525Z</time></trkpt><trkpt lat="40.903765" lon="15.4448333"><ele>436.0</ele><time>2026-03-28T11:44:02.526Z</time></trkpt><trkpt lat="40.90375" lon="15.44466"><ele>436.0</ele><time>2026-03-28T11:44:03.526Z</time></trkpt><trkpt lat="40.9037333" lon="15.444485"><ele>436.0</ele><time>2026-03-28T11:44:04.526Z</time></trkpt><trkpt lat="40.9037233" lon="15.4443233"><ele>436.0</ele><time>2026-03-28T11:44:05.526Z</time></trkpt><trkpt lat="40.9037167" lon="15.4441717"><ele>436.4</ele><time>2026-03-28T11:44:06.526Z</time></trkpt><trkpt lat="40.90371" lon="15.4440267"><ele>436.8</ele><time>2026-03-28T11:44:07.525Z</time></trkpt><trkpt lat="40.9037017" lon="15.443895"><ele>437.19999999999993</ele><time>2026-03-28T11:44:08.526Z</time></trkpt><trkpt lat="40.903695" lon="15.4437617"><ele>437.59999999999997</ele><time>2026-03-28T11:44:09.525Z</time></trkpt><trkpt lat="40.90369" lon="15.443635"><ele>438.0</ele><time>2026-03-28T11:44:10.525Z</time></trkpt><trkpt lat="40.90369" lon="15.4435133"><ele>438.1666666666667</ele><time>2026-03-28T11:44:11.525Z</time></trkpt><trkpt lat="40.9037067" lon="15.44341"><ele>438.33333333333337</ele><time>2026-03-28T11:44:12.526Z</time></trkpt><trkpt lat="40.9037417" lon="15.4433167"><ele>438.5</ele><time>2026-03-28T11:44:13.525Z</time></trkpt><trkpt lat="40.9037983" lon="15.4432533"><ele>438.6666666666667</ele><time>2026-03-28T11:44:14.526Z</time></trkpt><trkpt lat="40.90387" lon="15.443195"><ele>438.83333333333337</ele><time>2026-03-28T11:44:15.526Z</time></trkpt><trkpt lat="40.90395" lon="15.4431433"><ele>439.0</ele><time>2026-03-28T11:44:16.526Z</time></trkpt><trkpt lat="40.9040233" lon="15.4431033"><ele>439.00000000000006</ele><time>2026-03-28T11:44:17.526Z</time></trkpt><trkpt lat="40.9040883" lon="15.443075"><ele>439.0</ele><time>2026-03-28T11:44:18.526Z</time></trkpt><trkpt lat="40.904185" lon="15.442995"><ele>439.0</ele><time>2026-03-28T11:44:20.526Z</time></trkpt><trkpt lat="40.9041983" lon="15.44288"><ele>439.0</ele><time>2026-03-28T11:44:22.525Z</time></trkpt><trkpt lat="40.9041717" lon="15.4428017"><ele>439.00000000000006</ele><time>2026-03-28T11:44:23.526Z</time></trkpt><trkpt lat="40.9041333" lon="15.4427217"><ele>439.0</ele><time>2026-03-28T11:44:24.526Z</time></trkpt><trkpt lat="40.9040867" lon="15.4426433"><ele>438.4</ele><time>2026-03-28T11:44:25.526Z</time></trkpt><trkpt lat="40.904045" lon="15.4425667"><ele>437.79999999999995</ele><time>2026-03-28T11:44:26.526Z</time></trkpt><trkpt lat="40.9040183" lon="15.44245"><ele>437.20000000000005</ele><time>2026-03-28T11:44:28.526Z</time></trkpt><trkpt lat="40.9040867" lon="15.44231"><ele>436.6</ele><time>2026-03-28T11:44:30.526Z</time></trkpt><trkpt lat="40.9041433" lon="15.4422367"><ele>436.0</ele><time>2026-03-28T11:44:31.526Z</time></trkpt><trkpt lat="40.9041967" lon="15.4421483"><ele>437.1666666666667</ele><time>2026-03-28T11:44:32.526Z</time></trkpt><trkpt lat="40.9042367" lon="15.4420717"><ele>438.33333333333337</ele><time>2026-03-28T11:44:33.526Z</time></trkpt><trkpt lat="40.9042667" lon="15.441995"><ele>439.5</ele><time>2026-03-28T11:44:34.525Z</time></trkpt><trkpt lat="40.9042817" lon="15.4419017"><ele>440.66666666666663</ele><time>2026-03-28T11:44:35.525Z</time></trkpt><trkpt lat="40.9042883" lon="15.4418"><ele>441.8333333333333</ele><time>2026-03-28T11:44:36.525Z</time></trkpt><trkpt lat="40.9042717" lon="15.441685"><ele>443.0</ele><time>2026-03-28T11:44:37.525Z</time></trkpt><trkpt lat="40.904235" lon="15.441575"><ele>442.99999999999994</ele><time>2026-03-28T11:44:38.525Z</time></trkpt><trkpt lat="40.9042033" lon="15.44147"><ele>443.0</ele><time>2026-03-28T11:44:39.525Z</time></trkpt><trkpt lat="40.9041683" lon="15.4413783"><ele>443.0</ele><time>2026-03-28T11:44:40.526Z</time></trkpt><trkpt lat="40.9041417" lon="15.441285"><ele>443.0</ele><time>2026-03-28T11:44:41.525Z</time></trkpt><trkpt lat="40.9041267" lon="15.44119"><ele>442.99999999999994</ele><time>2026-03-28T11:44:42.526Z</time></trkpt><trkpt lat="40.90413" lon="15.4410967"><ele>443.0</ele><time>2026-03-28T11:44:43.526Z</time></trkpt><trkpt lat="40.904145" lon="15.4410017"><ele>444.0</ele><time>2026-03-28T11:44:44.525Z</time></trkpt><trkpt lat="40.9041767" lon="15.4409"><ele>444.99999999999994</ele><time>2026-03-28T11:44:45.526Z</time></trkpt><trkpt lat="40.9042217" lon="15.4407933"><ele>445.99999999999994</ele><time>2026-03-28T11:44:46.526Z</time></trkpt><trkpt lat="40.9042817" lon="15.4406983"><ele>447.0</ele><time>2026-03-28T11:44:47.525Z</time></trkpt><trkpt lat="40.9043467" lon="15.4406167"><ele>448.0</ele><time>2026-03-28T11:44:48.526Z</time></trkpt><trkpt lat="40.90441" lon="15.4405267"><ele>447.50000000000006</ele><time>2026-03-28T11:44:49.525Z</time></trkpt><trkpt lat="40.9044683" lon="15.4404433"><ele>447.0</ele><time>2026-03-28T11:44:50.525Z</time></trkpt><trkpt lat="40.9045183" lon="15.4403583"><ele>446.5</ele><time>2026-03-28T11:44:51.526Z</time></trkpt><trkpt lat="40.9045683" lon="15.440265"><ele>446.0</ele><time>2026-03-28T11:44:52.526Z</time></trkpt><trkpt lat="40.9046117" lon="15.4401633"><ele>445.50000000000006</ele><time>2026-03-28T11:44:53.525Z</time></trkpt><trkpt lat="40.9046383" lon="15.4400467"><ele>445.0</ele><time>2026-03-28T11:44:54.526Z</time></trkpt><trkpt lat="40.9046733" lon="15.4399183"><ele>445.0</ele><time>2026-03-28T11:44:55.526Z</time></trkpt><trkpt lat="40.9046933" lon="15.43977"><ele>445.0</ele><time>2026-03-28T11:44:56.526Z</time></trkpt><trkpt lat="40.9047117" lon="15.4396233"><ele>445.0</ele><time>2026-03-28T11:44:57.526Z</time></trkpt><trkpt lat="40.904725" lon="15.4394783"><ele>445.0</ele><time>2026-03-28T11:44:58.526Z</time></trkpt><trkpt lat="40.904735" lon="15.4393433"><ele>445.0</ele><time>2026-03-28T11:44:59.525Z</time></trkpt><trkpt lat="40.9047483" lon="15.43922"><ele>445.33333333333337</ele><time>2026-03-28T11:45:00.526Z</time></trkpt><trkpt lat="40.90477" lon="15.4391033"><ele>445.6666666666667</ele><time>2026-03-28T11:45:01.526Z</time></trkpt><trkpt lat="40.904805" lon="15.439"><ele>446.0</ele><time>2026-03-28T11:45:02.525Z</time></trkpt><trkpt lat="40.9048467" lon="15.438915"><ele>446.33333333333337</ele><time>2026-03-28T11:45:03.525Z</time></trkpt><trkpt lat="40.904885" lon="15.438835"><ele>446.6666666666667</ele><time>2026-03-28T11:45:04.526Z</time></trkpt><trkpt lat="40.904935" lon="15.4387717"><ele>447.0</ele><time>2026-03-28T11:45:05.526Z</time></trkpt><trkpt lat="40.9049983" lon="15.438715"><ele>447.1666666666667</ele><time>2026-03-28T11:45:06.526Z</time></trkpt><trkpt lat="40.9050633" lon="15.43865"><ele>447.33333333333337</ele><time>2026-03-28T11:45:07.526Z</time></trkpt><trkpt lat="40.905115" lon="15.4385717"><ele>447.5</ele><time>2026-03-28T11:45:08.526Z</time></trkpt><trkpt lat="40.9051583" lon="15.4384717"><ele>447.6666666666667</ele><time>2026-03-28T11:45:09.525Z</time></trkpt><trkpt lat="40.9051933" lon="15.4383517"><ele>447.83333333333337</ele><time>2026-03-28T11:45:10.526Z</time></trkpt><trkpt lat="40.9052317" lon="15.4382283"><ele>448.0</ele><time>2026-03-28T11:45:11.525Z</time></trkpt><trkpt lat="40.9052633" lon="15.4381167"><ele>448.00000000000006</ele><time>2026-03-28T11:45:12.525Z</time></trkpt><trkpt lat="40.9052883" lon="15.43802"><ele>448.0</ele><time>2026-03-28T11:45:13.525Z</time></trkpt><trkpt lat="40.9053167" lon="15.437935"><ele>448.0</ele><time>2026-03-28T11:45:14.526Z</time></trkpt><trkpt lat="40.9053467" lon="15.4378083"><ele>448.0</ele><time>2026-03-28T11:45:16.526Z</time></trkpt><trkpt lat="40.90531" lon="15.4377317"><ele>448.00000000000006</ele><time>2026-03-28T11:45:18.526Z</time></trkpt><trkpt lat="40.9052383" lon="15.4377367"><ele>448.0</ele><time>2026-03-28T11:45:20.526Z</time></trkpt><trkpt lat="40.9051483" lon="15.43784"><ele>448.50000000000006</ele><time>2026-03-28T11:45:22.526Z</time></trkpt><trkpt lat="40.9050917" lon="15.4379017"><ele>449.0</ele><time>2026-03-28T11:45:23.525Z</time></trkpt><trkpt lat="40.9050333" lon="15.43797"><ele>449.5</ele><time>2026-03-28T11:45:24.526Z</time></trkpt><trkpt lat="40.90497" lon="15.4380483"><ele>450.0</ele><time>2026-03-28T11:45:25.525Z</time></trkpt><trkpt lat="40.9049117" lon="15.438125"><ele>450.50000000000006</ele><time>2026-03-28T11:45:26.525Z</time></trkpt><trkpt lat="40.904855" lon="15.438195"><ele>451.0</ele><time>2026-03-28T11:45:27.526Z</time></trkpt><trkpt lat="40.9048117" lon="15.438265"><ele>451.6666666666667</ele><time>2026-03-28T11:45:28.525Z</time></trkpt><trkpt lat="40.904735" lon="15.4383583"><ele>452.33333333333337</ele><time>2026-03-28T11:45:30.526Z</time></trkpt><trkpt lat="40.904675" lon="15.4384017"><ele>453.0</ele><time>2026-03-28T11:45:32.526Z</time></trkpt><trkpt lat="40.9046133" lon="15.4383717"><ele>453.66666666666663</ele><time>2026-03-28T11:45:34.526Z</time></trkpt><trkpt lat="40.9046033" lon="15.43824"><ele>454.3333333333333</ele><time>2026-03-28T11:45:37.527Z</time></trkpt><trkpt lat="40.90463" lon="15.4381067"><ele>455.0</ele><time>2026-03-28T11:45:39.527Z</time></trkpt><trkpt lat="40.90467" lon="15.43796"><ele>457.0</ele><time>2026-03-28T11:45:41.527Z</time></trkpt><trkpt lat="40.9047017" lon="15.4378467"><ele>459.0</ele><time>2026-03-28T11:45:43.527Z</time></trkpt><trkpt lat="40.90473" lon="15.437755"><ele>461.0</ele><time>2026-03-28T11:45:45.527Z</time></trkpt><trkpt lat="40.9046817" lon="15.4376733"><ele>463.0</ele><time>2026-03-28T11:45:48.527Z</time></trkpt><trkpt lat="40.9046117" lon="15.4377267"><ele>465.0</ele><time>2026-03-28T11:45:50.527Z</time></trkpt><trkpt lat="40.9045117" lon="15.4378433"><ele>465.0</ele><time>2026-03-28T11:45:52.527Z</time></trkpt><trkpt lat="40.9044433" lon="15.437915"><ele>465.0</ele><time>2026-03-28T11:45:53.527Z</time></trkpt><trkpt lat="40.90437" lon="15.4379883"><ele>465.0</ele><time>2026-03-28T11:45:54.526Z</time></trkpt><trkpt lat="40.9043083" lon="15.4380617"><ele>465.0</ele><time>2026-03-28T11:45:55.527Z</time></trkpt><trkpt lat="40.9042533" lon="15.43812"><ele>465.0</ele><time>2026-03-28T11:45:56.527Z</time></trkpt><trkpt lat="40.9041683" lon="15.43819"><ele>465.0</ele><time>2026-03-28T11:45:58.527Z</time></trkpt><trkpt lat="40.9040917" lon="15.4381917"><ele>468.4</ele><time>2026-03-28T11:46:00.527Z</time></trkpt><trkpt lat="40.904045" lon="15.4381233"><ele>471.8</ele><time>2026-03-28T11:46:02.526Z</time></trkpt><trkpt lat="40.9040467" lon="15.438025"><ele>475.20000000000005</ele><time>2026-03-28T11:46:04.527Z</time></trkpt><trkpt lat="40.904075" lon="15.4378733"><ele>478.6</ele><time>2026-03-28T11:46:06.526Z</time></trkpt><trkpt lat="40.9041033" lon="15.4377167"><ele>482.0</ele><time>2026-03-28T11:46:08.526Z</time></trkpt><trkpt lat="40.90412" lon="15.437625"><ele>483.8333333333333</ele><time>2026-03-28T11:46:09.527Z</time></trkpt><trkpt lat="40.904135" lon="15.4375267"><ele>485.66666666666663</ele><time>2026-03-28T11:46:10.527Z</time></trkpt><trkpt lat="40.9041433" lon="15.4374417"><ele>487.5</ele><time>2026-03-28T11:46:11.527Z</time></trkpt><trkpt lat="40.904145" lon="15.43733"><ele>489.33333333333337</ele><time>2026-03-28T11:46:13.526Z</time></trkpt><trkpt lat="40.90411" lon="15.43725"><ele>491.1666666666667</ele><time>2026-03-28T11:46:15.526Z</time></trkpt><trkpt lat="40.904025" lon="15.4372483"><ele>493.0</ele><time>2026-03-28T11:46:17.526Z</time></trkpt><trkpt lat="40.9039367" lon="15.437325"><ele>493.0</ele><time>2026-03-28T11:46:19.527Z</time></trkpt><trkpt lat="40.90389" lon="15.4373883"><ele>493.0</ele><time>2026-03-28T11:46:20.527Z</time></trkpt><trkpt lat="40.9038417" lon="15.4374467"><ele>493.0</ele><time>2026-03-28T11:46:21.526Z</time></trkpt><trkpt lat="40.9037883" lon="15.4375"><ele>493.0</ele><time>2026-03-28T11:46:22.526Z</time></trkpt><trkpt lat="40.90373" lon="15.43756"><ele>493.0</ele><time>2026-03-28T11:46:23.527Z</time></trkpt><trkpt lat="40.9036633" lon="15.4376217"><ele>493.0</ele><time>2026-03-28T11:46:24.526Z</time></trkpt><trkpt lat="40.9036067" lon="15.4376683"><ele>493.0</ele><time>2026-03-28T11:46:25.527Z</time></trkpt><trkpt lat="40.9035183" lon="15.4377167"><ele>493.00000000000006</ele><time>2026-03-28T11:46:27.526Z</time></trkpt><trkpt lat="40.9034483" lon="15.4377"><ele>493.0</ele><time>2026-03-28T11:46:29.527Z</time></trkpt><trkpt lat="40.903445" lon="15.4375733"><ele>493.0</ele><time>2026-03-28T11:46:32.527Z</time></trkpt><trkpt lat="40.90349" lon="15.4374683"><ele>493.0</ele><time>2026-03-28T11:46:34.526Z</time></trkpt><trkpt lat="40.90352" lon="15.4373217"><ele>493.00000000000006</ele><time>2026-03-28T11:46:36.527Z</time></trkpt><trkpt lat="40.9035267" lon="15.4372333"><ele>493.0</ele><time>2026-03-28T11:46:37.527Z</time></trkpt><trkpt lat="40.9035333" lon="15.4371483"><ele>493.33333333333337</ele><time>2026-03-28T11:46:38.527Z</time></trkpt><trkpt lat="40.90353" lon="15.4370617"><ele>493.6666666666667</ele><time>2026-03-28T11:46:39.527Z</time></trkpt><trkpt lat="40.9035133" lon="15.436975"><ele>494.0</ele><time>2026-03-28T11:46:40.527Z</time></trkpt><trkpt lat="40.9034883" lon="15.4368833"><ele>494.33333333333337</ele><time>2026-03-28T11:46:41.526Z</time></trkpt><trkpt lat="40.9034583" lon="15.4367967"><ele>494.6666666666667</ele><time>2026-03-28T11:46:42.526Z</time></trkpt><trkpt lat="40.9034183" lon="15.4367283"><ele>495.0</ele><time>2026-03-28T11:46:43.526Z</time></trkpt><trkpt lat="40.9033083" lon="15.43662"><ele>499.3333333333333</ele><time>2026-03-28T11:46:45.527Z</time></trkpt><trkpt lat="40.903235" lon="15.4365683"><ele>503.66666666666663</ele><time>2026-03-28T11:46:46.526Z</time></trkpt><trkpt lat="40.9031533" lon="15.4365133"><ele>508.0</ele><time>2026-03-28T11:46:47.526Z</time></trkpt><trkpt lat="40.9030867" lon="15.4364433"><ele>512.3333333333333</ele><time>2026-03-28T11:46:48.527Z</time></trkpt><trkpt lat="40.90302" lon="15.4363817"><ele>516.6666666666666</ele><time>2026-03-28T11:46:49.527Z</time></trkpt><trkpt lat="40.9029483" lon="15.4363117"><ele>521.0</ele><time>2026-03-28T11:46:50.527Z</time></trkpt><trkpt lat="40.9028817" lon="15.436255"><ele>521.0</ele><time>2026-03-28T11:46:51.527Z</time></trkpt><trkpt lat="40.9028267" lon="15.4362033"><ele>521.0</ele><time>2026-03-28T11:46:52.527Z</time></trkpt><trkpt lat="40.9027433" lon="15.43612"><ele>521.0</ele><time>2026-03-28T11:46:54.526Z</time></trkpt><trkpt lat="40.90268" lon="15.4361167"><ele>521.0</ele><time>2026-03-28T11:46:56.526Z</time></trkpt><trkpt lat="40.9026317" lon="15.436185"><ele>521.0</ele><time>2026-03-28T11:46:58.527Z</time></trkpt><trkpt lat="40.9026333" lon="15.4363083"><ele>521.0</ele><time>2026-03-28T11:47:00.526Z</time></trkpt><trkpt lat="40.90265" lon="15.43639"><ele>522.1666666666666</ele><time>2026-03-28T11:47:01.527Z</time></trkpt><trkpt lat="40.9026767" lon="15.43647"><ele>523.3333333333333</ele><time>2026-03-28T11:47:02.527Z</time></trkpt><trkpt lat="40.90271" lon="15.4365417"><ele>524.5</ele><time>2026-03-28T11:47:03.527Z</time></trkpt><trkpt lat="40.902765" lon="15.4366233"><ele>525.6666666666666</ele><time>2026-03-28T11:47:04.526Z</time></trkpt><trkpt lat="40.902815" lon="15.4366983"><ele>526.8333333333334</ele><time>2026-03-28T11:47:05.526Z</time></trkpt><trkpt lat="40.9028733" lon="15.4368317"><ele>528.0</ele><time>2026-03-28T11:47:07.527Z</time></trkpt><trkpt lat="40.9028667" lon="15.4369383"><ele>528.0</ele><time>2026-03-28T11:47:09.527Z</time></trkpt><trkpt lat="40.902785" lon="15.4370367"><ele>528.0</ele><time>2026-03-28T11:47:11.527Z</time></trkpt><trkpt lat="40.9027217" lon="15.4370767"><ele>528.0</ele><time>2026-03-28T11:47:12.527Z</time></trkpt><trkpt lat="40.9026583" lon="15.4371133"><ele>528.0</ele><time>2026-03-28T11:47:13.526Z</time></trkpt><trkpt lat="40.9025917" lon="15.437145"><ele>528.0</ele><time>2026-03-28T11:47:14.527Z</time></trkpt><trkpt lat="40.9025183" lon="15.4371817"><ele>528.0</ele><time>2026-03-28T11:47:15.527Z</time></trkpt><trkpt lat="40.9024367" lon="15.43722"><ele>532.1666666666666</ele><time>2026-03-28T11:47:16.526Z</time></trkpt><trkpt lat="40.9023633" lon="15.4372617"><ele>536.3333333333334</ele><time>2026-03-28T11:47:17.527Z</time></trkpt><trkpt lat="40.902295" lon="15.43731"><ele>540.5</ele><time>2026-03-28T11:47:18.526Z</time></trkpt><trkpt lat="40.9022417" lon="15.4373767"><ele>544.6666666666667</ele><time>2026-03-28T11:47:19.526Z</time></trkpt><trkpt lat="40.9021917" lon="15.4374517"><ele>548.8333333333334</ele><time>2026-03-28T11:47:20.526Z</time></trkpt><trkpt lat="40.9021517" lon="15.43754"><ele>553.0</ele><time>2026-03-28T11:47:21.527Z</time></trkpt><trkpt lat="40.9021033" lon="15.4376383"><ele>553.0</ele><time>2026-03-28T11:47:22.526Z</time></trkpt><trkpt lat="40.9020567" lon="15.43774"><ele>553.0</ele><time>2026-03-28T11:47:23.526Z</time></trkpt><trkpt lat="40.9019967" lon="15.43784"><ele>553.0</ele><time>2026-03-28T11:47:24.527Z</time></trkpt><trkpt lat="40.9019317" lon="15.437925"><ele>553.0</ele><time>2026-03-28T11:47:25.527Z</time></trkpt><trkpt lat="40.9018633" lon="15.438005"><ele>553.0</ele><time>2026-03-28T11:47:26.526Z</time></trkpt><trkpt lat="40.9017917" lon="15.4380783"><ele>555.4285714285714</ele><time>2026-03-28T11:47:27.527Z</time></trkpt><trkpt lat="40.901725" lon="15.4381417"><ele>557.8571428571429</ele><time>2026-03-28T11:47:28.526Z</time></trkpt><trkpt lat="40.901665" lon="15.4381983"><ele>560.2857142857142</ele><time>2026-03-28T11:47:29.527Z</time></trkpt><trkpt lat="40.9016033" lon="15.43826"><ele>562.7142857142858</ele><time>2026-03-28T11:47:30.526Z</time></trkpt><trkpt lat="40.9015517" lon="15.4383117"><ele>565.1428571428571</ele><time>2026-03-28T11:47:31.527Z</time></trkpt><trkpt lat="40.9014817" lon="15.43838"><ele>567.5714285714286</ele><time>2026-03-28T11:47:33.526Z</time></trkpt><trkpt lat="40.901425" lon="15.43842"><ele>570.0</ele><time>2026-03-28T11:47:35.527Z</time></trkpt><trkpt lat="40.90136" lon="15.438375"><ele>570.0</ele><time>2026-03-28T11:47:38.527Z</time></trkpt><trkpt lat="40.9013633" lon="15.4382683"><ele>570.0</ele><time>2026-03-28T11:47:40.527Z</time></trkpt><trkpt lat="40.9013883" lon="15.43812"><ele>570.0</ele><time>2026-03-28T11:47:42.526Z</time></trkpt><trkpt lat="40.9014167" lon="15.43794"><ele>570.0</ele><time>2026-03-28T11:47:44.527Z</time></trkpt><trkpt lat="40.9014233" lon="15.4378183"><ele>570.0</ele><time>2026-03-28T11:47:45.527Z</time></trkpt><trkpt lat="40.901435" lon="15.437685"><ele>571.6</ele><time>2026-03-28T11:47:46.527Z</time></trkpt><trkpt lat="40.901445" lon="15.4375483"><ele>573.2</ele><time>2026-03-28T11:47:47.527Z</time></trkpt><trkpt lat="40.90145" lon="15.4374083"><ele>574.8</ele><time>2026-03-28T11:47:48.527Z</time></trkpt><trkpt lat="40.9014583" lon="15.4372667"><ele>576.4</ele><time>2026-03-28T11:47:49.527Z</time></trkpt><trkpt lat="40.9014717" lon="15.43714"><ele>578.0</ele><time>2026-03-28T11:47:50.526Z</time></trkpt><trkpt lat="40.90149" lon="15.4370217"><ele>579.0</ele><time>2026-03-28T11:47:51.527Z</time></trkpt><trkpt lat="40.9015017" lon="15.436905"><ele>580.0</ele><time>2026-03-28T11:47:52.526Z</time></trkpt><trkpt lat="40.90151" lon="15.436795"><ele>581.0</ele><time>2026-03-28T11:47:53.527Z</time></trkpt><trkpt lat="40.9015183" lon="15.436695"><ele>582.0</ele><time>2026-03-28T11:47:54.526Z</time></trkpt><trkpt lat="40.90149" lon="15.4365617"><ele>583.0</ele><time>2026-03-28T11:47:56.527Z</time></trkpt><trkpt lat="40.9014283" lon="15.436435"><ele>583.0</ele><time>2026-03-28T11:47:58.526Z</time></trkpt><trkpt lat="40.9013533" lon="15.4363333"><ele>583.0</ele><time>2026-03-28T11:48:00.527Z</time></trkpt><trkpt lat="40.9012783" lon="15.4362333"><ele>583.0</ele><time>2026-03-28T11:48:02.527Z</time></trkpt><trkpt lat="40.9012017" lon="15.43609"><ele>583.0</ele><time>2026-03-28T11:48:04.527Z</time></trkpt><trkpt lat="40.9011533" lon="15.4360183"><ele>583.0</ele><time>2026-03-28T11:48:05.527Z</time></trkpt><trkpt lat="40.9011083" lon="15.4359367"><ele>582.7142857142858</ele><time>2026-03-28T11:48:06.527Z</time></trkpt><trkpt lat="40.9010617" lon="15.435855"><ele>582.4285714285714</ele><time>2026-03-28T11:48:07.527Z</time></trkpt><trkpt lat="40.9010183" lon="15.4357783"><ele>582.1428571428571</ele><time>2026-03-28T11:48:08.526Z</time></trkpt><trkpt lat="40.9009817" lon="15.4357"><ele>581.8571428571429</ele><time>2026-03-28T11:48:09.527Z</time></trkpt><trkpt lat="40.9009433" lon="15.43562"><ele>581.5714285714286</ele><time>2026-03-28T11:48:10.527Z</time></trkpt><trkpt lat="40.9008983" lon="15.4355467"><ele>581.2857142857143</ele><time>2026-03-28T11:48:11.526Z</time></trkpt><trkpt lat="40.9008533" lon="15.435475"><ele>581.0</ele><time>2026-03-28T11:48:12.526Z</time></trkpt><trkpt lat="40.9008117" lon="15.4354"><ele>582.0</ele><time>2026-03-28T11:48:13.527Z</time></trkpt><trkpt lat="40.9007767" lon="15.4353217"><ele>583.0</ele><time>2026-03-28T11:48:14.526Z</time></trkpt><trkpt lat="40.90076" lon="15.4352367"><ele>584.0</ele><time>2026-03-28T11:48:15.526Z</time></trkpt><trkpt lat="40.9007683" lon="15.4351483"><ele>585.0</ele><time>2026-03-28T11:48:16.526Z</time></trkpt><trkpt lat="40.9008" lon="15.4349867"><ele>586.0</ele><time>2026-03-28T11:48:18.526Z</time></trkpt><trkpt lat="40.90082" lon="15.434905"><ele>587.0</ele><time>2026-03-28T11:48:19.527Z</time></trkpt><trkpt lat="40.9008383" lon="15.4348183"><ele>587.0</ele><time>2026-03-28T11:48:20.526Z</time></trkpt><trkpt lat="40.9008683" lon="15.4346433"><ele>587.0</ele><time>2026-03-28T11:48:22.527Z</time></trkpt><trkpt lat="40.9008917" lon="15.4345533"><ele>587.0</ele><time>2026-03-28T11:48:23.527Z</time></trkpt><trkpt lat="40.90091" lon="15.4344733"><ele>587.0</ele><time>2026-03-28T11:48:24.527Z</time></trkpt><trkpt lat="40.900925" lon="15.43438"><ele>587.0</ele><time>2026-03-28T11:48:25.526Z</time></trkpt><trkpt lat="40.900945" lon="15.4342933"><ele>587.0</ele><time>2026-03-28T11:48:26.527Z</time></trkpt><trkpt lat="40.9009633" lon="15.4342083"><ele>586.8333333333333</ele><time>2026-03-28T11:48:27.527Z</time></trkpt><trkpt lat="40.900975" lon="15.4341233"><ele>586.6666666666666</ele><time>2026-03-28T11:48:28.527Z</time></trkpt><trkpt lat="40.900985" lon="15.43404"><ele>586.5</ele><time>2026-03-28T11:48:29.526Z</time></trkpt><trkpt lat="40.9010033" lon="15.43396"><ele>586.3333333333334</ele><time>2026-03-28T11:48:30.527Z</time></trkpt><trkpt lat="40.90102" lon="15.4338167"><ele>586.1666666666667</ele><time>2026-03-28T11:48:32.526Z</time></trkpt><trkpt lat="40.9010267" lon="15.4336983"><ele>586.0</ele><time>2026-03-28T11:48:34.527Z</time></trkpt><trkpt lat="40.90096" lon="15.433545"><ele>585.6</ele><time>2026-03-28T11:48:36.527Z</time></trkpt><trkpt lat="40.900915" lon="15.4334467"><ele>585.2</ele><time>2026-03-28T11:48:37.526Z</time></trkpt><trkpt lat="40.9008683" lon="15.433335"><ele>584.8</ele><time>2026-03-28T11:48:38.526Z</time></trkpt><trkpt lat="40.9008333" lon="15.4332033"><ele>584.4</ele><time>2026-03-28T11:48:39.526Z</time></trkpt><trkpt lat="40.9007933" lon="15.4330583"><ele>584.0</ele><time>2026-03-28T11:48:40.526Z</time></trkpt><trkpt lat="40.9007583" lon="15.4329"><ele>584.0</ele><time>2026-03-28T11:48:41.526Z</time></trkpt><trkpt lat="40.9007217" lon="15.4327417"><ele>584.0</ele><time>2026-03-28T11:48:42.527Z</time></trkpt><trkpt lat="40.9006933" lon="15.4325783"><ele>584.0</ele><time>2026-03-28T11:48:43.527Z</time></trkpt><trkpt lat="40.9006683" lon="15.4324133"><ele>584.0</ele><time>2026-03-28T11:48:44.526Z</time></trkpt><trkpt lat="40.9006433" lon="15.4322533"><ele>584.5</ele><time>2026-03-28T11:48:45.526Z</time></trkpt><trkpt lat="40.9006267" lon="15.432095"><ele>585.0</ele><time>2026-03-28T11:48:46.527Z</time></trkpt><trkpt lat="40.9006067" lon="15.4319433"><ele>585.5</ele><time>2026-03-28T11:48:47.526Z</time></trkpt><trkpt lat="40.9005867" lon="15.4317933"><ele>586.0</ele><time>2026-03-28T11:48:48.527Z</time></trkpt><trkpt lat="40.9005617" lon="15.4316433"><ele>586.0</ele><time>2026-03-28T11:48:49.527Z</time></trkpt><trkpt lat="40.9005433" lon="15.431495"><ele>586.0</ele><time>2026-03-28T11:48:50.527Z</time></trkpt><trkpt lat="40.9005267" lon="15.4313567"><ele>586.0</ele><time>2026-03-28T11:48:51.527Z</time></trkpt><trkpt lat="40.9005117" lon="15.4312317"><ele>586.0</ele><time>2026-03-28T11:48:52.527Z</time></trkpt><trkpt lat="40.9004967" lon="15.4311167"><ele>586.0</ele><time>2026-03-28T11:48:53.527Z</time></trkpt><trkpt lat="40.90049" lon="15.431015"><ele>585.6666666666667</ele><time>2026-03-28T11:48:54.526Z</time></trkpt><trkpt lat="40.9004783" lon="15.4309317"><ele>585.3333333333334</ele><time>2026-03-28T11:48:55.527Z</time></trkpt><trkpt lat="40.9004233" lon="15.4307883"><ele>585.0</ele><time>2026-03-28T11:48:57.527Z</time></trkpt><trkpt lat="40.9003183" lon="15.43073"><ele>584.6666666666666</ele><time>2026-03-28T11:48:59.527Z</time></trkpt><trkpt lat="40.9002517" lon="15.4307333"><ele>584.3333333333333</ele><time>2026-03-28T11:49:00.527Z</time></trkpt><trkpt lat="40.9001917" lon="15.4307717"><ele>584.0</ele><time>2026-03-28T11:49:01.527Z</time></trkpt><trkpt lat="40.9001067" lon="15.4309083"><ele>582.0</ele><time>2026-03-28T11:49:03.527Z</time></trkpt><trkpt lat="40.9000817" lon="15.4310117"><ele>580.0</ele><time>2026-03-28T11:49:04.526Z</time></trkpt><trkpt lat="40.9000733" lon="15.431125"><ele>578.0</ele><time>2026-03-28T11:49:05.527Z</time></trkpt><trkpt lat="40.9000667" lon="15.4312517"><ele>576.0</ele><time>2026-03-28T11:49:06.526Z</time></trkpt><trkpt lat="40.9000617" lon="15.4313717"><ele>574.0</ele><time>2026-03-28T11:49:07.527Z</time></trkpt><trkpt lat="40.9000683" lon="15.4314817"><ele>572.0</ele><time>2026-03-28T11:49:08.527Z</time></trkpt><trkpt lat="40.90008" lon="15.43158"><ele>572.0</ele><time>2026-03-28T11:49:09.527Z</time></trkpt><trkpt lat="40.9000867" lon="15.431665"><ele>572.0</ele><time>2026-03-28T11:49:10.527Z</time></trkpt><trkpt lat="40.9000867" lon="15.431805"><ele>572.0</ele><time>2026-03-28T11:49:12.527Z</time></trkpt><trkpt lat="40.9000133" lon="15.4318883"><ele>572.0</ele><time>2026-03-28T11:49:15.526Z</time></trkpt><trkpt lat="40.89995" lon="15.4319083"><ele>572.0</ele><time>2026-03-28T11:49:16.527Z</time></trkpt><trkpt lat="40.8998783" lon="15.4319133"><ele>572.0</ele><time>2026-03-28T11:49:17.527Z</time></trkpt><trkpt lat="40.8998017" lon="15.4319167"><ele>572.0</ele><time>2026-03-28T11:49:18.526Z</time></trkpt><trkpt lat="40.8997217" lon="15.431915"><ele>572.0</ele><time>2026-03-28T11:49:19.526Z</time></trkpt><trkpt lat="40.8996383" lon="15.4319133"><ele>572.0</ele><time>2026-03-28T11:49:20.527Z</time></trkpt><trkpt lat="40.8995533" lon="15.431915"><ele>572.0</ele><time>2026-03-28T11:49:21.527Z</time></trkpt><trkpt lat="40.8994717" lon="15.4319233"><ele>572.0</ele><time>2026-03-28T11:49:22.527Z</time></trkpt><trkpt lat="40.8993867" lon="15.4319317"><ele>572.0</ele><time>2026-03-28T11:49:23.527Z</time></trkpt><trkpt lat="40.8992967" lon="15.4319383"><ele>569.3333333333333</ele><time>2026-03-28T11:49:24.526Z</time></trkpt><trkpt lat="40.899215" lon="15.4319467"><ele>566.6666666666666</ele><time>2026-03-28T11:49:25.527Z</time></trkpt><trkpt lat="40.8991417" lon="15.4319583"><ele>564.0</ele><time>2026-03-28T11:49:26.527Z</time></trkpt><trkpt lat="40.8990717" lon="15.43198"><ele>561.3333333333334</ele><time>2026-03-28T11:49:27.527Z</time></trkpt><trkpt lat="40.899005" lon="15.43199"><ele>558.6666666666667</ele><time>2026-03-28T11:49:28.526Z</time></trkpt><trkpt lat="40.8988917" lon="15.432005"><ele>556.0</ele><time>2026-03-28T11:49:30.527Z</time></trkpt><trkpt lat="40.89878" lon="15.4320383"><ele>556.0</ele><time>2026-03-28T11:49:32.527Z</time></trkpt><trkpt lat="40.898655" lon="15.43201"><ele>556.0</ele><time>2026-03-28T11:49:34.527Z</time></trkpt><trkpt lat="40.8985917" lon="15.43198"><ele>556.0</ele><time>2026-03-28T11:49:35.526Z</time></trkpt><trkpt lat="40.8985283" lon="15.4319467"><ele>556.0</ele><time>2026-03-28T11:49:36.527Z</time></trkpt><trkpt lat="40.8984567" lon="15.43192"><ele>556.0</ele><time>2026-03-28T11:49:37.526Z</time></trkpt><trkpt lat="40.8983867" lon="15.4318867"><ele>556.0</ele><time>2026-03-28T11:49:38.527Z</time></trkpt><trkpt lat="40.89831" lon="15.4318633"><ele>553.8571428571429</ele><time>2026-03-28T11:49:39.527Z</time></trkpt><trkpt lat="40.8982367" lon="15.4318367"><ele>551.7142857142858</ele><time>2026-03-28T11:49:40.526Z</time></trkpt><trkpt lat="40.898165" lon="15.4318083"><ele>549.5714285714287</ele><time>2026-03-28T11:49:41.527Z</time></trkpt><trkpt lat="40.898085" lon="15.43178"><ele>547.4285714285714</ele><time>2026-03-28T11:49:42.527Z</time></trkpt><trkpt lat="40.898005" lon="15.431755"><ele>545.2857142857143</ele><time>2026-03-28T11:49:43.527Z</time></trkpt><trkpt lat="40.8979417" lon="15.4317217"><ele>543.1428571428572</ele><time>2026-03-28T11:49:44.527Z</time></trkpt><trkpt lat="40.8978783" lon="15.4317017"><ele>541.0</ele><time>2026-03-28T11:49:45.527Z</time></trkpt><trkpt lat="40.8977733" lon="15.431685"><ele>541.0</ele><time>2026-03-28T11:49:47.527Z</time></trkpt><trkpt lat="40.897675" lon="15.4316767"><ele>541.0</ele><time>2026-03-28T11:49:49.526Z</time></trkpt><trkpt lat="40.8975833" lon="15.4316983"><ele>541.0</ele><time>2026-03-28T11:49:52.526Z</time></trkpt><trkpt lat="40.897495" lon="15.4317233"><ele>541.0</ele><time>2026-03-28T11:49:54.526Z</time></trkpt><trkpt lat="40.8974317" lon="15.4317367"><ele>541.0</ele><time>2026-03-28T11:49:55.526Z</time></trkpt><trkpt lat="40.8973667" lon="15.4317717"><ele>541.0</ele><time>2026-03-28T11:49:56.526Z</time></trkpt><trkpt lat="40.8972967" lon="15.431815"><ele>539.0</ele><time>2026-03-28T11:49:57.527Z</time></trkpt><trkpt lat="40.897225" lon="15.4318567"><ele>537.0</ele><time>2026-03-28T11:49:58.526Z</time></trkpt><trkpt lat="40.8971317" lon="15.4319083"><ele>535.0</ele><time>2026-03-28T11:50:00.526Z</time></trkpt><trkpt lat="40.8970483" lon="15.4319467"><ele>533.0</ele><time>2026-03-28T11:50:02.526Z</time></trkpt><trkpt lat="40.89692" lon="15.432005"><ele>531.0</ele><time>2026-03-28T11:50:04.527Z</time></trkpt><trkpt lat="40.8968467" lon="15.4320333"><ele>531.0</ele><time>2026-03-28T11:50:05.527Z</time></trkpt><trkpt lat="40.8967683" lon="15.4320567"><ele>531.0</ele><time>2026-03-28T11:50:06.527Z</time></trkpt><trkpt lat="40.8966933" lon="15.432085"><ele>531.0</ele><time>2026-03-28T11:50:07.526Z</time></trkpt><trkpt lat="40.8966217" lon="15.432115"><ele>531.0</ele><time>2026-03-28T11:50:08.527Z</time></trkpt><trkpt lat="40.8965567" lon="15.4321467"><ele>531.0</ele><time>2026-03-28T11:50:09.527Z</time></trkpt><trkpt lat="40.896495" lon="15.4321733"><ele>531.0</ele><time>2026-03-28T11:50:10.526Z</time></trkpt><trkpt lat="40.8963833" lon="15.4322383"><ele>529.5</ele><time>2026-03-28T11:50:12.526Z</time></trkpt><trkpt lat="40.8963283" lon="15.432285"><ele>528.0</ele><time>2026-03-28T11:50:13.527Z</time></trkpt><trkpt lat="40.896275" lon="15.43234"><ele>526.5</ele><time>2026-03-28T11:50:14.526Z</time></trkpt><trkpt lat="40.8961967" lon="15.4324717"><ele>525.0</ele><time>2026-03-28T11:50:16.526Z</time></trkpt><trkpt lat="40.8961583" lon="15.43255"><ele>523.5</ele><time>2026-03-28T11:50:17.527Z</time></trkpt><trkpt lat="40.896115" lon="15.4326217"><ele>522.0</ele><time>2026-03-28T11:50:18.527Z</time></trkpt><trkpt lat="40.8960667" lon="15.4326833"><ele>522.0</ele><time>2026-03-28T11:50:19.527Z</time></trkpt><trkpt lat="40.89602" lon="15.43275"><ele>522.0</ele><time>2026-03-28T11:50:20.527Z</time></trkpt><trkpt lat="40.8959767" lon="15.4328133"><ele>522.0</ele><time>2026-03-28T11:50:21.527Z</time></trkpt><trkpt lat="40.8959267" lon="15.43288"><ele>522.0</ele><time>2026-03-28T11:50:22.527Z</time></trkpt><trkpt lat="40.89588" lon="15.4329467"><ele>522.0</ele><time>2026-03-28T11:50:23.526Z</time></trkpt><trkpt lat="40.8958067" lon="15.433035"><ele>522.0</ele><time>2026-03-28T11:50:25.527Z</time></trkpt><trkpt lat="40.895725" lon="15.4330967"><ele>518.2</ele><time>2026-03-28T11:50:27.527Z</time></trkpt><trkpt lat="40.89563" lon="15.4331483"><ele>514.4000000000001</ele><time>2026-03-28T11:50:29.527Z</time></trkpt><trkpt lat="40.8955333" lon="15.4331917"><ele>510.59999999999997</ele><time>2026-03-28T11:50:31.527Z</time></trkpt><trkpt lat="40.895415" lon="15.4332317"><ele>506.79999999999995</ele><time>2026-03-28T11:50:33.526Z</time></trkpt><trkpt lat="40.8952967" lon="15.4332483"><ele>503.0</ele><time>2026-03-28T11:50:35.526Z</time></trkpt><trkpt lat="40.8952317" lon="15.4332483"><ele>502.99999999999994</ele><time>2026-03-28T11:50:36.526Z</time></trkpt><trkpt lat="40.8951617" lon="15.4332417"><ele>503.0</ele><time>2026-03-28T11:50:37.526Z</time></trkpt><trkpt lat="40.8950417" lon="15.43323"><ele>503.0</ele><time>2026-03-28T11:50:39.526Z</time></trkpt><trkpt lat="40.8949783" lon="15.4332183"><ele>503.0</ele><time>2026-03-28T11:50:40.527Z</time></trkpt><trkpt lat="40.8948767" lon="15.4332183"><ele>502.99999999999994</ele><time>2026-03-28T11:50:42.527Z</time></trkpt><trkpt lat="40.8947983" lon="15.4332233"><ele>503.0</ele><time>2026-03-28T11:50:44.527Z</time></trkpt><trkpt lat="40.8947183" lon="15.4332167"><ele>501.3333333333333</ele><time>2026-03-28T11:50:46.526Z</time></trkpt><trkpt lat="40.894625" lon="15.43317"><ele>499.66666666666663</ele><time>2026-03-28T11:50:48.527Z</time></trkpt><trkpt lat="40.8945667" lon="15.433135"><ele>498.0</ele><time>2026-03-28T11:50:49.527Z</time></trkpt><trkpt lat="40.8944967" lon="15.4330817"><ele>496.33333333333337</ele><time>2026-03-28T11:50:50.526Z</time></trkpt><trkpt lat="40.89442" lon="15.4330283"><ele>494.6666666666667</ele><time>2026-03-28T11:50:51.527Z</time></trkpt><trkpt lat="40.8943467" lon="15.4329633"><ele>493.0</ele><time>2026-03-28T11:50:52.526Z</time></trkpt><trkpt lat="40.8942867" lon="15.43289"><ele>488.2</ele><time>2026-03-28T11:50:53.527Z</time></trkpt><trkpt lat="40.894235" lon="15.4328067"><ele>483.4</ele><time>2026-03-28T11:50:54.527Z</time></trkpt><trkpt lat="40.8942" lon="15.4326983"><ele>478.59999999999997</ele><time>2026-03-28T11:50:55.526Z</time></trkpt><trkpt lat="40.8941717" lon="15.4325683"><ele>473.79999999999995</ele><time>2026-03-28T11:50:56.527Z</time></trkpt><trkpt lat="40.894155" lon="15.4324283"><ele>469.0</ele><time>2026-03-28T11:50:57.527Z</time></trkpt><trkpt lat="40.89415" lon="15.4322917"><ele>469.0</ele><time>2026-03-28T11:50:58.527Z</time></trkpt><trkpt lat="40.8941567" lon="15.43217"><ele>469.0</ele><time>2026-03-28T11:50:59.527Z</time></trkpt><trkpt lat="40.89418" lon="15.4320533"><ele>469.0</ele><time>2026-03-28T11:51:00.527Z</time></trkpt><trkpt lat="40.89422" lon="15.4319417"><ele>469.0</ele><time>2026-03-28T11:51:01.526Z</time></trkpt><trkpt lat="40.894265" lon="15.4318383"><ele>469.0</ele><time>2026-03-28T11:51:02.526Z</time></trkpt><trkpt lat="40.8943017" lon="15.431735"><ele>468.33333333333337</ele><time>2026-03-28T11:51:03.526Z</time></trkpt><trkpt lat="40.89432" lon="15.431635"><ele>467.6666666666667</ele><time>2026-03-28T11:51:04.526Z</time></trkpt><trkpt lat="40.89433" lon="15.4315417"><ele>467.0</ele><time>2026-03-28T11:51:05.527Z</time></trkpt><trkpt lat="40.8943217" lon="15.4314583"><ele>466.33333333333337</ele><time>2026-03-28T11:51:06.527Z</time></trkpt><trkpt lat="40.894265" lon="15.4313333"><ele>465.6666666666667</ele><time>2026-03-28T11:51:08.527Z</time></trkpt><trkpt lat="40.8941767" lon="15.43135"><ele>465.0</ele><time>2026-03-28T11:51:10.526Z</time></trkpt><trkpt lat="40.8941333" lon="15.4315017"><ele>465.0</ele><time>2026-03-28T11:51:12.527Z</time></trkpt><trkpt lat="40.894125" lon="15.4316167"><ele>465.0</ele><time>2026-03-28T11:51:13.526Z</time></trkpt><trkpt lat="40.8941033" lon="15.431735"><ele>465.0</ele><time>2026-03-28T11:51:14.526Z</time></trkpt><trkpt lat="40.8940667" lon="15.431855"><ele>465.0</ele><time>2026-03-28T11:51:15.527Z</time></trkpt><trkpt lat="40.89401" lon="15.43197"><ele>465.0</ele><time>2026-03-28T11:51:16.526Z</time></trkpt><trkpt lat="40.8939567" lon="15.4321083"><ele>465.8</ele><time>2026-03-28T11:51:17.526Z</time></trkpt><trkpt lat="40.8939183" lon="15.4322467"><ele>466.6</ele><time>2026-03-28T11:51:18.527Z</time></trkpt><trkpt lat="40.893885" lon="15.4323833"><ele>467.4</ele><time>2026-03-28T11:51:19.526Z</time></trkpt><trkpt lat="40.893855" lon="15.432515"><ele>468.2</ele><time>2026-03-28T11:51:20.527Z</time></trkpt><trkpt lat="40.8938283" lon="15.4326417"><ele>469.0</ele><time>2026-03-28T11:51:21.527Z</time></trkpt><trkpt lat="40.89381" lon="15.432765"><ele>469.0</ele><time>2026-03-28T11:51:22.527Z</time></trkpt><trkpt lat="40.8937933" lon="15.432875"><ele>469.0</ele><time>2026-03-28T11:51:23.527Z</time></trkpt><trkpt lat="40.8937917" lon="15.4329717"><ele>469.0</ele><time>2026-03-28T11:51:24.527Z</time></trkpt><trkpt lat="40.893745" lon="15.433115"><ele>469.0</ele><time>2026-03-28T11:51:26.526Z</time></trkpt><trkpt lat="40.89366" lon="15.4331483"><ele>469.0</ele><time>2026-03-28T11:51:28.527Z</time></trkpt><trkpt lat="40.8936017" lon="15.4330317"><ele>469.0</ele><time>2026-03-28T11:51:30.527Z</time></trkpt><trkpt lat="40.8936017" lon="15.4329417"><ele>469.0</ele><time>2026-03-28T11:51:31.526Z</time></trkpt><trkpt lat="40.8936117" lon="15.4328217"><ele>469.0</ele><time>2026-03-28T11:51:32.527Z</time></trkpt><trkpt lat="40.89363" lon="15.4326833"><ele>469.0</ele><time>2026-03-28T11:51:33.526Z</time></trkpt><trkpt lat="40.8936433" lon="15.4325333"><ele>469.0</ele><time>2026-03-28T11:51:34.527Z</time></trkpt><trkpt lat="40.893655" lon="15.4323617"><ele>469.0</ele><time>2026-03-28T11:51:35.526Z</time></trkpt><trkpt lat="40.8936633" lon="15.43218"><ele>469.0</ele><time>2026-03-28T11:51:36.526Z</time></trkpt><trkpt lat="40.89368" lon="15.4320033"><ele>469.0</ele><time>2026-03-28T11:51:37.527Z</time></trkpt><trkpt lat="40.893695" lon="15.43184"><ele>469.0</ele><time>2026-03-28T11:51:38.526Z</time></trkpt><trkpt lat="40.893705" lon="15.4316817"><ele>468.2</ele><time>2026-03-28T11:51:39.527Z</time></trkpt><trkpt lat="40.893715" lon="15.4315267"><ele>467.4</ele><time>2026-03-28T11:51:40.527Z</time></trkpt><trkpt lat="40.8937233" lon="15.4313767"><ele>466.6</ele><time>2026-03-28T11:51:41.527Z</time></trkpt><trkpt lat="40.89373" lon="15.4312317"><ele>465.8</ele><time>2026-03-28T11:51:42.527Z</time></trkpt><trkpt lat="40.8937433" lon="15.4311"><ele>465.0</ele><time>2026-03-28T11:51:43.527Z</time></trkpt><trkpt lat="40.893775" lon="15.430985"><ele>463.5</ele><time>2026-03-28T11:51:44.527Z</time></trkpt><trkpt lat="40.89383" lon="15.4308817"><ele>462.0</ele><time>2026-03-28T11:51:45.527Z</time></trkpt><trkpt lat="40.89389" lon="15.4307917"><ele>460.5</ele><time>2026-03-28T11:51:46.526Z</time></trkpt><trkpt lat="40.8939483" lon="15.4307067"><ele>459.0</ele><time>2026-03-28T11:51:47.527Z</time></trkpt><trkpt lat="40.894" lon="15.430635"><ele>457.5</ele><time>2026-03-28T11:51:48.526Z</time></trkpt><trkpt lat="40.8940317" lon="15.4305083"><ele>456.0</ele><time>2026-03-28T11:51:50.527Z</time></trkpt><trkpt lat="40.8939317" lon="15.4304517"><ele>456.0</ele><time>2026-03-28T11:51:52.527Z</time></trkpt><trkpt lat="40.89386" lon="15.4304633"><ele>456.0</ele><time>2026-03-28T11:51:53.526Z</time></trkpt><trkpt lat="40.893795" lon="15.43051"><ele>456.0</ele><time>2026-03-28T11:51:54.527Z</time></trkpt><trkpt lat="40.8937417" lon="15.43059"><ele>456.0</ele><time>2026-03-28T11:51:55.527Z</time></trkpt><trkpt lat="40.8937" lon="15.4306917"><ele>456.0</ele><time>2026-03-28T11:51:56.527Z</time></trkpt><trkpt lat="40.8936483" lon="15.4308033"><ele>456.0</ele><time>2026-03-28T11:51:57.527Z</time></trkpt><trkpt lat="40.8935933" lon="15.43093"><ele>456.0</ele><time>2026-03-28T11:51:58.528Z</time></trkpt><trkpt lat="40.8935367" lon="15.4310667"><ele>456.0</ele><time>2026-03-28T11:51:59.528Z</time></trkpt><trkpt lat="40.8934817" lon="15.4312067"><ele>456.0</ele><time>2026-03-28T11:52:00.528Z</time></trkpt><trkpt lat="40.8934233" lon="15.4313433"><ele>456.0</ele><time>2026-03-28T11:52:01.528Z</time></trkpt><trkpt lat="40.8933733" lon="15.4314717"><ele>450.5</ele><time>2026-03-28T11:52:02.528Z</time></trkpt><trkpt lat="40.89332" lon="15.4315983"><ele>445.0</ele><time>2026-03-28T11:52:03.528Z</time></trkpt><trkpt lat="40.89327" lon="15.4317283"><ele>439.5</ele><time>2026-03-28T11:52:04.527Z</time></trkpt><trkpt lat="40.8932167" lon="15.4318667"><ele>434.0</ele><time>2026-03-28T11:52:05.528Z</time></trkpt><trkpt lat="40.8931833" lon="15.4320117"><ele>435.79999999999995</ele><time>2026-03-28T11:52:06.528Z</time></trkpt><trkpt lat="40.8931583" lon="15.4321483"><ele>437.59999999999997</ele><time>2026-03-28T11:52:07.527Z</time></trkpt><trkpt lat="40.8931317" lon="15.4322833"><ele>439.4</ele><time>2026-03-28T11:52:08.527Z</time></trkpt><trkpt lat="40.8931017" lon="15.4324083"><ele>441.2</ele><time>2026-03-28T11:52:09.527Z</time></trkpt><trkpt lat="40.893065" lon="15.4325217"><ele>443.0</ele><time>2026-03-28T11:52:10.527Z</time></trkpt><trkpt lat="40.8930383" lon="15.4326333"><ele>442.99999999999994</ele><time>2026-03-28T11:52:11.527Z</time></trkpt><trkpt lat="40.893015" lon="15.4327367"><ele>443.0</ele><time>2026-03-28T11:52:12.527Z</time></trkpt><trkpt lat="40.8929967" lon="15.4328183"><ele>443.0</ele><time>2026-03-28T11:52:13.527Z</time></trkpt><trkpt lat="40.892945" lon="15.432935"><ele>443.0</ele><time>2026-03-28T11:52:15.527Z</time></trkpt><trkpt lat="40.8928667" lon="15.4329317"><ele>442.99999999999994</ele><time>2026-03-28T11:52:17.527Z</time></trkpt><trkpt lat="40.8928283" lon="15.4327967"><ele>443.0</ele><time>2026-03-28T11:52:19.527Z</time></trkpt><trkpt lat="40.8928367" lon="15.4327"><ele>443.0</ele><time>2026-03-28T11:52:20.528Z</time></trkpt><trkpt lat="40.8928583" lon="15.4325767"><ele>442.99999999999994</ele><time>2026-03-28T11:52:21.527Z</time></trkpt><trkpt lat="40.8928917" lon="15.4324467"><ele>442.99999999999994</ele><time>2026-03-28T11:52:22.527Z</time></trkpt><trkpt lat="40.892915" lon="15.4323033"><ele>443.0</ele><time>2026-03-28T11:52:23.527Z</time></trkpt><trkpt lat="40.892935" lon="15.43214"><ele>443.0</ele><time>2026-03-28T11:52:24.528Z</time></trkpt><trkpt lat="40.8929467" lon="15.431975"><ele>440.75</ele><time>2026-03-28T11:52:25.528Z</time></trkpt><trkpt lat="40.8929567" lon="15.4318083"><ele>438.5</ele><time>2026-03-28T11:52:26.528Z</time></trkpt><trkpt lat="40.8929667" lon="15.4316417"><ele>436.25</ele><time>2026-03-28T11:52:27.528Z</time></trkpt><trkpt lat="40.8929883" lon="15.43149"><ele>434.0</ele><time>2026-03-28T11:52:28.527Z</time></trkpt><trkpt lat="40.893005" lon="15.4313467"><ele>432.0</ele><time>2026-03-28T11:52:29.528Z</time></trkpt><trkpt lat="40.8930233" lon="15.4312083"><ele>430.0</ele><time>2026-03-28T11:52:30.528Z</time></trkpt><trkpt lat="40.8930433" lon="15.4310683"><ele>428.0</ele><time>2026-03-28T11:52:31.527Z</time></trkpt><trkpt lat="40.893075" lon="15.430935"><ele>426.0</ele><time>2026-03-28T11:52:32.527Z</time></trkpt><trkpt lat="40.893115" lon="15.4308"><ele>424.0</ele><time>2026-03-28T11:52:33.527Z</time></trkpt><trkpt lat="40.8931633" lon="15.4306633"><ele>424.0</ele><time>2026-03-28T11:52:34.527Z</time></trkpt><trkpt lat="40.8932117" lon="15.4305317"><ele>424.0</ele><time>2026-03-28T11:52:35.528Z</time></trkpt><trkpt lat="40.893255" lon="15.430395"><ele>424.0</ele><time>2026-03-28T11:52:36.528Z</time></trkpt><trkpt lat="40.8932883" lon="15.4302683"><ele>424.0</ele><time>2026-03-28T11:52:37.528Z</time></trkpt><trkpt lat="40.89332" lon="15.43015"><ele>424.0</ele><time>2026-03-28T11:52:38.527Z</time></trkpt><trkpt lat="40.89334" lon="15.4300367"><ele>422.79999999999995</ele><time>2026-03-28T11:52:39.527Z</time></trkpt><trkpt lat="40.8933367" lon="15.4299317"><ele>421.59999999999997</ele><time>2026-03-28T11:52:40.528Z</time></trkpt><trkpt lat="40.8933017" lon="15.4298267"><ele>420.4</ele><time>2026-03-28T11:52:41.528Z</time></trkpt><trkpt lat="40.8932467" lon="15.4297317"><ele>419.2</ele><time>2026-03-28T11:52:42.527Z</time></trkpt><trkpt lat="40.89317" lon="15.4296567"><ele>418.0</ele><time>2026-03-28T11:52:43.527Z</time></trkpt><trkpt lat="40.8930667" lon="15.4296067"><ele>420.4</ele><time>2026-03-28T11:52:44.528Z</time></trkpt><trkpt lat="40.8929617" lon="15.4295583"><ele>422.79999999999995</ele><time>2026-03-28T11:52:45.528Z</time></trkpt><trkpt lat="40.8928633" lon="15.4295017"><ele>425.2</ele><time>2026-03-28T11:52:46.528Z</time></trkpt><trkpt lat="40.8927717" lon="15.429435"><ele>427.6</ele><time>2026-03-28T11:52:47.528Z</time></trkpt><trkpt lat="40.8927083" lon="15.429345"><ele>430.0</ele><time>2026-03-28T11:52:48.528Z</time></trkpt><trkpt lat="40.8926633" lon="15.429245"><ele>430.00000000000006</ele><time>2026-03-28T11:52:49.527Z</time></trkpt><trkpt lat="40.8926317" lon="15.429145"><ele>430.0</ele><time>2026-03-28T11:52:50.528Z</time></trkpt><trkpt lat="40.8926233" lon="15.4290483"><ele>430.0</ele><time>2026-03-28T11:52:51.528Z</time></trkpt><trkpt lat="40.8926067" lon="15.4289033"><ele>430.0</ele><time>2026-03-28T11:52:53.528Z</time></trkpt><trkpt lat="40.8925517" lon="15.4288317"><ele>430.00000000000006</ele><time>2026-03-28T11:52:55.528Z</time></trkpt><trkpt lat="40.8924833" lon="15.4289067"><ele>430.0</ele><time>2026-03-28T11:52:57.528Z</time></trkpt><trkpt lat="40.8924717" lon="15.42906"><ele>430.0</ele><time>2026-03-28T11:52:59.528Z</time></trkpt><trkpt lat="40.8924917" lon="15.4291617"><ele>430.0</ele><time>2026-03-28T11:53:00.528Z</time></trkpt><trkpt lat="40.8925267" lon="15.42927"><ele>430.0</ele><time>2026-03-28T11:53:01.527Z</time></trkpt><trkpt lat="40.8925717" lon="15.429385"><ele>430.0</ele><time>2026-03-28T11:53:02.528Z</time></trkpt><trkpt lat="40.8926217" lon="15.4295133"><ele>430.0</ele><time>2026-03-28T11:53:03.528Z</time></trkpt><trkpt lat="40.89267" lon="15.4296483"><ele>428.00000000000006</ele><time>2026-03-28T11:53:04.527Z</time></trkpt><trkpt lat="40.89271" lon="15.4297567"><ele>426.0</ele><time>2026-03-28T11:53:05.527Z</time></trkpt><trkpt lat="40.8927417" lon="15.42987"><ele>424.0</ele><time>2026-03-28T11:53:06.528Z</time></trkpt><trkpt lat="40.8927633" lon="15.4299717"><ele>422.0</ele><time>2026-03-28T11:53:07.527Z</time></trkpt><trkpt lat="40.8927817" lon="15.4300667"><ele>420.00000000000006</ele><time>2026-03-28T11:53:08.527Z</time></trkpt><trkpt lat="40.892795" lon="15.4301683"><ele>418.0</ele><time>2026-03-28T11:53:09.527Z</time></trkpt><trkpt lat="40.8927833" lon="15.4302617"><ele>418.00000000000006</ele><time>2026-03-28T11:53:10.527Z</time></trkpt><trkpt lat="40.892755" lon="15.4303533"><ele>418.0</ele><time>2026-03-28T11:53:11.527Z</time></trkpt><trkpt lat="40.8927133" lon="15.4304433"><ele>418.0</ele><time>2026-03-28T11:53:12.527Z</time></trkpt><trkpt lat="40.892655" lon="15.430535"><ele>418.0</ele><time>2026-03-28T11:53:13.528Z</time></trkpt><trkpt lat="40.8925933" lon="15.430635"><ele>418.00000000000006</ele><time>2026-03-28T11:53:14.527Z</time></trkpt><trkpt lat="40.892525" lon="15.43073"><ele>418.0</ele><time>2026-03-28T11:53:15.528Z</time></trkpt><trkpt lat="40.8924567" lon="15.43082"><ele>414.83333333333337</ele><time>2026-03-28T11:53:16.527Z</time></trkpt><trkpt lat="40.89239" lon="15.4309067"><ele>411.6666666666667</ele><time>2026-03-28T11:53:17.527Z</time></trkpt><trkpt lat="40.8923333" lon="15.4309883"><ele>408.5</ele><time>2026-03-28T11:53:18.528Z</time></trkpt><trkpt lat="40.892275" lon="15.43106"><ele>405.33333333333337</ele><time>2026-03-28T11:53:19.527Z</time></trkpt><trkpt lat="40.89222" lon="15.431115"><ele>402.1666666666667</ele><time>2026-03-28T11:53:20.528Z</time></trkpt><trkpt lat="40.89215" lon="15.4311633"><ele>399.0</ele><time>2026-03-28T11:53:21.528Z</time></trkpt><trkpt lat="40.8920783" lon="15.43118"><ele>399.0</ele><time>2026-03-28T11:53:22.528Z</time></trkpt><trkpt lat="40.89201" lon="15.43117"><ele>399.0</ele><time>2026-03-28T11:53:23.528Z</time></trkpt><trkpt lat="40.8919267" lon="15.431145"><ele>399.0</ele><time>2026-03-28T11:53:24.528Z</time></trkpt><trkpt lat="40.891845" lon="15.43111"><ele>399.0</ele><time>2026-03-28T11:53:25.528Z</time></trkpt><trkpt lat="40.8917633" lon="15.4310617"><ele>399.0</ele><time>2026-03-28T11:53:26.528Z</time></trkpt><trkpt lat="40.891685" lon="15.4310017"><ele>399.0</ele><time>2026-03-28T11:53:27.527Z</time></trkpt><trkpt lat="40.8916033" lon="15.4309667"><ele>396.79999999999995</ele><time>2026-03-28T11:53:28.528Z</time></trkpt><trkpt lat="40.89152" lon="15.4309483"><ele>394.59999999999997</ele><time>2026-03-28T11:53:29.528Z</time></trkpt><trkpt lat="40.891425" lon="15.430955"><ele>392.4</ele><time>2026-03-28T11:53:30.528Z</time></trkpt><trkpt lat="40.89133" lon="15.430965"><ele>390.2</ele><time>2026-03-28T11:53:31.527Z</time></trkpt><trkpt lat="40.8912283" lon="15.4309917"><ele>388.0</ele><time>2026-03-28T11:53:32.528Z</time></trkpt><trkpt lat="40.8911283" lon="15.4310217"><ele>388.00000000000006</ele><time>2026-03-28T11:53:33.528Z</time></trkpt><trkpt lat="40.8910267" lon="15.43105"><ele>388.0</ele><time>2026-03-28T11:53:34.528Z</time></trkpt><trkpt lat="40.8909417" lon="15.4310783"><ele>388.0</ele><time>2026-03-28T11:53:35.528Z</time></trkpt><trkpt lat="40.8908617" lon="15.4311067"><ele>388.0</ele><time>2026-03-28T11:53:36.527Z</time></trkpt><trkpt lat="40.8907833" lon="15.4311267"><ele>388.00000000000006</ele><time>2026-03-28T11:53:37.528Z</time></trkpt><trkpt lat="40.8907083" lon="15.4311383"><ele>388.0</ele><time>2026-03-28T11:53:38.528Z</time></trkpt><trkpt lat="40.8906433" lon="15.431125"><ele>387.0</ele><time>2026-03-28T11:53:39.528Z</time></trkpt><trkpt lat="40.89054" lon="15.431035"><ele>386.0</ele><time>2026-03-28T11:53:41.527Z</time></trkpt><trkpt lat="40.8905383" lon="15.4308767"><ele>385.0</ele><time>2026-03-28T11:53:43.528Z</time></trkpt><trkpt lat="40.8905733" lon="15.4307933"><ele>384.0</ele><time>2026-03-28T11:53:44.528Z</time></trkpt><trkpt lat="40.8906217" lon="15.43071"><ele>383.0</ele><time>2026-03-28T11:53:45.527Z</time></trkpt><trkpt lat="40.890685" lon="15.43063"><ele>383.0</ele><time>2026-03-28T11:53:46.527Z</time></trkpt><trkpt lat="40.890765" lon="15.4305617"><ele>383.0</ele><time>2026-03-28T11:53:47.527Z</time></trkpt><trkpt lat="40.890855" lon="15.43051"><ele>383.0</ele><time>2026-03-28T11:53:48.528Z</time></trkpt><trkpt lat="40.890955" lon="15.4304733"><ele>383.0</ele><time>2026-03-28T11:53:49.528Z</time></trkpt><trkpt lat="40.8910567" lon="15.4304383"><ele>383.0</ele><time>2026-03-28T11:53:50.528Z</time></trkpt><trkpt lat="40.8911517" lon="15.4304067"><ele>383.0</ele><time>2026-03-28T11:53:51.528Z</time></trkpt><trkpt lat="40.8912383" lon="15.4303783"><ele>383.0</ele><time>2026-03-28T11:53:52.527Z</time></trkpt><trkpt lat="40.8913083" lon="15.4303567"><ele>383.0</ele><time>2026-03-28T11:53:53.527Z</time></trkpt><trkpt lat="40.8914117" lon="15.430305"><ele>383.0</ele><time>2026-03-28T11:53:55.527Z</time></trkpt><trkpt lat="40.8914483" lon="15.4302033"><ele>383.0</ele><time>2026-03-28T11:53:57.528Z</time></trkpt><trkpt lat="40.8913833" lon="15.4300917"><ele>383.0</ele><time>2026-03-28T11:53:59.528Z</time></trkpt><trkpt lat="40.8913283" lon="15.4300483"><ele>383.0</ele><time>2026-03-28T11:54:00.528Z</time></trkpt><trkpt lat="40.8912617" lon="15.4300067"><ele>383.0</ele><time>2026-03-28T11:54:01.527Z</time></trkpt><trkpt lat="40.8911833" lon="15.429975"><ele>383.0</ele><time>2026-03-28T11:54:02.528Z</time></trkpt><trkpt lat="40.891105" lon="15.42994"><ele>383.0</ele><time>2026-03-28T11:54:03.528Z</time></trkpt><trkpt lat="40.8910233" lon="15.4299117"><ele>383.0</ele><time>2026-03-28T11:54:04.527Z</time></trkpt><trkpt lat="40.890945" lon="15.4299"><ele>381.2</ele><time>2026-03-28T11:54:05.528Z</time></trkpt><trkpt lat="40.8908667" lon="15.4299083"><ele>379.4</ele><time>2026-03-28T11:54:06.528Z</time></trkpt><trkpt lat="40.890785" lon="15.429925"><ele>377.59999999999997</ele><time>2026-03-28T11:54:07.527Z</time></trkpt><trkpt lat="40.8906933" lon="15.429975"><ele>375.79999999999995</ele><time>2026-03-28T11:54:08.528Z</time></trkpt><trkpt lat="40.8905917" lon="15.4300467"><ele>374.0</ele><time>2026-03-28T11:54:09.528Z</time></trkpt><trkpt lat="40.8904883" lon="15.4301217"><ele>374.0</ele><time>2026-03-28T11:54:10.527Z</time></trkpt><trkpt lat="40.8903883" lon="15.43019"><ele>374.0</ele><time>2026-03-28T11:54:11.528Z</time></trkpt><trkpt lat="40.8902967" lon="15.430255"><ele>374.0</ele><time>2026-03-28T11:54:12.528Z</time></trkpt><trkpt lat="40.8902083" lon="15.4303167"><ele>374.0</ele><time>2026-03-28T11:54:13.528Z</time></trkpt><trkpt lat="40.8901267" lon="15.4303733"><ele>374.0</ele><time>2026-03-28T11:54:14.528Z</time></trkpt><trkpt lat="40.8900417" lon="15.43042"><ele>373.4</ele><time>2026-03-28T11:54:15.528Z</time></trkpt><trkpt lat="40.8899617" lon="15.4304617"><ele>372.79999999999995</ele><time>2026-03-28T11:54:16.527Z</time></trkpt><trkpt lat="40.8898783" lon="15.4304783"><ele>372.20000000000005</ele><time>2026-03-28T11:54:17.528Z</time></trkpt><trkpt lat="40.889785" lon="15.4304683"><ele>371.6</ele><time>2026-03-28T11:54:18.528Z</time></trkpt><trkpt lat="40.8896817" lon="15.43045"><ele>371.0</ele><time>2026-03-28T11:54:19.528Z</time></trkpt><trkpt lat="40.8895717" lon="15.4304167"><ele>370.0</ele><time>2026-03-28T11:54:20.527Z</time></trkpt><trkpt lat="40.88946" lon="15.4303883"><ele>369.0</ele><time>2026-03-28T11:54:21.527Z</time></trkpt><trkpt lat="40.889355" lon="15.43036"><ele>368.0</ele><time>2026-03-28T11:54:22.528Z</time></trkpt><trkpt lat="40.8892467" lon="15.43034"><ele>367.0</ele><time>2026-03-28T11:54:23.527Z</time></trkpt><trkpt lat="40.889145" lon="15.4303117"><ele>366.0</ele><time>2026-03-28T11:54:24.527Z</time></trkpt><trkpt lat="40.88905" lon="15.4302867"><ele>364.8</ele><time>2026-03-28T11:54:25.527Z</time></trkpt><trkpt lat="40.8889483" lon="15.4302683"><ele>363.6</ele><time>2026-03-28T11:54:26.528Z</time></trkpt><trkpt lat="40.888845" lon="15.4302433"><ele>362.4</ele><time>2026-03-28T11:54:27.528Z</time></trkpt><trkpt lat="40.888745" lon="15.4302067"><ele>361.2</ele><time>2026-03-28T11:54:28.528Z</time></trkpt><trkpt lat="40.8886367" lon="15.4301817"><ele>360.0</ele><time>2026-03-28T11:54:29.527Z</time></trkpt><trkpt lat="40.8885317" lon="15.43015"><ele>360.0</ele><time>2026-03-28T11:54:30.527Z</time></trkpt><trkpt lat="40.8884283" lon="15.4301233"><ele>360.0</ele><time>2026-03-28T11:54:31.528Z</time></trkpt><trkpt lat="40.8883433" lon="15.430105"><ele>360.0</ele><time>2026-03-28T11:54:32.527Z</time></trkpt><trkpt lat="40.88827" lon="15.4300883"><ele>360.0</ele><time>2026-03-28T11:54:33.527Z</time></trkpt><trkpt lat="40.8882033" lon="15.4300667"><ele>360.0</ele><time>2026-03-28T11:54:34.527Z</time></trkpt><trkpt lat="40.8881433" lon="15.43004"><ele>360.0</ele><time>2026-03-28T11:54:35.527Z</time></trkpt><trkpt lat="40.8880667" lon="15.429935"><ele>360.8</ele><time>2026-03-28T11:54:37.527Z</time></trkpt><trkpt lat="40.8880367" lon="15.429765"><ele>361.6</ele><time>2026-03-28T11:54:39.527Z</time></trkpt><trkpt lat="40.8880367" lon="15.42966"><ele>362.4</ele><time>2026-03-28T11:54:40.528Z</time></trkpt><trkpt lat="40.8880417" lon="15.429545"><ele>363.2</ele><time>2026-03-28T11:54:41.528Z</time></trkpt><trkpt lat="40.8880533" lon="15.4294117"><ele>364.0</ele><time>2026-03-28T11:54:42.527Z</time></trkpt><trkpt lat="40.8880667" lon="15.42926"><ele>364.25</ele><time>2026-03-28T11:54:43.528Z</time></trkpt><trkpt lat="40.8880817" lon="15.429095"><ele>364.5</ele><time>2026-03-28T11:54:44.527Z</time></trkpt><trkpt lat="40.8880983" lon="15.428935"><ele>364.75</ele><time>2026-03-28T11:54:45.528Z</time></trkpt><trkpt lat="40.8881067" lon="15.4287683"><ele>365.0</ele><time>2026-03-28T11:54:46.528Z</time></trkpt><trkpt lat="40.888105" lon="15.4285967"><ele>365.25</ele><time>2026-03-28T11:54:47.527Z</time></trkpt><trkpt lat="40.8880917" lon="15.42842"><ele>365.5</ele><time>2026-03-28T11:54:48.528Z</time></trkpt><trkpt lat="40.8880683" lon="15.428245"><ele>365.75</ele><time>2026-03-28T11:54:49.528Z</time></trkpt><trkpt lat="40.888025" lon="15.4280683"><ele>366.0</ele><time>2026-03-28T11:54:50.527Z</time></trkpt><trkpt lat="40.8879767" lon="15.42789"><ele>365.25</ele><time>2026-03-28T11:54:51.527Z</time></trkpt><trkpt lat="40.8879283" lon="15.4277083"><ele>364.5</ele><time>2026-03-28T11:54:52.527Z</time></trkpt><trkpt lat="40.887875" lon="15.4275367"><ele>363.75</ele><time>2026-03-28T11:54:53.527Z</time></trkpt><trkpt lat="40.8878167" lon="15.4273717"><ele>363.0</ele><time>2026-03-28T11:54:54.528Z</time></trkpt><trkpt lat="40.887755" lon="15.427215"><ele>362.75</ele><time>2026-03-28T11:54:55.527Z</time></trkpt><trkpt lat="40.887685" lon="15.427045"><ele>362.5</ele><time>2026-03-28T11:54:56.528Z</time></trkpt><trkpt lat="40.887615" lon="15.4268883"><ele>362.25</ele><time>2026-03-28T11:54:57.528Z</time></trkpt><trkpt lat="40.887535" lon="15.426745"><ele>362.0</ele><time>2026-03-28T11:54:58.527Z</time></trkpt><trkpt lat="40.8874517" lon="15.4265967"><ele>363.0</ele><time>2026-03-28T11:54:59.528Z</time></trkpt><trkpt lat="40.8873633" lon="15.426455"><ele>364.0</ele><time>2026-03-28T11:55:00.528Z</time></trkpt><trkpt lat="40.8872683" lon="15.426305"><ele>365.0</ele><time>2026-03-28T11:55:01.527Z</time></trkpt><trkpt lat="40.8871717" lon="15.426155"><ele>366.0</ele><time>2026-03-28T11:55:02.528Z</time></trkpt><trkpt lat="40.887065" lon="15.4260017"><ele>366.0</ele><time>2026-03-28T11:55:03.528Z</time></trkpt><trkpt lat="40.8869617" lon="15.4258417"><ele>366.0</ele><time>2026-03-28T11:55:04.528Z</time></trkpt><trkpt lat="40.88686" lon="15.4256867"><ele>366.0</ele><time>2026-03-28T11:55:05.528Z</time></trkpt><trkpt lat="40.886765" lon="15.42553"><ele>365.75</ele><time>2026-03-28T11:55:06.528Z</time></trkpt><trkpt lat="40.8866783" lon="15.4253783"><ele>365.5</ele><time>2026-03-28T11:55:07.527Z</time></trkpt><trkpt lat="40.8865933" lon="15.4252183"><ele>365.25</ele><time>2026-03-28T11:55:08.528Z</time></trkpt><trkpt lat="40.8865167" lon="15.4250467"><ele>365.0</ele><time>2026-03-28T11:55:09.528Z</time></trkpt><trkpt lat="40.8864433" lon="15.4248683"><ele>365.0</ele><time>2026-03-28T11:55:10.527Z</time></trkpt><trkpt lat="40.8863633" lon="15.42469"><ele>365.0</ele><time>2026-03-28T11:55:11.528Z</time></trkpt><trkpt lat="40.88629" lon="15.424505"><ele>365.0</ele><time>2026-03-28T11:55:12.528Z</time></trkpt><trkpt lat="40.8862133" lon="15.4243167"><ele>364.33333333333337</ele><time>2026-03-28T11:55:13.528Z</time></trkpt><trkpt lat="40.886145" lon="15.4241217"><ele>363.6666666666667</ele><time>2026-03-28T11:55:14.528Z</time></trkpt><trkpt lat="40.8860817" lon="15.4239217"><ele>363.0</ele><time>2026-03-28T11:55:15.527Z</time></trkpt><trkpt lat="40.8860233" lon="15.4237217"><ele>363.0</ele><time>2026-03-28T11:55:16.528Z</time></trkpt><trkpt lat="40.88596" lon="15.4235283"><ele>363.0</ele><time>2026-03-28T11:55:17.527Z</time></trkpt><trkpt lat="40.8858967" lon="15.4233367"><ele>363.0</ele><time>2026-03-28T11:55:18.528Z</time></trkpt><trkpt lat="40.885835" lon="15.4231483"><ele>363.3333333333333</ele><time>2026-03-28T11:55:19.527Z</time></trkpt><trkpt lat="40.88577" lon="15.42296"><ele>363.66666666666663</ele><time>2026-03-28T11:55:20.527Z</time></trkpt><trkpt lat="40.8857083" lon="15.4227667"><ele>364.0</ele><time>2026-03-28T11:55:21.528Z</time></trkpt><trkpt lat="40.885645" lon="15.42256"><ele>364.0</ele><time>2026-03-28T11:55:22.528Z</time></trkpt><trkpt lat="40.8855783" lon="15.4223567"><ele>364.0</ele><time>2026-03-28T11:55:23.528Z</time></trkpt><trkpt lat="40.8855117" lon="15.4221617"><ele>364.0</ele><time>2026-03-28T11:55:24.527Z</time></trkpt><trkpt lat="40.885445" lon="15.42197"><ele>363.3333333333333</ele><time>2026-03-28T11:55:25.528Z</time></trkpt><trkpt lat="40.8853817" lon="15.421775"><ele>362.6666666666667</ele><time>2026-03-28T11:55:26.528Z</time></trkpt><trkpt lat="40.8853133" lon="15.421575"><ele>362.0</ele><time>2026-03-28T11:55:27.527Z</time></trkpt><trkpt lat="40.88525" lon="15.4213717"><ele>362.6666666666667</ele><time>2026-03-28T11:55:28.528Z</time></trkpt><trkpt lat="40.885185" lon="15.4211683"><ele>363.3333333333333</ele><time>2026-03-28T11:55:29.527Z</time></trkpt><trkpt lat="40.88512" lon="15.4209717"><ele>364.0</ele><time>2026-03-28T11:55:30.528Z</time></trkpt><trkpt lat="40.8850567" lon="15.4207767"><ele>364.0</ele><time>2026-03-28T11:55:31.527Z</time></trkpt><trkpt lat="40.88499" lon="15.4205767"><ele>364.0</ele><time>2026-03-28T11:55:32.528Z</time></trkpt><trkpt lat="40.88492" lon="15.42038"><ele>364.0</ele><time>2026-03-28T11:55:33.528Z</time></trkpt><trkpt lat="40.884855" lon="15.4201783"><ele>364.66666666666663</ele><time>2026-03-28T11:55:34.527Z</time></trkpt><trkpt lat="40.8847883" lon="15.41998"><ele>365.3333333333333</ele><time>2026-03-28T11:55:35.528Z</time></trkpt><trkpt lat="40.88472" lon="15.419775"><ele>366.0</ele><time>2026-03-28T11:55:36.527Z</time></trkpt><trkpt lat="40.884655" lon="15.4195683"><ele>370.3333333333333</ele><time>2026-03-28T11:55:37.527Z</time></trkpt><trkpt lat="40.8845867" lon="15.4193667"><ele>374.66666666666663</ele><time>2026-03-28T11:55:38.527Z</time></trkpt><trkpt lat="40.8845217" lon="15.4191717"><ele>379.0</ele><time>2026-03-28T11:55:39.528Z</time></trkpt><trkpt lat="40.8844567" lon="15.41898"><ele>383.0</ele><time>2026-03-28T11:55:40.527Z</time></trkpt><trkpt lat="40.8843933" lon="15.4187883"><ele>387.0</ele><time>2026-03-28T11:55:41.527Z</time></trkpt><trkpt lat="40.8843317" lon="15.4186033"><ele>391.0</ele><time>2026-03-28T11:55:42.527Z</time></trkpt><trkpt lat="40.88427" lon="15.41842"><ele>387.0</ele><time>2026-03-28T11:55:43.528Z</time></trkpt><trkpt lat="40.8842033" lon="15.4182217"><ele>383.0</ele><time>2026-03-28T11:55:44.528Z</time></trkpt><trkpt lat="40.8841367" lon="15.4180117"><ele>379.0</ele><time>2026-03-28T11:55:45.527Z</time></trkpt><trkpt lat="40.8840683" lon="15.4178017"><ele>379.0</ele><time>2026-03-28T11:55:46.528Z</time></trkpt><trkpt lat="40.8840017" lon="15.4175867"><ele>379.0</ele><time>2026-03-28T11:55:47.527Z</time></trkpt><trkpt lat="40.88393" lon="15.4173833"><ele>379.0</ele><time>2026-03-28T11:55:48.528Z</time></trkpt><trkpt lat="40.8838617" lon="15.4171767"><ele>386.3333333333333</ele><time>2026-03-28T11:55:49.528Z</time></trkpt><trkpt lat="40.88379" lon="15.416975"><ele>393.66666666666663</ele><time>2026-03-28T11:55:50.528Z</time></trkpt><trkpt lat="40.8837183" lon="15.4167667"><ele>401.0</ele><time>2026-03-28T11:55:51.527Z</time></trkpt><trkpt lat="40.883645" lon="15.416555"><ele>401.0</ele><time>2026-03-28T11:55:52.527Z</time></trkpt><trkpt lat="40.883575" lon="15.4163417"><ele>401.0</ele><time>2026-03-28T11:55:53.527Z</time></trkpt><trkpt lat="40.8835017" lon="15.4161317"><ele>401.0</ele><time>2026-03-28T11:55:54.528Z</time></trkpt><trkpt lat="40.88343" lon="15.415905"><ele>396.66666666666663</ele><time>2026-03-28T11:55:55.528Z</time></trkpt><trkpt lat="40.8833633" lon="15.4156717"><ele>392.33333333333337</ele><time>2026-03-28T11:55:56.528Z</time></trkpt><trkpt lat="40.883295" lon="15.4154417"><ele>388.0</ele><time>2026-03-28T11:55:57.528Z</time></trkpt><trkpt lat="40.883245" lon="15.4152117"><ele>388.0</ele><time>2026-03-28T11:55:58.528Z</time></trkpt><trkpt lat="40.8831917" lon="15.4149667"><ele>388.0</ele><time>2026-03-28T11:55:59.527Z</time></trkpt><trkpt lat="40.8831517" lon="15.4147233"><ele>388.0</ele><time>2026-03-28T11:56:00.528Z</time></trkpt><trkpt lat="40.883115" lon="15.4144767"><ele>388.6666666666667</ele><time>2026-03-28T11:56:01.527Z</time></trkpt><trkpt lat="40.8830883" lon="15.41423"><ele>389.33333333333337</ele><time>2026-03-28T11:56:02.528Z</time></trkpt><trkpt lat="40.88307" lon="15.4139867"><ele>390.0</ele><time>2026-03-28T11:56:03.528Z</time></trkpt><trkpt lat="40.88305" lon="15.4137417"><ele>390.33333333333337</ele><time>2026-03-28T11:56:04.528Z</time></trkpt><trkpt lat="40.883035" lon="15.4134883"><ele>390.6666666666667</ele><time>2026-03-28T11:56:05.527Z</time></trkpt><trkpt lat="40.88303" lon="15.4132317"><ele>391.0</ele><time>2026-03-28T11:56:06.528Z</time></trkpt><trkpt lat="40.88303" lon="15.412975"><ele>393.0</ele><time>2026-03-28T11:56:07.528Z</time></trkpt><trkpt lat="40.8830383" lon="15.4127217"><ele>395.0</ele><time>2026-03-28T11:56:08.527Z</time></trkpt><trkpt lat="40.8830433" lon="15.4124767"><ele>397.0</ele><time>2026-03-28T11:56:09.528Z</time></trkpt><trkpt lat="40.8830483" lon="15.4122367"><ele>397.0</ele><time>2026-03-28T11:56:10.528Z</time></trkpt><trkpt lat="40.8830517" lon="15.412005"><ele>397.0</ele><time>2026-03-28T11:56:11.527Z</time></trkpt><trkpt lat="40.8830533" lon="15.411775"><ele>397.0</ele><time>2026-03-28T11:56:12.527Z</time></trkpt><trkpt lat="40.883055" lon="15.41154"><ele>396.6666666666667</ele><time>2026-03-28T11:56:13.528Z</time></trkpt><trkpt lat="40.8830467" lon="15.4113067"><ele>396.33333333333337</ele><time>2026-03-28T11:56:14.528Z</time></trkpt><trkpt lat="40.8830333" lon="15.411075"><ele>396.0</ele><time>2026-03-28T11:56:15.527Z</time></trkpt><trkpt lat="40.8830167" lon="15.4108517"><ele>396.0</ele><time>2026-03-28T11:56:16.527Z</time></trkpt><trkpt lat="40.883005" lon="15.4106333"><ele>396.0</ele><time>2026-03-28T11:56:17.527Z</time></trkpt><trkpt lat="40.882995" lon="15.4104233"><ele>396.0</ele><time>2026-03-28T11:56:18.528Z</time></trkpt><trkpt lat="40.8829833" lon="15.41023"><ele>394.75</ele><time>2026-03-28T11:56:19.527Z</time></trkpt><trkpt lat="40.8829917" lon="15.4100383"><ele>393.5</ele><time>2026-03-28T11:56:20.528Z</time></trkpt><trkpt lat="40.883015" lon="15.4098567"><ele>392.25</ele><time>2026-03-28T11:56:21.527Z</time></trkpt><trkpt lat="40.8830467" lon="15.4096783"><ele>391.0</ele><time>2026-03-28T11:56:22.527Z</time></trkpt><trkpt lat="40.8830967" lon="15.4094817"><ele>388.33333333333337</ele><time>2026-03-28T11:56:23.527Z</time></trkpt><trkpt lat="40.8831617" lon="15.4092733"><ele>385.6666666666667</ele><time>2026-03-28T11:56:24.528Z</time></trkpt><trkpt lat="40.88323" lon="15.4090683"><ele>383.0</ele><time>2026-03-28T11:56:25.528Z</time></trkpt><trkpt lat="40.8833033" lon="15.4088633"><ele>384.0</ele><time>2026-03-28T11:56:26.528Z</time></trkpt><trkpt lat="40.8833733" lon="15.40867"><ele>385.0</ele><time>2026-03-28T11:56:27.527Z</time></trkpt><trkpt lat="40.8834433" lon="15.408475"><ele>386.0</ele><time>2026-03-28T11:56:28.528Z</time></trkpt><trkpt lat="40.8835117" lon="15.4082883"><ele>386.0</ele><time>2026-03-28T11:56:29.528Z</time></trkpt><trkpt lat="40.8835667" lon="15.40811"><ele>386.0</ele><time>2026-03-28T11:56:30.528Z</time></trkpt><trkpt lat="40.88361" lon="15.4079217"><ele>386.0</ele><time>2026-03-28T11:56:31.527Z</time></trkpt><trkpt lat="40.8836367" lon="15.4077283"><ele>386.0</ele><time>2026-03-28T11:56:32.527Z</time></trkpt><trkpt lat="40.883645" lon="15.4075283"><ele>384.66666666666663</ele><time>2026-03-28T11:56:33.528Z</time></trkpt><trkpt lat="40.88365" lon="15.4073283"><ele>383.3333333333333</ele><time>2026-03-28T11:56:34.527Z</time></trkpt><trkpt lat="40.8836433" lon="15.4071217"><ele>382.0</ele><time>2026-03-28T11:56:35.528Z</time></trkpt><trkpt lat="40.8836133" lon="15.4069183"><ele>381.0</ele><time>2026-03-28T11:56:36.527Z</time></trkpt><trkpt lat="40.883575" lon="15.40671"><ele>380.0</ele><time>2026-03-28T11:56:37.527Z</time></trkpt><trkpt lat="40.8835183" lon="15.4065117"><ele>379.0</ele><time>2026-03-28T11:56:38.527Z</time></trkpt><trkpt lat="40.88345" lon="15.4063283"><ele>378.0</ele><time>2026-03-28T11:56:39.527Z</time></trkpt><trkpt lat="40.8833767" lon="15.4061433"><ele>377.0</ele><time>2026-03-28T11:56:40.527Z</time></trkpt><trkpt lat="40.8832933" lon="15.4059617"><ele>376.0</ele><time>2026-03-28T11:56:41.527Z</time></trkpt><trkpt lat="40.8832033" lon="15.4057783"><ele>376.0</ele><time>2026-03-28T11:56:42.527Z</time></trkpt><trkpt lat="40.8831133" lon="15.4056017"><ele>376.0</ele><time>2026-03-28T11:56:43.527Z</time></trkpt><trkpt lat="40.8830267" lon="15.4054233"><ele>376.0</ele><time>2026-03-28T11:56:44.528Z</time></trkpt><trkpt lat="40.8829383" lon="15.4052417"><ele>375.66666666666663</ele><time>2026-03-28T11:56:45.527Z</time></trkpt><trkpt lat="40.88286" lon="15.4050533"><ele>375.3333333333333</ele><time>2026-03-28T11:56:46.527Z</time></trkpt><trkpt lat="40.8827967" lon="15.4048633"><ele>375.0</ele><time>2026-03-28T11:56:47.528Z</time></trkpt><trkpt lat="40.88274" lon="15.4046667"><ele>376.3333333333333</ele><time>2026-03-28T11:56:48.527Z</time></trkpt><trkpt lat="40.882695" lon="15.4044517"><ele>377.66666666666663</ele><time>2026-03-28T11:56:49.527Z</time></trkpt><trkpt lat="40.88266" lon="15.4042267"><ele>379.0</ele><time>2026-03-28T11:56:50.528Z</time></trkpt><trkpt lat="40.882645" lon="15.4039983"><ele>383.0</ele><time>2026-03-28T11:56:51.527Z</time></trkpt><trkpt lat="40.8826317" lon="15.4037683"><ele>387.0</ele><time>2026-03-28T11:56:52.528Z</time></trkpt><trkpt lat="40.8826233" lon="15.40354"><ele>391.0</ele><time>2026-03-28T11:56:53.528Z</time></trkpt><trkpt lat="40.8826133" lon="15.4033217"><ele>391.0</ele><time>2026-03-28T11:56:54.527Z</time></trkpt><trkpt lat="40.8826067" lon="15.4031067"><ele>391.0</ele><time>2026-03-28T11:56:55.528Z</time></trkpt><trkpt lat="40.882605" lon="15.4028917"><ele>391.0</ele><time>2026-03-28T11:56:56.527Z</time></trkpt><trkpt lat="40.8826133" lon="15.402685"><ele>391.0</ele><time>2026-03-28T11:56:57.527Z</time></trkpt><trkpt lat="40.8826367" lon="15.4024883"><ele>391.0</ele><time>2026-03-28T11:56:58.528Z</time></trkpt><trkpt lat="40.8826583" lon="15.402295"><ele>391.0</ele><time>2026-03-28T11:56:59.528Z</time></trkpt><trkpt lat="40.8826683" lon="15.4021083"><ele>391.0</ele><time>2026-03-28T11:57:00.528Z</time></trkpt><trkpt lat="40.8826733" lon="15.40193"><ele>391.25</ele><time>2026-03-28T11:57:01.528Z</time></trkpt><trkpt lat="40.88267" lon="15.4017617"><ele>391.5</ele><time>2026-03-28T11:57:02.527Z</time></trkpt><trkpt lat="40.88267" lon="15.4016017"><ele>391.75</ele><time>2026-03-28T11:57:03.528Z</time></trkpt><trkpt lat="40.8826867" lon="15.40145"><ele>392.0</ele><time>2026-03-28T11:57:04.528Z</time></trkpt><trkpt lat="40.8827117" lon="15.4012967"><ele>392.75</ele><time>2026-03-28T11:57:05.527Z</time></trkpt><trkpt lat="40.88273" lon="15.4011333"><ele>393.5</ele><time>2026-03-28T11:57:06.528Z</time></trkpt><trkpt lat="40.8827383" lon="15.4009567"><ele>394.25</ele><time>2026-03-28T11:57:07.528Z</time></trkpt><trkpt lat="40.8827483" lon="15.40078"><ele>395.0</ele><time>2026-03-28T11:57:08.528Z</time></trkpt><trkpt lat="40.8827433" lon="15.4006233"><ele>394.8333333333333</ele><time>2026-03-28T11:57:09.528Z</time></trkpt><trkpt lat="40.882755" lon="15.4004883"><ele>394.66666666666663</ele><time>2026-03-28T11:57:10.527Z</time></trkpt><trkpt lat="40.88277" lon="15.4003717"><ele>394.5</ele><time>2026-03-28T11:57:11.528Z</time></trkpt><trkpt lat="40.882795" lon="15.400275"><ele>394.33333333333337</ele><time>2026-03-28T11:57:12.527Z</time></trkpt><trkpt lat="40.882835" lon="15.4001867"><ele>394.1666666666667</ele><time>2026-03-28T11:57:13.527Z</time></trkpt><trkpt lat="40.8828917" lon="15.40011"><ele>394.0</ele><time>2026-03-28T11:57:14.528Z</time></trkpt><trkpt lat="40.8829633" lon="15.40006"><ele>394.00000000000006</ele><time>2026-03-28T11:57:15.527Z</time></trkpt><trkpt lat="40.88304" lon="15.4000183"><ele>394.0</ele><time>2026-03-28T11:57:16.528Z</time></trkpt><trkpt lat="40.8831117" lon="15.3999733"><ele>394.0</ele><time>2026-03-28T11:57:17.528Z</time></trkpt><trkpt lat="40.8831783" lon="15.3999317"><ele>394.0</ele><time>2026-03-28T11:57:18.527Z</time></trkpt><trkpt lat="40.88325" lon="15.3999117"><ele>394.00000000000006</ele><time>2026-03-28T11:57:19.528Z</time></trkpt><trkpt lat="40.8833317" lon="15.3999133"><ele>394.0</ele><time>2026-03-28T11:57:20.528Z</time></trkpt><trkpt lat="40.8834183" lon="15.39993"><ele>394.6666666666667</ele><time>2026-03-28T11:57:21.527Z</time></trkpt><trkpt lat="40.8835033" lon="15.3999533"><ele>395.33333333333337</ele><time>2026-03-28T11:57:22.528Z</time></trkpt><trkpt lat="40.88359" lon="15.399975"><ele>396.0</ele><time>2026-03-28T11:57:23.527Z</time></trkpt><trkpt lat="40.8836667" lon="15.400015"><ele>396.66666666666663</ele><time>2026-03-28T11:57:24.527Z</time></trkpt><trkpt lat="40.8837433" lon="15.4000567"><ele>397.3333333333333</ele><time>2026-03-28T11:57:25.527Z</time></trkpt><trkpt lat="40.88382" lon="15.4001217"><ele>398.0</ele><time>2026-03-28T11:57:26.528Z</time></trkpt><trkpt lat="40.8838967" lon="15.4002"><ele>398.0</ele><time>2026-03-28T11:57:27.528Z</time></trkpt><trkpt lat="40.8839683" lon="15.4002833"><ele>398.0</ele><time>2026-03-28T11:57:28.527Z</time></trkpt><trkpt lat="40.8840267" lon="15.4003817"><ele>398.0</ele><time>2026-03-28T11:57:29.527Z</time></trkpt><trkpt lat="40.884085" lon="15.4004867"><ele>398.0</ele><time>2026-03-28T11:57:30.528Z</time></trkpt><trkpt lat="40.8841333" lon="15.4005983"><ele>398.0</ele><time>2026-03-28T11:57:31.528Z</time></trkpt><trkpt lat="40.884175" lon="15.400715"><ele>398.49999999999994</ele><time>2026-03-28T11:57:32.528Z</time></trkpt><trkpt lat="40.884215" lon="15.4008367"><ele>399.0</ele><time>2026-03-28T11:57:33.528Z</time></trkpt><trkpt lat="40.88425" lon="15.4009533"><ele>399.5</ele><time>2026-03-28T11:57:34.528Z</time></trkpt><trkpt lat="40.8842817" lon="15.4010533"><ele>400.0</ele><time>2026-03-28T11:57:35.528Z</time></trkpt><trkpt lat="40.8843217" lon="15.4011383"><ele>400.49999999999994</ele><time>2026-03-28T11:57:36.528Z</time></trkpt><trkpt lat="40.8843717" lon="15.401195"><ele>401.0</ele><time>2026-03-28T11:57:37.528Z</time></trkpt><trkpt lat="40.8844333" lon="15.401215"><ele>401.0</ele><time>2026-03-28T11:57:38.528Z</time></trkpt><trkpt lat="40.884545" lon="15.4011717"><ele>401.0</ele><time>2026-03-28T11:57:40.528Z</time></trkpt><trkpt lat="40.884635" lon="15.4010467"><ele>401.0</ele><time>2026-03-28T11:57:42.528Z</time></trkpt><trkpt lat="40.8846933" lon="15.400965"><ele>401.0</ele><time>2026-03-28T11:57:43.527Z</time></trkpt><trkpt lat="40.88476" lon="15.4008767"><ele>401.0</ele><time>2026-03-28T11:57:44.527Z</time></trkpt><trkpt lat="40.884825" lon="15.400795"><ele>400.99999999999994</ele><time>2026-03-28T11:57:45.527Z</time></trkpt><trkpt lat="40.8848883" lon="15.4007167"><ele>401.0</ele><time>2026-03-28T11:57:46.527Z</time></trkpt><trkpt lat="40.8849383" lon="15.4006383"><ele>401.0</ele><time>2026-03-28T11:57:47.528Z</time></trkpt><trkpt lat="40.8849883" lon="15.4005583"><ele>401.0</ele><time>2026-03-28T11:57:48.528Z</time></trkpt><trkpt lat="40.8850417" lon="15.40048"><ele>400.99999999999994</ele><time>2026-03-28T11:57:49.528Z</time></trkpt><trkpt lat="40.8851033" lon="15.4004033"><ele>401.0</ele><time>2026-03-28T11:57:50.528Z</time></trkpt><trkpt lat="40.8851767" lon="15.4003183"><ele>402.8</ele><time>2026-03-28T11:57:51.527Z</time></trkpt><trkpt lat="40.8852617" lon="15.4002367"><ele>404.6</ele><time>2026-03-28T11:57:52.528Z</time></trkpt><trkpt lat="40.8853517" lon="15.40016"><ele>406.4</ele><time>2026-03-28T11:57:53.527Z</time></trkpt><trkpt lat="40.8854367" lon="15.400085"><ele>408.2</ele><time>2026-03-28T11:57:54.528Z</time></trkpt><trkpt lat="40.8855267" lon="15.4000333"><ele>410.0</ele><time>2026-03-28T11:57:55.529Z</time></trkpt><trkpt lat="40.8856317" lon="15.3999983"><ele>410.0</ele><time>2026-03-28T11:57:56.528Z</time></trkpt><trkpt lat="40.8857467" lon="15.3999683"><ele>410.0</ele><time>2026-03-28T11:57:57.529Z</time></trkpt><trkpt lat="40.8858583" lon="15.399955"><ele>410.0</ele><time>2026-03-28T11:57:58.529Z</time></trkpt><trkpt lat="40.885975" lon="15.3999517"><ele>410.0</ele><time>2026-03-28T11:57:59.529Z</time></trkpt><trkpt lat="40.8860967" lon="15.399945"><ele>412.0</ele><time>2026-03-28T11:58:00.529Z</time></trkpt><trkpt lat="40.88622" lon="15.399935"><ele>414.0</ele><time>2026-03-28T11:58:01.529Z</time></trkpt><trkpt lat="40.8863417" lon="15.3999233"><ele>416.0</ele><time>2026-03-28T11:58:02.529Z</time></trkpt><trkpt lat="40.8864683" lon="15.399915"><ele>418.0</ele><time>2026-03-28T11:58:03.529Z</time></trkpt><trkpt lat="40.886585" lon="15.399895"><ele>418.0</ele><time>2026-03-28T11:58:04.528Z</time></trkpt><trkpt lat="40.8866967" lon="15.39987"><ele>418.0</ele><time>2026-03-28T11:58:05.528Z</time></trkpt><trkpt lat="40.8868067" lon="15.399845"><ele>418.0</ele><time>2026-03-28T11:58:06.528Z</time></trkpt><trkpt lat="40.8869183" lon="15.399805"><ele>418.0</ele><time>2026-03-28T11:58:07.529Z</time></trkpt><trkpt lat="40.8870367" lon="15.399745"><ele>420.5</ele><time>2026-03-28T11:58:08.529Z</time></trkpt><trkpt lat="40.887165" lon="15.3996817"><ele>423.0</ele><time>2026-03-28T11:58:09.529Z</time></trkpt><trkpt lat="40.887295" lon="15.39963"><ele>425.5</ele><time>2026-03-28T11:58:10.529Z</time></trkpt><trkpt lat="40.8874133" lon="15.3995767"><ele>428.0</ele><time>2026-03-28T11:58:11.528Z</time></trkpt><trkpt lat="40.887545" lon="15.3995233"><ele>431.0</ele><time>2026-03-28T11:58:12.529Z</time></trkpt><trkpt lat="40.8876733" lon="15.3994617"><ele>434.0</ele><time>2026-03-28T11:58:13.529Z</time></trkpt><trkpt lat="40.8877967" lon="15.3993933"><ele>437.0</ele><time>2026-03-28T11:58:14.529Z</time></trkpt><trkpt lat="40.887925" lon="15.3993267"><ele>440.0</ele><time>2026-03-28T11:58:15.529Z</time></trkpt><trkpt lat="40.8880433" lon="15.39925"><ele>440.0</ele><time>2026-03-28T11:58:16.529Z</time></trkpt><trkpt lat="40.8881567" lon="15.3991767"><ele>440.0</ele><time>2026-03-28T11:58:17.528Z</time></trkpt><trkpt lat="40.8882667" lon="15.3991017"><ele>440.0</ele><time>2026-03-28T11:58:18.529Z</time></trkpt><trkpt lat="40.8883717" lon="15.3990333"><ele>440.0</ele><time>2026-03-28T11:58:19.529Z</time></trkpt><trkpt lat="40.88847" lon="15.3989717"><ele>441.5</ele><time>2026-03-28T11:58:20.529Z</time></trkpt><trkpt lat="40.8885667" lon="15.3989117"><ele>443.0</ele><time>2026-03-28T11:58:21.528Z</time></trkpt><trkpt lat="40.8886633" lon="15.3988417"><ele>444.5</ele><time>2026-03-28T11:58:22.529Z</time></trkpt><trkpt lat="40.8887667" lon="15.3987667"><ele>446.0</ele><time>2026-03-28T11:58:23.529Z</time></trkpt><trkpt lat="40.8888667" lon="15.3986783"><ele>447.3333333333333</ele><time>2026-03-28T11:58:24.528Z</time></trkpt><trkpt lat="40.8889583" lon="15.3985917"><ele>448.66666666666663</ele><time>2026-03-28T11:58:25.529Z</time></trkpt><trkpt lat="40.8890267" lon="15.3985033"><ele>450.0</ele><time>2026-03-28T11:58:26.529Z</time></trkpt><trkpt lat="40.8890833" lon="15.3984183"><ele>451.33333333333337</ele><time>2026-03-28T11:58:27.529Z</time></trkpt><trkpt lat="40.8891283" lon="15.3983333"><ele>452.6666666666667</ele><time>2026-03-28T11:58:28.528Z</time></trkpt><trkpt lat="40.8891633" lon="15.398245"><ele>454.0</ele><time>2026-03-28T11:58:29.529Z</time></trkpt><trkpt lat="40.8891917" lon="15.398155"><ele>457.79999999999995</ele><time>2026-03-28T11:58:30.528Z</time></trkpt><trkpt lat="40.8891883" lon="15.397995"><ele>461.59999999999997</ele><time>2026-03-28T11:58:32.528Z</time></trkpt><trkpt lat="40.8891483" lon="15.3978767"><ele>465.4</ele><time>2026-03-28T11:58:34.528Z</time></trkpt><trkpt lat="40.8890633" lon="15.397815"><ele>469.2</ele><time>2026-03-28T11:58:36.529Z</time></trkpt><trkpt lat="40.889" lon="15.3977933"><ele>473.0</ele><time>2026-03-28T11:58:37.529Z</time></trkpt><trkpt lat="40.888935" lon="15.397765"><ele>472.99999999999994</ele><time>2026-03-28T11:58:38.528Z</time></trkpt><trkpt lat="40.8888683" lon="15.3977267"><ele>473.0</ele><time>2026-03-28T11:58:39.529Z</time></trkpt><trkpt lat="40.888795" lon="15.3976783"><ele>473.0</ele><time>2026-03-28T11:58:40.528Z</time></trkpt><trkpt lat="40.8887217" lon="15.3976333"><ele>473.0</ele><time>2026-03-28T11:58:41.528Z</time></trkpt><trkpt lat="40.888655" lon="15.39759"><ele>472.99999999999994</ele><time>2026-03-28T11:58:42.529Z</time></trkpt><trkpt lat="40.8885783" lon="15.3975583"><ele>473.0</ele><time>2026-03-28T11:58:43.529Z</time></trkpt><trkpt lat="40.8885033" lon="15.3975417"><ele>472.99999999999994</ele><time>2026-03-28T11:58:44.529Z</time></trkpt><trkpt lat="40.8884317" lon="15.3975267"><ele>473.0</ele><time>2026-03-28T11:58:45.529Z</time></trkpt><trkpt lat="40.8883733" lon="15.397485"><ele>473.0</ele><time>2026-03-28T11:58:46.529Z</time></trkpt><trkpt lat="40.8882933" lon="15.397375"><ele>473.0</ele><time>2026-03-28T11:58:48.528Z</time></trkpt><trkpt lat="40.888265" lon="15.3972817"><ele>472.99999999999994</ele><time>2026-03-28T11:58:49.528Z</time></trkpt><trkpt lat="40.88825" lon="15.3971833"><ele>473.0</ele><time>2026-03-28T11:58:50.529Z</time></trkpt><trkpt lat="40.888255" lon="15.39707"><ele>475.0</ele><time>2026-03-28T11:58:51.529Z</time></trkpt><trkpt lat="40.8882667" lon="15.3969483"><ele>476.99999999999994</ele><time>2026-03-28T11:58:52.528Z</time></trkpt><trkpt lat="40.8882867" lon="15.3968233"><ele>478.99999999999994</ele><time>2026-03-28T11:58:53.529Z</time></trkpt><trkpt lat="40.888305" lon="15.3966867"><ele>481.0</ele><time>2026-03-28T11:58:54.528Z</time></trkpt><trkpt lat="40.8883317" lon="15.3965517"><ele>483.0</ele><time>2026-03-28T11:58:55.529Z</time></trkpt><trkpt lat="40.88836" lon="15.3964283"><ele>482.8333333333333</ele><time>2026-03-28T11:58:56.529Z</time></trkpt><trkpt lat="40.8883883" lon="15.3963167"><ele>482.66666666666663</ele><time>2026-03-28T11:58:57.529Z</time></trkpt><trkpt lat="40.8884183" lon="15.3962133"><ele>482.5</ele><time>2026-03-28T11:58:58.529Z</time></trkpt><trkpt lat="40.8884517" lon="15.3961133"><ele>482.3333333333333</ele><time>2026-03-28T11:58:59.529Z</time></trkpt><trkpt lat="40.8884833" lon="15.39601"><ele>482.16666666666663</ele><time>2026-03-28T11:59:00.529Z</time></trkpt><trkpt lat="40.88852" lon="15.3958967"><ele>482.0</ele><time>2026-03-28T11:59:01.529Z</time></trkpt><trkpt lat="40.8885583" lon="15.3958017"><ele>485.20000000000005</ele><time>2026-03-28T11:59:02.529Z</time></trkpt><trkpt lat="40.8886017" lon="15.3957117"><ele>488.40000000000003</ele><time>2026-03-28T11:59:03.529Z</time></trkpt><trkpt lat="40.888655" lon="15.39562"><ele>491.59999999999997</ele><time>2026-03-28T11:59:04.528Z</time></trkpt><trkpt lat="40.8887217" lon="15.3955267"><ele>494.79999999999995</ele><time>2026-03-28T11:59:05.528Z</time></trkpt><trkpt lat="40.888795" lon="15.3954317"><ele>498.0</ele><time>2026-03-28T11:59:06.528Z</time></trkpt><trkpt lat="40.8888717" lon="15.3953283"><ele>498.0</ele><time>2026-03-28T11:59:07.528Z</time></trkpt><trkpt lat="40.8889567" lon="15.3952067"><ele>498.0</ele><time>2026-03-28T11:59:08.528Z</time></trkpt><trkpt lat="40.8890433" lon="15.3950817"><ele>498.0</ele><time>2026-03-28T11:59:09.528Z</time></trkpt><trkpt lat="40.8891217" lon="15.394955"><ele>498.0</ele><time>2026-03-28T11:59:10.529Z</time></trkpt><trkpt lat="40.8891967" lon="15.39483"><ele>502.75</ele><time>2026-03-28T11:59:11.528Z</time></trkpt><trkpt lat="40.88927" lon="15.3946983"><ele>507.5</ele><time>2026-03-28T11:59:12.529Z</time></trkpt><trkpt lat="40.889345" lon="15.3945617"><ele>512.25</ele><time>2026-03-28T11:59:13.528Z</time></trkpt><trkpt lat="40.88942" lon="15.3944167"><ele>517.0</ele><time>2026-03-28T11:59:14.529Z</time></trkpt><trkpt lat="40.8894933" lon="15.3942833"><ele>517.6</ele><time>2026-03-28T11:59:15.529Z</time></trkpt><trkpt lat="40.8895567" lon="15.394155"><ele>518.2</ele><time>2026-03-28T11:59:16.529Z</time></trkpt><trkpt lat="40.889615" lon="15.3940383"><ele>518.8</ele><time>2026-03-28T11:59:17.529Z</time></trkpt><trkpt lat="40.8896667" lon="15.39393"><ele>519.4</ele><time>2026-03-28T11:59:18.529Z</time></trkpt><trkpt lat="40.8897233" lon="15.3938183"><ele>520.0</ele><time>2026-03-28T11:59:19.529Z</time></trkpt><trkpt lat="40.88979" lon="15.3937083"><ele>520.2</ele><time>2026-03-28T11:59:20.529Z</time></trkpt><trkpt lat="40.8898567" lon="15.3935967"><ele>520.4</ele><time>2026-03-28T11:59:21.529Z</time></trkpt><trkpt lat="40.8899267" lon="15.3934833"><ele>520.6</ele><time>2026-03-28T11:59:22.529Z</time></trkpt><trkpt lat="40.889985" lon="15.39338"><ele>520.8</ele><time>2026-03-28T11:59:23.529Z</time></trkpt><trkpt lat="40.8900417" lon="15.393295"><ele>521.0</ele><time>2026-03-28T11:59:24.529Z</time></trkpt><trkpt lat="40.8901017" lon="15.3932267"><ele>522.8333333333333</ele><time>2026-03-28T11:59:25.528Z</time></trkpt><trkpt lat="40.8901567" lon="15.3931717"><ele>524.6666666666666</ele><time>2026-03-28T11:59:26.529Z</time></trkpt><trkpt lat="40.8902117" lon="15.393115"><ele>526.5</ele><time>2026-03-28T11:59:27.529Z</time></trkpt><trkpt lat="40.890275" lon="15.39307"><ele>528.3333333333334</ele><time>2026-03-28T11:59:28.529Z</time></trkpt><trkpt lat="40.89034" lon="15.3930233"><ele>530.1666666666667</ele><time>2026-03-28T11:59:29.528Z</time></trkpt><trkpt lat="40.8904033" lon="15.3929817"><ele>532.0</ele><time>2026-03-28T11:59:30.528Z</time></trkpt><trkpt lat="40.8905067" lon="15.3929117"><ele>532.0</ele><time>2026-03-28T11:59:32.528Z</time></trkpt><trkpt lat="40.8906033" lon="15.3928617"><ele>532.0</ele><time>2026-03-28T11:59:34.528Z</time></trkpt><trkpt lat="40.89067" lon="15.3928067"><ele>532.0</ele><time>2026-03-28T11:59:36.529Z</time></trkpt><trkpt lat="40.8907233" lon="15.3927617"><ele>532.0</ele><time>2026-03-28T11:59:38.529Z</time></trkpt><trkpt lat="40.8907933" lon="15.392695"><ele>532.0</ele><time>2026-03-28T11:59:40.528Z</time></trkpt><trkpt lat="40.8909033" lon="15.3926217"><ele>534.5</ele><time>2026-03-28T11:59:42.529Z</time></trkpt><trkpt lat="40.891005" lon="15.39256"><ele>537.0</ele><time>2026-03-28T11:59:44.529Z</time></trkpt><trkpt lat="40.8910983" lon="15.3925067"><ele>539.5</ele><time>2026-03-28T11:59:46.529Z</time></trkpt><trkpt lat="40.89119" lon="15.39245"><ele>542.0</ele><time>2026-03-28T11:59:48.529Z</time></trkpt><trkpt lat="40.89125" lon="15.39242"><ele>544.5</ele><time>2026-03-28T11:59:49.529Z</time></trkpt><trkpt lat="40.8913117" lon="15.392375"><ele>547.0</ele><time>2026-03-28T11:59:50.529Z</time></trkpt><trkpt lat="40.8913717" lon="15.3923117"><ele>547.0</ele><time>2026-03-28T11:59:51.529Z</time></trkpt><trkpt lat="40.8914383" lon="15.3922217"><ele>547.0</ele><time>2026-03-28T11:59:52.529Z</time></trkpt><trkpt lat="40.8915033" lon="15.3921283"><ele>547.0</ele><time>2026-03-28T11:59:53.529Z</time></trkpt><trkpt lat="40.8915667" lon="15.3920233"><ele>547.0</ele><time>2026-03-28T11:59:54.529Z</time></trkpt><trkpt lat="40.8916183" lon="15.3919417"><ele>547.0</ele><time>2026-03-28T11:59:55.528Z</time></trkpt><trkpt lat="40.8916767" lon="15.3918683"><ele>546.6666666666667</ele><time>2026-03-28T11:59:56.528Z</time></trkpt><trkpt lat="40.89174" lon="15.391795"><ele>546.3333333333334</ele><time>2026-03-28T11:59:57.529Z</time></trkpt><trkpt lat="40.8918117" lon="15.3917267"><ele>546.0</ele><time>2026-03-28T11:59:58.529Z</time></trkpt><trkpt lat="40.8918867" lon="15.39166"><ele>545.6666666666666</ele><time>2026-03-28T11:59:59.528Z</time></trkpt><trkpt lat="40.8919583" lon="15.39162"><ele>545.3333333333333</ele><time>2026-03-28T12:00:00.529Z</time></trkpt><trkpt lat="40.892035" lon="15.391595"><ele>545.0</ele><time>2026-03-28T12:00:01.529Z</time></trkpt><trkpt lat="40.8921067" lon="15.3915667"><ele>546.8333333333333</ele><time>2026-03-28T12:00:02.529Z</time></trkpt><trkpt lat="40.8921717" lon="15.391515"><ele>548.6666666666666</ele><time>2026-03-28T12:00:03.529Z</time></trkpt><trkpt lat="40.89223" lon="15.3914433"><ele>550.5</ele><time>2026-03-28T12:00:04.529Z</time></trkpt><trkpt lat="40.8922817" lon="15.391355"><ele>552.3333333333334</ele><time>2026-03-28T12:00:05.528Z</time></trkpt><trkpt lat="40.8923233" lon="15.39126"><ele>554.1666666666667</ele><time>2026-03-28T12:00:06.528Z</time></trkpt><trkpt lat="40.892365" lon="15.391155"><ele>556.0</ele><time>2026-03-28T12:00:07.528Z</time></trkpt><trkpt lat="40.8923933" lon="15.3910417"><ele>557.0</ele><time>2026-03-28T12:00:08.528Z</time></trkpt><trkpt lat="40.8924167" lon="15.39092"><ele>558.0</ele><time>2026-03-28T12:00:09.529Z</time></trkpt><trkpt lat="40.8924417" lon="15.3907933"><ele>559.0</ele><time>2026-03-28T12:00:10.529Z</time></trkpt><trkpt lat="40.8924667" lon="15.3906517"><ele>560.0</ele><time>2026-03-28T12:00:11.528Z</time></trkpt><trkpt lat="40.89249" lon="15.3905217"><ele>561.0</ele><time>2026-03-28T12:00:12.529Z</time></trkpt><trkpt lat="40.892505" lon="15.3904"><ele>562.4</ele><time>2026-03-28T12:00:13.528Z</time></trkpt><trkpt lat="40.892525" lon="15.3902783"><ele>563.8</ele><time>2026-03-28T12:00:14.529Z</time></trkpt><trkpt lat="40.89254" lon="15.3901583"><ele>565.1999999999999</ele><time>2026-03-28T12:00:15.529Z</time></trkpt><trkpt lat="40.8925567" lon="15.39004"><ele>566.6</ele><time>2026-03-28T12:00:16.528Z</time></trkpt><trkpt lat="40.892575" lon="15.3899117"><ele>568.0</ele><time>2026-03-28T12:00:17.528Z</time></trkpt><trkpt lat="40.892595" lon="15.3897817"><ele>571.4</ele><time>2026-03-28T12:00:18.528Z</time></trkpt><trkpt lat="40.8926183" lon="15.3896483"><ele>574.8</ele><time>2026-03-28T12:00:19.529Z</time></trkpt><trkpt lat="40.8926483" lon="15.3895133"><ele>578.2</ele><time>2026-03-28T12:00:20.529Z</time></trkpt><trkpt lat="40.8926783" lon="15.3893783"><ele>581.6</ele><time>2026-03-28T12:00:21.529Z</time></trkpt><trkpt lat="40.8927083" lon="15.3892433"><ele>585.0</ele><time>2026-03-28T12:00:22.528Z</time></trkpt><trkpt lat="40.89274" lon="15.3891233"><ele>585.0</ele><time>2026-03-28T12:00:23.528Z</time></trkpt><trkpt lat="40.8927667" lon="15.389005"><ele>585.0</ele><time>2026-03-28T12:00:24.529Z</time></trkpt><trkpt lat="40.8927967" lon="15.38891"><ele>585.0</ele><time>2026-03-28T12:00:25.528Z</time></trkpt><trkpt lat="40.8928333" lon="15.3888267"><ele>585.0</ele><time>2026-03-28T12:00:26.529Z</time></trkpt><trkpt lat="40.89287" lon="15.3887367"><ele>585.0</ele><time>2026-03-28T12:00:27.529Z</time></trkpt><trkpt lat="40.8929183" lon="15.3886317"><ele>585.0</ele><time>2026-03-28T12:00:28.529Z</time></trkpt><trkpt lat="40.892975" lon="15.3885217"><ele>586.2</ele><time>2026-03-28T12:00:29.529Z</time></trkpt><trkpt lat="40.8930333" lon="15.38842"><ele>587.4</ele><time>2026-03-28T12:00:30.529Z</time></trkpt><trkpt lat="40.8930933" lon="15.38832"><ele>588.6</ele><time>2026-03-28T12:00:31.529Z</time></trkpt><trkpt lat="40.893155" lon="15.3882267"><ele>589.8</ele><time>2026-03-28T12:00:32.528Z</time></trkpt><trkpt lat="40.8932217" lon="15.388125"><ele>591.0</ele><time>2026-03-28T12:00:33.529Z</time></trkpt><trkpt lat="40.8933017" lon="15.3880233"><ele>591.75</ele><time>2026-03-28T12:00:34.529Z</time></trkpt><trkpt lat="40.893385" lon="15.3879267"><ele>592.5</ele><time>2026-03-28T12:00:35.529Z</time></trkpt><trkpt lat="40.8934717" lon="15.38783"><ele>593.25</ele><time>2026-03-28T12:00:36.529Z</time></trkpt><trkpt lat="40.89357" lon="15.387735"><ele>594.0</ele><time>2026-03-28T12:00:37.529Z</time></trkpt><trkpt lat="40.8936633" lon="15.3876517"><ele>595.6</ele><time>2026-03-28T12:00:38.529Z</time></trkpt><trkpt lat="40.8937567" lon="15.3875783"><ele>597.2</ele><time>2026-03-28T12:00:39.529Z</time></trkpt><trkpt lat="40.8938517" lon="15.3875067"><ele>598.8000000000001</ele><time>2026-03-28T12:00:40.529Z</time></trkpt><trkpt lat="40.89394" lon="15.3874317"><ele>600.4</ele><time>2026-03-28T12:00:41.529Z</time></trkpt><trkpt lat="40.8940283" lon="15.3873633"><ele>602.0</ele><time>2026-03-28T12:00:42.529Z</time></trkpt><trkpt lat="40.8941133" lon="15.3873"><ele>602.0</ele><time>2026-03-28T12:00:43.529Z</time></trkpt><trkpt lat="40.8941883" lon="15.3872433"><ele>602.0</ele><time>2026-03-28T12:00:44.529Z</time></trkpt><trkpt lat="40.8942517" lon="15.3871917"><ele>602.0</ele><time>2026-03-28T12:00:45.529Z</time></trkpt><trkpt lat="40.8943083" lon="15.38714"><ele>602.0</ele><time>2026-03-28T12:00:46.529Z</time></trkpt><trkpt lat="40.8943533" lon="15.3870767"><ele>602.0</ele><time>2026-03-28T12:00:47.529Z</time></trkpt><trkpt lat="40.8944017" lon="15.3870033"><ele>602.0</ele><time>2026-03-28T12:00:48.529Z</time></trkpt><trkpt lat="40.8944467" lon="15.3869067"><ele>603.1666666666666</ele><time>2026-03-28T12:00:49.529Z</time></trkpt><trkpt lat="40.8944817" lon="15.38681"><ele>604.3333333333333</ele><time>2026-03-28T12:00:50.529Z</time></trkpt><trkpt lat="40.8945083" lon="15.3867083"><ele>605.5</ele><time>2026-03-28T12:00:51.528Z</time></trkpt><trkpt lat="40.89453" lon="15.3866083"><ele>606.6666666666666</ele><time>2026-03-28T12:00:52.529Z</time></trkpt><trkpt lat="40.8945483" lon="15.3865033"><ele>607.8333333333334</ele><time>2026-03-28T12:00:53.528Z</time></trkpt><trkpt lat="40.894565" lon="15.3863983"><ele>609.0</ele><time>2026-03-28T12:00:54.528Z</time></trkpt><trkpt lat="40.8945783" lon="15.386295"><ele>609.0</ele><time>2026-03-28T12:00:55.529Z</time></trkpt><trkpt lat="40.8945883" lon="15.3861867"><ele>609.0</ele><time>2026-03-28T12:00:56.528Z</time></trkpt><trkpt lat="40.8946067" lon="15.38607"><ele>609.0</ele><time>2026-03-28T12:00:57.529Z</time></trkpt><trkpt lat="40.8946233" lon="15.3859367"><ele>609.0</ele><time>2026-03-28T12:00:58.529Z</time></trkpt><trkpt lat="40.894635" lon="15.385805"><ele>609.0</ele><time>2026-03-28T12:00:59.528Z</time></trkpt><trkpt lat="40.89465" lon="15.385675"><ele>609.0</ele><time>2026-03-28T12:01:00.528Z</time></trkpt><trkpt lat="40.8946717" lon="15.3855533"><ele>609.0</ele><time>2026-03-28T12:01:01.529Z</time></trkpt><trkpt lat="40.8946917" lon="15.3854483"><ele>609.0</ele><time>2026-03-28T12:01:02.528Z</time></trkpt><trkpt lat="40.89471" lon="15.3853467"><ele>609.0</ele><time>2026-03-28T12:01:03.528Z</time></trkpt><trkpt lat="40.89473" lon="15.38524"><ele>609.0</ele><time>2026-03-28T12:01:04.529Z</time></trkpt><trkpt lat="40.8947533" lon="15.3851267"><ele>609.0</ele><time>2026-03-28T12:01:05.529Z</time></trkpt><trkpt lat="40.8947767" lon="15.385015"><ele>609.0</ele><time>2026-03-28T12:01:06.529Z</time></trkpt><trkpt lat="40.894785" lon="15.3849083"><ele>609.0</ele><time>2026-03-28T12:01:07.529Z</time></trkpt><trkpt lat="40.8947817" lon="15.384795"><ele>609.0</ele><time>2026-03-28T12:01:08.529Z</time></trkpt><trkpt lat="40.8947733" lon="15.3846833"><ele>609.0</ele><time>2026-03-28T12:01:09.529Z</time></trkpt><trkpt lat="40.8947617" lon="15.384575"><ele>609.0</ele><time>2026-03-28T12:01:10.528Z</time></trkpt><trkpt lat="40.89475" lon="15.3844633"><ele>609.0</ele><time>2026-03-28T12:01:11.529Z</time></trkpt><trkpt lat="40.8947267" lon="15.3843667"><ele>609.0</ele><time>2026-03-28T12:01:12.529Z</time></trkpt><trkpt lat="40.8947017" lon="15.3842767"><ele>609.0</ele><time>2026-03-28T12:01:13.529Z</time></trkpt><trkpt lat="40.8946767" lon="15.3841883"><ele>609.0</ele><time>2026-03-28T12:01:14.529Z</time></trkpt><trkpt lat="40.8946467" lon="15.3840867"><ele>609.0</ele><time>2026-03-28T12:01:15.528Z</time></trkpt><trkpt lat="40.8946183" lon="15.383985"><ele>609.0</ele><time>2026-03-28T12:01:16.528Z</time></trkpt><trkpt lat="40.894605" lon="15.3838733"><ele>609.0</ele><time>2026-03-28T12:01:17.528Z</time></trkpt><trkpt lat="40.894605" lon="15.38376"><ele>609.8</ele><time>2026-03-28T12:01:18.529Z</time></trkpt><trkpt lat="40.8946133" lon="15.383645"><ele>610.5999999999999</ele><time>2026-03-28T12:01:19.528Z</time></trkpt><trkpt lat="40.8946333" lon="15.38353"><ele>611.4</ele><time>2026-03-28T12:01:20.529Z</time></trkpt><trkpt lat="40.8946667" lon="15.383415"><ele>612.1999999999999</ele><time>2026-03-28T12:01:21.529Z</time></trkpt><trkpt lat="40.89471" lon="15.3832883"><ele>613.0</ele><time>2026-03-28T12:01:22.529Z</time></trkpt><trkpt lat="40.894755" lon="15.3831633"><ele>613.0</ele><time>2026-03-28T12:01:23.528Z</time></trkpt><trkpt lat="40.894795" lon="15.3830283"><ele>613.0</ele><time>2026-03-28T12:01:24.529Z</time></trkpt><trkpt lat="40.894815" lon="15.3828917"><ele>613.0</ele><time>2026-03-28T12:01:25.528Z</time></trkpt><trkpt lat="40.894815" lon="15.3827533"><ele>613.0</ele><time>2026-03-28T12:01:26.529Z</time></trkpt><trkpt lat="40.894805" lon="15.382615"><ele>613.0</ele><time>2026-03-28T12:01:27.529Z</time></trkpt><trkpt lat="40.8947833" lon="15.3824633"><ele>613.8</ele><time>2026-03-28T12:01:28.529Z</time></trkpt><trkpt lat="40.894745" lon="15.382315"><ele>614.5999999999999</ele><time>2026-03-28T12:01:29.529Z</time></trkpt><trkpt lat="40.8947083" lon="15.38218"><ele>615.4000000000001</ele><time>2026-03-28T12:01:30.529Z</time></trkpt><trkpt lat="40.8946783" lon="15.3820517"><ele>616.2</ele><time>2026-03-28T12:01:31.529Z</time></trkpt><trkpt lat="40.89466" lon="15.3819367"><ele>617.0</ele><time>2026-03-28T12:01:32.529Z</time></trkpt><trkpt lat="40.8946533" lon="15.3818233"><ele>618.8333333333333</ele><time>2026-03-28T12:01:33.529Z</time></trkpt><trkpt lat="40.89466" lon="15.3817133"><ele>620.6666666666666</ele><time>2026-03-28T12:01:34.528Z</time></trkpt><trkpt lat="40.8946883" lon="15.3816133"><ele>622.5</ele><time>2026-03-28T12:01:35.529Z</time></trkpt><trkpt lat="40.8947317" lon="15.381535"><ele>624.3333333333334</ele><time>2026-03-28T12:01:36.529Z</time></trkpt><trkpt lat="40.8947833" lon="15.3814867"><ele>626.1666666666667</ele><time>2026-03-28T12:01:37.528Z</time></trkpt><trkpt lat="40.8949117" lon="15.38147"><ele>628.0</ele><time>2026-03-28T12:01:39.529Z</time></trkpt><trkpt lat="40.8949833" lon="15.3814983"><ele>627.9999999999999</ele><time>2026-03-28T12:01:40.529Z</time></trkpt><trkpt lat="40.895055" lon="15.3815267"><ele>628.0</ele><time>2026-03-28T12:01:41.529Z</time></trkpt><trkpt lat="40.8951283" lon="15.3815367"><ele>628.0</ele><time>2026-03-28T12:01:42.528Z</time></trkpt><trkpt lat="40.8952033" lon="15.38153"><ele>628.0</ele><time>2026-03-28T12:01:43.529Z</time></trkpt><trkpt lat="40.8952717" lon="15.3815033"><ele>628.0</ele><time>2026-03-28T12:01:44.529Z</time></trkpt><trkpt lat="40.8953267" lon="15.381455"><ele>627.9999999999999</ele><time>2026-03-28T12:01:45.529Z</time></trkpt><trkpt lat="40.8953717" lon="15.3813967"><ele>628.0</ele><time>2026-03-28T12:01:46.528Z</time></trkpt><trkpt lat="40.8954233" lon="15.381225"><ele>630.1999999999999</ele><time>2026-03-28T12:01:48.529Z</time></trkpt><trkpt lat="40.895435" lon="15.3811017"><ele>632.4</ele><time>2026-03-28T12:01:49.529Z</time></trkpt><trkpt lat="40.895445" lon="15.3809617"><ele>634.5999999999999</ele><time>2026-03-28T12:01:50.528Z</time></trkpt><trkpt lat="40.8954533" lon="15.3808233"><ele>636.8</ele><time>2026-03-28T12:01:51.528Z</time></trkpt><trkpt lat="40.8954567" lon="15.3806883"><ele>639.0</ele><time>2026-03-28T12:01:52.529Z</time></trkpt><trkpt lat="40.8954633" lon="15.3805433"><ele>643.4</ele><time>2026-03-28T12:01:53.529Z</time></trkpt><trkpt lat="40.8954567" lon="15.3803883"><ele>647.8</ele><time>2026-03-28T12:01:54.528Z</time></trkpt><trkpt lat="40.895455" lon="15.3802483"><ele>652.1999999999999</ele><time>2026-03-28T12:01:55.529Z</time></trkpt><trkpt lat="40.89545" lon="15.3801117"><ele>656.5999999999999</ele><time>2026-03-28T12:01:56.529Z</time></trkpt><trkpt lat="40.895455" lon="15.3799783"><ele>661.0</ele><time>2026-03-28T12:01:57.529Z</time></trkpt><trkpt lat="40.8954583" lon="15.379835"><ele>661.0</ele><time>2026-03-28T12:01:58.529Z</time></trkpt><trkpt lat="40.8954633" lon="15.379685"><ele>661.0</ele><time>2026-03-28T12:01:59.529Z</time></trkpt><trkpt lat="40.8954667" lon="15.37953"><ele>661.0</ele><time>2026-03-28T12:02:00.529Z</time></trkpt><trkpt lat="40.8954567" lon="15.3793717"><ele>661.0</ele><time>2026-03-28T12:02:01.529Z</time></trkpt><trkpt lat="40.89545" lon="15.3792167"><ele>664.0</ele><time>2026-03-28T12:02:02.528Z</time></trkpt><trkpt lat="40.8954467" lon="15.37907"><ele>667.0</ele><time>2026-03-28T12:02:03.528Z</time></trkpt><trkpt lat="40.89544" lon="15.3789117"><ele>670.0</ele><time>2026-03-28T12:02:04.528Z</time></trkpt><trkpt lat="40.8954367" lon="15.3787567"><ele>673.0</ele><time>2026-03-28T12:02:05.528Z</time></trkpt><trkpt lat="40.8954333" lon="15.3785967"><ele>673.25</ele><time>2026-03-28T12:02:06.529Z</time></trkpt><trkpt lat="40.89544" lon="15.37844"><ele>673.5</ele><time>2026-03-28T12:02:07.528Z</time></trkpt><trkpt lat="40.895455" lon="15.3782833"><ele>673.75</ele><time>2026-03-28T12:02:08.528Z</time></trkpt><trkpt lat="40.8954817" lon="15.3781317"><ele>674.0</ele><time>2026-03-28T12:02:09.528Z</time></trkpt><trkpt lat="40.8955117" lon="15.37798"><ele>673.0</ele><time>2026-03-28T12:02:10.529Z</time></trkpt><trkpt lat="40.89553" lon="15.3778283"><ele>672.0</ele><time>2026-03-28T12:02:11.528Z</time></trkpt><trkpt lat="40.8955317" lon="15.3776717"><ele>671.0</ele><time>2026-03-28T12:02:12.529Z</time></trkpt><trkpt lat="40.89551" lon="15.37752"><ele>670.0</ele><time>2026-03-28T12:02:13.529Z</time></trkpt><trkpt lat="40.895485" lon="15.3773583"><ele>670.0</ele><time>2026-03-28T12:02:14.529Z</time></trkpt><trkpt lat="40.895465" lon="15.37719"><ele>670.0</ele><time>2026-03-28T12:02:15.528Z</time></trkpt><trkpt lat="40.8954533" lon="15.3770133"><ele>670.0</ele><time>2026-03-28T12:02:16.528Z</time></trkpt><trkpt lat="40.8954417" lon="15.37684"><ele>670.0</ele><time>2026-03-28T12:02:17.529Z</time></trkpt><trkpt lat="40.8954317" lon="15.3766717"><ele>671.5</ele><time>2026-03-28T12:02:18.529Z</time></trkpt><trkpt lat="40.8954317" lon="15.3765067"><ele>673.0</ele><time>2026-03-28T12:02:19.529Z</time></trkpt><trkpt lat="40.8954383" lon="15.3763317"><ele>674.5</ele><time>2026-03-28T12:02:20.528Z</time></trkpt><trkpt lat="40.895455" lon="15.3761467"><ele>676.0</ele><time>2026-03-28T12:02:21.529Z</time></trkpt><trkpt lat="40.8954717" lon="15.3759667"><ele>678.8</ele><time>2026-03-28T12:02:22.529Z</time></trkpt><trkpt lat="40.895475" lon="15.3757983"><ele>681.5999999999999</ele><time>2026-03-28T12:02:23.529Z</time></trkpt><trkpt lat="40.8954717" lon="15.375635"><ele>684.4</ele><time>2026-03-28T12:02:24.528Z</time></trkpt><trkpt lat="40.8954667" lon="15.375495"><ele>687.2</ele><time>2026-03-28T12:02:25.529Z</time></trkpt><trkpt lat="40.8954717" lon="15.3753817"><ele>690.0</ele><time>2026-03-28T12:02:26.528Z</time></trkpt><trkpt lat="40.8954917" lon="15.3752617"><ele>693.2</ele><time>2026-03-28T12:02:27.529Z</time></trkpt><trkpt lat="40.8955367" lon="15.3751583"><ele>696.4</ele><time>2026-03-28T12:02:28.528Z</time></trkpt><trkpt lat="40.895595" lon="15.3750583"><ele>699.5999999999999</ele><time>2026-03-28T12:02:29.528Z</time></trkpt><trkpt lat="40.895675" lon="15.3749583"><ele>702.8</ele><time>2026-03-28T12:02:30.528Z</time></trkpt><trkpt lat="40.8957617" lon="15.3748633"><ele>706.0</ele><time>2026-03-28T12:02:31.528Z</time></trkpt><trkpt lat="40.8958567" lon="15.3747617"><ele>706.8</ele><time>2026-03-28T12:02:32.528Z</time></trkpt><trkpt lat="40.895945" lon="15.374665"><ele>707.5999999999999</ele><time>2026-03-28T12:02:33.529Z</time></trkpt><trkpt lat="40.8960283" lon="15.3745667"><ele>708.4</ele><time>2026-03-28T12:02:34.529Z</time></trkpt><trkpt lat="40.896095" lon="15.37445"><ele>709.2</ele><time>2026-03-28T12:02:35.528Z</time></trkpt><trkpt lat="40.8961433" lon="15.3743317"><ele>710.0</ele><time>2026-03-28T12:02:36.529Z</time></trkpt><trkpt lat="40.8961733" lon="15.3742017"><ele>710.0</ele><time>2026-03-28T12:02:37.529Z</time></trkpt><trkpt lat="40.8961817" lon="15.3740683"><ele>710.0</ele><time>2026-03-28T12:02:38.529Z</time></trkpt><trkpt lat="40.8961767" lon="15.3739217"><ele>710.0</ele><time>2026-03-28T12:02:39.528Z</time></trkpt><trkpt lat="40.8961567" lon="15.3737633"><ele>710.0</ele><time>2026-03-28T12:02:40.528Z</time></trkpt><trkpt lat="40.89614" lon="15.373595"><ele>715.0</ele><time>2026-03-28T12:02:41.529Z</time></trkpt><trkpt lat="40.8961233" lon="15.3734333"><ele>720.0</ele><time>2026-03-28T12:02:42.528Z</time></trkpt><trkpt lat="40.8961017" lon="15.3732783"><ele>725.0</ele><time>2026-03-28T12:02:43.528Z</time></trkpt><trkpt lat="40.896085" lon="15.3731283"><ele>730.0</ele><time>2026-03-28T12:02:44.528Z</time></trkpt><trkpt lat="40.8960667" lon="15.3729767"><ele>730.25</ele><time>2026-03-28T12:02:45.529Z</time></trkpt><trkpt lat="40.8960267" lon="15.372825"><ele>730.5</ele><time>2026-03-28T12:02:46.529Z</time></trkpt><trkpt lat="40.8959633" lon="15.372665"><ele>730.75</ele><time>2026-03-28T12:02:47.528Z</time></trkpt><trkpt lat="40.8959033" lon="15.37251"><ele>731.0</ele><time>2026-03-28T12:02:48.528Z</time></trkpt><trkpt lat="40.89584" lon="15.37236"><ele>731.0</ele><time>2026-03-28T12:02:49.529Z</time></trkpt><trkpt lat="40.89579" lon="15.3722233"><ele>731.0</ele><time>2026-03-28T12:02:50.529Z</time></trkpt><trkpt lat="40.89574" lon="15.3721"><ele>731.0</ele><time>2026-03-28T12:02:51.529Z</time></trkpt><trkpt lat="40.895705" lon="15.372005"><ele>731.0</ele><time>2026-03-28T12:02:52.528Z</time></trkpt><trkpt lat="40.89568" lon="15.371925"><ele>731.0</ele><time>2026-03-28T12:02:53.529Z</time></trkpt><trkpt lat="40.8956533" lon="15.371795"><ele>732.3333333333333</ele><time>2026-03-28T12:02:55.528Z</time></trkpt><trkpt lat="40.8956283" lon="15.3716517"><ele>733.6666666666666</ele><time>2026-03-28T12:02:57.529Z</time></trkpt><trkpt lat="40.895615" lon="15.3715367"><ele>735.0</ele><time>2026-03-28T12:02:59.529Z</time></trkpt><trkpt lat="40.8956117" lon="15.3714333"><ele>736.3333333333334</ele><time>2026-03-28T12:03:01.529Z</time></trkpt><trkpt lat="40.8956267" lon="15.3712933"><ele>737.6666666666667</ele><time>2026-03-28T12:03:03.528Z</time></trkpt><trkpt lat="40.8956367" lon="15.37121"><ele>739.0</ele><time>2026-03-28T12:03:04.528Z</time></trkpt><trkpt lat="40.895645" lon="15.3711083"><ele>739.1666666666667</ele><time>2026-03-28T12:03:05.529Z</time></trkpt><trkpt lat="40.89566" lon="15.370995"><ele>739.3333333333334</ele><time>2026-03-28T12:03:06.528Z</time></trkpt><trkpt lat="40.8956733" lon="15.370875"><ele>739.5</ele><time>2026-03-28T12:03:07.528Z</time></trkpt><trkpt lat="40.8956967" lon="15.3707467"><ele>739.6666666666666</ele><time>2026-03-28T12:03:08.529Z</time></trkpt><trkpt lat="40.8957167" lon="15.3706483"><ele>739.8333333333333</ele><time>2026-03-28T12:03:09.528Z</time></trkpt><trkpt lat="40.89575" lon="15.3705617"><ele>740.0</ele><time>2026-03-28T12:03:10.528Z</time></trkpt><trkpt lat="40.8957917" lon="15.37047"><ele>740.0</ele><time>2026-03-28T12:03:11.529Z</time></trkpt><trkpt lat="40.89585" lon="15.3703717"><ele>740.0</ele><time>2026-03-28T12:03:12.528Z</time></trkpt><trkpt lat="40.8959083" lon="15.3702583"><ele>740.0</ele><time>2026-03-28T12:03:13.529Z</time></trkpt><trkpt lat="40.8959633" lon="15.3701567"><ele>740.0</ele><time>2026-03-28T12:03:14.529Z</time></trkpt><trkpt lat="40.896005" lon="15.3700567"><ele>740.0</ele><time>2026-03-28T12:03:15.529Z</time></trkpt><trkpt lat="40.8960433" lon="15.3699467"><ele>742.1666666666666</ele><time>2026-03-28T12:03:16.528Z</time></trkpt><trkpt lat="40.8960833" lon="15.369845"><ele>744.3333333333333</ele><time>2026-03-28T12:03:17.528Z</time></trkpt><trkpt lat="40.89613" lon="15.369765"><ele>746.5</ele><time>2026-03-28T12:03:18.528Z</time></trkpt><trkpt lat="40.8961783" lon="15.3696783"><ele>748.6666666666666</ele><time>2026-03-28T12:03:19.529Z</time></trkpt><trkpt lat="40.8962267" lon="15.369585"><ele>750.8333333333334</ele><time>2026-03-28T12:03:20.528Z</time></trkpt><trkpt lat="40.8962733" lon="15.3694867"><ele>753.0</ele><time>2026-03-28T12:03:21.528Z</time></trkpt><trkpt lat="40.8963133" lon="15.3693767"><ele>753.0</ele><time>2026-03-28T12:03:22.528Z</time></trkpt><trkpt lat="40.8963567" lon="15.3692767"><ele>753.0</ele><time>2026-03-28T12:03:23.528Z</time></trkpt><trkpt lat="40.8963967" lon="15.3691917"><ele>753.0</ele><time>2026-03-28T12:03:24.529Z</time></trkpt><trkpt lat="40.8964317" lon="15.3690983"><ele>753.0</ele><time>2026-03-28T12:03:25.529Z</time></trkpt><trkpt lat="40.896465" lon="15.3690183"><ele>753.0</ele><time>2026-03-28T12:03:26.528Z</time></trkpt><trkpt lat="40.8964867" lon="15.3689367"><ele>753.0</ele><time>2026-03-28T12:03:27.529Z</time></trkpt><trkpt lat="40.8965167" lon="15.36883"><ele>752.7142857142858</ele><time>2026-03-28T12:03:29.529Z</time></trkpt><trkpt lat="40.8965333" lon="15.3687433"><ele>752.4285714285714</ele><time>2026-03-28T12:03:34.529Z</time></trkpt><trkpt lat="40.896555" lon="15.3686617"><ele>752.1428571428571</ele><time>2026-03-28T12:03:36.528Z</time></trkpt><trkpt lat="40.8965483" lon="15.368555"><ele>751.8571428571429</ele><time>2026-03-28T12:03:38.529Z</time></trkpt><trkpt lat="40.896525" lon="15.36846"><ele>751.5714285714286</ele><time>2026-03-28T12:03:40.529Z</time></trkpt><trkpt lat="40.8964767" lon="15.368375"><ele>751.2857142857143</ele><time>2026-03-28T12:03:42.529Z</time></trkpt><trkpt lat="40.8964383" lon="15.3682933"><ele>751.0</ele><time>2026-03-28T12:03:44.529Z</time></trkpt><trkpt lat="40.8963917" lon="15.3681833"><ele>751.0000000000001</ele><time>2026-03-28T12:03:46.529Z</time></trkpt><trkpt lat="40.8963533" lon="15.368115"><ele>751.0</ele><time>2026-03-28T12:03:48.528Z</time></trkpt><trkpt lat="40.8962883" lon="15.368045"><ele>751.0</ele><time>2026-03-28T12:03:54.528Z</time></trkpt><trkpt lat="40.8962233" lon="15.368"><ele>751.0</ele><time>2026-03-28T12:03:56.529Z</time></trkpt><trkpt lat="40.8961583" lon="15.3679517"><ele>751.0</ele><time>2026-03-28T12:03:58.528Z</time></trkpt><trkpt lat="40.8960917" lon="15.36791"><ele>751.0000000000001</ele><time>2026-03-28T12:04:00.529Z</time></trkpt><trkpt lat="40.89603" lon="15.36785"><ele>751.0</ele><time>2026-03-28T12:04:02.529Z</time></trkpt><trkpt lat="40.8959567" lon="15.3678017"><ele>753.0</ele><time>2026-03-28T12:04:04.528Z</time></trkpt><trkpt lat="40.895875" lon="15.3677633"><ele>755.0</ele><time>2026-03-28T12:04:06.528Z</time></trkpt><trkpt lat="40.89579" lon="15.3677333"><ele>757.0</ele><time>2026-03-28T12:04:08.529Z</time></trkpt><trkpt lat="40.8956983" lon="15.3676933"><ele>759.0</ele><time>2026-03-28T12:04:10.529Z</time></trkpt><trkpt lat="40.8956083" lon="15.3676367"><ele>761.0</ele><time>2026-03-28T12:04:12.529Z</time></trkpt><trkpt lat="40.8955533" lon="15.3675833"><ele>763.0</ele><time>2026-03-28T12:04:14.529Z</time></trkpt><trkpt lat="40.89545" lon="15.3675433"><ele>763.0</ele><time>2026-03-28T12:04:22.529Z</time></trkpt><trkpt lat="40.8953667" lon="15.3674967"><ele>763.0</ele><time>2026-03-28T12:04:25.529Z</time></trkpt><trkpt lat="40.895285" lon="15.3674617"><ele>763.0</ele><time>2026-03-28T12:04:27.529Z</time></trkpt><trkpt lat="40.8952067" lon="15.3674167"><ele>763.0</ele><time>2026-03-28T12:04:29.529Z</time></trkpt><trkpt lat="40.8951217" lon="15.36736"><ele>763.0</ele><time>2026-03-28T12:04:31.529Z</time></trkpt><trkpt lat="40.89503" lon="15.3673133"><ele>762.6666666666667</ele><time>2026-03-28T12:04:33.528Z</time></trkpt><trkpt lat="40.894945" lon="15.36727"><ele>762.3333333333334</ele><time>2026-03-28T12:04:35.529Z</time></trkpt><trkpt lat="40.8948683" lon="15.3672333"><ele>762.0</ele><time>2026-03-28T12:04:37.528Z</time></trkpt><trkpt lat="40.8947833" lon="15.367215"><ele>761.6666666666666</ele><time>2026-03-28T12:04:39.529Z</time></trkpt><trkpt lat="40.8946983" lon="15.367185"><ele>761.3333333333333</ele><time>2026-03-28T12:04:41.529Z</time></trkpt><trkpt lat="40.8946033" lon="15.3671517"><ele>761.0</ele><time>2026-03-28T12:04:43.528Z</time></trkpt><trkpt lat="40.8945217" lon="15.3671183"><ele>761.0</ele><time>2026-03-28T12:04:45.53Z</time></trkpt><trkpt lat="40.8944483" lon="15.36708"><ele>761.0</ele><time>2026-03-28T12:04:47.529Z</time></trkpt><trkpt lat="40.8943683" lon="15.36705"><ele>761.0</ele><time>2026-03-28T12:04:50.53Z</time></trkpt><trkpt lat="40.8942983" lon="15.3670567"><ele>761.0</ele><time>2026-03-28T12:04:54.53Z</time></trkpt><trkpt lat="40.8942017" lon="15.3670367"><ele>761.0</ele><time>2026-03-28T12:04:57.53Z</time></trkpt><trkpt lat="40.8941367" lon="15.367045"><ele>761.0</ele><time>2026-03-28T12:04:59.53Z</time></trkpt><trkpt lat="40.8940467" lon="15.367065"><ele>756.1666666666666</ele><time>2026-03-28T12:05:02.53Z</time></trkpt><trkpt lat="40.8939633" lon="15.36709"><ele>751.3333333333333</ele><time>2026-03-28T12:05:05.529Z</time></trkpt><trkpt lat="40.89388" lon="15.3671217"><ele>746.5</ele><time>2026-03-28T12:05:08.529Z</time></trkpt><trkpt lat="40.8938117" lon="15.3671033"><ele>741.6666666666666</ele><time>2026-03-28T12:05:11.53Z</time></trkpt><trkpt lat="40.8937767" lon="15.36702"><ele>736.8333333333334</ele><time>2026-03-28T12:05:13.53Z</time></trkpt><trkpt lat="40.8937583" lon="15.3669133"><ele>732.0</ele><time>2026-03-28T12:05:15.53Z</time></trkpt><trkpt lat="40.893755" lon="15.3667883"><ele>732.0</ele><time>2026-03-28T12:05:17.53Z</time></trkpt><trkpt lat="40.8938017" lon="15.3666517"><ele>732.0</ele><time>2026-03-28T12:05:19.53Z</time></trkpt><trkpt lat="40.8938433" lon="15.3665867"><ele>732.0</ele><time>2026-03-28T12:05:20.53Z</time></trkpt><trkpt lat="40.8939217" lon="15.3664817"><ele>732.0</ele><time>2026-03-28T12:05:22.53Z</time></trkpt><trkpt lat="40.8939933" lon="15.366385"><ele>732.0</ele><time>2026-03-28T12:05:24.53Z</time></trkpt><trkpt lat="40.8940583" lon="15.3662717"><ele>736.0</ele><time>2026-03-28T12:05:26.53Z</time></trkpt><trkpt lat="40.8941033" lon="15.3661683"><ele>740.0</ele><time>2026-03-28T12:05:28.53Z</time></trkpt><trkpt lat="40.8941567" lon="15.3660517"><ele>744.0</ele><time>2026-03-28T12:05:30.529Z</time></trkpt><trkpt lat="40.894205" lon="15.3659767"><ele>748.0</ele><time>2026-03-28T12:05:31.529Z</time></trkpt><trkpt lat="40.89427" lon="15.3659017"><ele>752.0</ele><time>2026-03-28T12:05:32.53Z</time></trkpt><trkpt lat="40.8943333" lon="15.3658233"><ele>756.0</ele><time>2026-03-28T12:05:33.53Z</time></trkpt><trkpt lat="40.8943933" lon="15.365745"><ele>756.0</ele><time>2026-03-28T12:05:34.53Z</time></trkpt><trkpt lat="40.8944367" lon="15.3656633"><ele>756.0</ele><time>2026-03-28T12:05:35.53Z</time></trkpt><trkpt lat="40.8944633" lon="15.3655617"><ele>756.0</ele><time>2026-03-28T12:05:36.529Z</time></trkpt><trkpt lat="40.89447" lon="15.3654417"><ele>756.0</ele><time>2026-03-28T12:05:37.529Z</time></trkpt><trkpt lat="40.8944617" lon="15.3653067"><ele>756.0</ele><time>2026-03-28T12:05:38.53Z</time></trkpt><trkpt lat="40.8944533" lon="15.365175"><ele>752.1666666666666</ele><time>2026-03-28T12:05:39.53Z</time></trkpt><trkpt lat="40.8944517" lon="15.3650467"><ele>748.3333333333334</ele><time>2026-03-28T12:05:40.529Z</time></trkpt><trkpt lat="40.8944533" lon="15.364925"><ele>744.5</ele><time>2026-03-28T12:05:41.53Z</time></trkpt><trkpt lat="40.89446" lon="15.364815"><ele>740.6666666666667</ele><time>2026-03-28T12:05:42.53Z</time></trkpt><trkpt lat="40.8944767" lon="15.3647183"><ele>736.8333333333334</ele><time>2026-03-28T12:05:43.53Z</time></trkpt><trkpt lat="40.8945083" lon="15.3646367"><ele>733.0</ele><time>2026-03-28T12:05:44.53Z</time></trkpt><trkpt lat="40.894555" lon="15.36458"><ele>725.6666666666667</ele><time>2026-03-28T12:05:45.53Z</time></trkpt><trkpt lat="40.8946183" lon="15.3645417"><ele>718.3333333333334</ele><time>2026-03-28T12:05:46.529Z</time></trkpt><trkpt lat="40.8946917" lon="15.36451"><ele>711.0</ele><time>2026-03-28T12:05:47.529Z</time></trkpt><trkpt lat="40.8947733" lon="15.3644883"><ele>703.6666666666666</ele><time>2026-03-28T12:05:48.53Z</time></trkpt><trkpt lat="40.894865" lon="15.3644667"><ele>696.3333333333333</ele><time>2026-03-28T12:05:49.53Z</time></trkpt><trkpt lat="40.8949567" lon="15.3644467"><ele>689.0</ele><time>2026-03-28T12:05:50.529Z</time></trkpt><trkpt lat="40.895045" lon="15.3644333"><ele>691.3333333333333</ele><time>2026-03-28T12:05:51.53Z</time></trkpt><trkpt lat="40.8951283" lon="15.3644183"><ele>693.6666666666666</ele><time>2026-03-28T12:05:52.53Z</time></trkpt><trkpt lat="40.895205" lon="15.3644"><ele>696.0</ele><time>2026-03-28T12:05:53.53Z</time></trkpt><trkpt lat="40.8952883" lon="15.3643767"><ele>698.3333333333334</ele><time>2026-03-28T12:05:54.529Z</time></trkpt><trkpt lat="40.8953817" lon="15.36434"><ele>700.6666666666667</ele><time>2026-03-28T12:05:55.529Z</time></trkpt><trkpt lat="40.89547" lon="15.3642817"><ele>703.0</ele><time>2026-03-28T12:05:56.53Z</time></trkpt><trkpt lat="40.8955533" lon="15.3642117"><ele>703.0</ele><time>2026-03-28T12:05:57.53Z</time></trkpt><trkpt lat="40.89564" lon="15.3641383"><ele>703.0</ele><time>2026-03-28T12:05:58.53Z</time></trkpt><trkpt lat="40.8957217" lon="15.3640617"><ele>703.0</ele><time>2026-03-28T12:05:59.53Z</time></trkpt><trkpt lat="40.895805" lon="15.3639867"><ele>703.0</ele><time>2026-03-28T12:06:00.529Z</time></trkpt><trkpt lat="40.8958867" lon="15.3639183"><ele>703.0</ele><time>2026-03-28T12:06:01.53Z</time></trkpt><trkpt lat="40.8959733" lon="15.363865"><ele>696.0</ele><time>2026-03-28T12:06:02.53Z</time></trkpt><trkpt lat="40.8960717" lon="15.3638233"><ele>689.0</ele><time>2026-03-28T12:06:03.529Z</time></trkpt><trkpt lat="40.8961767" lon="15.36379"><ele>682.0</ele><time>2026-03-28T12:06:04.53Z</time></trkpt><trkpt lat="40.8962817" lon="15.3637617"><ele>675.0</ele><time>2026-03-28T12:06:05.529Z</time></trkpt><trkpt lat="40.8963767" lon="15.363735"><ele>668.0</ele><time>2026-03-28T12:06:06.53Z</time></trkpt><trkpt lat="40.8964717" lon="15.36372"><ele>668.0</ele><time>2026-03-28T12:06:07.53Z</time></trkpt><trkpt lat="40.8965683" lon="15.3637117"><ele>668.0</ele><time>2026-03-28T12:06:08.53Z</time></trkpt><trkpt lat="40.8966767" lon="15.363705"><ele>668.0</ele><time>2026-03-28T12:06:09.529Z</time></trkpt><trkpt lat="40.8967883" lon="15.3637033"><ele>668.0</ele><time>2026-03-28T12:06:10.53Z</time></trkpt><trkpt lat="40.8969033" lon="15.3637017"><ele>668.0</ele><time>2026-03-28T12:06:11.529Z</time></trkpt><trkpt lat="40.897015" lon="15.3636933"><ele>667.4</ele><time>2026-03-28T12:06:12.53Z</time></trkpt><trkpt lat="40.8971233" lon="15.3636883"><ele>666.8</ele><time>2026-03-28T12:06:13.53Z</time></trkpt><trkpt lat="40.8972183" lon="15.3636917"><ele>666.2</ele><time>2026-03-28T12:06:14.529Z</time></trkpt><trkpt lat="40.8973167" lon="15.3636917"><ele>665.6</ele><time>2026-03-28T12:06:15.53Z</time></trkpt><trkpt lat="40.89741" lon="15.3636967"><ele>665.0</ele><time>2026-03-28T12:06:16.53Z</time></trkpt><trkpt lat="40.8974933" lon="15.3636967"><ele>665.0</ele><time>2026-03-28T12:06:17.53Z</time></trkpt><trkpt lat="40.8975767" lon="15.3637017"><ele>665.0</ele><time>2026-03-28T12:06:18.53Z</time></trkpt><trkpt lat="40.897645" lon="15.3637133"><ele>665.0</ele><time>2026-03-28T12:06:19.529Z</time></trkpt><trkpt lat="40.8977467" lon="15.363805"><ele>665.0</ele><time>2026-03-28T12:06:21.53Z</time></trkpt><trkpt lat="40.8977933" lon="15.3638783"><ele>665.0</ele><time>2026-03-28T12:06:22.529Z</time></trkpt><trkpt lat="40.8978217" lon="15.3639733"><ele>665.0</ele><time>2026-03-28T12:06:23.53Z</time></trkpt><trkpt lat="40.89783" lon="15.3640883"><ele>663.2</ele><time>2026-03-28T12:06:24.529Z</time></trkpt><trkpt lat="40.8978417" lon="15.3642183"><ele>661.4</ele><time>2026-03-28T12:06:25.529Z</time></trkpt><trkpt lat="40.89785" lon="15.36435"><ele>659.5999999999999</ele><time>2026-03-28T12:06:26.529Z</time></trkpt><trkpt lat="40.8978567" lon="15.3644883"><ele>657.8</ele><time>2026-03-28T12:06:27.529Z</time></trkpt><trkpt lat="40.8978617" lon="15.3646167"><ele>656.0</ele><time>2026-03-28T12:06:28.53Z</time></trkpt><trkpt lat="40.8978533" lon="15.3647633"><ele>655.1999999999999</ele><time>2026-03-28T12:06:29.53Z</time></trkpt><trkpt lat="40.8978367" lon="15.3649033"><ele>654.4</ele><time>2026-03-28T12:06:30.53Z</time></trkpt><trkpt lat="40.89782" lon="15.3650433"><ele>653.6</ele><time>2026-03-28T12:06:31.529Z</time></trkpt><trkpt lat="40.8978017" lon="15.3651717"><ele>652.8</ele><time>2026-03-28T12:06:32.53Z</time></trkpt><trkpt lat="40.897785" lon="15.3652817"><ele>652.0</ele><time>2026-03-28T12:06:33.53Z</time></trkpt><trkpt lat="40.8977717" lon="15.365375"><ele>652.0</ele><time>2026-03-28T12:06:34.53Z</time></trkpt><trkpt lat="40.8977733" lon="15.365525"><ele>652.0</ele><time>2026-03-28T12:06:36.529Z</time></trkpt><trkpt lat="40.8978333" lon="15.3656183"><ele>652.0</ele><time>2026-03-28T12:06:38.53Z</time></trkpt><trkpt lat="40.8979167" lon="15.3655617"><ele>652.0</ele><time>2026-03-28T12:06:40.53Z</time></trkpt><trkpt lat="40.8979583" lon="15.3654817"><ele>652.0</ele><time>2026-03-28T12:06:41.529Z</time></trkpt><trkpt lat="40.8979883" lon="15.365385"><ele>652.0</ele><time>2026-03-28T12:06:42.53Z</time></trkpt><trkpt lat="40.89802" lon="15.3652683"><ele>652.0</ele><time>2026-03-28T12:06:43.529Z</time></trkpt><trkpt lat="40.89805" lon="15.36514"><ele>652.0</ele><time>2026-03-28T12:06:44.53Z</time></trkpt><trkpt lat="40.8980717" lon="15.3650033"><ele>652.0</ele><time>2026-03-28T12:06:45.529Z</time></trkpt><trkpt lat="40.8981033" lon="15.3648617"><ele>652.0</ele><time>2026-03-28T12:06:46.529Z</time></trkpt><trkpt lat="40.8981483" lon="15.3647217"><ele>652.8</ele><time>2026-03-28T12:06:47.529Z</time></trkpt><trkpt lat="40.8981967" lon="15.364595"><ele>653.6</ele><time>2026-03-28T12:06:48.53Z</time></trkpt><trkpt lat="40.89825" lon="15.3644867"><ele>654.4</ele><time>2026-03-28T12:06:49.53Z</time></trkpt><trkpt lat="40.8983167" lon="15.3643917"><ele>655.1999999999999</ele><time>2026-03-28T12:06:50.529Z</time></trkpt><trkpt lat="40.8983833" lon="15.3643133"><ele>656.0</ele><time>2026-03-28T12:06:51.529Z</time></trkpt><trkpt lat="40.898455" lon="15.36425"><ele>652.2857142857142</ele><time>2026-03-28T12:06:52.529Z</time></trkpt><trkpt lat="40.8985183" lon="15.3642033"><ele>648.5714285714286</ele><time>2026-03-28T12:06:53.529Z</time></trkpt><trkpt lat="40.898575" lon="15.3641417"><ele>644.8571428571429</ele><time>2026-03-28T12:06:54.53Z</time></trkpt><trkpt lat="40.898615" lon="15.3640667"><ele>641.1428571428571</ele><time>2026-03-28T12:06:55.53Z</time></trkpt><trkpt lat="40.8986383" lon="15.3639783"><ele>637.4285714285714</ele><time>2026-03-28T12:06:56.529Z</time></trkpt><trkpt lat="40.8986433" lon="15.3638783"><ele>633.7142857142857</ele><time>2026-03-28T12:06:57.53Z</time></trkpt><trkpt lat="40.8986433" lon="15.3637717"><ele>630.0</ele><time>2026-03-28T12:06:58.53Z</time></trkpt><trkpt lat="40.898645" lon="15.3636567"><ele>629.3333333333334</ele><time>2026-03-28T12:06:59.529Z</time></trkpt><trkpt lat="40.89864" lon="15.36354"><ele>628.6666666666666</ele><time>2026-03-28T12:07:00.53Z</time></trkpt><trkpt lat="40.8986183" lon="15.36344"><ele>628.0</ele><time>2026-03-28T12:07:01.529Z</time></trkpt><trkpt lat="40.89859" lon="15.3633433"><ele>627.3333333333333</ele><time>2026-03-28T12:07:02.53Z</time></trkpt><trkpt lat="40.898535" lon="15.363245"><ele>626.6666666666666</ele><time>2026-03-28T12:07:03.529Z</time></trkpt><trkpt lat="40.898485" lon="15.3631483"><ele>626.0</ele><time>2026-03-28T12:07:04.529Z</time></trkpt><trkpt lat="40.8984333" lon="15.36304"><ele>628.0</ele><time>2026-03-28T12:07:05.53Z</time></trkpt><trkpt lat="40.8983883" lon="15.3629267"><ele>630.0</ele><time>2026-03-28T12:07:06.53Z</time></trkpt><trkpt lat="40.8983467" lon="15.3628017"><ele>632.0</ele><time>2026-03-28T12:07:07.529Z</time></trkpt><trkpt lat="40.8983033" lon="15.362685"><ele>634.0</ele><time>2026-03-28T12:07:08.53Z</time></trkpt><trkpt lat="40.898255" lon="15.3625817"><ele>636.0</ele><time>2026-03-28T12:07:09.53Z</time></trkpt><trkpt lat="40.898195" lon="15.3625"><ele>636.0</ele><time>2026-03-28T12:07:10.529Z</time></trkpt><trkpt lat="40.8981183" lon="15.3624367"><ele>636.0</ele><time>2026-03-28T12:07:11.53Z</time></trkpt><trkpt lat="40.8980383" lon="15.3623883"><ele>636.0</ele><time>2026-03-28T12:07:12.53Z</time></trkpt><trkpt lat="40.8979517" lon="15.36236"><ele>636.0</ele><time>2026-03-28T12:07:13.529Z</time></trkpt><trkpt lat="40.8978633" lon="15.3623483"><ele>636.0</ele><time>2026-03-28T12:07:14.529Z</time></trkpt><trkpt lat="40.8977717" lon="15.36235"><ele>636.0</ele><time>2026-03-28T12:07:15.529Z</time></trkpt><trkpt lat="40.8976833" lon="15.3623583"><ele>636.0</ele><time>2026-03-28T12:07:16.529Z</time></trkpt><trkpt lat="40.897605" lon="15.3623633"><ele>636.0</ele><time>2026-03-28T12:07:17.529Z</time></trkpt><trkpt lat="40.8975333" lon="15.3623667"><ele>636.0</ele><time>2026-03-28T12:07:18.53Z</time></trkpt><trkpt lat="40.897465" lon="15.3623617"><ele>636.0</ele><time>2026-03-28T12:07:19.53Z</time></trkpt><trkpt lat="40.8973667" lon="15.36231"><ele>636.0</ele><time>2026-03-28T12:07:21.53Z</time></trkpt><trkpt lat="40.8973633" lon="15.3621983"><ele>636.0</ele><time>2026-03-28T12:07:23.529Z</time></trkpt><trkpt lat="40.8974367" lon="15.3621083"><ele>633.8333333333334</ele><time>2026-03-28T12:07:25.529Z</time></trkpt><trkpt lat="40.8975067" lon="15.36208"><ele>631.6666666666666</ele><time>2026-03-28T12:07:26.53Z</time></trkpt><trkpt lat="40.8975883" lon="15.362055"><ele>629.5</ele><time>2026-03-28T12:07:27.53Z</time></trkpt><trkpt lat="40.89767" lon="15.3620267"><ele>627.3333333333333</ele><time>2026-03-28T12:07:28.53Z</time></trkpt><trkpt lat="40.8977517" lon="15.3619983"><ele>625.1666666666666</ele><time>2026-03-28T12:07:29.53Z</time></trkpt><trkpt lat="40.89783" lon="15.361965"><ele>623.0</ele><time>2026-03-28T12:07:30.53Z</time></trkpt><trkpt lat="40.8979133" lon="15.361935"><ele>622.1666666666666</ele><time>2026-03-28T12:07:31.53Z</time></trkpt><trkpt lat="40.897995" lon="15.3619"><ele>621.3333333333333</ele><time>2026-03-28T12:07:32.53Z</time></trkpt><trkpt lat="40.8980783" lon="15.3618783"><ele>620.5</ele><time>2026-03-28T12:07:33.53Z</time></trkpt><trkpt lat="40.8981617" lon="15.36188"><ele>619.6666666666666</ele><time>2026-03-28T12:07:34.53Z</time></trkpt><trkpt lat="40.89824" lon="15.3619017"><ele>618.8333333333334</ele><time>2026-03-28T12:07:35.529Z</time></trkpt><trkpt lat="40.8983283" lon="15.361955"><ele>618.0</ele><time>2026-03-28T12:07:36.529Z</time></trkpt><trkpt lat="40.898435" lon="15.3620183"><ele>618.0</ele><time>2026-03-28T12:07:37.53Z</time></trkpt><trkpt lat="40.8985367" lon="15.3620783"><ele>618.0</ele><time>2026-03-28T12:07:38.529Z</time></trkpt><trkpt lat="40.8986467" lon="15.36214"><ele>618.0</ele><time>2026-03-28T12:07:39.53Z</time></trkpt><trkpt lat="40.8987517" lon="15.3622033"><ele>618.0</ele><time>2026-03-28T12:07:40.53Z</time></trkpt><trkpt lat="40.8988517" lon="15.3622683"><ele>618.0</ele><time>2026-03-28T12:07:41.529Z</time></trkpt><trkpt lat="40.898955" lon="15.3623283"><ele>618.0</ele><time>2026-03-28T12:07:42.529Z</time></trkpt><trkpt lat="40.89905" lon="15.362385"><ele>618.0</ele><time>2026-03-28T12:07:43.53Z</time></trkpt><trkpt lat="40.89914" lon="15.3624417"><ele>618.0</ele><time>2026-03-28T12:07:44.53Z</time></trkpt><trkpt lat="40.899215" lon="15.3624933"><ele>618.0</ele><time>2026-03-28T12:07:45.529Z</time></trkpt><trkpt lat="40.8992783" lon="15.36255"><ele>614.4</ele><time>2026-03-28T12:07:46.529Z</time></trkpt><trkpt lat="40.8993317" lon="15.3626283"><ele>610.8</ele><time>2026-03-28T12:07:47.53Z</time></trkpt><trkpt lat="40.8993733" lon="15.3627233"><ele>607.2</ele><time>2026-03-28T12:07:48.53Z</time></trkpt><trkpt lat="40.899395" lon="15.3628383"><ele>603.6</ele><time>2026-03-28T12:07:49.53Z</time></trkpt><trkpt lat="40.8994217" lon="15.362965"><ele>600.0</ele><time>2026-03-28T12:07:50.53Z</time></trkpt><trkpt lat="40.8994517" lon="15.3630967"><ele>600.0</ele><time>2026-03-28T12:07:51.53Z</time></trkpt><trkpt lat="40.899495" lon="15.3632167"><ele>600.0</ele><time>2026-03-28T12:07:52.53Z</time></trkpt><trkpt lat="40.8995633" lon="15.3633367"><ele>600.0</ele><time>2026-03-28T12:07:53.53Z</time></trkpt><trkpt lat="40.89964" lon="15.363455"><ele>600.0</ele><time>2026-03-28T12:07:54.529Z</time></trkpt><trkpt lat="40.8997233" lon="15.3635733"><ele>600.0</ele><time>2026-03-28T12:07:55.53Z</time></trkpt><trkpt lat="40.8998083" lon="15.3636817"><ele>600.0</ele><time>2026-03-28T12:07:56.529Z</time></trkpt><trkpt lat="40.8998967" lon="15.3637833"><ele>600.0</ele><time>2026-03-28T12:07:57.53Z</time></trkpt><trkpt lat="40.8999883" lon="15.3638783"><ele>600.0</ele><time>2026-03-28T12:07:58.53Z</time></trkpt><trkpt lat="40.900085" lon="15.3639733"><ele>598.25</ele><time>2026-03-28T12:07:59.53Z</time></trkpt><trkpt lat="40.9001783" lon="15.3640683"><ele>596.5</ele><time>2026-03-28T12:08:00.53Z</time></trkpt><trkpt lat="40.900275" lon="15.36416"><ele>594.75</ele><time>2026-03-28T12:08:01.53Z</time></trkpt><trkpt lat="40.9003717" lon="15.3642583"><ele>593.0</ele><time>2026-03-28T12:08:02.529Z</time></trkpt><trkpt lat="40.9004683" lon="15.3643483"><ele>593.0</ele><time>2026-03-28T12:08:03.53Z</time></trkpt><trkpt lat="40.9005633" lon="15.36443"><ele>593.0</ele><time>2026-03-28T12:08:04.53Z</time></trkpt><trkpt lat="40.90065" lon="15.364495"><ele>593.0</ele><time>2026-03-28T12:08:05.53Z</time></trkpt><trkpt lat="40.9007317" lon="15.3645483"><ele>593.0</ele><time>2026-03-28T12:08:06.53Z</time></trkpt><trkpt lat="40.900815" lon="15.3645733"><ele>593.0</ele><time>2026-03-28T12:08:07.529Z</time></trkpt><trkpt lat="40.9008967" lon="15.3645733"><ele>590.6666666666666</ele><time>2026-03-28T12:08:08.529Z</time></trkpt><trkpt lat="40.9009733" lon="15.3645433"><ele>588.3333333333333</ele><time>2026-03-28T12:08:09.53Z</time></trkpt><trkpt lat="40.9010467" lon="15.3644783"><ele>586.0</ele><time>2026-03-28T12:08:10.529Z</time></trkpt><trkpt lat="40.9011067" lon="15.3643917"><ele>583.6666666666666</ele><time>2026-03-28T12:08:11.53Z</time></trkpt><trkpt lat="40.9011533" lon="15.3642933"><ele>581.3333333333334</ele><time>2026-03-28T12:08:12.53Z</time></trkpt><trkpt lat="40.901185" lon="15.3642033"><ele>579.0</ele><time>2026-03-28T12:08:13.53Z</time></trkpt><trkpt lat="40.901205" lon="15.3641067"><ele>579.0</ele><time>2026-03-28T12:08:14.53Z</time></trkpt><trkpt lat="40.9011967" lon="15.36401"><ele>579.0</ele><time>2026-03-28T12:08:15.53Z</time></trkpt><trkpt lat="40.901165" lon="15.3639317"><ele>579.0</ele><time>2026-03-28T12:08:16.529Z</time></trkpt><trkpt lat="40.9011017" lon="15.3638683"><ele>579.0</ele><time>2026-03-28T12:08:17.529Z</time></trkpt><trkpt lat="40.9010317" lon="15.3638267"><ele>579.0</ele><time>2026-03-28T12:08:18.53Z</time></trkpt><trkpt lat="40.9009417" lon="15.3638133"><ele>579.0</ele><time>2026-03-28T12:08:19.529Z</time></trkpt><trkpt lat="40.900845" lon="15.3637917"><ele>579.2</ele><time>2026-03-28T12:08:20.53Z</time></trkpt><trkpt lat="40.9007517" lon="15.36377"><ele>579.4</ele><time>2026-03-28T12:08:21.529Z</time></trkpt><trkpt lat="40.90066" lon="15.36372"><ele>579.6</ele><time>2026-03-28T12:08:22.529Z</time></trkpt><trkpt lat="40.9005817" lon="15.363645"><ele>579.8</ele><time>2026-03-28T12:08:23.53Z</time></trkpt><trkpt lat="40.9005083" lon="15.3635417"><ele>580.0</ele><time>2026-03-28T12:08:24.529Z</time></trkpt><trkpt lat="40.9004383" lon="15.363425"><ele>580.0</ele><time>2026-03-28T12:08:25.53Z</time></trkpt><trkpt lat="40.90038" lon="15.3632867"><ele>580.0</ele><time>2026-03-28T12:08:26.53Z</time></trkpt><trkpt lat="40.9003383" lon="15.3631433"><ele>580.0</ele><time>2026-03-28T12:08:27.529Z</time></trkpt><trkpt lat="40.900305" lon="15.362995"><ele>580.0</ele><time>2026-03-28T12:08:28.529Z</time></trkpt><trkpt lat="40.900295" lon="15.362835"><ele>577.0</ele><time>2026-03-28T12:08:29.529Z</time></trkpt><trkpt lat="40.9002933" lon="15.3626633"><ele>574.0</ele><time>2026-03-28T12:08:30.53Z</time></trkpt><trkpt lat="40.9002983" lon="15.3624817"><ele>571.0</ele><time>2026-03-28T12:08:31.53Z</time></trkpt><trkpt lat="40.9002967" lon="15.362305"><ele>568.0</ele><time>2026-03-28T12:08:32.53Z</time></trkpt><trkpt lat="40.9002967" lon="15.3621333"><ele>566.25</ele><time>2026-03-28T12:08:33.53Z</time></trkpt><trkpt lat="40.900295" lon="15.3619633"><ele>564.5</ele><time>2026-03-28T12:08:34.529Z</time></trkpt><trkpt lat="40.900295" lon="15.36181"><ele>562.75</ele><time>2026-03-28T12:08:35.53Z</time></trkpt><trkpt lat="40.900305" lon="15.3616583"><ele>561.0</ele><time>2026-03-28T12:08:36.529Z</time></trkpt><trkpt lat="40.900325" lon="15.3614967"><ele>560.5</ele><time>2026-03-28T12:08:37.53Z</time></trkpt><trkpt lat="40.900355" lon="15.3613317"><ele>560.0</ele><time>2026-03-28T12:08:38.53Z</time></trkpt><trkpt lat="40.90039" lon="15.3611783"><ele>559.5</ele><time>2026-03-28T12:08:39.529Z</time></trkpt><trkpt lat="40.9004283" lon="15.3610267"><ele>559.0</ele><time>2026-03-28T12:08:40.529Z</time></trkpt><trkpt lat="40.9004517" lon="15.360885"><ele>559.0</ele><time>2026-03-28T12:08:41.53Z</time></trkpt><trkpt lat="40.90045" lon="15.36075"><ele>559.0</ele><time>2026-03-28T12:08:42.53Z</time></trkpt><trkpt lat="40.9004333" lon="15.3606183"><ele>559.0</ele><time>2026-03-28T12:08:43.529Z</time></trkpt><trkpt lat="40.9004133" lon="15.3604833"><ele>559.0</ele><time>2026-03-28T12:08:44.529Z</time></trkpt><trkpt lat="40.9003933" lon="15.36035"><ele>559.0</ele><time>2026-03-28T12:08:45.53Z</time></trkpt><trkpt lat="40.900375" lon="15.3602233"><ele>558.2</ele><time>2026-03-28T12:08:46.53Z</time></trkpt><trkpt lat="40.9003467" lon="15.3601167"><ele>557.4</ele><time>2026-03-28T12:08:47.53Z</time></trkpt><trkpt lat="40.90031" lon="15.3600233"><ele>556.6</ele><time>2026-03-28T12:08:48.53Z</time></trkpt><trkpt lat="40.9002467" lon="15.359935"><ele>555.8</ele><time>2026-03-28T12:08:49.529Z</time></trkpt><trkpt lat="40.9001733" lon="15.35984"><ele>555.0</ele><time>2026-03-28T12:08:50.529Z</time></trkpt><trkpt lat="40.9000967" lon="15.3597433"><ele>556.4</ele><time>2026-03-28T12:08:51.53Z</time></trkpt><trkpt lat="40.9000217" lon="15.359645"><ele>557.8</ele><time>2026-03-28T12:08:52.53Z</time></trkpt><trkpt lat="40.89995" lon="15.3595417"><ele>559.2</ele><time>2026-03-28T12:08:53.53Z</time></trkpt><trkpt lat="40.8998917" lon="15.359425"><ele>560.6</ele><time>2026-03-28T12:08:54.529Z</time></trkpt><trkpt lat="40.8998433" lon="15.3592933"><ele>562.0</ele><time>2026-03-28T12:08:55.53Z</time></trkpt><trkpt lat="40.8998083" lon="15.35915"><ele>562.0</ele><time>2026-03-28T12:08:56.53Z</time></trkpt><trkpt lat="40.89978" lon="15.35902"><ele>562.0</ele><time>2026-03-28T12:08:57.53Z</time></trkpt><trkpt lat="40.8997717" lon="15.35889"><ele>562.0</ele><time>2026-03-28T12:08:58.529Z</time></trkpt><trkpt lat="40.8997833" lon="15.358735"><ele>562.0</ele><time>2026-03-28T12:08:59.53Z</time></trkpt><trkpt lat="40.89979" lon="15.3585633"><ele>562.0</ele><time>2026-03-28T12:09:00.529Z</time></trkpt><trkpt lat="40.8997967" lon="15.3583883"><ele>561.5</ele><time>2026-03-28T12:09:01.529Z</time></trkpt><trkpt lat="40.8998017" lon="15.3582233"><ele>561.0</ele><time>2026-03-28T12:09:02.53Z</time></trkpt><trkpt lat="40.89982" lon="15.3580517"><ele>560.5</ele><time>2026-03-28T12:09:03.529Z</time></trkpt><trkpt lat="40.899845" lon="15.3578767"><ele>560.0</ele><time>2026-03-28T12:09:04.53Z</time></trkpt><trkpt lat="40.8998683" lon="15.3577133"><ele>560.0</ele><time>2026-03-28T12:09:05.529Z</time></trkpt><trkpt lat="40.899895" lon="15.3575633"><ele>560.0</ele><time>2026-03-28T12:09:06.529Z</time></trkpt><trkpt lat="40.8999283" lon="15.3574433"><ele>560.0</ele><time>2026-03-28T12:09:07.53Z</time></trkpt><trkpt lat="40.8999633" lon="15.3573317"><ele>560.0</ele><time>2026-03-28T12:09:08.529Z</time></trkpt><trkpt lat="40.9" lon="15.3572583"><ele>560.0</ele><time>2026-03-28T12:09:09.53Z</time></trkpt><trkpt lat="40.9000383" lon="15.3571467"><ele>560.0</ele><time>2026-03-28T12:09:11.53Z</time></trkpt><trkpt lat="40.89999" lon="15.357255"><ele>560.0</ele><time>2026-03-28T12:09:22.529Z</time></trkpt><trkpt lat="40.89998" lon="15.35734"><ele>560.0</ele><time>2026-03-28T12:09:24.529Z</time></trkpt><trkpt lat="40.9000633" lon="15.357365"><ele>560.0</ele><time>2026-03-28T12:09:27.529Z</time></trkpt><trkpt lat="40.9001583" lon="15.3573"><ele>560.0</ele><time>2026-03-28T12:09:29.529Z</time></trkpt><trkpt lat="40.900215" lon="15.3572517"><ele>560.0</ele><time>2026-03-28T12:09:30.53Z</time></trkpt><trkpt lat="40.9002833" lon="15.3572017"><ele>558.6666666666666</ele><time>2026-03-28T12:09:31.529Z</time></trkpt><trkpt lat="40.90035" lon="15.3571467"><ele>557.3333333333333</ele><time>2026-03-28T12:09:32.529Z</time></trkpt><trkpt lat="40.9004217" lon="15.35708"><ele>556.0</ele><time>2026-03-28T12:09:33.53Z</time></trkpt><trkpt lat="40.9004917" lon="15.35701"><ele>554.6666666666666</ele><time>2026-03-28T12:09:34.53Z</time></trkpt><trkpt lat="40.9005617" lon="15.356945"><ele>553.3333333333334</ele><time>2026-03-28T12:09:35.53Z</time></trkpt><trkpt lat="40.9006317" lon="15.3568883"><ele>552.0</ele><time>2026-03-28T12:09:36.53Z</time></trkpt><trkpt lat="40.900705" lon="15.3568367"><ele>552.0</ele><time>2026-03-28T12:09:37.529Z</time></trkpt><trkpt lat="40.9007783" lon="15.3567983"><ele>552.0</ele><time>2026-03-28T12:09:38.53Z</time></trkpt><trkpt lat="40.90085" lon="15.3567717"><ele>552.0</ele><time>2026-03-28T12:09:39.53Z</time></trkpt><trkpt lat="40.9009367" lon="15.3567717"><ele>552.0</ele><time>2026-03-28T12:09:40.529Z</time></trkpt><trkpt lat="40.9010317" lon="15.3567833"><ele>552.0</ele><time>2026-03-28T12:09:41.529Z</time></trkpt><trkpt lat="40.901125" lon="15.356815"><ele>552.0</ele><time>2026-03-28T12:09:42.53Z</time></trkpt><trkpt lat="40.9012183" lon="15.3568467"><ele>551.5</ele><time>2026-03-28T12:09:43.53Z</time></trkpt><trkpt lat="40.90131" lon="15.3568817"><ele>551.0</ele><time>2026-03-28T12:09:44.529Z</time></trkpt><trkpt lat="40.9013883" lon="15.3569333"><ele>550.5</ele><time>2026-03-28T12:09:45.53Z</time></trkpt><trkpt lat="40.901465" lon="15.3569883"><ele>550.0</ele><time>2026-03-28T12:09:46.53Z</time></trkpt><trkpt lat="40.901535" lon="15.3570333"><ele>549.5</ele><time>2026-03-28T12:09:47.53Z</time></trkpt><trkpt lat="40.90161" lon="15.357075"><ele>549.0</ele><time>2026-03-28T12:09:48.53Z</time></trkpt><trkpt lat="40.9016817" lon="15.3571017"><ele>547.6666666666666</ele><time>2026-03-28T12:09:49.53Z</time></trkpt><trkpt lat="40.9017667" lon="15.3570983"><ele>546.3333333333334</ele><time>2026-03-28T12:09:50.53Z</time></trkpt><trkpt lat="40.9018467" lon="15.3570817"><ele>545.0</ele><time>2026-03-28T12:09:51.529Z</time></trkpt><trkpt lat="40.9019133" lon="15.35707"><ele>543.6666666666667</ele><time>2026-03-28T12:09:52.53Z</time></trkpt><trkpt lat="40.9020367" lon="15.3570833"><ele>542.3333333333334</ele><time>2026-03-28T12:09:54.53Z</time></trkpt><trkpt lat="40.9021033" lon="15.3571"><ele>541.0</ele><time>2026-03-28T12:09:55.53Z</time></trkpt><trkpt lat="40.902165" lon="15.357125"><ele>541.0</ele><time>2026-03-28T12:09:56.529Z</time></trkpt><trkpt lat="40.90223" lon="15.3571517"><ele>541.0</ele><time>2026-03-28T12:09:57.529Z</time></trkpt><trkpt lat="40.90234" lon="15.3572217"><ele>541.0</ele><time>2026-03-28T12:09:59.529Z</time></trkpt><trkpt lat="40.9024383" lon="15.3573083"><ele>541.0</ele><time>2026-03-28T12:10:01.53Z</time></trkpt><trkpt lat="40.9025283" lon="15.3573917"><ele>541.0</ele><time>2026-03-28T12:10:03.53Z</time></trkpt><trkpt lat="40.9026117" lon="15.3574933"><ele>538.8</ele><time>2026-03-28T12:10:05.53Z</time></trkpt><trkpt lat="40.90268" lon="15.357645"><ele>536.6</ele><time>2026-03-28T12:10:07.53Z</time></trkpt><trkpt lat="40.9027233" lon="15.3577283"><ele>534.4</ele><time>2026-03-28T12:10:08.53Z</time></trkpt><trkpt lat="40.90278" lon="15.3578167"><ele>532.2</ele><time>2026-03-28T12:10:09.53Z</time></trkpt><trkpt lat="40.90284" lon="15.3578917"><ele>530.0</ele><time>2026-03-28T12:10:10.529Z</time></trkpt><trkpt lat="40.9029067" lon="15.3579667"><ele>528.1666666666666</ele><time>2026-03-28T12:10:11.529Z</time></trkpt><trkpt lat="40.9029717" lon="15.3580383"><ele>526.3333333333333</ele><time>2026-03-28T12:10:12.53Z</time></trkpt><trkpt lat="40.903035" lon="15.35811"><ele>524.5</ele><time>2026-03-28T12:10:13.53Z</time></trkpt><trkpt lat="40.9031017" lon="15.358175"><ele>522.6666666666666</ele><time>2026-03-28T12:10:14.529Z</time></trkpt><trkpt lat="40.903175" lon="15.3582383"><ele>520.8333333333334</ele><time>2026-03-28T12:10:15.53Z</time></trkpt><trkpt lat="40.9032433" lon="15.358285"><ele>519.0</ele><time>2026-03-28T12:10:16.53Z</time></trkpt><trkpt lat="40.9033067" lon="15.3583317"><ele>519.0</ele><time>2026-03-28T12:10:17.53Z</time></trkpt><trkpt lat="40.9033717" lon="15.3583883"><ele>519.0</ele><time>2026-03-28T12:10:18.53Z</time></trkpt><trkpt lat="40.9034433" lon="15.358455"><ele>519.0</ele><time>2026-03-28T12:10:19.53Z</time></trkpt><trkpt lat="40.903525" lon="15.3585233"><ele>519.0</ele><time>2026-03-28T12:10:20.53Z</time></trkpt><trkpt lat="40.9036" lon="15.3585933"><ele>519.0</ele><time>2026-03-28T12:10:21.53Z</time></trkpt><trkpt lat="40.9036817" lon="15.3586617"><ele>520.2</ele><time>2026-03-28T12:10:22.53Z</time></trkpt><trkpt lat="40.9037683" lon="15.3587217"><ele>521.4</ele><time>2026-03-28T12:10:23.53Z</time></trkpt><trkpt lat="40.9038483" lon="15.3587917"><ele>522.6</ele><time>2026-03-28T12:10:24.529Z</time></trkpt><trkpt lat="40.9039333" lon="15.3588517"><ele>523.8</ele><time>2026-03-28T12:10:25.529Z</time></trkpt><trkpt lat="40.904005" lon="15.3589067"><ele>525.0</ele><time>2026-03-28T12:10:26.53Z</time></trkpt><trkpt lat="40.9040717" lon="15.3589633"><ele>522.0</ele><time>2026-03-28T12:10:27.529Z</time></trkpt><trkpt lat="40.9041367" lon="15.3590183"><ele>519.0</ele><time>2026-03-28T12:10:28.53Z</time></trkpt><trkpt lat="40.9041967" lon="15.3590733"><ele>516.0</ele><time>2026-03-28T12:10:29.53Z</time></trkpt><trkpt lat="40.9042567" lon="15.3591283"><ele>513.0</ele><time>2026-03-28T12:10:30.53Z</time></trkpt><trkpt lat="40.90432" lon="15.35918"><ele>510.0</ele><time>2026-03-28T12:10:31.53Z</time></trkpt><trkpt lat="40.9043817" lon="15.3592267"><ele>507.0</ele><time>2026-03-28T12:10:32.529Z</time></trkpt><trkpt lat="40.9044333" lon="15.359275"><ele>504.0</ele><time>2026-03-28T12:10:33.53Z</time></trkpt><trkpt lat="40.904485" lon="15.3593433"><ele>504.0</ele><time>2026-03-28T12:10:34.529Z</time></trkpt><trkpt lat="40.90454" lon="15.3594333"><ele>504.0</ele><time>2026-03-28T12:10:35.53Z</time></trkpt><trkpt lat="40.9045917" lon="15.359525"><ele>504.0</ele><time>2026-03-28T12:10:36.53Z</time></trkpt><trkpt lat="40.90466" lon="15.35961"><ele>504.0</ele><time>2026-03-28T12:10:37.53Z</time></trkpt><trkpt lat="40.9047233" lon="15.3596883"><ele>504.0</ele><time>2026-03-28T12:10:38.529Z</time></trkpt><trkpt lat="40.904785" lon="15.3597567"><ele>504.0</ele><time>2026-03-28T12:10:39.529Z</time></trkpt><trkpt lat="40.9048433" lon="15.35982"><ele>502.0</ele><time>2026-03-28T12:10:40.53Z</time></trkpt><trkpt lat="40.9049033" lon="15.3598833"><ele>500.0</ele><time>2026-03-28T12:10:41.529Z</time></trkpt><trkpt lat="40.90496" lon="15.3599467"><ele>498.0</ele><time>2026-03-28T12:10:42.529Z</time></trkpt><trkpt lat="40.905015" lon="15.36"><ele>496.0</ele><time>2026-03-28T12:10:43.529Z</time></trkpt><trkpt lat="40.90508" lon="15.36005"><ele>494.0</ele><time>2026-03-28T12:10:44.529Z</time></trkpt><trkpt lat="40.9051467" lon="15.3600983"><ele>492.0</ele><time>2026-03-28T12:10:45.53Z</time></trkpt><trkpt lat="40.9052167" lon="15.36015"><ele>492.0</ele><time>2026-03-28T12:10:46.529Z</time></trkpt><trkpt lat="40.90529" lon="15.3601883"><ele>492.0</ele><time>2026-03-28T12:10:47.529Z</time></trkpt><trkpt lat="40.9053667" lon="15.3602233"><ele>492.0</ele><time>2026-03-28T12:10:48.529Z</time></trkpt><trkpt lat="40.9054383" lon="15.3602583"><ele>492.0</ele><time>2026-03-28T12:10:49.53Z</time></trkpt><trkpt lat="40.9055083" lon="15.3602833"><ele>492.0</ele><time>2026-03-28T12:10:50.53Z</time></trkpt><trkpt lat="40.905615" lon="15.3603367"><ele>492.0</ele><time>2026-03-28T12:10:52.529Z</time></trkpt><trkpt lat="40.90569" lon="15.3603933"><ele>492.0</ele><time>2026-03-28T12:10:54.53Z</time></trkpt><trkpt lat="40.905745" lon="15.360475"><ele>492.0</ele><time>2026-03-28T12:10:56.53Z</time></trkpt><trkpt lat="40.9058167" lon="15.3605817"><ele>492.0</ele><time>2026-03-28T12:10:58.53Z</time></trkpt><trkpt lat="40.9058517" lon="15.3606533"><ele>492.0</ele><time>2026-03-28T12:10:59.53Z</time></trkpt><trkpt lat="40.9058883" lon="15.360735"><ele>492.0</ele><time>2026-03-28T12:11:00.53Z</time></trkpt><trkpt lat="40.9059217" lon="15.3608183"><ele>492.0</ele><time>2026-03-28T12:11:01.529Z</time></trkpt><trkpt lat="40.90595" lon="15.3608967"><ele>489.8</ele><time>2026-03-28T12:11:02.53Z</time></trkpt><trkpt lat="40.905995" lon="15.3610233"><ele>487.6</ele><time>2026-03-28T12:11:04.53Z</time></trkpt><trkpt lat="40.9060533" lon="15.36116"><ele>485.40000000000003</ele><time>2026-03-28T12:11:06.53Z</time></trkpt><trkpt lat="40.906105" lon="15.36123"><ele>483.20000000000005</ele><time>2026-03-28T12:11:07.53Z</time></trkpt><trkpt lat="40.9061733" lon="15.3612967"><ele>481.0</ele><time>2026-03-28T12:11:08.529Z</time></trkpt><trkpt lat="40.90625" lon="15.3613583"><ele>479.00000000000006</ele><time>2026-03-28T12:11:09.53Z</time></trkpt><trkpt lat="40.90633" lon="15.3614117"><ele>477.0</ele><time>2026-03-28T12:11:10.53Z</time></trkpt><trkpt lat="40.906405" lon="15.3614667"><ele>475.0</ele><time>2026-03-28T12:11:11.529Z</time></trkpt><trkpt lat="40.9064733" lon="15.3615217"><ele>473.0</ele><time>2026-03-28T12:11:12.529Z</time></trkpt><trkpt lat="40.9065483" lon="15.3615767"><ele>471.00000000000006</ele><time>2026-03-28T12:11:13.529Z</time></trkpt><trkpt lat="40.9066283" lon="15.36164"><ele>469.0</ele><time>2026-03-28T12:11:14.529Z</time></trkpt><trkpt lat="40.906705" lon="15.361705"><ele>469.33333333333337</ele><time>2026-03-28T12:11:15.529Z</time></trkpt><trkpt lat="40.9067817" lon="15.36176"><ele>469.6666666666667</ele><time>2026-03-28T12:11:16.529Z</time></trkpt><trkpt lat="40.9068533" lon="15.3618133"><ele>470.0</ele><time>2026-03-28T12:11:17.53Z</time></trkpt><trkpt lat="40.9069217" lon="15.3618617"><ele>470.33333333333337</ele><time>2026-03-28T12:11:18.53Z</time></trkpt><trkpt lat="40.9069867" lon="15.3619133"><ele>470.6666666666667</ele><time>2026-03-28T12:11:19.53Z</time></trkpt><trkpt lat="40.9070433" lon="15.36196"><ele>471.0</ele><time>2026-03-28T12:11:20.53Z</time></trkpt><trkpt lat="40.9071367" lon="15.3620217"><ele>471.0</ele><time>2026-03-28T12:11:22.53Z</time></trkpt><trkpt lat="40.9072217" lon="15.362105"><ele>471.0</ele><time>2026-03-28T12:11:24.529Z</time></trkpt><trkpt lat="40.9073283" lon="15.3622017"><ele>471.0</ele><time>2026-03-28T12:11:26.531Z</time></trkpt><trkpt lat="40.907375" lon="15.36227"><ele>471.0</ele><time>2026-03-28T12:11:27.531Z</time></trkpt><trkpt lat="40.907415" lon="15.3623383"><ele>471.0</ele><time>2026-03-28T12:11:28.53Z</time></trkpt><trkpt lat="40.907455" lon="15.36241"><ele>471.0</ele><time>2026-03-28T12:11:29.53Z</time></trkpt><trkpt lat="40.90749" lon="15.362485"><ele>470.1428571428572</ele><time>2026-03-28T12:11:30.53Z</time></trkpt><trkpt lat="40.9075233" lon="15.3625633"><ele>469.28571428571433</ele><time>2026-03-28T12:11:31.531Z</time></trkpt><trkpt lat="40.9075617" lon="15.3626367"><ele>468.42857142857144</ele><time>2026-03-28T12:11:32.53Z</time></trkpt><trkpt lat="40.9076017" lon="15.3627133"><ele>467.5714285714286</ele><time>2026-03-28T12:11:33.53Z</time></trkpt><trkpt lat="40.9076433" lon="15.3627833"><ele>466.7142857142858</ele><time>2026-03-28T12:11:34.531Z</time></trkpt><trkpt lat="40.9076833" lon="15.3628533"><ele>465.85714285714283</ele><time>2026-03-28T12:11:35.53Z</time></trkpt><trkpt lat="40.90773" lon="15.3629317"><ele>465.0</ele><time>2026-03-28T12:11:36.531Z</time></trkpt><trkpt lat="40.9077817" lon="15.3630033"><ele>463.0</ele><time>2026-03-28T12:11:37.531Z</time></trkpt><trkpt lat="40.90784" lon="15.3630667"><ele>461.0</ele><time>2026-03-28T12:11:38.53Z</time></trkpt><trkpt lat="40.9079017" lon="15.36313"><ele>459.0</ele><time>2026-03-28T12:11:39.53Z</time></trkpt><trkpt lat="40.90796" lon="15.3632033"><ele>457.0</ele><time>2026-03-28T12:11:40.531Z</time></trkpt><trkpt lat="40.9080267" lon="15.3632817"><ele>455.0</ele><time>2026-03-28T12:11:41.531Z</time></trkpt><trkpt lat="40.908095" lon="15.3633667"><ele>453.0</ele><time>2026-03-28T12:11:42.531Z</time></trkpt><trkpt lat="40.9081583" lon="15.3634533"><ele>453.0</ele><time>2026-03-28T12:11:43.53Z</time></trkpt><trkpt lat="40.90822" lon="15.3635433"><ele>452.99999999999994</ele><time>2026-03-28T12:11:44.531Z</time></trkpt><trkpt lat="40.9082817" lon="15.36364"><ele>452.99999999999994</ele><time>2026-03-28T12:11:45.53Z</time></trkpt><trkpt lat="40.90834" lon="15.3637383"><ele>453.0</ele><time>2026-03-28T12:11:46.531Z</time></trkpt><trkpt lat="40.9084017" lon="15.363835"><ele>453.0</ele><time>2026-03-28T12:11:47.53Z</time></trkpt><trkpt lat="40.9084683" lon="15.36393"><ele>451.2</ele><time>2026-03-28T12:11:48.53Z</time></trkpt><trkpt lat="40.9085317" lon="15.3640217"><ele>449.4</ele><time>2026-03-28T12:11:49.531Z</time></trkpt><trkpt lat="40.9086" lon="15.3641117"><ele>447.59999999999997</ele><time>2026-03-28T12:11:50.531Z</time></trkpt><trkpt lat="40.9086683" lon="15.3641967"><ele>445.79999999999995</ele><time>2026-03-28T12:11:51.531Z</time></trkpt><trkpt lat="40.90873" lon="15.3642833"><ele>444.0</ele><time>2026-03-28T12:11:52.53Z</time></trkpt><trkpt lat="40.90879" lon="15.3643667"><ele>444.0</ele><time>2026-03-28T12:11:53.531Z</time></trkpt><trkpt lat="40.9088483" lon="15.3644467"><ele>444.0</ele><time>2026-03-28T12:11:54.531Z</time></trkpt><trkpt lat="40.9089" lon="15.3645267"><ele>444.0</ele><time>2026-03-28T12:11:55.531Z</time></trkpt><trkpt lat="40.90895" lon="15.3646033"><ele>444.0</ele><time>2026-03-28T12:11:56.531Z</time></trkpt><trkpt lat="40.909" lon="15.364685"><ele>444.0</ele><time>2026-03-28T12:11:57.53Z</time></trkpt><trkpt lat="40.9090517" lon="15.36477"><ele>444.0</ele><time>2026-03-28T12:11:58.531Z</time></trkpt><trkpt lat="40.9090883" lon="15.3648517"><ele>443.5</ele><time>2026-03-28T12:11:59.531Z</time></trkpt><trkpt lat="40.90912" lon="15.36493"><ele>443.0</ele><time>2026-03-28T12:12:00.53Z</time></trkpt><trkpt lat="40.9091483" lon="15.365005"><ele>442.5</ele><time>2026-03-28T12:12:01.53Z</time></trkpt><trkpt lat="40.9092033" lon="15.36512"><ele>442.0</ele><time>2026-03-28T12:12:03.53Z</time></trkpt><trkpt lat="40.9092433" lon="15.3652033"><ele>441.5</ele><time>2026-03-28T12:12:05.53Z</time></trkpt><trkpt lat="40.90929" lon="15.3652967"><ele>441.0</ele><time>2026-03-28T12:12:07.531Z</time></trkpt><trkpt lat="40.90934" lon="15.365395"><ele>440.6666666666667</ele><time>2026-03-28T12:12:09.531Z</time></trkpt><trkpt lat="40.90938" lon="15.3655067"><ele>440.33333333333337</ele><time>2026-03-28T12:12:11.53Z</time></trkpt><trkpt lat="40.909415" lon="15.3656133"><ele>440.0</ele><time>2026-03-28T12:12:13.53Z</time></trkpt><trkpt lat="40.9094533" lon="15.365715"><ele>439.6666666666667</ele><time>2026-03-28T12:12:15.531Z</time></trkpt><trkpt lat="40.9094767" lon="15.3658117"><ele>439.33333333333337</ele><time>2026-03-28T12:12:17.53Z</time></trkpt><trkpt lat="40.909505" lon="15.3658917"><ele>439.0</ele><time>2026-03-28T12:12:20.53Z</time></trkpt><trkpt lat="40.9095017" lon="15.3658067"><ele>439.0</ele><time>2026-03-28T12:18:36.532Z</time></trkpt><trkpt lat="40.9094683" lon="15.365735"><ele>439.0</ele><time>2026-03-28T12:18:38.532Z</time></trkpt><trkpt lat="40.9094233" lon="15.365625"><ele>439.0</ele><time>2026-03-28T12:18:40.531Z</time></trkpt><trkpt lat="40.9093717" lon="15.3654833"><ele>439.0</ele><time>2026-03-28T12:18:42.532Z</time></trkpt><trkpt lat="40.90931" lon="15.3653517"><ele>439.0</ele><time>2026-03-28T12:18:44.532Z</time></trkpt><trkpt lat="40.90925" lon="15.365225"><ele>439.4</ele><time>2026-03-28T12:18:46.531Z</time></trkpt><trkpt lat="40.9091867" lon="15.3650883"><ele>439.79999999999995</ele><time>2026-03-28T12:18:48.532Z</time></trkpt><trkpt lat="40.9091333" lon="15.3649333"><ele>440.20000000000005</ele><time>2026-03-28T12:18:50.531Z</time></trkpt><trkpt lat="40.9090967" lon="15.364835"><ele>440.6</ele><time>2026-03-28T12:18:51.532Z</time></trkpt><trkpt lat="40.9090517" lon="15.3647417"><ele>441.0</ele><time>2026-03-28T12:18:52.531Z</time></trkpt><trkpt lat="40.909" lon="15.3646533"><ele>441.6</ele><time>2026-03-28T12:18:53.532Z</time></trkpt><trkpt lat="40.908935" lon="15.3645633"><ele>442.20000000000005</ele><time>2026-03-28T12:18:54.532Z</time></trkpt><trkpt lat="40.9088633" lon="15.36447"><ele>442.79999999999995</ele><time>2026-03-28T12:18:55.532Z</time></trkpt><trkpt lat="40.9087933" lon="15.36437"><ele>443.4</ele><time>2026-03-28T12:18:56.532Z</time></trkpt><trkpt lat="40.9087233" lon="15.3642683"><ele>444.0</ele><time>2026-03-28T12:18:57.532Z</time></trkpt><trkpt lat="40.9086483" lon="15.36417"><ele>444.0</ele><time>2026-03-28T12:18:58.531Z</time></trkpt><trkpt lat="40.9085833" lon="15.364065"><ele>444.0</ele><time>2026-03-28T12:18:59.532Z</time></trkpt><trkpt lat="40.9085133" lon="15.3639617"><ele>444.0</ele><time>2026-03-28T12:19:00.531Z</time></trkpt><trkpt lat="40.908435" lon="15.363865"><ele>444.0</ele><time>2026-03-28T12:19:01.531Z</time></trkpt><trkpt lat="40.9083633" lon="15.36376"><ele>444.0</ele><time>2026-03-28T12:19:02.532Z</time></trkpt><trkpt lat="40.9082983" lon="15.363665"><ele>445.79999999999995</ele><time>2026-03-28T12:19:03.532Z</time></trkpt><trkpt lat="40.9082333" lon="15.3635683"><ele>447.59999999999997</ele><time>2026-03-28T12:19:04.531Z</time></trkpt><trkpt lat="40.908165" lon="15.3634633"><ele>449.4</ele><time>2026-03-28T12:19:05.531Z</time></trkpt><trkpt lat="40.9080933" lon="15.3633633"><ele>451.2</ele><time>2026-03-28T12:19:06.532Z</time></trkpt><trkpt lat="40.9080167" lon="15.3632683"><ele>453.0</ele><time>2026-03-28T12:19:07.531Z</time></trkpt><trkpt lat="40.9079433" lon="15.363185"><ele>453.0</ele><time>2026-03-28T12:19:08.532Z</time></trkpt><trkpt lat="40.9078717" lon="15.3631"><ele>453.0</ele><time>2026-03-28T12:19:09.532Z</time></trkpt><trkpt lat="40.907805" lon="15.3630267"><ele>453.0</ele><time>2026-03-28T12:19:10.532Z</time></trkpt><trkpt lat="40.907745" lon="15.3629533"><ele>453.0</ele><time>2026-03-28T12:19:11.532Z</time></trkpt><trkpt lat="40.9076917" lon="15.3628783"><ele>453.0</ele><time>2026-03-28T12:19:12.531Z</time></trkpt><trkpt lat="40.9076467" lon="15.3627867"><ele>453.0</ele><time>2026-03-28T12:19:13.531Z</time></trkpt><trkpt lat="40.9076017" lon="15.3626917"><ele>454.1666666666667</ele><time>2026-03-28T12:19:14.532Z</time></trkpt><trkpt lat="40.9075617" lon="15.3626"><ele>455.33333333333337</ele><time>2026-03-28T12:19:15.532Z</time></trkpt><trkpt lat="40.907515" lon="15.3625183"><ele>456.5</ele><time>2026-03-28T12:19:16.532Z</time></trkpt><trkpt lat="40.9074683" lon="15.3624333"><ele>457.6666666666667</ele><time>2026-03-28T12:19:17.532Z</time></trkpt><trkpt lat="40.9074283" lon="15.3623467"><ele>458.83333333333337</ele><time>2026-03-28T12:19:18.532Z</time></trkpt><trkpt lat="40.907385" lon="15.3622667"><ele>460.0</ele><time>2026-03-28T12:19:19.531Z</time></trkpt><trkpt lat="40.9073333" lon="15.36219"><ele>461.83333333333337</ele><time>2026-03-28T12:19:20.532Z</time></trkpt><trkpt lat="40.90727" lon="15.3621167"><ele>463.6666666666667</ele><time>2026-03-28T12:19:21.532Z</time></trkpt><trkpt lat="40.9072017" lon="15.362055"><ele>465.5</ele><time>2026-03-28T12:19:22.531Z</time></trkpt><trkpt lat="40.9071317" lon="15.3620033"><ele>467.33333333333337</ele><time>2026-03-28T12:19:23.532Z</time></trkpt><trkpt lat="40.9070617" lon="15.36196"><ele>469.1666666666667</ele><time>2026-03-28T12:19:24.531Z</time></trkpt><trkpt lat="40.9069883" lon="15.3619133"><ele>471.0</ele><time>2026-03-28T12:19:25.531Z</time></trkpt><trkpt lat="40.9069083" lon="15.3618633"><ele>471.0</ele><time>2026-03-28T12:19:26.531Z</time></trkpt><trkpt lat="40.9068217" lon="15.3618117"><ele>471.0</ele><time>2026-03-28T12:19:27.532Z</time></trkpt><trkpt lat="40.9067367" lon="15.3617483"><ele>471.0</ele><time>2026-03-28T12:19:28.531Z</time></trkpt><trkpt lat="40.9066583" lon="15.3616833"><ele>471.0</ele><time>2026-03-28T12:19:29.532Z</time></trkpt><trkpt lat="40.9065833" lon="15.3616267"><ele>471.0</ele><time>2026-03-28T12:19:30.532Z</time></trkpt><trkpt lat="40.906505" lon="15.36156"><ele>470.6</ele><time>2026-03-28T12:19:31.531Z</time></trkpt><trkpt lat="40.90642" lon="15.3615033"><ele>470.20000000000005</ele><time>2026-03-28T12:19:32.531Z</time></trkpt><trkpt lat="40.906345" lon="15.36144"><ele>469.79999999999995</ele><time>2026-03-28T12:19:33.531Z</time></trkpt><trkpt lat="40.9062733" lon="15.3613767"><ele>469.4</ele><time>2026-03-28T12:19:34.532Z</time></trkpt><trkpt lat="40.9062083" lon="15.3613267"><ele>469.0</ele><time>2026-03-28T12:19:35.532Z</time></trkpt><trkpt lat="40.90611" lon="15.3612333"><ele>471.00000000000006</ele><time>2026-03-28T12:19:37.531Z</time></trkpt><trkpt lat="40.9060683" lon="15.36117"><ele>473.0</ele><time>2026-03-28T12:19:38.531Z</time></trkpt><trkpt lat="40.9060317" lon="15.3610867"><ele>475.0</ele><time>2026-03-28T12:19:39.532Z</time></trkpt><trkpt lat="40.905995" lon="15.3610033"><ele>477.0</ele><time>2026-03-28T12:19:40.532Z</time></trkpt><trkpt lat="40.90596" lon="15.3609"><ele>479.00000000000006</ele><time>2026-03-28T12:19:41.532Z</time></trkpt><trkpt lat="40.905925" lon="15.3607867"><ele>481.0</ele><time>2026-03-28T12:19:42.532Z</time></trkpt><trkpt lat="40.905875" lon="15.3606917"><ele>481.20000000000005</ele><time>2026-03-28T12:19:43.531Z</time></trkpt><trkpt lat="40.9058333" lon="15.3606033"><ele>481.40000000000003</ele><time>2026-03-28T12:19:44.531Z</time></trkpt><trkpt lat="40.90576" lon="15.36048"><ele>481.6</ele><time>2026-03-28T12:19:46.532Z</time></trkpt><trkpt lat="40.90568" lon="15.36037"><ele>481.8</ele><time>2026-03-28T12:19:48.532Z</time></trkpt><trkpt lat="40.90562" lon="15.36033"><ele>482.0</ele><time>2026-03-28T12:19:49.532Z</time></trkpt><trkpt lat="40.905545" lon="15.36029"><ele>483.66666666666663</ele><time>2026-03-28T12:19:50.531Z</time></trkpt><trkpt lat="40.9054617" lon="15.36026"><ele>485.3333333333333</ele><time>2026-03-28T12:19:51.531Z</time></trkpt><trkpt lat="40.905375" lon="15.3602183"><ele>487.0</ele><time>2026-03-28T12:19:52.532Z</time></trkpt><trkpt lat="40.90529" lon="15.3601783"><ele>488.66666666666663</ele><time>2026-03-28T12:19:53.532Z</time></trkpt><trkpt lat="40.9052133" lon="15.360145"><ele>490.3333333333333</ele><time>2026-03-28T12:19:54.532Z</time></trkpt><trkpt lat="40.9051467" lon="15.360105"><ele>492.0</ele><time>2026-03-28T12:19:55.532Z</time></trkpt><trkpt lat="40.905075" lon="15.360055"><ele>492.0</ele><time>2026-03-28T12:19:56.531Z</time></trkpt><trkpt lat="40.90501" lon="15.3599933"><ele>492.0</ele><time>2026-03-28T12:19:57.532Z</time></trkpt><trkpt lat="40.9049517" lon="15.3599267"><ele>492.0</ele><time>2026-03-28T12:19:58.532Z</time></trkpt><trkpt lat="40.9048833" lon="15.3598483"><ele>492.0</ele><time>2026-03-28T12:19:59.532Z</time></trkpt><trkpt lat="40.9048117" lon="15.359775"><ele>492.0</ele><time>2026-03-28T12:20:00.532Z</time></trkpt><trkpt lat="40.9047433" lon="15.35971"><ele>492.0</ele><time>2026-03-28T12:20:01.531Z</time></trkpt><trkpt lat="40.9046783" lon="15.359635"><ele>494.0</ele><time>2026-03-28T12:20:02.531Z</time></trkpt><trkpt lat="40.904625" lon="15.3595483"><ele>496.0</ele><time>2026-03-28T12:20:03.531Z</time></trkpt><trkpt lat="40.9045767" lon="15.359465"><ele>498.0</ele><time>2026-03-28T12:20:04.532Z</time></trkpt><trkpt lat="40.9045233" lon="15.3593733"><ele>500.0</ele><time>2026-03-28T12:20:05.532Z</time></trkpt><trkpt lat="40.904465" lon="15.3592967"><ele>502.0</ele><time>2026-03-28T12:20:06.531Z</time></trkpt><trkpt lat="40.9044017" lon="15.35922"><ele>504.0</ele><time>2026-03-28T12:20:07.531Z</time></trkpt><trkpt lat="40.90433" lon="15.3591517"><ele>504.0</ele><time>2026-03-28T12:20:08.531Z</time></trkpt><trkpt lat="40.9042467" lon="15.35908"><ele>504.0</ele><time>2026-03-28T12:20:09.532Z</time></trkpt><trkpt lat="40.9041517" lon="15.358995"><ele>504.0</ele><time>2026-03-28T12:20:10.532Z</time></trkpt><trkpt lat="40.9040583" lon="15.358915"><ele>504.0</ele><time>2026-03-28T12:20:11.532Z</time></trkpt><trkpt lat="40.9039567" lon="15.3588433"><ele>504.0</ele><time>2026-03-28T12:20:12.532Z</time></trkpt><trkpt lat="40.9038533" lon="15.3587683"><ele>508.2</ele><time>2026-03-28T12:20:13.532Z</time></trkpt><trkpt lat="40.9037533" lon="15.3586933"><ele>512.4</ele><time>2026-03-28T12:20:14.531Z</time></trkpt><trkpt lat="40.9036583" lon="15.3586267"><ele>516.6</ele><time>2026-03-28T12:20:15.531Z</time></trkpt><trkpt lat="40.90357" lon="15.3585467"><ele>520.8</ele><time>2026-03-28T12:20:16.531Z</time></trkpt><trkpt lat="40.9035" lon="15.3584767"><ele>525.0</ele><time>2026-03-28T12:20:17.532Z</time></trkpt><trkpt lat="40.9034367" lon="15.3584117"><ele>525.8333333333334</ele><time>2026-03-28T12:20:18.531Z</time></trkpt><trkpt lat="40.9033617" lon="15.3583483"><ele>526.6666666666666</ele><time>2026-03-28T12:20:19.531Z</time></trkpt><trkpt lat="40.9032867" lon="15.3582933"><ele>527.5</ele><time>2026-03-28T12:20:20.531Z</time></trkpt><trkpt lat="40.9032083" lon="15.3582417"><ele>528.3333333333333</ele><time>2026-03-28T12:20:21.532Z</time></trkpt><trkpt lat="40.9031333" lon="15.358185"><ele>529.1666666666666</ele><time>2026-03-28T12:20:22.531Z</time></trkpt><trkpt lat="40.9030583" lon="15.358115"><ele>530.0</ele><time>2026-03-28T12:20:23.532Z</time></trkpt><trkpt lat="40.9029783" lon="15.3580267"><ele>530.0</ele><time>2026-03-28T12:20:24.531Z</time></trkpt><trkpt lat="40.902895" lon="15.3579333"><ele>530.0</ele><time>2026-03-28T12:20:25.531Z</time></trkpt><trkpt lat="40.9028217" lon="15.357835"><ele>530.0</ele><time>2026-03-28T12:20:26.531Z</time></trkpt><trkpt lat="40.9027467" lon="15.357735"><ele>530.0</ele><time>2026-03-28T12:20:27.531Z</time></trkpt><trkpt lat="40.9026983" lon="15.3576467"><ele>530.0</ele><time>2026-03-28T12:20:28.532Z</time></trkpt><trkpt lat="40.9026433" lon="15.35756"><ele>529.9999999999999</ele><time>2026-03-28T12:20:29.531Z</time></trkpt><trkpt lat="40.9025917" lon="15.35747"><ele>530.0</ele><time>2026-03-28T12:20:30.532Z</time></trkpt><trkpt lat="40.9025283" lon="15.3573917"><ele>530.0</ele><time>2026-03-28T12:20:31.532Z</time></trkpt><trkpt lat="40.90247" lon="15.3573317"><ele>530.0</ele><time>2026-03-28T12:20:32.532Z</time></trkpt><trkpt lat="40.9024167" lon="15.3572783"><ele>530.0</ele><time>2026-03-28T12:20:33.531Z</time></trkpt><trkpt lat="40.9023617" lon="15.3572317"><ele>529.9999999999999</ele><time>2026-03-28T12:20:34.531Z</time></trkpt><trkpt lat="40.902305" lon="15.3571867"><ele>530.0</ele><time>2026-03-28T12:20:35.531Z</time></trkpt><trkpt lat="40.9022433" lon="15.3571567"><ele>531.5714285714286</ele><time>2026-03-28T12:20:36.531Z</time></trkpt><trkpt lat="40.90217" lon="15.357135"><ele>533.1428571428571</ele><time>2026-03-28T12:20:37.531Z</time></trkpt><trkpt lat="40.902095" lon="15.3571167"><ele>534.7142857142858</ele><time>2026-03-28T12:20:38.532Z</time></trkpt><trkpt lat="40.90202" lon="15.357095"><ele>536.2857142857142</ele><time>2026-03-28T12:20:39.531Z</time></trkpt><trkpt lat="40.9019483" lon="15.35708"><ele>537.8571428571429</ele><time>2026-03-28T12:20:40.531Z</time></trkpt><trkpt lat="40.90188" lon="15.357075"><ele>539.4285714285714</ele><time>2026-03-28T12:20:41.531Z</time></trkpt><trkpt lat="40.9018033" lon="15.3570867"><ele>541.0</ele><time>2026-03-28T12:20:42.532Z</time></trkpt><trkpt lat="40.901725" lon="15.3570867"><ele>542.3333333333334</ele><time>2026-03-28T12:20:43.531Z</time></trkpt><trkpt lat="40.9016433" lon="15.3570733"><ele>543.6666666666667</ele><time>2026-03-28T12:20:44.532Z</time></trkpt><trkpt lat="40.9015717" lon="15.3570417"><ele>545.0</ele><time>2026-03-28T12:20:45.532Z</time></trkpt><trkpt lat="40.901495" lon="15.3569967"><ele>546.3333333333334</ele><time>2026-03-28T12:20:46.531Z</time></trkpt><trkpt lat="40.9014133" lon="15.3569433"><ele>547.6666666666666</ele><time>2026-03-28T12:20:47.532Z</time></trkpt><trkpt lat="40.9013317" lon="15.3568967"><ele>549.0</ele><time>2026-03-28T12:20:48.532Z</time></trkpt><trkpt lat="40.9012467" lon="15.356865"><ele>549.0</ele><time>2026-03-28T12:20:49.531Z</time></trkpt><trkpt lat="40.90115" lon="15.3568383"><ele>549.0</ele><time>2026-03-28T12:20:50.531Z</time></trkpt><trkpt lat="40.90106" lon="15.35681"><ele>549.0</ele><time>2026-03-28T12:20:51.532Z</time></trkpt><trkpt lat="40.9009733" lon="15.3567867"><ele>549.0</ele><time>2026-03-28T12:20:52.532Z</time></trkpt><trkpt lat="40.9008917" lon="15.3567783"><ele>549.0</ele><time>2026-03-28T12:20:53.532Z</time></trkpt><trkpt lat="40.9008133" lon="15.3567867"><ele>549.0</ele><time>2026-03-28T12:20:54.532Z</time></trkpt><trkpt lat="40.90074" lon="15.3568183"><ele>549.6</ele><time>2026-03-28T12:20:55.532Z</time></trkpt><trkpt lat="40.900665" lon="15.3568683"><ele>550.2</ele><time>2026-03-28T12:20:56.532Z</time></trkpt><trkpt lat="40.9005833" lon="15.356935"><ele>550.8000000000001</ele><time>2026-03-28T12:20:57.532Z</time></trkpt><trkpt lat="40.900495" lon="15.3570167"><ele>551.4</ele><time>2026-03-28T12:20:58.532Z</time></trkpt><trkpt lat="40.9004067" lon="15.3570967"><ele>552.0</ele><time>2026-03-28T12:20:59.532Z</time></trkpt><trkpt lat="40.900325" lon="15.3571767"><ele>550.4</ele><time>2026-03-28T12:21:00.532Z</time></trkpt><trkpt lat="40.90024" lon="15.357255"><ele>548.8000000000001</ele><time>2026-03-28T12:21:01.532Z</time></trkpt><trkpt lat="40.9001567" lon="15.3573133"><ele>547.2</ele><time>2026-03-28T12:21:02.532Z</time></trkpt><trkpt lat="40.9000867" lon="15.357355"><ele>545.6</ele><time>2026-03-28T12:21:03.532Z</time></trkpt><trkpt lat="40.8999967" lon="15.3573867"><ele>544.0</ele><time>2026-03-28T12:21:05.531Z</time></trkpt><trkpt lat="40.899915" lon="15.3574517"><ele>546.6</ele><time>2026-03-28T12:21:09.531Z</time></trkpt><trkpt lat="40.8998717" lon="15.357595"><ele>549.2</ele><time>2026-03-28T12:21:11.532Z</time></trkpt><trkpt lat="40.8998567" lon="15.3576883"><ele>551.8000000000001</ele><time>2026-03-28T12:21:12.532Z</time></trkpt><trkpt lat="40.8998433" lon="15.3577983"><ele>554.4</ele><time>2026-03-28T12:21:13.532Z</time></trkpt><trkpt lat="40.89982" lon="15.3579283"><ele>557.0</ele><time>2026-03-28T12:21:14.532Z</time></trkpt><trkpt lat="40.8998033" lon="15.3580617"><ele>557.0</ele><time>2026-03-28T12:21:15.532Z</time></trkpt><trkpt lat="40.8997883" lon="15.3582"><ele>557.0</ele><time>2026-03-28T12:21:16.532Z</time></trkpt><trkpt lat="40.8997817" lon="15.3583567"><ele>557.0</ele><time>2026-03-28T12:21:17.532Z</time></trkpt><trkpt lat="40.8997833" lon="15.358515"><ele>557.0</ele><time>2026-03-28T12:21:18.532Z</time></trkpt><trkpt lat="40.8997783" lon="15.3586717"><ele>557.0</ele><time>2026-03-28T12:21:19.532Z</time></trkpt><trkpt lat="40.8997733" lon="15.3588133"><ele>557.0</ele><time>2026-03-28T12:21:20.532Z</time></trkpt><trkpt lat="40.89977" lon="15.3589533"><ele>557.0</ele><time>2026-03-28T12:21:21.531Z</time></trkpt><trkpt lat="40.8997783" lon="15.35909"><ele>557.0</ele><time>2026-03-28T12:21:22.532Z</time></trkpt><trkpt lat="40.8998" lon="15.3592167"><ele>557.0</ele><time>2026-03-28T12:21:23.532Z</time></trkpt><trkpt lat="40.899835" lon="15.3593467"><ele>556.6</ele><time>2026-03-28T12:21:24.532Z</time></trkpt><trkpt lat="40.8998767" lon="15.3594717"><ele>556.2</ele><time>2026-03-28T12:21:25.532Z</time></trkpt><trkpt lat="40.8999333" lon="15.3595917"><ele>555.8</ele><time>2026-03-28T12:21:26.531Z</time></trkpt><trkpt lat="40.90001" lon="15.3596983"><ele>555.4</ele><time>2026-03-28T12:21:27.531Z</time></trkpt><trkpt lat="40.9000933" lon="15.3597967"><ele>555.0</ele><time>2026-03-28T12:21:28.531Z</time></trkpt><trkpt lat="40.9001733" lon="15.359885"><ele>555.0</ele><time>2026-03-28T12:21:29.531Z</time></trkpt><trkpt lat="40.9002417" lon="15.3599733"><ele>555.0</ele><time>2026-03-28T12:21:30.532Z</time></trkpt><trkpt lat="40.9003033" lon="15.36007"><ele>555.0</ele><time>2026-03-28T12:21:31.531Z</time></trkpt><trkpt lat="40.9003483" lon="15.36018"><ele>555.0</ele><time>2026-03-28T12:21:32.532Z</time></trkpt><trkpt lat="40.90037" lon="15.3603117"><ele>555.0</ele><time>2026-03-28T12:21:33.531Z</time></trkpt><trkpt lat="40.9003883" lon="15.3604567"><ele>555.8</ele><time>2026-03-28T12:21:34.532Z</time></trkpt><trkpt lat="40.9004033" lon="15.3606033"><ele>556.6</ele><time>2026-03-28T12:21:35.532Z</time></trkpt><trkpt lat="40.9004217" lon="15.360745"><ele>557.4</ele><time>2026-03-28T12:21:36.532Z</time></trkpt><trkpt lat="40.9004317" lon="15.3608733"><ele>558.2</ele><time>2026-03-28T12:21:37.531Z</time></trkpt><trkpt lat="40.9004167" lon="15.36101"><ele>559.0</ele><time>2026-03-28T12:21:38.531Z</time></trkpt><trkpt lat="40.9003933" lon="15.36115"><ele>559.0</ele><time>2026-03-28T12:21:39.532Z</time></trkpt><trkpt lat="40.9003567" lon="15.3612917"><ele>559.0</ele><time>2026-03-28T12:21:40.531Z</time></trkpt><trkpt lat="40.900325" lon="15.361435"><ele>559.0</ele><time>2026-03-28T12:21:41.531Z</time></trkpt><trkpt lat="40.9002967" lon="15.361595"><ele>559.0</ele><time>2026-03-28T12:21:42.532Z</time></trkpt><trkpt lat="40.90028" lon="15.361765"><ele>559.5</ele><time>2026-03-28T12:21:43.532Z</time></trkpt><trkpt lat="40.90028" lon="15.3619367"><ele>560.0</ele><time>2026-03-28T12:21:44.531Z</time></trkpt><trkpt lat="40.9002783" lon="15.3621183"><ele>560.5</ele><time>2026-03-28T12:21:45.532Z</time></trkpt><trkpt lat="40.90028" lon="15.3623117"><ele>561.0</ele><time>2026-03-28T12:21:46.531Z</time></trkpt><trkpt lat="40.9002817" lon="15.3625"><ele>562.75</ele><time>2026-03-28T12:21:47.532Z</time></trkpt><trkpt lat="40.9002767" lon="15.362685"><ele>564.5</ele><time>2026-03-28T12:21:48.532Z</time></trkpt><trkpt lat="40.9002767" lon="15.362865"><ele>566.25</ele><time>2026-03-28T12:21:49.532Z</time></trkpt><trkpt lat="40.9002867" lon="15.36303"><ele>568.0</ele><time>2026-03-28T12:21:50.532Z</time></trkpt><trkpt lat="40.9003133" lon="15.36318"><ele>570.4</ele><time>2026-03-28T12:21:51.531Z</time></trkpt><trkpt lat="40.90036" lon="15.3633267"><ele>572.8</ele><time>2026-03-28T12:21:52.532Z</time></trkpt><trkpt lat="40.9004133" lon="15.363465"><ele>575.2</ele><time>2026-03-28T12:21:53.532Z</time></trkpt><trkpt lat="40.9004767" lon="15.3635817"><ele>577.6</ele><time>2026-03-28T12:21:54.532Z</time></trkpt><trkpt lat="40.9005467" lon="15.3636783"><ele>580.0</ele><time>2026-03-28T12:21:55.532Z</time></trkpt><trkpt lat="40.9006267" lon="15.3637517"><ele>580.0</ele><time>2026-03-28T12:21:56.532Z</time></trkpt><trkpt lat="40.9007167" lon="15.363805"><ele>580.0</ele><time>2026-03-28T12:21:57.531Z</time></trkpt><trkpt lat="40.90082" lon="15.3638367"><ele>580.0</ele><time>2026-03-28T12:21:58.532Z</time></trkpt><trkpt lat="40.9009283" lon="15.3638617"><ele>580.0</ele><time>2026-03-28T12:21:59.531Z</time></trkpt><trkpt lat="40.9010217" lon="15.3638917"><ele>580.0</ele><time>2026-03-28T12:22:00.532Z</time></trkpt><trkpt lat="40.9010983" lon="15.363935"><ele>579.8333333333334</ele><time>2026-03-28T12:22:01.531Z</time></trkpt><trkpt lat="40.9011533" lon="15.364015"><ele>579.6666666666667</ele><time>2026-03-28T12:22:02.531Z</time></trkpt><trkpt lat="40.9011867" lon="15.3641117"><ele>579.5</ele><time>2026-03-28T12:22:03.531Z</time></trkpt><trkpt lat="40.9011867" lon="15.3642133"><ele>579.3333333333334</ele><time>2026-03-28T12:22:04.531Z</time></trkpt><trkpt lat="40.901145" lon="15.36431"><ele>579.1666666666666</ele><time>2026-03-28T12:22:05.531Z</time></trkpt><trkpt lat="40.90108" lon="15.3643983"><ele>579.0</ele><time>2026-03-28T12:22:06.532Z</time></trkpt><trkpt lat="40.9010083" lon="15.364475"><ele>579.0</ele><time>2026-03-28T12:22:07.532Z</time></trkpt><trkpt lat="40.9009317" lon="15.364525"><ele>579.0</ele><time>2026-03-28T12:22:08.532Z</time></trkpt><trkpt lat="40.900855" lon="15.364545"><ele>579.0</ele><time>2026-03-28T12:22:09.531Z</time></trkpt><trkpt lat="40.9007683" lon="15.364535"><ele>579.0</ele><time>2026-03-28T12:22:10.532Z</time></trkpt><trkpt lat="40.9006883" lon="15.3644917"><ele>579.0</ele><time>2026-03-28T12:22:11.532Z</time></trkpt><trkpt lat="40.9006033" lon="15.3644283"><ele>579.0</ele><time>2026-03-28T12:22:12.531Z</time></trkpt><trkpt lat="40.900515" lon="15.3643483"><ele>582.5</ele><time>2026-03-28T12:22:13.532Z</time></trkpt><trkpt lat="40.9004183" lon="15.3642667"><ele>586.0</ele><time>2026-03-28T12:22:14.532Z</time></trkpt><trkpt lat="40.90032" lon="15.3641833"><ele>589.5</ele><time>2026-03-28T12:22:15.532Z</time></trkpt><trkpt lat="40.900225" lon="15.36409"><ele>593.0</ele><time>2026-03-28T12:22:16.531Z</time></trkpt><trkpt lat="40.9001183" lon="15.3639917"><ele>594.75</ele><time>2026-03-28T12:22:17.532Z</time></trkpt><trkpt lat="40.9000267" lon="15.363895"><ele>596.5</ele><time>2026-03-28T12:22:18.532Z</time></trkpt><trkpt lat="40.89993" lon="15.3638033"><ele>598.25</ele><time>2026-03-28T12:22:19.532Z</time></trkpt><trkpt lat="40.8998383" lon="15.3637067"><ele>600.0</ele><time>2026-03-28T12:22:20.532Z</time></trkpt><trkpt lat="40.8997533" lon="15.3636"><ele>600.0</ele><time>2026-03-28T12:22:21.532Z</time></trkpt><trkpt lat="40.8996783" lon="15.3634917"><ele>600.0</ele><time>2026-03-28T12:22:22.532Z</time></trkpt><trkpt lat="40.89961" lon="15.3633733"><ele>600.0</ele><time>2026-03-28T12:22:23.531Z</time></trkpt><trkpt lat="40.8995433" lon="15.363255"><ele>600.0</ele><time>2026-03-28T12:22:24.532Z</time></trkpt><trkpt lat="40.8994867" lon="15.363135"><ele>600.0</ele><time>2026-03-28T12:22:25.532Z</time></trkpt><trkpt lat="40.8994367" lon="15.3630133"><ele>598.4</ele><time>2026-03-28T12:22:26.531Z</time></trkpt><trkpt lat="40.8994083" lon="15.36288"><ele>596.8</ele><time>2026-03-28T12:22:27.532Z</time></trkpt><trkpt lat="40.899395" lon="15.362755"><ele>595.2</ele><time>2026-03-28T12:22:28.532Z</time></trkpt><trkpt lat="40.8993633" lon="15.362645"><ele>593.6</ele><time>2026-03-28T12:22:29.531Z</time></trkpt><trkpt lat="40.8993267" lon="15.36255"><ele>592.0</ele><time>2026-03-28T12:22:30.532Z</time></trkpt><trkpt lat="40.8992617" lon="15.3624783"><ele>594.8000000000001</ele><time>2026-03-28T12:22:31.531Z</time></trkpt><trkpt lat="40.8991733" lon="15.3624217"><ele>597.6</ele><time>2026-03-28T12:22:32.531Z</time></trkpt><trkpt lat="40.8990717" lon="15.362375"><ele>600.4000000000001</ele><time>2026-03-28T12:22:33.531Z</time></trkpt><trkpt lat="40.8989633" lon="15.3623233"><ele>603.2</ele><time>2026-03-28T12:22:34.531Z</time></trkpt><trkpt lat="40.898855" lon="15.3622617"><ele>606.0</ele><time>2026-03-28T12:22:35.532Z</time></trkpt><trkpt lat="40.898745" lon="15.3621967"><ele>606.0</ele><time>2026-03-28T12:22:36.532Z</time></trkpt><trkpt lat="40.8986267" lon="15.3621267"><ele>606.0</ele><time>2026-03-28T12:22:37.531Z</time></trkpt><trkpt lat="40.898515" lon="15.3620667"><ele>606.0</ele><time>2026-03-28T12:22:38.532Z</time></trkpt><trkpt lat="40.8984167" lon="15.362"><ele>606.0</ele><time>2026-03-28T12:22:39.532Z</time></trkpt><trkpt lat="40.8983367" lon="15.3619567"><ele>606.0</ele><time>2026-03-28T12:22:40.531Z</time></trkpt><trkpt lat="40.898265" lon="15.3619183"><ele>608.0</ele><time>2026-03-28T12:22:41.532Z</time></trkpt><trkpt lat="40.8981933" lon="15.3618867"><ele>610.0</ele><time>2026-03-28T12:22:42.532Z</time></trkpt><trkpt lat="40.8981133" lon="15.3618783"><ele>612.0</ele><time>2026-03-28T12:22:43.531Z</time></trkpt><trkpt lat="40.898035" lon="15.3618833"><ele>614.0</ele><time>2026-03-28T12:22:44.532Z</time></trkpt><trkpt lat="40.8979467" lon="15.3619133"><ele>616.0</ele><time>2026-03-28T12:22:45.531Z</time></trkpt><trkpt lat="40.8978483" lon="15.361945"><ele>618.0</ele><time>2026-03-28T12:22:46.532Z</time></trkpt><trkpt lat="40.89775" lon="15.3619867"><ele>618.0</ele><time>2026-03-28T12:22:47.532Z</time></trkpt><trkpt lat="40.8976483" lon="15.3620317"><ele>618.0</ele><time>2026-03-28T12:22:48.532Z</time></trkpt><trkpt lat="40.897545" lon="15.3620733"><ele>618.0</ele><time>2026-03-28T12:22:49.531Z</time></trkpt><trkpt lat="40.8974517" lon="15.3621133"><ele>618.0</ele><time>2026-03-28T12:22:50.532Z</time></trkpt><trkpt lat="40.8973833" lon="15.3621483"><ele>618.0</ele><time>2026-03-28T12:22:51.532Z</time></trkpt><trkpt lat="40.8972633" lon="15.3621933"><ele>618.5</ele><time>2026-03-28T12:22:53.532Z</time></trkpt><trkpt lat="40.8971817" lon="15.3621967"><ele>619.0</ele><time>2026-03-28T12:22:54.531Z</time></trkpt><trkpt lat="40.8970967" lon="15.3621867"><ele>619.5</ele><time>2026-03-28T12:22:55.532Z</time></trkpt><trkpt lat="40.8970117" lon="15.362155"><ele>620.0</ele><time>2026-03-28T12:22:56.531Z</time></trkpt><trkpt lat="40.89692" lon="15.3621267"><ele>620.5</ele><time>2026-03-28T12:22:57.532Z</time></trkpt><trkpt lat="40.896825" lon="15.3621067"><ele>621.0</ele><time>2026-03-28T12:22:58.531Z</time></trkpt><trkpt lat="40.8967233" lon="15.3621033"><ele>621.0</ele><time>2026-03-28T12:22:59.532Z</time></trkpt><trkpt lat="40.896615" lon="15.3620917"><ele>621.0</ele><time>2026-03-28T12:23:00.531Z</time></trkpt><trkpt lat="40.8965017" lon="15.362075"><ele>621.0</ele><time>2026-03-28T12:23:01.532Z</time></trkpt><trkpt lat="40.8963833" lon="15.3620467"><ele>621.0</ele><time>2026-03-28T12:23:02.532Z</time></trkpt><trkpt lat="40.89627" lon="15.3620283"><ele>621.0</ele><time>2026-03-28T12:23:03.532Z</time></trkpt><trkpt lat="40.8961617" lon="15.3619967"><ele>621.0</ele><time>2026-03-28T12:23:04.531Z</time></trkpt><trkpt lat="40.89606" lon="15.361975"><ele>621.0</ele><time>2026-03-28T12:23:05.532Z</time></trkpt><trkpt lat="40.895965" lon="15.3619567"><ele>621.0</ele><time>2026-03-28T12:23:06.532Z</time></trkpt><trkpt lat="40.8958667" lon="15.36194"><ele>621.0</ele><time>2026-03-28T12:23:07.532Z</time></trkpt><trkpt lat="40.89577" lon="15.361925"><ele>619.6666666666666</ele><time>2026-03-28T12:23:08.532Z</time></trkpt><trkpt lat="40.8956667" lon="15.36193"><ele>618.3333333333334</ele><time>2026-03-28T12:23:09.532Z</time></trkpt><trkpt lat="40.8955783" lon="15.36194"><ele>617.0</ele><time>2026-03-28T12:23:10.531Z</time></trkpt><trkpt lat="40.895505" lon="15.3619633"><ele>615.6666666666667</ele><time>2026-03-28T12:23:11.532Z</time></trkpt><trkpt lat="40.89544" lon="15.36199"><ele>614.3333333333334</ele><time>2026-03-28T12:23:12.531Z</time></trkpt><trkpt lat="40.895335" lon="15.3620183"><ele>613.0</ele><time>2026-03-28T12:23:14.531Z</time></trkpt><trkpt lat="40.8952417" lon="15.3619783"><ele>613.0</ele><time>2026-03-28T12:23:16.532Z</time></trkpt><trkpt lat="40.8951417" lon="15.36189"><ele>613.0</ele><time>2026-03-28T12:23:18.532Z</time></trkpt><trkpt lat="40.8950867" lon="15.3618317"><ele>613.0</ele><time>2026-03-28T12:23:19.532Z</time></trkpt><trkpt lat="40.8950317" lon="15.3617667"><ele>613.0</ele><time>2026-03-28T12:23:20.532Z</time></trkpt><trkpt lat="40.8949767" lon="15.3617"><ele>613.0</ele><time>2026-03-28T12:23:21.532Z</time></trkpt><trkpt lat="40.8949233" lon="15.3616333"><ele>613.0</ele><time>2026-03-28T12:23:22.532Z</time></trkpt><trkpt lat="40.8948717" lon="15.3615717"><ele>612.1999999999999</ele><time>2026-03-28T12:23:23.531Z</time></trkpt><trkpt lat="40.89482" lon="15.361515"><ele>611.4</ele><time>2026-03-28T12:23:24.531Z</time></trkpt><trkpt lat="40.8947283" lon="15.3614267"><ele>610.5999999999999</ele><time>2026-03-28T12:23:26.532Z</time></trkpt><trkpt lat="40.8946433" lon="15.3613417"><ele>609.8</ele><time>2026-03-28T12:23:28.532Z</time></trkpt><trkpt lat="40.8945583" lon="15.3612767"><ele>609.0</ele><time>2026-03-28T12:23:30.531Z</time></trkpt><trkpt lat="40.894485" lon="15.3612233"><ele>606.1666666666666</ele><time>2026-03-28T12:23:32.531Z</time></trkpt><trkpt lat="40.89443" lon="15.3611817"><ele>603.3333333333334</ele><time>2026-03-28T12:23:34.531Z</time></trkpt><trkpt lat="40.8943683" lon="15.3611417"><ele>600.5</ele><time>2026-03-28T12:23:36.532Z</time></trkpt><trkpt lat="40.8942933" lon="15.361075"><ele>597.6666666666667</ele><time>2026-03-28T12:23:38.532Z</time></trkpt><trkpt lat="40.894175" lon="15.3609917"><ele>594.8333333333334</ele><time>2026-03-28T12:23:40.532Z</time></trkpt><trkpt lat="40.8941083" lon="15.3609483"><ele>592.0</ele><time>2026-03-28T12:23:41.532Z</time></trkpt><trkpt lat="40.8940317" lon="15.3609033"><ele>591.0</ele><time>2026-03-28T12:23:42.531Z</time></trkpt><trkpt lat="40.8939533" lon="15.3608533"><ele>590.0</ele><time>2026-03-28T12:23:43.532Z</time></trkpt><trkpt lat="40.8938683" lon="15.3608083"><ele>589.0</ele><time>2026-03-28T12:23:44.531Z</time></trkpt><trkpt lat="40.8937883" lon="15.3607733"><ele>588.0</ele><time>2026-03-28T12:23:45.532Z</time></trkpt><trkpt lat="40.8937067" lon="15.36073"><ele>587.0</ele><time>2026-03-28T12:23:46.531Z</time></trkpt><trkpt lat="40.8936267" lon="15.3606983"><ele>586.0</ele><time>2026-03-28T12:23:47.532Z</time></trkpt><trkpt lat="40.8935517" lon="15.3606733"><ele>585.9999999999999</ele><time>2026-03-28T12:23:48.531Z</time></trkpt><trkpt lat="40.89348" lon="15.3606517"><ele>586.0</ele><time>2026-03-28T12:23:49.532Z</time></trkpt><trkpt lat="40.8934033" lon="15.3606483"><ele>586.0</ele><time>2026-03-28T12:23:50.531Z</time></trkpt><trkpt lat="40.8933317" lon="15.3606583"><ele>586.0</ele><time>2026-03-28T12:23:51.531Z</time></trkpt><trkpt lat="40.8932617" lon="15.3606733"><ele>586.0</ele><time>2026-03-28T12:23:52.532Z</time></trkpt><trkpt lat="40.8931883" lon="15.3606933"><ele>585.9999999999999</ele><time>2026-03-28T12:23:53.532Z</time></trkpt><trkpt lat="40.8931133" lon="15.3606933"><ele>586.0</ele><time>2026-03-28T12:23:54.532Z</time></trkpt><trkpt lat="40.89305" lon="15.36069"><ele>584.1666666666667</ele><time>2026-03-28T12:23:55.532Z</time></trkpt><trkpt lat="40.8929833" lon="15.3606733"><ele>582.3333333333334</ele><time>2026-03-28T12:23:56.532Z</time></trkpt><trkpt lat="40.892915" lon="15.36065"><ele>580.5</ele><time>2026-03-28T12:23:57.531Z</time></trkpt><trkpt lat="40.8928383" lon="15.3606133"><ele>578.6666666666666</ele><time>2026-03-28T12:23:58.531Z</time></trkpt><trkpt lat="40.892755" lon="15.3605683"><ele>576.8333333333333</ele><time>2026-03-28T12:23:59.531Z</time></trkpt><trkpt lat="40.8926733" lon="15.36052"><ele>575.0</ele><time>2026-03-28T12:24:00.532Z</time></trkpt><trkpt lat="40.8925783" lon="15.360485"><ele>570.4</ele><time>2026-03-28T12:24:01.532Z</time></trkpt><trkpt lat="40.8924883" lon="15.3604533"><ele>565.8</ele><time>2026-03-28T12:24:02.531Z</time></trkpt><trkpt lat="40.8924" lon="15.3604183"><ele>561.2</ele><time>2026-03-28T12:24:03.532Z</time></trkpt><trkpt lat="40.8923067" lon="15.3603867"><ele>556.6</ele><time>2026-03-28T12:24:04.532Z</time></trkpt><trkpt lat="40.8922133" lon="15.3603433"><ele>552.0</ele><time>2026-03-28T12:24:05.532Z</time></trkpt><trkpt lat="40.8921167" lon="15.3602983"><ele>552.0</ele><time>2026-03-28T12:24:06.531Z</time></trkpt><trkpt lat="40.8920133" lon="15.3602517"><ele>552.0</ele><time>2026-03-28T12:24:07.532Z</time></trkpt><trkpt lat="40.891915" lon="15.3601967"><ele>552.0</ele><time>2026-03-28T12:24:08.531Z</time></trkpt><trkpt lat="40.8918217" lon="15.3601433"><ele>552.0</ele><time>2026-03-28T12:24:09.531Z</time></trkpt><trkpt lat="40.8917317" lon="15.3600883"><ele>552.0</ele><time>2026-03-28T12:24:10.532Z</time></trkpt><trkpt lat="40.8916417" lon="15.360035"><ele>549.2</ele><time>2026-03-28T12:24:11.532Z</time></trkpt><trkpt lat="40.89155" lon="15.35998"><ele>546.4000000000001</ele><time>2026-03-28T12:24:12.531Z</time></trkpt><trkpt lat="40.891455" lon="15.3599217"><ele>543.5999999999999</ele><time>2026-03-28T12:24:13.531Z</time></trkpt><trkpt lat="40.8913667" lon="15.3598717"><ele>540.8</ele><time>2026-03-28T12:24:14.532Z</time></trkpt><trkpt lat="40.891275" lon="15.3598233"><ele>538.0</ele><time>2026-03-28T12:24:15.532Z</time></trkpt><trkpt lat="40.8911883" lon="15.3597783"><ele>538.0</ele><time>2026-03-28T12:24:16.531Z</time></trkpt><trkpt lat="40.8911117" lon="15.359735"><ele>538.0</ele><time>2026-03-28T12:24:17.532Z</time></trkpt><trkpt lat="40.8910317" lon="15.3596917"><ele>538.0</ele><time>2026-03-28T12:24:18.532Z</time></trkpt><trkpt lat="40.8909483" lon="15.3596483"><ele>538.0</ele><time>2026-03-28T12:24:19.532Z</time></trkpt><trkpt lat="40.8908617" lon="15.3596017"><ele>538.0</ele><time>2026-03-28T12:24:20.531Z</time></trkpt><trkpt lat="40.89078" lon="15.3595667"><ele>538.0</ele><time>2026-03-28T12:24:21.531Z</time></trkpt><trkpt lat="40.890705" lon="15.3595317"><ele>534.5</ele><time>2026-03-28T12:24:22.532Z</time></trkpt><trkpt lat="40.8906233" lon="15.3595067"><ele>531.0</ele><time>2026-03-28T12:24:23.531Z</time></trkpt><trkpt lat="40.8905367" lon="15.35947"><ele>527.5</ele><time>2026-03-28T12:24:24.531Z</time></trkpt><trkpt lat="40.890455" lon="15.359445"><ele>524.0</ele><time>2026-03-28T12:24:25.532Z</time></trkpt><trkpt lat="40.8903867" lon="15.3594"><ele>520.5</ele><time>2026-03-28T12:24:26.532Z</time></trkpt><trkpt lat="40.8903283" lon="15.359335"><ele>517.0</ele><time>2026-03-28T12:24:27.532Z</time></trkpt><trkpt lat="40.8902817" lon="15.359255"><ele>517.0</ele><time>2026-03-28T12:24:28.532Z</time></trkpt><trkpt lat="40.89024" lon="15.359165"><ele>517.0</ele><time>2026-03-28T12:24:29.532Z</time></trkpt><trkpt lat="40.890205" lon="15.3590617"><ele>517.0</ele><time>2026-03-28T12:24:30.531Z</time></trkpt><trkpt lat="40.8901683" lon="15.358945"><ele>517.0</ele><time>2026-03-28T12:24:31.531Z</time></trkpt><trkpt lat="40.890135" lon="15.35881"><ele>517.0</ele><time>2026-03-28T12:24:32.532Z</time></trkpt><trkpt lat="40.8901083" lon="15.3586817"><ele>512.8000000000001</ele><time>2026-03-28T12:24:33.532Z</time></trkpt><trkpt lat="40.8900817" lon="15.35855"><ele>508.6</ele><time>2026-03-28T12:24:34.532Z</time></trkpt><trkpt lat="40.8900583" lon="15.3584217"><ele>504.40000000000003</ele><time>2026-03-28T12:24:35.531Z</time></trkpt><trkpt lat="40.8900317" lon="15.3583017"><ele>500.20000000000005</ele><time>2026-03-28T12:24:36.532Z</time></trkpt><trkpt lat="40.8900017" lon="15.3581817"><ele>496.0</ele><time>2026-03-28T12:24:37.531Z</time></trkpt><trkpt lat="40.8899717" lon="15.3580733"><ele>496.0</ele><time>2026-03-28T12:24:38.531Z</time></trkpt><trkpt lat="40.8899383" lon="15.35797"><ele>496.0</ele><time>2026-03-28T12:24:39.531Z</time></trkpt><trkpt lat="40.8898883" lon="15.3578683"><ele>496.0</ele><time>2026-03-28T12:24:40.531Z</time></trkpt><trkpt lat="40.8898267" lon="15.3577867"><ele>496.0</ele><time>2026-03-28T12:24:41.532Z</time></trkpt><trkpt lat="40.889755" lon="15.35771"><ele>496.0</ele><time>2026-03-28T12:24:42.532Z</time></trkpt><trkpt lat="40.8896817" lon="15.3576283"><ele>496.0</ele><time>2026-03-28T12:24:43.532Z</time></trkpt><trkpt lat="40.8896283" lon="15.3575417"><ele>496.00000000000006</ele><time>2026-03-28T12:24:44.531Z</time></trkpt><trkpt lat="40.889585" lon="15.3574567"><ele>496.0</ele><time>2026-03-28T12:24:45.532Z</time></trkpt><trkpt lat="40.889545" lon="15.357365"><ele>496.0</ele><time>2026-03-28T12:24:46.531Z</time></trkpt><trkpt lat="40.8895117" lon="15.3572783"><ele>496.00000000000006</ele><time>2026-03-28T12:24:47.532Z</time></trkpt><trkpt lat="40.8894867" lon="15.357195"><ele>496.0</ele><time>2026-03-28T12:24:48.532Z</time></trkpt><trkpt lat="40.8894633" lon="15.3571133"><ele>496.0</ele><time>2026-03-28T12:24:49.532Z</time></trkpt><trkpt lat="40.8894117" lon="15.3569817"><ele>494.6</ele><time>2026-03-28T12:24:51.532Z</time></trkpt><trkpt lat="40.889375" lon="15.3569"><ele>493.20000000000005</ele><time>2026-03-28T12:24:53.531Z</time></trkpt><trkpt lat="40.8893833" lon="15.3568117"><ele>491.79999999999995</ele><time>2026-03-28T12:24:55.532Z</time></trkpt><trkpt lat="40.8894483" lon="15.35671"><ele>490.4</ele><time>2026-03-28T12:24:57.531Z</time></trkpt><trkpt lat="40.889525" lon="15.3565883"><ele>489.0</ele><time>2026-03-28T12:24:59.531Z</time></trkpt><trkpt lat="40.8895583" lon="15.3564217"><ele>486.8333333333333</ele><time>2026-03-28T12:25:01.532Z</time></trkpt><trkpt lat="40.8895533" lon="15.3563083"><ele>484.66666666666663</ele><time>2026-03-28T12:25:02.532Z</time></trkpt><trkpt lat="40.8895367" lon="15.3561967"><ele>482.5</ele><time>2026-03-28T12:25:03.532Z</time></trkpt><trkpt lat="40.88951" lon="15.3560933"><ele>480.3333333333333</ele><time>2026-03-28T12:25:04.532Z</time></trkpt><trkpt lat="40.8894667" lon="15.355995"><ele>478.16666666666663</ele><time>2026-03-28T12:25:05.532Z</time></trkpt><trkpt lat="40.88941" lon="15.3559"><ele>476.0</ele><time>2026-03-28T12:25:06.532Z</time></trkpt><trkpt lat="40.8893433" lon="15.3558167"><ele>476.0</ele><time>2026-03-28T12:25:07.531Z</time></trkpt><trkpt lat="40.8892733" lon="15.3557333"><ele>476.0</ele><time>2026-03-28T12:25:08.532Z</time></trkpt><trkpt lat="40.889195" lon="15.3556433"><ele>476.0</ele><time>2026-03-28T12:25:09.532Z</time></trkpt><trkpt lat="40.8891183" lon="15.3555583"><ele>476.0</ele><time>2026-03-28T12:25:10.532Z</time></trkpt><trkpt lat="40.889035" lon="15.3554717"><ele>476.0</ele><time>2026-03-28T12:25:11.531Z</time></trkpt><trkpt lat="40.888955" lon="15.35538"><ele>473.20000000000005</ele><time>2026-03-28T12:25:12.532Z</time></trkpt><trkpt lat="40.8888633" lon="15.3552867"><ele>470.40000000000003</ele><time>2026-03-28T12:25:13.531Z</time></trkpt><trkpt lat="40.88878" lon="15.3552"><ele>467.6</ele><time>2026-03-28T12:25:14.532Z</time></trkpt><trkpt lat="40.8886933" lon="15.355105"><ele>464.8</ele><time>2026-03-28T12:25:15.532Z</time></trkpt><trkpt lat="40.88861" lon="15.35501"><ele>462.0</ele><time>2026-03-28T12:25:16.531Z</time></trkpt><trkpt lat="40.888525" lon="15.3549133"><ele>462.0</ele><time>2026-03-28T12:25:17.532Z</time></trkpt><trkpt lat="40.88844" lon="15.354825"><ele>462.00000000000006</ele><time>2026-03-28T12:25:18.531Z</time></trkpt><trkpt lat="40.8883517" lon="15.3547317"><ele>462.00000000000006</ele><time>2026-03-28T12:25:19.532Z</time></trkpt><trkpt lat="40.8882667" lon="15.35464"><ele>462.0</ele><time>2026-03-28T12:25:20.531Z</time></trkpt><trkpt lat="40.8881883" lon="15.35455"><ele>462.0</ele><time>2026-03-28T12:25:21.531Z</time></trkpt><trkpt lat="40.8881083" lon="15.3544567"><ele>459.6</ele><time>2026-03-28T12:25:22.532Z</time></trkpt><trkpt lat="40.88803" lon="15.3543717"><ele>457.20000000000005</ele><time>2026-03-28T12:25:23.532Z</time></trkpt><trkpt lat="40.887955" lon="15.3542917"><ele>454.8</ele><time>2026-03-28T12:25:24.532Z</time></trkpt><trkpt lat="40.8878817" lon="15.3542117"><ele>452.4</ele><time>2026-03-28T12:25:25.532Z</time></trkpt><trkpt lat="40.8878117" lon="15.35413"><ele>450.0</ele><time>2026-03-28T12:25:26.532Z</time></trkpt><trkpt lat="40.887745" lon="15.35404"><ele>450.0</ele><time>2026-03-28T12:25:27.532Z</time></trkpt><trkpt lat="40.8876733" lon="15.3539533"><ele>450.0</ele><time>2026-03-28T12:25:28.531Z</time></trkpt><trkpt lat="40.8875933" lon="15.353865"><ele>450.0</ele><time>2026-03-28T12:25:29.531Z</time></trkpt><trkpt lat="40.8875117" lon="15.353785"><ele>450.0</ele><time>2026-03-28T12:25:30.531Z</time></trkpt><trkpt lat="40.88742" lon="15.35371"><ele>450.0</ele><time>2026-03-28T12:25:31.532Z</time></trkpt><trkpt lat="40.8873317" lon="15.3536417"><ele>449.0</ele><time>2026-03-28T12:25:32.532Z</time></trkpt><trkpt lat="40.8872467" lon="15.3535667"><ele>448.0</ele><time>2026-03-28T12:25:33.532Z</time></trkpt><trkpt lat="40.8871633" lon="15.3534967"><ele>447.0</ele><time>2026-03-28T12:25:34.532Z</time></trkpt><trkpt lat="40.8870833" lon="15.3534233"><ele>446.0</ele><time>2026-03-28T12:25:35.532Z</time></trkpt><trkpt lat="40.88701" lon="15.3533433"><ele>445.0</ele><time>2026-03-28T12:25:36.531Z</time></trkpt><trkpt lat="40.886945" lon="15.3532517"><ele>445.0</ele><time>2026-03-28T12:25:37.532Z</time></trkpt><trkpt lat="40.886885" lon="15.3531683"><ele>445.0</ele><time>2026-03-28T12:25:38.531Z</time></trkpt><trkpt lat="40.8868217" lon="15.3530817"><ele>445.0</ele><time>2026-03-28T12:25:39.532Z</time></trkpt><trkpt lat="40.88675" lon="15.3530067"><ele>445.0</ele><time>2026-03-28T12:25:40.532Z</time></trkpt><trkpt lat="40.886665" lon="15.3529383"><ele>445.0</ele><time>2026-03-28T12:25:41.532Z</time></trkpt><trkpt lat="40.8865667" lon="15.3528767"><ele>441.75</ele><time>2026-03-28T12:25:42.532Z</time></trkpt><trkpt lat="40.88646" lon="15.3528167"><ele>438.5</ele><time>2026-03-28T12:25:43.531Z</time></trkpt><trkpt lat="40.8863483" lon="15.35276"><ele>435.25</ele><time>2026-03-28T12:25:44.532Z</time></trkpt><trkpt lat="40.8862267" lon="15.3527"><ele>432.0</ele><time>2026-03-28T12:25:45.531Z</time></trkpt><trkpt lat="40.8860967" lon="15.35264"><ele>432.0</ele><time>2026-03-28T12:25:46.531Z</time></trkpt><trkpt lat="40.8859633" lon="15.3525833"><ele>432.0</ele><time>2026-03-28T12:25:47.532Z</time></trkpt><trkpt lat="40.8858283" lon="15.3525433"><ele>432.0</ele><time>2026-03-28T12:25:48.532Z</time></trkpt><trkpt lat="40.8856917" lon="15.3524983"><ele>432.0</ele><time>2026-03-28T12:25:49.532Z</time></trkpt><trkpt lat="40.8855617" lon="15.3524633"><ele>428.75</ele><time>2026-03-28T12:25:50.532Z</time></trkpt><trkpt lat="40.8854383" lon="15.3524217"><ele>425.5</ele><time>2026-03-28T12:25:51.532Z</time></trkpt><trkpt lat="40.8853183" lon="15.352385"><ele>422.25</ele><time>2026-03-28T12:25:52.531Z</time></trkpt><trkpt lat="40.8852033" lon="15.3523567"><ele>419.0</ele><time>2026-03-28T12:25:53.532Z</time></trkpt><trkpt lat="40.8850833" lon="15.3523383"><ele>416.79999999999995</ele><time>2026-03-28T12:25:54.532Z</time></trkpt><trkpt lat="40.88497" lon="15.3523167"><ele>414.59999999999997</ele><time>2026-03-28T12:25:55.532Z</time></trkpt><trkpt lat="40.8848583" lon="15.3522933"><ele>412.4</ele><time>2026-03-28T12:25:56.532Z</time></trkpt><trkpt lat="40.884755" lon="15.3522717"><ele>410.2</ele><time>2026-03-28T12:25:57.531Z</time></trkpt><trkpt lat="40.884655" lon="15.35225"><ele>408.0</ele><time>2026-03-28T12:25:58.532Z</time></trkpt><trkpt lat="40.884565" lon="15.3522283"><ele>408.0</ele><time>2026-03-28T12:25:59.532Z</time></trkpt><trkpt lat="40.8844833" lon="15.3522167"><ele>408.0</ele><time>2026-03-28T12:26:00.531Z</time></trkpt><trkpt lat="40.88441" lon="15.3522017"><ele>408.0</ele><time>2026-03-28T12:26:01.532Z</time></trkpt><trkpt lat="40.884305" lon="15.3521633"><ele>408.0</ele><time>2026-03-28T12:26:03.532Z</time></trkpt><trkpt lat="40.884235" lon="15.35208"><ele>408.0</ele><time>2026-03-28T12:26:05.531Z</time></trkpt><trkpt lat="40.884195" lon="15.3519"><ele>407.0</ele><time>2026-03-28T12:26:07.531Z</time></trkpt><trkpt lat="40.8841917" lon="15.351765"><ele>406.0</ele><time>2026-03-28T12:26:08.532Z</time></trkpt><trkpt lat="40.884185" lon="15.3516167"><ele>405.0</ele><time>2026-03-28T12:26:09.532Z</time></trkpt><trkpt lat="40.88417" lon="15.3514833"><ele>404.0</ele><time>2026-03-28T12:26:10.531Z</time></trkpt><trkpt lat="40.884155" lon="15.35134"><ele>403.0</ele><time>2026-03-28T12:26:11.532Z</time></trkpt><trkpt lat="40.8841333" lon="15.3511917"><ele>403.0</ele><time>2026-03-28T12:26:12.531Z</time></trkpt><trkpt lat="40.8841233" lon="15.3510283"><ele>403.0</ele><time>2026-03-28T12:26:13.531Z</time></trkpt><trkpt lat="40.8841083" lon="15.3508783"><ele>403.0</ele><time>2026-03-28T12:26:14.532Z</time></trkpt><trkpt lat="40.88409" lon="15.350715"><ele>403.0</ele><time>2026-03-28T12:26:15.532Z</time></trkpt><trkpt lat="40.88407" lon="15.3505417"><ele>403.25</ele><time>2026-03-28T12:26:16.532Z</time></trkpt><trkpt lat="40.884055" lon="15.3503783"><ele>403.5</ele><time>2026-03-28T12:26:17.531Z</time></trkpt><trkpt lat="40.8840417" lon="15.35021"><ele>403.75</ele><time>2026-03-28T12:26:18.532Z</time></trkpt><trkpt lat="40.8840283" lon="15.3500367"><ele>404.0</ele><time>2026-03-28T12:26:19.531Z</time></trkpt><trkpt lat="40.8840117" lon="15.3498617"><ele>404.5</ele><time>2026-03-28T12:26:20.531Z</time></trkpt><trkpt lat="40.884" lon="15.3496883"><ele>405.0</ele><time>2026-03-28T12:26:21.532Z</time></trkpt><trkpt lat="40.8839883" lon="15.3495233"><ele>405.5</ele><time>2026-03-28T12:26:22.531Z</time></trkpt><trkpt lat="40.8839817" lon="15.34935"><ele>406.0</ele><time>2026-03-28T12:26:23.531Z</time></trkpt><trkpt lat="40.8839683" lon="15.349175"><ele>406.0</ele><time>2026-03-28T12:26:24.531Z</time></trkpt><trkpt lat="40.8839533" lon="15.3490033"><ele>406.0</ele><time>2026-03-28T12:26:25.532Z</time></trkpt><trkpt lat="40.8839383" lon="15.3488267"><ele>406.0</ele><time>2026-03-28T12:26:26.531Z</time></trkpt><trkpt lat="40.8839233" lon="15.3486417"><ele>406.0</ele><time>2026-03-28T12:26:27.531Z</time></trkpt><trkpt lat="40.8839067" lon="15.3484517"><ele>406.5</ele><time>2026-03-28T12:26:28.531Z</time></trkpt><trkpt lat="40.8838933" lon="15.348265"><ele>407.0</ele><time>2026-03-28T12:26:29.531Z</time></trkpt><trkpt lat="40.8838767" lon="15.3480833"><ele>407.5</ele><time>2026-03-28T12:26:30.531Z</time></trkpt><trkpt lat="40.883865" lon="15.3479117"><ele>408.0</ele><time>2026-03-28T12:26:31.532Z</time></trkpt><trkpt lat="40.883855" lon="15.3477483"><ele>408.25</ele><time>2026-03-28T12:26:32.531Z</time></trkpt><trkpt lat="40.8838433" lon="15.3475883"><ele>408.5</ele><time>2026-03-28T12:26:33.531Z</time></trkpt><trkpt lat="40.8838317" lon="15.3474183"><ele>408.75</ele><time>2026-03-28T12:26:34.531Z</time></trkpt><trkpt lat="40.88382" lon="15.3472483"><ele>409.0</ele><time>2026-03-28T12:26:35.531Z</time></trkpt><trkpt lat="40.8838233" lon="15.347095"><ele>409.5</ele><time>2026-03-28T12:26:36.532Z</time></trkpt><trkpt lat="40.8838283" lon="15.3469333"><ele>410.0</ele><time>2026-03-28T12:26:37.531Z</time></trkpt><trkpt lat="40.8838517" lon="15.34678"><ele>410.5</ele><time>2026-03-28T12:26:38.531Z</time></trkpt><trkpt lat="40.8838867" lon="15.3466417"><ele>411.0</ele><time>2026-03-28T12:26:39.532Z</time></trkpt><trkpt lat="40.8839233" lon="15.34651"><ele>412.0</ele><time>2026-03-28T12:26:40.532Z</time></trkpt><trkpt lat="40.88395" lon="15.34636"><ele>413.0</ele><time>2026-03-28T12:26:41.532Z</time></trkpt><trkpt lat="40.8839583" lon="15.3461867"><ele>414.0</ele><time>2026-03-28T12:26:42.531Z</time></trkpt><trkpt lat="40.8839617" lon="15.346"><ele>415.0</ele><time>2026-03-28T12:26:43.531Z</time></trkpt><trkpt lat="40.8839617" lon="15.3458117"><ele>415.0</ele><time>2026-03-28T12:26:44.531Z</time></trkpt><trkpt lat="40.883965" lon="15.3456283"><ele>415.0</ele><time>2026-03-28T12:26:45.531Z</time></trkpt><trkpt lat="40.88397" lon="15.34543"><ele>415.0</ele><time>2026-03-28T12:26:46.531Z</time></trkpt><trkpt lat="40.8839717" lon="15.34523"><ele>415.0</ele><time>2026-03-28T12:26:47.531Z</time></trkpt><trkpt lat="40.8839683" lon="15.3450317"><ele>414.75</ele><time>2026-03-28T12:26:48.532Z</time></trkpt><trkpt lat="40.8839617" lon="15.344835"><ele>414.5</ele><time>2026-03-28T12:26:49.532Z</time></trkpt><trkpt lat="40.8839617" lon="15.3446383"><ele>414.25</ele><time>2026-03-28T12:26:50.532Z</time></trkpt><trkpt lat="40.8839517" lon="15.344455"><ele>414.0</ele><time>2026-03-28T12:26:51.532Z</time></trkpt><trkpt lat="40.8839467" lon="15.3442717"><ele>414.25</ele><time>2026-03-28T12:26:52.531Z</time></trkpt><trkpt lat="40.8839333" lon="15.344095"><ele>414.5</ele><time>2026-03-28T12:26:53.532Z</time></trkpt><trkpt lat="40.883925" lon="15.34391"><ele>414.75</ele><time>2026-03-28T12:26:54.532Z</time></trkpt><trkpt lat="40.88392" lon="15.3437183"><ele>415.0</ele><time>2026-03-28T12:26:55.532Z</time></trkpt><trkpt lat="40.88391" lon="15.3435317"><ele>415.0</ele><time>2026-03-28T12:26:56.532Z</time></trkpt><trkpt lat="40.8838983" lon="15.3433383"><ele>415.0</ele><time>2026-03-28T12:26:57.532Z</time></trkpt><trkpt lat="40.883885" lon="15.3431417"><ele>415.0</ele><time>2026-03-28T12:26:58.531Z</time></trkpt><trkpt lat="40.8838667" lon="15.34295"><ele>415.0</ele><time>2026-03-28T12:26:59.531Z</time></trkpt><trkpt lat="40.88385" lon="15.3427567"><ele>415.75</ele><time>2026-03-28T12:27:00.531Z</time></trkpt><trkpt lat="40.8838333" lon="15.3425683"><ele>416.5</ele><time>2026-03-28T12:27:01.532Z</time></trkpt><trkpt lat="40.8838217" lon="15.34239"><ele>417.25</ele><time>2026-03-28T12:27:02.532Z</time></trkpt><trkpt lat="40.8838067" lon="15.3422133"><ele>418.0</ele><time>2026-03-28T12:27:03.532Z</time></trkpt><trkpt lat="40.883795" lon="15.3420383"><ele>418.25</ele><time>2026-03-28T12:27:04.532Z</time></trkpt><trkpt lat="40.88378" lon="15.3418617"><ele>418.5</ele><time>2026-03-28T12:27:05.531Z</time></trkpt><trkpt lat="40.88376" lon="15.34169"><ele>418.75</ele><time>2026-03-28T12:27:06.532Z</time></trkpt><trkpt lat="40.8837383" lon="15.341525"><ele>419.0</ele><time>2026-03-28T12:27:07.532Z</time></trkpt><trkpt lat="40.8837067" lon="15.3413633"><ele>420.25</ele><time>2026-03-28T12:27:08.531Z</time></trkpt><trkpt lat="40.8836617" lon="15.341215"><ele>421.5</ele><time>2026-03-28T12:27:09.532Z</time></trkpt><trkpt lat="40.8836117" lon="15.34108"><ele>422.75</ele><time>2026-03-28T12:27:10.532Z</time></trkpt><trkpt lat="40.8835517" lon="15.34096"><ele>424.0</ele><time>2026-03-28T12:27:11.531Z</time></trkpt><trkpt lat="40.8834883" lon="15.3408333"><ele>422.75</ele><time>2026-03-28T12:27:12.532Z</time></trkpt><trkpt lat="40.883405" lon="15.34072"><ele>421.5</ele><time>2026-03-28T12:27:13.531Z</time></trkpt><trkpt lat="40.8833217" lon="15.340615"><ele>420.25</ele><time>2026-03-28T12:27:14.532Z</time></trkpt><trkpt lat="40.8832367" lon="15.34052"><ele>419.0</ele><time>2026-03-28T12:27:15.531Z</time></trkpt><trkpt lat="40.8831433" lon="15.3404233"><ele>419.0</ele><time>2026-03-28T12:27:16.531Z</time></trkpt><trkpt lat="40.8830533" lon="15.3403267"><ele>419.0</ele><time>2026-03-28T12:27:17.531Z</time></trkpt><trkpt lat="40.8829617" lon="15.3402267"><ele>419.0</ele><time>2026-03-28T12:27:18.532Z</time></trkpt><trkpt lat="40.8828767" lon="15.3401317"><ele>419.0</ele><time>2026-03-28T12:27:19.532Z</time></trkpt><trkpt lat="40.8828" lon="15.34003"><ele>419.0</ele><time>2026-03-28T12:27:20.532Z</time></trkpt><trkpt lat="40.8827333" lon="15.3399333"><ele>419.0</ele><time>2026-03-28T12:27:21.531Z</time></trkpt><trkpt lat="40.88268" lon="15.3398333"><ele>419.0</ele><time>2026-03-28T12:27:22.531Z</time></trkpt><trkpt lat="40.8826317" lon="15.339735"><ele>419.0</ele><time>2026-03-28T12:27:23.531Z</time></trkpt><trkpt lat="40.8825933" lon="15.3396167"><ele>419.0</ele><time>2026-03-28T12:27:24.531Z</time></trkpt><trkpt lat="40.8825567" lon="15.33949"><ele>418.2</ele><time>2026-03-28T12:27:25.532Z</time></trkpt><trkpt lat="40.882525" lon="15.3393517"><ele>417.4</ele><time>2026-03-28T12:27:26.532Z</time></trkpt><trkpt lat="40.8825" lon="15.3392117"><ele>416.6</ele><time>2026-03-28T12:27:27.532Z</time></trkpt><trkpt lat="40.882475" lon="15.33907"><ele>415.8</ele><time>2026-03-28T12:27:28.532Z</time></trkpt><trkpt lat="40.8824517" lon="15.3389167"><ele>415.0</ele><time>2026-03-28T12:27:29.531Z</time></trkpt><trkpt lat="40.88243" lon="15.3387667"><ele>415.00000000000006</ele><time>2026-03-28T12:27:30.531Z</time></trkpt><trkpt lat="40.8824117" lon="15.3386317"><ele>415.0</ele><time>2026-03-28T12:27:31.532Z</time></trkpt><trkpt lat="40.8823933" lon="15.3385183"><ele>415.0</ele><time>2026-03-28T12:27:32.531Z</time></trkpt><trkpt lat="40.8823817" lon="15.3384267"><ele>415.0</ele><time>2026-03-28T12:27:33.531Z</time></trkpt><trkpt lat="40.882365" lon="15.3382983"><ele>415.00000000000006</ele><time>2026-03-28T12:27:35.531Z</time></trkpt><trkpt lat="40.882385" lon="15.338185"><ele>415.0</ele><time>2026-03-28T12:27:42.531Z</time></trkpt><trkpt lat="40.88238" lon="15.3383083"><ele>415.00000000000006</ele><time>2026-03-28T12:28:02.532Z</time></trkpt><trkpt lat="40.8823983" lon="15.33845"><ele>415.0</ele><time>2026-03-28T12:28:04.532Z</time></trkpt><trkpt lat="40.8824083" lon="15.3385367"><ele>415.0</ele><time>2026-03-28T12:28:05.531Z</time></trkpt><trkpt lat="40.8824217" lon="15.3386333"><ele>415.0</ele><time>2026-03-28T12:28:06.531Z</time></trkpt><trkpt lat="40.8824417" lon="15.3387483"><ele>415.00000000000006</ele><time>2026-03-28T12:28:07.532Z</time></trkpt><trkpt lat="40.88246" lon="15.3388683"><ele>415.0</ele><time>2026-03-28T12:28:08.532Z</time></trkpt><trkpt lat="40.882475" lon="15.3389817"><ele>414.6666666666667</ele><time>2026-03-28T12:28:09.531Z</time></trkpt><trkpt lat="40.8824867" lon="15.3390967"><ele>414.33333333333337</ele><time>2026-03-28T12:28:10.532Z</time></trkpt><trkpt lat="40.8825033" lon="15.3391983"><ele>414.0</ele><time>2026-03-28T12:28:11.532Z</time></trkpt><trkpt lat="40.8825167" lon="15.33929"><ele>413.66666666666663</ele><time>2026-03-28T12:28:12.532Z</time></trkpt><trkpt lat="40.8825267" lon="15.3393767"><ele>413.3333333333333</ele><time>2026-03-28T12:28:13.532Z</time></trkpt><trkpt lat="40.882485" lon="15.339495"><ele>413.0</ele><time>2026-03-28T12:28:15.531Z</time></trkpt><trkpt lat="40.88238" lon="15.33954"><ele>412.99999999999994</ele><time>2026-03-28T12:28:17.531Z</time></trkpt><trkpt lat="40.8823183" lon="15.3395167"><ele>413.0</ele><time>2026-03-28T12:28:18.532Z</time></trkpt><trkpt lat="40.882245" lon="15.3394617"><ele>413.0</ele><time>2026-03-28T12:28:19.532Z</time></trkpt><trkpt lat="40.8821733" lon="15.3393883"><ele>413.0</ele><time>2026-03-28T12:28:20.531Z</time></trkpt><trkpt lat="40.8821" lon="15.339295"><ele>412.99999999999994</ele><time>2026-03-28T12:28:21.532Z</time></trkpt><trkpt lat="40.8820317" lon="15.3391917"><ele>413.0</ele><time>2026-03-28T12:28:22.532Z</time></trkpt><trkpt lat="40.8819667" lon="15.33909"><ele>413.0</ele><time>2026-03-28T12:28:23.532Z</time></trkpt><trkpt lat="40.8819067" lon="15.3389767"><ele>413.0</ele><time>2026-03-28T12:28:24.531Z</time></trkpt><trkpt lat="40.8818483" lon="15.3388517"><ele>413.0</ele><time>2026-03-28T12:28:25.531Z</time></trkpt><trkpt lat="40.8817983" lon="15.3387183"><ele>413.0</ele><time>2026-03-28T12:28:26.532Z</time></trkpt><trkpt lat="40.8817517" lon="15.3385817"><ele>413.0</ele><time>2026-03-28T12:28:27.532Z</time></trkpt><trkpt lat="40.881715" lon="15.3384483"><ele>413.0</ele><time>2026-03-28T12:28:28.531Z</time></trkpt><trkpt lat="40.8816817" lon="15.3383267"><ele>413.0</ele><time>2026-03-28T12:28:29.532Z</time></trkpt><trkpt lat="40.8816583" lon="15.3382117"><ele>413.0</ele><time>2026-03-28T12:28:30.532Z</time></trkpt><trkpt lat="40.8816483" lon="15.3381117"><ele>413.0</ele><time>2026-03-28T12:28:31.532Z</time></trkpt><trkpt lat="40.8816517" lon="15.338025"><ele>413.0</ele><time>2026-03-28T12:28:32.531Z</time></trkpt><trkpt lat="40.8817117" lon="15.3378817"><ele>413.2</ele><time>2026-03-28T12:28:34.531Z</time></trkpt><trkpt lat="40.881775" lon="15.33781"><ele>413.4</ele><time>2026-03-28T12:28:35.532Z</time></trkpt><trkpt lat="40.8818617" lon="15.33774"><ele>413.59999999999997</ele><time>2026-03-28T12:28:36.532Z</time></trkpt><trkpt lat="40.88196" lon="15.3376483"><ele>413.79999999999995</ele><time>2026-03-28T12:28:37.531Z</time></trkpt><trkpt lat="40.8820583" lon="15.3375533"><ele>414.0</ele><time>2026-03-28T12:28:38.531Z</time></trkpt><trkpt lat="40.8821617" lon="15.3374467"><ele>414.0</ele><time>2026-03-28T12:28:39.531Z</time></trkpt><trkpt lat="40.8822633" lon="15.33732"><ele>414.0</ele><time>2026-03-28T12:28:40.531Z</time></trkpt><trkpt lat="40.8823583" lon="15.337175"><ele>414.0</ele><time>2026-03-28T12:28:41.531Z</time></trkpt><trkpt lat="40.882445" lon="15.3370183"><ele>414.0</ele><time>2026-03-28T12:28:42.532Z</time></trkpt><trkpt lat="40.882525" lon="15.3368567"><ele>415.66666666666663</ele><time>2026-03-28T12:28:43.531Z</time></trkpt><trkpt lat="40.8826" lon="15.3366817"><ele>417.3333333333333</ele><time>2026-03-28T12:28:44.531Z</time></trkpt><trkpt lat="40.88267" lon="15.3365"><ele>419.0</ele><time>2026-03-28T12:28:45.531Z</time></trkpt><trkpt lat="40.882725" lon="15.336315"><ele>419.0</ele><time>2026-03-28T12:28:46.531Z</time></trkpt><trkpt lat="40.8827683" lon="15.3361283"><ele>419.0</ele><time>2026-03-28T12:28:47.531Z</time></trkpt><trkpt lat="40.8828033" lon="15.335925"><ele>419.0</ele><time>2026-03-28T12:28:48.532Z</time></trkpt><trkpt lat="40.882825" lon="15.3357033"><ele>420.0</ele><time>2026-03-28T12:28:49.532Z</time></trkpt><trkpt lat="40.88283" lon="15.3354717"><ele>421.0</ele><time>2026-03-28T12:28:50.531Z</time></trkpt><trkpt lat="40.88282" lon="15.335235"><ele>422.0</ele><time>2026-03-28T12:28:51.532Z</time></trkpt><trkpt lat="40.8827917" lon="15.3349983"><ele>422.0</ele><time>2026-03-28T12:28:52.532Z</time></trkpt><trkpt lat="40.8827633" lon="15.3347683"><ele>422.0</ele><time>2026-03-28T12:28:53.531Z</time></trkpt><trkpt lat="40.88273" lon="15.3345567"><ele>422.0</ele><time>2026-03-28T12:28:54.532Z</time></trkpt><trkpt lat="40.8826917" lon="15.3343533"><ele>422.0</ele><time>2026-03-28T12:28:55.532Z</time></trkpt><trkpt lat="40.88265" lon="15.3341483"><ele>422.0</ele><time>2026-03-28T12:28:56.532Z</time></trkpt><trkpt lat="40.8826117" lon="15.33393"><ele>422.0</ele><time>2026-03-28T12:28:57.531Z</time></trkpt><trkpt lat="40.88257" lon="15.3337167"><ele>422.0</ele><time>2026-03-28T12:28:58.532Z</time></trkpt><trkpt lat="40.8825317" lon="15.3334983"><ele>422.0</ele><time>2026-03-28T12:28:59.532Z</time></trkpt><trkpt lat="40.8824883" lon="15.3332883"><ele>422.0</ele><time>2026-03-28T12:29:00.531Z</time></trkpt><trkpt lat="40.8824483" lon="15.3330867"><ele>421.0</ele><time>2026-03-28T12:29:01.532Z</time></trkpt><trkpt lat="40.8824083" lon="15.332885"><ele>420.0</ele><time>2026-03-28T12:29:02.532Z</time></trkpt><trkpt lat="40.882365" lon="15.33268"><ele>419.0</ele><time>2026-03-28T12:29:03.532Z</time></trkpt><trkpt lat="40.8823267" lon="15.3324683"><ele>419.0</ele><time>2026-03-28T12:29:04.531Z</time></trkpt><trkpt lat="40.8822817" lon="15.332255"><ele>419.0</ele><time>2026-03-28T12:29:05.532Z</time></trkpt><trkpt lat="40.8822383" lon="15.3320333"><ele>419.0</ele><time>2026-03-28T12:29:06.532Z</time></trkpt><trkpt lat="40.8822" lon="15.33181"><ele>419.3333333333333</ele><time>2026-03-28T12:29:07.532Z</time></trkpt><trkpt lat="40.8821583" lon="15.3316"><ele>419.66666666666663</ele><time>2026-03-28T12:29:08.531Z</time></trkpt><trkpt lat="40.882125" lon="15.3313883"><ele>420.0</ele><time>2026-03-28T12:29:09.532Z</time></trkpt><trkpt lat="40.882085" lon="15.3311833"><ele>420.0</ele><time>2026-03-28T12:29:10.532Z</time></trkpt><trkpt lat="40.8820383" lon="15.3309767"><ele>420.0</ele><time>2026-03-28T12:29:11.531Z</time></trkpt><trkpt lat="40.8819967" lon="15.3307667"><ele>420.0</ele><time>2026-03-28T12:29:12.531Z</time></trkpt><trkpt lat="40.8819567" lon="15.33056"><ele>423.66666666666663</ele><time>2026-03-28T12:29:13.532Z</time></trkpt><trkpt lat="40.8819167" lon="15.3303533"><ele>427.3333333333333</ele><time>2026-03-28T12:29:14.531Z</time></trkpt><trkpt lat="40.88188" lon="15.3301383"><ele>431.0</ele><time>2026-03-28T12:29:15.532Z</time></trkpt><trkpt lat="40.881855" lon="15.3299167"><ele>435.0</ele><time>2026-03-28T12:29:16.532Z</time></trkpt><trkpt lat="40.881835" lon="15.3297033"><ele>439.0</ele><time>2026-03-28T12:29:17.532Z</time></trkpt><trkpt lat="40.8818217" lon="15.3294883"><ele>443.0</ele><time>2026-03-28T12:29:18.532Z</time></trkpt><trkpt lat="40.8818183" lon="15.3292733"><ele>443.0</ele><time>2026-03-28T12:29:19.531Z</time></trkpt><trkpt lat="40.88182" lon="15.3290567"><ele>443.0</ele><time>2026-03-28T12:29:20.532Z</time></trkpt><trkpt lat="40.8818283" lon="15.3288433"><ele>443.0</ele><time>2026-03-28T12:29:21.532Z</time></trkpt><trkpt lat="40.881835" lon="15.328635"><ele>443.3333333333333</ele><time>2026-03-28T12:29:22.532Z</time></trkpt><trkpt lat="40.881855" lon="15.3284167"><ele>443.66666666666663</ele><time>2026-03-28T12:29:23.531Z</time></trkpt><trkpt lat="40.8818867" lon="15.3282"><ele>444.0</ele><time>2026-03-28T12:29:24.531Z</time></trkpt><trkpt lat="40.8819283" lon="15.3279883"><ele>444.0</ele><time>2026-03-28T12:29:25.531Z</time></trkpt><trkpt lat="40.88197" lon="15.327775"><ele>444.0</ele><time>2026-03-28T12:29:26.532Z</time></trkpt><trkpt lat="40.8820183" lon="15.3275633"><ele>444.0</ele><time>2026-03-28T12:29:27.532Z</time></trkpt><trkpt lat="40.882075" lon="15.327375"><ele>443.0</ele><time>2026-03-28T12:29:28.531Z</time></trkpt><trkpt lat="40.88214" lon="15.3271933"><ele>442.0</ele><time>2026-03-28T12:29:29.531Z</time></trkpt><trkpt lat="40.88221" lon="15.3270117"><ele>441.0</ele><time>2026-03-28T12:29:30.532Z</time></trkpt><trkpt lat="40.8822867" lon="15.3268267"><ele>441.0</ele><time>2026-03-28T12:29:31.531Z</time></trkpt><trkpt lat="40.8823683" lon="15.3266517"><ele>441.0</ele><time>2026-03-28T12:29:32.531Z</time></trkpt><trkpt lat="40.8824483" lon="15.326485"><ele>441.0</ele><time>2026-03-28T12:29:33.532Z</time></trkpt><trkpt lat="40.88252" lon="15.3263283"><ele>441.0</ele><time>2026-03-28T12:29:34.532Z</time></trkpt><trkpt lat="40.8826017" lon="15.3261517"><ele>447.0</ele><time>2026-03-28T12:29:35.532Z</time></trkpt><trkpt lat="40.882685" lon="15.3259717"><ele>453.0</ele><time>2026-03-28T12:29:36.531Z</time></trkpt><trkpt lat="40.8827667" lon="15.3257983"><ele>459.0</ele><time>2026-03-28T12:29:37.532Z</time></trkpt><trkpt lat="40.8828467" lon="15.325625"><ele>459.66666666666663</ele><time>2026-03-28T12:29:38.531Z</time></trkpt><trkpt lat="40.88293" lon="15.3254533"><ele>460.3333333333333</ele><time>2026-03-28T12:29:39.532Z</time></trkpt><trkpt lat="40.8830083" lon="15.3252767"><ele>461.0</ele><time>2026-03-28T12:29:40.532Z</time></trkpt><trkpt lat="40.883085" lon="15.3251067"><ele>461.0</ele><time>2026-03-28T12:29:41.531Z</time></trkpt><trkpt lat="40.8831667" lon="15.324935"><ele>461.0</ele><time>2026-03-28T12:29:42.531Z</time></trkpt><trkpt lat="40.8832483" lon="15.32477"><ele>461.0</ele><time>2026-03-28T12:29:43.532Z</time></trkpt><trkpt lat="40.8833283" lon="15.3245967"><ele>460.75</ele><time>2026-03-28T12:29:44.532Z</time></trkpt><trkpt lat="40.88341" lon="15.3244333"><ele>460.5</ele><time>2026-03-28T12:29:45.532Z</time></trkpt><trkpt lat="40.8834867" lon="15.324265"><ele>460.25</ele><time>2026-03-28T12:29:46.531Z</time></trkpt><trkpt lat="40.8835617" lon="15.3241067"><ele>460.0</ele><time>2026-03-28T12:29:47.531Z</time></trkpt><trkpt lat="40.8836333" lon="15.3239533"><ele>458.0</ele><time>2026-03-28T12:29:48.532Z</time></trkpt><trkpt lat="40.8837017" lon="15.3237917"><ele>456.0</ele><time>2026-03-28T12:29:49.531Z</time></trkpt><trkpt lat="40.88378" lon="15.3236433"><ele>454.0</ele><time>2026-03-28T12:29:50.531Z</time></trkpt><trkpt lat="40.8838683" lon="15.3234983"><ele>452.0</ele><time>2026-03-28T12:29:51.531Z</time></trkpt><trkpt lat="40.8839617" lon="15.3233517"><ele>452.0</ele><time>2026-03-28T12:29:52.532Z</time></trkpt><trkpt lat="40.884055" lon="15.3232183"><ele>452.0</ele><time>2026-03-28T12:29:53.532Z</time></trkpt><trkpt lat="40.88415" lon="15.3230983"><ele>452.0</ele><time>2026-03-28T12:29:54.532Z</time></trkpt><trkpt lat="40.884245" lon="15.3229833"><ele>452.0</ele><time>2026-03-28T12:29:55.532Z</time></trkpt><trkpt lat="40.8843517" lon="15.3228633"><ele>455.0</ele><time>2026-03-28T12:29:56.532Z</time></trkpt><trkpt lat="40.8844633" lon="15.3227467"><ele>458.0</ele><time>2026-03-28T12:29:57.531Z</time></trkpt><trkpt lat="40.884585" lon="15.322645"><ele>461.0</ele><time>2026-03-28T12:29:58.531Z</time></trkpt><trkpt lat="40.8847083" lon="15.3225433"><ele>464.0</ele><time>2026-03-28T12:29:59.531Z</time></trkpt><trkpt lat="40.8848383" lon="15.3224533"><ele>464.0</ele><time>2026-03-28T12:30:00.531Z</time></trkpt><trkpt lat="40.8849683" lon="15.3223717"><ele>464.0</ele><time>2026-03-28T12:30:01.531Z</time></trkpt><trkpt lat="40.8850967" lon="15.3223033"><ele>464.0</ele><time>2026-03-28T12:30:02.532Z</time></trkpt><trkpt lat="40.8852333" lon="15.3222383"><ele>464.0</ele><time>2026-03-28T12:30:03.532Z</time></trkpt><trkpt lat="40.8853717" lon="15.3221883"><ele>461.3333333333333</ele><time>2026-03-28T12:30:04.531Z</time></trkpt><trkpt lat="40.8855167" lon="15.32215"><ele>458.66666666666663</ele><time>2026-03-28T12:30:05.532Z</time></trkpt><trkpt lat="40.8856633" lon="15.322115"><ele>456.0</ele><time>2026-03-28T12:30:06.531Z</time></trkpt><trkpt lat="40.885815" lon="15.322085"><ele>457.0</ele><time>2026-03-28T12:30:07.532Z</time></trkpt><trkpt lat="40.8859667" lon="15.3220667"><ele>458.0</ele><time>2026-03-28T12:30:08.531Z</time></trkpt><trkpt lat="40.8861183" lon="15.3220667"><ele>459.0</ele><time>2026-03-28T12:30:09.531Z</time></trkpt><trkpt lat="40.8862717" lon="15.322075"><ele>459.0</ele><time>2026-03-28T12:30:10.531Z</time></trkpt><trkpt lat="40.8864167" lon="15.3220933"><ele>459.0</ele><time>2026-03-28T12:30:11.532Z</time></trkpt><trkpt lat="40.8865617" lon="15.3221133"><ele>459.0</ele><time>2026-03-28T12:30:12.532Z</time></trkpt><trkpt lat="40.8867033" lon="15.32215"><ele>459.0</ele><time>2026-03-28T12:30:13.532Z</time></trkpt><trkpt lat="40.886845" lon="15.322195"><ele>459.75</ele><time>2026-03-28T12:30:14.532Z</time></trkpt><trkpt lat="40.8869867" lon="15.3222567"><ele>460.5</ele><time>2026-03-28T12:30:15.531Z</time></trkpt><trkpt lat="40.887125" lon="15.3223233"><ele>461.25</ele><time>2026-03-28T12:30:16.532Z</time></trkpt><trkpt lat="40.8872633" lon="15.3223967"><ele>462.0</ele><time>2026-03-28T12:30:17.531Z</time></trkpt><trkpt lat="40.8873967" lon="15.3224783"><ele>462.0</ele><time>2026-03-28T12:30:18.532Z</time></trkpt><trkpt lat="40.88753" lon="15.3225717"><ele>462.0</ele><time>2026-03-28T12:30:19.532Z</time></trkpt><trkpt lat="40.8876533" lon="15.3226683"><ele>462.0</ele><time>2026-03-28T12:30:20.532Z</time></trkpt><trkpt lat="40.8877817" lon="15.32278"><ele>462.0</ele><time>2026-03-28T12:30:21.531Z</time></trkpt><trkpt lat="40.88791" lon="15.3229"><ele>464.0</ele><time>2026-03-28T12:30:22.532Z</time></trkpt><trkpt lat="40.88803" lon="15.3230417"><ele>466.0</ele><time>2026-03-28T12:30:23.531Z</time></trkpt><trkpt lat="40.8881433" lon="15.32319"><ele>468.0</ele><time>2026-03-28T12:30:24.532Z</time></trkpt><trkpt lat="40.888255" lon="15.3233467"><ele>468.0</ele><time>2026-03-28T12:30:25.532Z</time></trkpt><trkpt lat="40.88836" lon="15.323505"><ele>468.0</ele><time>2026-03-28T12:30:26.532Z</time></trkpt><trkpt lat="40.8884517" lon="15.323675"><ele>468.0</ele><time>2026-03-28T12:30:27.531Z</time></trkpt><trkpt lat="40.888535" lon="15.32385"><ele>467.0</ele><time>2026-03-28T12:30:28.532Z</time></trkpt><trkpt lat="40.8886133" lon="15.324035"><ele>466.0</ele><time>2026-03-28T12:30:29.531Z</time></trkpt><trkpt lat="40.8886867" lon="15.3242233"><ele>465.0</ele><time>2026-03-28T12:30:30.532Z</time></trkpt><trkpt lat="40.888755" lon="15.3244217"><ele>465.0</ele><time>2026-03-28T12:30:31.531Z</time></trkpt><trkpt lat="40.8888183" lon="15.3246167"><ele>465.0</ele><time>2026-03-28T12:30:32.532Z</time></trkpt><trkpt lat="40.8888783" lon="15.3248033"><ele>465.0</ele><time>2026-03-28T12:30:33.532Z</time></trkpt><trkpt lat="40.8889417" lon="15.32499"><ele>465.0</ele><time>2026-03-28T12:30:34.532Z</time></trkpt><trkpt lat="40.8890083" lon="15.3251717"><ele>465.0</ele><time>2026-03-28T12:30:35.531Z</time></trkpt><trkpt lat="40.8890833" lon="15.325355"><ele>465.0</ele><time>2026-03-28T12:30:36.531Z</time></trkpt><trkpt lat="40.8891633" lon="15.3255317"><ele>467.0</ele><time>2026-03-28T12:30:37.531Z</time></trkpt><trkpt lat="40.8892467" lon="15.3256983"><ele>469.0</ele><time>2026-03-28T12:30:38.532Z</time></trkpt><trkpt lat="40.8893417" lon="15.325855"><ele>471.0</ele><time>2026-03-28T12:30:39.532Z</time></trkpt><trkpt lat="40.8894467" lon="15.3260033"><ele>471.0</ele><time>2026-03-28T12:30:40.532Z</time></trkpt><trkpt lat="40.8895617" lon="15.3261467"><ele>471.0</ele><time>2026-03-28T12:30:41.532Z</time></trkpt><trkpt lat="40.8896867" lon="15.3262767"><ele>471.0</ele><time>2026-03-28T12:30:42.532Z</time></trkpt><trkpt lat="40.88982" lon="15.326405"><ele>472.33333333333337</ele><time>2026-03-28T12:30:43.532Z</time></trkpt><trkpt lat="40.8899667" lon="15.326515"><ele>473.6666666666667</ele><time>2026-03-28T12:30:44.532Z</time></trkpt><trkpt lat="40.8901133" lon="15.3266133"><ele>475.0</ele><time>2026-03-28T12:30:45.532Z</time></trkpt><trkpt lat="40.8902667" lon="15.3266933"><ele>475.0</ele><time>2026-03-28T12:30:46.532Z</time></trkpt><trkpt lat="40.8904267" lon="15.32676"><ele>475.0</ele><time>2026-03-28T12:30:47.532Z</time></trkpt><trkpt lat="40.890595" lon="15.3268117"><ele>475.0</ele><time>2026-03-28T12:30:48.531Z</time></trkpt><trkpt lat="40.8907683" lon="15.3268467"><ele>474.0</ele><time>2026-03-28T12:30:49.532Z</time></trkpt><trkpt lat="40.8909417" lon="15.3268617"><ele>473.0</ele><time>2026-03-28T12:30:50.532Z</time></trkpt><trkpt lat="40.89113" lon="15.3268583"><ele>472.0</ele><time>2026-03-28T12:30:51.531Z</time></trkpt><trkpt lat="40.8913133" lon="15.3268367"><ele>472.0</ele><time>2026-03-28T12:30:52.532Z</time></trkpt><trkpt lat="40.8915033" lon="15.3268067"><ele>472.0</ele><time>2026-03-28T12:30:53.532Z</time></trkpt><trkpt lat="40.8916883" lon="15.326755"><ele>472.0</ele><time>2026-03-28T12:30:54.531Z</time></trkpt><trkpt lat="40.8918767" lon="15.3266967"><ele>473.0</ele><time>2026-03-28T12:30:55.532Z</time></trkpt><trkpt lat="40.89206" lon="15.3266517"><ele>474.0</ele><time>2026-03-28T12:30:56.531Z</time></trkpt><trkpt lat="40.8922383" lon="15.326605"><ele>475.0</ele><time>2026-03-28T12:30:57.532Z</time></trkpt><trkpt lat="40.8924167" lon="15.3265583"><ele>475.0</ele><time>2026-03-28T12:30:58.531Z</time></trkpt><trkpt lat="40.8925883" lon="15.3265133"><ele>475.0</ele><time>2026-03-28T12:30:59.531Z</time></trkpt><trkpt lat="40.8927517" lon="15.3264717"><ele>475.0</ele><time>2026-03-28T12:31:00.531Z</time></trkpt><trkpt lat="40.8929133" lon="15.3264317"><ele>477.33333333333337</ele><time>2026-03-28T12:31:01.532Z</time></trkpt><trkpt lat="40.8930767" lon="15.32639"><ele>479.66666666666663</ele><time>2026-03-28T12:31:02.532Z</time></trkpt><trkpt lat="40.89324" lon="15.3263483"><ele>482.0</ele><time>2026-03-28T12:31:03.531Z</time></trkpt><trkpt lat="40.8934033" lon="15.3262967"><ele>480.3333333333333</ele><time>2026-03-28T12:31:04.532Z</time></trkpt><trkpt lat="40.8935667" lon="15.3262467"><ele>478.66666666666663</ele><time>2026-03-28T12:31:05.532Z</time></trkpt><trkpt lat="40.8937333" lon="15.3262017"><ele>477.0</ele><time>2026-03-28T12:31:06.532Z</time></trkpt><trkpt lat="40.8939017" lon="15.3261517"><ele>477.0</ele><time>2026-03-28T12:31:07.532Z</time></trkpt><trkpt lat="40.8940667" lon="15.3261067"><ele>477.0</ele><time>2026-03-28T12:31:08.532Z</time></trkpt><trkpt lat="40.8942283" lon="15.3260533"><ele>477.0</ele><time>2026-03-28T12:31:09.532Z</time></trkpt><trkpt lat="40.8943917" lon="15.3259933"><ele>477.5</ele><time>2026-03-28T12:31:10.532Z</time></trkpt><trkpt lat="40.8945383" lon="15.3259283"><ele>478.0</ele><time>2026-03-28T12:31:11.532Z</time></trkpt><trkpt lat="40.89468" lon="15.3258483"><ele>478.5</ele><time>2026-03-28T12:31:12.532Z</time></trkpt><trkpt lat="40.894805" lon="15.3257717"><ele>479.0</ele><time>2026-03-28T12:31:13.532Z</time></trkpt><trkpt lat="40.8949317" lon="15.3256817"><ele>479.0</ele><time>2026-03-28T12:31:14.531Z</time></trkpt><trkpt lat="40.89506" lon="15.3255817"><ele>479.0</ele><time>2026-03-28T12:31:15.531Z</time></trkpt><trkpt lat="40.895185" lon="15.325475"><ele>479.0</ele><time>2026-03-28T12:31:16.531Z</time></trkpt><trkpt lat="40.8952983" lon="15.3253517"><ele>479.0</ele><time>2026-03-28T12:31:17.531Z</time></trkpt><trkpt lat="40.89541" lon="15.3252167"><ele>479.0</ele><time>2026-03-28T12:31:18.532Z</time></trkpt><trkpt lat="40.8955233" lon="15.3250733"><ele>479.0</ele><time>2026-03-28T12:31:19.531Z</time></trkpt><trkpt lat="40.8956317" lon="15.3249133"><ele>479.0</ele><time>2026-03-28T12:31:20.531Z</time></trkpt><trkpt lat="40.8957417" lon="15.32473"><ele>478.66666666666663</ele><time>2026-03-28T12:31:21.531Z</time></trkpt><trkpt lat="40.8958483" lon="15.3245333"><ele>478.33333333333337</ele><time>2026-03-28T12:31:22.531Z</time></trkpt><trkpt lat="40.89596" lon="15.3243117"><ele>478.0</ele><time>2026-03-28T12:31:23.531Z</time></trkpt><trkpt lat="40.8960733" lon="15.3241017"><ele>478.0</ele><time>2026-03-28T12:31:24.531Z</time></trkpt><trkpt lat="40.89618" lon="15.3239"><ele>478.0</ele><time>2026-03-28T12:31:25.532Z</time></trkpt><trkpt lat="40.8962833" lon="15.3236917"><ele>478.0</ele><time>2026-03-28T12:31:26.531Z</time></trkpt><trkpt lat="40.8963867" lon="15.3235"><ele>479.6666666666667</ele><time>2026-03-28T12:31:27.531Z</time></trkpt><trkpt lat="40.8964867" lon="15.3233033"><ele>481.33333333333337</ele><time>2026-03-28T12:31:28.532Z</time></trkpt><trkpt lat="40.8965867" lon="15.3231083"><ele>483.0</ele><time>2026-03-28T12:31:29.532Z</time></trkpt><trkpt lat="40.8966933" lon="15.3229167"><ele>484.0</ele><time>2026-03-28T12:31:30.531Z</time></trkpt><trkpt lat="40.8968" lon="15.3227233"><ele>485.0</ele><time>2026-03-28T12:31:31.532Z</time></trkpt><trkpt lat="40.896905" lon="15.3225283"><ele>486.0</ele><time>2026-03-28T12:31:32.532Z</time></trkpt><trkpt lat="40.8970017" lon="15.32234"><ele>488.0</ele><time>2026-03-28T12:31:33.532Z</time></trkpt><trkpt lat="40.897095" lon="15.3221617"><ele>490.0</ele><time>2026-03-28T12:31:34.532Z</time></trkpt><trkpt lat="40.8971767" lon="15.3220017"><ele>492.0</ele><time>2026-03-28T12:31:35.531Z</time></trkpt><trkpt lat="40.897255" lon="15.3218533"><ele>494.0</ele><time>2026-03-28T12:31:36.532Z</time></trkpt><trkpt lat="40.8973233" lon="15.3217133"><ele>494.0</ele><time>2026-03-28T12:31:37.532Z</time></trkpt><trkpt lat="40.8974017" lon="15.3215733"><ele>494.0</ele><time>2026-03-28T12:31:38.532Z</time></trkpt><trkpt lat="40.8974783" lon="15.3214317"><ele>494.0</ele><time>2026-03-28T12:31:39.532Z</time></trkpt><trkpt lat="40.8975533" lon="15.3212967"><ele>494.0</ele><time>2026-03-28T12:31:40.532Z</time></trkpt><trkpt lat="40.89764" lon="15.3211633"><ele>496.5</ele><time>2026-03-28T12:31:41.532Z</time></trkpt><trkpt lat="40.8977317" lon="15.321025"><ele>499.0</ele><time>2026-03-28T12:31:42.531Z</time></trkpt><trkpt lat="40.8978233" lon="15.320905"><ele>501.5</ele><time>2026-03-28T12:31:43.532Z</time></trkpt><trkpt lat="40.8979167" lon="15.3207917"><ele>504.0</ele><time>2026-03-28T12:31:44.532Z</time></trkpt><trkpt lat="40.89801" lon="15.3206883"><ele>504.0</ele><time>2026-03-28T12:31:45.531Z</time></trkpt><trkpt lat="40.8981033" lon="15.3206"><ele>504.0</ele><time>2026-03-28T12:31:46.532Z</time></trkpt><trkpt lat="40.8981933" lon="15.3205333"><ele>504.0</ele><time>2026-03-28T12:31:47.531Z</time></trkpt><trkpt lat="40.898275" lon="15.3204733"><ele>504.0</ele><time>2026-03-28T12:31:48.532Z</time></trkpt><trkpt lat="40.8983483" lon="15.3204217"><ele>504.0</ele><time>2026-03-28T12:31:49.532Z</time></trkpt><trkpt lat="40.89841" lon="15.3203717"><ele>505.6666666666667</ele><time>2026-03-28T12:31:50.531Z</time></trkpt><trkpt lat="40.898475" lon="15.32025"><ele>507.33333333333337</ele><time>2026-03-28T12:31:52.532Z</time></trkpt><trkpt lat="40.8984683" lon="15.3201183"><ele>509.0</ele><time>2026-03-28T12:31:54.531Z</time></trkpt><trkpt lat="40.8984333" lon="15.3200483"><ele>510.6666666666667</ele><time>2026-03-28T12:31:55.531Z</time></trkpt><trkpt lat="40.8983767" lon="15.3199883"><ele>512.3333333333334</ele><time>2026-03-28T12:31:56.531Z</time></trkpt><trkpt lat="40.8983017" lon="15.31994"><ele>514.0</ele><time>2026-03-28T12:31:57.532Z</time></trkpt><trkpt lat="40.8982183" lon="15.3198983"><ele>514.0</ele><time>2026-03-28T12:31:58.532Z</time></trkpt><trkpt lat="40.89813" lon="15.3198667"><ele>514.0</ele><time>2026-03-28T12:31:59.532Z</time></trkpt><trkpt lat="40.8980333" lon="15.3198533"><ele>514.0</ele><time>2026-03-28T12:32:00.531Z</time></trkpt><trkpt lat="40.8979267" lon="15.3198617"><ele>514.0</ele><time>2026-03-28T12:32:01.532Z</time></trkpt><trkpt lat="40.8978233" lon="15.319875"><ele>514.0</ele><time>2026-03-28T12:32:02.532Z</time></trkpt><trkpt lat="40.8977167" lon="15.3198917"><ele>514.0</ele><time>2026-03-28T12:32:03.532Z</time></trkpt><trkpt lat="40.897605" lon="15.31991"><ele>514.0</ele><time>2026-03-28T12:32:04.532Z</time></trkpt><trkpt lat="40.8974967" lon="15.3199283"><ele>514.0</ele><time>2026-03-28T12:32:05.532Z</time></trkpt><trkpt lat="40.897395" lon="15.3199583"><ele>514.0</ele><time>2026-03-28T12:32:06.532Z</time></trkpt><trkpt lat="40.8972967" lon="15.3199983"><ele>514.0</ele><time>2026-03-28T12:32:07.532Z</time></trkpt><trkpt lat="40.8972083" lon="15.3200517"><ele>513.4</ele><time>2026-03-28T12:32:08.531Z</time></trkpt><trkpt lat="40.8971183" lon="15.32011"><ele>512.8</ele><time>2026-03-28T12:32:09.532Z</time></trkpt><trkpt lat="40.8970317" lon="15.320175"><ele>512.2</ele><time>2026-03-28T12:32:10.532Z</time></trkpt><trkpt lat="40.89695" lon="15.32024"><ele>511.6</ele><time>2026-03-28T12:32:11.532Z</time></trkpt><trkpt lat="40.896865" lon="15.3202933"><ele>511.0</ele><time>2026-03-28T12:32:12.532Z</time></trkpt><trkpt lat="40.8967783" lon="15.32033"><ele>510.1666666666667</ele><time>2026-03-28T12:32:13.531Z</time></trkpt><trkpt lat="40.8966917" lon="15.3203383"><ele>509.33333333333337</ele><time>2026-03-28T12:32:14.531Z</time></trkpt><trkpt lat="40.8966117" lon="15.3203117"><ele>508.5</ele><time>2026-03-28T12:32:15.531Z</time></trkpt><trkpt lat="40.896535" lon="15.3202583"><ele>507.66666666666663</ele><time>2026-03-28T12:32:16.531Z</time></trkpt><trkpt lat="40.8964683" lon="15.3201783"><ele>506.8333333333333</ele><time>2026-03-28T12:32:17.531Z</time></trkpt><trkpt lat="40.89642" lon="15.3200783"><ele>506.0</ele><time>2026-03-28T12:32:18.532Z</time></trkpt><trkpt lat="40.8963917" lon="15.31995"><ele>506.0</ele><time>2026-03-28T12:32:19.532Z</time></trkpt><trkpt lat="40.8963783" lon="15.3198017"><ele>506.0</ele><time>2026-03-28T12:32:20.531Z</time></trkpt><trkpt lat="40.8963783" lon="15.3196433"><ele>506.0</ele><time>2026-03-28T12:32:21.531Z</time></trkpt><trkpt lat="40.8963833" lon="15.3194867"><ele>506.0</ele><time>2026-03-28T12:32:22.532Z</time></trkpt><trkpt lat="40.896385" lon="15.3193383"><ele>506.5</ele><time>2026-03-28T12:32:23.532Z</time></trkpt><trkpt lat="40.8963833" lon="15.3191933"><ele>507.0</ele><time>2026-03-28T12:32:24.532Z</time></trkpt><trkpt lat="40.8963833" lon="15.3190417"><ele>507.5</ele><time>2026-03-28T12:32:25.532Z</time></trkpt><trkpt lat="40.896385" lon="15.3188917"><ele>508.0</ele><time>2026-03-28T12:32:26.531Z</time></trkpt><trkpt lat="40.896375" lon="15.3187333"><ele>508.0</ele><time>2026-03-28T12:32:27.531Z</time></trkpt><trkpt lat="40.8963517" lon="15.3185683"><ele>508.0</ele><time>2026-03-28T12:32:28.532Z</time></trkpt><trkpt lat="40.8963" lon="15.3184133"><ele>508.0</ele><time>2026-03-28T12:32:29.532Z</time></trkpt><trkpt lat="40.8962267" lon="15.3182633"><ele>508.0</ele><time>2026-03-28T12:32:30.532Z</time></trkpt><trkpt lat="40.8961317" lon="15.31812"><ele>508.33333333333337</ele><time>2026-03-28T12:32:31.532Z</time></trkpt><trkpt lat="40.8960283" lon="15.3179733"><ele>508.66666666666663</ele><time>2026-03-28T12:32:32.531Z</time></trkpt><trkpt lat="40.8959267" lon="15.31782"><ele>509.0</ele><time>2026-03-28T12:32:33.532Z</time></trkpt><trkpt lat="40.8958333" lon="15.3176583"><ele>507.0</ele><time>2026-03-28T12:32:34.531Z</time></trkpt><trkpt lat="40.895745" lon="15.3175017"><ele>505.0</ele><time>2026-03-28T12:32:35.532Z</time></trkpt><trkpt lat="40.8956567" lon="15.3173467"><ele>503.0</ele><time>2026-03-28T12:32:36.531Z</time></trkpt><trkpt lat="40.895565" lon="15.3171883"><ele>501.0</ele><time>2026-03-28T12:32:37.532Z</time></trkpt><trkpt lat="40.8954783" lon="15.317035"><ele>501.0</ele><time>2026-03-28T12:32:38.531Z</time></trkpt><trkpt lat="40.8953933" lon="15.3168917"><ele>501.0</ele><time>2026-03-28T12:32:39.532Z</time></trkpt><trkpt lat="40.89531" lon="15.3167567"><ele>501.0</ele><time>2026-03-28T12:32:40.532Z</time></trkpt><trkpt lat="40.895235" lon="15.3166317"><ele>501.0</ele><time>2026-03-28T12:32:41.531Z</time></trkpt><trkpt lat="40.8951617" lon="15.3165117"><ele>499.0</ele><time>2026-03-28T12:32:42.532Z</time></trkpt><trkpt lat="40.8950867" lon="15.3163983"><ele>497.0</ele><time>2026-03-28T12:32:43.531Z</time></trkpt><trkpt lat="40.895" lon="15.316295"><ele>495.0</ele><time>2026-03-28T12:32:44.532Z</time></trkpt><trkpt lat="40.8949133" lon="15.3162117"><ele>493.0</ele><time>2026-03-28T12:32:45.532Z</time></trkpt><trkpt lat="40.89482" lon="15.316145"><ele>491.0</ele><time>2026-03-28T12:32:46.531Z</time></trkpt><trkpt lat="40.8947083" lon="15.3161"><ele>491.0</ele><time>2026-03-28T12:32:47.531Z</time></trkpt><trkpt lat="40.8945817" lon="15.3160817"><ele>491.0</ele><time>2026-03-28T12:32:48.532Z</time></trkpt><trkpt lat="40.89445" lon="15.3160833"><ele>491.0</ele><time>2026-03-28T12:32:49.532Z</time></trkpt><trkpt lat="40.8943167" lon="15.3161033"><ele>491.0</ele><time>2026-03-28T12:32:50.532Z</time></trkpt><trkpt lat="40.8941733" lon="15.31612"><ele>490.5</ele><time>2026-03-28T12:32:51.531Z</time></trkpt><trkpt lat="40.8940333" lon="15.3161517"><ele>490.0</ele><time>2026-03-28T12:32:52.532Z</time></trkpt><trkpt lat="40.8938983" lon="15.3161783"><ele>489.5</ele><time>2026-03-28T12:32:53.532Z</time></trkpt><trkpt lat="40.893775" lon="15.3162067"><ele>489.0</ele><time>2026-03-28T12:32:54.532Z</time></trkpt><trkpt lat="40.8936567" lon="15.316235"><ele>489.0</ele><time>2026-03-28T12:32:55.532Z</time></trkpt><trkpt lat="40.8935467" lon="15.3162683"><ele>489.0</ele><time>2026-03-28T12:32:56.532Z</time></trkpt><trkpt lat="40.8934367" lon="15.3162983"><ele>489.0</ele><time>2026-03-28T12:32:57.532Z</time></trkpt><trkpt lat="40.8933283" lon="15.316325"><ele>489.0</ele><time>2026-03-28T12:32:58.532Z</time></trkpt><trkpt lat="40.8932283" lon="15.3163383"><ele>489.0</ele><time>2026-03-28T12:32:59.532Z</time></trkpt><trkpt lat="40.8931317" lon="15.316345"><ele>489.0</ele><time>2026-03-28T12:33:00.531Z</time></trkpt><trkpt lat="40.8930283" lon="15.316335"><ele>489.0</ele><time>2026-03-28T12:33:01.532Z</time></trkpt><trkpt lat="40.8929283" lon="15.3163017"><ele>489.0</ele><time>2026-03-28T12:33:02.531Z</time></trkpt><trkpt lat="40.892825" lon="15.3162467"><ele>489.0</ele><time>2026-03-28T12:33:03.532Z</time></trkpt><trkpt lat="40.8927167" lon="15.316165"><ele>489.0</ele><time>2026-03-28T12:33:04.531Z</time></trkpt><trkpt lat="40.8926067" lon="15.3160767"><ele>486.75</ele><time>2026-03-28T12:33:05.531Z</time></trkpt><trkpt lat="40.8924983" lon="15.3159817"><ele>484.5</ele><time>2026-03-28T12:33:06.531Z</time></trkpt><trkpt lat="40.8923817" lon="15.3158783"><ele>482.25</ele><time>2026-03-28T12:33:07.531Z</time></trkpt><trkpt lat="40.892265" lon="15.3157733"><ele>480.0</ele><time>2026-03-28T12:33:08.531Z</time></trkpt><trkpt lat="40.8921533" lon="15.3156767"><ele>480.0</ele><time>2026-03-28T12:33:09.532Z</time></trkpt><trkpt lat="40.8920467" lon="15.31559"><ele>480.0</ele><time>2026-03-28T12:33:10.531Z</time></trkpt><trkpt lat="40.8919483" lon="15.3155033"><ele>480.0</ele><time>2026-03-28T12:33:11.532Z</time></trkpt><trkpt lat="40.8918433" lon="15.315415"><ele>480.0</ele><time>2026-03-28T12:33:12.531Z</time></trkpt><trkpt lat="40.89173" lon="15.315315"><ele>480.0</ele><time>2026-03-28T12:33:13.532Z</time></trkpt><trkpt lat="40.891615" lon="15.3152067"><ele>480.0</ele><time>2026-03-28T12:33:14.531Z</time></trkpt><trkpt lat="40.8915" lon="15.3151033"><ele>480.0</ele><time>2026-03-28T12:33:15.532Z</time></trkpt><trkpt lat="40.8913833" lon="15.3150033"><ele>480.0</ele><time>2026-03-28T12:33:16.532Z</time></trkpt><trkpt lat="40.8912667" lon="15.31492"><ele>480.0</ele><time>2026-03-28T12:33:17.531Z</time></trkpt><trkpt lat="40.8911417" lon="15.3148483"><ele>480.0</ele><time>2026-03-28T12:33:18.532Z</time></trkpt><trkpt lat="40.8910183" lon="15.3147967"><ele>480.0</ele><time>2026-03-28T12:33:19.531Z</time></trkpt><trkpt lat="40.8908967" lon="15.31476"><ele>480.0</ele><time>2026-03-28T12:33:20.532Z</time></trkpt><trkpt lat="40.8907717" lon="15.3147433"><ele>479.75</ele><time>2026-03-28T12:33:21.532Z</time></trkpt><trkpt lat="40.890645" lon="15.31475"><ele>479.5</ele><time>2026-03-28T12:33:22.531Z</time></trkpt><trkpt lat="40.89052" lon="15.31477"><ele>479.25</ele><time>2026-03-28T12:33:23.532Z</time></trkpt><trkpt lat="40.8904" lon="15.3147917"><ele>479.0</ele><time>2026-03-28T12:33:24.532Z</time></trkpt><trkpt lat="40.8902783" lon="15.31482"><ele>479.0</ele><time>2026-03-28T12:33:25.531Z</time></trkpt><trkpt lat="40.890155" lon="15.3148467"><ele>479.0</ele><time>2026-03-28T12:33:26.532Z</time></trkpt><trkpt lat="40.890035" lon="15.3148633"><ele>479.0</ele><time>2026-03-28T12:33:27.531Z</time></trkpt><trkpt lat="40.8899133" lon="15.314885"><ele>479.0</ele><time>2026-03-28T12:33:28.532Z</time></trkpt><trkpt lat="40.8898067" lon="15.3148917"><ele>478.0</ele><time>2026-03-28T12:33:29.532Z</time></trkpt><trkpt lat="40.889695" lon="15.3148833"><ele>477.0</ele><time>2026-03-28T12:33:30.532Z</time></trkpt><trkpt lat="40.889575" lon="15.3148517"><ele>476.0</ele><time>2026-03-28T12:33:31.531Z</time></trkpt><trkpt lat="40.8894583" lon="15.31481"><ele>475.0</ele><time>2026-03-28T12:33:32.532Z</time></trkpt><trkpt lat="40.889345" lon="15.314765"><ele>472.0</ele><time>2026-03-28T12:33:33.532Z</time></trkpt><trkpt lat="40.88924" lon="15.3147067"><ele>469.0</ele><time>2026-03-28T12:33:34.532Z</time></trkpt><trkpt lat="40.8891417" lon="15.3146383"><ele>466.0</ele><time>2026-03-28T12:33:35.532Z</time></trkpt><trkpt lat="40.88905" lon="15.3145717"><ele>463.0</ele><time>2026-03-28T12:33:36.531Z</time></trkpt><trkpt lat="40.8889633" lon="15.3145083"><ele>460.0</ele><time>2026-03-28T12:33:37.531Z</time></trkpt><trkpt lat="40.8888683" lon="15.3144483"><ele>460.0</ele><time>2026-03-28T12:33:38.531Z</time></trkpt><trkpt lat="40.8887683" lon="15.3144"><ele>460.0</ele><time>2026-03-28T12:33:39.532Z</time></trkpt><trkpt lat="40.8886633" lon="15.3143667"><ele>460.0</ele><time>2026-03-28T12:33:40.531Z</time></trkpt><trkpt lat="40.888545" lon="15.3143333"><ele>460.0</ele><time>2026-03-28T12:33:41.531Z</time></trkpt><trkpt lat="40.8884317" lon="15.314295"><ele>460.25</ele><time>2026-03-28T12:33:42.532Z</time></trkpt><trkpt lat="40.8883167" lon="15.3142517"><ele>460.5</ele><time>2026-03-28T12:33:43.531Z</time></trkpt><trkpt lat="40.8882033" lon="15.3142133"><ele>460.75</ele><time>2026-03-28T12:33:44.531Z</time></trkpt><trkpt lat="40.88808" lon="15.3141867"><ele>461.0</ele><time>2026-03-28T12:33:45.532Z</time></trkpt><trkpt lat="40.8879533" lon="15.314155"><ele>461.0</ele><time>2026-03-28T12:33:46.532Z</time></trkpt><trkpt lat="40.8878233" lon="15.3141233"><ele>461.0</ele><time>2026-03-28T12:33:47.532Z</time></trkpt><trkpt lat="40.8876983" lon="15.3140917"><ele>461.0</ele><time>2026-03-28T12:33:48.532Z</time></trkpt><trkpt lat="40.8875783" lon="15.31406"><ele>461.0</ele><time>2026-03-28T12:33:49.532Z</time></trkpt><trkpt lat="40.88746" lon="15.3140233"><ele>460.6</ele><time>2026-03-28T12:33:50.532Z</time></trkpt><trkpt lat="40.8873483" lon="15.3139917"><ele>460.20000000000005</ele><time>2026-03-28T12:33:51.532Z</time></trkpt><trkpt lat="40.8872383" lon="15.3139567"><ele>459.79999999999995</ele><time>2026-03-28T12:33:52.532Z</time></trkpt><trkpt lat="40.887135" lon="15.3139267"><ele>459.4</ele><time>2026-03-28T12:33:53.531Z</time></trkpt><trkpt lat="40.8870367" lon="15.31389"><ele>459.0</ele><time>2026-03-28T12:33:54.531Z</time></trkpt><trkpt lat="40.88694" lon="15.3138417"><ele>457.2</ele><time>2026-03-28T12:33:55.531Z</time></trkpt><trkpt lat="40.8868483" lon="15.3137833"><ele>455.4</ele><time>2026-03-28T12:33:56.532Z</time></trkpt><trkpt lat="40.8867567" lon="15.31372"><ele>453.6</ele><time>2026-03-28T12:33:57.532Z</time></trkpt><trkpt lat="40.886665" lon="15.3136383"><ele>451.8</ele><time>2026-03-28T12:33:58.532Z</time></trkpt><trkpt lat="40.8865783" lon="15.3135483"><ele>450.0</ele><time>2026-03-28T12:33:59.531Z</time></trkpt><trkpt lat="40.8864983" lon="15.3134417"><ele>449.2</ele><time>2026-03-28T12:34:00.532Z</time></trkpt><trkpt lat="40.8864267" lon="15.3133217"><ele>448.4</ele><time>2026-03-28T12:34:01.532Z</time></trkpt><trkpt lat="40.8863633" lon="15.3131983"><ele>447.6</ele><time>2026-03-28T12:34:02.531Z</time></trkpt><trkpt lat="40.88631" lon="15.3130717"><ele>446.8</ele><time>2026-03-28T12:34:03.532Z</time></trkpt><trkpt lat="40.8862683" lon="15.3129417"><ele>446.0</ele><time>2026-03-28T12:34:04.531Z</time></trkpt><trkpt lat="40.8862317" lon="15.3128133"><ele>444.6</ele><time>2026-03-28T12:34:05.531Z</time></trkpt><trkpt lat="40.886205" lon="15.3126867"><ele>443.20000000000005</ele><time>2026-03-28T12:34:06.532Z</time></trkpt><trkpt lat="40.8861883" lon="15.31257"><ele>441.79999999999995</ele><time>2026-03-28T12:34:07.532Z</time></trkpt><trkpt lat="40.88618" lon="15.3124667"><ele>440.4</ele><time>2026-03-28T12:34:08.531Z</time></trkpt><trkpt lat="40.88618" lon="15.31231"><ele>439.0</ele><time>2026-03-28T12:34:10.532Z</time></trkpt><trkpt lat="40.886175" lon="15.3121783"><ele>438.33333333333337</ele><time>2026-03-28T12:34:12.531Z</time></trkpt><trkpt lat="40.8861817" lon="15.3120567"><ele>437.6666666666667</ele><time>2026-03-28T12:34:14.531Z</time></trkpt><trkpt lat="40.8861933" lon="15.31195"><ele>437.0</ele><time>2026-03-28T12:34:16.531Z</time></trkpt><trkpt lat="40.8862017" lon="15.31185"><ele>436.33333333333337</ele><time>2026-03-28T12:34:18.531Z</time></trkpt><trkpt lat="40.88621" lon="15.311765"><ele>435.6666666666667</ele><time>2026-03-28T12:34:20.531Z</time></trkpt><trkpt lat="40.886235" lon="15.3116383"><ele>435.0</ele><time>2026-03-28T12:40:24.532Z</time></trkpt><trkpt lat="40.88626" lon="15.3114967"><ele>434.25</ele><time>2026-03-28T12:40:26.532Z</time></trkpt><trkpt lat="40.886295" lon="15.3113467"><ele>433.5</ele><time>2026-03-28T12:40:28.532Z</time></trkpt><trkpt lat="40.8863233" lon="15.3112067"><ele>432.75</ele><time>2026-03-28T12:40:30.533Z</time></trkpt><trkpt lat="40.88635" lon="15.311065"><ele>432.0</ele><time>2026-03-28T12:40:32.533Z</time></trkpt><trkpt lat="40.886375" lon="15.3109133"><ele>432.0</ele><time>2026-03-28T12:40:34.533Z</time></trkpt><trkpt lat="40.88639" lon="15.3108267"><ele>432.0</ele><time>2026-03-28T12:40:35.533Z</time></trkpt><trkpt lat="40.886405" lon="15.3107333"><ele>432.0</ele><time>2026-03-28T12:40:36.532Z</time></trkpt><trkpt lat="40.88642" lon="15.310635"><ele>432.0</ele><time>2026-03-28T12:40:37.533Z</time></trkpt><trkpt lat="40.8864417" lon="15.3105183"><ele>432.0</ele><time>2026-03-28T12:40:38.533Z</time></trkpt><trkpt lat="40.8864583" lon="15.310405"><ele>432.0</ele><time>2026-03-28T12:40:39.533Z</time></trkpt><trkpt lat="40.8864767" lon="15.3102783"><ele>433.75</ele><time>2026-03-28T12:40:40.532Z</time></trkpt><trkpt lat="40.8865017" lon="15.3101267"><ele>435.5</ele><time>2026-03-28T12:40:41.533Z</time></trkpt><trkpt lat="40.8865283" lon="15.3099633"><ele>437.25</ele><time>2026-03-28T12:40:42.532Z</time></trkpt><trkpt lat="40.886555" lon="15.309805"><ele>439.0</ele><time>2026-03-28T12:40:43.532Z</time></trkpt><trkpt lat="40.886585" lon="15.3096367"><ele>440.0</ele><time>2026-03-28T12:40:44.532Z</time></trkpt><trkpt lat="40.8866133" lon="15.3094733"><ele>441.0</ele><time>2026-03-28T12:40:45.532Z</time></trkpt><trkpt lat="40.886645" lon="15.309315"><ele>442.0</ele><time>2026-03-28T12:40:46.533Z</time></trkpt><trkpt lat="40.886675" lon="15.309145"><ele>443.0</ele><time>2026-03-28T12:40:47.532Z</time></trkpt><trkpt lat="40.8867067" lon="15.30897"><ele>442.5</ele><time>2026-03-28T12:40:48.533Z</time></trkpt><trkpt lat="40.886745" lon="15.3087967"><ele>442.0</ele><time>2026-03-28T12:40:49.532Z</time></trkpt><trkpt lat="40.8867883" lon="15.3086317"><ele>441.5</ele><time>2026-03-28T12:40:50.533Z</time></trkpt><trkpt lat="40.8868267" lon="15.3084633"><ele>441.0</ele><time>2026-03-28T12:40:51.533Z</time></trkpt><trkpt lat="40.886875" lon="15.3082983"><ele>443.25</ele><time>2026-03-28T12:40:52.533Z</time></trkpt><trkpt lat="40.8869283" lon="15.3081233"><ele>445.5</ele><time>2026-03-28T12:40:53.533Z</time></trkpt><trkpt lat="40.886985" lon="15.30796"><ele>447.75</ele><time>2026-03-28T12:40:54.533Z</time></trkpt><trkpt lat="40.8870367" lon="15.3077983"><ele>450.0</ele><time>2026-03-28T12:40:55.533Z</time></trkpt><trkpt lat="40.887095" lon="15.3076367"><ele>450.0</ele><time>2026-03-28T12:40:56.533Z</time></trkpt><trkpt lat="40.8871517" lon="15.30748"><ele>450.0</ele><time>2026-03-28T12:40:57.532Z</time></trkpt><trkpt lat="40.8872083" lon="15.3073217"><ele>450.0</ele><time>2026-03-28T12:40:58.532Z</time></trkpt><trkpt lat="40.8872633" lon="15.3071583"><ele>450.0</ele><time>2026-03-28T12:40:59.533Z</time></trkpt><trkpt lat="40.88732" lon="15.3069967"><ele>449.75</ele><time>2026-03-28T12:41:00.533Z</time></trkpt><trkpt lat="40.8873767" lon="15.3068317"><ele>449.5</ele><time>2026-03-28T12:41:01.533Z</time></trkpt><trkpt lat="40.8874317" lon="15.3066633"><ele>449.25</ele><time>2026-03-28T12:41:02.532Z</time></trkpt><trkpt lat="40.8874867" lon="15.3064967"><ele>449.0</ele><time>2026-03-28T12:41:03.533Z</time></trkpt><trkpt lat="40.8875367" lon="15.3063317"><ele>448.25</ele><time>2026-03-28T12:41:04.532Z</time></trkpt><trkpt lat="40.8875867" lon="15.3061633"><ele>447.5</ele><time>2026-03-28T12:41:05.533Z</time></trkpt><trkpt lat="40.8876417" lon="15.3059883"><ele>446.75</ele><time>2026-03-28T12:41:06.533Z</time></trkpt><trkpt lat="40.8876983" lon="15.3058133"><ele>446.0</ele><time>2026-03-28T12:41:07.533Z</time></trkpt><trkpt lat="40.8877467" lon="15.305635"><ele>447.0</ele><time>2026-03-28T12:41:08.532Z</time></trkpt><trkpt lat="40.8877933" lon="15.305455"><ele>448.0</ele><time>2026-03-28T12:41:09.533Z</time></trkpt><trkpt lat="40.8878317" lon="15.305275"><ele>449.0</ele><time>2026-03-28T12:41:10.532Z</time></trkpt><trkpt lat="40.88787" lon="15.30509"><ele>450.0</ele><time>2026-03-28T12:41:11.532Z</time></trkpt><trkpt lat="40.8879033" lon="15.3048967"><ele>449.75</ele><time>2026-03-28T12:41:12.533Z</time></trkpt><trkpt lat="40.8879333" lon="15.3047033"><ele>449.5</ele><time>2026-03-28T12:41:13.533Z</time></trkpt><trkpt lat="40.88796" lon="15.3045133"><ele>449.25</ele><time>2026-03-28T12:41:14.533Z</time></trkpt><trkpt lat="40.8879867" lon="15.304315"><ele>449.0</ele><time>2026-03-28T12:41:15.533Z</time></trkpt><trkpt lat="40.8880117" lon="15.3041133"><ele>448.66666666666663</ele><time>2026-03-28T12:41:16.533Z</time></trkpt><trkpt lat="40.8880367" lon="15.30391"><ele>448.33333333333337</ele><time>2026-03-28T12:41:17.532Z</time></trkpt><trkpt lat="40.888055" lon="15.3037033"><ele>448.0</ele><time>2026-03-28T12:41:18.533Z</time></trkpt><trkpt lat="40.88807" lon="15.3035"><ele>448.0</ele><time>2026-03-28T12:41:19.533Z</time></trkpt><trkpt lat="40.8880767" lon="15.3033067"><ele>448.0</ele><time>2026-03-28T12:41:20.532Z</time></trkpt><trkpt lat="40.8880833" lon="15.30313"><ele>448.0</ele><time>2026-03-28T12:41:21.533Z</time></trkpt><trkpt lat="40.888085" lon="15.3029517"><ele>448.0</ele><time>2026-03-28T12:41:22.533Z</time></trkpt><trkpt lat="40.8880867" lon="15.3027767"><ele>447.0</ele><time>2026-03-28T12:41:23.532Z</time></trkpt><trkpt lat="40.8880817" lon="15.3025983"><ele>446.0</ele><time>2026-03-28T12:41:24.533Z</time></trkpt><trkpt lat="40.8880767" lon="15.302425"><ele>445.0</ele><time>2026-03-28T12:41:25.533Z</time></trkpt><trkpt lat="40.8880683" lon="15.3022417"><ele>444.0</ele><time>2026-03-28T12:41:26.532Z</time></trkpt><trkpt lat="40.888065" lon="15.3020583"><ele>441.75</ele><time>2026-03-28T12:41:27.533Z</time></trkpt><trkpt lat="40.8880617" lon="15.30188"><ele>439.5</ele><time>2026-03-28T12:41:28.533Z</time></trkpt><trkpt lat="40.8880567" lon="15.3017233"><ele>437.25</ele><time>2026-03-28T12:41:29.533Z</time></trkpt><trkpt lat="40.8880517" lon="15.301575"><ele>435.0</ele><time>2026-03-28T12:41:30.533Z</time></trkpt><trkpt lat="40.8880467" lon="15.3014267"><ele>434.5</ele><time>2026-03-28T12:41:31.532Z</time></trkpt><trkpt lat="40.888045" lon="15.3012733"><ele>434.0</ele><time>2026-03-28T12:41:32.533Z</time></trkpt><trkpt lat="40.8880417" lon="15.3011183"><ele>433.5</ele><time>2026-03-28T12:41:33.533Z</time></trkpt><trkpt lat="40.8880383" lon="15.3009633"><ele>433.0</ele><time>2026-03-28T12:41:34.533Z</time></trkpt><trkpt lat="40.8880333" lon="15.3008083"><ele>433.0</ele><time>2026-03-28T12:41:35.533Z</time></trkpt><trkpt lat="40.8880333" lon="15.300645"><ele>433.0</ele><time>2026-03-28T12:41:36.532Z</time></trkpt><trkpt lat="40.88803" lon="15.300475"><ele>433.0</ele><time>2026-03-28T12:41:37.532Z</time></trkpt><trkpt lat="40.888025" lon="15.3002967"><ele>433.0</ele><time>2026-03-28T12:41:38.533Z</time></trkpt><trkpt lat="40.88802" lon="15.30012"><ele>434.25</ele><time>2026-03-28T12:41:39.532Z</time></trkpt><trkpt lat="40.8880167" lon="15.299945"><ele>435.5</ele><time>2026-03-28T12:41:40.533Z</time></trkpt><trkpt lat="40.8880117" lon="15.2997767"><ele>436.75</ele><time>2026-03-28T12:41:41.532Z</time></trkpt><trkpt lat="40.8880067" lon="15.2996033"><ele>438.0</ele><time>2026-03-28T12:41:42.533Z</time></trkpt><trkpt lat="40.8880033" lon="15.2994217"><ele>439.75</ele><time>2026-03-28T12:41:43.532Z</time></trkpt><trkpt lat="40.8879967" lon="15.2992467"><ele>441.5</ele><time>2026-03-28T12:41:44.532Z</time></trkpt><trkpt lat="40.8879917" lon="15.29907"><ele>443.25</ele><time>2026-03-28T12:41:45.532Z</time></trkpt><trkpt lat="40.8879867" lon="15.2988933"><ele>445.0</ele><time>2026-03-28T12:41:46.533Z</time></trkpt><trkpt lat="40.887985" lon="15.29872"><ele>445.5</ele><time>2026-03-28T12:41:47.532Z</time></trkpt><trkpt lat="40.887985" lon="15.2985383"><ele>446.0</ele><time>2026-03-28T12:41:48.533Z</time></trkpt><trkpt lat="40.887985" lon="15.2983567"><ele>446.5</ele><time>2026-03-28T12:41:49.532Z</time></trkpt><trkpt lat="40.8879917" lon="15.298165"><ele>447.0</ele><time>2026-03-28T12:41:50.533Z</time></trkpt><trkpt lat="40.8879983" lon="15.2979783"><ele>447.0</ele><time>2026-03-28T12:41:51.532Z</time></trkpt><trkpt lat="40.8880067" lon="15.29779"><ele>447.0</ele><time>2026-03-28T12:41:52.533Z</time></trkpt><trkpt lat="40.8880133" lon="15.29759"><ele>447.0</ele><time>2026-03-28T12:41:53.533Z</time></trkpt><trkpt lat="40.8880233" lon="15.2973867"><ele>447.0</ele><time>2026-03-28T12:41:54.533Z</time></trkpt><trkpt lat="40.8880317" lon="15.2971783"><ele>445.0</ele><time>2026-03-28T12:41:55.533Z</time></trkpt><trkpt lat="40.8880433" lon="15.2969567"><ele>443.0</ele><time>2026-03-28T12:41:56.533Z</time></trkpt><trkpt lat="40.88805" lon="15.2967467"><ele>441.0</ele><time>2026-03-28T12:41:57.532Z</time></trkpt><trkpt lat="40.888065" lon="15.2965367"><ele>441.0</ele><time>2026-03-28T12:41:58.533Z</time></trkpt><trkpt lat="40.8880783" lon="15.2963317"><ele>441.0</ele><time>2026-03-28T12:41:59.533Z</time></trkpt><trkpt lat="40.8880867" lon="15.296125"><ele>441.0</ele><time>2026-03-28T12:42:00.533Z</time></trkpt><trkpt lat="40.8880983" lon="15.295915"><ele>441.0</ele><time>2026-03-28T12:42:01.532Z</time></trkpt><trkpt lat="40.8881083" lon="15.2957"><ele>441.0</ele><time>2026-03-28T12:42:02.533Z</time></trkpt><trkpt lat="40.8881183" lon="15.2954833"><ele>441.0</ele><time>2026-03-28T12:42:03.533Z</time></trkpt><trkpt lat="40.8881333" lon="15.295265"><ele>442.0</ele><time>2026-03-28T12:42:04.533Z</time></trkpt><trkpt lat="40.8881483" lon="15.2950533"><ele>443.0</ele><time>2026-03-28T12:42:05.532Z</time></trkpt><trkpt lat="40.888165" lon="15.2948333"><ele>444.0</ele><time>2026-03-28T12:42:06.532Z</time></trkpt><trkpt lat="40.888185" lon="15.294605"><ele>444.33333333333337</ele><time>2026-03-28T12:42:07.533Z</time></trkpt><trkpt lat="40.8881967" lon="15.2943733"><ele>444.6666666666667</ele><time>2026-03-28T12:42:08.533Z</time></trkpt><trkpt lat="40.8882117" lon="15.2941567"><ele>445.0</ele><time>2026-03-28T12:42:09.533Z</time></trkpt><trkpt lat="40.8882267" lon="15.293945"><ele>444.33333333333337</ele><time>2026-03-28T12:42:10.533Z</time></trkpt><trkpt lat="40.8882417" lon="15.2937333"><ele>443.66666666666663</ele><time>2026-03-28T12:42:11.532Z</time></trkpt><trkpt lat="40.8882633" lon="15.2935267"><ele>443.0</ele><time>2026-03-28T12:42:12.533Z</time></trkpt><trkpt lat="40.8882733" lon="15.2933083"><ele>443.0</ele><time>2026-03-28T12:42:13.532Z</time></trkpt><trkpt lat="40.8882883" lon="15.293095"><ele>443.0</ele><time>2026-03-28T12:42:14.532Z</time></trkpt><trkpt lat="40.8883033" lon="15.2928833"><ele>443.0</ele><time>2026-03-28T12:42:15.533Z</time></trkpt><trkpt lat="40.88832" lon="15.292675"><ele>442.66666666666663</ele><time>2026-03-28T12:42:16.533Z</time></trkpt><trkpt lat="40.8883367" lon="15.292475"><ele>442.33333333333337</ele><time>2026-03-28T12:42:17.532Z</time></trkpt><trkpt lat="40.88836" lon="15.2922733"><ele>442.0</ele><time>2026-03-28T12:42:18.532Z</time></trkpt><trkpt lat="40.8883917" lon="15.2920633"><ele>447.33333333333337</ele><time>2026-03-28T12:42:19.533Z</time></trkpt><trkpt lat="40.8884333" lon="15.29185"><ele>452.66666666666663</ele><time>2026-03-28T12:42:20.533Z</time></trkpt><trkpt lat="40.8884783" lon="15.2916383"><ele>458.0</ele><time>2026-03-28T12:42:21.533Z</time></trkpt><trkpt lat="40.8885233" lon="15.29143"><ele>456.0</ele><time>2026-03-28T12:42:22.532Z</time></trkpt><trkpt lat="40.8885617" lon="15.2912317"><ele>454.0</ele><time>2026-03-28T12:42:23.532Z</time></trkpt><trkpt lat="40.8885967" lon="15.2910267"><ele>452.0</ele><time>2026-03-28T12:42:24.533Z</time></trkpt><trkpt lat="40.8886233" lon="15.2908183"><ele>452.0</ele><time>2026-03-28T12:42:25.533Z</time></trkpt><trkpt lat="40.88865" lon="15.2906033"><ele>452.0</ele><time>2026-03-28T12:42:26.533Z</time></trkpt><trkpt lat="40.8886783" lon="15.2903983"><ele>452.0</ele><time>2026-03-28T12:42:27.533Z</time></trkpt><trkpt lat="40.8886983" lon="15.2901883"><ele>449.0</ele><time>2026-03-28T12:42:28.533Z</time></trkpt><trkpt lat="40.88872" lon="15.28998"><ele>446.0</ele><time>2026-03-28T12:42:29.532Z</time></trkpt><trkpt lat="40.8887383" lon="15.2897833"><ele>443.0</ele><time>2026-03-28T12:42:30.532Z</time></trkpt><trkpt lat="40.8887583" lon="15.289585"><ele>442.5</ele><time>2026-03-28T12:42:31.532Z</time></trkpt><trkpt lat="40.8887817" lon="15.2893883"><ele>442.0</ele><time>2026-03-28T12:42:32.532Z</time></trkpt><trkpt lat="40.8888033" lon="15.289195"><ele>441.5</ele><time>2026-03-28T12:42:33.532Z</time></trkpt><trkpt lat="40.8888233" lon="15.289005"><ele>441.0</ele><time>2026-03-28T12:42:34.532Z</time></trkpt><trkpt lat="40.88884" lon="15.2888133"><ele>443.33333333333337</ele><time>2026-03-28T12:42:35.532Z</time></trkpt><trkpt lat="40.8888483" lon="15.2886183"><ele>445.6666666666667</ele><time>2026-03-28T12:42:36.532Z</time></trkpt><trkpt lat="40.8888367" lon="15.288415"><ele>448.0</ele><time>2026-03-28T12:42:37.532Z</time></trkpt><trkpt lat="40.888815" lon="15.288215"><ele>451.33333333333337</ele><time>2026-03-28T12:42:38.532Z</time></trkpt><trkpt lat="40.8887933" lon="15.288015"><ele>454.66666666666663</ele><time>2026-03-28T12:42:39.533Z</time></trkpt><trkpt lat="40.8887567" lon="15.2878183"><ele>458.0</ele><time>2026-03-28T12:42:40.533Z</time></trkpt><trkpt lat="40.8887217" lon="15.287625"><ele>458.0</ele><time>2026-03-28T12:42:41.533Z</time></trkpt><trkpt lat="40.8886783" lon="15.287435"><ele>458.0</ele><time>2026-03-28T12:42:42.532Z</time></trkpt><trkpt lat="40.8886317" lon="15.2872417"><ele>458.0</ele><time>2026-03-28T12:42:43.532Z</time></trkpt><trkpt lat="40.8885867" lon="15.287045"><ele>459.3333333333333</ele><time>2026-03-28T12:42:44.533Z</time></trkpt><trkpt lat="40.888545" lon="15.286845"><ele>460.66666666666663</ele><time>2026-03-28T12:42:45.533Z</time></trkpt><trkpt lat="40.8885033" lon="15.28664"><ele>462.0</ele><time>2026-03-28T12:42:46.533Z</time></trkpt><trkpt lat="40.8884633" lon="15.2864333"><ele>460.66666666666663</ele><time>2026-03-28T12:42:47.532Z</time></trkpt><trkpt lat="40.8884317" lon="15.28621"><ele>459.3333333333333</ele><time>2026-03-28T12:42:48.533Z</time></trkpt><trkpt lat="40.8884033" lon="15.2859883"><ele>458.0</ele><time>2026-03-28T12:42:49.533Z</time></trkpt><trkpt lat="40.8883867" lon="15.28577"><ele>451.66666666666663</ele><time>2026-03-28T12:42:50.533Z</time></trkpt><trkpt lat="40.8883733" lon="15.2855483"><ele>445.33333333333337</ele><time>2026-03-28T12:42:51.533Z</time></trkpt><trkpt lat="40.8883667" lon="15.2853283"><ele>439.0</ele><time>2026-03-28T12:42:52.533Z</time></trkpt><trkpt lat="40.8883633" lon="15.285105"><ele>439.0</ele><time>2026-03-28T12:42:53.533Z</time></trkpt><trkpt lat="40.8883617" lon="15.2848783"><ele>439.0</ele><time>2026-03-28T12:42:54.532Z</time></trkpt><trkpt lat="40.88836" lon="15.2846533"><ele>439.0</ele><time>2026-03-28T12:42:55.533Z</time></trkpt><trkpt lat="40.8883567" lon="15.2844333"><ele>439.33333333333337</ele><time>2026-03-28T12:42:56.533Z</time></trkpt><trkpt lat="40.888355" lon="15.28422"><ele>439.66666666666663</ele><time>2026-03-28T12:42:57.533Z</time></trkpt><trkpt lat="40.8883517" lon="15.2840033"><ele>440.0</ele><time>2026-03-28T12:42:58.533Z</time></trkpt><trkpt lat="40.8883533" lon="15.2837883"><ele>440.0</ele><time>2026-03-28T12:42:59.532Z</time></trkpt><trkpt lat="40.8883533" lon="15.2835667"><ele>440.0</ele><time>2026-03-28T12:43:00.532Z</time></trkpt><trkpt lat="40.8883467" lon="15.2833483"><ele>440.0</ele><time>2026-03-28T12:43:01.532Z</time></trkpt><trkpt lat="40.8883433" lon="15.2831317"><ele>440.66666666666663</ele><time>2026-03-28T12:43:02.533Z</time></trkpt><trkpt lat="40.88833" lon="15.2829133"><ele>441.33333333333337</ele><time>2026-03-28T12:43:03.533Z</time></trkpt><trkpt lat="40.88831" lon="15.28269"><ele>442.0</ele><time>2026-03-28T12:43:04.533Z</time></trkpt><trkpt lat="40.8882917" lon="15.2824683"><ele>443.0</ele><time>2026-03-28T12:43:05.533Z</time></trkpt><trkpt lat="40.8882567" lon="15.2822433"><ele>444.0</ele><time>2026-03-28T12:43:06.532Z</time></trkpt><trkpt lat="40.8882183" lon="15.28202"><ele>445.0</ele><time>2026-03-28T12:43:07.532Z</time></trkpt><trkpt lat="40.8881733" lon="15.281795"><ele>445.0</ele><time>2026-03-28T12:43:08.532Z</time></trkpt><trkpt lat="40.8881333" lon="15.2815667"><ele>445.0</ele><time>2026-03-28T12:43:09.532Z</time></trkpt><trkpt lat="40.8880917" lon="15.2813383"><ele>445.0</ele><time>2026-03-28T12:43:10.533Z</time></trkpt><trkpt lat="40.8880517" lon="15.2810967"><ele>446.0</ele><time>2026-03-28T12:43:11.533Z</time></trkpt><trkpt lat="40.888" lon="15.2808517"><ele>447.0</ele><time>2026-03-28T12:43:12.533Z</time></trkpt><trkpt lat="40.887955" lon="15.280605"><ele>448.0</ele><time>2026-03-28T12:43:13.533Z</time></trkpt><trkpt lat="40.887915" lon="15.2803617"><ele>449.0</ele><time>2026-03-28T12:43:14.533Z</time></trkpt><trkpt lat="40.8878733" lon="15.2801317"><ele>450.0</ele><time>2026-03-28T12:43:15.533Z</time></trkpt><trkpt lat="40.8878383" lon="15.2799"><ele>451.0</ele><time>2026-03-28T12:43:16.533Z</time></trkpt><trkpt lat="40.8878" lon="15.2796733"><ele>452.0</ele><time>2026-03-28T12:43:17.532Z</time></trkpt><trkpt lat="40.88776" lon="15.279455"><ele>453.0</ele><time>2026-03-28T12:43:18.532Z</time></trkpt><trkpt lat="40.8877233" lon="15.279235"><ele>454.0</ele><time>2026-03-28T12:43:19.533Z</time></trkpt><trkpt lat="40.8876883" lon="15.2790133"><ele>454.6666666666667</ele><time>2026-03-28T12:43:20.533Z</time></trkpt><trkpt lat="40.8876467" lon="15.27879"><ele>455.33333333333337</ele><time>2026-03-28T12:43:21.533Z</time></trkpt><trkpt lat="40.8876083" lon="15.2785633"><ele>456.0</ele><time>2026-03-28T12:43:22.533Z</time></trkpt><trkpt lat="40.887565" lon="15.27833"><ele>452.33333333333337</ele><time>2026-03-28T12:43:23.532Z</time></trkpt><trkpt lat="40.887525" lon="15.278095"><ele>448.6666666666667</ele><time>2026-03-28T12:43:24.533Z</time></trkpt><trkpt lat="40.8874883" lon="15.2778617"><ele>445.0</ele><time>2026-03-28T12:43:25.533Z</time></trkpt><trkpt lat="40.8874517" lon="15.2776183"><ele>445.0</ele><time>2026-03-28T12:43:26.533Z</time></trkpt><trkpt lat="40.887415" lon="15.2773817"><ele>445.0</ele><time>2026-03-28T12:43:27.533Z</time></trkpt><trkpt lat="40.88737" lon="15.277145"><ele>445.0</ele><time>2026-03-28T12:43:28.533Z</time></trkpt><trkpt lat="40.8873317" lon="15.2769183"><ele>445.33333333333337</ele><time>2026-03-28T12:43:29.532Z</time></trkpt><trkpt lat="40.8872933" lon="15.2767017"><ele>445.66666666666663</ele><time>2026-03-28T12:43:30.533Z</time></trkpt><trkpt lat="40.887255" lon="15.2764917"><ele>446.0</ele><time>2026-03-28T12:43:31.533Z</time></trkpt><trkpt lat="40.887225" lon="15.27627"><ele>446.0</ele><time>2026-03-28T12:43:32.532Z</time></trkpt><trkpt lat="40.887195" lon="15.2760433"><ele>446.0</ele><time>2026-03-28T12:43:33.533Z</time></trkpt><trkpt lat="40.887165" lon="15.27581"><ele>446.0</ele><time>2026-03-28T12:43:34.533Z</time></trkpt><trkpt lat="40.8871417" lon="15.2755817"><ele>445.3333333333333</ele><time>2026-03-28T12:43:35.533Z</time></trkpt><trkpt lat="40.88713" lon="15.2753433"><ele>444.66666666666663</ele><time>2026-03-28T12:43:36.533Z</time></trkpt><trkpt lat="40.8871133" lon="15.275105"><ele>444.0</ele><time>2026-03-28T12:43:37.533Z</time></trkpt><trkpt lat="40.8871067" lon="15.2748633"><ele>444.0</ele><time>2026-03-28T12:43:38.532Z</time></trkpt><trkpt lat="40.8871017" lon="15.2746283"><ele>444.0</ele><time>2026-03-28T12:43:39.532Z</time></trkpt><trkpt lat="40.887095" lon="15.27439"><ele>444.0</ele><time>2026-03-28T12:43:40.533Z</time></trkpt><trkpt lat="40.8870917" lon="15.2741517"><ele>444.66666666666663</ele><time>2026-03-28T12:43:41.533Z</time></trkpt><trkpt lat="40.88708" lon="15.27392"><ele>445.3333333333333</ele><time>2026-03-28T12:43:42.533Z</time></trkpt><trkpt lat="40.887075" lon="15.2736967"><ele>446.0</ele><time>2026-03-28T12:43:43.532Z</time></trkpt><trkpt lat="40.8870683" lon="15.2734783"><ele>446.0</ele><time>2026-03-28T12:43:44.533Z</time></trkpt><trkpt lat="40.8870667" lon="15.2732567"><ele>446.0</ele><time>2026-03-28T12:43:45.533Z</time></trkpt><trkpt lat="40.88706" lon="15.2730417"><ele>446.0</ele><time>2026-03-28T12:43:46.532Z</time></trkpt><trkpt lat="40.8870483" lon="15.272835"><ele>445.75</ele><time>2026-03-28T12:43:47.532Z</time></trkpt><trkpt lat="40.8870333" lon="15.27264"><ele>445.5</ele><time>2026-03-28T12:43:48.533Z</time></trkpt><trkpt lat="40.8870067" lon="15.2724617"><ele>445.25</ele><time>2026-03-28T12:43:49.533Z</time></trkpt><trkpt lat="40.88697" lon="15.2722883"><ele>445.0</ele><time>2026-03-28T12:43:50.533Z</time></trkpt><trkpt lat="40.8869233" lon="15.2721183"><ele>445.0</ele><time>2026-03-28T12:43:51.532Z</time></trkpt><trkpt lat="40.8868683" lon="15.2719483"><ele>445.0</ele><time>2026-03-28T12:43:52.532Z</time></trkpt><trkpt lat="40.8868083" lon="15.27178"><ele>445.0</ele><time>2026-03-28T12:43:53.532Z</time></trkpt><trkpt lat="40.8867467" lon="15.271625"><ele>445.0</ele><time>2026-03-28T12:43:54.533Z</time></trkpt><trkpt lat="40.8866817" lon="15.271475"><ele>444.25</ele><time>2026-03-28T12:43:55.532Z</time></trkpt><trkpt lat="40.8866117" lon="15.2713283"><ele>443.5</ele><time>2026-03-28T12:43:56.533Z</time></trkpt><trkpt lat="40.8865317" lon="15.2711933"><ele>442.75</ele><time>2026-03-28T12:43:57.533Z</time></trkpt><trkpt lat="40.8864533" lon="15.2710717"><ele>442.0</ele><time>2026-03-28T12:43:58.533Z</time></trkpt><trkpt lat="40.8863683" lon="15.27095"><ele>442.0</ele><time>2026-03-28T12:43:59.533Z</time></trkpt><trkpt lat="40.8862817" lon="15.27084"><ele>442.0</ele><time>2026-03-28T12:44:00.532Z</time></trkpt><trkpt lat="40.8861883" lon="15.2707517"><ele>442.0</ele><time>2026-03-28T12:44:01.532Z</time></trkpt><trkpt lat="40.8860833" lon="15.27068"><ele>442.0</ele><time>2026-03-28T12:44:02.532Z</time></trkpt><trkpt lat="40.8859817" lon="15.2706167"><ele>441.50000000000006</ele><time>2026-03-28T12:44:03.532Z</time></trkpt><trkpt lat="40.88589" lon="15.2705583"><ele>441.0</ele><time>2026-03-28T12:44:04.532Z</time></trkpt><trkpt lat="40.8858183" lon="15.2704867"><ele>440.5</ele><time>2026-03-28T12:44:05.533Z</time></trkpt><trkpt lat="40.88577" lon="15.270405"><ele>440.0</ele><time>2026-03-28T12:44:06.533Z</time></trkpt><trkpt lat="40.885745" lon="15.2703"><ele>439.50000000000006</ele><time>2026-03-28T12:44:07.533Z</time></trkpt><trkpt lat="40.885725" lon="15.270185"><ele>439.0</ele><time>2026-03-28T12:44:08.533Z</time></trkpt><trkpt lat="40.885725" lon="15.2700467"><ele>439.0</ele><time>2026-03-28T12:44:09.533Z</time></trkpt><trkpt lat="40.885735" lon="15.2698767"><ele>439.0</ele><time>2026-03-28T12:44:10.533Z</time></trkpt><trkpt lat="40.8857433" lon="15.2696883"><ele>439.0</ele><time>2026-03-28T12:44:11.532Z</time></trkpt><trkpt lat="40.8857517" lon="15.2694917"><ele>439.0</ele><time>2026-03-28T12:44:12.532Z</time></trkpt><trkpt lat="40.885765" lon="15.2692933"><ele>439.0</ele><time>2026-03-28T12:44:13.533Z</time></trkpt><trkpt lat="40.88578" lon="15.2690817"><ele>439.0</ele><time>2026-03-28T12:44:14.532Z</time></trkpt><trkpt lat="40.8857917" lon="15.2688617"><ele>439.0</ele><time>2026-03-28T12:44:15.533Z</time></trkpt><trkpt lat="40.885805" lon="15.2686333"><ele>439.33333333333337</ele><time>2026-03-28T12:44:16.533Z</time></trkpt><trkpt lat="40.8858183" lon="15.268405"><ele>439.66666666666663</ele><time>2026-03-28T12:44:17.533Z</time></trkpt><trkpt lat="40.8858317" lon="15.2681767"><ele>440.0</ele><time>2026-03-28T12:44:18.533Z</time></trkpt><trkpt lat="40.8858467" lon="15.2679617"><ele>440.3333333333333</ele><time>2026-03-28T12:44:19.533Z</time></trkpt><trkpt lat="40.8858617" lon="15.26775"><ele>440.66666666666663</ele><time>2026-03-28T12:44:20.532Z</time></trkpt><trkpt lat="40.885885" lon="15.2675333"><ele>441.0</ele><time>2026-03-28T12:44:21.533Z</time></trkpt><trkpt lat="40.8859033" lon="15.2673283"><ele>441.33333333333337</ele><time>2026-03-28T12:44:22.533Z</time></trkpt><trkpt lat="40.8859267" lon="15.26712"><ele>441.6666666666667</ele><time>2026-03-28T12:44:23.533Z</time></trkpt><trkpt lat="40.8859567" lon="15.2669017"><ele>442.0</ele><time>2026-03-28T12:44:24.533Z</time></trkpt><trkpt lat="40.885985" lon="15.266685"><ele>442.6666666666667</ele><time>2026-03-28T12:44:25.533Z</time></trkpt><trkpt lat="40.8860267" lon="15.2664717"><ele>443.33333333333337</ele><time>2026-03-28T12:44:26.532Z</time></trkpt><trkpt lat="40.886075" lon="15.266245"><ele>444.0</ele><time>2026-03-28T12:44:27.532Z</time></trkpt><trkpt lat="40.8861183" lon="15.26601"><ele>444.0</ele><time>2026-03-28T12:44:28.532Z</time></trkpt><trkpt lat="40.8861633" lon="15.2657867"><ele>444.0</ele><time>2026-03-28T12:44:29.533Z</time></trkpt><trkpt lat="40.886215" lon="15.2655617"><ele>444.0</ele><time>2026-03-28T12:44:30.533Z</time></trkpt><trkpt lat="40.886265" lon="15.26534"><ele>445.0</ele><time>2026-03-28T12:44:31.533Z</time></trkpt><trkpt lat="40.886315" lon="15.2651267"><ele>446.0</ele><time>2026-03-28T12:44:32.533Z</time></trkpt><trkpt lat="40.886365" lon="15.2649117"><ele>447.0</ele><time>2026-03-28T12:44:33.532Z</time></trkpt><trkpt lat="40.8864083" lon="15.264705"><ele>447.66666666666663</ele><time>2026-03-28T12:44:34.532Z</time></trkpt><trkpt lat="40.8864583" lon="15.2645033"><ele>448.3333333333333</ele><time>2026-03-28T12:44:35.533Z</time></trkpt><trkpt lat="40.8865067" lon="15.2642867"><ele>449.0</ele><time>2026-03-28T12:44:36.533Z</time></trkpt><trkpt lat="40.8865533" lon="15.2640767"><ele>449.66666666666663</ele><time>2026-03-28T12:44:37.533Z</time></trkpt><trkpt lat="40.886605" lon="15.2638617"><ele>450.33333333333337</ele><time>2026-03-28T12:44:38.532Z</time></trkpt><trkpt lat="40.886655" lon="15.263645"><ele>451.0</ele><time>2026-03-28T12:44:39.533Z</time></trkpt><trkpt lat="40.8867033" lon="15.2634283"><ele>451.0</ele><time>2026-03-28T12:44:40.532Z</time></trkpt><trkpt lat="40.886755" lon="15.2632117"><ele>451.0</ele><time>2026-03-28T12:44:41.533Z</time></trkpt><trkpt lat="40.8868017" lon="15.2630017"><ele>451.0</ele><time>2026-03-28T12:44:42.533Z</time></trkpt><trkpt lat="40.8868433" lon="15.26281"><ele>455.0</ele><time>2026-03-28T12:44:43.533Z</time></trkpt><trkpt lat="40.8868817" lon="15.2626433"><ele>459.0</ele><time>2026-03-28T12:44:44.532Z</time></trkpt><trkpt lat="40.88691" lon="15.2625067"><ele>463.0</ele><time>2026-03-28T12:44:45.533Z</time></trkpt><trkpt lat="40.886935" lon="15.26237"><ele>467.0</ele><time>2026-03-28T12:44:46.533Z</time></trkpt><trkpt lat="40.8869533" lon="15.2622383"><ele>471.0</ele><time>2026-03-28T12:44:47.533Z</time></trkpt><trkpt lat="40.8869667" lon="15.2621167"><ele>471.0</ele><time>2026-03-28T12:44:48.533Z</time></trkpt><trkpt lat="40.88698" lon="15.26199"><ele>471.0</ele><time>2026-03-28T12:44:49.533Z</time></trkpt><trkpt lat="40.886995" lon="15.2618617"><ele>471.0</ele><time>2026-03-28T12:44:50.533Z</time></trkpt><trkpt lat="40.887" lon="15.2617383"><ele>471.0</ele><time>2026-03-28T12:44:51.533Z</time></trkpt><trkpt lat="40.8870117" lon="15.26162"><ele>471.0</ele><time>2026-03-28T12:44:52.532Z</time></trkpt><trkpt lat="40.8870233" lon="15.2615083"><ele>471.00000000000006</ele><time>2026-03-28T12:44:53.533Z</time></trkpt><trkpt lat="40.8870317" lon="15.2614233"><ele>471.0</ele><time>2026-03-28T12:44:54.532Z</time></trkpt><trkpt lat="40.8870117" lon="15.261305"><ele>471.00000000000006</ele><time>2026-03-28T12:44:56.532Z</time></trkpt><trkpt lat="40.886955" lon="15.261265"><ele>471.00000000000006</ele><time>2026-03-28T12:44:58.533Z</time></trkpt><trkpt lat="40.88689" lon="15.2612833"><ele>471.0</ele><time>2026-03-28T12:45:00.533Z</time></trkpt><trkpt lat="40.8868533" lon="15.2613583"><ele>471.00000000000006</ele><time>2026-03-28T12:45:02.533Z</time></trkpt><trkpt lat="40.886835" lon="15.2614517"><ele>471.00000000000006</ele><time>2026-03-28T12:45:04.533Z</time></trkpt><trkpt lat="40.8868633" lon="15.261535"><ele>471.0</ele><time>2026-03-28T12:47:25.479Z</time></trkpt><trkpt lat="40.8867567" lon="15.26164"><ele>471.0</ele><time>2026-03-28T12:48:27.48Z</time></trkpt><trkpt lat="40.88666" lon="15.2615617"><ele>471.0</ele><time>2026-03-28T12:48:43.479Z</time></trkpt><trkpt lat="40.88673" lon="15.26157"><ele>471.0</ele><time>2026-03-28T12:49:09.484Z</time></trkpt><trkpt lat="40.8869467" lon="15.2615917"><ele>471.0</ele><time>2026-03-28T12:49:11.485Z</time></trkpt><trkpt lat="40.8868233" lon="15.2615333"><ele>471.0</ele><time>2026-03-28T12:49:31.485Z</time></trkpt><trkpt lat="40.8867217" lon="15.261595"><ele>471.0</ele><time>2026-03-28T12:50:02.485Z</time></trkpt><trkpt lat="40.886805" lon="15.2615417"><ele>471.0</ele><time>2026-03-28T12:50:47.484Z</time></trkpt><trkpt lat="40.8868083" lon="15.2616583"><ele>471.0</ele><time>2026-03-28T12:51:20.485Z</time></trkpt><trkpt lat="40.886865" lon="15.2615667"><ele>471.0</ele><time>2026-03-28T12:51:39.484Z</time></trkpt><trkpt lat="40.8867933" lon="15.261535"><ele>471.0</ele><time>2026-03-28T12:51:59.485Z</time></trkpt><trkpt lat="40.8866983" lon="15.2615083"><ele>471.0</ele><time>2026-03-28T12:52:22.484Z</time></trkpt><trkpt lat="40.8868017" lon="15.2615517"><ele>471.0</ele><time>2026-03-28T12:53:19.486Z</time></trkpt><trkpt lat="40.8869433" lon="15.2615817"><ele>471.0</ele><time>2026-03-28T12:54:12.486Z</time></trkpt><trkpt lat="40.8868383" lon="15.2616167"><ele>471.0</ele><time>2026-03-28T12:54:22.486Z</time></trkpt><trkpt lat="40.8867967" lon="15.2615533"><ele>471.0</ele><time>2026-03-28T12:54:49.485Z</time></trkpt><trkpt lat="40.88674" lon="15.261515"><ele>471.0</ele><time>2026-03-28T12:54:51.485Z</time></trkpt><trkpt lat="40.8866517" lon="15.261535"><ele>471.0</ele><time>2026-03-28T12:55:07.485Z</time></trkpt><trkpt lat="40.8867417" lon="15.2615333"><ele>471.0</ele><time>2026-03-28T12:55:43.486Z</time></trkpt><trkpt lat="40.8866217" lon="15.261605"><ele>471.0</ele><time>2026-03-28T12:56:44.486Z</time></trkpt><trkpt lat="40.8865333" lon="15.2615733"><ele>471.0</ele><time>2026-03-28T12:56:48.485Z</time></trkpt><trkpt lat="40.8866367" lon="15.2616033"><ele>471.0</ele><time>2026-03-28T12:57:11.486Z</time></trkpt><trkpt lat="40.8866983" lon="15.2615567"><ele>471.0</ele><time>2026-03-28T12:57:36.486Z</time></trkpt><trkpt lat="40.88683" lon="15.2615483"><ele>471.0</ele><time>2026-03-28T12:57:55.486Z</time></trkpt><trkpt lat="40.8868317" lon="15.2614333"><ele>471.0</ele><time>2026-03-28T13:07:07.487Z</time></trkpt><trkpt lat="40.88689" lon="15.2613433"><ele>469.0</ele><time>2026-03-28T13:07:09.487Z</time></trkpt><trkpt lat="40.8869617" lon="15.26126"><ele>467.0</ele><time>2026-03-28T13:07:11.487Z</time></trkpt><trkpt lat="40.887055" lon="15.26113"><ele>465.0</ele><time>2026-03-28T13:07:14.486Z</time></trkpt><trkpt lat="40.8870867" lon="15.2610533"><ele>463.0</ele><time>2026-03-28T13:07:15.486Z</time></trkpt><trkpt lat="40.8871117" lon="15.2609633"><ele>461.0</ele><time>2026-03-28T13:07:16.487Z</time></trkpt><trkpt lat="40.8871267" lon="15.2608483"><ele>461.0</ele><time>2026-03-28T13:07:17.486Z</time></trkpt><trkpt lat="40.8871383" lon="15.26071"><ele>461.0</ele><time>2026-03-28T13:07:18.486Z</time></trkpt><trkpt lat="40.8871517" lon="15.2605467"><ele>461.0</ele><time>2026-03-28T13:07:19.487Z</time></trkpt><trkpt lat="40.887165" lon="15.2603733"><ele>461.0</ele><time>2026-03-28T13:07:20.487Z</time></trkpt><trkpt lat="40.887185" lon="15.26021"><ele>459.25</ele><time>2026-03-28T13:07:21.487Z</time></trkpt><trkpt lat="40.887205" lon="15.260055"><ele>457.5</ele><time>2026-03-28T13:07:22.486Z</time></trkpt><trkpt lat="40.887225" lon="15.2599033"><ele>455.75</ele><time>2026-03-28T13:07:23.486Z</time></trkpt><trkpt lat="40.887245" lon="15.2597417"><ele>454.0</ele><time>2026-03-28T13:07:24.487Z</time></trkpt><trkpt lat="40.8872667" lon="15.259585"><ele>453.75</ele><time>2026-03-28T13:07:25.487Z</time></trkpt><trkpt lat="40.8872917" lon="15.259425"><ele>453.5</ele><time>2026-03-28T13:07:26.487Z</time></trkpt><trkpt lat="40.8873333" lon="15.25925"><ele>453.25</ele><time>2026-03-28T13:07:27.486Z</time></trkpt><trkpt lat="40.8873767" lon="15.2590767"><ele>453.0</ele><time>2026-03-28T13:07:28.486Z</time></trkpt><trkpt lat="40.8874167" lon="15.2589083"><ele>453.0</ele><time>2026-03-28T13:07:29.486Z</time></trkpt><trkpt lat="40.887465" lon="15.2587383"><ele>453.0</ele><time>2026-03-28T13:07:30.487Z</time></trkpt><trkpt lat="40.8875183" lon="15.2585717"><ele>453.0</ele><time>2026-03-28T13:07:31.486Z</time></trkpt><trkpt lat="40.8875783" lon="15.25841"><ele>453.0</ele><time>2026-03-28T13:07:32.486Z</time></trkpt><trkpt lat="40.8876467" lon="15.258245"><ele>454.0</ele><time>2026-03-28T13:07:33.486Z</time></trkpt><trkpt lat="40.8877233" lon="15.2580767"><ele>455.0</ele><time>2026-03-28T13:07:34.487Z</time></trkpt><trkpt lat="40.8878033" lon="15.2579033"><ele>456.0</ele><time>2026-03-28T13:07:35.487Z</time></trkpt><trkpt lat="40.8878967" lon="15.257725"><ele>456.0</ele><time>2026-03-28T13:07:36.487Z</time></trkpt><trkpt lat="40.88799" lon="15.2575533"><ele>456.0</ele><time>2026-03-28T13:07:37.487Z</time></trkpt><trkpt lat="40.88808" lon="15.257385"><ele>456.0</ele><time>2026-03-28T13:07:38.486Z</time></trkpt><trkpt lat="40.888165" lon="15.257215"><ele>459.0</ele><time>2026-03-28T13:07:39.487Z</time></trkpt><trkpt lat="40.8882567" lon="15.2570483"><ele>462.0</ele><time>2026-03-28T13:07:40.487Z</time></trkpt><trkpt lat="40.8883483" lon="15.2568683"><ele>465.0</ele><time>2026-03-28T13:07:41.487Z</time></trkpt><trkpt lat="40.8884467" lon="15.2566817"><ele>465.0</ele><time>2026-03-28T13:07:42.487Z</time></trkpt><trkpt lat="40.8885467" lon="15.2564967"><ele>465.0</ele><time>2026-03-28T13:07:43.487Z</time></trkpt><trkpt lat="40.88865" lon="15.2563083"><ele>465.0</ele><time>2026-03-28T13:07:44.487Z</time></trkpt><trkpt lat="40.8887517" lon="15.2561167"><ele>465.66666666666663</ele><time>2026-03-28T13:07:45.487Z</time></trkpt><trkpt lat="40.888845" lon="15.2559267"><ele>466.3333333333333</ele><time>2026-03-28T13:07:46.486Z</time></trkpt><trkpt lat="40.8889383" lon="15.2557417"><ele>467.0</ele><time>2026-03-28T13:07:47.487Z</time></trkpt><trkpt lat="40.8890417" lon="15.2555567"><ele>467.0</ele><time>2026-03-28T13:07:48.486Z</time></trkpt><trkpt lat="40.8891383" lon="15.2553717"><ele>467.0</ele><time>2026-03-28T13:07:49.487Z</time></trkpt><trkpt lat="40.8892333" lon="15.25518"><ele>467.0</ele><time>2026-03-28T13:07:50.487Z</time></trkpt><trkpt lat="40.8893317" lon="15.2549867"><ele>470.3333333333333</ele><time>2026-03-28T13:07:51.487Z</time></trkpt><trkpt lat="40.88943" lon="15.2548017"><ele>473.66666666666663</ele><time>2026-03-28T13:07:52.486Z</time></trkpt><trkpt lat="40.889525" lon="15.254615"><ele>477.0</ele><time>2026-03-28T13:07:53.486Z</time></trkpt><trkpt lat="40.8896183" lon="15.2544383"><ele>477.0</ele><time>2026-03-28T13:07:54.486Z</time></trkpt><trkpt lat="40.8897133" lon="15.2542667"><ele>477.0</ele><time>2026-03-28T13:07:55.487Z</time></trkpt><trkpt lat="40.8898017" lon="15.2540867"><ele>477.0</ele><time>2026-03-28T13:07:56.487Z</time></trkpt><trkpt lat="40.8899" lon="15.2539117"><ele>474.66666666666663</ele><time>2026-03-28T13:07:57.487Z</time></trkpt><trkpt lat="40.89" lon="15.253715"><ele>472.3333333333333</ele><time>2026-03-28T13:07:58.487Z</time></trkpt><trkpt lat="40.890105" lon="15.2535083"><ele>470.0</ele><time>2026-03-28T13:07:59.487Z</time></trkpt><trkpt lat="40.8902017" lon="15.2533083"><ele>473.0</ele><time>2026-03-28T13:08:00.486Z</time></trkpt><trkpt lat="40.8902917" lon="15.2531133"><ele>476.0</ele><time>2026-03-28T13:08:01.486Z</time></trkpt><trkpt lat="40.890385" lon="15.252915"><ele>479.0</ele><time>2026-03-28T13:08:02.486Z</time></trkpt><trkpt lat="40.890475" lon="15.2527"><ele>479.0</ele><time>2026-03-28T13:08:03.487Z</time></trkpt><trkpt lat="40.89057" lon="15.252485"><ele>479.0</ele><time>2026-03-28T13:08:04.487Z</time></trkpt><trkpt lat="40.8906667" lon="15.252275"><ele>479.0</ele><time>2026-03-28T13:08:05.487Z</time></trkpt><trkpt lat="40.8907567" lon="15.2520683"><ele>477.3333333333333</ele><time>2026-03-28T13:08:06.487Z</time></trkpt><trkpt lat="40.8908467" lon="15.2518733"><ele>475.66666666666663</ele><time>2026-03-28T13:08:07.486Z</time></trkpt><trkpt lat="40.8909367" lon="15.2516783"><ele>474.0</ele><time>2026-03-28T13:08:08.486Z</time></trkpt><trkpt lat="40.89102" lon="15.2514783"><ele>475.66666666666663</ele><time>2026-03-28T13:08:09.487Z</time></trkpt><trkpt lat="40.8911117" lon="15.2512833"><ele>477.3333333333333</ele><time>2026-03-28T13:08:10.486Z</time></trkpt><trkpt lat="40.891205" lon="15.2510767"><ele>479.0</ele><time>2026-03-28T13:08:11.486Z</time></trkpt><trkpt lat="40.8912983" lon="15.2508733"><ele>479.0</ele><time>2026-03-28T13:08:12.486Z</time></trkpt><trkpt lat="40.89139" lon="15.2506667"><ele>479.0</ele><time>2026-03-28T13:08:13.486Z</time></trkpt><trkpt lat="40.8914867" lon="15.2504567"><ele>479.0</ele><time>2026-03-28T13:08:14.486Z</time></trkpt><trkpt lat="40.8915867" lon="15.2502533"><ele>479.66666666666663</ele><time>2026-03-28T13:08:15.486Z</time></trkpt><trkpt lat="40.89168" lon="15.2500483"><ele>480.33333333333337</ele><time>2026-03-28T13:08:16.487Z</time></trkpt><trkpt lat="40.891775" lon="15.2498483"><ele>481.0</ele><time>2026-03-28T13:08:17.486Z</time></trkpt><trkpt lat="40.8918717" lon="15.2496467"><ele>479.0</ele><time>2026-03-28T13:08:18.487Z</time></trkpt><trkpt lat="40.8919683" lon="15.2494417"><ele>477.0</ele><time>2026-03-28T13:08:19.487Z</time></trkpt><trkpt lat="40.8920617" lon="15.2492367"><ele>475.0</ele><time>2026-03-28T13:08:20.487Z</time></trkpt><trkpt lat="40.89215" lon="15.249025"><ele>472.6666666666667</ele><time>2026-03-28T13:08:21.486Z</time></trkpt><trkpt lat="40.8922383" lon="15.2488133"><ele>470.33333333333337</ele><time>2026-03-28T13:08:22.487Z</time></trkpt><trkpt lat="40.89232" lon="15.2485917"><ele>468.0</ele><time>2026-03-28T13:08:23.487Z</time></trkpt><trkpt lat="40.8924" lon="15.2483617"><ele>467.0</ele><time>2026-03-28T13:08:24.486Z</time></trkpt><trkpt lat="40.8924733" lon="15.2481217"><ele>466.0</ele><time>2026-03-28T13:08:25.487Z</time></trkpt><trkpt lat="40.89254" lon="15.2478817"><ele>465.0</ele><time>2026-03-28T13:08:26.487Z</time></trkpt><trkpt lat="40.8925933" lon="15.2476517"><ele>466.33333333333337</ele><time>2026-03-28T13:08:27.486Z</time></trkpt><trkpt lat="40.8926267" lon="15.2474067"><ele>467.6666666666667</ele><time>2026-03-28T13:08:28.487Z</time></trkpt><trkpt lat="40.89264" lon="15.24715"><ele>469.0</ele><time>2026-03-28T13:08:29.487Z</time></trkpt><trkpt lat="40.892645" lon="15.24689"><ele>469.0</ele><time>2026-03-28T13:08:30.487Z</time></trkpt><trkpt lat="40.89264" lon="15.246625"><ele>469.0</ele><time>2026-03-28T13:08:31.486Z</time></trkpt><trkpt lat="40.8926317" lon="15.2463467"><ele>469.0</ele><time>2026-03-28T13:08:32.487Z</time></trkpt><trkpt lat="40.892625" lon="15.2460717"><ele>468.33333333333337</ele><time>2026-03-28T13:08:33.487Z</time></trkpt><trkpt lat="40.8926133" lon="15.245805"><ele>467.66666666666663</ele><time>2026-03-28T13:08:34.486Z</time></trkpt><trkpt lat="40.8926017" lon="15.2455467"><ele>467.0</ele><time>2026-03-28T13:08:35.486Z</time></trkpt><trkpt lat="40.892595" lon="15.2452867"><ele>465.0</ele><time>2026-03-28T13:08:36.487Z</time></trkpt><trkpt lat="40.8925867" lon="15.245025"><ele>463.0</ele><time>2026-03-28T13:08:37.486Z</time></trkpt><trkpt lat="40.89258" lon="15.244765"><ele>461.0</ele><time>2026-03-28T13:08:38.487Z</time></trkpt><trkpt lat="40.892575" lon="15.2445067"><ele>461.0</ele><time>2026-03-28T13:08:39.487Z</time></trkpt><trkpt lat="40.892565" lon="15.2442517"><ele>461.0</ele><time>2026-03-28T13:08:40.486Z</time></trkpt><trkpt lat="40.8925467" lon="15.244"><ele>461.0</ele><time>2026-03-28T13:08:41.487Z</time></trkpt><trkpt lat="40.8925133" lon="15.24374"><ele>461.3333333333333</ele><time>2026-03-28T13:08:42.487Z</time></trkpt><trkpt lat="40.8924683" lon="15.2434917"><ele>461.66666666666663</ele><time>2026-03-28T13:08:43.487Z</time></trkpt><trkpt lat="40.8924183" lon="15.243235"><ele>462.0</ele><time>2026-03-28T13:08:44.486Z</time></trkpt><trkpt lat="40.89236" lon="15.2429733"><ele>462.66666666666663</ele><time>2026-03-28T13:08:45.487Z</time></trkpt><trkpt lat="40.8922867" lon="15.2427117"><ele>463.3333333333333</ele><time>2026-03-28T13:08:46.487Z</time></trkpt><trkpt lat="40.8922133" lon="15.24245"><ele>464.0</ele><time>2026-03-28T13:08:47.487Z</time></trkpt><trkpt lat="40.89213" lon="15.24219"><ele>465.0</ele><time>2026-03-28T13:08:48.487Z</time></trkpt><trkpt lat="40.89205" lon="15.2419317"><ele>466.0</ele><time>2026-03-28T13:08:49.487Z</time></trkpt><trkpt lat="40.891965" lon="15.2416683"><ele>467.0</ele><time>2026-03-28T13:08:50.486Z</time></trkpt><trkpt lat="40.891885" lon="15.2414017"><ele>467.66666666666663</ele><time>2026-03-28T13:08:51.487Z</time></trkpt><trkpt lat="40.89181" lon="15.24115"><ele>468.33333333333337</ele><time>2026-03-28T13:08:52.487Z</time></trkpt><trkpt lat="40.8917417" lon="15.24091"><ele>469.0</ele><time>2026-03-28T13:08:53.487Z</time></trkpt><trkpt lat="40.8916817" lon="15.2406583"><ele>466.33333333333337</ele><time>2026-03-28T13:08:54.487Z</time></trkpt><trkpt lat="40.89164" lon="15.2404"><ele>463.66666666666663</ele><time>2026-03-28T13:08:55.487Z</time></trkpt><trkpt lat="40.89161" lon="15.2401367"><ele>461.0</ele><time>2026-03-28T13:08:56.486Z</time></trkpt><trkpt lat="40.8915917" lon="15.2398733"><ele>461.0</ele><time>2026-03-28T13:08:57.486Z</time></trkpt><trkpt lat="40.89159" lon="15.2395967"><ele>461.0</ele><time>2026-03-28T13:08:58.487Z</time></trkpt><trkpt lat="40.89161" lon="15.239325"><ele>461.0</ele><time>2026-03-28T13:08:59.486Z</time></trkpt><trkpt lat="40.89164" lon="15.2390617"><ele>460.66666666666663</ele><time>2026-03-28T13:09:00.487Z</time></trkpt><trkpt lat="40.8916867" lon="15.2388133"><ele>460.33333333333337</ele><time>2026-03-28T13:09:01.487Z</time></trkpt><trkpt lat="40.8917483" lon="15.2385583"><ele>460.0</ele><time>2026-03-28T13:09:02.486Z</time></trkpt><trkpt lat="40.8918233" lon="15.2383"><ele>461.33333333333337</ele><time>2026-03-28T13:09:03.486Z</time></trkpt><trkpt lat="40.8919067" lon="15.2380483"><ele>462.66666666666663</ele><time>2026-03-28T13:09:04.486Z</time></trkpt><trkpt lat="40.8919983" lon="15.2377967"><ele>464.0</ele><time>2026-03-28T13:09:05.486Z</time></trkpt><trkpt lat="40.8920933" lon="15.2375467"><ele>463.3333333333333</ele><time>2026-03-28T13:09:06.486Z</time></trkpt><trkpt lat="40.8921867" lon="15.237295"><ele>462.66666666666663</ele><time>2026-03-28T13:09:07.487Z</time></trkpt><trkpt lat="40.8922767" lon="15.2370467"><ele>462.0</ele><time>2026-03-28T13:09:08.487Z</time></trkpt><trkpt lat="40.8923683" lon="15.2368017"><ele>462.0</ele><time>2026-03-28T13:09:09.487Z</time></trkpt><trkpt lat="40.8924533" lon="15.2365583"><ele>462.0</ele><time>2026-03-28T13:09:10.487Z</time></trkpt><trkpt lat="40.8925417" lon="15.2363183"><ele>462.0</ele><time>2026-03-28T13:09:11.486Z</time></trkpt><trkpt lat="40.892625" lon="15.2360883"><ele>463.0</ele><time>2026-03-28T13:09:12.486Z</time></trkpt><trkpt lat="40.8927033" lon="15.235865"><ele>464.0</ele><time>2026-03-28T13:09:13.486Z</time></trkpt><trkpt lat="40.89278" lon="15.2356433"><ele>465.0</ele><time>2026-03-28T13:09:14.486Z</time></trkpt><trkpt lat="40.892865" lon="15.235415"><ele>465.66666666666663</ele><time>2026-03-28T13:09:15.487Z</time></trkpt><trkpt lat="40.8929517" lon="15.2351867"><ele>466.3333333333333</ele><time>2026-03-28T13:09:16.487Z</time></trkpt><trkpt lat="40.8930317" lon="15.2349533"><ele>467.0</ele><time>2026-03-28T13:09:17.486Z</time></trkpt><trkpt lat="40.893115" lon="15.2347233"><ele>467.0</ele><time>2026-03-28T13:09:18.487Z</time></trkpt><trkpt lat="40.8931867" lon="15.2344833"><ele>467.0</ele><time>2026-03-28T13:09:19.486Z</time></trkpt><trkpt lat="40.893245" lon="15.2342417"><ele>467.0</ele><time>2026-03-28T13:09:20.487Z</time></trkpt><trkpt lat="40.89331" lon="15.2339917"><ele>466.0</ele><time>2026-03-28T13:09:21.487Z</time></trkpt><trkpt lat="40.8933633" lon="15.2337333"><ele>465.0</ele><time>2026-03-28T13:09:22.487Z</time></trkpt><trkpt lat="40.8934167" lon="15.2334717"><ele>464.0</ele><time>2026-03-28T13:09:23.487Z</time></trkpt><trkpt lat="40.89346" lon="15.23321"><ele>467.0</ele><time>2026-03-28T13:09:24.486Z</time></trkpt><trkpt lat="40.8934783" lon="15.2329483"><ele>470.0</ele><time>2026-03-28T13:09:25.486Z</time></trkpt><trkpt lat="40.893495" lon="15.232675"><ele>473.0</ele><time>2026-03-28T13:09:26.486Z</time></trkpt><trkpt lat="40.8935083" lon="15.2323983"><ele>473.3333333333333</ele><time>2026-03-28T13:09:27.487Z</time></trkpt><trkpt lat="40.8935133" lon="15.23213"><ele>473.66666666666663</ele><time>2026-03-28T13:09:28.487Z</time></trkpt><trkpt lat="40.89351" lon="15.2318583"><ele>474.0</ele><time>2026-03-28T13:09:29.487Z</time></trkpt><trkpt lat="40.8935017" lon="15.23157"><ele>475.0</ele><time>2026-03-28T13:09:30.487Z</time></trkpt><trkpt lat="40.8934833" lon="15.2312933"><ele>476.0</ele><time>2026-03-28T13:09:31.486Z</time></trkpt><trkpt lat="40.8934533" lon="15.2310183"><ele>477.0</ele><time>2026-03-28T13:09:32.487Z</time></trkpt><trkpt lat="40.8934067" lon="15.2307683"><ele>473.33333333333337</ele><time>2026-03-28T13:09:33.486Z</time></trkpt><trkpt lat="40.8933483" lon="15.230535"><ele>469.6666666666667</ele><time>2026-03-28T13:09:34.487Z</time></trkpt><trkpt lat="40.8932783" lon="15.2303117"><ele>466.0</ele><time>2026-03-28T13:09:35.486Z</time></trkpt><trkpt lat="40.89319" lon="15.2301017"><ele>466.0</ele><time>2026-03-28T13:09:36.486Z</time></trkpt><trkpt lat="40.8930967" lon="15.2298917"><ele>466.0</ele><time>2026-03-28T13:09:37.487Z</time></trkpt><trkpt lat="40.8929933" lon="15.2296933"><ele>466.0</ele><time>2026-03-28T13:09:38.487Z</time></trkpt><trkpt lat="40.892875" lon="15.22951"><ele>466.6666666666667</ele><time>2026-03-28T13:09:39.486Z</time></trkpt><trkpt lat="40.892745" lon="15.229335"><ele>467.33333333333337</ele><time>2026-03-28T13:09:40.486Z</time></trkpt><trkpt lat="40.892605" lon="15.2291817"><ele>468.0</ele><time>2026-03-28T13:09:41.486Z</time></trkpt><trkpt lat="40.8924533" lon="15.229045"><ele>469.0</ele><time>2026-03-28T13:09:42.487Z</time></trkpt><trkpt lat="40.892295" lon="15.22892"><ele>470.0</ele><time>2026-03-28T13:09:43.487Z</time></trkpt><trkpt lat="40.892135" lon="15.2288083"><ele>471.0</ele><time>2026-03-28T13:09:44.487Z</time></trkpt><trkpt lat="40.8919667" lon="15.2287117"><ele>471.0</ele><time>2026-03-28T13:09:45.487Z</time></trkpt><trkpt lat="40.8917917" lon="15.2286317"><ele>471.0</ele><time>2026-03-28T13:09:46.487Z</time></trkpt><trkpt lat="40.891615" lon="15.2285717"><ele>471.0</ele><time>2026-03-28T13:09:47.487Z</time></trkpt><trkpt lat="40.891445" lon="15.2285283"><ele>471.66666666666663</ele><time>2026-03-28T13:09:48.487Z</time></trkpt><trkpt lat="40.8912667" lon="15.2285083"><ele>472.3333333333333</ele><time>2026-03-28T13:09:49.486Z</time></trkpt><trkpt lat="40.891085" lon="15.2284933"><ele>473.0</ele><time>2026-03-28T13:09:50.487Z</time></trkpt><trkpt lat="40.89091" lon="15.228465"><ele>475.3333333333333</ele><time>2026-03-28T13:09:51.487Z</time></trkpt><trkpt lat="40.8907333" lon="15.2284133"><ele>477.66666666666663</ele><time>2026-03-28T13:09:52.486Z</time></trkpt><trkpt lat="40.8905617" lon="15.2283583"><ele>480.0</ele><time>2026-03-28T13:09:53.487Z</time></trkpt><trkpt lat="40.8903933" lon="15.2282817"><ele>480.0</ele><time>2026-03-28T13:09:54.486Z</time></trkpt><trkpt lat="40.8902267" lon="15.2281983"><ele>480.0</ele><time>2026-03-28T13:09:55.486Z</time></trkpt><trkpt lat="40.89006" lon="15.228095"><ele>480.0</ele><time>2026-03-28T13:09:56.487Z</time></trkpt><trkpt lat="40.8899083" lon="15.2279817"><ele>480.66666666666663</ele><time>2026-03-28T13:09:57.486Z</time></trkpt><trkpt lat="40.8897633" lon="15.2278683"><ele>481.3333333333333</ele><time>2026-03-28T13:09:58.486Z</time></trkpt><trkpt lat="40.8896233" lon="15.22775"><ele>482.0</ele><time>2026-03-28T13:09:59.486Z</time></trkpt><trkpt lat="40.8894917" lon="15.2276267"><ele>482.0</ele><time>2026-03-28T13:10:00.487Z</time></trkpt><trkpt lat="40.88937" lon="15.2274783"><ele>482.0</ele><time>2026-03-28T13:10:01.487Z</time></trkpt><trkpt lat="40.8892617" lon="15.2273133"><ele>482.0</ele><time>2026-03-28T13:10:02.487Z</time></trkpt><trkpt lat="40.8891483" lon="15.2271317"><ele>483.3333333333333</ele><time>2026-03-28T13:10:03.486Z</time></trkpt><trkpt lat="40.8890417" lon="15.2269317"><ele>484.66666666666663</ele><time>2026-03-28T13:10:04.488Z</time></trkpt><trkpt lat="40.88894" lon="15.22672"><ele>486.0</ele><time>2026-03-28T13:10:05.488Z</time></trkpt><trkpt lat="40.8888517" lon="15.2264883"><ele>483.66666666666663</ele><time>2026-03-28T13:10:06.488Z</time></trkpt><trkpt lat="40.88877" lon="15.2262567"><ele>481.3333333333333</ele><time>2026-03-28T13:10:07.488Z</time></trkpt><trkpt lat="40.8886833" lon="15.2260283"><ele>479.0</ele><time>2026-03-28T13:10:08.487Z</time></trkpt><trkpt lat="40.8885983" lon="15.2257917"><ele>480.0</ele><time>2026-03-28T13:10:09.488Z</time></trkpt><trkpt lat="40.8885217" lon="15.2255517"><ele>481.0</ele><time>2026-03-28T13:10:10.487Z</time></trkpt><trkpt lat="40.88845" lon="15.2253017"><ele>482.0</ele><time>2026-03-28T13:10:11.488Z</time></trkpt><trkpt lat="40.888375" lon="15.2250517"><ele>481.66666666666663</ele><time>2026-03-28T13:10:12.487Z</time></trkpt><trkpt lat="40.8883" lon="15.2248"><ele>481.33333333333337</ele><time>2026-03-28T13:10:13.488Z</time></trkpt><trkpt lat="40.8882233" lon="15.2245533"><ele>481.0</ele><time>2026-03-28T13:10:14.488Z</time></trkpt><trkpt lat="40.8881483" lon="15.2243033"><ele>481.0</ele><time>2026-03-28T13:10:15.488Z</time></trkpt><trkpt lat="40.8880783" lon="15.22405"><ele>481.0</ele><time>2026-03-28T13:10:16.487Z</time></trkpt><trkpt lat="40.8880083" lon="15.2238"><ele>481.0</ele><time>2026-03-28T13:10:17.488Z</time></trkpt><trkpt lat="40.8879333" lon="15.22356"><ele>480.6666666666667</ele><time>2026-03-28T13:10:18.488Z</time></trkpt><trkpt lat="40.8878633" lon="15.22332"><ele>480.33333333333337</ele><time>2026-03-28T13:10:19.488Z</time></trkpt><trkpt lat="40.8877917" lon="15.2230817"><ele>480.0</ele><time>2026-03-28T13:10:20.488Z</time></trkpt><trkpt lat="40.8877183" lon="15.2228467"><ele>479.66666666666663</ele><time>2026-03-28T13:10:21.488Z</time></trkpt><trkpt lat="40.88765" lon="15.2226133"><ele>479.3333333333333</ele><time>2026-03-28T13:10:22.488Z</time></trkpt><trkpt lat="40.8875783" lon="15.2223783"><ele>479.0</ele><time>2026-03-28T13:10:23.488Z</time></trkpt><trkpt lat="40.8875083" lon="15.22214"><ele>481.0</ele><time>2026-03-28T13:10:24.487Z</time></trkpt><trkpt lat="40.887435" lon="15.22191"><ele>483.0</ele><time>2026-03-28T13:10:25.487Z</time></trkpt><trkpt lat="40.8873617" lon="15.2216733"><ele>485.0</ele><time>2026-03-28T13:10:26.487Z</time></trkpt><trkpt lat="40.8872917" lon="15.2214367"><ele>485.0</ele><time>2026-03-28T13:10:27.487Z</time></trkpt><trkpt lat="40.8872183" lon="15.2212017"><ele>485.0</ele><time>2026-03-28T13:10:28.488Z</time></trkpt><trkpt lat="40.8871417" lon="15.2209667"><ele>485.0</ele><time>2026-03-28T13:10:29.488Z</time></trkpt><trkpt lat="40.8870617" lon="15.220735"><ele>484.66666666666663</ele><time>2026-03-28T13:10:30.488Z</time></trkpt><trkpt lat="40.88697" lon="15.2205167"><ele>484.33333333333337</ele><time>2026-03-28T13:10:31.488Z</time></trkpt><trkpt lat="40.8868683" lon="15.2203133"><ele>484.0</ele><time>2026-03-28T13:10:32.488Z</time></trkpt><trkpt lat="40.8867583" lon="15.22013"><ele>487.6666666666667</ele><time>2026-03-28T13:10:33.488Z</time></trkpt><trkpt lat="40.8866433" lon="15.2199467"><ele>491.33333333333337</ele><time>2026-03-28T13:10:34.487Z</time></trkpt><trkpt lat="40.886515" lon="15.2197733"><ele>495.0</ele><time>2026-03-28T13:10:35.488Z</time></trkpt><trkpt lat="40.8863783" lon="15.2196083"><ele>495.0</ele><time>2026-03-28T13:10:36.488Z</time></trkpt><trkpt lat="40.8862333" lon="15.2194467"><ele>495.0</ele><time>2026-03-28T13:10:37.488Z</time></trkpt><trkpt lat="40.886075" lon="15.21931"><ele>495.0</ele><time>2026-03-28T13:10:38.487Z</time></trkpt><trkpt lat="40.8859117" lon="15.2191733"><ele>494.33333333333337</ele><time>2026-03-28T13:10:39.487Z</time></trkpt><trkpt lat="40.8857467" lon="15.21905"><ele>493.6666666666667</ele><time>2026-03-28T13:10:40.488Z</time></trkpt><trkpt lat="40.8855817" lon="15.2189383"><ele>493.0</ele><time>2026-03-28T13:10:41.488Z</time></trkpt><trkpt lat="40.885415" lon="15.2188267"><ele>493.0</ele><time>2026-03-28T13:10:42.488Z</time></trkpt><trkpt lat="40.88525" lon="15.2187167"><ele>493.0</ele><time>2026-03-28T13:10:43.487Z</time></trkpt><trkpt lat="40.8850967" lon="15.2185967"><ele>493.0</ele><time>2026-03-28T13:10:44.488Z</time></trkpt><trkpt lat="40.884945" lon="15.21846"><ele>490.6666666666667</ele><time>2026-03-28T13:10:45.488Z</time></trkpt><trkpt lat="40.8847983" lon="15.218315"><ele>488.33333333333337</ele><time>2026-03-28T13:10:46.488Z</time></trkpt><trkpt lat="40.8846583" lon="15.2181583"><ele>486.0</ele><time>2026-03-28T13:10:47.488Z</time></trkpt><trkpt lat="40.884525" lon="15.2179833"><ele>486.0</ele><time>2026-03-28T13:10:48.488Z</time></trkpt><trkpt lat="40.8844017" lon="15.2178"><ele>486.0</ele><time>2026-03-28T13:10:49.488Z</time></trkpt><trkpt lat="40.8842817" lon="15.217595"><ele>486.0</ele><time>2026-03-28T13:10:50.488Z</time></trkpt><trkpt lat="40.8841733" lon="15.21739"><ele>487.33333333333337</ele><time>2026-03-28T13:10:51.488Z</time></trkpt><trkpt lat="40.8840683" lon="15.2171867"><ele>488.6666666666667</ele><time>2026-03-28T13:10:52.488Z</time></trkpt><trkpt lat="40.88397" lon="15.2169817"><ele>490.0</ele><time>2026-03-28T13:10:53.487Z</time></trkpt><trkpt lat="40.8838717" lon="15.2167683"><ele>490.0</ele><time>2026-03-28T13:10:54.488Z</time></trkpt><trkpt lat="40.8837767" lon="15.216555"><ele>490.0</ele><time>2026-03-28T13:10:55.488Z</time></trkpt><trkpt lat="40.8836717" lon="15.2163567"><ele>490.0</ele><time>2026-03-28T13:10:56.487Z</time></trkpt><trkpt lat="40.8835633" lon="15.2161633"><ele>491.6666666666667</ele><time>2026-03-28T13:10:57.488Z</time></trkpt><trkpt lat="40.8834433" lon="15.2159767"><ele>493.33333333333337</ele><time>2026-03-28T13:10:58.488Z</time></trkpt><trkpt lat="40.883315" lon="15.2158067"><ele>495.0</ele><time>2026-03-28T13:10:59.488Z</time></trkpt><trkpt lat="40.8831733" lon="15.2156583"><ele>494.0</ele><time>2026-03-28T13:11:00.488Z</time></trkpt><trkpt lat="40.8830283" lon="15.215535"><ele>493.0</ele><time>2026-03-28T13:11:01.488Z</time></trkpt><trkpt lat="40.8828767" lon="15.215435"><ele>492.0</ele><time>2026-03-28T13:11:02.487Z</time></trkpt><trkpt lat="40.882715" lon="15.2153433"><ele>497.33333333333337</ele><time>2026-03-28T13:11:03.488Z</time></trkpt><trkpt lat="40.8825483" lon="15.2152717"><ele>502.6666666666667</ele><time>2026-03-28T13:11:04.488Z</time></trkpt><trkpt lat="40.8823733" lon="15.215205"><ele>508.0</ele><time>2026-03-28T13:11:05.487Z</time></trkpt><trkpt lat="40.8822" lon="15.2151433"><ele>508.0</ele><time>2026-03-28T13:11:06.487Z</time></trkpt><trkpt lat="40.8820283" lon="15.21507"><ele>508.0</ele><time>2026-03-28T13:11:07.488Z</time></trkpt><trkpt lat="40.881855" lon="15.2149883"><ele>508.0</ele><time>2026-03-28T13:11:08.487Z</time></trkpt><trkpt lat="40.8816833" lon="15.214885"><ele>510.6666666666667</ele><time>2026-03-28T13:11:09.488Z</time></trkpt><trkpt lat="40.8815317" lon="15.2147567"><ele>513.3333333333334</ele><time>2026-03-28T13:11:10.488Z</time></trkpt><trkpt lat="40.8813883" lon="15.21459"><ele>516.0</ele><time>2026-03-28T13:11:11.487Z</time></trkpt><trkpt lat="40.8812517" lon="15.2144283"><ele>516.0</ele><time>2026-03-28T13:11:12.488Z</time></trkpt><trkpt lat="40.881125" lon="15.2142633"><ele>516.0</ele><time>2026-03-28T13:11:13.488Z</time></trkpt><trkpt lat="40.8810117" lon="15.2140883"><ele>516.0</ele><time>2026-03-28T13:11:14.487Z</time></trkpt><trkpt lat="40.8809033" lon="15.2139"><ele>514.3333333333334</ele><time>2026-03-28T13:11:15.488Z</time></trkpt><trkpt lat="40.8807967" lon="15.21371"><ele>512.6666666666667</ele><time>2026-03-28T13:11:16.488Z</time></trkpt><trkpt lat="40.8806983" lon="15.2135117"><ele>511.0</ele><time>2026-03-28T13:11:17.488Z</time></trkpt><trkpt lat="40.8806317" lon="15.2132667"><ele>511.33333333333337</ele><time>2026-03-28T13:11:18.487Z</time></trkpt><trkpt lat="40.88054" lon="15.2130367"><ele>511.66666666666663</ele><time>2026-03-28T13:11:19.487Z</time></trkpt><trkpt lat="40.88046" lon="15.212785"><ele>512.0</ele><time>2026-03-28T13:11:20.488Z</time></trkpt><trkpt lat="40.8803767" lon="15.2125317"><ele>513.6666666666666</ele><time>2026-03-28T13:11:21.488Z</time></trkpt><trkpt lat="40.8803083" lon="15.2122733"><ele>515.3333333333334</ele><time>2026-03-28T13:11:22.488Z</time></trkpt><trkpt lat="40.8802433" lon="15.2120217"><ele>517.0</ele><time>2026-03-28T13:11:23.488Z</time></trkpt><trkpt lat="40.8801883" lon="15.2117717"><ele>517.0</ele><time>2026-03-28T13:11:24.487Z</time></trkpt><trkpt lat="40.8801283" lon="15.211525"><ele>517.0</ele><time>2026-03-28T13:11:25.488Z</time></trkpt><trkpt lat="40.8800717" lon="15.2112833"><ele>517.0</ele><time>2026-03-28T13:11:26.487Z</time></trkpt><trkpt lat="40.8800183" lon="15.2110667"><ele>516.25</ele><time>2026-03-28T13:11:27.488Z</time></trkpt><trkpt lat="40.87997" lon="15.2108733"><ele>515.5</ele><time>2026-03-28T13:11:28.488Z</time></trkpt><trkpt lat="40.8799333" lon="15.2106917"><ele>514.75</ele><time>2026-03-28T13:11:29.487Z</time></trkpt><trkpt lat="40.8798967" lon="15.2105283"><ele>514.0</ele><time>2026-03-28T13:11:30.488Z</time></trkpt><trkpt lat="40.8798733" lon="15.2103783"><ele>514.0</ele><time>2026-03-28T13:11:31.487Z</time></trkpt><trkpt lat="40.8798683" lon="15.21023"><ele>514.0</ele><time>2026-03-28T13:11:32.488Z</time></trkpt><trkpt lat="40.8798867" lon="15.2100833"><ele>514.0</ele><time>2026-03-28T13:11:33.488Z</time></trkpt><trkpt lat="40.8799283" lon="15.2099317"><ele>514.0</ele><time>2026-03-28T13:11:34.488Z</time></trkpt><trkpt lat="40.8799767" lon="15.2097917"><ele>514.0</ele><time>2026-03-28T13:11:35.488Z</time></trkpt><trkpt lat="40.8800283" lon="15.2096483"><ele>514.0</ele><time>2026-03-28T13:11:36.488Z</time></trkpt><trkpt lat="40.8800767" lon="15.209505"><ele>514.0</ele><time>2026-03-28T13:11:37.487Z</time></trkpt><trkpt lat="40.88011" lon="15.20936"><ele>514.0</ele><time>2026-03-28T13:11:38.488Z</time></trkpt><trkpt lat="40.8801183" lon="15.2092133"><ele>517.0</ele><time>2026-03-28T13:11:39.487Z</time></trkpt><trkpt lat="40.8801033" lon="15.2090667"><ele>520.0</ele><time>2026-03-28T13:11:40.487Z</time></trkpt><trkpt lat="40.8800717" lon="15.2089283"><ele>523.0</ele><time>2026-03-28T13:11:41.488Z</time></trkpt><trkpt lat="40.880025" lon="15.2088133"><ele>526.0</ele><time>2026-03-28T13:11:42.488Z</time></trkpt><trkpt lat="40.8799583" lon="15.208705"><ele>529.0</ele><time>2026-03-28T13:11:43.488Z</time></trkpt><trkpt lat="40.879875" lon="15.208625"><ele>529.0</ele><time>2026-03-28T13:11:44.487Z</time></trkpt><trkpt lat="40.8797783" lon="15.20857"><ele>529.0</ele><time>2026-03-28T13:11:45.487Z</time></trkpt><trkpt lat="40.8796767" lon="15.2085333"><ele>529.0</ele><time>2026-03-28T13:11:46.487Z</time></trkpt><trkpt lat="40.8795667" lon="15.2085233"><ele>529.0</ele><time>2026-03-28T13:11:47.488Z</time></trkpt><trkpt lat="40.8794567" lon="15.20855"><ele>529.0</ele><time>2026-03-28T13:11:48.487Z</time></trkpt><trkpt lat="40.879345" lon="15.2086"><ele>525.75</ele><time>2026-03-28T13:11:49.487Z</time></trkpt><trkpt lat="40.87923" lon="15.208675"><ele>522.5</ele><time>2026-03-28T13:11:50.488Z</time></trkpt><trkpt lat="40.879115" lon="15.20877"><ele>519.25</ele><time>2026-03-28T13:11:51.487Z</time></trkpt><trkpt lat="40.8789867" lon="15.2088767"><ele>516.0</ele><time>2026-03-28T13:11:52.488Z</time></trkpt><trkpt lat="40.878835" lon="15.2089867"><ele>516.0</ele><time>2026-03-28T13:11:53.488Z</time></trkpt><trkpt lat="40.87867" lon="15.209095"><ele>516.0</ele><time>2026-03-28T13:11:54.488Z</time></trkpt><trkpt lat="40.8785167" lon="15.2091817"><ele>516.0</ele><time>2026-03-28T13:11:55.488Z</time></trkpt><trkpt lat="40.878365" lon="15.20926"><ele>519.6666666666666</ele><time>2026-03-28T13:11:56.488Z</time></trkpt><trkpt lat="40.8782067" lon="15.209335"><ele>523.3333333333333</ele><time>2026-03-28T13:11:57.488Z</time></trkpt><trkpt lat="40.878045" lon="15.2094033"><ele>527.0</ele><time>2026-03-28T13:11:58.487Z</time></trkpt><trkpt lat="40.87788" lon="15.2094667"><ele>527.0</ele><time>2026-03-28T13:11:59.487Z</time></trkpt><trkpt lat="40.8777" lon="15.2095183"><ele>527.0</ele><time>2026-03-28T13:12:00.487Z</time></trkpt><trkpt lat="40.8775133" lon="15.20957"><ele>527.0</ele><time>2026-03-28T13:12:01.487Z</time></trkpt><trkpt lat="40.8773117" lon="15.209625"><ele>530.0</ele><time>2026-03-28T13:12:02.488Z</time></trkpt><trkpt lat="40.877105" lon="15.2096833"><ele>533.0</ele><time>2026-03-28T13:12:03.488Z</time></trkpt><trkpt lat="40.8768917" lon="15.2097267"><ele>536.0</ele><time>2026-03-28T13:12:04.488Z</time></trkpt><trkpt lat="40.8766833" lon="15.20978"><ele>540.6666666666666</ele><time>2026-03-28T13:12:05.487Z</time></trkpt><trkpt lat="40.8764717" lon="15.2098317"><ele>545.3333333333334</ele><time>2026-03-28T13:12:06.487Z</time></trkpt><trkpt lat="40.8762583" lon="15.2098917"><ele>550.0</ele><time>2026-03-28T13:12:07.488Z</time></trkpt><trkpt lat="40.876045" lon="15.2099567"><ele>554.0</ele><time>2026-03-28T13:12:08.487Z</time></trkpt><trkpt lat="40.875825" lon="15.2100367"><ele>558.0</ele><time>2026-03-28T13:12:09.488Z</time></trkpt><trkpt lat="40.8756167" lon="15.2101367"><ele>558.0</ele><time>2026-03-28T13:12:10.487Z</time></trkpt><trkpt lat="40.8753967" lon="15.2102333"><ele>558.0</ele><time>2026-03-28T13:12:11.488Z</time></trkpt><trkpt lat="40.87518" lon="15.2103483"><ele>559.0</ele><time>2026-03-28T13:12:12.487Z</time></trkpt><trkpt lat="40.8749667" lon="15.210475"><ele>560.0</ele><time>2026-03-28T13:12:13.488Z</time></trkpt><trkpt lat="40.8747483" lon="15.2106083"><ele>563.5</ele><time>2026-03-28T13:12:14.488Z</time></trkpt><trkpt lat="40.8745317" lon="15.21075"><ele>567.0</ele><time>2026-03-28T13:12:15.488Z</time></trkpt><trkpt lat="40.8743117" lon="15.210895"><ele>567.0</ele><time>2026-03-28T13:12:16.487Z</time></trkpt><trkpt lat="40.8740917" lon="15.2110533"><ele>567.0</ele><time>2026-03-28T13:12:17.487Z</time></trkpt><trkpt lat="40.8738767" lon="15.2112017"><ele>567.0</ele><time>2026-03-28T13:12:18.488Z</time></trkpt><trkpt lat="40.873665" lon="15.2113517"><ele>567.0</ele><time>2026-03-28T13:12:19.487Z</time></trkpt><trkpt lat="40.8734417" lon="15.2115033"><ele>568.5</ele><time>2026-03-28T13:12:20.488Z</time></trkpt><trkpt lat="40.8732117" lon="15.2116567"><ele>570.0</ele><time>2026-03-28T13:12:21.487Z</time></trkpt><trkpt lat="40.872985" lon="15.2118067"><ele>570.0</ele><time>2026-03-28T13:12:22.487Z</time></trkpt><trkpt lat="40.87278" lon="15.211965"><ele>570.0</ele><time>2026-03-28T13:12:23.487Z</time></trkpt><trkpt lat="40.87257" lon="15.2121117"><ele>568.0</ele><time>2026-03-28T13:12:24.488Z</time></trkpt><trkpt lat="40.8723567" lon="15.212255"><ele>566.0</ele><time>2026-03-28T13:12:25.487Z</time></trkpt><trkpt lat="40.8721517" lon="15.2123933"><ele>569.0</ele><time>2026-03-28T13:12:26.488Z</time></trkpt><trkpt lat="40.8719533" lon="15.21253"><ele>572.0</ele><time>2026-03-28T13:12:27.487Z</time></trkpt><trkpt lat="40.871755" lon="15.212675"><ele>572.0</ele><time>2026-03-28T13:12:28.488Z</time></trkpt><trkpt lat="40.871555" lon="15.2128067"><ele>572.0</ele><time>2026-03-28T13:12:29.487Z</time></trkpt><trkpt lat="40.8713517" lon="15.2129383"><ele>572.0</ele><time>2026-03-28T13:12:30.488Z</time></trkpt><trkpt lat="40.8711483" lon="15.21308"><ele>572.0</ele><time>2026-03-28T13:12:31.488Z</time></trkpt><trkpt lat="40.87095" lon="15.2132133"><ele>571.6666666666666</ele><time>2026-03-28T13:12:32.488Z</time></trkpt><trkpt lat="40.870765" lon="15.2133417"><ele>571.3333333333334</ele><time>2026-03-28T13:12:33.488Z</time></trkpt><trkpt lat="40.8705817" lon="15.2134683"><ele>571.0</ele><time>2026-03-28T13:12:34.487Z</time></trkpt><trkpt lat="40.8703983" lon="15.2136033"><ele>571.0</ele><time>2026-03-28T13:12:35.487Z</time></trkpt><trkpt lat="40.870215" lon="15.2137467"><ele>571.0</ele><time>2026-03-28T13:12:36.487Z</time></trkpt><trkpt lat="40.8700333" lon="15.2139033"><ele>571.0</ele><time>2026-03-28T13:12:37.488Z</time></trkpt><trkpt lat="40.8698583" lon="15.2140683"><ele>572.0</ele><time>2026-03-28T13:12:38.487Z</time></trkpt><trkpt lat="40.8696933" lon="15.2142483"><ele>573.0</ele><time>2026-03-28T13:12:39.487Z</time></trkpt><trkpt lat="40.8695283" lon="15.214435"><ele>574.0</ele><time>2026-03-28T13:12:40.487Z</time></trkpt><trkpt lat="40.8693633" lon="15.21463"><ele>575.3333333333334</ele><time>2026-03-28T13:12:41.487Z</time></trkpt><trkpt lat="40.86921" lon="15.2148433"><ele>576.6666666666666</ele><time>2026-03-28T13:12:42.487Z</time></trkpt><trkpt lat="40.86907" lon="15.2150683"><ele>578.0</ele><time>2026-03-28T13:12:43.488Z</time></trkpt><trkpt lat="40.868935" lon="15.2153033"><ele>578.0</ele><time>2026-03-28T13:12:44.487Z</time></trkpt><trkpt lat="40.868805" lon="15.2155417"><ele>578.0</ele><time>2026-03-28T13:12:45.488Z</time></trkpt><trkpt lat="40.86868" lon="15.2157967"><ele>580.0</ele><time>2026-03-28T13:12:46.487Z</time></trkpt><trkpt lat="40.868565" lon="15.2160633"><ele>582.0</ele><time>2026-03-28T13:12:47.487Z</time></trkpt><trkpt lat="40.8684617" lon="15.2163417"><ele>580.0</ele><time>2026-03-28T13:12:48.488Z</time></trkpt><trkpt lat="40.8683583" lon="15.2166233"><ele>578.0</ele><time>2026-03-28T13:12:49.487Z</time></trkpt><trkpt lat="40.8682583" lon="15.2169083"><ele>578.0</ele><time>2026-03-28T13:12:50.488Z</time></trkpt><trkpt lat="40.8681683" lon="15.2171933"><ele>578.0</ele><time>2026-03-28T13:12:51.488Z</time></trkpt><trkpt lat="40.8680783" lon="15.2174833"><ele>579.5</ele><time>2026-03-28T13:12:52.488Z</time></trkpt><trkpt lat="40.8679817" lon="15.21776"><ele>581.0</ele><time>2026-03-28T13:12:53.487Z</time></trkpt><trkpt lat="40.8678817" lon="15.2180333"><ele>584.0</ele><time>2026-03-28T13:12:54.488Z</time></trkpt><trkpt lat="40.86779" lon="15.2183017"><ele>587.0</ele><time>2026-03-28T13:12:55.487Z</time></trkpt><trkpt lat="40.8677017" lon="15.2185733"><ele>590.0</ele><time>2026-03-28T13:12:56.487Z</time></trkpt><trkpt lat="40.8676117" lon="15.2188483"><ele>591.0</ele><time>2026-03-28T13:12:57.487Z</time></trkpt><trkpt lat="40.8644183" lon="15.223015"><ele>590.6666666666666</ele><time>2026-03-28T13:13:20.482Z</time></trkpt><trkpt lat="40.8642017" lon="15.223045"><ele>590.3333333333333</ele><time>2026-03-28T13:13:21.481Z</time></trkpt><trkpt lat="40.8639833" lon="15.223085"><ele>590.0</ele><time>2026-03-28T13:13:22.481Z</time></trkpt><trkpt lat="40.8637483" lon="15.2231283"><ele>585.0</ele><time>2026-03-28T13:13:23.482Z</time></trkpt><trkpt lat="40.8635067" lon="15.2231667"><ele>580.0</ele><time>2026-03-28T13:13:24.482Z</time></trkpt><trkpt lat="40.8632617" lon="15.2232017"><ele>580.0</ele><time>2026-03-28T13:13:25.482Z</time></trkpt><trkpt lat="40.863005" lon="15.2232267"><ele>580.0</ele><time>2026-03-28T13:13:26.481Z</time></trkpt><trkpt lat="40.8627467" lon="15.2232467"><ele>579.0</ele><time>2026-03-28T13:13:27.481Z</time></trkpt><trkpt lat="40.862495" lon="15.2232767"><ele>578.0</ele><time>2026-03-28T13:13:28.481Z</time></trkpt><trkpt lat="40.8622383" lon="15.22331"><ele>578.0</ele><time>2026-03-28T13:13:29.482Z</time></trkpt><trkpt lat="40.8619817" lon="15.2233483"><ele>578.0</ele><time>2026-03-28T13:13:30.482Z</time></trkpt><trkpt lat="40.86173" lon="15.2233817"><ele>576.5</ele><time>2026-03-28T13:13:31.482Z</time></trkpt><trkpt lat="40.8614817" lon="15.2234133"><ele>575.0</ele><time>2026-03-28T13:13:32.482Z</time></trkpt><trkpt lat="40.8612317" lon="15.2234433"><ele>575.0</ele><time>2026-03-28T13:13:33.481Z</time></trkpt><trkpt lat="40.860985" lon="15.22347"><ele>575.0</ele><time>2026-03-28T13:13:34.481Z</time></trkpt><trkpt lat="40.8607417" lon="15.223495"><ele>576.5</ele><time>2026-03-28T13:13:35.482Z</time></trkpt><trkpt lat="40.8604983" lon="15.2235167"><ele>578.0</ele><time>2026-03-28T13:13:36.481Z</time></trkpt><trkpt lat="40.8602483" lon="15.2235417"><ele>582.5</ele><time>2026-03-28T13:13:37.482Z</time></trkpt><trkpt lat="40.8600033" lon="15.223545"><ele>587.0</ele><time>2026-03-28T13:13:38.481Z</time></trkpt><trkpt lat="40.8597583" lon="15.223545"><ele>587.0</ele><time>2026-03-28T13:13:39.482Z</time></trkpt><trkpt lat="40.8595183" lon="15.2235533"><ele>587.0</ele><time>2026-03-28T13:13:40.482Z</time></trkpt><trkpt lat="40.8592717" lon="15.2235367"><ele>592.0</ele><time>2026-03-28T13:13:41.481Z</time></trkpt><trkpt lat="40.8590217" lon="15.2235283"><ele>597.0</ele><time>2026-03-28T13:13:42.481Z</time></trkpt><trkpt lat="40.8587483" lon="15.2235083"><ele>597.0</ele><time>2026-03-28T13:13:43.482Z</time></trkpt><trkpt lat="40.858485" lon="15.223485"><ele>597.0</ele><time>2026-03-28T13:13:44.482Z</time></trkpt><trkpt lat="40.8581833" lon="15.223545"><ele>594.0</ele><time>2026-03-28T13:13:45.481Z</time></trkpt><trkpt lat="40.85791" lon="15.223515"><ele>591.0</ele><time>2026-03-28T13:13:46.481Z</time></trkpt><trkpt lat="40.85764" lon="15.2235117"><ele>582.5</ele><time>2026-03-28T13:13:47.482Z</time></trkpt><trkpt lat="40.8573783" lon="15.22351"><ele>574.0</ele><time>2026-03-28T13:13:48.482Z</time></trkpt><trkpt lat="40.8571217" lon="15.2235017"><ele>574.0</ele><time>2026-03-28T13:13:49.481Z</time></trkpt><trkpt lat="40.856865" lon="15.22349"><ele>574.0</ele><time>2026-03-28T13:13:50.481Z</time></trkpt><trkpt lat="40.8566083" lon="15.22348"><ele>563.5</ele><time>2026-03-28T13:13:51.481Z</time></trkpt><trkpt lat="40.8563517" lon="15.223475"><ele>553.0</ele><time>2026-03-28T13:13:52.482Z</time></trkpt><trkpt lat="40.8560967" lon="15.22347"><ele>551.5</ele><time>2026-03-28T13:13:53.482Z</time></trkpt><trkpt lat="40.8558433" lon="15.22346"><ele>550.0</ele><time>2026-03-28T13:13:54.482Z</time></trkpt><trkpt lat="40.8555883" lon="15.2234517"><ele>550.0</ele><time>2026-03-28T13:13:55.481Z</time></trkpt><trkpt lat="40.8553317" lon="15.2234467"><ele>550.0</ele><time>2026-03-28T13:13:56.482Z</time></trkpt><trkpt lat="40.8550833" lon="15.2234417"><ele>562.0</ele><time>2026-03-28T13:13:57.482Z</time></trkpt><trkpt lat="40.8548367" lon="15.22343"><ele>574.0</ele><time>2026-03-28T13:13:58.481Z</time></trkpt><trkpt lat="40.8545883" lon="15.223425"><ele>574.0</ele><time>2026-03-28T13:13:59.482Z</time></trkpt><trkpt lat="40.85435" lon="15.223415"><ele>574.0</ele><time>2026-03-28T13:14:00.482Z</time></trkpt><trkpt lat="40.8541017" lon="15.223405"><ele>582.5</ele><time>2026-03-28T13:14:01.481Z</time></trkpt><trkpt lat="40.85385" lon="15.2233933"><ele>591.0</ele><time>2026-03-28T13:14:02.482Z</time></trkpt><trkpt lat="40.853595" lon="15.2233817"><ele>590.5</ele><time>2026-03-28T13:14:03.482Z</time></trkpt><trkpt lat="40.8533533" lon="15.223375"><ele>590.0</ele><time>2026-03-28T13:14:04.481Z</time></trkpt><trkpt lat="40.8531067" lon="15.2233683"><ele>590.0</ele><time>2026-03-28T13:14:05.482Z</time></trkpt><trkpt lat="40.8528583" lon="15.223365"><ele>590.0</ele><time>2026-03-28T13:14:06.482Z</time></trkpt><trkpt lat="40.8526283" lon="15.2233683"><ele>591.5</ele><time>2026-03-28T13:14:07.482Z</time></trkpt><trkpt lat="40.8523983" lon="15.2233717"><ele>593.0</ele><time>2026-03-28T13:14:08.482Z</time></trkpt><trkpt lat="40.8521767" lon="15.2233733"><ele>593.0</ele><time>2026-03-28T13:14:09.482Z</time></trkpt><trkpt lat="40.8519483" lon="15.2233717"><ele>593.0</ele><time>2026-03-28T13:14:10.482Z</time></trkpt><trkpt lat="40.8517367" lon="15.22338"><ele>593.0</ele><time>2026-03-28T13:14:11.482Z</time></trkpt><trkpt lat="40.8515167" lon="15.2233567"><ele>596.5</ele><time>2026-03-28T13:14:12.482Z</time></trkpt><trkpt lat="40.8512917" lon="15.2234117"><ele>600.0</ele><time>2026-03-28T13:14:13.482Z</time></trkpt><trkpt lat="40.85106" lon="15.223515"><ele>598.5</ele><time>2026-03-28T13:14:14.482Z</time></trkpt><trkpt lat="40.8508267" lon="15.2236133"><ele>597.0</ele><time>2026-03-28T13:14:15.481Z</time></trkpt><trkpt lat="40.8505867" lon="15.2237367"><ele>597.0</ele><time>2026-03-28T13:14:16.481Z</time></trkpt><trkpt lat="40.8503517" lon="15.2238383"><ele>597.0</ele><time>2026-03-28T13:14:17.481Z</time></trkpt><trkpt lat="40.85012" lon="15.2239417"><ele>595.5</ele><time>2026-03-28T13:14:18.481Z</time></trkpt><trkpt lat="40.849885" lon="15.2240567"><ele>594.0</ele><time>2026-03-28T13:14:19.482Z</time></trkpt><trkpt lat="40.8496583" lon="15.2241717"><ele>594.0</ele><time>2026-03-28T13:14:20.481Z</time></trkpt><trkpt lat="40.8494383" lon="15.22429"><ele>594.0</ele><time>2026-03-28T13:14:21.481Z</time></trkpt><trkpt lat="40.84922" lon="15.2244167"><ele>601.5</ele><time>2026-03-28T13:14:22.482Z</time></trkpt><trkpt lat="40.84901" lon="15.224545"><ele>609.0</ele><time>2026-03-28T13:14:23.482Z</time></trkpt><trkpt lat="40.8487933" lon="15.2246667"><ele>609.0</ele><time>2026-03-28T13:14:24.482Z</time></trkpt><trkpt lat="40.8485817" lon="15.2247917"><ele>609.0</ele><time>2026-03-28T13:14:25.481Z</time></trkpt><trkpt lat="40.8483767" lon="15.2249167"><ele>610.0</ele><time>2026-03-28T13:14:26.482Z</time></trkpt><trkpt lat="40.8481667" lon="15.2250417"><ele>611.0</ele><time>2026-03-28T13:14:27.481Z</time></trkpt><trkpt lat="40.8479667" lon="15.22516"><ele>612.0</ele><time>2026-03-28T13:14:28.481Z</time></trkpt><trkpt lat="40.8477683" lon="15.225295"><ele>611.3333333333334</ele><time>2026-03-28T13:14:29.481Z</time></trkpt><trkpt lat="40.84757" lon="15.2254433"><ele>610.6666666666667</ele><time>2026-03-28T13:14:30.481Z</time></trkpt><trkpt lat="40.8473817" lon="15.22555"><ele>610.0</ele><time>2026-03-28T13:14:31.481Z</time></trkpt><trkpt lat="40.8471767" lon="15.2256583"><ele>610.0</ele><time>2026-03-28T13:14:32.482Z</time></trkpt><trkpt lat="40.84696" lon="15.2257467"><ele>610.0</ele><time>2026-03-28T13:14:33.482Z</time></trkpt><trkpt lat="40.8467433" lon="15.2258233"><ele>613.3333333333334</ele><time>2026-03-28T13:14:34.482Z</time></trkpt><trkpt lat="40.8465333" lon="15.22588"><ele>616.6666666666666</ele><time>2026-03-28T13:14:35.482Z</time></trkpt><trkpt lat="40.8463467" lon="15.2259333"><ele>620.0</ele><time>2026-03-28T13:14:36.482Z</time></trkpt><trkpt lat="40.8461633" lon="15.22598"><ele>620.0</ele><time>2026-03-28T13:14:37.482Z</time></trkpt><trkpt lat="40.8459817" lon="15.2260233"><ele>620.0</ele><time>2026-03-28T13:14:38.482Z</time></trkpt><trkpt lat="40.8458" lon="15.226085"><ele>620.0</ele><time>2026-03-28T13:14:39.482Z</time></trkpt><trkpt lat="40.8456233" lon="15.2261517"><ele>621.3333333333333</ele><time>2026-03-28T13:14:40.481Z</time></trkpt><trkpt lat="40.845435" lon="15.22621"><ele>622.6666666666666</ele><time>2026-03-28T13:14:41.482Z</time></trkpt><trkpt lat="40.845245" lon="15.2262617"><ele>624.0</ele><time>2026-03-28T13:14:42.481Z</time></trkpt><trkpt lat="40.845055" lon="15.2260367"><ele>624.0</ele><time>2026-03-28T13:14:43.481Z</time></trkpt><trkpt lat="40.844835" lon="15.2258567"><ele>624.0</ele><time>2026-03-28T13:14:44.482Z</time></trkpt><trkpt lat="40.8446" lon="15.2257667"><ele>624.0</ele><time>2026-03-28T13:14:45.481Z</time></trkpt><trkpt lat="40.844385" lon="15.2256617"><ele>624.0</ele><time>2026-03-28T13:14:46.481Z</time></trkpt><trkpt lat="40.84417" lon="15.2255767"><ele>630.0</ele><time>2026-03-28T13:14:47.482Z</time></trkpt><trkpt lat="40.8439417" lon="15.2254783"><ele>636.0</ele><time>2026-03-28T13:14:48.481Z</time></trkpt><trkpt lat="40.8437083" lon="15.2253933"><ele>636.0</ele><time>2026-03-28T13:14:49.482Z</time></trkpt><trkpt lat="40.8434933" lon="15.2253167"><ele>636.0</ele><time>2026-03-28T13:14:50.481Z</time></trkpt><trkpt lat="40.8433" lon="15.2252367"><ele>636.0</ele><time>2026-03-28T13:14:51.482Z</time></trkpt><trkpt lat="40.8431017" lon="15.2251867"><ele>635.0</ele><time>2026-03-28T13:14:52.481Z</time></trkpt><trkpt lat="40.8428733" lon="15.2251467"><ele>634.0</ele><time>2026-03-28T13:14:53.482Z</time></trkpt><trkpt lat="40.8426383" lon="15.225145"><ele>634.0</ele><time>2026-03-28T13:14:54.481Z</time></trkpt><trkpt lat="40.8423967" lon="15.2251217"><ele>634.0</ele><time>2026-03-28T13:14:55.482Z</time></trkpt><trkpt lat="40.842175" lon="15.225115"><ele>634.0</ele><time>2026-03-28T13:14:56.482Z</time></trkpt><trkpt lat="40.841945" lon="15.225115"><ele>634.0</ele><time>2026-03-28T13:14:57.482Z</time></trkpt><trkpt lat="40.8416867" lon="15.22513"><ele>639.0</ele><time>2026-03-28T13:14:58.482Z</time></trkpt><trkpt lat="40.8414567" lon="15.225135"><ele>644.0</ele><time>2026-03-28T13:14:59.481Z</time></trkpt><trkpt lat="40.8412267" lon="15.2251383"><ele>644.0</ele><time>2026-03-28T13:15:00.481Z</time></trkpt><trkpt lat="40.8409967" lon="15.2251433"><ele>644.0</ele><time>2026-03-28T13:15:01.481Z</time></trkpt><trkpt lat="40.8332483" lon="15.22734"><ele>628.0</ele><time>2026-03-28T13:15:33.483Z</time></trkpt><trkpt lat="40.8330083" lon="15.227415"><ele>612.0</ele><time>2026-03-28T13:15:34.482Z</time></trkpt><trkpt lat="40.8327817" lon="15.22749"><ele>609.5</ele><time>2026-03-28T13:15:35.482Z</time></trkpt><trkpt lat="40.8325567" lon="15.227555"><ele>607.0</ele><time>2026-03-28T13:15:36.482Z</time></trkpt><trkpt lat="40.83232" lon="15.227615"><ele>607.0</ele><time>2026-03-28T13:15:37.483Z</time></trkpt><trkpt lat="40.8320783" lon="15.22768"><ele>607.0</ele><time>2026-03-28T13:15:38.482Z</time></trkpt><trkpt lat="40.831835" lon="15.227745"><ele>603.0</ele><time>2026-03-28T13:15:39.483Z</time></trkpt><trkpt lat="40.8315983" lon="15.2278083"><ele>599.0</ele><time>2026-03-28T13:15:40.483Z</time></trkpt><trkpt lat="40.8313583" lon="15.227875"><ele>599.0</ele><time>2026-03-28T13:15:41.482Z</time></trkpt><trkpt lat="40.83112" lon="15.2279367"><ele>599.0</ele><time>2026-03-28T13:15:42.483Z</time></trkpt><trkpt lat="40.8308833" lon="15.22801"><ele>599.0</ele><time>2026-03-28T13:15:43.482Z</time></trkpt><trkpt lat="40.83065" lon="15.2280883"><ele>599.0</ele><time>2026-03-28T13:15:44.482Z</time></trkpt><trkpt lat="40.8304117" lon="15.2281683"><ele>599.0</ele><time>2026-03-28T13:15:45.483Z</time></trkpt><trkpt lat="40.83017" lon="15.2282583"><ele>599.0</ele><time>2026-03-28T13:15:46.482Z</time></trkpt><trkpt lat="40.8299367" lon="15.2283567"><ele>594.0</ele><time>2026-03-28T13:15:47.483Z</time></trkpt><trkpt lat="40.8297133" lon="15.22846"><ele>589.0</ele><time>2026-03-28T13:15:48.482Z</time></trkpt><trkpt lat="40.8294883" lon="15.228575"><ele>584.0</ele><time>2026-03-28T13:15:49.483Z</time></trkpt><trkpt lat="40.829265" lon="15.2286967"><ele>579.0</ele><time>2026-03-28T13:15:50.483Z</time></trkpt><trkpt lat="40.8290517" lon="15.2288383"><ele>583.0</ele><time>2026-03-28T13:15:51.482Z</time></trkpt><trkpt lat="40.82884" lon="15.2289833"><ele>587.0</ele><time>2026-03-28T13:15:52.482Z</time></trkpt><trkpt lat="40.82864" lon="15.22914"><ele>581.5</ele><time>2026-03-28T13:15:53.482Z</time></trkpt><trkpt lat="40.8284467" lon="15.2293117"><ele>576.0</ele><time>2026-03-28T13:15:54.483Z</time></trkpt><trkpt lat="40.8282567" lon="15.2294967"><ele>576.0</ele><time>2026-03-28T13:15:55.483Z</time></trkpt><trkpt lat="40.8280717" lon="15.229695"><ele>576.0</ele><time>2026-03-28T13:15:56.483Z</time></trkpt><trkpt lat="40.82789" lon="15.2299067"><ele>578.0</ele><time>2026-03-28T13:15:57.483Z</time></trkpt><trkpt lat="40.8277067" lon="15.2301333"><ele>580.0</ele><time>2026-03-28T13:15:58.482Z</time></trkpt><trkpt lat="40.827525" lon="15.23037"><ele>575.0</ele><time>2026-03-28T13:15:59.482Z</time></trkpt><trkpt lat="40.8273467" lon="15.2306083"><ele>570.0</ele><time>2026-03-28T13:16:00.482Z</time></trkpt><trkpt lat="40.8271717" lon="15.2308467"><ele>570.0</ele><time>2026-03-28T13:16:01.483Z</time></trkpt><trkpt lat="40.8269867" lon="15.2310767"><ele>570.0</ele><time>2026-03-28T13:16:02.483Z</time></trkpt><trkpt lat="40.826805" lon="15.2313"><ele>566.0</ele><time>2026-03-28T13:16:03.482Z</time></trkpt><trkpt lat="40.82661" lon="15.2315167"><ele>562.0</ele><time>2026-03-28T13:16:04.483Z</time></trkpt><trkpt lat="40.8264183" lon="15.2317283"><ele>562.0</ele><time>2026-03-28T13:16:05.483Z</time></trkpt><trkpt lat="40.8262183" lon="15.23193"><ele>562.0</ele><time>2026-03-28T13:16:06.483Z</time></trkpt><trkpt lat="40.8260133" lon="15.2321267"><ele>558.5</ele><time>2026-03-28T13:16:07.483Z</time></trkpt><trkpt lat="40.8258117" lon="15.2323167"><ele>555.0</ele><time>2026-03-28T13:16:08.482Z</time></trkpt><trkpt lat="40.8256083" lon="15.232505"><ele>555.0</ele><time>2026-03-28T13:16:09.482Z</time></trkpt><trkpt lat="40.8254017" lon="15.2326917"><ele>555.0</ele><time>2026-03-28T13:16:10.482Z</time></trkpt><trkpt lat="40.8251967" lon="15.2328817"><ele>554.0</ele><time>2026-03-28T13:16:11.483Z</time></trkpt><trkpt lat="40.824995" lon="15.2330733"><ele>553.0</ele><time>2026-03-28T13:16:12.483Z</time></trkpt><trkpt lat="40.8247933" lon="15.23326"><ele>559.0</ele><time>2026-03-28T13:16:13.482Z</time></trkpt><trkpt lat="40.8246017" lon="15.2334417"><ele>565.0</ele><time>2026-03-28T13:16:14.482Z</time></trkpt><trkpt lat="40.8244" lon="15.2336283"><ele>566.0</ele><time>2026-03-28T13:16:15.482Z</time></trkpt><trkpt lat="40.8241983" lon="15.233815"><ele>567.0</ele><time>2026-03-28T13:16:16.482Z</time></trkpt><trkpt lat="40.823995" lon="15.2340033"><ele>534.0</ele><time>2026-03-28T13:16:17.483Z</time></trkpt><trkpt lat="40.8213917" lon="15.236715"><ele>534.0</ele><time>2026-03-28T13:16:31.482Z</time></trkpt><trkpt lat="40.8211917" lon="15.236915"><ele>534.0</ele><time>2026-03-28T13:16:32.483Z</time></trkpt><trkpt lat="40.8209983" lon="15.2371117"><ele>530.0</ele><time>2026-03-28T13:16:33.482Z</time></trkpt><trkpt lat="40.8208" lon="15.237315"><ele>526.0</ele><time>2026-03-28T13:16:34.483Z</time></trkpt><trkpt lat="40.8206033" lon="15.2375217"><ele>526.0</ele><time>2026-03-28T13:16:35.482Z</time></trkpt><trkpt lat="40.8204067" lon="15.2377267"><ele>526.0</ele><time>2026-03-28T13:16:36.482Z</time></trkpt><trkpt lat="40.8202133" lon="15.2379283"><ele>525.0</ele><time>2026-03-28T13:16:37.483Z</time></trkpt><trkpt lat="40.820035" lon="15.23814"><ele>524.0</ele><time>2026-03-28T13:16:38.482Z</time></trkpt><trkpt lat="40.8198567" lon="15.23835"><ele>524.0</ele><time>2026-03-28T13:16:39.483Z</time></trkpt><trkpt lat="40.8196767" lon="15.2385467"><ele>524.0</ele><time>2026-03-28T13:16:40.482Z</time></trkpt><trkpt lat="40.81949" lon="15.2387583"><ele>521.0</ele><time>2026-03-28T13:16:41.483Z</time></trkpt><trkpt lat="40.8193083" lon="15.2389767"><ele>518.0</ele><time>2026-03-28T13:16:42.482Z</time></trkpt><trkpt lat="40.8191283" lon="15.2391883"><ele>518.0</ele><time>2026-03-28T13:16:43.483Z</time></trkpt><trkpt lat="40.8189517" lon="15.2394033"><ele>518.0</ele><time>2026-03-28T13:16:44.482Z</time></trkpt><trkpt lat="40.818775" lon="15.239625"><ele>513.0</ele><time>2026-03-28T13:16:45.483Z</time></trkpt><trkpt lat="40.818595" lon="15.2398467"><ele>508.0</ele><time>2026-03-28T13:16:46.482Z</time></trkpt><trkpt lat="40.8184167" lon="15.2400667"><ele>508.0</ele><time>2026-03-28T13:16:47.483Z</time></trkpt><trkpt lat="40.8182467" lon="15.2402983"><ele>508.0</ele><time>2026-03-28T13:16:48.483Z</time></trkpt><trkpt lat="40.8180817" lon="15.2405167"><ele>496.0</ele><time>2026-03-28T13:16:49.483Z</time></trkpt><trkpt lat="40.8179133" lon="15.2407317"><ele>484.0</ele><time>2026-03-28T13:16:50.482Z</time></trkpt><trkpt lat="40.8177383" lon="15.2409383"><ele>493.0</ele><time>2026-03-28T13:16:51.483Z</time></trkpt><trkpt lat="40.8175633" lon="15.2411417"><ele>502.0</ele><time>2026-03-28T13:16:52.483Z</time></trkpt><trkpt lat="40.8173867" lon="15.2413283"><ele>496.5</ele><time>2026-03-28T13:16:53.482Z</time></trkpt><trkpt lat="40.8172017" lon="15.2415033"><ele>491.0</ele><time>2026-03-28T13:16:54.483Z</time></trkpt><trkpt lat="40.8170167" lon="15.2416767"><ele>491.0</ele><time>2026-03-28T13:16:55.483Z</time></trkpt><trkpt lat="40.8168317" lon="15.2418383"><ele>491.0</ele><time>2026-03-28T13:16:56.483Z</time></trkpt><trkpt lat="40.8166517" lon="15.2419867"><ele>491.0</ele><time>2026-03-28T13:16:57.483Z</time></trkpt><trkpt lat="40.8164683" lon="15.2421283"><ele>493.0</ele><time>2026-03-28T13:16:58.483Z</time></trkpt><trkpt lat="40.8162583" lon="15.2422567"><ele>495.0</ele><time>2026-03-28T13:16:59.483Z</time></trkpt><trkpt lat="40.8160367" lon="15.2423117"><ele>495.0</ele><time>2026-03-28T13:17:00.482Z</time></trkpt><trkpt lat="40.81583" lon="15.24245"><ele>495.0</ele><time>2026-03-28T13:17:01.482Z</time></trkpt><trkpt lat="40.8156183" lon="15.2425567"><ele>495.0</ele><time>2026-03-28T13:17:02.482Z</time></trkpt><trkpt lat="40.815405" lon="15.2426433"><ele>495.0</ele><time>2026-03-28T13:17:03.483Z</time></trkpt><trkpt lat="40.81518" lon="15.24271"><ele>493.5</ele><time>2026-03-28T13:17:04.483Z</time></trkpt><trkpt lat="40.81495" lon="15.24276"><ele>492.0</ele><time>2026-03-28T13:17:05.482Z</time></trkpt><trkpt lat="40.8147233" lon="15.2428033"><ele>492.0</ele><time>2026-03-28T13:17:06.483Z</time></trkpt><trkpt lat="40.814485" lon="15.2428383"><ele>492.0</ele><time>2026-03-28T13:17:07.482Z</time></trkpt><trkpt lat="40.8142483" lon="15.242875"><ele>493.0</ele><time>2026-03-28T13:17:08.483Z</time></trkpt><trkpt lat="40.8140167" lon="15.242905"><ele>494.0</ele><time>2026-03-28T13:17:09.483Z</time></trkpt><trkpt lat="40.8137783" lon="15.2429333"><ele>494.0</ele><time>2026-03-28T13:17:10.482Z</time></trkpt><trkpt lat="40.8135483" lon="15.2429767"><ele>494.0</ele><time>2026-03-28T13:17:11.482Z</time></trkpt><trkpt lat="40.8133217" lon="15.2429967"><ele>488.0</ele><time>2026-03-28T13:17:12.483Z</time></trkpt><trkpt lat="40.8130883" lon="15.2430033"><ele>482.0</ele><time>2026-03-28T13:17:13.482Z</time></trkpt><trkpt lat="40.8128533" lon="15.24303"><ele>476.0</ele><time>2026-03-28T13:17:14.482Z</time></trkpt><trkpt lat="40.8126183" lon="15.2430567"><ele>470.0</ele><time>2026-03-28T13:17:15.483Z</time></trkpt><trkpt lat="40.812385" lon="15.24309"><ele>466.0</ele><time>2026-03-28T13:17:16.482Z</time></trkpt><trkpt lat="40.8121633" lon="15.2431333"><ele>462.0</ele><time>2026-03-28T13:17:17.482Z</time></trkpt><trkpt lat="40.811945" lon="15.2431833"><ele>458.0</ele><time>2026-03-28T13:17:18.483Z</time></trkpt><trkpt lat="40.8117233" lon="15.2432483"><ele>458.0</ele><time>2026-03-28T13:17:19.483Z</time></trkpt><trkpt lat="40.811505" lon="15.24333"><ele>458.0</ele><time>2026-03-28T13:17:20.483Z</time></trkpt><trkpt lat="40.8112867" lon="15.2434183"><ele>458.0</ele><time>2026-03-28T13:17:21.483Z</time></trkpt><trkpt lat="40.8110733" lon="15.2435133"><ele>458.0</ele><time>2026-03-28T13:17:22.483Z</time></trkpt><trkpt lat="40.8108667" lon="15.243625"><ele>458.0</ele><time>2026-03-28T13:17:23.482Z</time></trkpt><trkpt lat="40.8106567" lon="15.24375"><ele>450.0</ele><time>2026-03-28T13:17:24.483Z</time></trkpt><trkpt lat="40.8104483" lon="15.2438817"><ele>442.0</ele><time>2026-03-28T13:17:25.483Z</time></trkpt><trkpt lat="40.8102433" lon="15.2440183"><ele>428.0</ele><time>2026-03-28T13:17:26.483Z</time></trkpt><trkpt lat="40.8100433" lon="15.2441633"><ele>414.0</ele><time>2026-03-28T13:17:27.482Z</time></trkpt><trkpt lat="40.8098417" lon="15.244315"><ele>414.0</ele><time>2026-03-28T13:17:28.483Z</time></trkpt><trkpt lat="40.809645" lon="15.244465"><ele>414.0</ele><time>2026-03-28T13:17:29.483Z</time></trkpt><trkpt lat="40.8094433" lon="15.24462"><ele>408.5</ele><time>2026-03-28T13:17:30.482Z</time></trkpt><trkpt lat="40.8092433" lon="15.244775"><ele>403.0</ele><time>2026-03-28T13:17:31.483Z</time></trkpt><trkpt lat="40.8090417" lon="15.244925"><ele>394.5</ele><time>2026-03-28T13:17:32.483Z</time></trkpt><trkpt lat="40.8088467" lon="15.2450667"><ele>386.0</ele><time>2026-03-28T13:17:33.482Z</time></trkpt><trkpt lat="40.8086433" lon="15.2452183"><ele>385.5</ele><time>2026-03-28T13:17:34.482Z</time></trkpt><trkpt lat="40.8084433" lon="15.2453633"><ele>385.0</ele><time>2026-03-28T13:17:35.482Z</time></trkpt><trkpt lat="40.80824" lon="15.2455133"><ele>374.5</ele><time>2026-03-28T13:17:36.482Z</time></trkpt><trkpt lat="40.80803" lon="15.2456617"><ele>364.0</ele><time>2026-03-28T13:17:37.482Z</time></trkpt><trkpt lat="40.8078233" lon="15.2458"><ele>359.5</ele><time>2026-03-28T13:17:38.483Z</time></trkpt><trkpt lat="40.807615" lon="15.2459283"><ele>355.0</ele><time>2026-03-28T13:17:39.483Z</time></trkpt><trkpt lat="40.8074117" lon="15.24604"><ele>355.0</ele><time>2026-03-28T13:17:40.483Z</time></trkpt><trkpt lat="40.8072083" lon="15.24614"><ele>355.0</ele><time>2026-03-28T13:17:41.483Z</time></trkpt><trkpt lat="40.807" lon="15.24622"><ele>355.0</ele><time>2026-03-28T13:17:42.482Z</time></trkpt><trkpt lat="40.80679" lon="15.2462917"><ele>352.5</ele><time>2026-03-28T13:17:43.482Z</time></trkpt><trkpt lat="40.8065633" lon="15.246355"><ele>350.0</ele><time>2026-03-28T13:17:44.482Z</time></trkpt><trkpt lat="40.80634" lon="15.2464083"><ele>350.0</ele><time>2026-03-28T13:17:45.482Z</time></trkpt><trkpt lat="40.8061133" lon="15.2464483"><ele>350.0</ele><time>2026-03-28T13:17:46.483Z</time></trkpt><trkpt lat="40.8058933" lon="15.2464667"><ele>350.0</ele><time>2026-03-28T13:17:47.483Z</time></trkpt><trkpt lat="40.805675" lon="15.246465"><ele>353.6666666666667</ele><time>2026-03-28T13:17:48.483Z</time></trkpt><trkpt lat="40.805455" lon="15.2464533"><ele>357.3333333333333</ele><time>2026-03-28T13:17:49.483Z</time></trkpt><trkpt lat="40.8052367" lon="15.2464217"><ele>361.0</ele><time>2026-03-28T13:17:50.482Z</time></trkpt><trkpt lat="40.805015" lon="15.246385"><ele>373.5</ele><time>2026-03-28T13:17:51.483Z</time></trkpt><trkpt lat="40.804785" lon="15.2463333"><ele>386.0</ele><time>2026-03-28T13:17:52.483Z</time></trkpt><trkpt lat="40.804555" lon="15.246265"><ele>395.5</ele><time>2026-03-28T13:17:53.482Z</time></trkpt><trkpt lat="40.8043217" lon="15.246195"><ele>405.0</ele><time>2026-03-28T13:17:54.483Z</time></trkpt><trkpt lat="40.8040967" lon="15.2461183"><ele>405.0</ele><time>2026-03-28T13:17:55.482Z</time></trkpt><trkpt lat="40.8038833" lon="15.2460333"><ele>405.0</ele><time>2026-03-28T13:17:56.483Z</time></trkpt><trkpt lat="40.8036683" lon="15.2459533"><ele>405.0</ele><time>2026-03-28T13:17:57.483Z</time></trkpt><trkpt lat="40.8034483" lon="15.2458767"><ele>405.66666666666663</ele><time>2026-03-28T13:17:58.482Z</time></trkpt><trkpt lat="40.80324" lon="15.2457833"><ele>406.3333333333333</ele><time>2026-03-28T13:17:59.483Z</time></trkpt><trkpt lat="40.8030283" lon="15.24569"><ele>407.0</ele><time>2026-03-28T13:18:00.482Z</time></trkpt><trkpt lat="40.8028183" lon="15.24558"><ele>402.0</ele><time>2026-03-28T13:18:01.483Z</time></trkpt><trkpt lat="40.8026133" lon="15.2454617"><ele>397.0</ele><time>2026-03-28T13:18:02.482Z</time></trkpt><trkpt lat="40.8024217" lon="15.2453267"><ele>392.0</ele><time>2026-03-28T13:18:03.482Z</time></trkpt><trkpt lat="40.8022283" lon="15.245185"><ele>392.0</ele><time>2026-03-28T13:18:04.482Z</time></trkpt><trkpt lat="40.8020517" lon="15.2450367"><ele>392.0</ele><time>2026-03-28T13:18:05.483Z</time></trkpt><trkpt lat="40.8018767" lon="15.2448783"><ele>392.0</ele><time>2026-03-28T13:18:06.482Z</time></trkpt><trkpt lat="40.8016967" lon="15.2447133"><ele>391.0</ele><time>2026-03-28T13:18:07.483Z</time></trkpt><trkpt lat="40.8015167" lon="15.2445433"><ele>390.0</ele><time>2026-03-28T13:18:08.482Z</time></trkpt><trkpt lat="40.8013117" lon="15.244365"><ele>390.0</ele><time>2026-03-28T13:18:09.483Z</time></trkpt><trkpt lat="40.8011667" lon="15.2441117"><ele>390.0</ele><time>2026-03-28T13:18:10.483Z</time></trkpt><trkpt lat="40.80099" lon="15.243885"><ele>382.5</ele><time>2026-03-28T13:18:11.482Z</time></trkpt><trkpt lat="40.80081" lon="15.2436617"><ele>375.0</ele><time>2026-03-28T13:18:12.483Z</time></trkpt><trkpt lat="40.800635" lon="15.2434433"><ele>375.0</ele><time>2026-03-28T13:18:13.483Z</time></trkpt><trkpt lat="40.8004567" lon="15.24323"><ele>375.0</ele><time>2026-03-28T13:18:14.482Z</time></trkpt><trkpt lat="40.8002783" lon="15.24302"><ele>372.5</ele><time>2026-03-28T13:18:15.483Z</time></trkpt><trkpt lat="40.8001067" lon="15.2428167"><ele>370.0</ele><time>2026-03-28T13:18:16.483Z</time></trkpt><trkpt lat="40.7999283" lon="15.2426133"><ele>370.0</ele><time>2026-03-28T13:18:17.482Z</time></trkpt><trkpt lat="40.7997517" lon="15.2424233"><ele>370.0</ele><time>2026-03-28T13:18:18.482Z</time></trkpt><trkpt lat="40.7995833" lon="15.2422217"><ele>370.0</ele><time>2026-03-28T13:18:19.482Z</time></trkpt><trkpt lat="40.799415" lon="15.2420117"><ele>370.0</ele><time>2026-03-28T13:18:20.483Z</time></trkpt><trkpt lat="40.7992467" lon="15.2417967"><ele>370.0</ele><time>2026-03-28T13:18:21.483Z</time></trkpt><trkpt lat="40.7990717" lon="15.24159"><ele>370.0</ele><time>2026-03-28T13:18:22.482Z</time></trkpt><trkpt lat="40.7988967" lon="15.2413717"><ele>361.5</ele><time>2026-03-28T13:18:23.483Z</time></trkpt><trkpt lat="40.7987233" lon="15.2411617"><ele>353.0</ele><time>2026-03-28T13:18:24.483Z</time></trkpt><trkpt lat="40.7985517" lon="15.240955"><ele>357.0</ele><time>2026-03-28T13:18:25.483Z</time></trkpt><trkpt lat="40.7983633" lon="15.2407567"><ele>361.0</ele><time>2026-03-28T13:18:26.483Z</time></trkpt><trkpt lat="40.79819" lon="15.2405433"><ele>349.5</ele><time>2026-03-28T13:18:27.483Z</time></trkpt><trkpt lat="40.798015" lon="15.2403417"><ele>338.0</ele><time>2026-03-28T13:18:28.483Z</time></trkpt><trkpt lat="40.7978433" lon="15.240135"><ele>338.0</ele><time>2026-03-28T13:18:29.483Z</time></trkpt><trkpt lat="40.7976817" lon="15.2399283"><ele>338.0</ele><time>2026-03-28T13:18:30.483Z</time></trkpt><trkpt lat="40.7975083" lon="15.2397367"><ele>335.33333333333337</ele><time>2026-03-28T13:18:31.482Z</time></trkpt><trkpt lat="40.7973367" lon="15.2395483"><ele>332.6666666666667</ele><time>2026-03-28T13:18:32.483Z</time></trkpt><trkpt lat="40.7971633" lon="15.239365"><ele>330.0</ele><time>2026-03-28T13:18:33.483Z</time></trkpt><trkpt lat="40.7969933" lon="15.2392017"><ele>337.0</ele><time>2026-03-28T13:18:34.482Z</time></trkpt><trkpt lat="40.79682" lon="15.2390383"><ele>344.0</ele><time>2026-03-28T13:18:35.483Z</time></trkpt><trkpt lat="40.796645" lon="15.23889"><ele>351.0</ele><time>2026-03-28T13:18:36.482Z</time></trkpt><trkpt lat="40.796485" lon="15.2387367"><ele>351.0</ele><time>2026-03-28T13:18:37.482Z</time></trkpt><trkpt lat="40.7963067" lon="15.2385867"><ele>351.0</ele><time>2026-03-28T13:18:38.483Z</time></trkpt><trkpt lat="40.7961317" lon="15.2384533"><ele>351.0</ele><time>2026-03-28T13:18:39.483Z</time></trkpt><trkpt lat="40.795945" lon="15.2383267"><ele>352.0</ele><time>2026-03-28T13:18:40.482Z</time></trkpt><trkpt lat="40.7957467" lon="15.2382083"><ele>353.0</ele><time>2026-03-28T13:18:41.483Z</time></trkpt><trkpt lat="40.79555" lon="15.2380883"><ele>354.0</ele><time>2026-03-28T13:18:42.482Z</time></trkpt><trkpt lat="40.7953217" lon="15.2380733"><ele>347.0</ele><time>2026-03-28T13:18:43.483Z</time></trkpt><trkpt lat="40.7950867" lon="15.2381583"><ele>340.0</ele><time>2026-03-28T13:18:44.482Z</time></trkpt><trkpt lat="40.7948683" lon="15.2381567"><ele>340.0</ele><time>2026-03-28T13:18:45.482Z</time></trkpt><trkpt lat="40.794645" lon="15.2381467"><ele>340.0</ele><time>2026-03-28T13:18:46.483Z</time></trkpt><trkpt lat="40.7944117" lon="15.2381617"><ele>335.5</ele><time>2026-03-28T13:18:47.483Z</time></trkpt><trkpt lat="40.7941833" lon="15.2381983"><ele>331.0</ele><time>2026-03-28T13:18:48.483Z</time></trkpt><trkpt lat="40.7939583" lon="15.2382517"><ele>331.0</ele><time>2026-03-28T13:18:49.482Z</time></trkpt><trkpt lat="40.7937283" lon="15.2383083"><ele>331.0</ele><time>2026-03-28T13:18:50.482Z</time></trkpt><trkpt lat="40.7934983" lon="15.2383883"><ele>323.0</ele><time>2026-03-28T13:18:51.482Z</time></trkpt><trkpt lat="40.7932667" lon="15.23847"><ele>315.0</ele><time>2026-03-28T13:18:52.483Z</time></trkpt><trkpt lat="40.79303" lon="15.2385517"><ele>315.0</ele><time>2026-03-28T13:18:53.483Z</time></trkpt><trkpt lat="40.7927867" lon="15.238635"><ele>315.0</ele><time>2026-03-28T13:18:54.483Z</time></trkpt><trkpt lat="40.792545" lon="15.2387183"><ele>306.5</ele><time>2026-03-28T13:18:55.483Z</time></trkpt><trkpt lat="40.7922983" lon="15.238795"><ele>298.0</ele><time>2026-03-28T13:18:56.483Z</time></trkpt><trkpt lat="40.7920583" lon="15.238875"><ele>297.0</ele><time>2026-03-28T13:18:57.483Z</time></trkpt><trkpt lat="40.79183" lon="15.23894"><ele>296.0</ele><time>2026-03-28T13:18:58.483Z</time></trkpt><trkpt lat="40.791605" lon="15.2390183"><ele>302.6666666666667</ele><time>2026-03-28T13:18:59.482Z</time></trkpt><trkpt lat="40.7913883" lon="15.2390933"><ele>309.3333333333333</ele><time>2026-03-28T13:19:00.483Z</time></trkpt><trkpt lat="40.791175" lon="15.2391733"><ele>316.0</ele><time>2026-03-28T13:19:01.482Z</time></trkpt><trkpt lat="40.7909467" lon="15.2392467"><ele>316.0</ele><time>2026-03-28T13:19:02.483Z</time></trkpt><trkpt lat="40.7907233" lon="15.2393167"><ele>316.0</ele><time>2026-03-28T13:19:03.483Z</time></trkpt><trkpt lat="40.790505" lon="15.2393883"><ele>316.0</ele><time>2026-03-28T13:19:04.482Z</time></trkpt><trkpt lat="40.790285" lon="15.23947"><ele>316.0</ele><time>2026-03-28T13:19:05.483Z</time></trkpt><trkpt lat="40.79009" lon="15.2396117"><ele>310.5</ele><time>2026-03-28T13:19:06.483Z</time></trkpt><trkpt lat="40.7898717" lon="15.2397867"><ele>305.0</ele><time>2026-03-28T13:19:07.482Z</time></trkpt><trkpt lat="40.7896583" lon="15.2399417"><ele>304.5</ele><time>2026-03-28T13:19:08.482Z</time></trkpt><trkpt lat="40.7894467" lon="15.2401167"><ele>304.0</ele><time>2026-03-28T13:19:09.483Z</time></trkpt><trkpt lat="40.789235" lon="15.240295"><ele>302.5</ele><time>2026-03-28T13:19:10.483Z</time></trkpt><trkpt lat="40.78903" lon="15.24047"><ele>301.0</ele><time>2026-03-28T13:19:11.483Z</time></trkpt><trkpt lat="40.7888167" lon="15.24065"><ele>301.0</ele><time>2026-03-28T13:19:12.482Z</time></trkpt><trkpt lat="40.7886117" lon="15.2408283"><ele>301.0</ele><time>2026-03-28T13:19:13.482Z</time></trkpt><trkpt lat="40.7884" lon="15.2410083"><ele>296.0</ele><time>2026-03-28T13:19:14.483Z</time></trkpt><trkpt lat="40.7881967" lon="15.2411767"><ele>291.0</ele><time>2026-03-28T13:19:15.483Z</time></trkpt><trkpt lat="40.7879867" lon="15.2413367"><ele>290.5</ele><time>2026-03-28T13:19:16.483Z</time></trkpt><trkpt lat="40.78778" lon="15.241515"><ele>290.0</ele><time>2026-03-28T13:19:17.483Z</time></trkpt><trkpt lat="40.787595" lon="15.2417283"><ele>290.0</ele><time>2026-03-28T13:19:18.482Z</time></trkpt><trkpt lat="40.7873933" lon="15.2419017"><ele>290.0</ele><time>2026-03-28T13:19:19.483Z</time></trkpt><trkpt lat="40.78718" lon="15.242075"><ele>290.0</ele><time>2026-03-28T13:19:20.483Z</time></trkpt><trkpt lat="40.7869767" lon="15.2422433"><ele>290.0</ele><time>2026-03-28T13:19:21.482Z</time></trkpt><trkpt lat="40.7867783" lon="15.2424117"><ele>284.0</ele><time>2026-03-28T13:19:22.482Z</time></trkpt><trkpt lat="40.7865767" lon="15.2425817"><ele>278.0</ele><time>2026-03-28T13:19:23.483Z</time></trkpt><trkpt lat="40.7863767" lon="15.242745"><ele>278.0</ele><time>2026-03-28T13:19:24.482Z</time></trkpt><trkpt lat="40.78618" lon="15.2429183"><ele>278.0</ele><time>2026-03-28T13:19:25.483Z</time></trkpt><trkpt lat="40.7859817" lon="15.24309"><ele>274.5</ele><time>2026-03-28T13:19:26.483Z</time></trkpt><trkpt lat="40.7857817" lon="15.24326"><ele>271.0</ele><time>2026-03-28T13:19:27.483Z</time></trkpt><trkpt lat="40.7855733" lon="15.2434267"><ele>271.0</ele><time>2026-03-28T13:19:28.482Z</time></trkpt><trkpt lat="40.785365" lon="15.2435883"><ele>271.0</ele><time>2026-03-28T13:19:29.483Z</time></trkpt><trkpt lat="40.7851583" lon="15.2437467"><ele>267.0</ele><time>2026-03-28T13:19:30.482Z</time></trkpt><trkpt lat="40.7849467" lon="15.2438967"><ele>263.0</ele><time>2026-03-28T13:19:31.483Z</time></trkpt><trkpt lat="40.784725" lon="15.2440383"><ele>263.0</ele><time>2026-03-28T13:19:32.483Z</time></trkpt><trkpt lat="40.7845067" lon="15.244165"><ele>263.0</ele><time>2026-03-28T13:19:33.482Z</time></trkpt><trkpt lat="40.7842867" lon="15.2442767"><ele>257.5</ele><time>2026-03-28T13:19:34.482Z</time></trkpt><trkpt lat="40.784065" lon="15.24437"><ele>252.0</ele><time>2026-03-28T13:19:35.482Z</time></trkpt><trkpt lat="40.7838333" lon="15.2444533"><ele>252.0</ele><time>2026-03-28T13:19:36.483Z</time></trkpt><trkpt lat="40.7835983" lon="15.2445283"><ele>252.0</ele><time>2026-03-28T13:19:37.483Z</time></trkpt><trkpt lat="40.7833617" lon="15.24458"><ele>249.0</ele><time>2026-03-28T13:19:38.483Z</time></trkpt><trkpt lat="40.7831233" lon="15.24463"><ele>246.0</ele><time>2026-03-28T13:19:39.482Z</time></trkpt><trkpt lat="40.782885" lon="15.2446617"><ele>243.0</ele><time>2026-03-28T13:19:40.482Z</time></trkpt><trkpt lat="40.7826383" lon="15.2446767"><ele>240.0</ele><time>2026-03-28T13:19:41.482Z</time></trkpt><trkpt lat="40.782395" lon="15.2446783"><ele>240.0</ele><time>2026-03-28T13:19:42.482Z</time></trkpt><trkpt lat="40.78215" lon="15.2446683"><ele>240.0</ele><time>2026-03-28T13:19:43.483Z</time></trkpt><trkpt lat="40.7819083" lon="15.2446467"><ele>237.0</ele><time>2026-03-28T13:19:44.483Z</time></trkpt><trkpt lat="40.7816683" lon="15.2446133"><ele>234.0</ele><time>2026-03-28T13:19:45.482Z</time></trkpt><trkpt lat="40.78143" lon="15.2445667"><ele>234.0</ele><time>2026-03-28T13:19:46.483Z</time></trkpt><trkpt lat="40.7811933" lon="15.244505"><ele>234.0</ele><time>2026-03-28T13:19:47.483Z</time></trkpt><trkpt lat="40.780945" lon="15.244435"><ele>234.5</ele><time>2026-03-28T13:19:48.483Z</time></trkpt><trkpt lat="40.7806933" lon="15.24435"><ele>235.0</ele><time>2026-03-28T13:19:49.482Z</time></trkpt><trkpt lat="40.7804267" lon="15.2442717"><ele>234.5</ele><time>2026-03-28T13:19:50.483Z</time></trkpt><trkpt lat="40.780155" lon="15.244185"><ele>234.0</ele><time>2026-03-28T13:19:51.482Z</time></trkpt><trkpt lat="40.7798733" lon="15.2440983"><ele>234.0</ele><time>2026-03-28T13:19:52.483Z</time></trkpt><trkpt lat="40.7795917" lon="15.2440133"><ele>234.0</ele><time>2026-03-28T13:19:53.482Z</time></trkpt><trkpt lat="40.7793233" lon="15.2439283"><ele>232.5</ele><time>2026-03-28T13:19:54.483Z</time></trkpt><trkpt lat="40.7790583" lon="15.2438517"><ele>231.0</ele><time>2026-03-28T13:19:55.482Z</time></trkpt><trkpt lat="40.778795" lon="15.2437667"><ele>231.0</ele><time>2026-03-28T13:19:56.483Z</time></trkpt><trkpt lat="40.7785283" lon="15.243685"><ele>231.0</ele><time>2026-03-28T13:19:57.482Z</time></trkpt><trkpt lat="40.7782683" lon="15.2436033"><ele>232.0</ele><time>2026-03-28T13:19:58.483Z</time></trkpt><trkpt lat="40.7780133" lon="15.243525"><ele>233.0</ele><time>2026-03-28T13:19:59.483Z</time></trkpt><trkpt lat="40.7777517" lon="15.24344"><ele>233.0</ele><time>2026-03-28T13:20:00.482Z</time></trkpt><trkpt lat="40.7774933" lon="15.243365"><ele>233.0</ele><time>2026-03-28T13:20:01.482Z</time></trkpt><trkpt lat="40.7772317" lon="15.2432933"><ele>233.0</ele><time>2026-03-28T13:20:02.482Z</time></trkpt><trkpt lat="40.776965" lon="15.2432117"><ele>233.0</ele><time>2026-03-28T13:20:03.483Z</time></trkpt><trkpt lat="40.7767" lon="15.2431317"><ele>231.5</ele><time>2026-03-28T13:20:04.482Z</time></trkpt><trkpt lat="40.7764333" lon="15.2430517"><ele>230.0</ele><time>2026-03-28T13:20:05.483Z</time></trkpt><trkpt lat="40.7761683" lon="15.2429733"><ele>233.5</ele><time>2026-03-28T13:20:06.483Z</time></trkpt><trkpt lat="40.775905" lon="15.2428933"><ele>237.0</ele><time>2026-03-28T13:20:07.483Z</time></trkpt><trkpt lat="40.775645" lon="15.2428133"><ele>237.0</ele><time>2026-03-28T13:20:08.483Z</time></trkpt><trkpt lat="40.7753817" lon="15.2427383"><ele>237.0</ele><time>2026-03-28T13:20:09.482Z</time></trkpt><trkpt lat="40.7751233" lon="15.2426617"><ele>244.0</ele><time>2026-03-28T13:20:10.483Z</time></trkpt><trkpt lat="40.7748617" lon="15.2426033"><ele>251.0</ele><time>2026-03-28T13:20:11.483Z</time></trkpt><trkpt lat="40.774605" lon="15.242545"><ele>251.0</ele><time>2026-03-28T13:20:12.483Z</time></trkpt><trkpt lat="40.7743483" lon="15.2424783"><ele>251.0</ele><time>2026-03-28T13:20:13.482Z</time></trkpt><trkpt lat="40.7740833" lon="15.2424267"><ele>251.0</ele><time>2026-03-28T13:20:14.482Z</time></trkpt><trkpt lat="40.7738117" lon="15.242375"><ele>251.0</ele><time>2026-03-28T13:20:15.482Z</time></trkpt><trkpt lat="40.7735383" lon="15.2423267"><ele>244.5</ele><time>2026-03-28T13:20:16.483Z</time></trkpt><trkpt lat="40.7732767" lon="15.2422767"><ele>238.0</ele><time>2026-03-28T13:20:17.483Z</time></trkpt><trkpt lat="40.7730117" lon="15.2422267"><ele>238.0</ele><time>2026-03-28T13:20:18.482Z</time></trkpt><trkpt lat="40.7727567" lon="15.242185"><ele>238.0</ele><time>2026-03-28T13:20:19.483Z</time></trkpt><trkpt lat="40.7725017" lon="15.24215"><ele>237.5</ele><time>2026-03-28T13:20:20.483Z</time></trkpt><trkpt lat="40.7722433" lon="15.2421117"><ele>237.0</ele><time>2026-03-28T13:20:21.483Z</time></trkpt><trkpt lat="40.7719867" lon="15.2420783"><ele>235.5</ele><time>2026-03-28T13:20:22.483Z</time></trkpt><trkpt lat="40.7717283" lon="15.2420467"><ele>234.0</ele><time>2026-03-28T13:20:23.483Z</time></trkpt><trkpt lat="40.7714767" lon="15.24201"><ele>234.0</ele><time>2026-03-28T13:20:24.483Z</time></trkpt><trkpt lat="40.7712267" lon="15.241975"><ele>234.0</ele><time>2026-03-28T13:20:25.482Z</time></trkpt><trkpt lat="40.770975" lon="15.2419417"><ele>235.0</ele><time>2026-03-28T13:20:26.483Z</time></trkpt><trkpt lat="40.770725" lon="15.2419033"><ele>236.0</ele><time>2026-03-28T13:20:27.483Z</time></trkpt><trkpt lat="40.77047" lon="15.2418667"><ele>236.0</ele><time>2026-03-28T13:20:28.483Z</time></trkpt><trkpt lat="40.77021" lon="15.241835"><ele>236.0</ele><time>2026-03-28T13:20:29.482Z</time></trkpt><trkpt lat="40.7699483" lon="15.2418033"><ele>241.0</ele><time>2026-03-28T13:20:30.482Z</time></trkpt><trkpt lat="40.7696817" lon="15.2417683"><ele>246.0</ele><time>2026-03-28T13:20:31.483Z</time></trkpt><trkpt lat="40.76941" lon="15.2417467"><ele>249.0</ele><time>2026-03-28T13:20:32.482Z</time></trkpt><trkpt lat="40.7691333" lon="15.24172"><ele>252.0</ele><time>2026-03-28T13:20:33.482Z</time></trkpt><trkpt lat="40.768865" lon="15.2416767"><ele>252.0</ele><time>2026-03-28T13:20:34.482Z</time></trkpt><trkpt lat="40.7685967" lon="15.2416433"><ele>252.0</ele><time>2026-03-28T13:20:35.483Z</time></trkpt><trkpt lat="40.7683333" lon="15.2416033"><ele>251.0</ele><time>2026-03-28T13:20:36.483Z</time></trkpt><trkpt lat="40.768065" lon="15.2415667"><ele>250.0</ele><time>2026-03-28T13:20:37.483Z</time></trkpt><trkpt lat="40.767805" lon="15.2415333"><ele>249.5</ele><time>2026-03-28T13:20:38.482Z</time></trkpt><trkpt lat="40.76755" lon="15.241505"><ele>249.0</ele><time>2026-03-28T13:20:39.483Z</time></trkpt><trkpt lat="40.7672967" lon="15.2414867"><ele>249.0</ele><time>2026-03-28T13:20:40.483Z</time></trkpt><trkpt lat="40.7670433" lon="15.2414767"><ele>249.0</ele><time>2026-03-28T13:20:41.483Z</time></trkpt><trkpt lat="40.76679" lon="15.2414617"><ele>251.0</ele><time>2026-03-28T13:20:42.483Z</time></trkpt><trkpt lat="40.76653" lon="15.2414617"><ele>253.0</ele><time>2026-03-28T13:20:43.483Z</time></trkpt><trkpt lat="40.76627" lon="15.2414683"><ele>251.0</ele><time>2026-03-28T13:20:44.483Z</time></trkpt><trkpt lat="40.7660067" lon="15.2414717"><ele>249.0</ele><time>2026-03-28T13:20:45.483Z</time></trkpt><trkpt lat="40.7657433" lon="15.2414867"><ele>249.0</ele><time>2026-03-28T13:20:46.483Z</time></trkpt><trkpt lat="40.76548" lon="15.2415"><ele>249.0</ele><time>2026-03-28T13:20:47.482Z</time></trkpt><trkpt lat="40.7652217" lon="15.2415083"><ele>253.5</ele><time>2026-03-28T13:20:48.483Z</time></trkpt><trkpt lat="40.764965" lon="15.2415367"><ele>258.0</ele><time>2026-03-28T13:20:49.483Z</time></trkpt><trkpt lat="40.7647017" lon="15.24156"><ele>258.0</ele><time>2026-03-28T13:20:50.483Z</time></trkpt><trkpt lat="40.7644433" lon="15.2415767"><ele>258.0</ele><time>2026-03-28T13:20:51.483Z</time></trkpt><trkpt lat="40.7641683" lon="15.2415983"><ele>254.5</ele><time>2026-03-28T13:20:52.483Z</time></trkpt><trkpt lat="40.7638967" lon="15.2416217"><ele>251.0</ele><time>2026-03-28T13:20:53.483Z</time></trkpt><trkpt lat="40.763625" lon="15.2416483"><ele>248.5</ele><time>2026-03-28T13:20:54.482Z</time></trkpt><trkpt lat="40.76335" lon="15.24168"><ele>246.0</ele><time>2026-03-28T13:20:55.483Z</time></trkpt><trkpt lat="40.76308" lon="15.2417"><ele>246.0</ele><time>2026-03-28T13:20:56.483Z</time></trkpt><trkpt lat="40.76281" lon="15.241725"><ele>246.0</ele><time>2026-03-28T13:20:57.482Z</time></trkpt><trkpt lat="40.7625367" lon="15.24174"><ele>245.0</ele><time>2026-03-28T13:20:58.483Z</time></trkpt><trkpt lat="40.76228" lon="15.2417733"><ele>244.0</ele><time>2026-03-28T13:20:59.483Z</time></trkpt><trkpt lat="40.7620183" lon="15.2418033"><ele>244.5</ele><time>2026-03-28T13:21:00.483Z</time></trkpt><trkpt lat="40.76176" lon="15.2418367"><ele>245.0</ele><time>2026-03-28T13:21:01.482Z</time></trkpt><trkpt lat="40.7615" lon="15.2418633"><ele>245.0</ele><time>2026-03-28T13:21:02.483Z</time></trkpt><trkpt lat="40.7612367" lon="15.241885"><ele>245.0</ele><time>2026-03-28T13:21:03.483Z</time></trkpt><trkpt lat="40.7609783" lon="15.2419033"><ele>243.0</ele><time>2026-03-28T13:21:04.483Z</time></trkpt><trkpt lat="40.7607133" lon="15.2419167"><ele>241.0</ele><time>2026-03-28T13:21:05.483Z</time></trkpt><trkpt lat="40.7604617" lon="15.2419183"><ele>241.0</ele><time>2026-03-28T13:21:06.483Z</time></trkpt><trkpt lat="40.7602083" lon="15.24192"><ele>241.0</ele><time>2026-03-28T13:21:07.483Z</time></trkpt><trkpt lat="40.7599517" lon="15.2419167"><ele>238.5</ele><time>2026-03-28T13:21:08.483Z</time></trkpt><trkpt lat="40.7596983" lon="15.2419017"><ele>236.0</ele><time>2026-03-28T13:21:09.483Z</time></trkpt><trkpt lat="40.75945" lon="15.241885"><ele>235.5</ele><time>2026-03-28T13:21:10.483Z</time></trkpt><trkpt lat="40.7592" lon="15.2418517"><ele>235.0</ele><time>2026-03-28T13:21:11.482Z</time></trkpt><trkpt lat="40.75895" lon="15.2418217"><ele>235.0</ele><time>2026-03-28T13:21:12.483Z</time></trkpt><trkpt lat="40.7587" lon="15.2417733"><ele>235.0</ele><time>2026-03-28T13:21:13.482Z</time></trkpt><trkpt lat="40.7584533" lon="15.2417267"><ele>235.0</ele><time>2026-03-28T13:21:14.482Z</time></trkpt><trkpt lat="40.7582067" lon="15.2416733"><ele>235.0</ele><time>2026-03-28T13:21:15.483Z</time></trkpt><trkpt lat="40.7579633" lon="15.24161"><ele>235.0</ele><time>2026-03-28T13:21:16.483Z</time></trkpt><trkpt lat="40.7577217" lon="15.2415467"><ele>235.0</ele><time>2026-03-28T13:21:17.482Z</time></trkpt><trkpt lat="40.7574833" lon="15.2414783"><ele>229.5</ele><time>2026-03-28T13:21:18.482Z</time></trkpt><trkpt lat="40.75725" lon="15.2414117"><ele>224.0</ele><time>2026-03-28T13:21:19.483Z</time></trkpt><trkpt lat="40.7570133" lon="15.2413467"><ele>225.5</ele><time>2026-03-28T13:21:20.482Z</time></trkpt><trkpt lat="40.7567867" lon="15.2412733"><ele>227.0</ele><time>2026-03-28T13:21:21.482Z</time></trkpt><trkpt lat="40.7565633" lon="15.2411967"><ele>227.0</ele><time>2026-03-28T13:21:22.483Z</time></trkpt><trkpt lat="40.75634" lon="15.2411217"><ele>227.0</ele><time>2026-03-28T13:21:23.482Z</time></trkpt><trkpt lat="40.75611" lon="15.24106"><ele>228.5</ele><time>2026-03-28T13:21:24.483Z</time></trkpt><trkpt lat="40.7558783" lon="15.2409983"><ele>230.0</ele><time>2026-03-28T13:21:25.483Z</time></trkpt><trkpt lat="40.7556483" lon="15.2409433"><ele>230.0</ele><time>2026-03-28T13:21:26.483Z</time></trkpt><trkpt lat="40.7554133" lon="15.2409133"><ele>230.0</ele><time>2026-03-28T13:21:27.483Z</time></trkpt><trkpt lat="40.7551817" lon="15.240885"><ele>230.0</ele><time>2026-03-28T13:21:28.483Z</time></trkpt><trkpt lat="40.7549483" lon="15.24087"><ele>230.0</ele><time>2026-03-28T13:21:29.482Z</time></trkpt><trkpt lat="40.7547183" lon="15.2408617"><ele>230.0</ele><time>2026-03-28T13:21:30.482Z</time></trkpt><trkpt lat="40.7544867" lon="15.2408633"><ele>230.0</ele><time>2026-03-28T13:21:31.482Z</time></trkpt><trkpt lat="40.7542517" lon="15.2408883"><ele>228.5</ele><time>2026-03-28T13:21:32.482Z</time></trkpt><trkpt lat="40.75402" lon="15.2409233"><ele>227.0</ele><time>2026-03-28T13:21:33.482Z</time></trkpt><trkpt lat="40.753785" lon="15.2409783"><ele>227.0</ele><time>2026-03-28T13:21:34.483Z</time></trkpt><trkpt lat="40.7535467" lon="15.2410417"><ele>227.0</ele><time>2026-03-28T13:21:35.482Z</time></trkpt><trkpt lat="40.753305" lon="15.2411267"><ele>225.5</ele><time>2026-03-28T13:21:36.482Z</time></trkpt><trkpt lat="40.7530583" lon="15.2412267"><ele>224.0</ele><time>2026-03-28T13:21:37.482Z</time></trkpt><trkpt lat="40.752815" lon="15.2413383"><ele>225.0</ele><time>2026-03-28T13:21:38.483Z</time></trkpt><trkpt lat="40.7525783" lon="15.2414583"><ele>226.0</ele><time>2026-03-28T13:21:39.483Z</time></trkpt><trkpt lat="40.7523417" lon="15.2415783"><ele>226.0</ele><time>2026-03-28T13:21:40.483Z</time></trkpt><trkpt lat="40.7521083" lon="15.2417117"><ele>226.0</ele><time>2026-03-28T13:21:41.482Z</time></trkpt><trkpt lat="40.75188" lon="15.241855"><ele>223.0</ele><time>2026-03-28T13:21:42.482Z</time></trkpt><trkpt lat="40.751655" lon="15.242"><ele>220.0</ele><time>2026-03-28T13:21:43.483Z</time></trkpt><trkpt lat="40.7514333" lon="15.242145"><ele>220.0</ele><time>2026-03-28T13:21:44.483Z</time></trkpt><trkpt lat="40.7512017" lon="15.242295"><ele>220.0</ele><time>2026-03-28T13:21:45.483Z</time></trkpt><trkpt lat="40.7509683" lon="15.2424467"><ele>221.0</ele><time>2026-03-28T13:21:46.482Z</time></trkpt><trkpt lat="40.75074" lon="15.2426033"><ele>222.0</ele><time>2026-03-28T13:21:47.483Z</time></trkpt><trkpt lat="40.7505133" lon="15.2427517"><ele>222.0</ele><time>2026-03-28T13:21:48.483Z</time></trkpt><trkpt lat="40.7502833" lon="15.2428967"><ele>222.0</ele><time>2026-03-28T13:21:49.482Z</time></trkpt><trkpt lat="40.75005" lon="15.2430467"><ele>224.0</ele><time>2026-03-28T13:21:50.482Z</time></trkpt><trkpt lat="40.7498233" lon="15.24319"><ele>226.0</ele><time>2026-03-28T13:21:51.482Z</time></trkpt><trkpt lat="40.749595" lon="15.2433383"><ele>223.5</ele><time>2026-03-28T13:21:52.483Z</time></trkpt><trkpt lat="40.7493717" lon="15.2434833"><ele>221.0</ele><time>2026-03-28T13:21:53.482Z</time></trkpt><trkpt lat="40.749145" lon="15.2436133"><ele>221.0</ele><time>2026-03-28T13:21:54.483Z</time></trkpt><trkpt lat="40.7489117" lon="15.2437317"><ele>221.0</ele><time>2026-03-28T13:21:55.483Z</time></trkpt><trkpt lat="40.74868" lon="15.243835"><ele>218.0</ele><time>2026-03-28T13:21:56.483Z</time></trkpt><trkpt lat="40.748445" lon="15.24392"><ele>215.0</ele><time>2026-03-28T13:21:57.482Z</time></trkpt><trkpt lat="40.7482083" lon="15.2439917"><ele>215.0</ele><time>2026-03-28T13:21:58.483Z</time></trkpt><trkpt lat="40.7479733" lon="15.24405"><ele>215.0</ele><time>2026-03-28T13:21:59.482Z</time></trkpt><trkpt lat="40.747735" lon="15.244095"><ele>211.5</ele><time>2026-03-28T13:22:00.483Z</time></trkpt><trkpt lat="40.7474933" lon="15.2441233"><ele>208.0</ele><time>2026-03-28T13:22:01.483Z</time></trkpt><trkpt lat="40.7472533" lon="15.2441283"><ele>208.0</ele><time>2026-03-28T13:22:02.483Z</time></trkpt><trkpt lat="40.747015" lon="15.24412"><ele>208.0</ele><time>2026-03-28T13:22:03.483Z</time></trkpt><trkpt lat="40.746785" lon="15.2440883"><ele>209.0</ele><time>2026-03-28T13:22:04.483Z</time></trkpt><trkpt lat="40.7465467" lon="15.2440417"><ele>210.0</ele><time>2026-03-28T13:22:05.483Z</time></trkpt><trkpt lat="40.74631" lon="15.2439833"><ele>206.5</ele><time>2026-03-28T13:22:06.483Z</time></trkpt><trkpt lat="40.7460683" lon="15.2439183"><ele>203.0</ele><time>2026-03-28T13:22:07.482Z</time></trkpt><trkpt lat="40.7458283" lon="15.2438517"><ele>203.0</ele><time>2026-03-28T13:22:08.482Z</time></trkpt><trkpt lat="40.745595" lon="15.24378"><ele>203.0</ele><time>2026-03-28T13:22:09.483Z</time></trkpt><trkpt lat="40.7453533" lon="15.243715"><ele>205.5</ele><time>2026-03-28T13:22:10.483Z</time></trkpt><trkpt lat="40.7451133" lon="15.24365"><ele>208.0</ele><time>2026-03-28T13:22:11.482Z</time></trkpt><trkpt lat="40.7448683" lon="15.243595"><ele>208.0</ele><time>2026-03-28T13:22:12.483Z</time></trkpt><trkpt lat="40.7446267" lon="15.2435367"><ele>208.0</ele><time>2026-03-28T13:22:13.483Z</time></trkpt><trkpt lat="40.7443783" lon="15.2434917"><ele>207.5</ele><time>2026-03-28T13:22:14.483Z</time></trkpt><trkpt lat="40.7441317" lon="15.2434483"><ele>207.0</ele><time>2026-03-28T13:22:15.482Z</time></trkpt><trkpt lat="40.7438733" lon="15.2434217"><ele>207.0</ele><time>2026-03-28T13:22:16.482Z</time></trkpt><trkpt lat="40.7436217" lon="15.2434"><ele>207.0</ele><time>2026-03-28T13:22:17.482Z</time></trkpt><trkpt lat="40.7433717" lon="15.2433833"><ele>204.5</ele><time>2026-03-28T13:22:18.483Z</time></trkpt><trkpt lat="40.7431183" lon="15.2433767"><ele>202.0</ele><time>2026-03-28T13:22:19.482Z</time></trkpt><trkpt lat="40.74286" lon="15.243375"><ele>199.5</ele><time>2026-03-28T13:22:20.482Z</time></trkpt><trkpt lat="40.7425983" lon="15.2433917"><ele>197.0</ele><time>2026-03-28T13:22:21.482Z</time></trkpt><trkpt lat="40.7423317" lon="15.2434167"><ele>197.0</ele><time>2026-03-28T13:22:22.483Z</time></trkpt><trkpt lat="40.7420683" lon="15.2434517"><ele>197.0</ele><time>2026-03-28T13:22:23.482Z</time></trkpt><trkpt lat="40.7418017" lon="15.2435"><ele>195.0</ele><time>2026-03-28T13:22:24.483Z</time></trkpt><trkpt lat="40.7415367" lon="15.24356"><ele>193.0</ele><time>2026-03-28T13:22:25.483Z</time></trkpt><trkpt lat="40.7412683" lon="15.24362"><ele>194.0</ele><time>2026-03-28T13:22:26.483Z</time></trkpt><trkpt lat="40.7409967" lon="15.2436817"><ele>195.0</ele><time>2026-03-28T13:22:27.482Z</time></trkpt><trkpt lat="40.7407317" lon="15.24373"><ele>195.0</ele><time>2026-03-28T13:22:28.483Z</time></trkpt><trkpt lat="40.7404667" lon="15.24378"><ele>195.0</ele><time>2026-03-28T13:22:29.483Z</time></trkpt><trkpt lat="40.740195" lon="15.243825"><ele>195.5</ele><time>2026-03-28T13:22:30.482Z</time></trkpt><trkpt lat="40.73992" lon="15.2438633"><ele>196.0</ele><time>2026-03-28T13:22:31.482Z</time></trkpt><trkpt lat="40.739645" lon="15.2438933"><ele>194.5</ele><time>2026-03-28T13:22:32.484Z</time></trkpt><trkpt lat="40.73937" lon="15.2439083"><ele>193.0</ele><time>2026-03-28T13:22:33.484Z</time></trkpt><trkpt lat="40.7391033" lon="15.2439067"><ele>193.0</ele><time>2026-03-28T13:22:34.484Z</time></trkpt><trkpt lat="40.7388333" lon="15.2438983"><ele>193.0</ele><time>2026-03-28T13:22:35.483Z</time></trkpt><trkpt lat="40.7385617" lon="15.2438817"><ele>192.5</ele><time>2026-03-28T13:22:36.484Z</time></trkpt><trkpt lat="40.7382933" lon="15.2438583"><ele>192.0</ele><time>2026-03-28T13:22:37.483Z</time></trkpt><trkpt lat="40.7380133" lon="15.2438467"><ele>192.0</ele><time>2026-03-28T13:22:38.483Z</time></trkpt><trkpt lat="40.7377433" lon="15.2438267"><ele>192.0</ele><time>2026-03-28T13:22:39.483Z</time></trkpt><trkpt lat="40.7374783" lon="15.2438017"><ele>192.0</ele><time>2026-03-28T13:22:40.484Z</time></trkpt><trkpt lat="40.7372083" lon="15.2437817"><ele>192.0</ele><time>2026-03-28T13:22:41.484Z</time></trkpt><trkpt lat="40.73694" lon="15.243765"><ele>191.5</ele><time>2026-03-28T13:22:42.483Z</time></trkpt><trkpt lat="40.736675" lon="15.2437483"><ele>191.0</ele><time>2026-03-28T13:22:43.483Z</time></trkpt><trkpt lat="40.7364117" lon="15.2437367"><ele>191.0</ele><time>2026-03-28T13:22:44.483Z</time></trkpt><trkpt lat="40.7361533" lon="15.243715"><ele>191.0</ele><time>2026-03-28T13:22:45.483Z</time></trkpt><trkpt lat="40.735895" lon="15.2437017"><ele>190.5</ele><time>2026-03-28T13:22:46.483Z</time></trkpt><trkpt lat="40.735645" lon="15.2436867"><ele>190.0</ele><time>2026-03-28T13:22:47.483Z</time></trkpt><trkpt lat="40.735395" lon="15.243665"><ele>189.5</ele><time>2026-03-28T13:22:48.484Z</time></trkpt><trkpt lat="40.7351467" lon="15.2436417"><ele>189.0</ele><time>2026-03-28T13:22:49.483Z</time></trkpt><trkpt lat="40.7349" lon="15.2436133"><ele>189.0</ele><time>2026-03-28T13:22:50.484Z</time></trkpt><trkpt lat="40.7346517" lon="15.2435717"><ele>189.0</ele><time>2026-03-28T13:22:51.484Z</time></trkpt><trkpt lat="40.7344067" lon="15.2435167"><ele>191.0</ele><time>2026-03-28T13:22:52.484Z</time></trkpt><trkpt lat="40.7341633" lon="15.2434517"><ele>193.0</ele><time>2026-03-28T13:22:53.483Z</time></trkpt><trkpt lat="40.7339217" lon="15.24338"><ele>193.0</ele><time>2026-03-28T13:22:54.484Z</time></trkpt><trkpt lat="40.7336817" lon="15.2433"><ele>193.0</ele><time>2026-03-28T13:22:55.483Z</time></trkpt><trkpt lat="40.7334433" lon="15.2432183"><ele>194.5</ele><time>2026-03-28T13:22:56.484Z</time></trkpt><trkpt lat="40.7332067" lon="15.243135"><ele>196.0</ele><time>2026-03-28T13:22:57.484Z</time></trkpt><trkpt lat="40.7329767" lon="15.24306"><ele>192.5</ele><time>2026-03-28T13:22:58.483Z</time></trkpt><trkpt lat="40.732745" lon="15.243"><ele>189.0</ele><time>2026-03-28T13:22:59.484Z</time></trkpt><trkpt lat="40.7325083" lon="15.2429567"><ele>189.0</ele><time>2026-03-28T13:23:00.483Z</time></trkpt><trkpt lat="40.73227" lon="15.2429283"><ele>189.0</ele><time>2026-03-28T13:23:01.483Z</time></trkpt><trkpt lat="40.732025" lon="15.242915"><ele>188.5</ele><time>2026-03-28T13:23:02.483Z</time></trkpt><trkpt lat="40.73178" lon="15.2429133"><ele>188.0</ele><time>2026-03-28T13:23:03.483Z</time></trkpt><trkpt lat="40.7315317" lon="15.2429317"><ele>188.0</ele><time>2026-03-28T13:23:04.483Z</time></trkpt><trkpt lat="40.7312867" lon="15.242975"><ele>188.0</ele><time>2026-03-28T13:23:05.484Z</time></trkpt><trkpt lat="40.731055" lon="15.24303"><ele>187.0</ele><time>2026-03-28T13:23:06.484Z</time></trkpt><trkpt lat="40.7308233" lon="15.2431083"><ele>186.0</ele><time>2026-03-28T13:23:07.484Z</time></trkpt><trkpt lat="40.7305967" lon="15.2432133"><ele>187.0</ele><time>2026-03-28T13:23:08.484Z</time></trkpt><trkpt lat="40.730375" lon="15.24333"><ele>188.0</ele><time>2026-03-28T13:23:09.484Z</time></trkpt><trkpt lat="40.7301567" lon="15.2434617"><ele>188.0</ele><time>2026-03-28T13:23:10.484Z</time></trkpt><trkpt lat="40.7299317" lon="15.2436"><ele>188.0</ele><time>2026-03-28T13:23:11.484Z</time></trkpt><trkpt lat="40.7297" lon="15.2437533"><ele>188.0</ele><time>2026-03-28T13:23:12.483Z</time></trkpt><trkpt lat="40.72947" lon="15.2439067"><ele>188.0</ele><time>2026-03-28T13:23:13.484Z</time></trkpt><trkpt lat="40.7292383" lon="15.244065"><ele>186.5</ele><time>2026-03-28T13:23:14.484Z</time></trkpt><trkpt lat="40.72901" lon="15.2442233"><ele>185.0</ele><time>2026-03-28T13:23:15.484Z</time></trkpt><trkpt lat="40.7287833" lon="15.2443767"><ele>182.5</ele><time>2026-03-28T13:23:16.484Z</time></trkpt><trkpt lat="40.7285483" lon="15.2445367"><ele>180.0</ele><time>2026-03-28T13:23:17.484Z</time></trkpt><trkpt lat="40.7283133" lon="15.2446967"><ele>181.0</ele><time>2026-03-28T13:23:18.484Z</time></trkpt><trkpt lat="40.7280783" lon="15.2448617"><ele>182.0</ele><time>2026-03-28T13:23:19.483Z</time></trkpt><trkpt lat="40.7278317" lon="15.2450217"><ele>181.5</ele><time>2026-03-28T13:23:20.484Z</time></trkpt><trkpt lat="40.72759" lon="15.245195"><ele>181.0</ele><time>2026-03-28T13:23:21.483Z</time></trkpt><trkpt lat="40.7273517" lon="15.2453567"><ele>181.0</ele><time>2026-03-28T13:23:22.484Z</time></trkpt><trkpt lat="40.7271133" lon="15.2455183"><ele>181.0</ele><time>2026-03-28T13:23:23.484Z</time></trkpt><trkpt lat="40.7268783" lon="15.245675"><ele>180.5</ele><time>2026-03-28T13:23:24.484Z</time></trkpt><trkpt lat="40.7266467" lon="15.2458333"><ele>180.0</ele><time>2026-03-28T13:23:25.483Z</time></trkpt><trkpt lat="40.7264133" lon="15.24599"><ele>180.0</ele><time>2026-03-28T13:23:26.484Z</time></trkpt><trkpt lat="40.72618" lon="15.24615"><ele>180.0</ele><time>2026-03-28T13:23:27.484Z</time></trkpt><trkpt lat="40.725945" lon="15.2463083"><ele>179.5</ele><time>2026-03-28T13:23:28.484Z</time></trkpt><trkpt lat="40.7257017" lon="15.2464533"><ele>179.0</ele><time>2026-03-28T13:23:29.484Z</time></trkpt><trkpt lat="40.7254533" lon="15.2465967"><ele>180.0</ele><time>2026-03-28T13:23:30.483Z</time></trkpt><trkpt lat="40.725205" lon="15.2467367"><ele>181.0</ele><time>2026-03-28T13:23:31.484Z</time></trkpt><trkpt lat="40.7249583" lon="15.2468667"><ele>181.0</ele><time>2026-03-28T13:23:32.483Z</time></trkpt><trkpt lat="40.7247117" lon="15.2469917"><ele>181.0</ele><time>2026-03-28T13:23:33.484Z</time></trkpt><trkpt lat="40.7244583" lon="15.2471067"><ele>179.5</ele><time>2026-03-28T13:23:34.484Z</time></trkpt><trkpt lat="40.72421" lon="15.2472267"><ele>178.0</ele><time>2026-03-28T13:23:35.484Z</time></trkpt><trkpt lat="40.7239467" lon="15.2473283"><ele>178.0</ele><time>2026-03-28T13:23:36.483Z</time></trkpt><trkpt lat="40.7236983" lon="15.2474383"><ele>178.0</ele><time>2026-03-28T13:23:37.484Z</time></trkpt><trkpt lat="40.7234417" lon="15.2475433"><ele>178.0</ele><time>2026-03-28T13:23:38.484Z</time></trkpt><trkpt lat="40.7231933" lon="15.2476467"><ele>178.0</ele><time>2026-03-28T13:23:39.483Z</time></trkpt><trkpt lat="40.7229467" lon="15.2477517"><ele>175.5</ele><time>2026-03-28T13:23:40.484Z</time></trkpt><trkpt lat="40.7226983" lon="15.2478517"><ele>173.0</ele><time>2026-03-28T13:23:41.484Z</time></trkpt><trkpt lat="40.72245" lon="15.24795"><ele>173.0</ele><time>2026-03-28T13:23:42.483Z</time></trkpt><trkpt lat="40.7221983" lon="15.2480517"><ele>173.0</ele><time>2026-03-28T13:23:43.483Z</time></trkpt><trkpt lat="40.72195" lon="15.2481533"><ele>175.0</ele><time>2026-03-28T13:23:44.484Z</time></trkpt><trkpt lat="40.7217067" lon="15.24825"><ele>177.0</ele><time>2026-03-28T13:23:45.483Z</time></trkpt><trkpt lat="40.72146" lon="15.248355"><ele>177.0</ele><time>2026-03-28T13:23:46.484Z</time></trkpt><trkpt lat="40.721215" lon="15.2484517"><ele>177.0</ele><time>2026-03-28T13:23:47.484Z</time></trkpt><trkpt lat="40.720975" lon="15.248555"><ele>174.5</ele><time>2026-03-28T13:23:48.483Z</time></trkpt><trkpt lat="40.720735" lon="15.2486517"><ele>172.0</ele><time>2026-03-28T13:23:49.483Z</time></trkpt><trkpt lat="40.7204967" lon="15.2487483"><ele>172.0</ele><time>2026-03-28T13:23:50.484Z</time></trkpt><trkpt lat="40.7202567" lon="15.2488483"><ele>172.0</ele><time>2026-03-28T13:23:51.484Z</time></trkpt><trkpt lat="40.7200183" lon="15.2489417"><ele>175.5</ele><time>2026-03-28T13:23:52.484Z</time></trkpt><trkpt lat="40.7197817" lon="15.2490367"><ele>179.0</ele><time>2026-03-28T13:23:53.483Z</time></trkpt><trkpt lat="40.7195383" lon="15.249135"><ele>179.5</ele><time>2026-03-28T13:23:54.484Z</time></trkpt><trkpt lat="40.7192983" lon="15.24923"><ele>180.0</ele><time>2026-03-28T13:23:55.484Z</time></trkpt><trkpt lat="40.7190583" lon="15.2493333"><ele>180.0</ele><time>2026-03-28T13:23:56.483Z</time></trkpt><trkpt lat="40.7188167" lon="15.2494333"><ele>180.0</ele><time>2026-03-28T13:23:57.483Z</time></trkpt><trkpt lat="40.7185733" lon="15.2495333"><ele>178.5</ele><time>2026-03-28T13:23:58.483Z</time></trkpt><trkpt lat="40.7183283" lon="15.2496333"><ele>177.0</ele><time>2026-03-28T13:23:59.483Z</time></trkpt><trkpt lat="40.718085" lon="15.2497333"><ele>179.0</ele><time>2026-03-28T13:24:00.484Z</time></trkpt><trkpt lat="40.7178317" lon="15.2498333"><ele>181.0</ele><time>2026-03-28T13:24:01.484Z</time></trkpt><trkpt lat="40.7175933" lon="15.2499367"><ele>181.0</ele><time>2026-03-28T13:24:02.484Z</time></trkpt><trkpt lat="40.7173467" lon="15.2500317"><ele>181.0</ele><time>2026-03-28T13:24:03.483Z</time></trkpt><trkpt lat="40.7170967" lon="15.2501317"><ele>176.5</ele><time>2026-03-28T13:24:04.483Z</time></trkpt><trkpt lat="40.71685" lon="15.2502317"><ele>172.0</ele><time>2026-03-28T13:24:05.483Z</time></trkpt><trkpt lat="40.7166033" lon="15.25033"><ele>172.0</ele><time>2026-03-28T13:24:06.483Z</time></trkpt><trkpt lat="40.71635" lon="15.2504283"><ele>172.0</ele><time>2026-03-28T13:24:07.483Z</time></trkpt><trkpt lat="40.7161" lon="15.2505267"><ele>172.0</ele><time>2026-03-28T13:24:08.484Z</time></trkpt><trkpt lat="40.7158583" lon="15.25061"><ele>172.0</ele><time>2026-03-28T13:24:09.483Z</time></trkpt><trkpt lat="40.71562" lon="15.250675"><ele>172.0</ele><time>2026-03-28T13:24:10.484Z</time></trkpt><trkpt lat="40.7153833" lon="15.2507317"><ele>172.0</ele><time>2026-03-28T13:24:11.484Z</time></trkpt><trkpt lat="40.7151517" lon="15.2507683"><ele>170.0</ele><time>2026-03-28T13:24:12.484Z</time></trkpt><trkpt lat="40.7149167" lon="15.25079"><ele>168.0</ele><time>2026-03-28T13:24:13.484Z</time></trkpt><trkpt lat="40.7146817" lon="15.2507833"><ele>168.0</ele><time>2026-03-28T13:24:14.483Z</time></trkpt><trkpt lat="40.71444" lon="15.2507683"><ele>168.0</ele><time>2026-03-28T13:24:15.483Z</time></trkpt><trkpt lat="40.7141967" lon="15.2507317"><ele>167.0</ele><time>2026-03-28T13:24:16.484Z</time></trkpt><trkpt lat="40.7139533" lon="15.2506867"><ele>166.0</ele><time>2026-03-28T13:24:17.484Z</time></trkpt><trkpt lat="40.7137083" lon="15.2506333"><ele>165.0</ele><time>2026-03-28T13:24:18.484Z</time></trkpt><trkpt lat="40.7134667" lon="15.2505767"><ele>164.0</ele><time>2026-03-28T13:24:19.483Z</time></trkpt><trkpt lat="40.7132233" lon="15.2505183"><ele>164.0</ele><time>2026-03-28T13:24:20.484Z</time></trkpt><trkpt lat="40.7129733" lon="15.25047"><ele>164.0</ele><time>2026-03-28T13:24:21.483Z</time></trkpt><trkpt lat="40.7127317" lon="15.2504233"><ele>162.5</ele><time>2026-03-28T13:24:22.483Z</time></trkpt><trkpt lat="40.7124717" lon="15.250395"><ele>161.0</ele><time>2026-03-28T13:24:23.484Z</time></trkpt><trkpt lat="40.7122167" lon="15.250385"><ele>161.0</ele><time>2026-03-28T13:24:24.483Z</time></trkpt><trkpt lat="40.711955" lon="15.2503967"><ele>161.0</ele><time>2026-03-28T13:24:25.484Z</time></trkpt><trkpt lat="40.7117" lon="15.2504233"><ele>161.0</ele><time>2026-03-28T13:24:26.484Z</time></trkpt><trkpt lat="40.7114417" lon="15.2504633"><ele>161.0</ele><time>2026-03-28T13:24:27.484Z</time></trkpt><trkpt lat="40.7111817" lon="15.2505083"><ele>161.0</ele><time>2026-03-28T13:24:28.483Z</time></trkpt><trkpt lat="40.7109117" lon="15.2505583"><ele>161.0</ele><time>2026-03-28T13:24:29.484Z</time></trkpt><trkpt lat="40.7106517" lon="15.25062"><ele>161.5</ele><time>2026-03-28T13:24:30.484Z</time></trkpt><trkpt lat="40.7103833" lon="15.2506783"><ele>162.0</ele><time>2026-03-28T13:24:31.484Z</time></trkpt><trkpt lat="40.7101167" lon="15.2507383"><ele>162.0</ele><time>2026-03-28T13:24:32.483Z</time></trkpt><trkpt lat="40.7098567" lon="15.250785"><ele>162.0</ele><time>2026-03-28T13:24:33.484Z</time></trkpt><trkpt lat="40.709595" lon="15.2508417"><ele>161.0</ele><time>2026-03-28T13:24:34.484Z</time></trkpt><trkpt lat="40.7093333" lon="15.250905"><ele>160.0</ele><time>2026-03-28T13:24:35.483Z</time></trkpt><trkpt lat="40.7090767" lon="15.250965"><ele>160.0</ele><time>2026-03-28T13:24:36.484Z</time></trkpt><trkpt lat="40.7088167" lon="15.2510317"><ele>160.0</ele><time>2026-03-28T13:24:37.484Z</time></trkpt><trkpt lat="40.7085567" lon="15.2510867"><ele>159.0</ele><time>2026-03-28T13:24:38.484Z</time></trkpt><trkpt lat="40.7082967" lon="15.2511433"><ele>158.0</ele><time>2026-03-28T13:24:39.483Z</time></trkpt><trkpt lat="40.708035" lon="15.2512033"><ele>158.0</ele><time>2026-03-28T13:24:40.484Z</time></trkpt><trkpt lat="40.7077783" lon="15.25126"><ele>158.0</ele><time>2026-03-28T13:24:41.483Z</time></trkpt><trkpt lat="40.707525" lon="15.2513217"><ele>157.5</ele><time>2026-03-28T13:24:42.484Z</time></trkpt><trkpt lat="40.7072733" lon="15.2513817"><ele>157.0</ele><time>2026-03-28T13:24:43.484Z</time></trkpt><trkpt lat="40.707025" lon="15.2514333"><ele>157.5</ele><time>2026-03-28T13:24:44.483Z</time></trkpt><trkpt lat="40.7067817" lon="15.2514817"><ele>158.0</ele><time>2026-03-28T13:24:45.484Z</time></trkpt><trkpt lat="40.7065433" lon="15.2515333"><ele>158.0</ele><time>2026-03-28T13:24:46.484Z</time></trkpt><trkpt lat="40.7062983" lon="15.2515833"><ele>158.0</ele><time>2026-03-28T13:24:47.484Z</time></trkpt><trkpt lat="40.7060567" lon="15.251635"><ele>158.0</ele><time>2026-03-28T13:24:48.484Z</time></trkpt><trkpt lat="40.7058033" lon="15.2516917"><ele>158.0</ele><time>2026-03-28T13:24:49.483Z</time></trkpt><trkpt lat="40.7055617" lon="15.2517483"><ele>158.0</ele><time>2026-03-28T13:24:50.483Z</time></trkpt><trkpt lat="40.7053" lon="15.2518017"><ele>158.0</ele><time>2026-03-28T13:24:51.483Z</time></trkpt><trkpt lat="40.7050417" lon="15.2518617"><ele>157.5</ele><time>2026-03-28T13:24:52.484Z</time></trkpt><trkpt lat="40.7047833" lon="15.2519217"><ele>157.0</ele><time>2026-03-28T13:24:53.484Z</time></trkpt><trkpt lat="40.7045283" lon="15.251975"><ele>155.5</ele><time>2026-03-28T13:24:54.483Z</time></trkpt><trkpt lat="40.7042733" lon="15.25204"><ele>154.0</ele><time>2026-03-28T13:24:55.484Z</time></trkpt><trkpt lat="40.7040217" lon="15.25211"><ele>154.0</ele><time>2026-03-28T13:24:56.483Z</time></trkpt><trkpt lat="40.7037683" lon="15.2521817"><ele>154.0</ele><time>2026-03-28T13:24:57.483Z</time></trkpt><trkpt lat="40.703525" lon="15.2522517"><ele>153.5</ele><time>2026-03-28T13:24:58.483Z</time></trkpt><trkpt lat="40.703275" lon="15.2523383"><ele>153.0</ele><time>2026-03-28T13:24:59.483Z</time></trkpt><trkpt lat="40.703025" lon="15.2524283"><ele>153.0</ele><time>2026-03-28T13:25:00.483Z</time></trkpt><trkpt lat="40.70278" lon="15.2525283"><ele>153.0</ele><time>2026-03-28T13:25:01.484Z</time></trkpt><trkpt lat="40.702535" lon="15.2526367"><ele>152.0</ele><time>2026-03-28T13:25:02.484Z</time></trkpt><trkpt lat="40.7022933" lon="15.2527567"><ele>151.0</ele><time>2026-03-28T13:25:03.483Z</time></trkpt><trkpt lat="40.7020517" lon="15.2528733"><ele>150.5</ele><time>2026-03-28T13:25:04.484Z</time></trkpt><trkpt lat="40.7018117" lon="15.2529933"><ele>150.0</ele><time>2026-03-28T13:25:05.484Z</time></trkpt><trkpt lat="40.7015767" lon="15.25312"><ele>150.5</ele><time>2026-03-28T13:25:06.484Z</time></trkpt><trkpt lat="40.7013417" lon="15.2532483"><ele>151.0</ele><time>2026-03-28T13:25:07.483Z</time></trkpt><trkpt lat="40.70111" lon="15.253385"><ele>151.5</ele><time>2026-03-28T13:25:08.483Z</time></trkpt><trkpt lat="40.70088" lon="15.2535183"><ele>152.0</ele><time>2026-03-28T13:25:09.483Z</time></trkpt><trkpt lat="40.7006517" lon="15.2536517"><ele>152.0</ele><time>2026-03-28T13:25:10.483Z</time></trkpt><trkpt lat="40.7004217" lon="15.2537867"><ele>152.0</ele><time>2026-03-28T13:25:11.483Z</time></trkpt><trkpt lat="40.7001933" lon="15.25392"><ele>152.5</ele><time>2026-03-28T13:25:12.483Z</time></trkpt><trkpt lat="40.6999617" lon="15.2540467"><ele>153.0</ele><time>2026-03-28T13:25:13.483Z</time></trkpt><trkpt lat="40.6997367" lon="15.2541617"><ele>153.0</ele><time>2026-03-28T13:25:14.483Z</time></trkpt><trkpt lat="40.6995117" lon="15.2542667"><ele>153.0</ele><time>2026-03-28T13:25:15.484Z</time></trkpt><trkpt lat="40.6992817" lon="15.2543583"><ele>152.5</ele><time>2026-03-28T13:25:16.484Z</time></trkpt><trkpt lat="40.699045" lon="15.2544367"><ele>152.0</ele><time>2026-03-28T13:25:17.484Z</time></trkpt><trkpt lat="40.69881" lon="15.2544967"><ele>152.0</ele><time>2026-03-28T13:25:18.483Z</time></trkpt><trkpt lat="40.6985783" lon="15.2545483"><ele>152.0</ele><time>2026-03-28T13:25:19.484Z</time></trkpt><trkpt lat="40.69835" lon="15.2545867"><ele>152.0</ele><time>2026-03-28T13:25:20.484Z</time></trkpt><trkpt lat="40.6981117" lon="15.2546167"><ele>152.0</ele><time>2026-03-28T13:25:21.483Z</time></trkpt><trkpt lat="40.6978817" lon="15.2546283"><ele>151.0</ele><time>2026-03-28T13:25:22.484Z</time></trkpt><trkpt lat="40.69765" lon="15.25463"><ele>150.0</ele><time>2026-03-28T13:25:23.484Z</time></trkpt><trkpt lat="40.6974183" lon="15.2546117"><ele>150.0</ele><time>2026-03-28T13:25:24.483Z</time></trkpt><trkpt lat="40.6971867" lon="15.2545917"><ele>150.0</ele><time>2026-03-28T13:25:25.483Z</time></trkpt><trkpt lat="40.6969567" lon="15.254545"><ele>150.0</ele><time>2026-03-28T13:25:26.484Z</time></trkpt><trkpt lat="40.6967217" lon="15.2544833"><ele>150.0</ele><time>2026-03-28T13:25:27.484Z</time></trkpt><trkpt lat="40.696495" lon="15.254415"><ele>150.0</ele><time>2026-03-28T13:25:28.483Z</time></trkpt><trkpt lat="40.6962733" lon="15.2543283"><ele>150.0</ele><time>2026-03-28T13:25:29.484Z</time></trkpt><trkpt lat="40.696055" lon="15.2542267"><ele>154.0</ele><time>2026-03-28T13:25:30.484Z</time></trkpt><trkpt lat="40.6958417" lon="15.2541133"><ele>158.0</ele><time>2026-03-28T13:25:31.484Z</time></trkpt><trkpt lat="40.6956267" lon="15.2539917"><ele>158.0</ele><time>2026-03-28T13:25:32.483Z</time></trkpt><trkpt lat="40.6954033" lon="15.2538633"><ele>158.0</ele><time>2026-03-28T13:25:33.484Z</time></trkpt><trkpt lat="40.6951867" lon="15.2537167"><ele>158.0</ele><time>2026-03-28T13:25:34.484Z</time></trkpt><trkpt lat="40.6949633" lon="15.2535683"><ele>158.0</ele><time>2026-03-28T13:25:35.483Z</time></trkpt><trkpt lat="40.69474" lon="15.2534"><ele>158.0</ele><time>2026-03-28T13:25:36.483Z</time></trkpt><trkpt lat="40.6945083" lon="15.2532233"><ele>158.0</ele><time>2026-03-28T13:25:37.484Z</time></trkpt><trkpt lat="40.6942817" lon="15.2530417"><ele>155.5</ele><time>2026-03-28T13:25:38.484Z</time></trkpt><trkpt lat="40.6940533" lon="15.252865"><ele>153.0</ele><time>2026-03-28T13:25:39.483Z</time></trkpt><trkpt lat="40.6938317" lon="15.2526967"><ele>153.0</ele><time>2026-03-28T13:25:40.484Z</time></trkpt><trkpt lat="40.693615" lon="15.2525283"><ele>153.0</ele><time>2026-03-28T13:25:41.484Z</time></trkpt><trkpt lat="40.6933967" lon="15.252365"><ele>150.0</ele><time>2026-03-28T13:25:42.484Z</time></trkpt><trkpt lat="40.6931817" lon="15.2522"><ele>147.0</ele><time>2026-03-28T13:25:43.484Z</time></trkpt><trkpt lat="40.6929633" lon="15.252035"><ele>148.0</ele><time>2026-03-28T13:25:44.483Z</time></trkpt><trkpt lat="40.6927483" lon="15.251865"><ele>149.0</ele><time>2026-03-28T13:25:45.483Z</time></trkpt><trkpt lat="40.6925317" lon="15.2517017"><ele>149.0</ele><time>2026-03-28T13:25:46.483Z</time></trkpt><trkpt lat="40.6923117" lon="15.2515317"><ele>149.0</ele><time>2026-03-28T13:25:47.484Z</time></trkpt><trkpt lat="40.6920883" lon="15.2513633"><ele>149.0</ele><time>2026-03-28T13:25:48.484Z</time></trkpt><trkpt lat="40.6918683" lon="15.2511933"><ele>149.0</ele><time>2026-03-28T13:25:49.484Z</time></trkpt><trkpt lat="40.691645" lon="15.25102"><ele>149.0</ele><time>2026-03-28T13:25:50.484Z</time></trkpt><trkpt lat="40.691425" lon="15.250835"><ele>149.0</ele><time>2026-03-28T13:25:51.484Z</time></trkpt><trkpt lat="40.6912017" lon="15.2506633"><ele>146.5</ele><time>2026-03-28T13:25:52.484Z</time></trkpt><trkpt lat="40.690975" lon="15.2504883"><ele>144.0</ele><time>2026-03-28T13:25:53.484Z</time></trkpt><trkpt lat="40.6907467" lon="15.2503183"><ele>144.0</ele><time>2026-03-28T13:25:54.483Z</time></trkpt><trkpt lat="40.6905167" lon="15.2501483"><ele>144.0</ele><time>2026-03-28T13:25:55.484Z</time></trkpt><trkpt lat="40.69029" lon="15.2499783"><ele>145.0</ele><time>2026-03-28T13:25:56.484Z</time></trkpt><trkpt lat="40.690065" lon="15.249805"><ele>146.0</ele><time>2026-03-28T13:25:57.484Z</time></trkpt><trkpt lat="40.68984" lon="15.24963"><ele>148.5</ele><time>2026-03-28T13:25:58.484Z</time></trkpt><trkpt lat="40.6896083" lon="15.249465"><ele>151.0</ele><time>2026-03-28T13:25:59.483Z</time></trkpt><trkpt lat="40.6893683" lon="15.24931"><ele>151.0</ele><time>2026-03-28T13:26:00.484Z</time></trkpt><trkpt lat="40.6891267" lon="15.24917"><ele>151.0</ele><time>2026-03-28T13:26:01.484Z</time></trkpt><trkpt lat="40.688885" lon="15.24905"><ele>154.0</ele><time>2026-03-28T13:26:02.483Z</time></trkpt><trkpt lat="40.6886433" lon="15.2489467"><ele>157.0</ele><time>2026-03-28T13:26:03.484Z</time></trkpt><trkpt lat="40.6884017" lon="15.2488583"><ele>157.0</ele><time>2026-03-28T13:26:04.484Z</time></trkpt><trkpt lat="40.68816" lon="15.2487917"><ele>157.0</ele><time>2026-03-28T13:26:05.483Z</time></trkpt><trkpt lat="40.687915" lon="15.24875"><ele>152.5</ele><time>2026-03-28T13:26:06.484Z</time></trkpt><trkpt lat="40.687665" lon="15.24872"><ele>148.0</ele><time>2026-03-28T13:26:07.483Z</time></trkpt><trkpt lat="40.6874167" lon="15.248715"><ele>148.0</ele><time>2026-03-28T13:26:08.484Z</time></trkpt><trkpt lat="40.687175" lon="15.2487133"><ele>148.0</ele><time>2026-03-28T13:26:09.484Z</time></trkpt><trkpt lat="40.68693" lon="15.2487217"><ele>148.5</ele><time>2026-03-28T13:26:10.484Z</time></trkpt><trkpt lat="40.686685" lon="15.2487367"><ele>149.0</ele><time>2026-03-28T13:26:11.484Z</time></trkpt><trkpt lat="40.6864383" lon="15.2487617"><ele>149.0</ele><time>2026-03-28T13:26:12.484Z</time></trkpt><trkpt lat="40.6861883" lon="15.2487883"><ele>149.0</ele><time>2026-03-28T13:26:13.483Z</time></trkpt><trkpt lat="40.6859317" lon="15.2488133"><ele>153.0</ele><time>2026-03-28T13:26:14.484Z</time></trkpt><trkpt lat="40.68568" lon="15.2488417"><ele>157.0</ele><time>2026-03-28T13:26:15.484Z</time></trkpt><trkpt lat="40.6854317" lon="15.2488617"><ele>160.5</ele><time>2026-03-28T13:26:16.484Z</time></trkpt><trkpt lat="40.6851933" lon="15.2488833"><ele>164.0</ele><time>2026-03-28T13:26:17.483Z</time></trkpt><trkpt lat="40.6849583" lon="15.2489117"><ele>164.0</ele><time>2026-03-28T13:26:18.484Z</time></trkpt><trkpt lat="40.6847267" lon="15.2489367"><ele>164.0</ele><time>2026-03-28T13:26:19.484Z</time></trkpt><trkpt lat="40.684495" lon="15.2489533"><ele>157.0</ele><time>2026-03-28T13:26:20.484Z</time></trkpt><trkpt lat="40.6842667" lon="15.2489817"><ele>150.0</ele><time>2026-03-28T13:26:21.483Z</time></trkpt><trkpt lat="40.6840383" lon="15.2489917"><ele>150.0</ele><time>2026-03-28T13:26:22.484Z</time></trkpt><trkpt lat="40.683805" lon="15.24901"><ele>150.0</ele><time>2026-03-28T13:26:23.484Z</time></trkpt><trkpt lat="40.68357" lon="15.2490167"><ele>149.0</ele><time>2026-03-28T13:26:24.484Z</time></trkpt><trkpt lat="40.6833417" lon="15.2490017"><ele>148.0</ele><time>2026-03-28T13:26:25.484Z</time></trkpt><trkpt lat="40.6831167" lon="15.24898"><ele>149.33333333333334</ele><time>2026-03-28T13:26:26.484Z</time></trkpt><trkpt lat="40.6828933" lon="15.24894"><ele>150.66666666666666</ele><time>2026-03-28T13:26:27.483Z</time></trkpt><trkpt lat="40.682675" lon="15.24888"><ele>152.0</ele><time>2026-03-28T13:26:28.483Z</time></trkpt><trkpt lat="40.682455" lon="15.2488067"><ele>152.0</ele><time>2026-03-28T13:26:29.484Z</time></trkpt><trkpt lat="40.68224" lon="15.2487117"><ele>152.0</ele><time>2026-03-28T13:26:30.484Z</time></trkpt><trkpt lat="40.6820233" lon="15.248605"><ele>146.0</ele><time>2026-03-28T13:26:31.484Z</time></trkpt><trkpt lat="40.6818083" lon="15.2484917"><ele>140.0</ele><time>2026-03-28T13:26:32.483Z</time></trkpt><trkpt lat="40.6816" lon="15.2483583"><ele>140.0</ele><time>2026-03-28T13:26:33.483Z</time></trkpt><trkpt lat="40.6814017" lon="15.2482183"><ele>140.0</ele><time>2026-03-28T13:26:34.483Z</time></trkpt><trkpt lat="40.681205" lon="15.248065"><ele>142.0</ele><time>2026-03-28T13:26:35.484Z</time></trkpt><trkpt lat="40.6810067" lon="15.247905"><ele>144.0</ele><time>2026-03-28T13:26:36.484Z</time></trkpt><trkpt lat="40.6808117" lon="15.2477467"><ele>144.0</ele><time>2026-03-28T13:26:37.483Z</time></trkpt><trkpt lat="40.6806167" lon="15.2475917"><ele>144.0</ele><time>2026-03-28T13:26:38.483Z</time></trkpt><trkpt lat="40.6804233" lon="15.2474283"><ele>148.0</ele><time>2026-03-28T13:26:39.483Z</time></trkpt><trkpt lat="40.680225" lon="15.2472633"><ele>152.0</ele><time>2026-03-28T13:26:40.483Z</time></trkpt><trkpt lat="40.6800233" lon="15.2471033"><ele>152.0</ele><time>2026-03-28T13:26:41.484Z</time></trkpt><trkpt lat="40.6798217" lon="15.24696"><ele>152.0</ele><time>2026-03-28T13:26:42.483Z</time></trkpt><trkpt lat="40.6796183" lon="15.246825"><ele>149.0</ele><time>2026-03-28T13:26:43.484Z</time></trkpt><trkpt lat="40.679405" lon="15.2467"><ele>146.0</ele><time>2026-03-28T13:26:44.484Z</time></trkpt><trkpt lat="40.6791933" lon="15.2465933"><ele>146.0</ele><time>2026-03-28T13:26:45.484Z</time></trkpt><trkpt lat="40.678975" lon="15.2464917"><ele>146.0</ele><time>2026-03-28T13:26:46.484Z</time></trkpt><trkpt lat="40.6787617" lon="15.2463883"><ele>148.0</ele><time>2026-03-28T13:26:47.483Z</time></trkpt><trkpt lat="40.6785583" lon="15.24627"><ele>150.0</ele><time>2026-03-28T13:26:48.484Z</time></trkpt><trkpt lat="40.6783167" lon="15.2461983"><ele>150.0</ele><time>2026-03-28T13:26:49.484Z</time></trkpt><trkpt lat="40.67807" lon="15.2461583"><ele>150.0</ele><time>2026-03-28T13:26:50.484Z</time></trkpt><trkpt lat="40.6778267" lon="15.2461117"><ele>145.5</ele><time>2026-03-28T13:26:51.483Z</time></trkpt><trkpt lat="40.6776" lon="15.24605"><ele>141.0</ele><time>2026-03-28T13:26:52.483Z</time></trkpt><trkpt lat="40.6773667" lon="15.2460017"><ele>141.0</ele><time>2026-03-28T13:26:53.484Z</time></trkpt><trkpt lat="40.67713" lon="15.2459567"><ele>141.0</ele><time>2026-03-28T13:26:54.484Z</time></trkpt><trkpt lat="40.676885" lon="15.2459217"><ele>139.0</ele><time>2026-03-28T13:26:55.483Z</time></trkpt><trkpt lat="40.6766383" lon="15.2458767"><ele>137.0</ele><time>2026-03-28T13:26:56.483Z</time></trkpt><trkpt lat="40.67639" lon="15.2458367"><ele>137.0</ele><time>2026-03-28T13:26:57.484Z</time></trkpt><trkpt lat="40.67614" lon="15.2457933"><ele>137.0</ele><time>2026-03-28T13:26:58.484Z</time></trkpt><trkpt lat="40.6758883" lon="15.245745"><ele>137.5</ele><time>2026-03-28T13:26:59.483Z</time></trkpt><trkpt lat="40.6756333" lon="15.2456883"><ele>138.0</ele><time>2026-03-28T13:27:00.484Z</time></trkpt><trkpt lat="40.6753833" lon="15.245625"><ele>142.0</ele><time>2026-03-28T13:27:01.484Z</time></trkpt><trkpt lat="40.6751317" lon="15.2455667"><ele>146.0</ele><time>2026-03-28T13:27:02.484Z</time></trkpt><trkpt lat="40.6748917" lon="15.245515"><ele>146.0</ele><time>2026-03-28T13:27:03.484Z</time></trkpt><trkpt lat="40.6746367" lon="15.2454667"><ele>146.0</ele><time>2026-03-28T13:27:04.484Z</time></trkpt><trkpt lat="40.6743883" lon="15.245415"><ele>145.0</ele><time>2026-03-28T13:27:05.484Z</time></trkpt><trkpt lat="40.674145" lon="15.2453617"><ele>144.0</ele><time>2026-03-28T13:27:06.483Z</time></trkpt><trkpt lat="40.6738983" lon="15.2453117"><ele>144.0</ele><time>2026-03-28T13:27:07.483Z</time></trkpt><trkpt lat="40.67365" lon="15.24526"><ele>144.0</ele><time>2026-03-28T13:27:08.483Z</time></trkpt><trkpt lat="40.67341" lon="15.2452117"><ele>141.0</ele><time>2026-03-28T13:27:09.484Z</time></trkpt><trkpt lat="40.6731733" lon="15.2451533"><ele>138.0</ele><time>2026-03-28T13:27:10.484Z</time></trkpt><trkpt lat="40.6729333" lon="15.2450867"><ele>136.5</ele><time>2026-03-28T13:27:11.483Z</time></trkpt><trkpt lat="40.6726983" lon="15.2450117"><ele>135.0</ele><time>2026-03-28T13:27:12.484Z</time></trkpt><trkpt lat="40.67246" lon="15.2449283"><ele>135.0</ele><time>2026-03-28T13:27:13.484Z</time></trkpt><trkpt lat="40.67223" lon="15.244835"><ele>135.0</ele><time>2026-03-28T13:27:14.483Z</time></trkpt><trkpt lat="40.6719983" lon="15.2447383"><ele>137.0</ele><time>2026-03-28T13:27:15.484Z</time></trkpt><trkpt lat="40.6717733" lon="15.2446233"><ele>139.0</ele><time>2026-03-28T13:27:16.484Z</time></trkpt><trkpt lat="40.6715517" lon="15.2445067"><ele>139.0</ele><time>2026-03-28T13:27:17.484Z</time></trkpt><trkpt lat="40.6713317" lon="15.2443667"><ele>139.0</ele><time>2026-03-28T13:27:18.484Z</time></trkpt><trkpt lat="40.67112" lon="15.2442117"><ele>138.0</ele><time>2026-03-28T13:27:19.483Z</time></trkpt><trkpt lat="40.670915" lon="15.2440417"><ele>137.0</ele><time>2026-03-28T13:27:20.484Z</time></trkpt><trkpt lat="40.6707033" lon="15.243875"><ele>140.0</ele><time>2026-03-28T13:27:21.484Z</time></trkpt><trkpt lat="40.6704967" lon="15.2436983"><ele>143.0</ele><time>2026-03-28T13:27:22.484Z</time></trkpt><trkpt lat="40.6702967" lon="15.2435067"><ele>142.5</ele><time>2026-03-28T13:27:23.484Z</time></trkpt><trkpt lat="40.670105" lon="15.2432983"><ele>142.0</ele><time>2026-03-28T13:27:24.483Z</time></trkpt><trkpt lat="40.66992" lon="15.2430833"><ele>142.0</ele><time>2026-03-28T13:27:25.484Z</time></trkpt><trkpt lat="40.66974" lon="15.24285"><ele>142.0</ele><time>2026-03-28T13:27:26.484Z</time></trkpt><trkpt lat="40.6695617" lon="15.242625"><ele>139.0</ele><time>2026-03-28T13:27:27.483Z</time></trkpt><trkpt lat="40.66939" lon="15.24238"><ele>136.0</ele><time>2026-03-28T13:27:28.484Z</time></trkpt><trkpt lat="40.669225" lon="15.2421283"><ele>136.0</ele><time>2026-03-28T13:27:29.483Z</time></trkpt><trkpt lat="40.6690517" lon="15.2418733"><ele>136.0</ele><time>2026-03-28T13:27:30.483Z</time></trkpt><trkpt lat="40.668875" lon="15.2416183"><ele>135.0</ele><time>2026-03-28T13:27:31.483Z</time></trkpt><trkpt lat="40.668705" lon="15.2413633"><ele>134.0</ele><time>2026-03-28T13:27:32.484Z</time></trkpt><trkpt lat="40.6685433" lon="15.24111"><ele>134.0</ele><time>2026-03-28T13:27:33.484Z</time></trkpt><trkpt lat="40.668375" lon="15.2408667"><ele>134.0</ele><time>2026-03-28T13:27:34.484Z</time></trkpt><trkpt lat="40.668205" lon="15.2406333"><ele>142.5</ele><time>2026-03-28T13:27:35.484Z</time></trkpt><trkpt lat="40.6680317" lon="15.240415"><ele>151.0</ele><time>2026-03-28T13:27:36.484Z</time></trkpt><trkpt lat="40.667845" lon="15.2402167"><ele>138.0</ele><time>2026-03-28T13:27:37.483Z</time></trkpt><trkpt lat="40.6676567" lon="15.240025"><ele>125.0</ele><time>2026-03-28T13:27:38.484Z</time></trkpt><trkpt lat="40.667465" lon="15.2398517"><ele>132.5</ele><time>2026-03-28T13:27:39.484Z</time></trkpt><trkpt lat="40.6672667" lon="15.23969"><ele>140.0</ele><time>2026-03-28T13:27:40.483Z</time></trkpt><trkpt lat="40.6670567" lon="15.2395383"><ele>129.5</ele><time>2026-03-28T13:27:41.483Z</time></trkpt><trkpt lat="40.66684" lon="15.2393917"><ele>119.0</ele><time>2026-03-28T13:27:42.484Z</time></trkpt><trkpt lat="40.6666183" lon="15.23926"><ele>119.0</ele><time>2026-03-28T13:27:43.484Z</time></trkpt><trkpt lat="40.6663883" lon="15.2391433"><ele>119.0</ele><time>2026-03-28T13:27:44.483Z</time></trkpt><trkpt lat="40.6661617" lon="15.2390483"><ele>126.0</ele><time>2026-03-28T13:27:45.484Z</time></trkpt><trkpt lat="40.66593" lon="15.238965"><ele>133.0</ele><time>2026-03-28T13:27:46.483Z</time></trkpt><trkpt lat="40.665695" lon="15.2388967"><ele>133.0</ele><time>2026-03-28T13:27:47.484Z</time></trkpt><trkpt lat="40.665455" lon="15.238835"><ele>133.0</ele><time>2026-03-28T13:27:48.484Z</time></trkpt><trkpt lat="40.6652083" lon="15.238795"><ele>126.5</ele><time>2026-03-28T13:27:49.483Z</time></trkpt><trkpt lat="40.66497" lon="15.238775"><ele>120.0</ele><time>2026-03-28T13:27:50.483Z</time></trkpt><trkpt lat="40.66474" lon="15.2387667"><ele>120.0</ele><time>2026-03-28T13:27:51.484Z</time></trkpt><trkpt lat="40.6645167" lon="15.2387633"><ele>120.0</ele><time>2026-03-28T13:27:52.484Z</time></trkpt><trkpt lat="40.6642983" lon="15.23876"><ele>120.0</ele><time>2026-03-28T13:27:53.483Z</time></trkpt><trkpt lat="40.6640733" lon="15.23874"><ele>119.0</ele><time>2026-03-28T13:27:54.484Z</time></trkpt><trkpt lat="40.6638517" lon="15.2387117"><ele>118.0</ele><time>2026-03-28T13:27:55.484Z</time></trkpt><trkpt lat="40.66363" lon="15.2386617"><ele>117.0</ele><time>2026-03-28T13:27:56.483Z</time></trkpt><trkpt lat="40.6634117" lon="15.2385883"><ele>115.66666666666666</ele><time>2026-03-28T13:27:57.483Z</time></trkpt><trkpt lat="40.6632033" lon="15.2385"><ele>114.33333333333333</ele><time>2026-03-28T13:27:58.483Z</time></trkpt><trkpt lat="40.662995" lon="15.2383883"><ele>113.0</ele><time>2026-03-28T13:27:59.483Z</time></trkpt><trkpt lat="40.6628017" lon="15.23827"><ele>113.0</ele><time>2026-03-28T13:28:00.483Z</time></trkpt><trkpt lat="40.6626017" lon="15.2381333"><ele>113.0</ele><time>2026-03-28T13:28:01.484Z</time></trkpt><trkpt lat="40.6624117" lon="15.2379733"><ele>113.0</ele><time>2026-03-28T13:28:02.484Z</time></trkpt><trkpt lat="40.6622317" lon="15.2378117"><ele>113.0</ele><time>2026-03-28T13:28:03.484Z</time></trkpt><trkpt lat="40.6620633" lon="15.2376217"><ele>113.0</ele><time>2026-03-28T13:28:04.483Z</time></trkpt><trkpt lat="40.6618983" lon="15.2374283"><ele>113.0</ele><time>2026-03-28T13:28:05.484Z</time></trkpt><trkpt lat="40.661745" lon="15.2372233"><ele>113.0</ele><time>2026-03-28T13:28:06.483Z</time></trkpt><trkpt lat="40.6615917" lon="15.237005"><ele>113.0</ele><time>2026-03-28T13:28:07.483Z</time></trkpt><trkpt lat="40.6614483" lon="15.23678"><ele>113.0</ele><time>2026-03-28T13:28:08.484Z</time></trkpt><trkpt lat="40.6613117" lon="15.236545"><ele>113.0</ele><time>2026-03-28T13:28:09.484Z</time></trkpt><trkpt lat="40.6611833" lon="15.2362983"><ele>113.0</ele><time>2026-03-28T13:28:10.484Z</time></trkpt><trkpt lat="40.6610483" lon="15.2360483"><ele>113.0</ele><time>2026-03-28T13:28:11.483Z</time></trkpt><trkpt lat="40.6609133" lon="15.2358"><ele>117.0</ele><time>2026-03-28T13:28:12.483Z</time></trkpt><trkpt lat="40.6607767" lon="15.2355467"><ele>121.0</ele><time>2026-03-28T13:28:13.483Z</time></trkpt><trkpt lat="40.66064" lon="15.235275"><ele>121.0</ele><time>2026-03-28T13:28:14.484Z</time></trkpt><trkpt lat="40.6605" lon="15.2349933"><ele>121.0</ele><time>2026-03-28T13:28:15.484Z</time></trkpt><trkpt lat="40.6603583" lon="15.2347067"><ele>116.5</ele><time>2026-03-28T13:28:16.484Z</time></trkpt><trkpt lat="40.6602183" lon="15.2344333"><ele>112.0</ele><time>2026-03-28T13:28:17.483Z</time></trkpt><trkpt lat="40.66008" lon="15.2341567"><ele>112.5</ele><time>2026-03-28T13:28:18.484Z</time></trkpt><trkpt lat="40.6599433" lon="15.233885"><ele>113.0</ele><time>2026-03-28T13:28:19.484Z</time></trkpt><trkpt lat="40.6598017" lon="15.2336183"><ele>113.0</ele><time>2026-03-28T13:28:20.484Z</time></trkpt><trkpt lat="40.6596633" lon="15.23335"><ele>113.0</ele><time>2026-03-28T13:28:21.484Z</time></trkpt><trkpt lat="40.6595233" lon="15.2330733"><ele>110.5</ele><time>2026-03-28T13:28:22.484Z</time></trkpt><trkpt lat="40.659385" lon="15.232795"><ele>108.0</ele><time>2026-03-28T13:28:23.484Z</time></trkpt><trkpt lat="40.6592517" lon="15.2325317"><ele>106.5</ele><time>2026-03-28T13:28:24.484Z</time></trkpt><trkpt lat="40.6591167" lon="15.2322633"><ele>105.0</ele><time>2026-03-28T13:28:25.484Z</time></trkpt><trkpt lat="40.6589817" lon="15.2319917"><ele>105.0</ele><time>2026-03-28T13:28:26.483Z</time></trkpt><trkpt lat="40.658845" lon="15.231725"><ele>105.0</ele><time>2026-03-28T13:28:27.483Z</time></trkpt><trkpt lat="40.6587067" lon="15.2314567"><ele>105.0</ele><time>2026-03-28T13:28:28.484Z</time></trkpt><trkpt lat="40.6585683" lon="15.2312017"><ele>105.0</ele><time>2026-03-28T13:28:29.484Z</time></trkpt><trkpt lat="40.6584317" lon="15.2309433"><ele>105.0</ele><time>2026-03-28T13:28:30.484Z</time></trkpt><trkpt lat="40.6582967" lon="15.230685"><ele>105.0</ele><time>2026-03-28T13:28:31.484Z</time></trkpt><trkpt lat="40.6581633" lon="15.2304333"><ele>103.5</ele><time>2026-03-28T13:28:32.483Z</time></trkpt><trkpt lat="40.6580317" lon="15.2301767"><ele>102.0</ele><time>2026-03-28T13:28:33.484Z</time></trkpt><trkpt lat="40.6579" lon="15.22992"><ele>105.5</ele><time>2026-03-28T13:28:34.484Z</time></trkpt><trkpt lat="40.6577717" lon="15.2296533"><ele>109.0</ele><time>2026-03-28T13:28:35.484Z</time></trkpt><trkpt lat="40.65764" lon="15.2293917"><ele>109.0</ele><time>2026-03-28T13:28:36.484Z</time></trkpt><trkpt lat="40.6575083" lon="15.22914"><ele>109.0</ele><time>2026-03-28T13:28:37.484Z</time></trkpt><trkpt lat="40.6573867" lon="15.2288817"><ele>115.33333333333334</ele><time>2026-03-28T13:28:38.483Z</time></trkpt><trkpt lat="40.6572567" lon="15.2286367"><ele>121.66666666666666</ele><time>2026-03-28T13:28:39.484Z</time></trkpt><trkpt lat="40.6571317" lon="15.2283967"><ele>128.0</ele><time>2026-03-28T13:28:40.484Z</time></trkpt><trkpt lat="40.657" lon="15.228165"><ele>134.0</ele><time>2026-03-28T13:28:41.484Z</time></trkpt><trkpt lat="40.6568717" lon="15.22792"><ele>140.0</ele><time>2026-03-28T13:28:42.483Z</time></trkpt><trkpt lat="40.6567417" lon="15.2276767"><ele>140.0</ele><time>2026-03-28T13:28:43.484Z</time></trkpt><trkpt lat="40.6566017" lon="15.2274433"><ele>140.0</ele><time>2026-03-28T13:28:44.483Z</time></trkpt><trkpt lat="40.6564567" lon="15.227225"><ele>140.0</ele><time>2026-03-28T13:28:45.483Z</time></trkpt><trkpt lat="40.6562983" lon="15.2270067"><ele>142.0</ele><time>2026-03-28T13:28:46.484Z</time></trkpt><trkpt lat="40.6561367" lon="15.2267967"><ele>144.0</ele><time>2026-03-28T13:28:47.483Z</time></trkpt><trkpt lat="40.6559783" lon="15.22661"><ele>146.0</ele><time>2026-03-28T13:28:48.484Z</time></trkpt><trkpt lat="40.655805" lon="15.2264167"><ele>147.66666666666666</ele><time>2026-03-28T13:28:49.484Z</time></trkpt><trkpt lat="40.6556267" lon="15.2262367"><ele>149.33333333333334</ele><time>2026-03-28T13:28:50.483Z</time></trkpt><trkpt lat="40.6554383" lon="15.226075"><ele>151.0</ele><time>2026-03-28T13:28:51.483Z</time></trkpt><trkpt lat="40.6552483" lon="15.225925"><ele>151.0</ele><time>2026-03-28T13:28:52.484Z</time></trkpt><trkpt lat="40.655045" lon="15.22579"><ele>151.0</ele><time>2026-03-28T13:28:53.483Z</time></trkpt><trkpt lat="40.6548333" lon="15.2256583"><ele>156.5</ele><time>2026-03-28T13:28:54.483Z</time></trkpt><trkpt lat="40.654615" lon="15.225535"><ele>162.0</ele><time>2026-03-28T13:28:55.483Z</time></trkpt><trkpt lat="40.654385" lon="15.225425"><ele>162.0</ele><time>2026-03-28T13:28:56.483Z</time></trkpt><trkpt lat="40.6541517" lon="15.2253267"><ele>162.0</ele><time>2026-03-28T13:28:57.483Z</time></trkpt><trkpt lat="40.6539167" lon="15.2252283"><ele>162.0</ele><time>2026-03-28T13:28:58.483Z</time></trkpt><trkpt lat="40.6536817" lon="15.2251417"><ele>162.0</ele><time>2026-03-28T13:28:59.483Z</time></trkpt><trkpt lat="40.6534517" lon="15.2250483"><ele>158.5</ele><time>2026-03-28T13:29:00.484Z</time></trkpt><trkpt lat="40.6532267" lon="15.224955"><ele>155.0</ele><time>2026-03-28T13:29:01.483Z</time></trkpt><trkpt lat="40.652995" lon="15.224865"><ele>163.0</ele><time>2026-03-28T13:29:02.484Z</time></trkpt><trkpt lat="40.6527667" lon="15.2247767"><ele>171.0</ele><time>2026-03-28T13:29:03.483Z</time></trkpt><trkpt lat="40.6525417" lon="15.2246933"><ele>171.0</ele><time>2026-03-28T13:29:04.484Z</time></trkpt><trkpt lat="40.652315" lon="15.22461"><ele>171.0</ele><time>2026-03-28T13:29:05.484Z</time></trkpt><trkpt lat="40.6520883" lon="15.2245233"><ele>177.0</ele><time>2026-03-28T13:29:06.484Z</time></trkpt><trkpt lat="40.6518617" lon="15.2244433"><ele>183.0</ele><time>2026-03-28T13:29:07.483Z</time></trkpt><trkpt lat="40.65165" lon="15.2243567"><ele>183.0</ele><time>2026-03-28T13:29:08.484Z</time></trkpt><trkpt lat="40.6514367" lon="15.2242367"><ele>183.0</ele><time>2026-03-28T13:29:09.483Z</time></trkpt><trkpt lat="40.651225" lon="15.2241317"><ele>184.0</ele><time>2026-03-28T13:29:10.484Z</time></trkpt><trkpt lat="40.651005" lon="15.22403"><ele>185.0</ele><time>2026-03-28T13:29:11.484Z</time></trkpt><trkpt lat="40.6507817" lon="15.2239333"><ele>187.0</ele><time>2026-03-28T13:29:12.483Z</time></trkpt><trkpt lat="40.6505667" lon="15.2238283"><ele>189.0</ele><time>2026-03-28T13:29:13.483Z</time></trkpt><trkpt lat="40.6503617" lon="15.22371"><ele>183.5</ele><time>2026-03-28T13:29:14.483Z</time></trkpt><trkpt lat="40.650145" lon="15.2236067"><ele>178.0</ele><time>2026-03-28T13:29:15.484Z</time></trkpt><trkpt lat="40.6499217" lon="15.2235617"><ele>178.0</ele><time>2026-03-28T13:29:16.484Z</time></trkpt><trkpt lat="40.6497083" lon="15.2234567"><ele>178.0</ele><time>2026-03-28T13:29:17.484Z</time></trkpt><trkpt lat="40.6494883" lon="15.2233417"><ele>178.5</ele><time>2026-03-28T13:29:18.484Z</time></trkpt><trkpt lat="40.649265" lon="15.22322"><ele>179.0</ele><time>2026-03-28T13:29:19.484Z</time></trkpt><trkpt lat="40.6490383" lon="15.2230917"><ele>179.0</ele><time>2026-03-28T13:29:20.483Z</time></trkpt><trkpt lat="40.6488117" lon="15.2229617"><ele>179.0</ele><time>2026-03-28T13:29:21.484Z</time></trkpt><trkpt lat="40.6485817" lon="15.22283"><ele>177.0</ele><time>2026-03-28T13:29:22.484Z</time></trkpt><trkpt lat="40.64835" lon="15.2227033"><ele>175.0</ele><time>2026-03-28T13:29:23.484Z</time></trkpt><trkpt lat="40.64812" lon="15.2225767"><ele>175.0</ele><time>2026-03-28T13:29:24.484Z</time></trkpt><trkpt lat="40.6478867" lon="15.2224433"><ele>175.0</ele><time>2026-03-28T13:29:25.484Z</time></trkpt><trkpt lat="40.6476467" lon="15.222315"><ele>172.0</ele><time>2026-03-28T13:29:26.484Z</time></trkpt><trkpt lat="40.6474167" lon="15.2221933"><ele>169.0</ele><time>2026-03-28T13:29:27.484Z</time></trkpt><trkpt lat="40.64718" lon="15.222065"><ele>162.0</ele><time>2026-03-28T13:29:28.484Z</time></trkpt><trkpt lat="40.64695" lon="15.22194"><ele>155.0</ele><time>2026-03-28T13:29:29.484Z</time></trkpt><trkpt lat="40.64672" lon="15.22182"><ele>155.0</ele><time>2026-03-28T13:29:30.484Z</time></trkpt><trkpt lat="40.646495" lon="15.2217"><ele>155.0</ele><time>2026-03-28T13:29:31.484Z</time></trkpt><trkpt lat="40.64627" lon="15.221575"><ele>153.0</ele><time>2026-03-28T13:29:32.484Z</time></trkpt><trkpt lat="40.64605" lon="15.22145"><ele>151.0</ele><time>2026-03-28T13:29:33.484Z</time></trkpt><trkpt lat="40.645835" lon="15.2213317"><ele>151.0</ele><time>2026-03-28T13:29:34.483Z</time></trkpt><trkpt lat="40.6456233" lon="15.2212183"><ele>151.0</ele><time>2026-03-28T13:29:35.484Z</time></trkpt><trkpt lat="40.64541" lon="15.2210983"><ele>148.0</ele><time>2026-03-28T13:29:36.483Z</time></trkpt><trkpt lat="40.6451917" lon="15.22099"><ele>145.0</ele><time>2026-03-28T13:29:37.483Z</time></trkpt><trkpt lat="40.64497" lon="15.2208767"><ele>145.0</ele><time>2026-03-28T13:29:38.483Z</time></trkpt><trkpt lat="40.64475" lon="15.22077"><ele>145.0</ele><time>2026-03-28T13:29:39.483Z</time></trkpt><trkpt lat="40.64453" lon="15.22068"><ele>142.5</ele><time>2026-03-28T13:29:40.484Z</time></trkpt><trkpt lat="40.6443083" lon="15.2206017"><ele>140.0</ele><time>2026-03-28T13:29:41.484Z</time></trkpt><trkpt lat="40.6440883" lon="15.2205367"><ele>140.0</ele><time>2026-03-28T13:29:42.484Z</time></trkpt><trkpt lat="40.64386" lon="15.2204883"><ele>140.0</ele><time>2026-03-28T13:29:43.484Z</time></trkpt><trkpt lat="40.6436333" lon="15.2204533"><ele>142.0</ele><time>2026-03-28T13:29:44.484Z</time></trkpt><trkpt lat="40.6434067" lon="15.2204433"><ele>144.0</ele><time>2026-03-28T13:29:45.483Z</time></trkpt><trkpt lat="40.6431767" lon="15.2204567"><ele>144.0</ele><time>2026-03-28T13:29:46.483Z</time></trkpt><trkpt lat="40.642955" lon="15.2204717"><ele>144.0</ele><time>2026-03-28T13:29:47.484Z</time></trkpt><trkpt lat="40.6427383" lon="15.22049"><ele>144.0</ele><time>2026-03-28T13:29:48.484Z</time></trkpt><trkpt lat="40.6425217" lon="15.2205233"><ele>144.33333333333334</ele><time>2026-03-28T13:29:49.483Z</time></trkpt><trkpt lat="40.642305" lon="15.22058"><ele>144.66666666666669</ele><time>2026-03-28T13:29:50.484Z</time></trkpt><trkpt lat="40.642085" lon="15.2206517"><ele>145.0</ele><time>2026-03-28T13:29:51.484Z</time></trkpt><trkpt lat="40.6418667" lon="15.22074"><ele>143.0</ele><time>2026-03-28T13:29:52.483Z</time></trkpt><trkpt lat="40.6416517" lon="15.2208433"><ele>141.0</ele><time>2026-03-28T13:29:53.484Z</time></trkpt><trkpt lat="40.6414483" lon="15.2209617"><ele>141.0</ele><time>2026-03-28T13:29:54.484Z</time></trkpt><trkpt lat="40.641255" lon="15.2210883"><ele>141.0</ele><time>2026-03-28T13:29:55.484Z</time></trkpt><trkpt lat="40.6410633" lon="15.2212367"><ele>141.0</ele><time>2026-03-28T13:29:56.484Z</time></trkpt><trkpt lat="40.640875" lon="15.2214067"><ele>139.0</ele><time>2026-03-28T13:29:57.484Z</time></trkpt><trkpt lat="40.640695" lon="15.2215867"><ele>137.0</ele><time>2026-03-28T13:29:58.484Z</time></trkpt><trkpt lat="40.6405167" lon="15.2217817"><ele>137.0</ele><time>2026-03-28T13:29:59.484Z</time></trkpt><trkpt lat="40.6403333" lon="15.2219867"><ele>137.0</ele><time>2026-03-28T13:30:00.484Z</time></trkpt><trkpt lat="40.6401633" lon="15.2222"><ele>134.0</ele><time>2026-03-28T13:30:01.483Z</time></trkpt><trkpt lat="40.6400017" lon="15.2224183"><ele>131.0</ele><time>2026-03-28T13:30:02.483Z</time></trkpt><trkpt lat="40.63984" lon="15.222635"><ele>131.0</ele><time>2026-03-28T13:30:03.484Z</time></trkpt><trkpt lat="40.63968" lon="15.22286"><ele>131.0</ele><time>2026-03-28T13:30:04.484Z</time></trkpt><trkpt lat="40.63952" lon="15.2230733"><ele>129.66666666666666</ele><time>2026-03-28T13:30:05.484Z</time></trkpt><trkpt lat="40.639365" lon="15.2232833"><ele>128.33333333333334</ele><time>2026-03-28T13:30:06.484Z</time></trkpt><trkpt lat="40.6392117" lon="15.2234933"><ele>127.0</ele><time>2026-03-28T13:30:07.484Z</time></trkpt><trkpt lat="40.639055" lon="15.2236983"><ele>127.0</ele><time>2026-03-28T13:30:08.484Z</time></trkpt><trkpt lat="40.6389033" lon="15.223905"><ele>127.0</ele><time>2026-03-28T13:30:09.483Z</time></trkpt><trkpt lat="40.6387517" lon="15.2241067"><ele>127.0</ele><time>2026-03-28T13:30:10.484Z</time></trkpt><trkpt lat="40.6386017" lon="15.2243133"><ele>126.0</ele><time>2026-03-28T13:30:11.484Z</time></trkpt><trkpt lat="40.6384417" lon="15.2245067"><ele>125.0</ele><time>2026-03-28T13:30:12.484Z</time></trkpt><trkpt lat="40.63828" lon="15.2246933"><ele>124.0</ele><time>2026-03-28T13:30:13.484Z</time></trkpt><trkpt lat="40.6381083" lon="15.224875"><ele>124.66666666666667</ele><time>2026-03-28T13:30:14.483Z</time></trkpt><trkpt lat="40.6379283" lon="15.2250483"><ele>125.33333333333334</ele><time>2026-03-28T13:30:15.484Z</time></trkpt><trkpt lat="40.63774" lon="15.2252133"><ele>126.0</ele><time>2026-03-28T13:30:16.483Z</time></trkpt><trkpt lat="40.637545" lon="15.22536"><ele>126.0</ele><time>2026-03-28T13:30:17.484Z</time></trkpt><trkpt lat="40.6373483" lon="15.22549"><ele>126.0</ele><time>2026-03-28T13:30:18.484Z</time></trkpt><trkpt lat="40.6371433" lon="15.225605"><ele>126.0</ele><time>2026-03-28T13:30:19.484Z</time></trkpt><trkpt lat="40.6369267" lon="15.2257067"><ele>122.66666666666666</ele><time>2026-03-28T13:30:20.484Z</time></trkpt><trkpt lat="40.6367117" lon="15.225785"><ele>119.33333333333333</ele><time>2026-03-28T13:30:21.483Z</time></trkpt><trkpt lat="40.6364967" lon="15.2258483"><ele>116.0</ele><time>2026-03-28T13:30:22.484Z</time></trkpt><trkpt lat="40.6362817" lon="15.2258933"><ele>115.66666666666666</ele><time>2026-03-28T13:30:23.484Z</time></trkpt><trkpt lat="40.6360617" lon="15.22593"><ele>115.33333333333334</ele><time>2026-03-28T13:30:24.484Z</time></trkpt><trkpt lat="40.6358367" lon="15.225965"><ele>115.0</ele><time>2026-03-28T13:30:25.484Z</time></trkpt><trkpt lat="40.6356117" lon="15.22599"><ele>115.0</ele><time>2026-03-28T13:30:26.484Z</time></trkpt><trkpt lat="40.635385" lon="15.2260017"><ele>115.0</ele><time>2026-03-28T13:30:27.483Z</time></trkpt><trkpt lat="40.6351667" lon="15.225985"><ele>115.0</ele><time>2026-03-28T13:30:28.483Z</time></trkpt><trkpt lat="40.6349483" lon="15.2259583"><ele>109.5</ele><time>2026-03-28T13:30:29.484Z</time></trkpt><trkpt lat="40.6347233" lon="15.2259167"><ele>104.0</ele><time>2026-03-28T13:30:30.483Z</time></trkpt><trkpt lat="40.6345033" lon="15.2258583"><ele>99.0</ele><time>2026-03-28T13:30:31.483Z</time></trkpt><trkpt lat="40.6342817" lon="15.2257817"><ele>94.0</ele><time>2026-03-28T13:30:32.484Z</time></trkpt><trkpt lat="40.63406" lon="15.2256783"><ele>94.0</ele><time>2026-03-28T13:30:33.484Z</time></trkpt><trkpt lat="40.6338383" lon="15.2255583"><ele>94.0</ele><time>2026-03-28T13:30:34.483Z</time></trkpt><trkpt lat="40.6336217" lon="15.225425"><ele>94.0</ele><time>2026-03-28T13:30:35.483Z</time></trkpt><trkpt lat="40.6334067" lon="15.2252817"><ele>94.0</ele><time>2026-03-28T13:30:36.483Z</time></trkpt><trkpt lat="40.6331933" lon="15.22513"><ele>94.0</ele><time>2026-03-28T13:30:37.483Z</time></trkpt><trkpt lat="40.632985" lon="15.224965"><ele>94.0</ele><time>2026-03-28T13:30:38.484Z</time></trkpt><trkpt lat="40.632775" lon="15.224805"><ele>96.5</ele><time>2026-03-28T13:30:39.483Z</time></trkpt><trkpt lat="40.6325683" lon="15.224645"><ele>99.0</ele><time>2026-03-28T13:30:40.483Z</time></trkpt><trkpt lat="40.6323633" lon="15.224485"><ele>99.0</ele><time>2026-03-28T13:30:41.484Z</time></trkpt><trkpt lat="40.632165" lon="15.2243383"><ele>99.0</ele><time>2026-03-28T13:30:42.484Z</time></trkpt><trkpt lat="40.63197" lon="15.2241967"><ele>99.0</ele><time>2026-03-28T13:30:43.483Z</time></trkpt><trkpt lat="40.6317733" lon="15.22407"><ele>99.0</ele><time>2026-03-28T13:30:44.483Z</time></trkpt><trkpt lat="40.6315817" lon="15.223955"><ele>99.0</ele><time>2026-03-28T13:30:45.484Z</time></trkpt><trkpt lat="40.6313883" lon="15.2238517"><ele>99.0</ele><time>2026-03-28T13:30:46.484Z</time></trkpt><trkpt lat="40.6311967" lon="15.223755"><ele>99.0</ele><time>2026-03-28T13:30:47.483Z</time></trkpt><trkpt lat="40.6310117" lon="15.223665"><ele>99.0</ele><time>2026-03-28T13:30:48.484Z</time></trkpt><trkpt lat="40.630835" lon="15.22358"><ele>96.66666666666667</ele><time>2026-03-28T13:30:49.484Z</time></trkpt><trkpt lat="40.6306633" lon="15.2235"><ele>94.33333333333334</ele><time>2026-03-28T13:30:50.483Z</time></trkpt><trkpt lat="40.6305" lon="15.2234283"><ele>92.0</ele><time>2026-03-28T13:30:51.484Z</time></trkpt><trkpt lat="40.6303483" lon="15.2233517"><ele>91.33333333333334</ele><time>2026-03-28T13:30:52.484Z</time></trkpt><trkpt lat="40.6302117" lon="15.223265"><ele>90.66666666666667</ele><time>2026-03-28T13:30:53.484Z</time></trkpt><trkpt lat="40.6300867" lon="15.22315"><ele>90.0</ele><time>2026-03-28T13:30:54.484Z</time></trkpt><trkpt lat="40.62997" lon="15.2230283"><ele>90.0</ele><time>2026-03-28T13:30:55.483Z</time></trkpt><trkpt lat="40.6298733" lon="15.22291"><ele>90.0</ele><time>2026-03-28T13:30:56.483Z</time></trkpt><trkpt lat="40.629775" lon="15.222805"><ele>90.0</ele><time>2026-03-28T13:30:57.484Z</time></trkpt><trkpt lat="40.62966" lon="15.2227283"><ele>90.0</ele><time>2026-03-28T13:30:58.483Z</time></trkpt><trkpt lat="40.6295367" lon="15.2226933"><ele>88.25</ele><time>2026-03-28T13:30:59.484Z</time></trkpt><trkpt lat="40.62942" lon="15.2226933"><ele>86.5</ele><time>2026-03-28T13:31:00.484Z</time></trkpt><trkpt lat="40.6293083" lon="15.2227333"><ele>84.75</ele><time>2026-03-28T13:31:01.484Z</time></trkpt><trkpt lat="40.62921" lon="15.2228033"><ele>83.0</ele><time>2026-03-28T13:31:02.484Z</time></trkpt><trkpt lat="40.629125" lon="15.2228983"><ele>83.0</ele><time>2026-03-28T13:31:03.484Z</time></trkpt><trkpt lat="40.62906" lon="15.223025"><ele>83.0</ele><time>2026-03-28T13:31:04.484Z</time></trkpt><trkpt lat="40.629015" lon="15.2231683"><ele>83.0</ele><time>2026-03-28T13:31:05.483Z</time></trkpt><trkpt lat="40.62899" lon="15.2233367"><ele>83.0</ele><time>2026-03-28T13:31:06.484Z</time></trkpt><trkpt lat="40.6289733" lon="15.2235267"><ele>81.0</ele><time>2026-03-28T13:31:07.483Z</time></trkpt><trkpt lat="40.628965" lon="15.22372"><ele>79.0</ele><time>2026-03-28T13:31:08.484Z</time></trkpt><trkpt lat="40.628965" lon="15.223935"><ele>77.0</ele><time>2026-03-28T13:31:09.484Z</time></trkpt><trkpt lat="40.6289617" lon="15.2241667"><ele>76.0</ele><time>2026-03-28T13:31:10.484Z</time></trkpt><trkpt lat="40.6289617" lon="15.224415"><ele>75.0</ele><time>2026-03-28T13:31:11.485Z</time></trkpt><trkpt lat="40.6289617" lon="15.2246833"><ele>74.0</ele><time>2026-03-28T13:31:12.485Z</time></trkpt><trkpt lat="40.6289567" lon="15.22496"><ele>74.0</ele><time>2026-03-28T13:31:13.485Z</time></trkpt><trkpt lat="40.628945" lon="15.2252267"><ele>74.0</ele><time>2026-03-28T13:31:14.485Z</time></trkpt><trkpt lat="40.628935" lon="15.2254933"><ele>74.0</ele><time>2026-03-28T13:31:15.485Z</time></trkpt><trkpt lat="40.6289267" lon="15.2257717"><ele>73.66666666666667</ele><time>2026-03-28T13:31:16.484Z</time></trkpt><trkpt lat="40.6289267" lon="15.2260533"><ele>73.33333333333333</ele><time>2026-03-28T13:31:17.485Z</time></trkpt><trkpt lat="40.6289233" lon="15.22634"><ele>73.0</ele><time>2026-03-28T13:31:18.485Z</time></trkpt><trkpt lat="40.6289217" lon="15.22663"><ele>73.0</ele><time>2026-03-28T13:31:19.484Z</time></trkpt><trkpt lat="40.6289133" lon="15.2269167"><ele>73.0</ele><time>2026-03-28T13:31:20.485Z</time></trkpt><trkpt lat="40.628905" lon="15.2271983"><ele>73.0</ele><time>2026-03-28T13:31:21.485Z</time></trkpt><trkpt lat="40.6289" lon="15.227475"><ele>73.33333333333333</ele><time>2026-03-28T13:31:22.484Z</time></trkpt><trkpt lat="40.6288933" lon="15.2277367"><ele>73.66666666666667</ele><time>2026-03-28T13:31:23.484Z</time></trkpt><trkpt lat="40.62888" lon="15.2280017"><ele>74.0</ele><time>2026-03-28T13:31:24.485Z</time></trkpt><trkpt lat="40.62888" lon="15.2282517"><ele>75.33333333333334</ele><time>2026-03-28T13:31:25.485Z</time></trkpt><trkpt lat="40.628875" lon="15.2284983"><ele>76.66666666666667</ele><time>2026-03-28T13:31:26.485Z</time></trkpt><trkpt lat="40.62887" lon="15.228745"><ele>78.0</ele><time>2026-03-28T13:31:27.485Z</time></trkpt><trkpt lat="40.628865" lon="15.2289883"><ele>81.33333333333333</ele><time>2026-03-28T13:31:28.485Z</time></trkpt><trkpt lat="40.6288667" lon="15.2292083"><ele>84.66666666666666</ele><time>2026-03-28T13:31:29.485Z</time></trkpt><trkpt lat="40.6288767" lon="15.2294233"><ele>88.0</ele><time>2026-03-28T13:31:30.485Z</time></trkpt><trkpt lat="40.6289017" lon="15.2296333"><ele>91.0</ele><time>2026-03-28T13:31:31.485Z</time></trkpt><trkpt lat="40.62894" lon="15.2298317"><ele>94.0</ele><time>2026-03-28T13:31:32.484Z</time></trkpt><trkpt lat="40.6290033" lon="15.23002"><ele>97.0</ele><time>2026-03-28T13:31:33.485Z</time></trkpt><trkpt lat="40.6290833" lon="15.2302"><ele>97.0</ele><time>2026-03-28T13:31:34.485Z</time></trkpt><trkpt lat="40.629185" lon="15.2303833"><ele>97.0</ele><time>2026-03-28T13:31:35.484Z</time></trkpt><trkpt lat="40.6293033" lon="15.230575"><ele>97.0</ele><time>2026-03-28T13:31:36.485Z</time></trkpt><trkpt lat="40.6294233" lon="15.2307567"><ele>94.33333333333334</ele><time>2026-03-28T13:31:37.485Z</time></trkpt><trkpt lat="40.629535" lon="15.2309283"><ele>91.66666666666667</ele><time>2026-03-28T13:31:38.484Z</time></trkpt><trkpt lat="40.6296317" lon="15.2310883"><ele>89.0</ele><time>2026-03-28T13:31:39.484Z</time></trkpt><trkpt lat="40.6297133" lon="15.2312367"><ele>89.0</ele><time>2026-03-28T13:31:40.484Z</time></trkpt><trkpt lat="40.629775" lon="15.2313867"><ele>89.0</ele><time>2026-03-28T13:31:41.484Z</time></trkpt><trkpt lat="40.6298183" lon="15.2315433"><ele>89.0</ele><time>2026-03-28T13:31:42.485Z</time></trkpt><trkpt lat="40.6298433" lon="15.2317"><ele>89.0</ele><time>2026-03-28T13:31:43.485Z</time></trkpt><trkpt lat="40.62984" lon="15.231855"><ele>90.0</ele><time>2026-03-28T13:31:44.484Z</time></trkpt><trkpt lat="40.6298133" lon="15.232005"><ele>91.0</ele><time>2026-03-28T13:31:45.485Z</time></trkpt><trkpt lat="40.629765" lon="15.2321417"><ele>92.0</ele><time>2026-03-28T13:31:46.485Z</time></trkpt><trkpt lat="40.6297" lon="15.2322567"><ele>93.0</ele><time>2026-03-28T13:31:47.484Z</time></trkpt><trkpt lat="40.6296183" lon="15.2323567"><ele>93.0</ele><time>2026-03-28T13:31:48.484Z</time></trkpt><trkpt lat="40.6295133" lon="15.2324367"><ele>93.0</ele><time>2026-03-28T13:31:49.485Z</time></trkpt><trkpt lat="40.6293933" lon="15.23249"><ele>93.0</ele><time>2026-03-28T13:31:50.484Z</time></trkpt><trkpt lat="40.6292667" lon="15.2325167"><ele>93.0</ele><time>2026-03-28T13:31:51.485Z</time></trkpt><trkpt lat="40.62915" lon="15.2325017"><ele>96.25</ele><time>2026-03-28T13:31:52.485Z</time></trkpt><trkpt lat="40.6290417" lon="15.2324467"><ele>99.5</ele><time>2026-03-28T13:31:53.484Z</time></trkpt><trkpt lat="40.62894" lon="15.2323633"><ele>102.75</ele><time>2026-03-28T13:31:54.485Z</time></trkpt><trkpt lat="40.6288483" lon="15.232255"><ele>106.0</ele><time>2026-03-28T13:31:55.484Z</time></trkpt><trkpt lat="40.6287767" lon="15.2321267"><ele>106.0</ele><time>2026-03-28T13:31:56.484Z</time></trkpt><trkpt lat="40.6287167" lon="15.2319833"><ele>106.0</ele><time>2026-03-28T13:31:57.485Z</time></trkpt><trkpt lat="40.62868" lon="15.2318167"><ele>106.0</ele><time>2026-03-28T13:31:58.484Z</time></trkpt><trkpt lat="40.6286617" lon="15.23163"><ele>106.0</ele><time>2026-03-28T13:31:59.485Z</time></trkpt><trkpt lat="40.6286583" lon="15.2314217"><ele>105.0</ele><time>2026-03-28T13:32:00.484Z</time></trkpt><trkpt lat="40.62866" lon="15.23121"><ele>104.0</ele><time>2026-03-28T13:32:01.485Z</time></trkpt><trkpt lat="40.6286733" lon="15.23098"><ele>103.0</ele><time>2026-03-28T13:32:02.485Z</time></trkpt><trkpt lat="40.6286817" lon="15.2307167"><ele>100.0</ele><time>2026-03-28T13:32:03.485Z</time></trkpt><trkpt lat="40.6286817" lon="15.2304233"><ele>97.0</ele><time>2026-03-28T13:32:04.484Z</time></trkpt><trkpt lat="40.6286883" lon="15.2301067"><ele>92.5</ele><time>2026-03-28T13:32:05.485Z</time></trkpt><trkpt lat="40.628695" lon="15.2297817"><ele>88.0</ele><time>2026-03-28T13:32:06.485Z</time></trkpt><trkpt lat="40.6287" lon="15.229445"><ele>88.0</ele><time>2026-03-28T13:32:07.485Z</time></trkpt><trkpt lat="40.628705" lon="15.2291083"><ele>88.0</ele><time>2026-03-28T13:32:08.485Z</time></trkpt><trkpt lat="40.6287133" lon="15.22877"><ele>83.0</ele><time>2026-03-28T13:32:09.484Z</time></trkpt><trkpt lat="40.6287233" lon="15.2284383"><ele>78.0</ele><time>2026-03-28T13:32:10.484Z</time></trkpt><trkpt lat="40.62873" lon="15.2281017"><ele>76.0</ele><time>2026-03-28T13:32:11.484Z</time></trkpt><trkpt lat="40.62874" lon="15.227765"><ele>74.0</ele><time>2026-03-28T13:32:12.484Z</time></trkpt><trkpt lat="40.62875" lon="15.22742"><ele>73.5</ele><time>2026-03-28T13:32:13.485Z</time></trkpt><trkpt lat="40.6287633" lon="15.2270533"><ele>73.0</ele><time>2026-03-28T13:32:14.484Z</time></trkpt><trkpt lat="40.628775" lon="15.2266767"><ele>72.5</ele><time>2026-03-28T13:32:15.484Z</time></trkpt><trkpt lat="40.62878" lon="15.2262983"><ele>72.0</ele><time>2026-03-28T13:32:16.484Z</time></trkpt><trkpt lat="40.6287867" lon="15.225905"><ele>73.0</ele><time>2026-03-28T13:32:17.484Z</time></trkpt><trkpt lat="40.6287983" lon="15.2255133"><ele>74.0</ele><time>2026-03-28T13:32:18.485Z</time></trkpt><trkpt lat="40.6288067" lon="15.225115"><ele>72.5</ele><time>2026-03-28T13:32:19.485Z</time></trkpt><trkpt lat="40.628815" lon="15.2247133"><ele>71.0</ele><time>2026-03-28T13:32:20.485Z</time></trkpt><trkpt lat="40.628825" lon="15.2243067"><ele>74.0</ele><time>2026-03-28T13:32:21.485Z</time></trkpt><trkpt lat="40.6288317" lon="15.2238983"><ele>77.0</ele><time>2026-03-28T13:32:22.485Z</time></trkpt><trkpt lat="40.628835" lon="15.22349"><ele>80.0</ele><time>2026-03-28T13:32:23.485Z</time></trkpt><trkpt lat="40.628835" lon="15.2230883"><ele>83.0</ele><time>2026-03-28T13:32:24.485Z</time></trkpt><trkpt lat="40.62884" lon="15.2226967"><ele>88.5</ele><time>2026-03-28T13:32:25.485Z</time></trkpt><trkpt lat="40.6288467" lon="15.2223033"><ele>94.0</ele><time>2026-03-28T13:32:26.485Z</time></trkpt><trkpt lat="40.6288567" lon="15.2219017"><ele>94.0</ele><time>2026-03-28T13:32:27.485Z</time></trkpt><trkpt lat="40.6288617" lon="15.221495"><ele>94.0</ele><time>2026-03-28T13:32:28.485Z</time></trkpt><trkpt lat="40.6288767" lon="15.221085"><ele>103.0</ele><time>2026-03-28T13:32:29.484Z</time></trkpt><trkpt lat="40.6288933" lon="15.220675"><ele>112.0</ele><time>2026-03-28T13:32:30.485Z</time></trkpt><trkpt lat="40.62891" lon="15.220255"><ele>119.5</ele><time>2026-03-28T13:32:31.484Z</time></trkpt><trkpt lat="40.6289367" lon="15.219825"><ele>127.0</ele><time>2026-03-28T13:32:32.484Z</time></trkpt><trkpt lat="40.627725" lon="15.2072833"><ele>101.0</ele><time>2026-03-28T13:33:04.48Z</time></trkpt><trkpt lat="40.62767" lon="15.2069117"><ele>75.0</ele><time>2026-03-28T13:33:05.48Z</time></trkpt><trkpt lat="40.6275983" lon="15.20655"><ele>79.5</ele><time>2026-03-28T13:33:06.479Z</time></trkpt><trkpt lat="40.627515" lon="15.2061817"><ele>84.0</ele><time>2026-03-28T13:33:07.479Z</time></trkpt><trkpt lat="40.6274367" lon="15.2058133"><ele>90.5</ele><time>2026-03-28T13:33:08.479Z</time></trkpt><trkpt lat="40.627345" lon="15.205445"><ele>97.0</ele><time>2026-03-28T13:33:09.48Z</time></trkpt><trkpt lat="40.6272467" lon="15.2050483"><ele>102.5</ele><time>2026-03-28T13:33:10.479Z</time></trkpt><trkpt lat="40.6271517" lon="15.204655"><ele>108.0</ele><time>2026-03-28T13:33:11.48Z</time></trkpt><trkpt lat="40.6270583" lon="15.2042683"><ele>104.0</ele><time>2026-03-28T13:33:12.48Z</time></trkpt><trkpt lat="40.6269667" lon="15.2038817"><ele>100.0</ele><time>2026-03-28T13:33:13.48Z</time></trkpt><trkpt lat="40.6263467" lon="15.1979717"><ele>90.0</ele><time>2026-03-28T13:33:29.481Z</time></trkpt><trkpt lat="40.6263767" lon="15.197615"><ele>80.0</ele><time>2026-03-28T13:33:30.482Z</time></trkpt><trkpt lat="40.6264117" lon="15.1972517"><ele>80.0</ele><time>2026-03-28T13:33:31.481Z</time></trkpt><trkpt lat="40.62644" lon="15.19689"><ele>80.0</ele><time>2026-03-28T13:33:32.481Z</time></trkpt><trkpt lat="40.6264683" lon="15.196535"><ele>79.0</ele><time>2026-03-28T13:33:33.482Z</time></trkpt><trkpt lat="40.6265033" lon="15.19618"><ele>78.0</ele><time>2026-03-28T13:33:34.482Z</time></trkpt><trkpt lat="40.626545" lon="15.1958167"><ele>76.0</ele><time>2026-03-28T13:33:35.482Z</time></trkpt><trkpt lat="40.6265917" lon="15.195445"><ele>74.0</ele><time>2026-03-28T13:33:36.482Z</time></trkpt><trkpt lat="40.62664" lon="15.1950717"><ele>73.0</ele><time>2026-03-28T13:33:37.481Z</time></trkpt><trkpt lat="40.626695" lon="15.1947067"><ele>72.0</ele><time>2026-03-28T13:33:38.482Z</time></trkpt><trkpt lat="40.6267517" lon="15.1943367"><ele>70.5</ele><time>2026-03-28T13:33:39.482Z</time></trkpt><trkpt lat="40.62681" lon="15.1939683"><ele>69.0</ele><time>2026-03-28T13:33:40.482Z</time></trkpt><trkpt lat="40.6268567" lon="15.1936067"><ele>69.0</ele><time>2026-03-28T13:33:41.482Z</time></trkpt><trkpt lat="40.6269" lon="15.193245"><ele>69.0</ele><time>2026-03-28T13:33:42.481Z</time></trkpt><trkpt lat="40.62694" lon="15.1928867"><ele>69.5</ele><time>2026-03-28T13:33:43.482Z</time></trkpt><trkpt lat="40.6269817" lon="15.1925217"><ele>70.0</ele><time>2026-03-28T13:33:44.482Z</time></trkpt><trkpt lat="40.6270233" lon="15.1921683"><ele>70.0</ele><time>2026-03-28T13:33:45.481Z</time></trkpt><trkpt lat="40.62706" lon="15.1918083"><ele>70.0</ele><time>2026-03-28T13:33:46.482Z</time></trkpt><trkpt lat="40.627095" lon="15.1914567"><ele>69.5</ele><time>2026-03-28T13:33:47.482Z</time></trkpt><trkpt lat="40.6271283" lon="15.1910967"><ele>69.0</ele><time>2026-03-28T13:33:48.482Z</time></trkpt><trkpt lat="40.6271583" lon="15.1907367"><ele>68.5</ele><time>2026-03-28T13:33:49.481Z</time></trkpt><trkpt lat="40.6271883" lon="15.1903733"><ele>68.0</ele><time>2026-03-28T13:33:50.482Z</time></trkpt><trkpt lat="40.62721" lon="15.1900117"><ele>66.0</ele><time>2026-03-28T13:33:51.481Z</time></trkpt><trkpt lat="40.627225" lon="15.18965"><ele>64.0</ele><time>2026-03-28T13:33:52.481Z</time></trkpt><trkpt lat="40.627225" lon="15.18929"><ele>64.0</ele><time>2026-03-28T13:33:53.482Z</time></trkpt><trkpt lat="40.627225" lon="15.188925"><ele>64.0</ele><time>2026-03-28T13:33:54.481Z</time></trkpt><trkpt lat="40.6272167" lon="15.1885717"><ele>64.0</ele><time>2026-03-28T13:33:55.481Z</time></trkpt><trkpt lat="40.6272017" lon="15.1882133"><ele>64.0</ele><time>2026-03-28T13:33:56.482Z</time></trkpt><trkpt lat="40.6271817" lon="15.1878567"><ele>64.5</ele><time>2026-03-28T13:33:57.481Z</time></trkpt><trkpt lat="40.62716" lon="15.187505"><ele>65.0</ele><time>2026-03-28T13:33:58.482Z</time></trkpt><trkpt lat="40.62713" lon="15.1871517"><ele>66.0</ele><time>2026-03-28T13:33:59.481Z</time></trkpt><trkpt lat="40.62709" lon="15.1867933"><ele>67.0</ele><time>2026-03-28T13:34:00.482Z</time></trkpt><trkpt lat="40.6270417" lon="15.1864283"><ele>67.0</ele><time>2026-03-28T13:34:01.482Z</time></trkpt><trkpt lat="40.6269817" lon="15.186065"><ele>67.0</ele><time>2026-03-28T13:34:02.482Z</time></trkpt><trkpt lat="40.6269183" lon="15.1856933"><ele>66.0</ele><time>2026-03-28T13:34:03.481Z</time></trkpt><trkpt lat="40.6268433" lon="15.1853267"><ele>65.0</ele><time>2026-03-28T13:34:04.481Z</time></trkpt><trkpt lat="40.6267583" lon="15.1849567"><ele>67.0</ele><time>2026-03-28T13:34:05.482Z</time></trkpt><trkpt lat="40.62667" lon="15.1845917"><ele>69.0</ele><time>2026-03-28T13:34:06.481Z</time></trkpt><trkpt lat="40.6265767" lon="15.1842317"><ele>71.0</ele><time>2026-03-28T13:34:07.482Z</time></trkpt><trkpt lat="40.6264767" lon="15.183875"><ele>73.0</ele><time>2026-03-28T13:34:08.481Z</time></trkpt><trkpt lat="40.6263733" lon="15.18352"><ele>72.0</ele><time>2026-03-28T13:34:09.481Z</time></trkpt><trkpt lat="40.626255" lon="15.18317"><ele>71.0</ele><time>2026-03-28T13:34:10.482Z</time></trkpt><trkpt lat="40.62613" lon="15.1828267"><ele>68.5</ele><time>2026-03-28T13:34:11.482Z</time></trkpt><trkpt lat="40.625995" lon="15.1824833"><ele>66.0</ele><time>2026-03-28T13:34:12.482Z</time></trkpt><trkpt lat="40.625855" lon="15.1821483"><ele>66.0</ele><time>2026-03-28T13:34:13.481Z</time></trkpt><trkpt lat="40.6257067" lon="15.1818167"><ele>66.0</ele><time>2026-03-28T13:34:14.481Z</time></trkpt><trkpt lat="40.6255467" lon="15.18149"><ele>66.5</ele><time>2026-03-28T13:34:15.482Z</time></trkpt><trkpt lat="40.6253867" lon="15.181165"><ele>67.0</ele><time>2026-03-28T13:34:16.482Z</time></trkpt><trkpt lat="40.6252233" lon="15.1808417"><ele>72.5</ele><time>2026-03-28T13:34:17.481Z</time></trkpt><trkpt lat="40.625055" lon="15.1805233"><ele>78.0</ele><time>2026-03-28T13:34:18.482Z</time></trkpt><trkpt lat="40.624895" lon="15.180195"><ele>78.0</ele><time>2026-03-28T13:34:19.481Z</time></trkpt><trkpt lat="40.62473" lon="15.17986"><ele>78.0</ele><time>2026-03-28T13:34:20.482Z</time></trkpt><trkpt lat="40.6245583" lon="15.17953"><ele>83.0</ele><time>2026-03-28T13:34:21.481Z</time></trkpt><trkpt lat="40.6243933" lon="15.1791967"><ele>88.0</ele><time>2026-03-28T13:34:22.481Z</time></trkpt><trkpt lat="40.6242217" lon="15.1788683"><ele>57.0</ele><time>2026-03-28T13:34:23.481Z</time></trkpt><trkpt lat="40.61929" lon="15.17067"><ele>57.0</ele><time>2026-03-28T13:34:50.481Z</time></trkpt><trkpt lat="40.61915" lon="15.170335"><ele>57.0</ele><time>2026-03-28T13:34:51.481Z</time></trkpt><trkpt lat="40.6190183" lon="15.1699983"><ele>56.5</ele><time>2026-03-28T13:34:52.48Z</time></trkpt><trkpt lat="40.618895" lon="15.1696567"><ele>56.0</ele><time>2026-03-28T13:34:53.48Z</time></trkpt><trkpt lat="40.6187717" lon="15.1693233"><ele>55.5</ele><time>2026-03-28T13:34:54.48Z</time></trkpt><trkpt lat="40.6186533" lon="15.1689817"><ele>55.0</ele><time>2026-03-28T13:34:55.48Z</time></trkpt><trkpt lat="40.6185367" lon="15.16864"><ele>53.0</ele><time>2026-03-28T13:34:56.48Z</time></trkpt><trkpt lat="40.6184283" lon="15.168295"><ele>51.0</ele><time>2026-03-28T13:34:57.481Z</time></trkpt><trkpt lat="40.61832" lon="15.1679483"><ele>51.0</ele><time>2026-03-28T13:34:58.48Z</time></trkpt><trkpt lat="40.6182167" lon="15.1676"><ele>51.0</ele><time>2026-03-28T13:34:59.481Z</time></trkpt><trkpt lat="40.61812" lon="15.16726"><ele>51.5</ele><time>2026-03-28T13:35:00.481Z</time></trkpt><trkpt lat="40.6180217" lon="15.16691"><ele>52.0</ele><time>2026-03-28T13:35:01.481Z</time></trkpt><trkpt lat="40.6179233" lon="15.166565"><ele>51.0</ele><time>2026-03-28T13:35:02.481Z</time></trkpt><trkpt lat="40.6178333" lon="15.1662183"><ele>50.0</ele><time>2026-03-28T13:35:03.48Z</time></trkpt><trkpt lat="40.617745" lon="15.1658717"><ele>50.5</ele><time>2026-03-28T13:35:04.48Z</time></trkpt><trkpt lat="40.617655" lon="15.1655267"><ele>51.0</ele><time>2026-03-28T13:35:05.481Z</time></trkpt><trkpt lat="40.6175683" lon="15.165185"><ele>51.0</ele><time>2026-03-28T13:35:06.481Z</time></trkpt><trkpt lat="40.617475" lon="15.1648517"><ele>51.0</ele><time>2026-03-28T13:35:07.48Z</time></trkpt><trkpt lat="40.617385" lon="15.1645117"><ele>51.0</ele><time>2026-03-28T13:35:08.481Z</time></trkpt><trkpt lat="40.6172917" lon="15.1641767"><ele>51.0</ele><time>2026-03-28T13:35:09.481Z</time></trkpt><trkpt lat="40.6172017" lon="15.163835"><ele>52.0</ele><time>2026-03-28T13:35:10.481Z</time></trkpt><trkpt lat="40.617105" lon="15.1634917"><ele>53.0</ele><time>2026-03-28T13:35:11.48Z</time></trkpt><trkpt lat="40.61701" lon="15.1631517"><ele>53.0</ele><time>2026-03-28T13:35:12.481Z</time></trkpt><trkpt lat="40.6169167" lon="15.1628183"><ele>53.0</ele><time>2026-03-28T13:35:13.481Z</time></trkpt><trkpt lat="40.6168233" lon="15.1624733"><ele>52.5</ele><time>2026-03-28T13:35:14.481Z</time></trkpt><trkpt lat="40.61673" lon="15.1621233"><ele>52.0</ele><time>2026-03-28T13:35:15.481Z</time></trkpt><trkpt lat="40.6166383" lon="15.161775"><ele>52.5</ele><time>2026-03-28T13:35:16.481Z</time></trkpt><trkpt lat="40.616545" lon="15.1614317"><ele>53.0</ele><time>2026-03-28T13:35:17.481Z</time></trkpt><trkpt lat="40.6164533" lon="15.16109"><ele>53.0</ele><time>2026-03-28T13:35:18.481Z</time></trkpt><trkpt lat="40.6163617" lon="15.1607467"><ele>53.0</ele><time>2026-03-28T13:35:19.481Z</time></trkpt><trkpt lat="40.61627" lon="15.1604083"><ele>52.5</ele><time>2026-03-28T13:35:20.48Z</time></trkpt><trkpt lat="40.6161783" lon="15.1600683"><ele>52.0</ele><time>2026-03-28T13:35:21.481Z</time></trkpt><trkpt lat="40.6160917" lon="15.1597217"><ele>51.5</ele><time>2026-03-28T13:35:22.481Z</time></trkpt><trkpt lat="40.6160017" lon="15.1593867"><ele>51.0</ele><time>2026-03-28T13:35:23.481Z</time></trkpt><trkpt lat="40.615915" lon="15.1590483"><ele>50.5</ele><time>2026-03-28T13:35:24.48Z</time></trkpt><trkpt lat="40.61583" lon="15.1587117"><ele>50.0</ele><time>2026-03-28T13:35:25.481Z</time></trkpt><trkpt lat="40.6157367" lon="15.1583717"><ele>49.5</ele><time>2026-03-28T13:35:26.481Z</time></trkpt><trkpt lat="40.61565" lon="15.15803"><ele>49.0</ele><time>2026-03-28T13:35:27.481Z</time></trkpt><trkpt lat="40.6155617" lon="15.15769"><ele>49.5</ele><time>2026-03-28T13:35:28.481Z</time></trkpt><trkpt lat="40.6154717" lon="15.1573467"><ele>50.0</ele><time>2026-03-28T13:35:29.481Z</time></trkpt><trkpt lat="40.61538" lon="15.1570117"><ele>51.0</ele><time>2026-03-28T13:35:30.481Z</time></trkpt><trkpt lat="40.6152867" lon="15.1566683"><ele>52.0</ele><time>2026-03-28T13:35:31.481Z</time></trkpt><trkpt lat="40.61519" lon="15.1563233"><ele>52.0</ele><time>2026-03-28T13:35:32.48Z</time></trkpt><trkpt lat="40.615095" lon="15.1559833"><ele>52.0</ele><time>2026-03-28T13:35:33.48Z</time></trkpt><trkpt lat="40.615005" lon="15.1556383"><ele>52.0</ele><time>2026-03-28T13:35:34.48Z</time></trkpt><trkpt lat="40.6149133" lon="15.1552983"><ele>52.0</ele><time>2026-03-28T13:35:35.48Z</time></trkpt><trkpt lat="40.6148233" lon="15.154945"><ele>53.5</ele><time>2026-03-28T13:35:36.48Z</time></trkpt><trkpt lat="40.614735" lon="15.1545967"><ele>55.0</ele><time>2026-03-28T13:35:37.481Z</time></trkpt><trkpt lat="40.6146483" lon="15.1542467"><ele>55.0</ele><time>2026-03-28T13:35:38.481Z</time></trkpt><trkpt lat="40.6145633" lon="15.1538967"><ele>55.0</ele><time>2026-03-28T13:35:39.481Z</time></trkpt><trkpt lat="40.61448" lon="15.153545"><ele>57.5</ele><time>2026-03-28T13:35:40.481Z</time></trkpt><trkpt lat="40.6143883" lon="15.1531933"><ele>60.0</ele><time>2026-03-28T13:35:41.48Z</time></trkpt><trkpt lat="40.6142917" lon="15.152845"><ele>60.0</ele><time>2026-03-28T13:35:42.481Z</time></trkpt><trkpt lat="40.6142083" lon="15.15248"><ele>60.0</ele><time>2026-03-28T13:35:43.48Z</time></trkpt><trkpt lat="40.6141167" lon="15.1521267"><ele>63.5</ele><time>2026-03-28T13:35:44.481Z</time></trkpt><trkpt lat="40.61403" lon="15.1517867"><ele>67.0</ele><time>2026-03-28T13:35:45.481Z</time></trkpt><trkpt lat="40.613945" lon="15.1514417"><ele>71.0</ele><time>2026-03-28T13:35:46.48Z</time></trkpt><trkpt lat="40.6138683" lon="15.151095"><ele>75.0</ele><time>2026-03-28T13:35:47.481Z</time></trkpt><trkpt lat="40.6138017" lon="15.150755"><ele>75.0</ele><time>2026-03-28T13:35:48.48Z</time></trkpt><trkpt lat="40.6137417" lon="15.1504183"><ele>75.0</ele><time>2026-03-28T13:35:49.481Z</time></trkpt><trkpt lat="40.6136967" lon="15.1500833"><ele>69.0</ele><time>2026-03-28T13:35:50.481Z</time></trkpt><trkpt lat="40.613655" lon="15.1497367"><ele>63.0</ele><time>2026-03-28T13:35:51.481Z</time></trkpt><trkpt lat="40.6136183" lon="15.1493967"><ele>63.0</ele><time>2026-03-28T13:35:52.48Z</time></trkpt><trkpt lat="40.6135933" lon="15.1490533"><ele>63.0</ele><time>2026-03-28T13:35:53.481Z</time></trkpt><trkpt lat="40.613575" lon="15.1487"><ele>63.5</ele><time>2026-03-28T13:35:54.481Z</time></trkpt><trkpt lat="40.6135617" lon="15.1483467"><ele>64.0</ele><time>2026-03-28T13:35:55.481Z</time></trkpt><trkpt lat="40.6135567" lon="15.14799"><ele>63.0</ele><time>2026-03-28T13:35:56.48Z</time></trkpt><trkpt lat="40.613565" lon="15.1476417"><ele>62.0</ele><time>2026-03-28T13:35:57.481Z</time></trkpt><trkpt lat="40.6135783" lon="15.1472867"><ele>61.5</ele><time>2026-03-28T13:35:58.48Z</time></trkpt><trkpt lat="40.6135917" lon="15.146935"><ele>61.0</ele><time>2026-03-28T13:35:59.48Z</time></trkpt><trkpt lat="40.6136067" lon="15.1465833"><ele>60.0</ele><time>2026-03-28T13:36:00.481Z</time></trkpt><trkpt lat="40.613625" lon="15.1462267"><ele>59.0</ele><time>2026-03-28T13:36:01.481Z</time></trkpt><trkpt lat="40.6136367" lon="15.1458783"><ele>58.0</ele><time>2026-03-28T13:36:02.481Z</time></trkpt><trkpt lat="40.6136483" lon="15.1455267"><ele>57.0</ele><time>2026-03-28T13:36:03.48Z</time></trkpt><trkpt lat="40.613655" lon="15.14517"><ele>57.5</ele><time>2026-03-28T13:36:04.48Z</time></trkpt><trkpt lat="40.613655" lon="15.1448167"><ele>58.0</ele><time>2026-03-28T13:36:05.481Z</time></trkpt><trkpt lat="40.6136483" lon="15.1444617"><ele>58.0</ele><time>2026-03-28T13:36:06.48Z</time></trkpt><trkpt lat="40.613625" lon="15.1441083"><ele>58.0</ele><time>2026-03-28T13:36:07.481Z</time></trkpt><trkpt lat="40.6135967" lon="15.1437583"><ele>58.5</ele><time>2026-03-28T13:36:08.481Z</time></trkpt><trkpt lat="40.61356" lon="15.1434183"><ele>59.0</ele><time>2026-03-28T13:36:09.481Z</time></trkpt><trkpt lat="40.6135183" lon="15.14307"><ele>60.5</ele><time>2026-03-28T13:36:10.481Z</time></trkpt><trkpt lat="40.6134667" lon="15.14273"><ele>62.0</ele><time>2026-03-28T13:36:11.481Z</time></trkpt><trkpt lat="40.6134133" lon="15.1423817"><ele>65.0</ele><time>2026-03-28T13:36:12.481Z</time></trkpt><trkpt lat="40.61335" lon="15.1420367"><ele>68.0</ele><time>2026-03-28T13:36:13.48Z</time></trkpt><trkpt lat="40.6132833" lon="15.141695"><ele>71.5</ele><time>2026-03-28T13:36:14.481Z</time></trkpt><trkpt lat="40.6132067" lon="15.1413583"><ele>75.0</ele><time>2026-03-28T13:36:15.48Z</time></trkpt><trkpt lat="40.613125" lon="15.1410233"><ele>78.5</ele><time>2026-03-28T13:36:16.48Z</time></trkpt><trkpt lat="40.6130317" lon="15.1406983"><ele>82.0</ele><time>2026-03-28T13:36:17.481Z</time></trkpt><trkpt lat="40.612935" lon="15.1403683"><ele>82.0</ele><time>2026-03-28T13:36:18.481Z</time></trkpt><trkpt lat="40.6128333" lon="15.140045"><ele>82.0</ele><time>2026-03-28T13:36:19.481Z</time></trkpt><trkpt lat="40.61272" lon="15.1397317"><ele>77.0</ele><time>2026-03-28T13:36:20.481Z</time></trkpt><trkpt lat="40.6126017" lon="15.13941"><ele>72.0</ele><time>2026-03-28T13:36:21.481Z</time></trkpt><trkpt lat="40.6124733" lon="15.1390967"><ele>74.0</ele><time>2026-03-28T13:36:22.48Z</time></trkpt><trkpt lat="40.6123417" lon="15.1387967"><ele>76.0</ele><time>2026-03-28T13:36:23.48Z</time></trkpt><trkpt lat="40.61221" lon="15.138485"><ele>77.5</ele><time>2026-03-28T13:36:24.48Z</time></trkpt><trkpt lat="40.61208" lon="15.1381717"><ele>79.0</ele><time>2026-03-28T13:36:25.48Z</time></trkpt><trkpt lat="40.61195" lon="15.137855"><ele>74.0</ele><time>2026-03-28T13:36:26.481Z</time></trkpt><trkpt lat="40.6118183" lon="15.1375433"><ele>69.0</ele><time>2026-03-28T13:36:27.481Z</time></trkpt><trkpt lat="40.6116833" lon="15.13722"><ele>69.0</ele><time>2026-03-28T13:36:28.48Z</time></trkpt><trkpt lat="40.611545" lon="15.136905"><ele>69.0</ele><time>2026-03-28T13:36:29.481Z</time></trkpt><trkpt lat="40.61141" lon="15.136585"><ele>71.0</ele><time>2026-03-28T13:36:30.48Z</time></trkpt><trkpt lat="40.6112733" lon="15.1362717"><ele>73.0</ele><time>2026-03-28T13:36:31.481Z</time></trkpt><trkpt lat="40.611145" lon="15.13595"><ele>78.0</ele><time>2026-03-28T13:36:32.481Z</time></trkpt><trkpt lat="40.6110117" lon="15.1356317"><ele>83.0</ele><time>2026-03-28T13:36:33.48Z</time></trkpt><trkpt lat="40.6108783" lon="15.1353167"><ele>83.0</ele><time>2026-03-28T13:36:34.48Z</time></trkpt><trkpt lat="40.610745" lon="15.134995"><ele>83.0</ele><time>2026-03-28T13:36:35.48Z</time></trkpt><trkpt lat="40.6106083" lon="15.1346767"><ele>88.5</ele><time>2026-03-28T13:36:36.48Z</time></trkpt><trkpt lat="40.610475" lon="15.1343567"><ele>94.0</ele><time>2026-03-28T13:36:37.48Z</time></trkpt><trkpt lat="40.6103517" lon="15.13403"><ele>97.5</ele><time>2026-03-28T13:36:38.481Z</time></trkpt><trkpt lat="40.6102417" lon="15.133695"><ele>101.0</ele><time>2026-03-28T13:36:39.48Z</time></trkpt><trkpt lat="40.6101333" lon="15.1333583"><ele>102.0</ele><time>2026-03-28T13:36:40.481Z</time></trkpt><trkpt lat="40.6100167" lon="15.133025"><ele>103.0</ele><time>2026-03-28T13:36:41.481Z</time></trkpt><trkpt lat="40.6099" lon="15.1326933"><ele>73.0</ele><time>2026-03-28T13:36:42.48Z</time></trkpt><trkpt lat="40.60916" lon="15.1311017"><ele>73.0</ele><time>2026-03-28T13:36:47.482Z</time></trkpt><trkpt lat="40.6089983" lon="15.1307917"><ele>73.0</ele><time>2026-03-28T13:36:48.482Z</time></trkpt><trkpt lat="40.6088767" lon="15.1304833"><ele>65.5</ele><time>2026-03-28T13:36:49.481Z</time></trkpt><trkpt lat="40.6087617" lon="15.1301767"><ele>58.0</ele><time>2026-03-28T13:36:50.481Z</time></trkpt><trkpt lat="40.6086533" lon="15.129855"><ele>58.0</ele><time>2026-03-28T13:36:51.482Z</time></trkpt><trkpt lat="40.608555" lon="15.1295367"><ele>58.0</ele><time>2026-03-28T13:36:52.482Z</time></trkpt><trkpt lat="40.6084617" lon="15.1292167"><ele>68.5</ele><time>2026-03-28T13:36:53.481Z</time></trkpt><trkpt lat="40.6083683" lon="15.12889"><ele>79.0</ele><time>2026-03-28T13:36:54.482Z</time></trkpt><trkpt lat="40.60828" lon="15.12856"><ele>79.0</ele><time>2026-03-28T13:36:55.482Z</time></trkpt><trkpt lat="40.6081933" lon="15.1282267"><ele>79.0</ele><time>2026-03-28T13:36:56.482Z</time></trkpt><trkpt lat="40.6081083" lon="15.127895"><ele>88.5</ele><time>2026-03-28T13:36:57.481Z</time></trkpt><trkpt lat="40.60803" lon="15.127565"><ele>98.0</ele><time>2026-03-28T13:36:58.482Z</time></trkpt><trkpt lat="40.6079517" lon="15.1272317"><ele>99.0</ele><time>2026-03-28T13:36:59.482Z</time></trkpt><trkpt lat="40.607875" lon="15.1268917"><ele>100.0</ele><time>2026-03-28T13:37:00.482Z</time></trkpt><trkpt lat="40.607805" lon="15.1265433"><ele>100.0</ele><time>2026-03-28T13:37:01.482Z</time></trkpt><trkpt lat="40.607745" lon="15.1261933"><ele>100.0</ele><time>2026-03-28T13:37:02.481Z</time></trkpt><trkpt lat="40.607695" lon="15.1258333"><ele>101.0</ele><time>2026-03-28T13:37:03.482Z</time></trkpt><trkpt lat="40.6076483" lon="15.1254717"><ele>102.0</ele><time>2026-03-28T13:37:04.481Z</time></trkpt><trkpt lat="40.6076067" lon="15.1251067"><ele>100.5</ele><time>2026-03-28T13:37:05.481Z</time></trkpt><trkpt lat="40.6075683" lon="15.1247417"><ele>99.0</ele><time>2026-03-28T13:37:06.481Z</time></trkpt><trkpt lat="40.6075333" lon="15.1243817"><ele>93.5</ele><time>2026-03-28T13:37:07.481Z</time></trkpt><trkpt lat="40.607505" lon="15.1240183"><ele>88.0</ele><time>2026-03-28T13:37:08.481Z</time></trkpt><trkpt lat="40.6074733" lon="15.1236567"><ele>88.0</ele><time>2026-03-28T13:37:09.482Z</time></trkpt><trkpt lat="40.6074383" lon="15.1232933"><ele>88.0</ele><time>2026-03-28T13:37:10.481Z</time></trkpt><trkpt lat="40.6074067" lon="15.122925"><ele>88.5</ele><time>2026-03-28T13:37:11.481Z</time></trkpt><trkpt lat="40.6073667" lon="15.1225633"><ele>89.0</ele><time>2026-03-28T13:37:12.482Z</time></trkpt><trkpt lat="40.607335" lon="15.122205"><ele>96.0</ele><time>2026-03-28T13:37:13.482Z</time></trkpt><trkpt lat="40.607305" lon="15.1218417"><ele>103.0</ele><time>2026-03-28T13:37:14.481Z</time></trkpt><trkpt lat="40.607275" lon="15.1214883"><ele>104.5</ele><time>2026-03-28T13:37:15.482Z</time></trkpt><trkpt lat="40.607245" lon="15.1211317"><ele>106.0</ele><time>2026-03-28T13:37:16.482Z</time></trkpt><trkpt lat="40.60721" lon="15.120775"><ele>107.5</ele><time>2026-03-28T13:37:17.482Z</time></trkpt><trkpt lat="40.607175" lon="15.1204167"><ele>109.0</ele><time>2026-03-28T13:37:18.482Z</time></trkpt><trkpt lat="40.607145" lon="15.1200517"><ele>109.0</ele><time>2026-03-28T13:37:19.481Z</time></trkpt><trkpt lat="40.6071183" lon="15.119685"><ele>109.0</ele><time>2026-03-28T13:37:20.482Z</time></trkpt><trkpt lat="40.607085" lon="15.11932"><ele>108.5</ele><time>2026-03-28T13:37:21.482Z</time></trkpt><trkpt lat="40.6070483" lon="15.1189517"><ele>108.0</ele><time>2026-03-28T13:37:22.481Z</time></trkpt><trkpt lat="40.6070183" lon="15.1185917"><ele>108.0</ele><time>2026-03-28T13:37:23.482Z</time></trkpt><trkpt lat="40.606985" lon="15.1182217"><ele>108.0</ele><time>2026-03-28T13:37:24.482Z</time></trkpt><trkpt lat="40.606955" lon="15.1178583"><ele>108.0</ele><time>2026-03-28T13:37:25.481Z</time></trkpt><trkpt lat="40.60692" lon="15.1174933"><ele>108.0</ele><time>2026-03-28T13:37:26.482Z</time></trkpt><trkpt lat="40.6068883" lon="15.1171267"><ele>106.5</ele><time>2026-03-28T13:37:27.482Z</time></trkpt><trkpt lat="40.6068533" lon="15.1167617"><ele>105.0</ele><time>2026-03-28T13:37:28.482Z</time></trkpt><trkpt lat="40.60682" lon="15.1164"><ele>105.0</ele><time>2026-03-28T13:37:29.482Z</time></trkpt><trkpt lat="40.6067967" lon="15.116045"><ele>105.0</ele><time>2026-03-28T13:37:30.482Z</time></trkpt><trkpt lat="40.606775" lon="15.1156833"><ele>106.5</ele><time>2026-03-28T13:37:31.481Z</time></trkpt><trkpt lat="40.60675" lon="15.1153117"><ele>108.0</ele><time>2026-03-28T13:37:32.482Z</time></trkpt><trkpt lat="40.6067267" lon="15.114935"><ele>107.5</ele><time>2026-03-28T13:37:33.482Z</time></trkpt><trkpt lat="40.6066933" lon="15.1145567"><ele>107.0</ele><time>2026-03-28T13:37:34.482Z</time></trkpt><trkpt lat="40.6066633" lon="15.1141583"><ele>107.0</ele><time>2026-03-28T13:37:35.481Z</time></trkpt><trkpt lat="40.6066367" lon="15.1137583"><ele>107.0</ele><time>2026-03-28T13:37:36.481Z</time></trkpt><trkpt lat="40.606615" lon="15.113355"><ele>107.0</ele><time>2026-03-28T13:37:37.481Z</time></trkpt><trkpt lat="40.6065983" lon="15.112945"><ele>107.0</ele><time>2026-03-28T13:37:38.481Z</time></trkpt><trkpt lat="40.606575" lon="15.1125267"><ele>106.0</ele><time>2026-03-28T13:37:39.481Z</time></trkpt><trkpt lat="40.6065533" lon="15.11212"><ele>105.0</ele><time>2026-03-28T13:37:40.482Z</time></trkpt><trkpt lat="40.60653" lon="15.11169"><ele>104.5</ele><time>2026-03-28T13:37:41.482Z</time></trkpt><trkpt lat="40.6065" lon="15.1112683"><ele>104.0</ele><time>2026-03-28T13:37:42.482Z</time></trkpt><trkpt lat="40.6064733" lon="15.11084"><ele>104.5</ele><time>2026-03-28T13:37:43.481Z</time></trkpt><trkpt lat="40.6064483" lon="15.1104167"><ele>105.0</ele><time>2026-03-28T13:37:44.482Z</time></trkpt><trkpt lat="40.6064283" lon="15.1099933"><ele>104.5</ele><time>2026-03-28T13:37:45.481Z</time></trkpt><trkpt lat="40.6064067" lon="15.1095733"><ele>104.0</ele><time>2026-03-28T13:37:46.482Z</time></trkpt><trkpt lat="40.606395" lon="15.1091683"><ele>102.0</ele><time>2026-03-28T13:37:47.481Z</time></trkpt><trkpt lat="40.6063817" lon="15.10877"><ele>100.0</ele><time>2026-03-28T13:37:48.482Z</time></trkpt><trkpt lat="40.60637" lon="15.1083767"><ele>98.5</ele><time>2026-03-28T13:37:49.482Z</time></trkpt><trkpt lat="40.6063567" lon="15.10799"><ele>97.0</ele><time>2026-03-28T13:37:50.481Z</time></trkpt><trkpt lat="40.6063367" lon="15.1076067"><ele>97.5</ele><time>2026-03-28T13:37:51.481Z</time></trkpt><trkpt lat="40.6063167" lon="15.1072283"><ele>98.0</ele><time>2026-03-28T13:37:52.481Z</time></trkpt><trkpt lat="40.6062867" lon="15.1068467"><ele>99.5</ele><time>2026-03-28T13:37:53.481Z</time></trkpt><trkpt lat="40.6062633" lon="15.1064717"><ele>101.0</ele><time>2026-03-28T13:37:54.482Z</time></trkpt><trkpt lat="40.6062467" lon="15.1060967"><ele>101.0</ele><time>2026-03-28T13:37:55.481Z</time></trkpt><trkpt lat="40.606225" lon="15.1057283"><ele>101.0</ele><time>2026-03-28T13:37:56.482Z</time></trkpt><trkpt lat="40.6062133" lon="15.1053567"><ele>101.0</ele><time>2026-03-28T13:37:57.482Z</time></trkpt><trkpt lat="40.6061967" lon="15.1049867"><ele>101.0</ele><time>2026-03-28T13:37:58.482Z</time></trkpt><trkpt lat="40.6061817" lon="15.1046167"><ele>101.5</ele><time>2026-03-28T13:37:59.482Z</time></trkpt><trkpt lat="40.6061767" lon="15.10425"><ele>102.0</ele><time>2026-03-28T13:38:00.482Z</time></trkpt><trkpt lat="40.6061833" lon="15.1038833"><ele>100.5</ele><time>2026-03-28T13:38:01.482Z</time></trkpt><trkpt lat="40.6061917" lon="15.1035133"><ele>99.0</ele><time>2026-03-28T13:38:02.482Z</time></trkpt><trkpt lat="40.6062117" lon="15.1031517"><ele>97.0</ele><time>2026-03-28T13:38:03.482Z</time></trkpt><trkpt lat="40.6062417" lon="15.1027983"><ele>95.0</ele><time>2026-03-28T13:38:04.482Z</time></trkpt><trkpt lat="40.6062783" lon="15.1024417"><ele>94.5</ele><time>2026-03-28T13:38:05.482Z</time></trkpt><trkpt lat="40.6063233" lon="15.1020833"><ele>94.0</ele><time>2026-03-28T13:38:06.481Z</time></trkpt><trkpt lat="40.6063767" lon="15.1017167"><ele>95.0</ele><time>2026-03-28T13:38:07.482Z</time></trkpt><trkpt lat="40.6064433" lon="15.101345"><ele>96.0</ele><time>2026-03-28T13:38:08.481Z</time></trkpt><trkpt lat="40.6065067" lon="15.1009783"><ele>95.5</ele><time>2026-03-28T13:38:09.482Z</time></trkpt><trkpt lat="40.6065683" lon="15.100605"><ele>95.0</ele><time>2026-03-28T13:38:10.482Z</time></trkpt><trkpt lat="40.6066283" lon="15.1002317"><ele>95.5</ele><time>2026-03-28T13:38:11.481Z</time></trkpt><trkpt lat="40.606695" lon="15.0998617"><ele>96.0</ele><time>2026-03-28T13:38:12.482Z</time></trkpt><trkpt lat="40.60676" lon="15.0994867"><ele>96.0</ele><time>2026-03-28T13:38:13.482Z</time></trkpt><trkpt lat="40.606835" lon="15.0991033"><ele>96.0</ele><time>2026-03-28T13:38:14.482Z</time></trkpt><trkpt lat="40.60691" lon="15.0987283"><ele>96.0</ele><time>2026-03-28T13:38:15.482Z</time></trkpt><trkpt lat="40.60698" lon="15.0983517"><ele>96.0</ele><time>2026-03-28T13:38:16.481Z</time></trkpt><trkpt lat="40.607055" lon="15.0979733"><ele>96.0</ele><time>2026-03-28T13:38:17.482Z</time></trkpt><trkpt lat="40.6071433" lon="15.0976067"><ele>96.0</ele><time>2026-03-28T13:38:18.481Z</time></trkpt><trkpt lat="40.607235" lon="15.0972383"><ele>96.0</ele><time>2026-03-28T13:38:19.481Z</time></trkpt><trkpt lat="40.6073283" lon="15.0968717"><ele>96.0</ele><time>2026-03-28T13:38:20.481Z</time></trkpt><trkpt lat="40.6074267" lon="15.0965117"><ele>96.0</ele><time>2026-03-28T13:38:21.482Z</time></trkpt><trkpt lat="40.6075283" lon="15.0961483"><ele>96.0</ele><time>2026-03-28T13:38:22.481Z</time></trkpt><trkpt lat="40.607635" lon="15.0957983"><ele>96.0</ele><time>2026-03-28T13:38:23.481Z</time></trkpt><trkpt lat="40.60774" lon="15.0954433"><ele>96.0</ele><time>2026-03-28T13:38:24.481Z</time></trkpt><trkpt lat="40.60785" lon="15.0950917"><ele>96.0</ele><time>2026-03-28T13:38:25.482Z</time></trkpt><trkpt lat="40.60796" lon="15.0947367"><ele>96.0</ele><time>2026-03-28T13:38:26.481Z</time></trkpt><trkpt lat="40.6080767" lon="15.09439"><ele>95.5</ele><time>2026-03-28T13:38:27.481Z</time></trkpt><trkpt lat="40.6081967" lon="15.0940317"><ele>95.0</ele><time>2026-03-28T13:38:28.482Z</time></trkpt><trkpt lat="40.6083167" lon="15.09367"><ele>95.0</ele><time>2026-03-28T13:38:29.482Z</time></trkpt><trkpt lat="40.608435" lon="15.0933133"><ele>95.0</ele><time>2026-03-28T13:38:30.481Z</time></trkpt><trkpt lat="40.6085583" lon="15.092955"><ele>95.5</ele><time>2026-03-28T13:38:31.482Z</time></trkpt><trkpt lat="40.6086767" lon="15.0925983"><ele>96.0</ele><time>2026-03-28T13:38:32.482Z</time></trkpt><trkpt lat="40.6087883" lon="15.0922433"><ele>96.0</ele><time>2026-03-28T13:38:33.482Z</time></trkpt><trkpt lat="40.6089033" lon="15.091885"><ele>96.0</ele><time>2026-03-28T13:38:34.482Z</time></trkpt><trkpt lat="40.6090083" lon="15.0915233"><ele>96.0</ele><time>2026-03-28T13:38:35.482Z</time></trkpt><trkpt lat="40.6091117" lon="15.091155"><ele>96.0</ele><time>2026-03-28T13:38:36.482Z</time></trkpt><trkpt lat="40.609205" lon="15.0907867"><ele>96.0</ele><time>2026-03-28T13:38:37.482Z</time></trkpt><trkpt lat="40.6092883" lon="15.09042"><ele>96.0</ele><time>2026-03-28T13:38:38.482Z</time></trkpt><trkpt lat="40.60936" lon="15.0900417"><ele>95.0</ele><time>2026-03-28T13:38:39.481Z</time></trkpt><trkpt lat="40.609425" lon="15.0896567"><ele>94.0</ele><time>2026-03-28T13:38:40.481Z</time></trkpt><trkpt lat="40.6094833" lon="15.089275"><ele>94.0</ele><time>2026-03-28T13:38:41.481Z</time></trkpt><trkpt lat="40.609535" lon="15.0888883"><ele>94.0</ele><time>2026-03-28T13:38:42.481Z</time></trkpt><trkpt lat="40.6095783" lon="15.0884917"><ele>92.5</ele><time>2026-03-28T13:38:43.481Z</time></trkpt><trkpt lat="40.6096133" lon="15.0880933"><ele>91.0</ele><time>2026-03-28T13:38:44.482Z</time></trkpt><trkpt lat="40.60964" lon="15.0876933"><ele>89.0</ele><time>2026-03-28T13:38:45.482Z</time></trkpt><trkpt lat="40.6096633" lon="15.0873"><ele>87.0</ele><time>2026-03-28T13:38:46.482Z</time></trkpt><trkpt lat="40.6096833" lon="15.0869133"><ele>86.5</ele><time>2026-03-28T13:38:47.482Z</time></trkpt><trkpt lat="40.6097033" lon="15.0865233"><ele>86.0</ele><time>2026-03-28T13:38:48.481Z</time></trkpt><trkpt lat="40.609725" lon="15.086135"><ele>86.5</ele><time>2026-03-28T13:38:49.482Z</time></trkpt><trkpt lat="40.6097433" lon="15.0857467"><ele>87.0</ele><time>2026-03-28T13:38:50.481Z</time></trkpt><trkpt lat="40.6097667" lon="15.0853567"><ele>87.0</ele><time>2026-03-28T13:38:51.481Z</time></trkpt><trkpt lat="40.6097867" lon="15.0849683"><ele>87.0</ele><time>2026-03-28T13:38:52.482Z</time></trkpt><trkpt lat="40.609805" lon="15.084585"><ele>88.5</ele><time>2026-03-28T13:38:53.482Z</time></trkpt><trkpt lat="40.609825" lon="15.084195"><ele>90.0</ele><time>2026-03-28T13:38:54.482Z</time></trkpt><trkpt lat="40.6098417" lon="15.0838033"><ele>90.0</ele><time>2026-03-28T13:38:55.482Z</time></trkpt><trkpt lat="40.6098517" lon="15.0834133"><ele>90.0</ele><time>2026-03-28T13:38:56.482Z</time></trkpt><trkpt lat="40.6098567" lon="15.08302"><ele>90.5</ele><time>2026-03-28T13:38:57.482Z</time></trkpt><trkpt lat="40.60986" lon="15.08262"><ele>91.0</ele><time>2026-03-28T13:38:58.482Z</time></trkpt><trkpt lat="40.6098567" lon="15.08223"><ele>91.0</ele><time>2026-03-28T13:38:59.482Z</time></trkpt><trkpt lat="40.60985" lon="15.0818283"><ele>91.0</ele><time>2026-03-28T13:39:00.482Z</time></trkpt><trkpt lat="40.609835" lon="15.0814383"><ele>90.5</ele><time>2026-03-28T13:39:01.481Z</time></trkpt><trkpt lat="40.6098167" lon="15.08105"><ele>90.0</ele><time>2026-03-28T13:39:02.482Z</time></trkpt><trkpt lat="40.6097967" lon="15.0806533"><ele>89.5</ele><time>2026-03-28T13:39:03.481Z</time></trkpt><trkpt lat="40.6097667" lon="15.080275"><ele>89.0</ele><time>2026-03-28T13:39:04.482Z</time></trkpt><trkpt lat="40.6097283" lon="15.0798833"><ele>89.0</ele><time>2026-03-28T13:39:05.482Z</time></trkpt><trkpt lat="40.6096867" lon="15.07948"><ele>89.0</ele><time>2026-03-28T13:39:06.482Z</time></trkpt><trkpt lat="40.609635" lon="15.0790783"><ele>88.5</ele><time>2026-03-28T13:39:07.481Z</time></trkpt><trkpt lat="40.60958" lon="15.0786767"><ele>88.0</ele><time>2026-03-28T13:39:08.482Z</time></trkpt><trkpt lat="40.6095183" lon="15.0782867"><ele>85.0</ele><time>2026-03-28T13:39:09.482Z</time></trkpt><trkpt lat="40.60945" lon="15.0778933"><ele>82.0</ele><time>2026-03-28T13:39:10.482Z</time></trkpt><trkpt lat="40.60938" lon="15.0775"><ele>81.5</ele><time>2026-03-28T13:39:11.482Z</time></trkpt><trkpt lat="40.609305" lon="15.077105"><ele>81.0</ele><time>2026-03-28T13:39:12.481Z</time></trkpt><trkpt lat="40.6092317" lon="15.076705"><ele>81.0</ele><time>2026-03-28T13:39:13.481Z</time></trkpt><trkpt lat="40.609155" lon="15.076325"><ele>81.0</ele><time>2026-03-28T13:39:14.482Z</time></trkpt><trkpt lat="40.6090883" lon="15.0759483"><ele>80.5</ele><time>2026-03-28T13:39:15.481Z</time></trkpt><trkpt lat="40.609015" lon="15.0755717"><ele>80.0</ele><time>2026-03-28T13:39:16.481Z</time></trkpt><trkpt lat="40.6089433" lon="15.075195"><ele>80.0</ele><time>2026-03-28T13:39:17.481Z</time></trkpt><trkpt lat="40.608865" lon="15.07482"><ele>80.0</ele><time>2026-03-28T13:39:18.482Z</time></trkpt><trkpt lat="40.60879" lon="15.0744383"><ele>78.5</ele><time>2026-03-28T13:39:19.482Z</time></trkpt><trkpt lat="40.6087133" lon="15.0740567"><ele>77.0</ele><time>2026-03-28T13:39:20.481Z</time></trkpt><trkpt lat="40.6086417" lon="15.073685"><ele>76.5</ele><time>2026-03-28T13:39:21.482Z</time></trkpt><trkpt lat="40.6085767" lon="15.0733183"><ele>76.0</ele><time>2026-03-28T13:39:22.481Z</time></trkpt><trkpt lat="40.608505" lon="15.072955"><ele>76.0</ele><time>2026-03-28T13:39:23.482Z</time></trkpt><trkpt lat="40.6084367" lon="15.07259"><ele>76.0</ele><time>2026-03-28T13:39:24.482Z</time></trkpt><trkpt lat="40.6083767" lon="15.0722233"><ele>76.0</ele><time>2026-03-28T13:39:25.481Z</time></trkpt><trkpt lat="40.60831" lon="15.07186"><ele>76.0</ele><time>2026-03-28T13:39:26.482Z</time></trkpt><trkpt lat="40.6082517" lon="15.071485"><ele>74.5</ele><time>2026-03-28T13:39:27.482Z</time></trkpt><trkpt lat="40.6081933" lon="15.0711017"><ele>73.0</ele><time>2026-03-28T13:39:28.481Z</time></trkpt><trkpt lat="40.60814" lon="15.0707133"><ele>72.0</ele><time>2026-03-28T13:39:29.481Z</time></trkpt><trkpt lat="40.6080933" lon="15.07032"><ele>71.0</ele><time>2026-03-28T13:39:30.482Z</time></trkpt><trkpt lat="40.6080517" lon="15.0699383"><ele>71.0</ele><time>2026-03-28T13:39:31.481Z</time></trkpt><trkpt lat="40.6080167" lon="15.069555"><ele>71.0</ele><time>2026-03-28T13:39:32.482Z</time></trkpt><trkpt lat="40.6079867" lon="15.069175"><ele>71.0</ele><time>2026-03-28T13:39:33.481Z</time></trkpt><trkpt lat="40.6079583" lon="15.0687917"><ele>71.0</ele><time>2026-03-28T13:39:34.481Z</time></trkpt><trkpt lat="40.60793" lon="15.0684133"><ele>71.5</ele><time>2026-03-28T13:39:35.482Z</time></trkpt><trkpt lat="40.6079117" lon="15.0680433"><ele>72.0</ele><time>2026-03-28T13:39:36.482Z</time></trkpt><trkpt lat="40.6078933" lon="15.06769"><ele>73.5</ele><time>2026-03-28T13:39:37.482Z</time></trkpt><trkpt lat="40.6078767" lon="15.06733"><ele>75.0</ele><time>2026-03-28T13:39:38.482Z</time></trkpt><trkpt lat="40.6078617" lon="15.066965"><ele>74.0</ele><time>2026-03-28T13:39:39.482Z</time></trkpt><trkpt lat="40.6078483" lon="15.066595"><ele>73.0</ele><time>2026-03-28T13:39:40.482Z</time></trkpt><trkpt lat="40.6078383" lon="15.06622"><ele>73.0</ele><time>2026-03-28T13:39:41.481Z</time></trkpt><trkpt lat="40.6078333" lon="15.06584"><ele>73.0</ele><time>2026-03-28T13:39:42.481Z</time></trkpt><trkpt lat="40.6078317" lon="15.065455"><ele>73.0</ele><time>2026-03-28T13:39:43.482Z</time></trkpt><trkpt lat="40.6078367" lon="15.065065"><ele>73.0</ele><time>2026-03-28T13:39:44.481Z</time></trkpt><trkpt lat="40.6078417" lon="15.0646717"><ele>73.5</ele><time>2026-03-28T13:39:45.481Z</time></trkpt><trkpt lat="40.60784" lon="15.064275"><ele>74.0</ele><time>2026-03-28T13:39:46.482Z</time></trkpt><trkpt lat="40.6078433" lon="15.06388"><ele>75.0</ele><time>2026-03-28T13:39:47.482Z</time></trkpt><trkpt lat="40.60785" lon="15.0634933"><ele>76.0</ele><time>2026-03-28T13:39:48.482Z</time></trkpt><trkpt lat="40.60786" lon="15.0631117"><ele>76.5</ele><time>2026-03-28T13:39:49.483Z</time></trkpt><trkpt lat="40.60787" lon="15.06274"><ele>77.0</ele><time>2026-03-28T13:39:50.482Z</time></trkpt><trkpt lat="40.607875" lon="15.0623633"><ele>77.5</ele><time>2026-03-28T13:39:51.483Z</time></trkpt><trkpt lat="40.60788" lon="15.0619833"><ele>78.0</ele><time>2026-03-28T13:39:52.482Z</time></trkpt><trkpt lat="40.60788" lon="15.0616083"><ele>79.5</ele><time>2026-03-28T13:39:53.482Z</time></trkpt><trkpt lat="40.6078817" lon="15.0612367"><ele>81.0</ele><time>2026-03-28T13:39:54.483Z</time></trkpt><trkpt lat="40.6078817" lon="15.0608517"><ele>82.0</ele><time>2026-03-28T13:39:55.483Z</time></trkpt><trkpt lat="40.607885" lon="15.0604833"><ele>83.0</ele><time>2026-03-28T13:39:56.483Z</time></trkpt><trkpt lat="40.6078867" lon="15.0601183"><ele>82.5</ele><time>2026-03-28T13:39:57.483Z</time></trkpt><trkpt lat="40.60789" lon="15.059755"><ele>82.0</ele><time>2026-03-28T13:39:58.483Z</time></trkpt><trkpt lat="40.6078883" lon="15.0593967"><ele>82.5</ele><time>2026-03-28T13:39:59.483Z</time></trkpt><trkpt lat="40.607885" lon="15.0590367"><ele>83.0</ele><time>2026-03-28T13:40:00.483Z</time></trkpt><trkpt lat="40.6078833" lon="15.0586817"><ele>83.0</ele><time>2026-03-28T13:40:01.483Z</time></trkpt><trkpt lat="40.607885" lon="15.05833"><ele>83.0</ele><time>2026-03-28T13:40:02.483Z</time></trkpt><trkpt lat="40.60789" lon="15.0579783"><ele>83.0</ele><time>2026-03-28T13:40:03.482Z</time></trkpt><trkpt lat="40.6079033" lon="15.0576183"><ele>83.0</ele><time>2026-03-28T13:40:04.483Z</time></trkpt><trkpt lat="40.607905" lon="15.0572617"><ele>83.0</ele><time>2026-03-28T13:40:05.483Z</time></trkpt><trkpt lat="40.60791" lon="15.0569033"><ele>83.0</ele><time>2026-03-28T13:40:06.483Z</time></trkpt><trkpt lat="40.60791" lon="15.0565417"><ele>83.5</ele><time>2026-03-28T13:40:07.483Z</time></trkpt><trkpt lat="40.60791" lon="15.0561767"><ele>84.0</ele><time>2026-03-28T13:40:08.482Z</time></trkpt><trkpt lat="40.6079083" lon="15.0558167"><ele>83.5</ele><time>2026-03-28T13:40:09.483Z</time></trkpt><trkpt lat="40.6079067" lon="15.05546"><ele>83.0</ele><time>2026-03-28T13:40:10.482Z</time></trkpt><trkpt lat="40.6079017" lon="15.0550867"><ele>83.0</ele><time>2026-03-28T13:40:11.482Z</time></trkpt><trkpt lat="40.6079083" lon="15.05473"><ele>83.0</ele><time>2026-03-28T13:40:12.483Z</time></trkpt><trkpt lat="40.6079083" lon="15.05437"><ele>83.0</ele><time>2026-03-28T13:40:13.482Z</time></trkpt><trkpt lat="40.6079117" lon="15.054"><ele>83.0</ele><time>2026-03-28T13:40:14.482Z</time></trkpt><trkpt lat="40.6079167" lon="15.0536217"><ele>82.5</ele><time>2026-03-28T13:40:15.482Z</time></trkpt><trkpt lat="40.6079133" lon="15.0532517"><ele>82.0</ele><time>2026-03-28T13:40:16.483Z</time></trkpt><trkpt lat="40.60791" lon="15.0528983"><ele>82.0</ele><time>2026-03-28T13:40:17.483Z</time></trkpt><trkpt lat="40.607905" lon="15.0525417"><ele>82.0</ele><time>2026-03-28T13:40:18.483Z</time></trkpt><trkpt lat="40.6079067" lon="15.0521867"><ele>81.5</ele><time>2026-03-28T13:40:19.483Z</time></trkpt><trkpt lat="40.6079117" lon="15.051845"><ele>81.0</ele><time>2026-03-28T13:40:20.483Z</time></trkpt><trkpt lat="40.6079067" lon="15.0515067"><ele>80.0</ele><time>2026-03-28T13:40:21.482Z</time></trkpt><trkpt lat="40.6078967" lon="15.05117"><ele>79.0</ele><time>2026-03-28T13:40:22.483Z</time></trkpt><trkpt lat="40.6078933" lon="15.0508433"><ele>79.0</ele><time>2026-03-28T13:40:23.483Z</time></trkpt><trkpt lat="40.607885" lon="15.050515"><ele>79.0</ele><time>2026-03-28T13:40:24.482Z</time></trkpt><trkpt lat="40.607875" lon="15.0502133"><ele>79.0</ele><time>2026-03-28T13:40:25.483Z</time></trkpt><trkpt lat="40.60787" lon="15.0499217"><ele>79.0</ele><time>2026-03-28T13:40:26.483Z</time></trkpt><trkpt lat="40.6078617" lon="15.0496483"><ele>79.0</ele><time>2026-03-28T13:40:27.483Z</time></trkpt><trkpt lat="40.60785" lon="15.049395"><ele>79.0</ele><time>2026-03-28T13:40:28.483Z</time></trkpt><trkpt lat="40.6078433" lon="15.0491467"><ele>79.0</ele><time>2026-03-28T13:40:29.483Z</time></trkpt><trkpt lat="40.6078233" lon="15.0489"><ele>79.0</ele><time>2026-03-28T13:40:30.482Z</time></trkpt><trkpt lat="40.6077967" lon="15.0486683"><ele>78.33333333333333</ele><time>2026-03-28T13:40:31.482Z</time></trkpt><trkpt lat="40.6077667" lon="15.0484583"><ele>77.66666666666667</ele><time>2026-03-28T13:40:32.483Z</time></trkpt><trkpt lat="40.6077433" lon="15.048265"><ele>77.0</ele><time>2026-03-28T13:40:33.483Z</time></trkpt><trkpt lat="40.6077283" lon="15.0480783"><ele>77.0</ele><time>2026-03-28T13:40:34.483Z</time></trkpt><trkpt lat="40.6077167" lon="15.047895"><ele>77.0</ele><time>2026-03-28T13:40:35.482Z</time></trkpt><trkpt lat="40.6077117" lon="15.0477333"><ele>77.0</ele><time>2026-03-28T13:40:36.483Z</time></trkpt><trkpt lat="40.6077267" lon="15.0475817"><ele>77.0</ele><time>2026-03-28T13:40:37.483Z</time></trkpt><trkpt lat="40.6077583" lon="15.0474367"><ele>77.0</ele><time>2026-03-28T13:40:38.482Z</time></trkpt><trkpt lat="40.607815" lon="15.0473017"><ele>77.0</ele><time>2026-03-28T13:40:39.483Z</time></trkpt><trkpt lat="40.6078917" lon="15.0471817"><ele>77.0</ele><time>2026-03-28T13:40:40.482Z</time></trkpt><trkpt lat="40.6079833" lon="15.0470833"><ele>77.0</ele><time>2026-03-28T13:40:41.482Z</time></trkpt><trkpt lat="40.60808" lon="15.0469983"><ele>77.75</ele><time>2026-03-28T13:40:42.482Z</time></trkpt><trkpt lat="40.6081833" lon="15.0469133"><ele>78.5</ele><time>2026-03-28T13:40:43.482Z</time></trkpt><trkpt lat="40.608275" lon="15.0468233"><ele>79.25</ele><time>2026-03-28T13:40:44.483Z</time></trkpt><trkpt lat="40.6083483" lon="15.0467067"><ele>80.0</ele><time>2026-03-28T13:40:45.482Z</time></trkpt><trkpt lat="40.6083933" lon="15.0465767"><ele>80.4</ele><time>2026-03-28T13:40:46.482Z</time></trkpt><trkpt lat="40.6084083" lon="15.04644"><ele>80.8</ele><time>2026-03-28T13:40:47.482Z</time></trkpt><trkpt lat="40.608405" lon="15.0463017"><ele>81.19999999999999</ele><time>2026-03-28T13:40:48.483Z</time></trkpt><trkpt lat="40.6083717" lon="15.0461717"><ele>81.6</ele><time>2026-03-28T13:40:49.482Z</time></trkpt><trkpt lat="40.6083117" lon="15.046045"><ele>82.0</ele><time>2026-03-28T13:40:50.482Z</time></trkpt><trkpt lat="40.608235" lon="15.0459483"><ele>82.0</ele><time>2026-03-28T13:40:51.482Z</time></trkpt><trkpt lat="40.60814" lon="15.0458633"><ele>82.0</ele><time>2026-03-28T13:40:52.483Z</time></trkpt><trkpt lat="40.6080283" lon="15.0458233"><ele>82.0</ele><time>2026-03-28T13:40:53.483Z</time></trkpt><trkpt lat="40.60791" lon="15.0458067"><ele>82.0</ele><time>2026-03-28T13:40:54.482Z</time></trkpt><trkpt lat="40.6077667" lon="15.0458233"><ele>81.0</ele><time>2026-03-28T13:40:55.483Z</time></trkpt><trkpt lat="40.6076067" lon="15.0458583"><ele>80.0</ele><time>2026-03-28T13:40:56.482Z</time></trkpt><trkpt lat="40.6074783" lon="15.045895"><ele>79.0</ele><time>2026-03-28T13:40:57.483Z</time></trkpt><trkpt lat="40.607345" lon="15.045935"><ele>78.0</ele><time>2026-03-28T13:40:58.483Z</time></trkpt><trkpt lat="40.6072033" lon="15.045975"><ele>78.0</ele><time>2026-03-28T13:40:59.482Z</time></trkpt><trkpt lat="40.6070667" lon="15.0460167"><ele>78.0</ele><time>2026-03-28T13:41:00.482Z</time></trkpt><trkpt lat="40.6069333" lon="15.0460817"><ele>78.0</ele><time>2026-03-28T13:41:01.482Z</time></trkpt><trkpt lat="40.6068017" lon="15.04618"><ele>78.0</ele><time>2026-03-28T13:41:02.483Z</time></trkpt><trkpt lat="40.6066717" lon="15.0462967"><ele>77.33333333333333</ele><time>2026-03-28T13:41:03.482Z</time></trkpt><trkpt lat="40.6065483" lon="15.0464417"><ele>76.66666666666666</ele><time>2026-03-28T13:41:04.483Z</time></trkpt><trkpt lat="40.6064317" lon="15.0465917"><ele>76.0</ele><time>2026-03-28T13:41:05.482Z</time></trkpt><trkpt lat="40.6063233" lon="15.0467317"><ele>75.6</ele><time>2026-03-28T13:41:06.483Z</time></trkpt><trkpt lat="40.6062267" lon="15.0468567"><ele>75.19999999999999</ele><time>2026-03-28T13:41:07.482Z</time></trkpt><trkpt lat="40.60614" lon="15.0469633"><ele>74.80000000000001</ele><time>2026-03-28T13:41:08.483Z</time></trkpt><trkpt lat="40.6060717" lon="15.0470617"><ele>74.4</ele><time>2026-03-28T13:41:09.483Z</time></trkpt><trkpt lat="40.6060233" lon="15.0471583"><ele>74.0</ele><time>2026-03-28T13:41:10.483Z</time></trkpt><trkpt lat="40.6059933" lon="15.0472517"><ele>73.83333333333334</ele><time>2026-03-28T13:41:11.483Z</time></trkpt><trkpt lat="40.605965" lon="15.0473467"><ele>73.66666666666667</ele><time>2026-03-28T13:41:12.483Z</time></trkpt><trkpt lat="40.6059417" lon="15.047455"><ele>73.5</ele><time>2026-03-28T13:41:13.483Z</time></trkpt><trkpt lat="40.6059333" lon="15.04758"><ele>73.33333333333333</ele><time>2026-03-28T13:41:14.482Z</time></trkpt><trkpt lat="40.605925" lon="15.0476983"><ele>73.16666666666666</ele><time>2026-03-28T13:41:15.482Z</time></trkpt><trkpt lat="40.6059117" lon="15.0478167"><ele>73.0</ele><time>2026-03-28T13:41:16.482Z</time></trkpt><trkpt lat="40.6058933" lon="15.0479183"><ele>73.0</ele><time>2026-03-28T13:41:17.483Z</time></trkpt><trkpt lat="40.6058533" lon="15.0480067"><ele>73.0</ele><time>2026-03-28T13:41:18.482Z</time></trkpt><trkpt lat="40.6057967" lon="15.0480783"><ele>73.0</ele><time>2026-03-28T13:41:19.483Z</time></trkpt><trkpt lat="40.6057267" lon="15.0481317"><ele>73.0</ele><time>2026-03-28T13:41:20.483Z</time></trkpt><trkpt lat="40.6056483" lon="15.048165"><ele>73.0</ele><time>2026-03-28T13:41:21.482Z</time></trkpt><trkpt lat="40.6055467" lon="15.048195"><ele>73.0</ele><time>2026-03-28T13:41:22.482Z</time></trkpt><trkpt lat="40.6054383" lon="15.0482167"><ele>73.0</ele><time>2026-03-28T13:41:23.483Z</time></trkpt><trkpt lat="40.6053183" lon="15.0482417"><ele>73.0</ele><time>2026-03-28T13:41:24.483Z</time></trkpt><trkpt lat="40.6051933" lon="15.0482767"><ele>73.0</ele><time>2026-03-28T13:41:25.482Z</time></trkpt><trkpt lat="40.6050633" lon="15.048315"><ele>73.0</ele><time>2026-03-28T13:41:26.482Z</time></trkpt><trkpt lat="40.604935" lon="15.04835"><ele>72.75</ele><time>2026-03-28T13:41:27.482Z</time></trkpt><trkpt lat="40.604815" lon="15.0483717"><ele>72.5</ele><time>2026-03-28T13:41:28.483Z</time></trkpt><trkpt lat="40.6046933" lon="15.04839"><ele>72.25</ele><time>2026-03-28T13:41:29.482Z</time></trkpt><trkpt lat="40.6045767" lon="15.0484067"><ele>72.0</ele><time>2026-03-28T13:41:30.482Z</time></trkpt><trkpt lat="40.6044683" lon="15.0484217"><ele>72.0</ele><time>2026-03-28T13:41:31.483Z</time></trkpt><trkpt lat="40.6043633" lon="15.0484367"><ele>72.0</ele><time>2026-03-28T13:41:32.482Z</time></trkpt><trkpt lat="40.60426" lon="15.0484533"><ele>72.0</ele><time>2026-03-28T13:41:33.483Z</time></trkpt><trkpt lat="40.60416" lon="15.0484717"><ele>72.0</ele><time>2026-03-28T13:41:34.483Z</time></trkpt><trkpt lat="40.6040533" lon="15.0484867"><ele>72.0</ele><time>2026-03-28T13:41:35.483Z</time></trkpt><trkpt lat="40.6039383" lon="15.04851"><ele>72.0</ele><time>2026-03-28T13:41:36.483Z</time></trkpt><trkpt lat="40.6038117" lon="15.0485383"><ele>72.0</ele><time>2026-03-28T13:41:37.482Z</time></trkpt><trkpt lat="40.6036783" lon="15.04856"><ele>72.0</ele><time>2026-03-28T13:41:38.483Z</time></trkpt><trkpt lat="40.60354" lon="15.04859"><ele>72.0</ele><time>2026-03-28T13:41:39.482Z</time></trkpt><trkpt lat="40.6033883" lon="15.0486183"><ele>71.66666666666667</ele><time>2026-03-28T13:41:40.482Z</time></trkpt><trkpt lat="40.6032233" lon="15.0486483"><ele>71.33333333333334</ele><time>2026-03-28T13:41:41.483Z</time></trkpt><trkpt lat="40.603035" lon="15.0486767"><ele>71.0</ele><time>2026-03-28T13:41:42.483Z</time></trkpt><trkpt lat="40.60284" lon="15.0486917"><ele>69.66666666666667</ele><time>2026-03-28T13:41:43.483Z</time></trkpt><trkpt lat="40.6026483" lon="15.0487033"><ele>68.33333333333333</ele><time>2026-03-28T13:41:44.482Z</time></trkpt><trkpt lat="40.60246" lon="15.0487117"><ele>67.0</ele><time>2026-03-28T13:41:45.482Z</time></trkpt><trkpt lat="40.6022633" lon="15.0487017"><ele>67.0</ele><time>2026-03-28T13:41:46.483Z</time></trkpt><trkpt lat="40.6020633" lon="15.0486867"><ele>67.0</ele><time>2026-03-28T13:41:47.483Z</time></trkpt><trkpt lat="40.6018517" lon="15.0486683"><ele>67.0</ele><time>2026-03-28T13:41:48.482Z</time></trkpt><trkpt lat="40.60164" lon="15.04865"><ele>66.66666666666666</ele><time>2026-03-28T13:41:49.483Z</time></trkpt><trkpt lat="40.6014267" lon="15.0486383"><ele>66.33333333333333</ele><time>2026-03-28T13:41:50.483Z</time></trkpt><trkpt lat="40.6012133" lon="15.04864"><ele>66.0</ele><time>2026-03-28T13:41:51.483Z</time></trkpt><trkpt lat="40.600995" lon="15.048645"><ele>66.0</ele><time>2026-03-28T13:41:52.483Z</time></trkpt><trkpt lat="40.6007717" lon="15.0486583"><ele>66.0</ele><time>2026-03-28T13:41:53.483Z</time></trkpt><trkpt lat="40.600555" lon="15.048675"><ele>66.0</ele><time>2026-03-28T13:41:54.482Z</time></trkpt><trkpt lat="40.6003333" lon="15.0486933"><ele>65.33333333333333</ele><time>2026-03-28T13:41:55.483Z</time></trkpt><trkpt lat="40.60011" lon="15.0487067"><ele>64.66666666666666</ele><time>2026-03-28T13:41:56.483Z</time></trkpt><trkpt lat="40.5998933" lon="15.0487217"><ele>64.0</ele><time>2026-03-28T13:41:57.482Z</time></trkpt><trkpt lat="40.599675" lon="15.0487383"><ele>63.0</ele><time>2026-03-28T13:41:58.483Z</time></trkpt><trkpt lat="40.5994733" lon="15.0487433"><ele>62.0</ele><time>2026-03-28T13:41:59.483Z</time></trkpt><trkpt lat="40.5992667" lon="15.0487567"><ele>61.0</ele><time>2026-03-28T13:42:00.482Z</time></trkpt><trkpt lat="40.5990633" lon="15.0487667"><ele>61.0</ele><time>2026-03-28T13:42:01.482Z</time></trkpt><trkpt lat="40.598865" lon="15.0487783"><ele>61.0</ele><time>2026-03-28T13:42:02.483Z</time></trkpt><trkpt lat="40.5986667" lon="15.0487833"><ele>61.0</ele><time>2026-03-28T13:42:03.483Z</time></trkpt><trkpt lat="40.598465" lon="15.048805"><ele>60.33333333333333</ele><time>2026-03-28T13:42:04.482Z</time></trkpt><trkpt lat="40.5982667" lon="15.04883"><ele>59.66666666666667</ele><time>2026-03-28T13:42:05.483Z</time></trkpt><trkpt lat="40.598075" lon="15.0488633"><ele>59.0</ele><time>2026-03-28T13:42:06.483Z</time></trkpt><trkpt lat="40.5978867" lon="15.0489083"><ele>58.333333333333336</ele><time>2026-03-28T13:42:07.483Z</time></trkpt><trkpt lat="40.597695" lon="15.0489667"><ele>57.66666666666667</ele><time>2026-03-28T13:42:08.482Z</time></trkpt><trkpt lat="40.5974867" lon="15.0490417"><ele>57.0</ele><time>2026-03-28T13:42:09.482Z</time></trkpt><trkpt lat="40.59729" lon="15.0491017"><ele>57.33333333333333</ele><time>2026-03-28T13:42:10.483Z</time></trkpt><trkpt lat="40.5971033" lon="15.049155"><ele>57.666666666666664</ele><time>2026-03-28T13:42:11.483Z</time></trkpt><trkpt lat="40.5969233" lon="15.0492"><ele>58.0</ele><time>2026-03-28T13:42:12.482Z</time></trkpt><trkpt lat="40.5967583" lon="15.0492417"><ele>57.33333333333333</ele><time>2026-03-28T13:42:13.483Z</time></trkpt><trkpt lat="40.596595" lon="15.0492883"><ele>56.66666666666667</ele><time>2026-03-28T13:42:14.482Z</time></trkpt><trkpt lat="40.59643" lon="15.0493417"><ele>56.0</ele><time>2026-03-28T13:42:15.483Z</time></trkpt><trkpt lat="40.5962633" lon="15.0494067"><ele>55.66666666666667</ele><time>2026-03-28T13:42:16.482Z</time></trkpt><trkpt lat="40.5961067" lon="15.04947"><ele>55.33333333333333</ele><time>2026-03-28T13:42:17.482Z</time></trkpt><trkpt lat="40.59596" lon="15.049535"><ele>55.0</ele><time>2026-03-28T13:42:18.483Z</time></trkpt><trkpt lat="40.5958117" lon="15.04961"><ele>55.0</ele><time>2026-03-28T13:42:19.483Z</time></trkpt><trkpt lat="40.5956533" lon="15.04969"><ele>55.0</ele><time>2026-03-28T13:42:20.483Z</time></trkpt><trkpt lat="40.5954817" lon="15.04978"><ele>55.0</ele><time>2026-03-28T13:42:21.482Z</time></trkpt><trkpt lat="40.595305" lon="15.0498717"><ele>54.33333333333333</ele><time>2026-03-28T13:42:22.483Z</time></trkpt><trkpt lat="40.5951133" lon="15.0499433"><ele>53.66666666666667</ele><time>2026-03-28T13:42:23.482Z</time></trkpt><trkpt lat="40.5949283" lon="15.049995"><ele>53.0</ele><time>2026-03-28T13:42:24.482Z</time></trkpt><trkpt lat="40.5947517" lon="15.05003"><ele>53.0</ele><time>2026-03-28T13:42:25.482Z</time></trkpt><trkpt lat="40.5945733" lon="15.0500467"><ele>53.0</ele><time>2026-03-28T13:42:26.482Z</time></trkpt><trkpt lat="40.59439" lon="15.050045"><ele>53.0</ele><time>2026-03-28T13:42:27.482Z</time></trkpt><trkpt lat="40.5942017" lon="15.0500317"><ele>52.66666666666667</ele><time>2026-03-28T13:42:28.482Z</time></trkpt><trkpt lat="40.594025" lon="15.0500067"><ele>52.33333333333333</ele><time>2026-03-28T13:42:29.483Z</time></trkpt><trkpt lat="40.593855" lon="15.04997"><ele>52.0</ele><time>2026-03-28T13:42:30.482Z</time></trkpt><trkpt lat="40.593685" lon="15.049925"><ele>51.666666666666664</ele><time>2026-03-28T13:42:31.482Z</time></trkpt><trkpt lat="40.5935133" lon="15.049865"><ele>51.33333333333333</ele><time>2026-03-28T13:42:32.483Z</time></trkpt><trkpt lat="40.593355" lon="15.0497883"><ele>51.0</ele><time>2026-03-28T13:42:33.482Z</time></trkpt><trkpt lat="40.5932" lon="15.049695"><ele>51.0</ele><time>2026-03-28T13:42:34.483Z</time></trkpt><trkpt lat="40.5930417" lon="15.049595"><ele>51.0</ele><time>2026-03-28T13:42:35.482Z</time></trkpt><trkpt lat="40.5928767" lon="15.0494783"><ele>51.0</ele><time>2026-03-28T13:42:36.482Z</time></trkpt><trkpt lat="40.5927033" lon="15.0493617"><ele>50.66666666666667</ele><time>2026-03-28T13:42:37.482Z</time></trkpt><trkpt lat="40.5925233" lon="15.049255"><ele>50.333333333333336</ele><time>2026-03-28T13:42:38.482Z</time></trkpt><trkpt lat="40.5923383" lon="15.04916"><ele>50.0</ele><time>2026-03-28T13:42:39.482Z</time></trkpt><trkpt lat="40.5921517" lon="15.04908"><ele>49.66666666666667</ele><time>2026-03-28T13:42:40.482Z</time></trkpt><trkpt lat="40.5919583" lon="15.049015"><ele>49.33333333333333</ele><time>2026-03-28T13:42:41.483Z</time></trkpt><trkpt lat="40.5917617" lon="15.0489617"><ele>49.0</ele><time>2026-03-28T13:42:42.483Z</time></trkpt><trkpt lat="40.591565" lon="15.04892"><ele>49.0</ele><time>2026-03-28T13:42:43.483Z</time></trkpt><trkpt lat="40.5913667" lon="15.0488833"><ele>49.0</ele><time>2026-03-28T13:42:44.483Z</time></trkpt><trkpt lat="40.5911717" lon="15.0488383"><ele>49.0</ele><time>2026-03-28T13:42:45.482Z</time></trkpt><trkpt lat="40.5909767" lon="15.048795"><ele>48.666666666666664</ele><time>2026-03-28T13:42:46.483Z</time></trkpt><trkpt lat="40.5907767" lon="15.0487517"><ele>48.33333333333333</ele><time>2026-03-28T13:42:47.482Z</time></trkpt><trkpt lat="40.5905783" lon="15.0487117"><ele>48.0</ele><time>2026-03-28T13:42:48.483Z</time></trkpt><trkpt lat="40.5903783" lon="15.04867"><ele>47.333333333333336</ele><time>2026-03-28T13:42:49.483Z</time></trkpt><trkpt lat="40.5901767" lon="15.0486267"><ele>46.66666666666667</ele><time>2026-03-28T13:42:50.482Z</time></trkpt><trkpt lat="40.589975" lon="15.0485733"><ele>46.0</ele><time>2026-03-28T13:42:51.482Z</time></trkpt><trkpt lat="40.589775" lon="15.0485183"><ele>46.0</ele><time>2026-03-28T13:42:52.483Z</time></trkpt><trkpt lat="40.58958" lon="15.0484633"><ele>46.0</ele><time>2026-03-28T13:42:53.483Z</time></trkpt><trkpt lat="40.5893817" lon="15.0484033"><ele>46.0</ele><time>2026-03-28T13:42:54.482Z</time></trkpt><trkpt lat="40.5891817" lon="15.048345"><ele>45.66666666666667</ele><time>2026-03-28T13:42:55.483Z</time></trkpt><trkpt lat="40.58898" lon="15.0482867"><ele>45.333333333333336</ele><time>2026-03-28T13:42:56.483Z</time></trkpt><trkpt lat="40.58878" lon="15.04823"><ele>45.0</ele><time>2026-03-28T13:42:57.482Z</time></trkpt><trkpt lat="40.5885917" lon="15.0481783"><ele>44.333333333333336</ele><time>2026-03-28T13:42:58.483Z</time></trkpt><trkpt lat="40.5884067" lon="15.0481233"><ele>43.66666666666667</ele><time>2026-03-28T13:42:59.483Z</time></trkpt><trkpt lat="40.58822" lon="15.0480733"><ele>43.0</ele><time>2026-03-28T13:43:00.483Z</time></trkpt><trkpt lat="40.58804" lon="15.048025"><ele>43.0</ele><time>2026-03-28T13:43:01.482Z</time></trkpt><trkpt lat="40.5878667" lon="15.0479767"><ele>43.0</ele><time>2026-03-28T13:43:02.483Z</time></trkpt><trkpt lat="40.5877017" lon="15.04793"><ele>43.0</ele><time>2026-03-28T13:43:03.483Z</time></trkpt><trkpt lat="40.58754" lon="15.0478817"><ele>43.333333333333336</ele><time>2026-03-28T13:43:04.482Z</time></trkpt><trkpt lat="40.5873817" lon="15.0478283"><ele>43.666666666666664</ele><time>2026-03-28T13:43:05.482Z</time></trkpt><trkpt lat="40.5872167" lon="15.0477767"><ele>44.0</ele><time>2026-03-28T13:43:06.483Z</time></trkpt><trkpt lat="40.5870517" lon="15.047725"><ele>43.666666666666664</ele><time>2026-03-28T13:43:07.483Z</time></trkpt><trkpt lat="40.5868817" lon="15.0476717"><ele>43.333333333333336</ele><time>2026-03-28T13:43:08.482Z</time></trkpt><trkpt lat="40.5867133" lon="15.0476233"><ele>43.0</ele><time>2026-03-28T13:43:09.482Z</time></trkpt><trkpt lat="40.5865517" lon="15.0475917"><ele>43.0</ele><time>2026-03-28T13:43:10.483Z</time></trkpt><trkpt lat="40.586395" lon="15.0475767"><ele>43.0</ele><time>2026-03-28T13:43:11.483Z</time></trkpt><trkpt lat="40.5862417" lon="15.0475817"><ele>43.0</ele><time>2026-03-28T13:43:12.483Z</time></trkpt><trkpt lat="40.5860817" lon="15.0476083"><ele>43.0</ele><time>2026-03-28T13:43:13.483Z</time></trkpt><trkpt lat="40.58592" lon="15.047645"><ele>43.0</ele><time>2026-03-28T13:43:14.483Z</time></trkpt><trkpt lat="40.585755" lon="15.0476917"><ele>43.0</ele><time>2026-03-28T13:43:15.483Z</time></trkpt><trkpt lat="40.585585" lon="15.0477367"><ele>43.0</ele><time>2026-03-28T13:43:16.483Z</time></trkpt><trkpt lat="40.5854133" lon="15.0477883"><ele>43.0</ele><time>2026-03-28T13:43:17.483Z</time></trkpt><trkpt lat="40.5852467" lon="15.047835"><ele>43.0</ele><time>2026-03-28T13:43:18.482Z</time></trkpt><trkpt lat="40.5850833" lon="15.047875"><ele>42.66666666666667</ele><time>2026-03-28T13:43:19.483Z</time></trkpt><trkpt lat="40.5849283" lon="15.047925"><ele>42.333333333333336</ele><time>2026-03-28T13:43:20.483Z</time></trkpt><trkpt lat="40.58477" lon="15.04798"><ele>42.0</ele><time>2026-03-28T13:43:21.483Z</time></trkpt><trkpt lat="40.5846133" lon="15.0480417"><ele>42.0</ele><time>2026-03-28T13:43:22.483Z</time></trkpt><trkpt lat="40.58446" lon="15.04811"><ele>42.0</ele><time>2026-03-28T13:43:23.483Z</time></trkpt><trkpt lat="40.5843" lon="15.0481783"><ele>42.0</ele><time>2026-03-28T13:43:24.482Z</time></trkpt><trkpt lat="40.5841367" lon="15.0482483"><ele>41.333333333333336</ele><time>2026-03-28T13:43:25.482Z</time></trkpt><trkpt lat="40.5839717" lon="15.0483217"><ele>40.66666666666667</ele><time>2026-03-28T13:43:26.483Z</time></trkpt><trkpt lat="40.5837967" lon="15.048385"><ele>40.0</ele><time>2026-03-28T13:43:27.483Z</time></trkpt><trkpt lat="40.5836133" lon="15.048455"><ele>40.0</ele><time>2026-03-28T13:43:28.482Z</time></trkpt><trkpt lat="40.5834417" lon="15.0485317"><ele>40.0</ele><time>2026-03-28T13:43:29.483Z</time></trkpt><trkpt lat="40.5832833" lon="15.0486017"><ele>40.0</ele><time>2026-03-28T13:43:30.482Z</time></trkpt><trkpt lat="40.5831283" lon="15.0486717"><ele>40.0</ele><time>2026-03-28T13:43:31.482Z</time></trkpt><trkpt lat="40.5829767" lon="15.0487333"><ele>40.0</ele><time>2026-03-28T13:43:32.482Z</time></trkpt><trkpt lat="40.5828333" lon="15.048795"><ele>40.0</ele><time>2026-03-28T13:43:33.482Z</time></trkpt><trkpt lat="40.5826883" lon="15.048855"><ele>39.75</ele><time>2026-03-28T13:43:34.483Z</time></trkpt><trkpt lat="40.582545" lon="15.0489067"><ele>39.5</ele><time>2026-03-28T13:43:35.482Z</time></trkpt><trkpt lat="40.5824083" lon="15.0489467"><ele>39.25</ele><time>2026-03-28T13:43:36.483Z</time></trkpt><trkpt lat="40.582275" lon="15.0490017"><ele>39.0</ele><time>2026-03-28T13:43:37.483Z</time></trkpt><trkpt lat="40.58215" lon="15.0490517"><ele>39.0</ele><time>2026-03-28T13:43:38.483Z</time></trkpt><trkpt lat="40.5820333" lon="15.0490967"><ele>39.0</ele><time>2026-03-28T13:43:39.483Z</time></trkpt><trkpt lat="40.581925" lon="15.0491383"><ele>39.0</ele><time>2026-03-28T13:43:40.483Z</time></trkpt><trkpt lat="40.581815" lon="15.0491633"><ele>39.0</ele><time>2026-03-28T13:43:41.483Z</time></trkpt><trkpt lat="40.5817117" lon="15.0491833"><ele>38.5</ele><time>2026-03-28T13:43:42.482Z</time></trkpt><trkpt lat="40.581605" lon="15.0491983"><ele>38.0</ele><time>2026-03-28T13:43:43.483Z</time></trkpt><trkpt lat="40.58149" lon="15.0492083"><ele>37.5</ele><time>2026-03-28T13:43:44.482Z</time></trkpt><trkpt lat="40.581365" lon="15.049225"><ele>37.0</ele><time>2026-03-28T13:43:45.483Z</time></trkpt><trkpt lat="40.5812333" lon="15.049235"><ele>37.5</ele><time>2026-03-28T13:43:46.482Z</time></trkpt><trkpt lat="40.5810967" lon="15.049255"><ele>38.0</ele><time>2026-03-28T13:43:47.483Z</time></trkpt><trkpt lat="40.5809567" lon="15.0492667"><ele>38.5</ele><time>2026-03-28T13:43:48.483Z</time></trkpt><trkpt lat="40.5808167" lon="15.0492733"><ele>39.0</ele><time>2026-03-28T13:43:49.482Z</time></trkpt><trkpt lat="40.5806717" lon="15.0492767"><ele>39.0</ele><time>2026-03-28T13:43:50.482Z</time></trkpt><trkpt lat="40.5805217" lon="15.049275"><ele>39.0</ele><time>2026-03-28T13:43:51.483Z</time></trkpt><trkpt lat="40.58037" lon="15.04927"><ele>39.0</ele><time>2026-03-28T13:43:52.483Z</time></trkpt><trkpt lat="40.5802183" lon="15.0492583"><ele>39.25</ele><time>2026-03-28T13:43:53.482Z</time></trkpt><trkpt lat="40.5800683" lon="15.0492333"><ele>39.5</ele><time>2026-03-28T13:43:54.482Z</time></trkpt><trkpt lat="40.579925" lon="15.0492067"><ele>39.75</ele><time>2026-03-28T13:43:55.482Z</time></trkpt><trkpt lat="40.57979" lon="15.049175"><ele>40.0</ele><time>2026-03-28T13:43:56.482Z</time></trkpt><trkpt lat="40.5796583" lon="15.0491267"><ele>40.25</ele><time>2026-03-28T13:43:57.483Z</time></trkpt><trkpt lat="40.5795283" lon="15.0490617"><ele>40.5</ele><time>2026-03-28T13:43:58.483Z</time></trkpt><trkpt lat="40.5793983" lon="15.0489733"><ele>40.75</ele><time>2026-03-28T13:43:59.483Z</time></trkpt><trkpt lat="40.57927" lon="15.0488683"><ele>41.0</ele><time>2026-03-28T13:44:00.482Z</time></trkpt><trkpt lat="40.5791367" lon="15.04874"><ele>42.0</ele><time>2026-03-28T13:44:01.482Z</time></trkpt><trkpt lat="40.5790083" lon="15.0486067"><ele>43.0</ele><time>2026-03-28T13:44:02.482Z</time></trkpt><trkpt lat="40.57889" lon="15.0484783"><ele>44.0</ele><time>2026-03-28T13:44:03.483Z</time></trkpt><trkpt lat="40.5787783" lon="15.0483367"><ele>44.0</ele><time>2026-03-28T13:44:04.483Z</time></trkpt><trkpt lat="40.5786667" lon="15.048195"><ele>44.0</ele><time>2026-03-28T13:44:05.483Z</time></trkpt><trkpt lat="40.5785583" lon="15.0480517"><ele>44.0</ele><time>2026-03-28T13:44:06.482Z</time></trkpt><trkpt lat="40.57845" lon="15.04791"><ele>44.0</ele><time>2026-03-28T13:44:07.482Z</time></trkpt><trkpt lat="40.5783417" lon="15.047775"><ele>44.0</ele><time>2026-03-28T13:44:08.483Z</time></trkpt><trkpt lat="40.5782283" lon="15.0476483"><ele>44.0</ele><time>2026-03-28T13:44:09.482Z</time></trkpt><trkpt lat="40.57811" lon="15.0475317"><ele>44.0</ele><time>2026-03-28T13:44:10.482Z</time></trkpt><trkpt lat="40.5779833" lon="15.0474317"><ele>44.0</ele><time>2026-03-28T13:44:11.483Z</time></trkpt><trkpt lat="40.5778467" lon="15.0473533"><ele>44.0</ele><time>2026-03-28T13:44:12.482Z</time></trkpt><trkpt lat="40.5777017" lon="15.0472867"><ele>44.0</ele><time>2026-03-28T13:44:13.483Z</time></trkpt><trkpt lat="40.5775467" lon="15.047225"><ele>44.0</ele><time>2026-03-28T13:44:14.483Z</time></trkpt><trkpt lat="40.5773867" lon="15.0471667"><ele>44.0</ele><time>2026-03-28T13:44:15.483Z</time></trkpt><trkpt lat="40.5772333" lon="15.0471117"><ele>44.0</ele><time>2026-03-28T13:44:16.483Z</time></trkpt><trkpt lat="40.577085" lon="15.04706"><ele>44.0</ele><time>2026-03-28T13:44:17.483Z</time></trkpt><trkpt lat="40.57694" lon="15.047005"><ele>44.0</ele><time>2026-03-28T13:44:18.483Z</time></trkpt><trkpt lat="40.5767967" lon="15.0469533"><ele>44.0</ele><time>2026-03-28T13:44:19.483Z</time></trkpt><trkpt lat="40.57666" lon="15.0469017"><ele>44.0</ele><time>2026-03-28T13:44:20.483Z</time></trkpt><trkpt lat="40.57652" lon="15.0468517"><ele>44.0</ele><time>2026-03-28T13:44:21.482Z</time></trkpt><trkpt lat="40.5763783" lon="15.0468"><ele>44.0</ele><time>2026-03-28T13:44:22.482Z</time></trkpt><trkpt lat="40.576235" lon="15.0467467"><ele>44.0</ele><time>2026-03-28T13:44:23.483Z</time></trkpt><trkpt lat="40.5760917" lon="15.046685"><ele>44.0</ele><time>2026-03-28T13:44:24.482Z</time></trkpt><trkpt lat="40.575955" lon="15.046625"><ele>43.75</ele><time>2026-03-28T13:44:25.482Z</time></trkpt><trkpt lat="40.5758267" lon="15.0465567"><ele>43.5</ele><time>2026-03-28T13:44:26.483Z</time></trkpt><trkpt lat="40.5757017" lon="15.0464733"><ele>43.25</ele><time>2026-03-28T13:44:27.483Z</time></trkpt><trkpt lat="40.575575" lon="15.0463833"><ele>43.0</ele><time>2026-03-28T13:44:28.483Z</time></trkpt><trkpt lat="40.5754433" lon="15.04629"><ele>43.333333333333336</ele><time>2026-03-28T13:44:29.483Z</time></trkpt><trkpt lat="40.575305" lon="15.0462033"><ele>43.666666666666664</ele><time>2026-03-28T13:44:30.483Z</time></trkpt><trkpt lat="40.575165" lon="15.046125"><ele>44.0</ele><time>2026-03-28T13:44:31.483Z</time></trkpt><trkpt lat="40.5750217" lon="15.04606"><ele>44.0</ele><time>2026-03-28T13:44:32.483Z</time></trkpt><trkpt lat="40.5748767" lon="15.046"><ele>44.0</ele><time>2026-03-28T13:44:33.482Z</time></trkpt><trkpt lat="40.574725" lon="15.045945"><ele>44.0</ele><time>2026-03-28T13:44:34.482Z</time></trkpt><trkpt lat="40.57457" lon="15.0458933"><ele>44.0</ele><time>2026-03-28T13:44:35.482Z</time></trkpt><trkpt lat="40.57441" lon="15.0458383"><ele>44.0</ele><time>2026-03-28T13:44:36.482Z</time></trkpt><trkpt lat="40.5742533" lon="15.0457917"><ele>44.0</ele><time>2026-03-28T13:44:37.483Z</time></trkpt><trkpt lat="40.5741067" lon="15.0457483"><ele>44.0</ele><time>2026-03-28T13:44:38.482Z</time></trkpt><trkpt lat="40.5739633" lon="15.0457017"><ele>44.0</ele><time>2026-03-28T13:44:39.483Z</time></trkpt><trkpt lat="40.5738167" lon="15.0456567"><ele>44.0</ele><time>2026-03-28T13:44:40.483Z</time></trkpt><trkpt lat="40.5736683" lon="15.0456067"><ele>43.75</ele><time>2026-03-28T13:44:41.482Z</time></trkpt><trkpt lat="40.57352" lon="15.04556"><ele>43.5</ele><time>2026-03-28T13:44:42.483Z</time></trkpt><trkpt lat="40.5733783" lon="15.045515"><ele>43.25</ele><time>2026-03-28T13:44:43.483Z</time></trkpt><trkpt lat="40.5732367" lon="15.0454733"><ele>43.0</ele><time>2026-03-28T13:44:44.483Z</time></trkpt><trkpt lat="40.5730933" lon="15.04543"><ele>43.0</ele><time>2026-03-28T13:44:45.482Z</time></trkpt><trkpt lat="40.5729467" lon="15.045385"><ele>43.0</ele><time>2026-03-28T13:44:46.483Z</time></trkpt><trkpt lat="40.5727983" lon="15.0453367"><ele>43.0</ele><time>2026-03-28T13:44:47.482Z</time></trkpt><trkpt lat="40.5726467" lon="15.0452883"><ele>43.333333333333336</ele><time>2026-03-28T13:44:48.483Z</time></trkpt><trkpt lat="40.5724883" lon="15.0452367"><ele>43.666666666666664</ele><time>2026-03-28T13:44:49.483Z</time></trkpt><trkpt lat="40.572315" lon="15.0451883"><ele>44.0</ele><time>2026-03-28T13:44:50.483Z</time></trkpt><trkpt lat="40.5721283" lon="15.0451433"><ele>43.666666666666664</ele><time>2026-03-28T13:44:51.483Z</time></trkpt><trkpt lat="40.5719383" lon="15.0451"><ele>43.333333333333336</ele><time>2026-03-28T13:44:52.482Z</time></trkpt><trkpt lat="40.57176" lon="15.0450617"><ele>43.0</ele><time>2026-03-28T13:44:53.482Z</time></trkpt><trkpt lat="40.5715883" lon="15.0450267"><ele>43.0</ele><time>2026-03-28T13:44:54.483Z</time></trkpt><trkpt lat="40.57143" lon="15.0449967"><ele>43.0</ele><time>2026-03-28T13:44:55.483Z</time></trkpt><trkpt lat="40.5712767" lon="15.0449767"><ele>43.0</ele><time>2026-03-28T13:44:56.483Z</time></trkpt><trkpt lat="40.571125" lon="15.044955"><ele>42.5</ele><time>2026-03-28T13:44:57.482Z</time></trkpt><trkpt lat="40.57098" lon="15.04493"><ele>42.0</ele><time>2026-03-28T13:44:58.483Z</time></trkpt><trkpt lat="40.5708367" lon="15.0449117"><ele>41.5</ele><time>2026-03-28T13:44:59.483Z</time></trkpt><trkpt lat="40.5706917" lon="15.0448917"><ele>41.0</ele><time>2026-03-28T13:45:00.483Z</time></trkpt><trkpt lat="40.57055" lon="15.0448667"><ele>41.0</ele><time>2026-03-28T13:45:01.483Z</time></trkpt><trkpt lat="40.570405" lon="15.04484"><ele>41.0</ele><time>2026-03-28T13:45:02.482Z</time></trkpt><trkpt lat="40.570255" lon="15.0448217"><ele>41.0</ele><time>2026-03-28T13:45:03.482Z</time></trkpt><trkpt lat="40.57011" lon="15.0448033"><ele>41.0</ele><time>2026-03-28T13:45:04.483Z</time></trkpt><trkpt lat="40.5699667" lon="15.04479"><ele>41.25</ele><time>2026-03-28T13:45:05.482Z</time></trkpt><trkpt lat="40.5698167" lon="15.044765"><ele>41.5</ele><time>2026-03-28T13:45:06.483Z</time></trkpt><trkpt lat="40.5696683" lon="15.0447433"><ele>41.75</ele><time>2026-03-28T13:45:07.483Z</time></trkpt><trkpt lat="40.56953" lon="15.04473"><ele>42.0</ele><time>2026-03-28T13:45:08.482Z</time></trkpt><trkpt lat="40.5694033" lon="15.0447133"><ele>42.25</ele><time>2026-03-28T13:45:09.483Z</time></trkpt><trkpt lat="40.569285" lon="15.0447"><ele>42.5</ele><time>2026-03-28T13:45:10.482Z</time></trkpt><trkpt lat="40.5691617" lon="15.04469"><ele>42.75</ele><time>2026-03-28T13:45:11.482Z</time></trkpt><trkpt lat="40.5690283" lon="15.0446783"><ele>43.0</ele><time>2026-03-28T13:45:12.483Z</time></trkpt><trkpt lat="40.5688917" lon="15.0446717"><ele>43.0</ele><time>2026-03-28T13:45:13.483Z</time></trkpt><trkpt lat="40.56876" lon="15.0446633"><ele>43.0</ele><time>2026-03-28T13:45:14.483Z</time></trkpt><trkpt lat="40.5686217" lon="15.0446567"><ele>43.0</ele><time>2026-03-28T13:45:15.482Z</time></trkpt><trkpt lat="40.56847" lon="15.0446533"><ele>43.0</ele><time>2026-03-28T13:45:16.482Z</time></trkpt><trkpt lat="40.5683117" lon="15.0446433"><ele>43.0</ele><time>2026-03-28T13:45:17.483Z</time></trkpt><trkpt lat="40.5681383" lon="15.0446467"><ele>43.0</ele><time>2026-03-28T13:45:18.483Z</time></trkpt><trkpt lat="40.5679533" lon="15.0446483"><ele>43.0</ele><time>2026-03-28T13:45:19.482Z</time></trkpt><trkpt lat="40.56776" lon="15.0446417"><ele>43.0</ele><time>2026-03-28T13:45:20.483Z</time></trkpt><trkpt lat="40.5675717" lon="15.04463"><ele>43.0</ele><time>2026-03-28T13:45:21.483Z</time></trkpt><trkpt lat="40.5673867" lon="15.04462"><ele>43.0</ele><time>2026-03-28T13:45:22.483Z</time></trkpt><trkpt lat="40.567215" lon="15.0446067"><ele>43.0</ele><time>2026-03-28T13:45:23.482Z</time></trkpt><trkpt lat="40.5670433" lon="15.0445933"><ele>43.0</ele><time>2026-03-28T13:45:24.483Z</time></trkpt><trkpt lat="40.5668833" lon="15.0445867"><ele>43.0</ele><time>2026-03-28T13:45:25.483Z</time></trkpt><trkpt lat="40.5667283" lon="15.044575"><ele>43.0</ele><time>2026-03-28T13:45:26.483Z</time></trkpt><trkpt lat="40.5665717" lon="15.0445683"><ele>43.0</ele><time>2026-03-28T13:45:27.483Z</time></trkpt><trkpt lat="40.5664167" lon="15.04456"><ele>43.0</ele><time>2026-03-28T13:45:28.483Z</time></trkpt><trkpt lat="40.56626" lon="15.0445533"><ele>43.0</ele><time>2026-03-28T13:45:29.482Z</time></trkpt><trkpt lat="40.566105" lon="15.0445433"><ele>43.0</ele><time>2026-03-28T13:45:30.483Z</time></trkpt><trkpt lat="40.5659483" lon="15.0445417"><ele>43.0</ele><time>2026-03-28T13:45:31.483Z</time></trkpt><trkpt lat="40.5657817" lon="15.044545"><ele>43.0</ele><time>2026-03-28T13:45:32.483Z</time></trkpt><trkpt lat="40.56562" lon="15.04455"><ele>43.0</ele><time>2026-03-28T13:45:33.483Z</time></trkpt><trkpt lat="40.56546" lon="15.0445617"><ele>43.0</ele><time>2026-03-28T13:45:34.482Z</time></trkpt><trkpt lat="40.565305" lon="15.0445767"><ele>42.5</ele><time>2026-03-28T13:45:35.483Z</time></trkpt><trkpt lat="40.565155" lon="15.0445917"><ele>42.0</ele><time>2026-03-28T13:45:36.482Z</time></trkpt><trkpt lat="40.5650067" lon="15.0446"><ele>41.5</ele><time>2026-03-28T13:45:37.483Z</time></trkpt><trkpt lat="40.56486" lon="15.0446117"><ele>41.0</ele><time>2026-03-28T13:45:38.483Z</time></trkpt><trkpt lat="40.5647183" lon="15.0446233"><ele>41.0</ele><time>2026-03-28T13:45:39.482Z</time></trkpt><trkpt lat="40.56458" lon="15.0446317"><ele>41.0</ele><time>2026-03-28T13:45:40.482Z</time></trkpt><trkpt lat="40.5644383" lon="15.0446517"><ele>41.0</ele><time>2026-03-28T13:45:41.482Z</time></trkpt><trkpt lat="40.5642983" lon="15.0446633"><ele>41.0</ele><time>2026-03-28T13:45:42.482Z</time></trkpt><trkpt lat="40.5641517" lon="15.0446817"><ele>41.33333333333333</ele><time>2026-03-28T13:45:43.482Z</time></trkpt><trkpt lat="40.5640017" lon="15.0446967"><ele>41.666666666666664</ele><time>2026-03-28T13:45:44.483Z</time></trkpt><trkpt lat="40.5638483" lon="15.044715"><ele>42.0</ele><time>2026-03-28T13:45:45.483Z</time></trkpt><trkpt lat="40.5636983" lon="15.044735"><ele>42.25</ele><time>2026-03-28T13:45:46.482Z</time></trkpt><trkpt lat="40.5635583" lon="15.0447467"><ele>42.5</ele><time>2026-03-28T13:45:47.483Z</time></trkpt><trkpt lat="40.5634117" lon="15.0447583"><ele>42.75</ele><time>2026-03-28T13:45:48.483Z</time></trkpt><trkpt lat="40.56326" lon="15.0447683"><ele>43.0</ele><time>2026-03-28T13:45:49.483Z</time></trkpt><trkpt lat="40.5631167" lon="15.0447683"><ele>43.0</ele><time>2026-03-28T13:45:50.483Z</time></trkpt><trkpt lat="40.5629783" lon="15.0447567"><ele>43.0</ele><time>2026-03-28T13:45:51.483Z</time></trkpt><trkpt lat="40.5628367" lon="15.044735"><ele>43.0</ele><time>2026-03-28T13:45:52.483Z</time></trkpt><trkpt lat="40.5626967" lon="15.0447083"><ele>43.0</ele><time>2026-03-28T13:45:53.482Z</time></trkpt><trkpt lat="40.5625567" lon="15.044665"><ele>42.66666666666667</ele><time>2026-03-28T13:45:54.483Z</time></trkpt><trkpt lat="40.5624117" lon="15.0446183"><ele>42.333333333333336</ele><time>2026-03-28T13:45:55.482Z</time></trkpt><trkpt lat="40.562265" lon="15.0445617"><ele>42.0</ele><time>2026-03-28T13:45:56.483Z</time></trkpt><trkpt lat="40.5621017" lon="15.0444967"><ele>42.0</ele><time>2026-03-28T13:45:57.483Z</time></trkpt><trkpt lat="40.561935" lon="15.0444333"><ele>42.0</ele><time>2026-03-28T13:45:58.483Z</time></trkpt><trkpt lat="40.5617633" lon="15.0443617"><ele>42.0</ele><time>2026-03-28T13:45:59.482Z</time></trkpt><trkpt lat="40.561585" lon="15.0442917"><ele>42.0</ele><time>2026-03-28T13:46:00.482Z</time></trkpt><trkpt lat="40.56142" lon="15.04422"><ele>42.0</ele><time>2026-03-28T13:46:01.483Z</time></trkpt><trkpt lat="40.5612717" lon="15.0441583"><ele>42.0</ele><time>2026-03-28T13:46:02.483Z</time></trkpt><trkpt lat="40.5611317" lon="15.0441033"><ele>41.25</ele><time>2026-03-28T13:46:03.482Z</time></trkpt><trkpt lat="40.5610017" lon="15.0440467"><ele>40.5</ele><time>2026-03-28T13:46:04.483Z</time></trkpt><trkpt lat="40.5608783" lon="15.0439933"><ele>39.75</ele><time>2026-03-28T13:46:05.483Z</time></trkpt><trkpt lat="40.5607433" lon="15.0439217"><ele>39.0</ele><time>2026-03-28T13:46:06.482Z</time></trkpt><trkpt lat="40.560595" lon="15.0438383"><ele>39.0</ele><time>2026-03-28T13:46:07.483Z</time></trkpt><trkpt lat="40.5604533" lon="15.0437467"><ele>39.0</ele><time>2026-03-28T13:46:08.482Z</time></trkpt><trkpt lat="40.5603133" lon="15.043645"><ele>39.0</ele><time>2026-03-28T13:46:09.483Z</time></trkpt><trkpt lat="40.5601733" lon="15.0435433"><ele>38.333333333333336</ele><time>2026-03-28T13:46:10.483Z</time></trkpt><trkpt lat="40.5600367" lon="15.0434317"><ele>37.66666666666667</ele><time>2026-03-28T13:46:11.483Z</time></trkpt><trkpt lat="40.5599033" lon="15.0433217"><ele>37.0</ele><time>2026-03-28T13:46:12.482Z</time></trkpt><trkpt lat="40.5597717" lon="15.0432067"><ele>36.333333333333336</ele><time>2026-03-28T13:46:13.482Z</time></trkpt><trkpt lat="40.5596367" lon="15.043085"><ele>35.666666666666664</ele><time>2026-03-28T13:46:14.482Z</time></trkpt><trkpt lat="40.5594717" lon="15.0429633"><ele>35.0</ele><time>2026-03-28T13:46:15.483Z</time></trkpt><trkpt lat="40.55928" lon="15.0428283"><ele>34.0</ele><time>2026-03-28T13:46:16.482Z</time></trkpt><trkpt lat="40.55908" lon="15.04268"><ele>33.0</ele><time>2026-03-28T13:46:17.483Z</time></trkpt><trkpt lat="40.5588883" lon="15.0425383"><ele>32.0</ele><time>2026-03-28T13:46:18.482Z</time></trkpt><trkpt lat="40.5586917" lon="15.0424"><ele>32.0</ele><time>2026-03-28T13:46:19.483Z</time></trkpt><trkpt lat="40.558495" lon="15.04226"><ele>32.0</ele><time>2026-03-28T13:46:20.483Z</time></trkpt><trkpt lat="40.5583117" lon="15.0421217"><ele>32.0</ele><time>2026-03-28T13:46:21.482Z</time></trkpt><trkpt lat="40.5581283" lon="15.0419883"><ele>32.0</ele><time>2026-03-28T13:46:22.482Z</time></trkpt><trkpt lat="40.55796" lon="15.04186"><ele>32.0</ele><time>2026-03-28T13:46:23.483Z</time></trkpt><trkpt lat="40.5578083" lon="15.0417233"><ele>32.0</ele><time>2026-03-28T13:46:24.483Z</time></trkpt><trkpt lat="40.55766" lon="15.0415867"><ele>31.0</ele><time>2026-03-28T13:46:25.482Z</time></trkpt><trkpt lat="40.5575217" lon="15.0414383"><ele>30.0</ele><time>2026-03-28T13:46:26.482Z</time></trkpt><trkpt lat="40.5573867" lon="15.0412817"><ele>29.0</ele><time>2026-03-28T13:46:27.482Z</time></trkpt><trkpt lat="40.55725" lon="15.0411033"><ele>29.0</ele><time>2026-03-28T13:46:28.483Z</time></trkpt><trkpt lat="40.55711" lon="15.04091"><ele>29.0</ele><time>2026-03-28T13:46:29.483Z</time></trkpt><trkpt lat="40.5569733" lon="15.04071"><ele>29.0</ele><time>2026-03-28T13:46:30.482Z</time></trkpt><trkpt lat="40.5568383" lon="15.0405333"><ele>28.0</ele><time>2026-03-28T13:46:31.482Z</time></trkpt><trkpt lat="40.5567083" lon="15.0403633"><ele>27.0</ele><time>2026-03-28T13:46:32.483Z</time></trkpt><trkpt lat="40.5565867" lon="15.0401883"><ele>26.0</ele><time>2026-03-28T13:46:33.483Z</time></trkpt><trkpt lat="40.5564683" lon="15.040015"><ele>24.333333333333332</ele><time>2026-03-28T13:46:34.483Z</time></trkpt><trkpt lat="40.5563567" lon="15.0398283"><ele>22.666666666666664</ele><time>2026-03-28T13:46:35.483Z</time></trkpt><trkpt lat="40.5562533" lon="15.0396183"><ele>21.0</ele><time>2026-03-28T13:46:36.483Z</time></trkpt><trkpt lat="40.556155" lon="15.03941"><ele>21.0</ele><time>2026-03-28T13:46:37.483Z</time></trkpt><trkpt lat="40.55607" lon="15.0391917"><ele>21.0</ele><time>2026-03-28T13:46:38.483Z</time></trkpt><trkpt lat="40.5559967" lon="15.0389833"><ele>21.0</ele><time>2026-03-28T13:46:39.482Z</time></trkpt><trkpt lat="40.5559267" lon="15.03877"><ele>21.666666666666668</ele><time>2026-03-28T13:46:40.483Z</time></trkpt><trkpt lat="40.5558733" lon="15.0385617"><ele>22.333333333333336</ele><time>2026-03-28T13:46:41.482Z</time></trkpt><trkpt lat="40.555825" lon="15.0383517"><ele>23.0</ele><time>2026-03-28T13:46:42.483Z</time></trkpt><trkpt lat="40.5557833" lon="15.0381517"><ele>23.0</ele><time>2026-03-28T13:46:43.483Z</time></trkpt><trkpt lat="40.5557417" lon="15.0379517"><ele>23.0</ele><time>2026-03-28T13:46:44.483Z</time></trkpt><trkpt lat="40.5557083" lon="15.037775"><ele>23.0</ele><time>2026-03-28T13:46:45.483Z</time></trkpt><trkpt lat="40.5556683" lon="15.0376133"><ele>23.0</ele><time>2026-03-28T13:46:46.483Z</time></trkpt><trkpt lat="40.555615" lon="15.03747"><ele>23.2</ele><time>2026-03-28T13:46:47.483Z</time></trkpt><trkpt lat="40.55555" lon="15.037345"><ele>23.4</ele><time>2026-03-28T13:46:48.483Z</time></trkpt><trkpt lat="40.5554683" lon="15.037245"><ele>23.599999999999998</ele><time>2026-03-28T13:46:49.483Z</time></trkpt><trkpt lat="40.5553733" lon="15.03718"><ele>23.799999999999997</ele><time>2026-03-28T13:46:50.483Z</time></trkpt><trkpt lat="40.5552617" lon="15.03715"><ele>24.0</ele><time>2026-03-28T13:46:51.482Z</time></trkpt><trkpt lat="40.55513" lon="15.03715"><ele>24.333333333333336</ele><time>2026-03-28T13:46:52.483Z</time></trkpt><trkpt lat="40.55498" lon="15.0371633"><ele>24.666666666666668</ele><time>2026-03-28T13:46:53.482Z</time></trkpt><trkpt lat="40.5548117" lon="15.0371817"><ele>25.0</ele><time>2026-03-28T13:46:54.483Z</time></trkpt><trkpt lat="40.5546417" lon="15.0372117"><ele>28.0</ele><time>2026-03-28T13:46:55.483Z</time></trkpt><trkpt lat="40.55447" lon="15.03723"><ele>31.0</ele><time>2026-03-28T13:46:56.483Z</time></trkpt><trkpt lat="40.5543083" lon="15.03725"><ele>34.0</ele><time>2026-03-28T13:46:57.482Z</time></trkpt><trkpt lat="40.5541467" lon="15.03727"><ele>34.0</ele><time>2026-03-28T13:46:58.482Z</time></trkpt><trkpt lat="40.5539983" lon="15.0373"><ele>34.0</ele><time>2026-03-28T13:46:59.483Z</time></trkpt><trkpt lat="40.553865" lon="15.0373217"><ele>34.0</ele><time>2026-03-28T13:47:00.483Z</time></trkpt><trkpt lat="40.5537417" lon="15.03735"><ele>34.0</ele><time>2026-03-28T13:47:01.482Z</time></trkpt><trkpt lat="40.5536317" lon="15.03738"><ele>34.4</ele><time>2026-03-28T13:47:02.483Z</time></trkpt><trkpt lat="40.5535283" lon="15.037405"><ele>34.8</ele><time>2026-03-28T13:47:03.482Z</time></trkpt><trkpt lat="40.55343" lon="15.0374383"><ele>35.2</ele><time>2026-03-28T13:47:04.483Z</time></trkpt><trkpt lat="40.5533383" lon="15.0374683"><ele>35.6</ele><time>2026-03-28T13:47:05.482Z</time></trkpt><trkpt lat="40.5532467" lon="15.0374933"><ele>36.0</ele><time>2026-03-28T13:47:06.483Z</time></trkpt><trkpt lat="40.55315" lon="15.0375083"><ele>36.0</ele><time>2026-03-28T13:47:07.483Z</time></trkpt><trkpt lat="40.55306" lon="15.0374883"><ele>36.0</ele><time>2026-03-28T13:47:08.482Z</time></trkpt><trkpt lat="40.552975" lon="15.0374483"><ele>36.0</ele><time>2026-03-28T13:47:09.483Z</time></trkpt><trkpt lat="40.552895" lon="15.0373567"><ele>36.0</ele><time>2026-03-28T13:47:10.482Z</time></trkpt><trkpt lat="40.5528183" lon="15.0372417"><ele>36.0</ele><time>2026-03-28T13:47:11.482Z</time></trkpt><trkpt lat="40.552745" lon="15.037115"><ele>35.5</ele><time>2026-03-28T13:47:12.482Z</time></trkpt><trkpt lat="40.5526817" lon="15.0369833"><ele>35.0</ele><time>2026-03-28T13:47:13.482Z</time></trkpt><trkpt lat="40.5526183" lon="15.0368483"><ele>34.5</ele><time>2026-03-28T13:47:14.483Z</time></trkpt><trkpt lat="40.55256" lon="15.03672"><ele>34.0</ele><time>2026-03-28T13:47:15.482Z</time></trkpt><trkpt lat="40.55249" lon="15.0365817"><ele>34.0</ele><time>2026-03-28T13:47:16.483Z</time></trkpt><trkpt lat="40.5524117" lon="15.0364533"><ele>34.0</ele><time>2026-03-28T13:47:17.482Z</time></trkpt><trkpt lat="40.5523167" lon="15.0363317"><ele>34.0</ele><time>2026-03-28T13:47:18.483Z</time></trkpt><trkpt lat="40.5522033" lon="15.0362217"><ele>34.0</ele><time>2026-03-28T13:47:19.483Z</time></trkpt><trkpt lat="40.5520667" lon="15.0361017"><ele>34.333333333333336</ele><time>2026-03-28T13:47:20.483Z</time></trkpt><trkpt lat="40.551915" lon="15.0359567"><ele>34.666666666666664</ele><time>2026-03-28T13:47:21.482Z</time></trkpt><trkpt lat="40.5517533" lon="15.03579"><ele>35.0</ele><time>2026-03-28T13:47:22.483Z</time></trkpt><trkpt lat="40.551595" lon="15.03564"><ele>35.33333333333333</ele><time>2026-03-28T13:47:23.483Z</time></trkpt><trkpt lat="40.551445" lon="15.035485"><ele>35.666666666666664</ele><time>2026-03-28T13:47:24.483Z</time></trkpt><trkpt lat="40.5513067" lon="15.03535"><ele>36.0</ele><time>2026-03-28T13:47:25.483Z</time></trkpt><trkpt lat="40.5511683" lon="15.03522"><ele>36.0</ele><time>2026-03-28T13:47:26.483Z</time></trkpt><trkpt lat="40.5510233" lon="15.0350817"><ele>36.0</ele><time>2026-03-28T13:47:27.482Z</time></trkpt><trkpt lat="40.550875" lon="15.0349367"><ele>36.0</ele><time>2026-03-28T13:47:28.482Z</time></trkpt><trkpt lat="40.55073" lon="15.034795"><ele>35.666666666666664</ele><time>2026-03-28T13:47:29.483Z</time></trkpt><trkpt lat="40.5505883" lon="15.0346533"><ele>35.33333333333333</ele><time>2026-03-28T13:47:30.483Z</time></trkpt><trkpt lat="40.55045" lon="15.03452"><ele>35.0</ele><time>2026-03-28T13:47:31.482Z</time></trkpt><trkpt lat="40.550315" lon="15.0343833"><ele>34.666666666666664</ele><time>2026-03-28T13:47:32.482Z</time></trkpt><trkpt lat="40.55017" lon="15.03425"><ele>34.333333333333336</ele><time>2026-03-28T13:47:33.483Z</time></trkpt><trkpt lat="40.5500367" lon="15.0341283"><ele>34.0</ele><time>2026-03-28T13:47:34.482Z</time></trkpt><trkpt lat="40.5499033" lon="15.0340083"><ele>34.0</ele><time>2026-03-28T13:47:35.483Z</time></trkpt><trkpt lat="40.5497783" lon="15.033885"><ele>34.0</ele><time>2026-03-28T13:47:36.483Z</time></trkpt><trkpt lat="40.5496483" lon="15.03376"><ele>34.0</ele><time>2026-03-28T13:47:37.483Z</time></trkpt><trkpt lat="40.5495267" lon="15.03364"><ele>34.0</ele><time>2026-03-28T13:47:38.483Z</time></trkpt><trkpt lat="40.5494067" lon="15.0335233"><ele>34.0</ele><time>2026-03-28T13:47:39.483Z</time></trkpt><trkpt lat="40.5492867" lon="15.033415"><ele>34.0</ele><time>2026-03-28T13:47:40.483Z</time></trkpt><trkpt lat="40.5491767" lon="15.0333083"><ele>34.0</ele><time>2026-03-28T13:47:41.482Z</time></trkpt><trkpt lat="40.5490667" lon="15.0331983"><ele>33.75</ele><time>2026-03-28T13:47:42.482Z</time></trkpt><trkpt lat="40.5489583" lon="15.0330983"><ele>33.5</ele><time>2026-03-28T13:47:43.483Z</time></trkpt><trkpt lat="40.5488533" lon="15.0329933"><ele>33.25</ele><time>2026-03-28T13:47:44.482Z</time></trkpt><trkpt lat="40.548745" lon="15.0328933"><ele>33.0</ele><time>2026-03-28T13:47:45.482Z</time></trkpt><trkpt lat="40.5486433" lon="15.0327933"><ele>33.5</ele><time>2026-03-28T13:47:46.483Z</time></trkpt><trkpt lat="40.5485383" lon="15.03269"><ele>34.0</ele><time>2026-03-28T13:47:47.483Z</time></trkpt><trkpt lat="40.548435" lon="15.0325917"><ele>34.5</ele><time>2026-03-28T13:47:48.483Z</time></trkpt><trkpt lat="40.5483267" lon="15.0324883"><ele>35.0</ele><time>2026-03-28T13:47:49.483Z</time></trkpt><trkpt lat="40.548205" lon="15.0323817"><ele>35.0</ele><time>2026-03-28T13:47:50.483Z</time></trkpt><trkpt lat="40.5480683" lon="15.0322567"><ele>35.0</ele><time>2026-03-28T13:47:51.482Z</time></trkpt><trkpt lat="40.5479233" lon="15.0321233"><ele>35.0</ele><time>2026-03-28T13:47:52.483Z</time></trkpt><trkpt lat="40.547785" lon="15.0319883"><ele>35.0</ele><time>2026-03-28T13:47:53.483Z</time></trkpt><trkpt lat="40.5476533" lon="15.0318617"><ele>35.0</ele><time>2026-03-28T13:47:54.483Z</time></trkpt><trkpt lat="40.54753" lon="15.0317417"><ele>35.0</ele><time>2026-03-28T13:47:55.483Z</time></trkpt><trkpt lat="40.5474133" lon="15.0316333"><ele>35.0</ele><time>2026-03-28T13:47:56.482Z</time></trkpt><trkpt lat="40.547305" lon="15.0315183"><ele>35.0</ele><time>2026-03-28T13:47:57.482Z</time></trkpt><trkpt lat="40.547195" lon="15.0314117"><ele>35.0</ele><time>2026-03-28T13:47:58.482Z</time></trkpt><trkpt lat="40.5470917" lon="15.0313117"><ele>35.0</ele><time>2026-03-28T13:47:59.483Z</time></trkpt><trkpt lat="40.54699" lon="15.0312117"><ele>35.0</ele><time>2026-03-28T13:48:00.483Z</time></trkpt><trkpt lat="40.5468917" lon="15.0311167"><ele>35.0</ele><time>2026-03-28T13:48:01.482Z</time></trkpt><trkpt lat="40.5467967" lon="15.03102"><ele>35.0</ele><time>2026-03-28T13:48:02.482Z</time></trkpt><trkpt lat="40.5467033" lon="15.0309283"><ele>35.0</ele><time>2026-03-28T13:48:03.482Z</time></trkpt><trkpt lat="40.5466133" lon="15.0308383"><ele>35.2</ele><time>2026-03-28T13:48:04.483Z</time></trkpt><trkpt lat="40.5465233" lon="15.0307533"><ele>35.4</ele><time>2026-03-28T13:48:05.482Z</time></trkpt><trkpt lat="40.5464317" lon="15.0306733"><ele>35.6</ele><time>2026-03-28T13:48:06.483Z</time></trkpt><trkpt lat="40.5463383" lon="15.0305917"><ele>35.8</ele><time>2026-03-28T13:48:07.482Z</time></trkpt><trkpt lat="40.5462517" lon="15.0305083"><ele>36.0</ele><time>2026-03-28T13:48:08.483Z</time></trkpt><trkpt lat="40.546165" lon="15.03043"><ele>35.666666666666664</ele><time>2026-03-28T13:48:09.482Z</time></trkpt><trkpt lat="40.546085" lon="15.0303533"><ele>35.333333333333336</ele><time>2026-03-28T13:48:10.483Z</time></trkpt><trkpt lat="40.5460033" lon="15.0302767"><ele>35.0</ele><time>2026-03-28T13:48:11.483Z</time></trkpt><trkpt lat="40.5459317" lon="15.03021"><ele>34.66666666666667</ele><time>2026-03-28T13:48:12.482Z</time></trkpt><trkpt lat="40.54587" lon="15.0301533"><ele>34.333333333333336</ele><time>2026-03-28T13:48:13.482Z</time></trkpt><trkpt lat="40.5458133" lon="15.0301"><ele>34.0</ele><time>2026-03-28T13:48:14.482Z</time></trkpt><trkpt lat="40.5457617" lon="15.0300467"><ele>34.4</ele><time>2026-03-28T13:48:15.482Z</time></trkpt><trkpt lat="40.5456767" lon="15.0299617"><ele>34.8</ele><time>2026-03-28T13:48:17.483Z</time></trkpt><trkpt lat="40.5456" lon="15.02988"><ele>35.2</ele><time>2026-03-28T13:48:19.483Z</time></trkpt><trkpt lat="40.545535" lon="15.0298017"><ele>35.6</ele><time>2026-03-28T13:48:21.483Z</time></trkpt><trkpt lat="40.54548" lon="15.0297083"><ele>36.0</ele><time>2026-03-28T13:48:23.483Z</time></trkpt><trkpt lat="40.5454167" lon="15.0296167"><ele>35.8</ele><time>2026-03-28T13:48:25.482Z</time></trkpt><trkpt lat="40.5453633" lon="15.029565"><ele>35.6</ele><time>2026-03-28T13:48:26.483Z</time></trkpt><trkpt lat="40.54529" lon="15.0295133"><ele>35.4</ele><time>2026-03-28T13:48:27.482Z</time></trkpt><trkpt lat="40.5452" lon="15.0294417"><ele>35.2</ele><time>2026-03-28T13:48:28.482Z</time></trkpt><trkpt lat="40.545085" lon="15.0293567"><ele>35.0</ele><time>2026-03-28T13:48:29.483Z</time></trkpt><trkpt lat="40.5449517" lon="15.02924"><ele>35.0</ele><time>2026-03-28T13:48:30.483Z</time></trkpt><trkpt lat="40.5448017" lon="15.0291033"><ele>35.0</ele><time>2026-03-28T13:48:31.483Z</time></trkpt><trkpt lat="40.54465" lon="15.02896"><ele>35.0</ele><time>2026-03-28T13:48:32.482Z</time></trkpt><trkpt lat="40.5444917" lon="15.0288083"><ele>34.0</ele><time>2026-03-28T13:48:33.483Z</time></trkpt><trkpt lat="40.54432" lon="15.0286417"><ele>33.0</ele><time>2026-03-28T13:48:34.482Z</time></trkpt><trkpt lat="40.54416" lon="15.028485"><ele>32.0</ele><time>2026-03-28T13:48:35.483Z</time></trkpt><trkpt lat="40.5440033" lon="15.0283333"><ele>31.666666666666664</ele><time>2026-03-28T13:48:36.483Z</time></trkpt><trkpt lat="40.54385" lon="15.0281967"><ele>31.333333333333336</ele><time>2026-03-28T13:48:37.483Z</time></trkpt><trkpt lat="40.5436883" lon="15.0280433"><ele>31.0</ele><time>2026-03-28T13:48:38.483Z</time></trkpt><trkpt lat="40.54351" lon="15.027875"><ele>29.0</ele><time>2026-03-28T13:48:39.483Z</time></trkpt><trkpt lat="40.5433233" lon="15.0276883"><ele>27.0</ele><time>2026-03-28T13:48:40.482Z</time></trkpt><trkpt lat="40.543135" lon="15.0275017"><ele>27.0</ele><time>2026-03-28T13:48:41.482Z</time></trkpt><trkpt lat="40.5429417" lon="15.0273033"><ele>27.0</ele><time>2026-03-28T13:48:42.483Z</time></trkpt><trkpt lat="40.5427483" lon="15.0270983"><ele>26.0</ele><time>2026-03-28T13:48:43.483Z</time></trkpt><trkpt lat="40.5425617" lon="15.0268967"><ele>25.0</ele><time>2026-03-28T13:48:44.483Z</time></trkpt><trkpt lat="40.5423817" lon="15.0266933"><ele>25.0</ele><time>2026-03-28T13:48:45.482Z</time></trkpt><trkpt lat="40.5421967" lon="15.0264933"><ele>25.0</ele><time>2026-03-28T13:48:46.482Z</time></trkpt><trkpt lat="40.5420033" lon="15.0263"><ele>25.0</ele><time>2026-03-28T13:48:47.482Z</time></trkpt><trkpt lat="40.5418167" lon="15.0261033"><ele>25.0</ele><time>2026-03-28T13:48:48.483Z</time></trkpt><trkpt lat="40.541625" lon="15.0259033"><ele>25.5</ele><time>2026-03-28T13:48:49.483Z</time></trkpt><trkpt lat="40.54142" lon="15.0257017"><ele>26.0</ele><time>2026-03-28T13:48:50.483Z</time></trkpt><trkpt lat="40.5412117" lon="15.02549"><ele>24.5</ele><time>2026-03-28T13:48:51.482Z</time></trkpt><trkpt lat="40.5410033" lon="15.025285"><ele>23.0</ele><time>2026-03-28T13:48:52.483Z</time></trkpt><trkpt lat="40.5407983" lon="15.0250817"><ele>23.0</ele><time>2026-03-28T13:48:53.483Z</time></trkpt><trkpt lat="40.54061" lon="15.02489"><ele>23.0</ele><time>2026-03-28T13:48:54.482Z</time></trkpt><trkpt lat="40.5404217" lon="15.0246917"><ele>24.0</ele><time>2026-03-28T13:48:55.482Z</time></trkpt><trkpt lat="40.5402333" lon="15.024505"><ele>25.0</ele><time>2026-03-28T13:48:56.482Z</time></trkpt><trkpt lat="40.540045" lon="15.0243233"><ele>25.5</ele><time>2026-03-28T13:48:57.482Z</time></trkpt><trkpt lat="40.5398617" lon="15.0241367"><ele>26.0</ele><time>2026-03-28T13:48:58.483Z</time></trkpt><trkpt lat="40.5396767" lon="15.0239483"><ele>26.0</ele><time>2026-03-28T13:48:59.482Z</time></trkpt><trkpt lat="40.5395067" lon="15.0237717"><ele>26.0</ele><time>2026-03-28T13:49:00.483Z</time></trkpt><trkpt lat="40.5393367" lon="15.0235933"><ele>26.0</ele><time>2026-03-28T13:49:01.483Z</time></trkpt><trkpt lat="40.53917" lon="15.0234167"><ele>25.666666666666664</ele><time>2026-03-28T13:49:02.482Z</time></trkpt><trkpt lat="40.5390117" lon="15.023235"><ele>25.333333333333336</ele><time>2026-03-28T13:49:03.483Z</time></trkpt><trkpt lat="40.5388567" lon="15.0230517"><ele>25.0</ele><time>2026-03-28T13:49:04.483Z</time></trkpt><trkpt lat="40.5387067" lon="15.02285"><ele>25.0</ele><time>2026-03-28T13:49:05.483Z</time></trkpt><trkpt lat="40.5385583" lon="15.02264"><ele>25.0</ele><time>2026-03-28T13:49:06.483Z</time></trkpt><trkpt lat="40.5384033" lon="15.0224267"><ele>25.0</ele><time>2026-03-28T13:49:07.482Z</time></trkpt><trkpt lat="40.538245" lon="15.022205"><ele>24.0</ele><time>2026-03-28T13:49:08.482Z</time></trkpt><trkpt lat="40.5380833" lon="15.02198"><ele>23.0</ele><time>2026-03-28T13:49:09.483Z</time></trkpt><trkpt lat="40.5379233" lon="15.0217517"><ele>23.5</ele><time>2026-03-28T13:49:10.483Z</time></trkpt><trkpt lat="40.5377617" lon="15.0215317"><ele>24.0</ele><time>2026-03-28T13:49:11.483Z</time></trkpt><trkpt lat="40.5376" lon="15.0213033"><ele>24.0</ele><time>2026-03-28T13:49:12.483Z</time></trkpt><trkpt lat="40.53744" lon="15.0210733"><ele>24.0</ele><time>2026-03-28T13:49:13.482Z</time></trkpt><trkpt lat="40.5372817" lon="15.0208417"><ele>24.5</ele><time>2026-03-28T13:49:14.482Z</time></trkpt><trkpt lat="40.53712" lon="15.0206133"><ele>25.0</ele><time>2026-03-28T13:49:15.482Z</time></trkpt><trkpt lat="40.5369533" lon="15.0203883"><ele>24.5</ele><time>2026-03-28T13:49:16.482Z</time></trkpt><trkpt lat="40.536785" lon="15.0201567"><ele>24.0</ele><time>2026-03-28T13:49:17.483Z</time></trkpt><trkpt lat="40.53662" lon="15.0199267"><ele>24.0</ele><time>2026-03-28T13:49:18.483Z</time></trkpt><trkpt lat="40.5364617" lon="15.019705"><ele>24.0</ele><time>2026-03-28T13:49:19.482Z</time></trkpt><trkpt lat="40.5363067" lon="15.0194883"><ele>23.5</ele><time>2026-03-28T13:49:20.483Z</time></trkpt><trkpt lat="40.5361533" lon="15.0192667"><ele>23.0</ele><time>2026-03-28T13:49:21.483Z</time></trkpt><trkpt lat="40.5359983" lon="15.0190367"><ele>22.0</ele><time>2026-03-28T13:49:22.483Z</time></trkpt><trkpt lat="40.5358417" lon="15.018815"><ele>21.0</ele><time>2026-03-28T13:49:23.483Z</time></trkpt><trkpt lat="40.5356817" lon="15.0185967"><ele>21.0</ele><time>2026-03-28T13:49:24.483Z</time></trkpt><trkpt lat="40.5355217" lon="15.0183817"><ele>21.0</ele><time>2026-03-28T13:49:25.483Z</time></trkpt><trkpt lat="40.5353633" lon="15.01817"><ele>22.0</ele><time>2026-03-28T13:49:26.483Z</time></trkpt><trkpt lat="40.5352083" lon="15.0179517"><ele>23.0</ele><time>2026-03-28T13:49:27.482Z</time></trkpt><trkpt lat="40.5350517" lon="15.0177233"><ele>23.0</ele><time>2026-03-28T13:49:28.482Z</time></trkpt><trkpt lat="40.53489" lon="15.0174917"><ele>23.0</ele><time>2026-03-28T13:49:29.482Z</time></trkpt><trkpt lat="40.5347233" lon="15.01726"><ele>21.0</ele><time>2026-03-28T13:49:30.483Z</time></trkpt><trkpt lat="40.5345517" lon="15.01702"><ele>19.0</ele><time>2026-03-28T13:49:31.483Z</time></trkpt><trkpt lat="40.534375" lon="15.0167783"><ele>19.5</ele><time>2026-03-28T13:49:32.483Z</time></trkpt><trkpt lat="40.5342017" lon="15.0165267"><ele>20.0</ele><time>2026-03-28T13:49:33.483Z</time></trkpt><trkpt lat="40.5340283" lon="15.0162767"><ele>20.0</ele><time>2026-03-28T13:49:34.482Z</time></trkpt><trkpt lat="40.5338633" lon="15.0160417"><ele>20.0</ele><time>2026-03-28T13:49:35.483Z</time></trkpt><trkpt lat="40.5336983" lon="15.0158133"><ele>19.5</ele><time>2026-03-28T13:49:36.482Z</time></trkpt><trkpt lat="40.533535" lon="15.01559"><ele>19.0</ele><time>2026-03-28T13:49:37.482Z</time></trkpt><trkpt lat="40.5333783" lon="15.015365"><ele>19.0</ele><time>2026-03-28T13:49:38.483Z</time></trkpt><trkpt lat="40.53322" lon="15.0151433"><ele>19.0</ele><time>2026-03-28T13:49:39.483Z</time></trkpt><trkpt lat="40.5330633" lon="15.0149233"><ele>19.0</ele><time>2026-03-28T13:49:40.483Z</time></trkpt><trkpt lat="40.5329067" lon="15.0147"><ele>19.0</ele><time>2026-03-28T13:49:41.483Z</time></trkpt><trkpt lat="40.53274" lon="15.01447"><ele>19.0</ele><time>2026-03-28T13:49:42.483Z</time></trkpt><trkpt lat="40.532575" lon="15.0142433"><ele>19.0</ele><time>2026-03-28T13:49:43.483Z</time></trkpt><trkpt lat="40.5324117" lon="15.0140167"><ele>18.0</ele><time>2026-03-28T13:49:44.482Z</time></trkpt><trkpt lat="40.532245" lon="15.01379"><ele>17.0</ele><time>2026-03-28T13:49:45.483Z</time></trkpt><trkpt lat="40.5320883" lon="15.0135583"><ele>18.0</ele><time>2026-03-28T13:49:46.482Z</time></trkpt><trkpt lat="40.5319283" lon="15.0133317"><ele>19.0</ele><time>2026-03-28T13:49:47.483Z</time></trkpt><trkpt lat="40.5317683" lon="15.0131067"><ele>19.0</ele><time>2026-03-28T13:49:48.483Z</time></trkpt><trkpt lat="40.5316017" lon="15.0128817"><ele>19.0</ele><time>2026-03-28T13:49:49.483Z</time></trkpt><trkpt lat="40.53144" lon="15.0126533"><ele>18.5</ele><time>2026-03-28T13:49:50.484Z</time></trkpt><trkpt lat="40.5312733" lon="15.0124217"><ele>18.0</ele><time>2026-03-28T13:49:51.484Z</time></trkpt><trkpt lat="40.5311033" lon="15.0121883"><ele>18.0</ele><time>2026-03-28T13:49:52.483Z</time></trkpt><trkpt lat="40.5309317" lon="15.0119567"><ele>18.0</ele><time>2026-03-28T13:49:53.484Z</time></trkpt><trkpt lat="40.530765" lon="15.01172"><ele>16.5</ele><time>2026-03-28T13:49:54.483Z</time></trkpt><trkpt lat="40.5306017" lon="15.01149"><ele>15.0</ele><time>2026-03-28T13:49:55.484Z</time></trkpt><trkpt lat="40.5304383" lon="15.011265"><ele>15.5</ele><time>2026-03-28T13:49:56.483Z</time></trkpt><trkpt lat="40.53028" lon="15.0110367"><ele>16.0</ele><time>2026-03-28T13:49:57.483Z</time></trkpt><trkpt lat="40.5301183" lon="15.01081"><ele>16.0</ele><time>2026-03-28T13:49:58.484Z</time></trkpt><trkpt lat="40.5299583" lon="15.0105833"><ele>16.0</ele><time>2026-03-28T13:49:59.483Z</time></trkpt><trkpt lat="40.5297983" lon="15.01036"><ele>16.0</ele><time>2026-03-28T13:50:00.483Z</time></trkpt><trkpt lat="40.52964" lon="15.0101367"><ele>16.0</ele><time>2026-03-28T13:50:01.484Z</time></trkpt><trkpt lat="40.5294817" lon="15.0099133"><ele>16.333333333333332</ele><time>2026-03-28T13:50:02.483Z</time></trkpt><trkpt lat="40.5293267" lon="15.0096967"><ele>16.666666666666668</ele><time>2026-03-28T13:50:03.484Z</time></trkpt><trkpt lat="40.5291867" lon="15.00949"><ele>17.0</ele><time>2026-03-28T13:50:04.483Z</time></trkpt><trkpt lat="40.529045" lon="15.0092883"><ele>16.666666666666668</ele><time>2026-03-28T13:50:05.483Z</time></trkpt><trkpt lat="40.5289033" lon="15.0090967"><ele>16.333333333333332</ele><time>2026-03-28T13:50:06.484Z</time></trkpt><trkpt lat="40.5287617" lon="15.0089083"><ele>16.0</ele><time>2026-03-28T13:50:07.483Z</time></trkpt><trkpt lat="40.52862" lon="15.0087183"><ele>16.333333333333332</ele><time>2026-03-28T13:50:08.484Z</time></trkpt><trkpt lat="40.528475" lon="15.0085167"><ele>16.666666666666668</ele><time>2026-03-28T13:50:09.484Z</time></trkpt><trkpt lat="40.5283317" lon="15.00831"><ele>17.0</ele><time>2026-03-28T13:50:10.483Z</time></trkpt><trkpt lat="40.5281933" lon="15.0081"><ele>17.0</ele><time>2026-03-28T13:50:11.484Z</time></trkpt><trkpt lat="40.52806" lon="15.0078917"><ele>17.0</ele><time>2026-03-28T13:50:12.483Z</time></trkpt><trkpt lat="40.527925" lon="15.0076883"><ele>17.0</ele><time>2026-03-28T13:50:13.483Z</time></trkpt><trkpt lat="40.527795" lon="15.007485"><ele>16.333333333333336</ele><time>2026-03-28T13:50:14.484Z</time></trkpt><trkpt lat="40.5276717" lon="15.00729"><ele>15.666666666666668</ele><time>2026-03-28T13:50:15.484Z</time></trkpt><trkpt lat="40.5275517" lon="15.007095"><ele>15.0</ele><time>2026-03-28T13:50:16.483Z</time></trkpt><trkpt lat="40.5274367" lon="15.0068983"><ele>15.0</ele><time>2026-03-28T13:50:17.483Z</time></trkpt><trkpt lat="40.52732" lon="15.0067033"><ele>15.0</ele><time>2026-03-28T13:50:18.483Z</time></trkpt><trkpt lat="40.5272033" lon="15.0065"><ele>15.0</ele><time>2026-03-28T13:50:19.484Z</time></trkpt><trkpt lat="40.5270967" lon="15.0063067"><ele>15.333333333333332</ele><time>2026-03-28T13:50:20.483Z</time></trkpt><trkpt lat="40.527" lon="15.006125"><ele>15.666666666666666</ele><time>2026-03-28T13:50:21.483Z</time></trkpt><trkpt lat="40.52691" lon="15.0059567"><ele>16.0</ele><time>2026-03-28T13:50:22.484Z</time></trkpt><trkpt lat="40.5268233" lon="15.0057967"><ele>16.25</ele><time>2026-03-28T13:50:23.484Z</time></trkpt><trkpt lat="40.5267433" lon="15.005655"><ele>16.5</ele><time>2026-03-28T13:50:24.483Z</time></trkpt><trkpt lat="40.5266633" lon="15.00552"><ele>16.75</ele><time>2026-03-28T13:50:25.483Z</time></trkpt><trkpt lat="40.5265783" lon="15.0053867"><ele>17.0</ele><time>2026-03-28T13:50:26.484Z</time></trkpt><trkpt lat="40.526495" lon="15.0052617"><ele>17.0</ele><time>2026-03-28T13:50:27.483Z</time></trkpt><trkpt lat="40.5264067" lon="15.0051383"><ele>17.0</ele><time>2026-03-28T13:50:28.483Z</time></trkpt><trkpt lat="40.5263233" lon="15.005025"><ele>17.0</ele><time>2026-03-28T13:50:29.483Z</time></trkpt><trkpt lat="40.5262483" lon="15.0049217"><ele>17.0</ele><time>2026-03-28T13:50:30.484Z</time></trkpt><trkpt lat="40.5261767" lon="15.004825"><ele>16.8</ele><time>2026-03-28T13:50:31.484Z</time></trkpt><trkpt lat="40.526105" lon="15.0047283"><ele>16.6</ele><time>2026-03-28T13:50:32.483Z</time></trkpt><trkpt lat="40.5260317" lon="15.0046267"><ele>16.400000000000002</ele><time>2026-03-28T13:50:33.484Z</time></trkpt><trkpt lat="40.5259533" lon="15.00453"><ele>16.2</ele><time>2026-03-28T13:50:34.484Z</time></trkpt><trkpt lat="40.525875" lon="15.0044383"><ele>16.0</ele><time>2026-03-28T13:50:35.484Z</time></trkpt><trkpt lat="40.52579" lon="15.00435"><ele>16.0</ele><time>2026-03-28T13:50:36.484Z</time></trkpt><trkpt lat="40.5257" lon="15.00426"><ele>16.0</ele><time>2026-03-28T13:50:37.484Z</time></trkpt><trkpt lat="40.5256117" lon="15.0041733"><ele>16.0</ele><time>2026-03-28T13:50:38.483Z</time></trkpt><trkpt lat="40.5255233" lon="15.0040883"><ele>16.0</ele><time>2026-03-28T13:50:39.483Z</time></trkpt><trkpt lat="40.5254367" lon="15.0040067"><ele>16.0</ele><time>2026-03-28T13:50:40.484Z</time></trkpt><trkpt lat="40.52535" lon="15.003925"><ele>16.0</ele><time>2026-03-28T13:50:41.484Z</time></trkpt><trkpt lat="40.5252717" lon="15.0038383"><ele>16.0</ele><time>2026-03-28T13:50:42.484Z</time></trkpt><trkpt lat="40.525185" lon="15.0037567"><ele>16.0</ele><time>2026-03-28T13:50:43.483Z</time></trkpt><trkpt lat="40.5251" lon="15.0036767"><ele>16.0</ele><time>2026-03-28T13:50:44.484Z</time></trkpt><trkpt lat="40.5250133" lon="15.00359"><ele>16.0</ele><time>2026-03-28T13:50:45.483Z</time></trkpt><trkpt lat="40.5249333" lon="15.0035"><ele>16.0</ele><time>2026-03-28T13:50:46.484Z</time></trkpt><trkpt lat="40.52486" lon="15.0034"><ele>16.0</ele><time>2026-03-28T13:50:47.484Z</time></trkpt><trkpt lat="40.5247867" lon="15.0033017"><ele>16.0</ele><time>2026-03-28T13:50:48.484Z</time></trkpt><trkpt lat="40.5247133" lon="15.003195"><ele>16.0</ele><time>2026-03-28T13:50:49.484Z</time></trkpt><trkpt lat="40.52464" lon="15.00309"><ele>16.0</ele><time>2026-03-28T13:50:50.484Z</time></trkpt><trkpt lat="40.5245717" lon="15.0029883"><ele>16.400000000000002</ele><time>2026-03-28T13:50:51.484Z</time></trkpt><trkpt lat="40.5245" lon="15.002895"><ele>16.8</ele><time>2026-03-28T13:50:52.483Z</time></trkpt><trkpt lat="40.5244367" lon="15.0028"><ele>17.200000000000003</ele><time>2026-03-28T13:50:53.483Z</time></trkpt><trkpt lat="40.5243817" lon="15.0026983"><ele>17.6</ele><time>2026-03-28T13:50:54.484Z</time></trkpt><trkpt lat="40.5243267" lon="15.002615"><ele>18.0</ele><time>2026-03-28T13:50:55.483Z</time></trkpt><trkpt lat="40.5242733" lon="15.0025283"><ele>17.833333333333332</ele><time>2026-03-28T13:50:56.483Z</time></trkpt><trkpt lat="40.5242217" lon="15.0024583"><ele>17.666666666666668</ele><time>2026-03-28T13:50:57.483Z</time></trkpt><trkpt lat="40.5241733" lon="15.0023867"><ele>17.5</ele><time>2026-03-28T13:50:58.483Z</time></trkpt><trkpt lat="40.52413" lon="15.0023167"><ele>17.333333333333336</ele><time>2026-03-28T13:50:59.483Z</time></trkpt><trkpt lat="40.5240983" lon="15.002245"><ele>17.166666666666668</ele><time>2026-03-28T13:51:00.484Z</time></trkpt><trkpt lat="40.524065" lon="15.0021117"><ele>17.0</ele><time>2026-03-28T13:51:02.484Z</time></trkpt><trkpt lat="40.5240583" lon="15.001995"><ele>17.0</ele><time>2026-03-28T13:51:05.483Z</time></trkpt><trkpt lat="40.52405" lon="15.00191"><ele>17.0</ele><time>2026-03-28T13:51:07.483Z</time></trkpt><trkpt lat="40.5240533" lon="15.00176"><ele>17.0</ele><time>2026-03-28T13:51:09.483Z</time></trkpt><trkpt lat="40.5240433" lon="15.0016717"><ele>17.0</ele><time>2026-03-28T13:51:10.483Z</time></trkpt><trkpt lat="40.5240183" lon="15.0015817"><ele>17.0</ele><time>2026-03-28T13:51:11.483Z</time></trkpt><trkpt lat="40.523975" lon="15.00151"><ele>17.0</ele><time>2026-03-28T13:51:12.484Z</time></trkpt><trkpt lat="40.5238633" lon="15.001435"><ele>17.0</ele><time>2026-03-28T13:51:14.483Z</time></trkpt><trkpt lat="40.5237367" lon="15.00146"><ele>17.0</ele><time>2026-03-28T13:51:16.484Z</time></trkpt><trkpt lat="40.523675" lon="15.0015017"><ele>17.0</ele><time>2026-03-28T13:51:17.484Z</time></trkpt><trkpt lat="40.52363" lon="15.00157"><ele>17.0</ele><time>2026-03-28T13:51:18.484Z</time></trkpt><trkpt lat="40.5235967" lon="15.0016533"><ele>17.0</ele><time>2026-03-28T13:51:19.483Z</time></trkpt><trkpt lat="40.523575" lon="15.0017467"><ele>17.0</ele><time>2026-03-28T13:51:20.483Z</time></trkpt><trkpt lat="40.5235583" lon="15.001845"><ele>17.0</ele><time>2026-03-28T13:51:21.484Z</time></trkpt><trkpt lat="40.5235383" lon="15.0019433"><ele>17.0</ele><time>2026-03-28T13:51:22.483Z</time></trkpt><trkpt lat="40.5235167" lon="15.00203"><ele>17.0</ele><time>2026-03-28T13:51:23.484Z</time></trkpt><trkpt lat="40.5234633" lon="15.0021483"><ele>17.0</ele><time>2026-03-28T13:51:25.483Z</time></trkpt><trkpt lat="40.5233933" lon="15.0022517"><ele>17.0</ele><time>2026-03-28T13:51:27.483Z</time></trkpt><trkpt lat="40.5233117" lon="15.0023583"><ele>17.0</ele><time>2026-03-28T13:51:29.484Z</time></trkpt><trkpt lat="40.5232583" lon="15.002415"><ele>17.0</ele><time>2026-03-28T13:51:30.483Z</time></trkpt><trkpt lat="40.523195" lon="15.0024783"><ele>17.0</ele><time>2026-03-28T13:51:31.484Z</time></trkpt><trkpt lat="40.5231133" lon="15.002555"><ele>17.0</ele><time>2026-03-28T13:51:32.483Z</time></trkpt><trkpt lat="40.52302" lon="15.0026467"><ele>17.0</ele><time>2026-03-28T13:51:33.483Z</time></trkpt><trkpt lat="40.5229283" lon="15.00274"><ele>17.0</ele><time>2026-03-28T13:51:34.483Z</time></trkpt><trkpt lat="40.5228033" lon="15.0028433"><ele>17.0</ele><time>2026-03-28T13:51:35.483Z</time></trkpt><trkpt lat="40.5226717" lon="15.0029567"><ele>17.0</ele><time>2026-03-28T13:51:36.484Z</time></trkpt><trkpt lat="40.5225483" lon="15.0030633"><ele>17.0</ele><time>2026-03-28T13:51:37.484Z</time></trkpt><trkpt lat="40.5224267" lon="15.0031617"><ele>17.0</ele><time>2026-03-28T13:51:38.484Z</time></trkpt><trkpt lat="40.5223067" lon="15.003265"><ele>17.0</ele><time>2026-03-28T13:51:39.484Z</time></trkpt><trkpt lat="40.5221817" lon="15.0033883"><ele>17.0</ele><time>2026-03-28T13:51:40.484Z</time></trkpt><trkpt lat="40.5220483" lon="15.0035017"><ele>17.0</ele><time>2026-03-28T13:51:41.483Z</time></trkpt><trkpt lat="40.5219217" lon="15.0036067"><ele>17.0</ele><time>2026-03-28T13:51:42.484Z</time></trkpt><trkpt lat="40.5217917" lon="15.0037133"><ele>17.0</ele><time>2026-03-28T13:51:43.483Z</time></trkpt><trkpt lat="40.521665" lon="15.0038233"><ele>17.0</ele><time>2026-03-28T13:51:44.484Z</time></trkpt><trkpt lat="40.5215467" lon="15.0039283"><ele>17.0</ele><time>2026-03-28T13:51:45.484Z</time></trkpt><trkpt lat="40.5214317" lon="15.0040333"><ele>17.0</ele><time>2026-03-28T13:51:46.483Z</time></trkpt><trkpt lat="40.5213167" lon="15.0041417"><ele>17.0</ele><time>2026-03-28T13:51:47.484Z</time></trkpt><trkpt lat="40.521195" lon="15.0042483"><ele>17.333333333333336</ele><time>2026-03-28T13:51:48.484Z</time></trkpt><trkpt lat="40.5210633" lon="15.004355"><ele>17.666666666666668</ele><time>2026-03-28T13:51:49.484Z</time></trkpt><trkpt lat="40.5209317" lon="15.004465"><ele>18.0</ele><time>2026-03-28T13:51:50.484Z</time></trkpt><trkpt lat="40.520795" lon="15.004585"><ele>18.0</ele><time>2026-03-28T13:51:51.483Z</time></trkpt><trkpt lat="40.5206567" lon="15.004705"><ele>18.0</ele><time>2026-03-28T13:51:52.483Z</time></trkpt><trkpt lat="40.5205233" lon="15.0048217"><ele>18.0</ele><time>2026-03-28T13:51:53.484Z</time></trkpt><trkpt lat="40.5203983" lon="15.0049317"><ele>16.666666666666668</ele><time>2026-03-28T13:51:54.483Z</time></trkpt><trkpt lat="40.5202733" lon="15.0050467"><ele>15.333333333333334</ele><time>2026-03-28T13:51:55.484Z</time></trkpt><trkpt lat="40.5201417" lon="15.00517"><ele>14.0</ele><time>2026-03-28T13:51:56.484Z</time></trkpt><trkpt lat="40.5200033" lon="15.005305"><ele>14.0</ele><time>2026-03-28T13:51:57.484Z</time></trkpt><trkpt lat="40.5198683" lon="15.0054467"><ele>14.0</ele><time>2026-03-28T13:51:58.484Z</time></trkpt><trkpt lat="40.51975" lon="15.0055983"><ele>14.0</ele><time>2026-03-28T13:51:59.484Z</time></trkpt><trkpt lat="40.5196367" lon="15.0057617"><ele>13.666666666666668</ele><time>2026-03-28T13:52:00.483Z</time></trkpt><trkpt lat="40.51953" lon="15.0059217"><ele>13.333333333333332</ele><time>2026-03-28T13:52:01.484Z</time></trkpt><trkpt lat="40.5194383" lon="15.0060883"><ele>13.0</ele><time>2026-03-28T13:52:02.484Z</time></trkpt><trkpt lat="40.51934" lon="15.0062633"><ele>13.0</ele><time>2026-03-28T13:52:03.483Z</time></trkpt><trkpt lat="40.5192367" lon="15.0064383"><ele>13.0</ele><time>2026-03-28T13:52:04.484Z</time></trkpt><trkpt lat="40.51913" lon="15.0066217"><ele>13.0</ele><time>2026-03-28T13:52:05.483Z</time></trkpt><trkpt lat="40.5190117" lon="15.0068083"><ele>13.0</ele><time>2026-03-28T13:52:06.484Z</time></trkpt><trkpt lat="40.5188917" lon="15.0069917"><ele>13.0</ele><time>2026-03-28T13:52:07.483Z</time></trkpt><trkpt lat="40.5187717" lon="15.007155"><ele>13.0</ele><time>2026-03-28T13:52:08.484Z</time></trkpt><trkpt lat="40.5186533" lon="15.0073133"><ele>13.0</ele><time>2026-03-28T13:52:09.484Z</time></trkpt><trkpt lat="40.5185317" lon="15.0074567"><ele>13.0</ele><time>2026-03-28T13:52:10.484Z</time></trkpt><trkpt lat="40.518405" lon="15.0075883"><ele>13.0</ele><time>2026-03-28T13:52:11.483Z</time></trkpt><trkpt lat="40.5182733" lon="15.0077133"><ele>13.333333333333332</ele><time>2026-03-28T13:52:12.483Z</time></trkpt><trkpt lat="40.518145" lon="15.0078367"><ele>13.666666666666668</ele><time>2026-03-28T13:52:13.484Z</time></trkpt><trkpt lat="40.5180183" lon="15.0079517"><ele>14.0</ele><time>2026-03-28T13:52:14.484Z</time></trkpt><trkpt lat="40.517885" lon="15.0080617"><ele>13.0</ele><time>2026-03-28T13:52:15.483Z</time></trkpt><trkpt lat="40.5177533" lon="15.008165"><ele>12.0</ele><time>2026-03-28T13:52:16.484Z</time></trkpt><trkpt lat="40.517615" lon="15.0082633"><ele>11.0</ele><time>2026-03-28T13:52:17.483Z</time></trkpt><trkpt lat="40.5174667" lon="15.0083517"><ele>11.0</ele><time>2026-03-28T13:52:18.484Z</time></trkpt><trkpt lat="40.5173183" lon="15.0084333"><ele>11.0</ele><time>2026-03-28T13:52:19.483Z</time></trkpt><trkpt lat="40.5171633" lon="15.00851"><ele>11.0</ele><time>2026-03-28T13:52:20.483Z</time></trkpt><trkpt lat="40.51701" lon="15.0085817"><ele>10.333333333333332</ele><time>2026-03-28T13:52:21.484Z</time></trkpt><trkpt lat="40.5168617" lon="15.008645"><ele>9.666666666666666</ele><time>2026-03-28T13:52:22.484Z</time></trkpt><trkpt lat="40.516715" lon="15.0086967"><ele>9.0</ele><time>2026-03-28T13:52:23.484Z</time></trkpt><trkpt lat="40.51657" lon="15.0087433"><ele>9.0</ele><time>2026-03-28T13:52:24.484Z</time></trkpt><trkpt lat="40.51643" lon="15.00879"><ele>9.0</ele><time>2026-03-28T13:52:25.483Z</time></trkpt><trkpt lat="40.51629" lon="15.0088433"><ele>9.0</ele><time>2026-03-28T13:52:26.483Z</time></trkpt><trkpt lat="40.5161483" lon="15.0089033"><ele>9.0</ele><time>2026-03-28T13:52:27.484Z</time></trkpt><trkpt lat="40.5160033" lon="15.0089567"><ele>8.75</ele><time>2026-03-28T13:52:28.483Z</time></trkpt><trkpt lat="40.5158583" lon="15.00901"><ele>8.5</ele><time>2026-03-28T13:52:29.484Z</time></trkpt><trkpt lat="40.515715" lon="15.00906"><ele>8.25</ele><time>2026-03-28T13:52:30.483Z</time></trkpt><trkpt lat="40.5155733" lon="15.0091133"><ele>8.0</ele><time>2026-03-28T13:52:31.484Z</time></trkpt><trkpt lat="40.5154383" lon="15.0091733"><ele>7.75</ele><time>2026-03-28T13:52:32.483Z</time></trkpt><trkpt lat="40.5152983" lon="15.0092167"><ele>7.5</ele><time>2026-03-28T13:52:33.483Z</time></trkpt><trkpt lat="40.5151533" lon="15.009265"><ele>7.25</ele><time>2026-03-28T13:52:34.483Z</time></trkpt><trkpt lat="40.5150133" lon="15.0093217"><ele>7.0</ele><time>2026-03-28T13:52:35.483Z</time></trkpt><trkpt lat="40.514865" lon="15.00938"><ele>7.0</ele><time>2026-03-28T13:52:36.484Z</time></trkpt><trkpt lat="40.5147083" lon="15.0094417"><ele>7.0</ele><time>2026-03-28T13:52:37.483Z</time></trkpt><trkpt lat="40.5145467" lon="15.0095017"><ele>7.0</ele><time>2026-03-28T13:52:38.484Z</time></trkpt><trkpt lat="40.5143817" lon="15.0095617"><ele>7.0</ele><time>2026-03-28T13:52:39.484Z</time></trkpt><trkpt lat="40.5142067" lon="15.0096333"><ele>7.0</ele><time>2026-03-28T13:52:40.483Z</time></trkpt><trkpt lat="40.5140133" lon="15.0097033"><ele>7.0</ele><time>2026-03-28T13:52:41.483Z</time></trkpt><trkpt lat="40.5138083" lon="15.009775"><ele>7.5</ele><time>2026-03-28T13:52:42.484Z</time></trkpt><trkpt lat="40.5135883" lon="15.0098517"><ele>8.0</ele><time>2026-03-28T13:52:43.484Z</time></trkpt><trkpt lat="40.51336" lon="15.0099267"><ele>7.5</ele><time>2026-03-28T13:52:44.484Z</time></trkpt><trkpt lat="40.5131167" lon="15.0100083"><ele>7.0</ele><time>2026-03-28T13:52:45.483Z</time></trkpt><trkpt lat="40.5128717" lon="15.0100867"><ele>8.0</ele><time>2026-03-28T13:52:46.484Z</time></trkpt><trkpt lat="40.5126133" lon="15.01017"><ele>9.0</ele><time>2026-03-28T13:52:47.483Z</time></trkpt><trkpt lat="40.512345" lon="15.01027"><ele>9.0</ele><time>2026-03-28T13:52:48.483Z</time></trkpt><trkpt lat="40.51208" lon="15.0103667"><ele>9.0</ele><time>2026-03-28T13:52:49.483Z</time></trkpt><trkpt lat="40.5118233" lon="15.010465"><ele>9.0</ele><time>2026-03-28T13:52:50.483Z</time></trkpt><trkpt lat="40.51156" lon="15.0105667"><ele>9.0</ele><time>2026-03-28T13:52:51.483Z</time></trkpt><trkpt lat="40.5112933" lon="15.0106617"><ele>9.0</ele><time>2026-03-28T13:52:52.484Z</time></trkpt><trkpt lat="40.5110283" lon="15.010755"><ele>9.0</ele><time>2026-03-28T13:52:53.484Z</time></trkpt><trkpt lat="40.5107667" lon="15.0108533"><ele>9.0</ele><time>2026-03-28T13:52:54.484Z</time></trkpt><trkpt lat="40.5105167" lon="15.0109383"><ele>9.0</ele><time>2026-03-28T13:52:55.484Z</time></trkpt><trkpt lat="40.5102733" lon="15.01103"><ele>7.5</ele><time>2026-03-28T13:52:56.484Z</time></trkpt><trkpt lat="40.5100267" lon="15.01112"><ele>6.0</ele><time>2026-03-28T13:52:57.483Z</time></trkpt><trkpt lat="40.5097767" lon="15.011205"><ele>5.5</ele><time>2026-03-28T13:52:58.484Z</time></trkpt><trkpt lat="40.50953" lon="15.0112917"><ele>5.0</ele><time>2026-03-28T13:52:59.483Z</time></trkpt><trkpt lat="40.5092867" lon="15.0113833"><ele>5.0</ele><time>2026-03-28T13:53:00.484Z</time></trkpt><trkpt lat="40.5090533" lon="15.0114617"><ele>5.0</ele><time>2026-03-28T13:53:01.483Z</time></trkpt><trkpt lat="40.5088267" lon="15.011545"><ele>5.5</ele><time>2026-03-28T13:53:02.483Z</time></trkpt><trkpt lat="40.5086067" lon="15.01163"><ele>6.0</ele><time>2026-03-28T13:53:03.484Z</time></trkpt><trkpt lat="40.508385" lon="15.0117133"><ele>6.0</ele><time>2026-03-28T13:53:04.483Z</time></trkpt><trkpt lat="40.5081667" lon="15.0117967"><ele>6.0</ele><time>2026-03-28T13:53:05.483Z</time></trkpt><trkpt lat="40.5079583" lon="15.0118783"><ele>6.0</ele><time>2026-03-28T13:53:06.484Z</time></trkpt><trkpt lat="40.5077583" lon="15.0119483"><ele>6.0</ele><time>2026-03-28T13:53:07.483Z</time></trkpt><trkpt lat="40.5075683" lon="15.0120217"><ele>6.0</ele><time>2026-03-28T13:53:08.484Z</time></trkpt><trkpt lat="40.507375" lon="15.0120833"><ele>6.0</ele><time>2026-03-28T13:53:09.484Z</time></trkpt><trkpt lat="40.507185" lon="15.0121333"><ele>6.333333333333334</ele><time>2026-03-28T13:53:10.484Z</time></trkpt><trkpt lat="40.507" lon="15.01216"><ele>6.666666666666667</ele><time>2026-03-28T13:53:11.484Z</time></trkpt><trkpt lat="40.5068167" lon="15.0121683"><ele>7.0</ele><time>2026-03-28T13:53:12.484Z</time></trkpt><trkpt lat="40.5066317" lon="15.0121633"><ele>7.0</ele><time>2026-03-28T13:53:13.484Z</time></trkpt><trkpt lat="40.5064417" lon="15.0121417"><ele>7.0</ele><time>2026-03-28T13:53:14.484Z</time></trkpt><trkpt lat="40.50625" lon="15.01211"><ele>7.0</ele><time>2026-03-28T13:53:15.484Z</time></trkpt><trkpt lat="40.506055" lon="15.0120633"><ele>7.0</ele><time>2026-03-28T13:53:16.483Z</time></trkpt><trkpt lat="40.5058617" lon="15.0120133"><ele>7.0</ele><time>2026-03-28T13:53:17.484Z</time></trkpt><trkpt lat="40.5056717" lon="15.0119633"><ele>7.0</ele><time>2026-03-28T13:53:18.483Z</time></trkpt><trkpt lat="40.5054883" lon="15.0119133"><ele>6.666666666666667</ele><time>2026-03-28T13:53:19.484Z</time></trkpt><trkpt lat="40.505305" lon="15.0118617"><ele>6.333333333333334</ele><time>2026-03-28T13:53:20.484Z</time></trkpt><trkpt lat="40.5051283" lon="15.0118167"><ele>6.0</ele><time>2026-03-28T13:53:21.484Z</time></trkpt><trkpt lat="40.5049417" lon="15.0117733"><ele>6.0</ele><time>2026-03-28T13:53:22.483Z</time></trkpt><trkpt lat="40.5047567" lon="15.0117217"><ele>6.0</ele><time>2026-03-28T13:53:23.484Z</time></trkpt><trkpt lat="40.504575" lon="15.01168"><ele>6.0</ele><time>2026-03-28T13:53:24.484Z</time></trkpt><trkpt lat="40.5044017" lon="15.0116317"><ele>6.0</ele><time>2026-03-28T13:53:25.484Z</time></trkpt><trkpt lat="40.5042333" lon="15.0115867"><ele>6.0</ele><time>2026-03-28T13:53:26.484Z</time></trkpt><trkpt lat="40.50407" lon="15.01154"><ele>6.0</ele><time>2026-03-28T13:53:27.484Z</time></trkpt><trkpt lat="40.5039067" lon="15.0114933"><ele>5.666666666666667</ele><time>2026-03-28T13:53:28.483Z</time></trkpt><trkpt lat="40.503745" lon="15.0114467"><ele>5.333333333333334</ele><time>2026-03-28T13:53:29.484Z</time></trkpt><trkpt lat="40.50358" lon="15.0114033"><ele>5.0</ele><time>2026-03-28T13:53:30.483Z</time></trkpt><trkpt lat="40.503415" lon="15.01136"><ele>5.0</ele><time>2026-03-28T13:53:31.484Z</time></trkpt><trkpt lat="40.5032533" lon="15.0113167"><ele>5.0</ele><time>2026-03-28T13:53:32.483Z</time></trkpt><trkpt lat="40.5030933" lon="15.0112733"><ele>5.0</ele><time>2026-03-28T13:53:33.484Z</time></trkpt><trkpt lat="40.502935" lon="15.011235"><ele>5.5</ele><time>2026-03-28T13:53:34.483Z</time></trkpt><trkpt lat="40.5027783" lon="15.0112033"><ele>6.0</ele><time>2026-03-28T13:53:35.484Z</time></trkpt><trkpt lat="40.502445" lon="15.0112033"><ele>6.0</ele><time>2026-03-28T13:53:37.484Z</time></trkpt><trkpt lat="40.502265" lon="15.0112417"><ele>6.0</ele><time>2026-03-28T13:53:38.484Z</time></trkpt><trkpt lat="40.5020717" lon="15.01131"><ele>6.0</ele><time>2026-03-28T13:53:39.484Z</time></trkpt><trkpt lat="40.5018733" lon="15.0113983"><ele>6.0</ele><time>2026-03-28T13:53:40.483Z</time></trkpt><trkpt lat="40.5016783" lon="15.0114983"><ele>6.0</ele><time>2026-03-28T13:53:41.484Z</time></trkpt><trkpt lat="40.5014967" lon="15.0116"><ele>6.0</ele><time>2026-03-28T13:53:42.484Z</time></trkpt><trkpt lat="40.501325" lon="15.0117033"><ele>5.666666666666667</ele><time>2026-03-28T13:53:43.484Z</time></trkpt><trkpt lat="40.5011583" lon="15.0117967"><ele>5.333333333333334</ele><time>2026-03-28T13:53:44.483Z</time></trkpt><trkpt lat="40.5009867" lon="15.011895"><ele>5.0</ele><time>2026-03-28T13:53:45.483Z</time></trkpt><trkpt lat="40.5008183" lon="15.011995"><ele>5.0</ele><time>2026-03-28T13:53:46.483Z</time></trkpt><trkpt lat="40.5006517" lon="15.0120917"><ele>5.0</ele><time>2026-03-28T13:53:47.484Z</time></trkpt><trkpt lat="40.5004883" lon="15.012185"><ele>5.0</ele><time>2026-03-28T13:53:48.483Z</time></trkpt><trkpt lat="40.500325" lon="15.01228"><ele>5.0</ele><time>2026-03-28T13:53:49.484Z</time></trkpt><trkpt lat="40.5001483" lon="15.0123933"><ele>5.0</ele><time>2026-03-28T13:53:50.484Z</time></trkpt><trkpt lat="40.49996" lon="15.0125033"><ele>5.0</ele><time>2026-03-28T13:53:51.484Z</time></trkpt><trkpt lat="40.4997667" lon="15.0126217"><ele>4.666666666666667</ele><time>2026-03-28T13:53:52.484Z</time></trkpt><trkpt lat="40.4995717" lon="15.012725"><ele>4.333333333333333</ele><time>2026-03-28T13:53:53.484Z</time></trkpt><trkpt lat="40.4993817" lon="15.0128283"><ele>4.0</ele><time>2026-03-28T13:53:54.483Z</time></trkpt><trkpt lat="40.4991967" lon="15.012925"><ele>4.0</ele><time>2026-03-28T13:53:55.483Z</time></trkpt><trkpt lat="40.4990167" lon="15.0130233"><ele>4.0</ele><time>2026-03-28T13:53:56.484Z</time></trkpt><trkpt lat="40.4988267" lon="15.01313"><ele>4.0</ele><time>2026-03-28T13:53:57.483Z</time></trkpt><trkpt lat="40.4986417" lon="15.0132383"><ele>5.333333333333333</ele><time>2026-03-28T13:53:58.484Z</time></trkpt><trkpt lat="40.4984567" lon="15.013345"><ele>6.666666666666666</ele><time>2026-03-28T13:53:59.483Z</time></trkpt><trkpt lat="40.4982733" lon="15.0134567"><ele>8.0</ele><time>2026-03-28T13:54:00.484Z</time></trkpt><trkpt lat="40.498075" lon="15.0135817"><ele>7.5</ele><time>2026-03-28T13:54:01.483Z</time></trkpt><trkpt lat="40.497865" lon="15.0137183"><ele>7.0</ele><time>2026-03-28T13:54:02.484Z</time></trkpt><trkpt lat="40.4976533" lon="15.0138417"><ele>7.0</ele><time>2026-03-28T13:54:03.483Z</time></trkpt><trkpt lat="40.4974483" lon="15.0139533"><ele>7.0</ele><time>2026-03-28T13:54:04.484Z</time></trkpt><trkpt lat="40.4972467" lon="15.0140667"><ele>7.0</ele><time>2026-03-28T13:54:05.484Z</time></trkpt><trkpt lat="40.4970533" lon="15.0141717"><ele>6.666666666666667</ele><time>2026-03-28T13:54:06.484Z</time></trkpt><trkpt lat="40.4968667" lon="15.0142733"><ele>6.333333333333334</ele><time>2026-03-28T13:54:07.484Z</time></trkpt><trkpt lat="40.4966767" lon="15.014375"><ele>6.0</ele><time>2026-03-28T13:54:08.484Z</time></trkpt><trkpt lat="40.496495" lon="15.014475"><ele>6.0</ele><time>2026-03-28T13:54:09.483Z</time></trkpt><trkpt lat="40.4963183" lon="15.0145683"><ele>6.0</ele><time>2026-03-28T13:54:10.483Z</time></trkpt><trkpt lat="40.496145" lon="15.014665"><ele>6.0</ele><time>2026-03-28T13:54:11.483Z</time></trkpt><trkpt lat="40.49597" lon="15.0147567"><ele>7.333333333333334</ele><time>2026-03-28T13:54:12.483Z</time></trkpt><trkpt lat="40.4958033" lon="15.0148567"><ele>8.666666666666668</ele><time>2026-03-28T13:54:13.484Z</time></trkpt><trkpt lat="40.49565" lon="15.01495"><ele>10.0</ele><time>2026-03-28T13:54:14.484Z</time></trkpt><trkpt lat="40.49551" lon="15.0150283"><ele>11.25</ele><time>2026-03-28T13:54:15.484Z</time></trkpt><trkpt lat="40.4953817" lon="15.0150983"><ele>12.5</ele><time>2026-03-28T13:54:16.484Z</time></trkpt><trkpt lat="40.49526" lon="15.0151683"><ele>13.75</ele><time>2026-03-28T13:54:17.483Z</time></trkpt><trkpt lat="40.4951467" lon="15.01523"><ele>15.0</ele><time>2026-03-28T13:54:18.483Z</time></trkpt><trkpt lat="40.495035" lon="15.01529"><ele>15.0</ele><time>2026-03-28T13:54:19.484Z</time></trkpt><trkpt lat="40.49494" lon="15.0153433"><ele>15.0</ele><time>2026-03-28T13:54:20.484Z</time></trkpt><trkpt lat="40.4948583" lon="15.015395"><ele>15.0</ele><time>2026-03-28T13:54:21.484Z</time></trkpt><trkpt lat="40.49478" lon="15.01544"><ele>15.0</ele><time>2026-03-28T13:54:22.484Z</time></trkpt><trkpt lat="40.4947167" lon="15.0154767"><ele>15.0</ele><time>2026-03-28T13:54:23.483Z</time></trkpt><trkpt lat="40.494635" lon="15.0155183"><ele>15.0</ele><time>2026-03-28T13:54:25.484Z</time></trkpt><trkpt lat="40.494555" lon="15.0155583"><ele>15.2</ele><time>2026-03-28T13:54:27.484Z</time></trkpt><trkpt lat="40.4944417" lon="15.015635"><ele>15.4</ele><time>2026-03-28T13:54:29.484Z</time></trkpt><trkpt lat="40.4943883" lon="15.015705"><ele>15.600000000000001</ele><time>2026-03-28T13:54:30.484Z</time></trkpt><trkpt lat="40.49433" lon="15.01578"><ele>15.8</ele><time>2026-03-28T13:54:31.484Z</time></trkpt><trkpt lat="40.4942617" lon="15.0158567"><ele>16.0</ele><time>2026-03-28T13:54:32.484Z</time></trkpt><trkpt lat="40.4941833" lon="15.0159233"><ele>16.0</ele><time>2026-03-28T13:54:33.484Z</time></trkpt><trkpt lat="40.494105" lon="15.015975"><ele>16.0</ele><time>2026-03-28T13:54:34.483Z</time></trkpt><trkpt lat="40.494025" lon="15.0160117"><ele>16.0</ele><time>2026-03-28T13:54:35.484Z</time></trkpt><trkpt lat="40.49394" lon="15.0160433"><ele>16.0</ele><time>2026-03-28T13:54:36.484Z</time></trkpt><trkpt lat="40.4938417" lon="15.0160833"><ele>16.0</ele><time>2026-03-28T13:54:37.484Z</time></trkpt><trkpt lat="40.493745" lon="15.01612"><ele>15.999999999999998</ele><time>2026-03-28T13:54:38.483Z</time></trkpt><trkpt lat="40.4936617" lon="15.0161417"><ele>16.0</ele><time>2026-03-28T13:54:39.483Z</time></trkpt><trkpt lat="40.4935967" lon="15.016165"><ele>16.0</ele><time>2026-03-28T13:54:40.483Z</time></trkpt><trkpt lat="40.493525" lon="15.0161917"><ele>16.0</ele><time>2026-03-28T13:54:41.484Z</time></trkpt><trkpt lat="40.4934333" lon="15.0162267"><ele>15.999999999999998</ele><time>2026-03-28T13:54:42.483Z</time></trkpt><trkpt lat="40.4933233" lon="15.0162667"><ele>16.0</ele><time>2026-03-28T13:54:43.484Z</time></trkpt><trkpt lat="40.4932117" lon="15.0162933"><ele>16.0</ele><time>2026-03-28T13:54:44.484Z</time></trkpt><trkpt lat="40.4930983" lon="15.0163133"><ele>16.0</ele><time>2026-03-28T13:54:45.483Z</time></trkpt><trkpt lat="40.49297" lon="15.0163233"><ele>16.0</ele><time>2026-03-28T13:54:46.483Z</time></trkpt><trkpt lat="40.4928317" lon="15.0163267"><ele>16.0</ele><time>2026-03-28T13:54:47.484Z</time></trkpt><trkpt lat="40.492695" lon="15.0163283"><ele>16.25</ele><time>2026-03-28T13:54:48.484Z</time></trkpt><trkpt lat="40.4925483" lon="15.0163233"><ele>16.5</ele><time>2026-03-28T13:54:49.484Z</time></trkpt><trkpt lat="40.4924033" lon="15.01631"><ele>16.75</ele><time>2026-03-28T13:54:50.484Z</time></trkpt><trkpt lat="40.4922567" lon="15.0162867"><ele>17.0</ele><time>2026-03-28T13:54:51.484Z</time></trkpt><trkpt lat="40.4921017" lon="15.0162683"><ele>17.333333333333336</ele><time>2026-03-28T13:54:52.483Z</time></trkpt><trkpt lat="40.491945" lon="15.0162433"><ele>17.666666666666668</ele><time>2026-03-28T13:54:53.484Z</time></trkpt><trkpt lat="40.4917883" lon="15.016225"><ele>18.0</ele><time>2026-03-28T13:54:54.483Z</time></trkpt><trkpt lat="40.4916333" lon="15.016205"><ele>18.0</ele><time>2026-03-28T13:54:55.484Z</time></trkpt><trkpt lat="40.491475" lon="15.016185"><ele>18.0</ele><time>2026-03-28T13:54:56.483Z</time></trkpt><trkpt lat="40.4913217" lon="15.0161733"><ele>18.0</ele><time>2026-03-28T13:54:57.484Z</time></trkpt><trkpt lat="40.4911617" lon="15.0161567"><ele>17.666666666666668</ele><time>2026-03-28T13:54:58.483Z</time></trkpt><trkpt lat="40.4910017" lon="15.0161467"><ele>17.333333333333336</ele><time>2026-03-28T13:54:59.483Z</time></trkpt><trkpt lat="40.49083" lon="15.0161283"><ele>17.0</ele><time>2026-03-28T13:55:00.483Z</time></trkpt><trkpt lat="40.4906417" lon="15.016105"><ele>17.0</ele><time>2026-03-28T13:55:01.484Z</time></trkpt><trkpt lat="40.4904333" lon="15.01609"><ele>17.0</ele><time>2026-03-28T13:55:02.483Z</time></trkpt><trkpt lat="40.4902" lon="15.0160617"><ele>17.0</ele><time>2026-03-28T13:55:03.483Z</time></trkpt><trkpt lat="40.489955" lon="15.0160233"><ele>16.5</ele><time>2026-03-28T13:55:04.483Z</time></trkpt><trkpt lat="40.48971" lon="15.0159917"><ele>16.0</ele><time>2026-03-28T13:55:05.483Z</time></trkpt><trkpt lat="40.48945" lon="15.0159533"><ele>17.0</ele><time>2026-03-28T13:55:06.483Z</time></trkpt><trkpt lat="40.4891733" lon="15.0159183"><ele>18.0</ele><time>2026-03-28T13:55:07.484Z</time></trkpt><trkpt lat="40.4888933" lon="15.0158867"><ele>16.0</ele><time>2026-03-28T13:55:08.483Z</time></trkpt><trkpt lat="40.4886067" lon="15.0158517"><ele>14.0</ele><time>2026-03-28T13:55:09.483Z</time></trkpt><trkpt lat="40.4883267" lon="15.0158217"><ele>14.5</ele><time>2026-03-28T13:55:10.483Z</time></trkpt><trkpt lat="40.488045" lon="15.0157933"><ele>15.0</ele><time>2026-03-28T13:55:11.484Z</time></trkpt><trkpt lat="40.4877717" lon="15.0157583"><ele>13.0</ele><time>2026-03-28T13:55:12.484Z</time></trkpt><trkpt lat="40.4875017" lon="15.0157233"><ele>11.0</ele><time>2026-03-28T13:55:13.484Z</time></trkpt><trkpt lat="40.4872367" lon="15.0156933"><ele>10.0</ele><time>2026-03-28T13:55:14.483Z</time></trkpt><trkpt lat="40.4869717" lon="15.0156567"><ele>9.0</ele><time>2026-03-28T13:55:15.483Z</time></trkpt><trkpt lat="40.4867117" lon="15.0156233"><ele>9.0</ele><time>2026-03-28T13:55:16.483Z</time></trkpt><trkpt lat="40.4864517" lon="15.01559"><ele>9.0</ele><time>2026-03-28T13:55:17.484Z</time></trkpt><trkpt lat="40.486195" lon="15.0155567"><ele>10.0</ele><time>2026-03-28T13:55:18.484Z</time></trkpt><trkpt lat="40.4859333" lon="15.0155217"><ele>11.0</ele><time>2026-03-28T13:55:19.484Z</time></trkpt><trkpt lat="40.485675" lon="15.01549"><ele>11.5</ele><time>2026-03-28T13:55:20.483Z</time></trkpt><trkpt lat="40.48542" lon="15.0154567"><ele>12.0</ele><time>2026-03-28T13:55:21.483Z</time></trkpt><trkpt lat="40.4851617" lon="15.015425"><ele>12.0</ele><time>2026-03-28T13:55:22.483Z</time></trkpt><trkpt lat="40.4849033" lon="15.0153983"><ele>12.0</ele><time>2026-03-28T13:55:23.483Z</time></trkpt><trkpt lat="40.484655" lon="15.0153683"><ele>12.5</ele><time>2026-03-28T13:55:24.483Z</time></trkpt><trkpt lat="40.4844183" lon="15.015335"><ele>13.0</ele><time>2026-03-28T13:55:25.484Z</time></trkpt><trkpt lat="40.4841883" lon="15.0153083"><ele>13.0</ele><time>2026-03-28T13:55:26.483Z</time></trkpt><trkpt lat="40.4839517" lon="15.0152817"><ele>13.0</ele><time>2026-03-28T13:55:27.484Z</time></trkpt><trkpt lat="40.4837217" lon="15.0152533"><ele>12.0</ele><time>2026-03-28T13:55:28.484Z</time></trkpt><trkpt lat="40.483495" lon="15.01522"><ele>11.0</ele><time>2026-03-28T13:55:29.484Z</time></trkpt><trkpt lat="40.4832667" lon="15.0151933"><ele>11.0</ele><time>2026-03-28T13:55:30.484Z</time></trkpt><trkpt lat="40.48303" lon="15.0151683"><ele>11.0</ele><time>2026-03-28T13:55:31.484Z</time></trkpt><trkpt lat="40.4827933" lon="15.0151483"><ele>11.5</ele><time>2026-03-28T13:55:32.484Z</time></trkpt><trkpt lat="40.4825567" lon="15.01512"><ele>12.0</ele><time>2026-03-28T13:55:33.484Z</time></trkpt><trkpt lat="40.4823317" lon="15.0150917"><ele>12.0</ele><time>2026-03-28T13:55:34.483Z</time></trkpt><trkpt lat="40.4821233" lon="15.01507"><ele>12.0</ele><time>2026-03-28T13:55:35.484Z</time></trkpt><trkpt lat="40.4819267" lon="15.01505"><ele>12.0</ele><time>2026-03-28T13:55:36.484Z</time></trkpt><trkpt lat="40.4817517" lon="15.0150283"><ele>12.333333333333332</ele><time>2026-03-28T13:55:37.484Z</time></trkpt><trkpt lat="40.4815767" lon="15.0149983"><ele>12.666666666666666</ele><time>2026-03-28T13:55:38.484Z</time></trkpt><trkpt lat="40.4814" lon="15.0149667"><ele>13.0</ele><time>2026-03-28T13:55:39.483Z</time></trkpt><trkpt lat="40.4812167" lon="15.0149417"><ele>14.0</ele><time>2026-03-28T13:55:40.483Z</time></trkpt><trkpt lat="40.48102" lon="15.0149317"><ele>15.0</ele><time>2026-03-28T13:55:41.483Z</time></trkpt><trkpt lat="40.4808233" lon="15.0149167"><ele>16.0</ele><time>2026-03-28T13:55:42.484Z</time></trkpt><trkpt lat="40.4806317" lon="15.0148917"><ele>16.0</ele><time>2026-03-28T13:55:43.484Z</time></trkpt><trkpt lat="40.4804433" lon="15.0148633"><ele>16.0</ele><time>2026-03-28T13:55:44.484Z</time></trkpt><trkpt lat="40.4802467" lon="15.01483"><ele>16.0</ele><time>2026-03-28T13:55:45.484Z</time></trkpt><trkpt lat="40.48004" lon="15.0148"><ele>16.333333333333332</ele><time>2026-03-28T13:55:46.483Z</time></trkpt><trkpt lat="40.47982" lon="15.0147817"><ele>16.666666666666668</ele><time>2026-03-28T13:55:47.483Z</time></trkpt><trkpt lat="40.4795933" lon="15.014755"><ele>17.0</ele><time>2026-03-28T13:55:48.483Z</time></trkpt><trkpt lat="40.4793633" lon="15.014735"><ele>17.5</ele><time>2026-03-28T13:55:49.484Z</time></trkpt><trkpt lat="40.4791383" lon="15.0147033"><ele>18.0</ele><time>2026-03-28T13:55:50.483Z</time></trkpt><trkpt lat="40.4789133" lon="15.014675"><ele>18.333333333333332</ele><time>2026-03-28T13:55:51.484Z</time></trkpt><trkpt lat="40.4786883" lon="15.014645"><ele>18.666666666666664</ele><time>2026-03-28T13:55:52.484Z</time></trkpt><trkpt lat="40.4784667" lon="15.014615"><ele>19.0</ele><time>2026-03-28T13:55:53.484Z</time></trkpt><trkpt lat="40.478245" lon="15.0145833"><ele>19.0</ele><time>2026-03-28T13:55:54.483Z</time></trkpt><trkpt lat="40.4780183" lon="15.0145567"><ele>19.0</ele><time>2026-03-28T13:55:55.484Z</time></trkpt><trkpt lat="40.4777933" lon="15.0145367"><ele>19.0</ele><time>2026-03-28T13:55:56.483Z</time></trkpt><trkpt lat="40.4775717" lon="15.01451"><ele>19.0</ele><time>2026-03-28T13:55:57.484Z</time></trkpt><trkpt lat="40.47736" lon="15.014485"><ele>19.0</ele><time>2026-03-28T13:55:58.484Z</time></trkpt><trkpt lat="40.47715" lon="15.01446"><ele>19.333333333333332</ele><time>2026-03-28T13:55:59.484Z</time></trkpt><trkpt lat="40.47694" lon="15.0144317"><ele>19.666666666666668</ele><time>2026-03-28T13:56:00.484Z</time></trkpt><trkpt lat="40.476735" lon="15.0144067"><ele>20.0</ele><time>2026-03-28T13:56:01.483Z</time></trkpt><trkpt lat="40.4765317" lon="15.0143833"><ele>20.0</ele><time>2026-03-28T13:56:02.484Z</time></trkpt><trkpt lat="40.47633" lon="15.0143617"><ele>20.0</ele><time>2026-03-28T13:56:03.484Z</time></trkpt><trkpt lat="40.4761367" lon="15.014335"><ele>20.0</ele><time>2026-03-28T13:56:04.484Z</time></trkpt><trkpt lat="40.4759433" lon="15.0143183"><ele>20.0</ele><time>2026-03-28T13:56:05.484Z</time></trkpt><trkpt lat="40.47575" lon="15.014305"><ele>20.0</ele><time>2026-03-28T13:56:06.484Z</time></trkpt><trkpt lat="40.4755617" lon="15.0142833"><ele>20.0</ele><time>2026-03-28T13:56:07.483Z</time></trkpt><trkpt lat="40.4753633" lon="15.0142633"><ele>20.0</ele><time>2026-03-28T13:56:08.483Z</time></trkpt><trkpt lat="40.4751517" lon="15.01424"><ele>20.0</ele><time>2026-03-28T13:56:09.483Z</time></trkpt><trkpt lat="40.4749367" lon="15.0142067"><ele>20.0</ele><time>2026-03-28T13:56:10.484Z</time></trkpt><trkpt lat="40.47471" lon="15.01418"><ele>21.5</ele><time>2026-03-28T13:56:11.484Z</time></trkpt><trkpt lat="40.474485" lon="15.014155"><ele>23.0</ele><time>2026-03-28T13:56:12.484Z</time></trkpt><trkpt lat="40.4742583" lon="15.0141317"><ele>23.0</ele><time>2026-03-28T13:56:13.483Z</time></trkpt><trkpt lat="40.4740167" lon="15.0141"><ele>23.0</ele><time>2026-03-28T13:56:14.483Z</time></trkpt><trkpt lat="40.473765" lon="15.01406"><ele>23.0</ele><time>2026-03-28T13:56:15.483Z</time></trkpt><trkpt lat="40.473505" lon="15.01402"><ele>23.0</ele><time>2026-03-28T13:56:16.483Z</time></trkpt><trkpt lat="40.47324" lon="15.0139817"><ele>23.0</ele><time>2026-03-28T13:56:17.483Z</time></trkpt><trkpt lat="40.47299" lon="15.0139517"><ele>23.0</ele><time>2026-03-28T13:56:18.484Z</time></trkpt><trkpt lat="40.4727367" lon="15.0139233"><ele>23.5</ele><time>2026-03-28T13:56:19.483Z</time></trkpt><trkpt lat="40.4724833" lon="15.0138967"><ele>24.0</ele><time>2026-03-28T13:56:20.483Z</time></trkpt><trkpt lat="40.4722433" lon="15.0138667"><ele>24.333333333333336</ele><time>2026-03-28T13:56:21.483Z</time></trkpt><trkpt lat="40.4720183" lon="15.013835"><ele>24.666666666666668</ele><time>2026-03-28T13:56:22.484Z</time></trkpt><trkpt lat="40.4718033" lon="15.0138083"><ele>25.0</ele><time>2026-03-28T13:56:23.484Z</time></trkpt><trkpt lat="40.4716033" lon="15.0137783"><ele>25.0</ele><time>2026-03-28T13:56:24.483Z</time></trkpt><trkpt lat="40.4714117" lon="15.0137583"><ele>25.0</ele><time>2026-03-28T13:56:25.484Z</time></trkpt><trkpt lat="40.471235" lon="15.01375"><ele>25.0</ele><time>2026-03-28T13:56:26.483Z</time></trkpt><trkpt lat="40.4710633" lon="15.0137433"><ele>24.75</ele><time>2026-03-28T13:56:27.484Z</time></trkpt><trkpt lat="40.4709017" lon="15.013735"><ele>24.5</ele><time>2026-03-28T13:56:28.483Z</time></trkpt><trkpt lat="40.470755" lon="15.013735"><ele>24.25</ele><time>2026-03-28T13:56:29.484Z</time></trkpt><trkpt lat="40.4706217" lon="15.0137383"><ele>24.0</ele><time>2026-03-28T13:56:30.483Z</time></trkpt><trkpt lat="40.470515" lon="15.0137333"><ele>24.0</ele><time>2026-03-28T13:56:31.483Z</time></trkpt><trkpt lat="40.4704433" lon="15.01372"><ele>24.0</ele><time>2026-03-28T13:56:32.484Z</time></trkpt><trkpt lat="40.47034" lon="15.0136767"><ele>24.0</ele><time>2026-03-28T13:56:34.484Z</time></trkpt><trkpt lat="40.4702417" lon="15.013595"><ele>24.0</ele><time>2026-03-28T13:56:36.483Z</time></trkpt><trkpt lat="40.4701833" lon="15.0135533"><ele>24.0</ele><time>2026-03-28T13:56:37.484Z</time></trkpt><trkpt lat="40.470115" lon="15.01353"><ele>24.0</ele><time>2026-03-28T13:56:38.483Z</time></trkpt><trkpt lat="40.4700317" lon="15.013525"><ele>24.0</ele><time>2026-03-28T13:56:39.484Z</time></trkpt><trkpt lat="40.4699333" lon="15.013535"><ele>24.0</ele><time>2026-03-28T13:56:40.484Z</time></trkpt><trkpt lat="40.4698133" lon="15.01355"><ele>24.0</ele><time>2026-03-28T13:56:41.483Z</time></trkpt><trkpt lat="40.4696683" lon="15.0135583"><ele>24.0</ele><time>2026-03-28T13:56:42.484Z</time></trkpt><trkpt lat="40.4695033" lon="15.01355"><ele>24.0</ele><time>2026-03-28T13:56:43.483Z</time></trkpt><trkpt lat="40.469325" lon="15.0135217"><ele>24.0</ele><time>2026-03-28T13:56:44.484Z</time></trkpt><trkpt lat="40.46915" lon="15.0134883"><ele>24.0</ele><time>2026-03-28T13:56:45.484Z</time></trkpt><trkpt lat="40.4689633" lon="15.0134583"><ele>24.0</ele><time>2026-03-28T13:56:46.484Z</time></trkpt><trkpt lat="40.4687783" lon="15.0134417"><ele>24.0</ele><time>2026-03-28T13:56:47.483Z</time></trkpt><trkpt lat="40.468585" lon="15.0134183"><ele>24.0</ele><time>2026-03-28T13:56:48.484Z</time></trkpt><trkpt lat="40.4683933" lon="15.0133883"><ele>24.0</ele><time>2026-03-28T13:56:49.484Z</time></trkpt><trkpt lat="40.4681983" lon="15.0133617"><ele>24.0</ele><time>2026-03-28T13:56:50.484Z</time></trkpt><trkpt lat="40.46801" lon="15.01334"><ele>24.0</ele><time>2026-03-28T13:56:51.484Z</time></trkpt><trkpt lat="40.46783" lon="15.0133267"><ele>23.666666666666668</ele><time>2026-03-28T13:56:52.483Z</time></trkpt><trkpt lat="40.46766" lon="15.0133033"><ele>23.333333333333336</ele><time>2026-03-28T13:56:53.484Z</time></trkpt><trkpt lat="40.4675033" lon="15.0132967"><ele>23.0</ele><time>2026-03-28T13:56:54.484Z</time></trkpt><trkpt lat="40.4673417" lon="15.013315"><ele>23.666666666666668</ele><time>2026-03-28T13:56:55.483Z</time></trkpt><trkpt lat="40.4671867" lon="15.0133483"><ele>24.333333333333336</ele><time>2026-03-28T13:56:56.483Z</time></trkpt><trkpt lat="40.467025" lon="15.0134167"><ele>25.0</ele><time>2026-03-28T13:56:57.483Z</time></trkpt><trkpt lat="40.466875" lon="15.01352"><ele>25.0</ele><time>2026-03-28T13:56:58.484Z</time></trkpt><trkpt lat="40.4667283" lon="15.013635"><ele>25.0</ele><time>2026-03-28T13:56:59.484Z</time></trkpt><trkpt lat="40.4665833" lon="15.0137667"><ele>25.0</ele><time>2026-03-28T13:57:00.483Z</time></trkpt><trkpt lat="40.4664517" lon="15.01389"><ele>25.0</ele><time>2026-03-28T13:57:01.484Z</time></trkpt><trkpt lat="40.4663167" lon="15.0139883"><ele>25.0</ele><time>2026-03-28T13:57:02.484Z</time></trkpt><trkpt lat="40.466185" lon="15.0140467"><ele>25.0</ele><time>2026-03-28T13:57:03.484Z</time></trkpt><trkpt lat="40.46605" lon="15.0140767"><ele>25.0</ele><time>2026-03-28T13:57:04.484Z</time></trkpt><trkpt lat="40.4659117" lon="15.0140683"><ele>25.0</ele><time>2026-03-28T13:57:05.484Z</time></trkpt><trkpt lat="40.465785" lon="15.0140317"><ele>25.0</ele><time>2026-03-28T13:57:06.483Z</time></trkpt><trkpt lat="40.4656583" lon="15.01396"><ele>25.0</ele><time>2026-03-28T13:57:07.484Z</time></trkpt><trkpt lat="40.465545" lon="15.0138567"><ele>25.0</ele><time>2026-03-28T13:57:08.483Z</time></trkpt><trkpt lat="40.4654383" lon="15.013735"><ele>25.0</ele><time>2026-03-28T13:57:09.484Z</time></trkpt><trkpt lat="40.465355" lon="15.0135833"><ele>25.0</ele><time>2026-03-28T13:57:10.484Z</time></trkpt><trkpt lat="40.4652883" lon="15.0134083"><ele>25.0</ele><time>2026-03-28T13:57:11.484Z</time></trkpt><trkpt lat="40.4652367" lon="15.0132133"><ele>25.0</ele><time>2026-03-28T13:57:12.484Z</time></trkpt><trkpt lat="40.4651817" lon="15.0130117"><ele>25.0</ele><time>2026-03-28T13:57:13.484Z</time></trkpt><trkpt lat="40.465125" lon="15.01282"><ele>25.0</ele><time>2026-03-28T13:57:14.484Z</time></trkpt><trkpt lat="40.4650733" lon="15.012635"><ele>25.0</ele><time>2026-03-28T13:57:15.483Z</time></trkpt><trkpt lat="40.4650117" lon="15.0124633"><ele>24.5</ele><time>2026-03-28T13:57:16.483Z</time></trkpt><trkpt lat="40.4649383" lon="15.0123083"><ele>24.0</ele><time>2026-03-28T13:57:17.483Z</time></trkpt><trkpt lat="40.4648433" lon="15.0121683"><ele>23.5</ele><time>2026-03-28T13:57:18.484Z</time></trkpt><trkpt lat="40.464735" lon="15.0120517"><ele>23.0</ele><time>2026-03-28T13:57:19.483Z</time></trkpt><trkpt lat="40.4646083" lon="15.011955"><ele>23.0</ele><time>2026-03-28T13:57:20.484Z</time></trkpt><trkpt lat="40.464475" lon="15.0118767"><ele>23.0</ele><time>2026-03-28T13:57:21.483Z</time></trkpt><trkpt lat="40.4643317" lon="15.0118267"><ele>23.0</ele><time>2026-03-28T13:57:22.483Z</time></trkpt><trkpt lat="40.46419" lon="15.0118133"><ele>23.0</ele><time>2026-03-28T13:57:23.483Z</time></trkpt><trkpt lat="40.4640467" lon="15.0118283"><ele>23.0</ele><time>2026-03-28T13:57:24.483Z</time></trkpt><trkpt lat="40.46391" lon="15.0118683"><ele>23.0</ele><time>2026-03-28T13:57:25.484Z</time></trkpt><trkpt lat="40.4637733" lon="15.0119417"><ele>23.0</ele><time>2026-03-28T13:57:26.484Z</time></trkpt><trkpt lat="40.4636383" lon="15.0120317"><ele>23.0</ele><time>2026-03-28T13:57:27.484Z</time></trkpt><trkpt lat="40.46349" lon="15.012145"><ele>22.666666666666668</ele><time>2026-03-28T13:57:28.484Z</time></trkpt><trkpt lat="40.4633383" lon="15.0122717"><ele>22.333333333333332</ele><time>2026-03-28T13:57:29.484Z</time></trkpt><trkpt lat="40.4631817" lon="15.0123983"><ele>22.0</ele><time>2026-03-28T13:57:30.483Z</time></trkpt><trkpt lat="40.46303" lon="15.0125083"><ele>22.0</ele><time>2026-03-28T13:57:31.483Z</time></trkpt><trkpt lat="40.46289" lon="15.0126"><ele>22.0</ele><time>2026-03-28T13:57:32.484Z</time></trkpt><trkpt lat="40.462755" lon="15.012655"><ele>22.0</ele><time>2026-03-28T13:57:33.484Z</time></trkpt><trkpt lat="40.4626167" lon="15.0126983"><ele>22.0</ele><time>2026-03-28T13:57:34.484Z</time></trkpt><trkpt lat="40.4624733" lon="15.0127067"><ele>22.0</ele><time>2026-03-28T13:57:35.484Z</time></trkpt><trkpt lat="40.4623167" lon="15.0126967"><ele>22.0</ele><time>2026-03-28T13:57:36.484Z</time></trkpt><trkpt lat="40.462165" lon="15.0126717"><ele>22.0</ele><time>2026-03-28T13:57:37.484Z</time></trkpt><trkpt lat="40.462005" lon="15.01265"><ele>22.333333333333332</ele><time>2026-03-28T13:57:38.483Z</time></trkpt><trkpt lat="40.461845" lon="15.0126233"><ele>22.666666666666668</ele><time>2026-03-28T13:57:39.484Z</time></trkpt><trkpt lat="40.461685" lon="15.0126"><ele>23.0</ele><time>2026-03-28T13:57:40.484Z</time></trkpt><trkpt lat="40.4615183" lon="15.0125833"><ele>23.0</ele><time>2026-03-28T13:57:41.484Z</time></trkpt><trkpt lat="40.4613383" lon="15.0125667"><ele>23.0</ele><time>2026-03-28T13:57:42.483Z</time></trkpt><trkpt lat="40.4611783" lon="15.01255"><ele>23.0</ele><time>2026-03-28T13:57:43.483Z</time></trkpt><trkpt lat="40.4610217" lon="15.0125333"><ele>22.75</ele><time>2026-03-28T13:57:44.483Z</time></trkpt><trkpt lat="40.4608833" lon="15.0125183"><ele>22.5</ele><time>2026-03-28T13:57:45.483Z</time></trkpt><trkpt lat="40.4607533" lon="15.0125017"><ele>22.25</ele><time>2026-03-28T13:57:46.483Z</time></trkpt><trkpt lat="40.4606317" lon="15.0124867"><ele>22.0</ele><time>2026-03-28T13:57:47.484Z</time></trkpt><trkpt lat="40.4605133" lon="15.0124667"><ele>21.6</ele><time>2026-03-28T13:57:48.483Z</time></trkpt><trkpt lat="40.460405" lon="15.012455"><ele>21.200000000000003</ele><time>2026-03-28T13:57:49.484Z</time></trkpt><trkpt lat="40.4603017" lon="15.0124383"><ele>20.8</ele><time>2026-03-28T13:57:50.484Z</time></trkpt><trkpt lat="40.4602" lon="15.0124217"><ele>20.4</ele><time>2026-03-28T13:57:51.484Z</time></trkpt><trkpt lat="40.460095" lon="15.0124133"><ele>20.0</ele><time>2026-03-28T13:57:52.484Z</time></trkpt><trkpt lat="40.459995" lon="15.0124"><ele>20.0</ele><time>2026-03-28T13:57:53.483Z</time></trkpt><trkpt lat="40.459895" lon="15.0123883"><ele>20.0</ele><time>2026-03-28T13:57:54.483Z</time></trkpt><trkpt lat="40.45979" lon="15.01238"><ele>20.0</ele><time>2026-03-28T13:57:55.484Z</time></trkpt><trkpt lat="40.4596767" lon="15.0123717"><ele>20.0</ele><time>2026-03-28T13:57:56.484Z</time></trkpt><trkpt lat="40.4595633" lon="15.0123633"><ele>20.0</ele><time>2026-03-28T13:57:57.483Z</time></trkpt><trkpt lat="40.4594483" lon="15.0123533"><ele>20.2</ele><time>2026-03-28T13:57:58.483Z</time></trkpt><trkpt lat="40.459335" lon="15.0123433"><ele>20.4</ele><time>2026-03-28T13:57:59.484Z</time></trkpt><trkpt lat="40.45923" lon="15.01233"><ele>20.6</ele><time>2026-03-28T13:58:00.484Z</time></trkpt><trkpt lat="40.4591283" lon="15.012315"><ele>20.8</ele><time>2026-03-28T13:58:01.483Z</time></trkpt><trkpt lat="40.4590267" lon="15.0123033"><ele>21.0</ele><time>2026-03-28T13:58:02.484Z</time></trkpt><trkpt lat="40.45893" lon="15.0122933"><ele>21.0</ele><time>2026-03-28T13:58:03.484Z</time></trkpt><trkpt lat="40.4588283" lon="15.0122833"><ele>21.0</ele><time>2026-03-28T13:58:04.483Z</time></trkpt><trkpt lat="40.4587233" lon="15.012275"><ele>21.0</ele><time>2026-03-28T13:58:05.484Z</time></trkpt><trkpt lat="40.4586233" lon="15.0122667"><ele>21.0</ele><time>2026-03-28T13:58:06.484Z</time></trkpt><trkpt lat="40.4585317" lon="15.0122567"><ele>21.0</ele><time>2026-03-28T13:58:07.484Z</time></trkpt><trkpt lat="40.4584517" lon="15.0122383"><ele>21.333333333333332</ele><time>2026-03-28T13:58:08.484Z</time></trkpt><trkpt lat="40.4583767" lon="15.012235"><ele>21.666666666666668</ele><time>2026-03-28T13:58:09.483Z</time></trkpt><trkpt lat="40.4583" lon="15.01222"><ele>22.0</ele><time>2026-03-28T13:58:10.483Z</time></trkpt><trkpt lat="40.4581983" lon="15.01226"><ele>22.333333333333336</ele><time>2026-03-28T13:58:12.483Z</time></trkpt><trkpt lat="40.458125" lon="15.0123617"><ele>22.666666666666668</ele><time>2026-03-28T13:58:14.483Z</time></trkpt><trkpt lat="40.45817" lon="15.01245"><ele>23.0</ele><time>2026-03-28T13:58:46.483Z</time></trkpt><trkpt lat="40.4581567" lon="15.0126"><ele>23.4</ele><time>2026-03-28T13:58:48.484Z</time></trkpt><trkpt lat="40.4581533" lon="15.012685"><ele>23.799999999999997</ele><time>2026-03-28T13:58:49.483Z</time></trkpt><trkpt lat="40.45814" lon="15.01285"><ele>24.2</ele><time>2026-03-28T13:58:51.484Z</time></trkpt><trkpt lat="40.45815" lon="15.01297"><ele>24.6</ele><time>2026-03-28T13:58:53.483Z</time></trkpt><trkpt lat="40.4582267" lon="15.0130933"><ele>25.0</ele><time>2026-03-28T14:02:01.485Z</time></trkpt><trkpt lat="40.4581583" lon="15.0130333"><ele>25.0</ele><time>2026-03-28T14:07:54.486Z</time></trkpt></trkseg></trk></gpx>